<?xml version='1.0' encoding='UTF-8'?><gpx version="1.1" creator="JPX - https://github.com/jenetics/jpx" xmlns="http://www.topografix.com/GPX/1/1"><trk><trkseg><trkpt lat="44.12161282869711" lon="9.846946502938994"><ele>14.0</ele><time>2026-04-22T06:36:37Z</time></trkpt><trkpt lat="44.12164290353414" lon="9.846805707996603"><ele>13.999999999999998</ele><time>2026-04-22T06:36:40Z</time></trkpt><trkpt lat="44.12154899229" lon="9.84675572598641"><ele>13.999999999999998</ele><time>2026-04-22T06:36:52Z</time></trkpt><trkpt lat="44.121430323491275" lon="9.846729929865148"><ele>14.0</ele><time>2026-04-22T06:36:53Z</time></trkpt><trkpt lat="44.12132333313348" lon="9.8467488999094"><ele>14.0</ele><time>2026-04-22T06:36:54Z</time></trkpt><trkpt lat="44.12123727890843" lon="9.846740159105538"><ele>13.799999999999999</ele><time>2026-04-22T06:36:55Z</time></trkpt><trkpt lat="44.1211649910483" lon="9.846733939965405"><ele>13.599999999999998</ele><time>2026-04-22T06:36:55.999Z</time></trkpt><trkpt lat="44.12107196990608" lon="9.846716111193205"><ele>13.4</ele><time>2026-04-22T06:36:57.999Z</time></trkpt><trkpt lat="44.12100216142563" lon="9.846662133015675"><ele>13.2</ele><time>2026-04-22T06:37:00.999Z</time></trkpt><trkpt lat="44.12091202057499" lon="9.84661531885134"><ele>13.0</ele><time>2026-04-22T06:37:02.999Z</time></trkpt><trkpt lat="44.120784224909876" lon="9.846808003800733"><ele>13.2</ele><time>2026-04-22T06:37:03.999Z</time></trkpt><trkpt lat="44.12070952907446" lon="9.846808035841526"><ele>13.4</ele><time>2026-04-22T06:37:04.999Z</time></trkpt><trkpt lat="44.1206198356614" lon="9.846831563022922"><ele>13.599999999999998</ele><time>2026-04-22T06:37:05.999Z</time></trkpt><trkpt lat="44.12052985581289" lon="9.846832734403375"><ele>13.799999999999999</ele><time>2026-04-22T06:37:06.999Z</time></trkpt><trkpt lat="44.1204326605994" lon="9.846832516128583"><ele>14.0</ele><time>2026-04-22T06:37:07.999Z</time></trkpt><trkpt lat="44.120334174346134" lon="9.8468230586351"><ele>14.0</ele><time>2026-04-22T06:37:08.999Z</time></trkpt><trkpt lat="44.12023415235822" lon="9.846816551342773"><ele>13.999999999999998</ele><time>2026-04-22T06:37:09.999Z</time></trkpt><trkpt lat="44.120138879421255" lon="9.846804015464784"><ele>13.999999999999998</ele><time>2026-04-22T06:37:10.999Z</time></trkpt><trkpt lat="44.120049131869834" lon="9.84676328423992"><ele>14.0</ele><time>2026-04-22T06:37:11.999Z</time></trkpt><trkpt lat="44.1199646052043" lon="9.846740371412414"><ele>14.0</ele><time>2026-04-22T06:37:12.999Z</time></trkpt><trkpt lat="44.119885209920525" lon="9.846717451127287"><ele>12.799999999999999</ele><time>2026-04-22T06:37:13.999Z</time></trkpt><trkpt lat="44.11979550472369" lon="9.846690509529473"><ele>11.599999999999998</ele><time>2026-04-22T06:37:14.999Z</time></trkpt><trkpt lat="44.119701905061774" lon="9.846661923693128"><ele>10.4</ele><time>2026-04-22T06:37:15.999Z</time></trkpt><trkpt lat="44.119601307000764" lon="9.846653730696733"><ele>9.2</ele><time>2026-04-22T06:37:16.999Z</time></trkpt><trkpt lat="44.11950038222655" lon="9.846614067649366"><ele>8.0</ele><time>2026-04-22T06:37:17.999Z</time></trkpt><trkpt lat="44.11939204653289" lon="9.846580059057821"><ele>8.0</ele><time>2026-04-22T06:37:18.999Z</time></trkpt><trkpt lat="44.1192758415305" lon="9.84654699690904"><ele>8.0</ele><time>2026-04-22T06:37:19.999Z</time></trkpt><trkpt lat="44.11917405617727" lon="9.846513882105398"><ele>8.0</ele><time>2026-04-22T06:37:20.999Z</time></trkpt><trkpt lat="44.11907196119234" lon="9.84647677808522"><ele>8.0</ele><time>2026-04-22T06:37:21.999Z</time></trkpt><trkpt lat="44.118972178481584" lon="9.846445662120308"><ele>8.0</ele><time>2026-04-22T06:37:22.999Z</time></trkpt><trkpt lat="44.11887729795412" lon="9.846414624947363"><ele>7.800000000000001</ele><time>2026-04-22T06:37:23.999Z</time></trkpt><trkpt lat="44.11877607084738" lon="9.846397298367197"><ele>7.6000000000000005</ele><time>2026-04-22T06:37:24.999Z</time></trkpt><trkpt lat="44.118670374871186" lon="9.846369013436483"><ele>7.3999999999999995</ele><time>2026-04-22T06:37:25.999Z</time></trkpt><trkpt lat="44.11856272778153" lon="9.846319981607977"><ele>7.199999999999999</ele><time>2026-04-22T06:37:26.999Z</time></trkpt><trkpt lat="44.118454810693535" lon="9.84628858891214"><ele>7.0</ele><time>2026-04-22T06:37:27.999Z</time></trkpt><trkpt lat="44.11835098639758" lon="9.846258386823848"><ele>7.0</ele><time>2026-04-22T06:37:28.999Z</time></trkpt><trkpt lat="44.11824874089817" lon="9.84622857969343"><ele>6.999999999999999</ele><time>2026-04-22T06:37:29.999Z</time></trkpt><trkpt lat="44.11815013198335" lon="9.846199598510813"><ele>6.999999999999999</ele><time>2026-04-22T06:37:30.999Z</time></trkpt><trkpt lat="44.118055970001684" lon="9.846171688656636"><ele>7.0</ele><time>2026-04-22T06:37:31.999Z</time></trkpt><trkpt lat="44.11796052166153" lon="9.846143397871154"><ele>7.0</ele><time>2026-04-22T06:37:32.999Z</time></trkpt><trkpt lat="44.11786023705403" lon="9.846114800473439"><ele>7.199999999999999</ele><time>2026-04-22T06:37:34Z</time></trkpt><trkpt lat="44.11776090527575" lon="9.846081761958255"><ele>7.3999999999999995</ele><time>2026-04-22T06:37:35Z</time></trkpt><trkpt lat="44.11765828529049" lon="9.846050793237898"><ele>7.6000000000000005</ele><time>2026-04-22T06:37:36Z</time></trkpt><trkpt lat="44.117553136966556" lon="9.846019463322948"><ele>7.800000000000001</ele><time>2026-04-22T06:37:37Z</time></trkpt><trkpt lat="44.1174443542878" lon="9.845988573556642"><ele>8.0</ele><time>2026-04-22T06:37:38Z</time></trkpt><trkpt lat="44.11733481009359" lon="9.845958212322687"><ele>8.0</ele><time>2026-04-22T06:37:39Z</time></trkpt><trkpt lat="44.11722334532584" lon="9.845929625478819"><ele>8.0</ele><time>2026-04-22T06:37:40Z</time></trkpt><trkpt lat="44.11710137887437" lon="9.845898493345686"><ele>8.0</ele><time>2026-04-22T06:37:41Z</time></trkpt><trkpt lat="44.11698283837272" lon="9.845915832830775"><ele>8.0</ele><time>2026-04-22T06:37:42Z</time></trkpt><trkpt lat="44.11687835456989" lon="9.84588144716077"><ele>7.999999999999999</ele><time>2026-04-22T06:37:43Z</time></trkpt><trkpt lat="44.116788561315715" lon="9.84585169514369"><ele>8.0</ele><time>2026-04-22T06:37:44Z</time></trkpt><trkpt lat="44.116707676459725" lon="9.845826934034836"><ele>8.0</ele><time>2026-04-22T06:37:45Z</time></trkpt><trkpt lat="44.11662778671497" lon="9.845807524144599"><ele>8.0</ele><time>2026-04-22T06:37:46Z</time></trkpt><trkpt lat="44.11655729692278" lon="9.845792449906599"><ele>7.999999999999999</ele><time>2026-04-22T06:37:47Z</time></trkpt><trkpt lat="44.11649254183951" lon="9.84576303886148"><ele>8.0</ele><time>2026-04-22T06:37:48Z</time></trkpt><trkpt lat="44.11642952204084" lon="9.845749380588448"><ele>7.833333333333333</ele><time>2026-04-22T06:37:49Z</time></trkpt><trkpt lat="44.11634394535538" lon="9.845730833526712"><ele>7.666666666666666</ele><time>2026-04-22T06:37:51Z</time></trkpt><trkpt lat="44.11624826185424" lon="9.845710095925849"><ele>7.5</ele><time>2026-04-22T06:37:53Z</time></trkpt><trkpt lat="44.11616145279709" lon="9.845686831028853"><ele>7.333333333333334</ele><time>2026-04-22T06:37:55Z</time></trkpt><trkpt lat="44.11609921504203" lon="9.845669036108385"><ele>7.166666666666667</ele><time>2026-04-22T06:37:57Z</time></trkpt><trkpt lat="44.11603154316962" lon="9.845647382311855"><ele>7.0</ele><time>2026-04-22T06:37:59Z</time></trkpt><trkpt lat="44.1159619793407" lon="9.845625086309562"><ele>7.0</ele><time>2026-04-22T06:38:36Z</time></trkpt><trkpt lat="44.115894065914844" lon="9.845601917469626"><ele>7.0</ele><time>2026-04-22T06:38:38Z</time></trkpt><trkpt lat="44.11580799230537" lon="9.845592748724314"><ele>7.0</ele><time>2026-04-22T06:38:40Z</time></trkpt><trkpt lat="44.11581726252666" lon="9.845819642195659"><ele>7.0</ele><time>2026-04-22T06:38:41Z</time></trkpt><trkpt lat="44.115869331145625" lon="9.846021913864352"><ele>7.5</ele><time>2026-04-22T06:38:43Z</time></trkpt><trkpt lat="44.11589565239956" lon="9.846174805589015"><ele>8.0</ele><time>2026-04-22T06:38:44Z</time></trkpt><trkpt lat="44.115923427164034" lon="9.846356921404368"><ele>8.5</ele><time>2026-04-22T06:38:45Z</time></trkpt><trkpt lat="44.1159425183429" lon="9.846567367988186"><ele>9.0</ele><time>2026-04-22T06:38:46Z</time></trkpt><trkpt lat="44.115952833819485" lon="9.846764985048818"><ele>8.5</ele><time>2026-04-22T06:38:47Z</time></trkpt><trkpt lat="44.115968998717044" lon="9.84694454360563"><ele>8.0</ele><time>2026-04-22T06:38:48Z</time></trkpt><trkpt lat="44.11597894338334" lon="9.847120418529068"><ele>7.5</ele><time>2026-04-22T06:38:49Z</time></trkpt><trkpt lat="44.11598447450029" lon="9.847310156566968"><ele>7.0</ele><time>2026-04-22T06:38:50Z</time></trkpt><trkpt lat="44.115993934062345" lon="9.847513057463193"><ele>6.5</ele><time>2026-04-22T06:38:51Z</time></trkpt><trkpt lat="44.115998606507375" lon="9.84772640941896"><ele>6.0</ele><time>2026-04-22T06:38:52Z</time></trkpt><trkpt lat="44.11600851397788" lon="9.847937813056063"><ele>5.5</ele><time>2026-04-22T06:38:52.999Z</time></trkpt><trkpt lat="44.11601358642501" lon="9.848132837332582"><ele>5.0</ele><time>2026-04-22T06:38:53.999Z</time></trkpt><trkpt lat="44.11601859380169" lon="9.848303955983129"><ele>5.2</ele><time>2026-04-22T06:38:54.999Z</time></trkpt><trkpt lat="44.11601553724561" lon="9.848470978981858"><ele>5.4</ele><time>2026-04-22T06:38:55.999Z</time></trkpt><trkpt lat="44.11601673636956" lon="9.848619953806436"><ele>5.6</ele><time>2026-04-22T06:38:56.999Z</time></trkpt><trkpt lat="44.11602388392413" lon="9.848758360447318"><ele>5.8</ele><time>2026-04-22T06:38:57.999Z</time></trkpt><trkpt lat="44.11601273899378" lon="9.848889868916878"><ele>6.0</ele><time>2026-04-22T06:38:58.999Z</time></trkpt><trkpt lat="44.11601496664698" lon="9.849022271906636"><ele>6.0</ele><time>2026-04-22T06:38:59.999Z</time></trkpt><trkpt lat="44.11603152471329" lon="9.849157158687484"><ele>6.0</ele><time>2026-04-22T06:39:00.999Z</time></trkpt><trkpt lat="44.11601947713803" lon="9.84929035764469"><ele>6.0</ele><time>2026-04-22T06:39:01.999Z</time></trkpt><trkpt lat="44.116035599014616" lon="9.849422408719763"><ele>6.0</ele><time>2026-04-22T06:39:02.999Z</time></trkpt><trkpt lat="44.116037764028505" lon="9.849541237809062"><ele>6.0</ele><time>2026-04-22T06:39:03.999Z</time></trkpt><trkpt lat="44.116035637872116" lon="9.84963849944883"><ele>6.0</ele><time>2026-04-22T06:39:04.999Z</time></trkpt><trkpt lat="44.116038252495535" lon="9.849776512264647"><ele>5.75</ele><time>2026-04-22T06:39:06.999Z</time></trkpt><trkpt lat="44.11602946007655" lon="9.849881627671317"><ele>5.5</ele><time>2026-04-22T06:39:37.999Z</time></trkpt><trkpt lat="44.11604961543123" lon="9.85007377241649"><ele>5.25</ele><time>2026-04-22T06:39:40Z</time></trkpt><trkpt lat="44.1160032574821" lon="9.850141549761178"><ele>5.0</ele><time>2026-04-22T06:39:41Z</time></trkpt><trkpt lat="44.11589674955986" lon="9.849952731624187"><ele>5.0</ele><time>2026-04-22T06:39:42Z</time></trkpt><trkpt lat="44.11582615746278" lon="9.849914121287297"><ele>5.0</ele><time>2026-04-22T06:39:43Z</time></trkpt><trkpt lat="44.11574376688481" lon="9.849832029810017"><ele>5.0</ele><time>2026-04-22T06:39:44Z</time></trkpt><trkpt lat="44.11565496369036" lon="9.849758673971891"><ele>5.0</ele><time>2026-04-22T06:39:45Z</time></trkpt><trkpt lat="44.11556152616285" lon="9.84969608259675"><ele>5.0</ele><time>2026-04-22T06:39:46Z</time></trkpt><trkpt lat="44.11545806484287" lon="9.849634245331442"><ele>4.5</ele><time>2026-04-22T06:39:47Z</time></trkpt><trkpt lat="44.11534030947552" lon="9.849566763164054"><ele>4.0</ele><time>2026-04-22T06:39:48Z</time></trkpt><trkpt lat="44.1152222018036" lon="9.849493346251926"><ele>3.5</ele><time>2026-04-22T06:39:49Z</time></trkpt><trkpt lat="44.11512193930136" lon="9.849416667279655"><ele>3.0</ele><time>2026-04-22T06:39:50Z</time></trkpt><trkpt lat="44.1150302525912" lon="9.849340289844674"><ele>3.0</ele><time>2026-04-22T06:39:51Z</time></trkpt><trkpt lat="44.11495327639984" lon="9.84926415342843"><ele>3.0</ele><time>2026-04-22T06:39:52Z</time></trkpt><trkpt lat="44.1149008162355" lon="9.849190880936916"><ele>3.0</ele><time>2026-04-22T06:39:53Z</time></trkpt><trkpt lat="44.11485342718653" lon="9.849093910758818"><ele>3.0</ele><time>2026-04-22T06:39:55Z</time></trkpt><trkpt lat="44.11481072941291" lon="9.84896369369244"><ele>3.0</ele><time>2026-04-22T06:39:57Z</time></trkpt><trkpt lat="44.114739207493265" lon="9.848920376488598"><ele>3.0</ele><time>2026-04-22T06:39:58Z</time></trkpt><trkpt lat="44.11464408158567" lon="9.848991739076817"><ele>3.2</ele><time>2026-04-22T06:39:59Z</time></trkpt><trkpt lat="44.11454585302597" lon="9.849013072189928"><ele>3.4</ele><time>2026-04-22T06:40:00Z</time></trkpt><trkpt lat="44.11444019961269" lon="9.849001780491438"><ele>3.6000000000000005</ele><time>2026-04-22T06:40:01Z</time></trkpt><trkpt lat="44.1143195375755" lon="9.8489468399508"><ele>3.8000000000000003</ele><time>2026-04-22T06:40:02Z</time></trkpt><trkpt lat="44.11421368559667" lon="9.848881839148284"><ele>4.0</ele><time>2026-04-22T06:40:03Z</time></trkpt><trkpt lat="44.11414224086095" lon="9.848769813769868"><ele>3.833333333333333</ele><time>2026-04-22T06:40:04Z</time></trkpt><trkpt lat="44.114060516005836" lon="9.848717839145447"><ele>3.6666666666666665</ele><time>2026-04-22T06:40:05Z</time></trkpt><trkpt lat="44.11399350642455" lon="9.848675883610793"><ele>3.5</ele><time>2026-04-22T06:40:06Z</time></trkpt><trkpt lat="44.113929886454116" lon="9.848636170258949"><ele>3.333333333333333</ele><time>2026-04-22T06:40:08Z</time></trkpt><trkpt lat="44.113852402093876" lon="9.848587802444184"><ele>3.1666666666666665</ele><time>2026-04-22T06:41:35.999Z</time></trkpt><trkpt lat="44.11376738981808" lon="9.848539478251695"><ele>3.0</ele><time>2026-04-22T06:41:37.999Z</time></trkpt><trkpt lat="44.11369144420945" lon="9.848510937769058"><ele>3.0</ele><time>2026-04-22T06:41:41.999Z</time></trkpt><trkpt lat="44.11365965246419" lon="9.84872820950858"><ele>3.0</ele><time>2026-04-22T06:41:43.999Z</time></trkpt><trkpt lat="44.11366909522837" lon="9.848816963946518"><ele>3.0</ele><time>2026-04-22T06:41:44.999Z</time></trkpt><trkpt lat="44.11366442779233" lon="9.848950703872363"><ele>3.0</ele><time>2026-04-22T06:41:46Z</time></trkpt><trkpt lat="44.11366403707479" lon="9.849119329430302"><ele>3.0</ele><time>2026-04-22T06:41:47Z</time></trkpt><trkpt lat="44.11366381277856" lon="9.849268560635753"><ele>3.25</ele><time>2026-04-22T06:41:48Z</time></trkpt><trkpt lat="44.11366904826417" lon="9.849423732189473"><ele>3.5</ele><time>2026-04-22T06:41:49Z</time></trkpt><trkpt lat="44.11367103983716" lon="9.849583219015924"><ele>3.75</ele><time>2026-04-22T06:41:50Z</time></trkpt><trkpt lat="44.113668903543854" lon="9.84974658964123"><ele>4.0</ele><time>2026-04-22T06:41:51Z</time></trkpt><trkpt lat="44.11366366049839" lon="9.849913092456465"><ele>4.0</ele><time>2026-04-22T06:41:52Z</time></trkpt><trkpt lat="44.11365707031707" lon="9.850084707692945"><ele>4.0</ele><time>2026-04-22T06:41:53Z</time></trkpt><trkpt lat="44.11365281512394" lon="9.85026421261852"><ele>4.0</ele><time>2026-04-22T06:41:54Z</time></trkpt><trkpt lat="44.11365351928725" lon="9.850455723988095"><ele>4.0</ele><time>2026-04-22T06:41:55Z</time></trkpt><trkpt lat="44.113656016323276" lon="9.850635648031602"><ele>4.25</ele><time>2026-04-22T06:41:56Z</time></trkpt><trkpt lat="44.11365995662451" lon="9.850819416984228"><ele>4.5</ele><time>2026-04-22T06:41:57Z</time></trkpt><trkpt lat="44.11366479392614" lon="9.851011841233086"><ele>4.75</ele><time>2026-04-22T06:41:58Z</time></trkpt><trkpt lat="44.11366747420641" lon="9.85121074653959"><ele>5.0</ele><time>2026-04-22T06:41:59Z</time></trkpt><trkpt lat="44.11366856198913" lon="9.851417266752911"><ele>4.333333333333334</ele><time>2026-04-22T06:42:00Z</time></trkpt><trkpt lat="44.11367019636541" lon="9.851631922387128"><ele>3.666666666666667</ele><time>2026-04-22T06:42:01Z</time></trkpt><trkpt lat="44.113672196292114" lon="9.851860060242903"><ele>3.0</ele><time>2026-04-22T06:42:02Z</time></trkpt><trkpt lat="44.11367689902761" lon="9.852099899040265"><ele>3.0</ele><time>2026-04-22T06:42:03Z</time></trkpt><trkpt lat="44.11368135293081" lon="9.852320875384587"><ele>3.0</ele><time>2026-04-22T06:42:04Z</time></trkpt><trkpt lat="44.11368312931704" lon="9.852552801550333"><ele>3.0</ele><time>2026-04-22T06:42:05Z</time></trkpt><trkpt lat="44.113683665451035" lon="9.852790451586053"><ele>3.333333333333333</ele><time>2026-04-22T06:42:06Z</time></trkpt><trkpt lat="44.11368525306529" lon="9.853034644177752"><ele>3.6666666666666665</ele><time>2026-04-22T06:42:07Z</time></trkpt><trkpt lat="44.113688051292016" lon="9.853280139956434"><ele>4.0</ele><time>2026-04-22T06:42:08Z</time></trkpt><trkpt lat="44.11369235052724" lon="9.853532886989328"><ele>4.333333333333333</ele><time>2026-04-22T06:42:09Z</time></trkpt><trkpt lat="44.11369695868403" lon="9.853788460554767"><ele>4.666666666666667</ele><time>2026-04-22T06:42:10Z</time></trkpt><trkpt lat="44.11370061544339" lon="9.854052665214885"><ele>5.0</ele><time>2026-04-22T06:42:11Z</time></trkpt><trkpt lat="44.11370444208879" lon="9.854326531270807"><ele>5.0</ele><time>2026-04-22T06:42:12Z</time></trkpt><trkpt lat="44.11370953766883" lon="9.854616768159952"><ele>5.0</ele><time>2026-04-22T06:42:13Z</time></trkpt><trkpt lat="44.1137143774882" lon="9.85490651338336"><ele>5.0</ele><time>2026-04-22T06:42:14Z</time></trkpt><trkpt lat="44.11371401222803" lon="9.855160392690898"><ele>4.666666666666667</ele><time>2026-04-22T06:42:15Z</time></trkpt><trkpt lat="44.11371539249543" lon="9.855433138369126"><ele>4.333333333333333</ele><time>2026-04-22T06:42:16Z</time></trkpt><trkpt lat="44.1137163649484" lon="9.855702951025512"><ele>4.0</ele><time>2026-04-22T06:42:17Z</time></trkpt><trkpt lat="44.11371383256398" lon="9.855973956345807"><ele>3.6666666666666665</ele><time>2026-04-22T06:42:18Z</time></trkpt><trkpt lat="44.11370252336644" lon="9.856232057427151"><ele>3.333333333333333</ele><time>2026-04-22T06:42:19Z</time></trkpt><trkpt lat="44.113678517051596" lon="9.85648480459487"><ele>3.0</ele><time>2026-04-22T06:42:20Z</time></trkpt><trkpt lat="44.11363694312762" lon="9.856728672882378"><ele>3.333333333333333</ele><time>2026-04-22T06:42:21Z</time></trkpt><trkpt lat="44.11358067404813" lon="9.856971080730801"><ele>3.6666666666666665</ele><time>2026-04-22T06:42:22Z</time></trkpt><trkpt lat="44.11350717367988" lon="9.857212670868227"><ele>4.0</ele><time>2026-04-22T06:42:23Z</time></trkpt><trkpt lat="44.11342470698303" lon="9.857458925479623"><ele>5.333333333333333</ele><time>2026-04-22T06:42:24Z</time></trkpt><trkpt lat="44.11333183650159" lon="9.857700059852325"><ele>6.666666666666666</ele><time>2026-04-22T06:42:25Z</time></trkpt><trkpt lat="44.113243078888566" lon="9.85792682876772"><ele>8.0</ele><time>2026-04-22T06:42:26Z</time></trkpt><trkpt lat="44.113162542911496" lon="9.858144659844706"><ele>8.0</ele><time>2026-04-22T06:42:27Z</time></trkpt><trkpt lat="44.11309320482725" lon="9.85836166942042"><ele>8.0</ele><time>2026-04-22T06:42:28Z</time></trkpt><trkpt lat="44.113041043406504" lon="9.85858136164147"><ele>8.0</ele><time>2026-04-22T06:42:29Z</time></trkpt><trkpt lat="44.113004517446896" lon="9.858805533560888"><ele>6.666666666666666</ele><time>2026-04-22T06:42:30Z</time></trkpt><trkpt lat="44.112990190176355" lon="9.859033797105592"><ele>5.333333333333333</ele><time>2026-04-22T06:42:31Z</time></trkpt><trkpt lat="44.113002155772826" lon="9.859259973311138"><ele>4.0</ele><time>2026-04-22T06:42:32Z</time></trkpt><trkpt lat="44.11304396381537" lon="9.859484725405673"><ele>3.333333333333333</ele><time>2026-04-22T06:42:33Z</time></trkpt><trkpt lat="44.11310795960518" lon="9.859702357543354"><ele>2.6666666666666665</ele><time>2026-04-22T06:42:34Z</time></trkpt><trkpt lat="44.11309824764125" lon="9.859930342282048"><ele>2.0</ele><time>2026-04-22T06:42:35Z</time></trkpt><trkpt lat="44.113183440189644" lon="9.860138408636777"><ele>3.333333333333333</ele><time>2026-04-22T06:42:36Z</time></trkpt><trkpt lat="44.11328707114459" lon="9.860343960741178"><ele>4.666666666666667</ele><time>2026-04-22T06:42:37Z</time></trkpt><trkpt lat="44.11341054291398" lon="9.860546321493295"><ele>6.0</ele><time>2026-04-22T06:42:38Z</time></trkpt><trkpt lat="44.11354685181405" lon="9.860754639576962"><ele>5.333333333333333</ele><time>2026-04-22T06:42:39Z</time></trkpt><trkpt lat="44.11368235607556" lon="9.860979177847662"><ele>4.666666666666666</ele><time>2026-04-22T06:42:40Z</time></trkpt><trkpt lat="44.113818295930365" lon="9.86121888020591"><ele>4.0</ele><time>2026-04-22T06:42:41Z</time></trkpt><trkpt lat="44.113962448262555" lon="9.861472739296682"><ele>4.0</ele><time>2026-04-22T06:42:42Z</time></trkpt><trkpt lat="44.114110023010355" lon="9.861724920334627"><ele>4.0</ele><time>2026-04-22T06:42:43Z</time></trkpt><trkpt lat="44.11425682953315" lon="9.861981093105486"><ele>4.0</ele><time>2026-04-22T06:42:44Z</time></trkpt><trkpt lat="44.11440648907894" lon="9.862237054325558"><ele>4.0</ele><time>2026-04-22T06:42:45Z</time></trkpt><trkpt lat="44.11453540998988" lon="9.862493415051489"><ele>3.6666666666666665</ele><time>2026-04-22T06:42:46Z</time></trkpt><trkpt lat="44.11465625086417" lon="9.8627498479575"><ele>3.333333333333333</ele><time>2026-04-22T06:42:47Z</time></trkpt><trkpt lat="44.11476091054706" lon="9.863004217264386"><ele>3.0</ele><time>2026-04-22T06:42:48Z</time></trkpt><trkpt lat="44.11485558735003" lon="9.863258747757495"><ele>4.0</ele><time>2026-04-22T06:42:49Z</time></trkpt><trkpt lat="44.114932505018864" lon="9.863521772774073"><ele>5.0</ele><time>2026-04-22T06:42:50Z</time></trkpt><trkpt lat="44.114995144544245" lon="9.863779326612143"><ele>6.0</ele><time>2026-04-22T06:42:51Z</time></trkpt><trkpt lat="44.11504765301149" lon="9.864038542585432"><ele>5.333333333333333</ele><time>2026-04-22T06:42:52Z</time></trkpt><trkpt lat="44.11508611758793" lon="9.864304233277682"><ele>4.666666666666666</ele><time>2026-04-22T06:42:53Z</time></trkpt><trkpt lat="44.115109720333606" lon="9.864584195005177"><ele>4.0</ele><time>2026-04-22T06:42:54Z</time></trkpt><trkpt lat="44.115124742696494" lon="9.864861994744032"><ele>4.333333333333333</ele><time>2026-04-22T06:42:55Z</time></trkpt><trkpt lat="44.115125254519945" lon="9.865138613505103"><ele>4.666666666666667</ele><time>2026-04-22T06:42:56Z</time></trkpt><trkpt lat="44.11510517873137" lon="9.865400025074235"><ele>5.0</ele><time>2026-04-22T06:42:57Z</time></trkpt><trkpt lat="44.11509143546441" lon="9.865649773636637"><ele>5.0</ele><time>2026-04-22T06:42:58Z</time></trkpt><trkpt lat="44.115069025274146" lon="9.865894072524219"><ele>5.0</ele><time>2026-04-22T06:42:59Z</time></trkpt><trkpt lat="44.1150403258777" lon="9.866136601613086"><ele>5.0</ele><time>2026-04-22T06:43:00Z</time></trkpt><trkpt lat="44.11501061723521" lon="9.866378648273901"><ele>5.0</ele><time>2026-04-22T06:43:01Z</time></trkpt><trkpt lat="44.11497904322061" lon="9.86662216537584"><ele>5.0</ele><time>2026-04-22T06:43:02Z</time></trkpt><trkpt lat="44.11495256380353" lon="9.866876774298545"><ele>5.0</ele><time>2026-04-22T06:43:03Z</time></trkpt><trkpt lat="44.11491880429359" lon="9.86712634683588"><ele>5.666666666666667</ele><time>2026-04-22T06:43:03.999Z</time></trkpt><trkpt lat="44.11488254565608" lon="9.867374732892625"><ele>6.333333333333334</ele><time>2026-04-22T06:43:04.999Z</time></trkpt><trkpt lat="44.1148541856231" lon="9.86762407646545"><ele>7.0</ele><time>2026-04-22T06:43:05.999Z</time></trkpt><trkpt lat="44.11483120547807" lon="9.867888739081385"><ele>7.0</ele><time>2026-04-22T06:43:06.999Z</time></trkpt><trkpt lat="44.11480007419745" lon="9.868168854154735"><ele>7.0</ele><time>2026-04-22T06:43:07.999Z</time></trkpt><trkpt lat="44.11476405323805" lon="9.86847450761436"><ele>7.0</ele><time>2026-04-22T06:43:08.999Z</time></trkpt><trkpt lat="44.11472546011141" lon="9.8687675328875"><ele>7.0</ele><time>2026-04-22T06:43:09.999Z</time></trkpt><trkpt lat="44.11469891091847" lon="9.86905034202241"><ele>7.0</ele><time>2026-04-22T06:43:10.999Z</time></trkpt><trkpt lat="44.11467312472794" lon="9.869338436932287"><ele>7.0</ele><time>2026-04-22T06:43:11.999Z</time></trkpt><trkpt lat="44.11464262908216" lon="9.86962990552033"><ele>7.0</ele><time>2026-04-22T06:43:12.999Z</time></trkpt><trkpt lat="44.11464070635931" lon="9.869965711651165"><ele>7.0</ele><time>2026-04-22T06:43:13.999Z</time></trkpt><trkpt lat="44.114636959136796" lon="9.870260996978637"><ele>6.5</ele><time>2026-04-22T06:43:14.999Z</time></trkpt><trkpt lat="44.114638835079624" lon="9.870585347419647"><ele>6.0</ele><time>2026-04-22T06:43:15.999Z</time></trkpt><trkpt lat="44.114660722544606" lon="9.870912829424576"><ele>5.5</ele><time>2026-04-22T06:43:16.999Z</time></trkpt><trkpt lat="44.11469827938127" lon="9.871235103178496"><ele>5.0</ele><time>2026-04-22T06:43:17.999Z</time></trkpt><trkpt lat="44.11474510515774" lon="9.871565707191671"><ele>6.0</ele><time>2026-04-22T06:43:18.999Z</time></trkpt><trkpt lat="44.11479807161194" lon="9.871899284968862"><ele>7.0</ele><time>2026-04-22T06:43:19.999Z</time></trkpt><trkpt lat="44.11484741182607" lon="9.872244889729576"><ele>7.0</ele><time>2026-04-22T06:43:20.999Z</time></trkpt><trkpt lat="44.114896417708096" lon="9.872596413263501"><ele>7.0</ele><time>2026-04-22T06:43:21.999Z</time></trkpt><trkpt lat="44.11495369840988" lon="9.872930785683039"><ele>8.0</ele><time>2026-04-22T06:43:22.999Z</time></trkpt><trkpt lat="44.115012401595195" lon="9.873277622910717"><ele>9.0</ele><time>2026-04-22T06:43:23.999Z</time></trkpt><trkpt lat="44.115066039341734" lon="9.873627501853518"><ele>9.0</ele><time>2026-04-22T06:43:24.999Z</time></trkpt><trkpt lat="44.11512296023488" lon="9.873973615040372"><ele>9.0</ele><time>2026-04-22T06:43:25.999Z</time></trkpt><trkpt lat="44.11517526905215" lon="9.874324136397387"><ele>8.5</ele><time>2026-04-22T06:43:26.999Z</time></trkpt><trkpt lat="44.115229300240436" lon="9.874667253164642"><ele>8.0</ele><time>2026-04-22T06:43:27.999Z</time></trkpt><trkpt lat="44.11528898901167" lon="9.875007212200124"><ele>8.5</ele><time>2026-04-22T06:43:28.999Z</time></trkpt><trkpt lat="44.115343327293445" lon="9.875354416674806"><ele>9.0</ele><time>2026-04-22T06:43:29.999Z</time></trkpt><trkpt lat="44.115397801530044" lon="9.875698955371481"><ele>9.5</ele><time>2026-04-22T06:43:30.999Z</time></trkpt><trkpt lat="44.11545783763753" lon="9.876039396908435"><ele>10.0</ele><time>2026-04-22T06:43:31.999Z</time></trkpt><trkpt lat="44.11551110193017" lon="9.876380520670722"><ele>10.0</ele><time>2026-04-22T06:43:32.999Z</time></trkpt><trkpt lat="44.11556535120754" lon="9.876721300838987"><ele>10.0</ele><time>2026-04-22T06:43:33.999Z</time></trkpt><trkpt lat="44.115620587794034" lon="9.877063812813189"><ele>9.5</ele><time>2026-04-22T06:43:34.999Z</time></trkpt><trkpt lat="44.11567424503227" lon="9.877400604543176"><ele>9.0</ele><time>2026-04-22T06:43:35.999Z</time></trkpt><trkpt lat="44.11572771269117" lon="9.877762958402691"><ele>10.5</ele><time>2026-04-22T06:43:36.999Z</time></trkpt><trkpt lat="44.11578968662379" lon="9.87813497445661"><ele>12.0</ele><time>2026-04-22T06:43:37.999Z</time></trkpt><trkpt lat="44.11584911003885" lon="9.878500521654885"><ele>14.5</ele><time>2026-04-22T06:43:38.999Z</time></trkpt><trkpt lat="44.115909106648104" lon="9.878870975996545"><ele>17.0</ele><time>2026-04-22T06:43:39.999Z</time></trkpt><trkpt lat="44.11596640627123" lon="9.879237767348839"><ele>19.0</ele><time>2026-04-22T06:43:40.999Z</time></trkpt><trkpt lat="44.11602324471422" lon="9.879596230169867"><ele>21.0</ele><time>2026-04-22T06:43:41.999Z</time></trkpt><trkpt lat="44.11607019184565" lon="9.879943336529616"><ele>19.5</ele><time>2026-04-22T06:43:42.999Z</time></trkpt><trkpt lat="44.11612226974047" lon="9.880282992922258"><ele>18.0</ele><time>2026-04-22T06:43:43.999Z</time></trkpt><trkpt lat="44.116168795380986" lon="9.880626608052511"><ele>16.0</ele><time>2026-04-22T06:43:44.999Z</time></trkpt><trkpt lat="44.11620455259768" lon="9.880973795106488"><ele>14.0</ele><time>2026-04-22T06:43:45.999Z</time></trkpt><trkpt lat="44.11623353081872" lon="9.881320319462821"><ele>14.0</ele><time>2026-04-22T06:43:46.999Z</time></trkpt><trkpt lat="44.11625406802232" lon="9.881659422925615"><ele>14.0</ele><time>2026-04-22T06:43:47.999Z</time></trkpt><trkpt lat="44.116269143152806" lon="9.882008724709676"><ele>15.5</ele><time>2026-04-22T06:43:48.999Z</time></trkpt><trkpt lat="44.116280589341194" lon="9.882359688939744"><ele>17.0</ele><time>2026-04-22T06:43:49.999Z</time></trkpt><trkpt lat="44.11628859820607" lon="9.882722253541512"><ele>18.5</ele><time>2026-04-22T06:43:50.999Z</time></trkpt><trkpt lat="44.116298811272" lon="9.883080371827546"><ele>20.0</ele><time>2026-04-22T06:43:52Z</time></trkpt><trkpt lat="44.11630982440483" lon="9.88342672738829"><ele>21.0</ele><time>2026-04-22T06:43:53Z</time></trkpt><trkpt lat="44.11632813480141" lon="9.883764080224488"><ele>22.0</ele><time>2026-04-22T06:43:54Z</time></trkpt><trkpt lat="44.11635447211072" lon="9.884087345757875"><ele>26.5</ele><time>2026-04-22T06:43:55Z</time></trkpt><trkpt lat="44.11639257411017" lon="9.884403742513625"><ele>31.0</ele><time>2026-04-22T06:43:56Z</time></trkpt><trkpt lat="44.11644570975379" lon="9.88470886226258"><ele>31.0</ele><time>2026-04-22T06:43:57Z</time></trkpt><trkpt lat="44.11651076481873" lon="9.88501135564105"><ele>31.0</ele><time>2026-04-22T06:43:58Z</time></trkpt><trkpt lat="44.11658802279753" lon="9.88530912220219"><ele>31.5</ele><time>2026-04-22T06:43:59Z</time></trkpt><trkpt lat="44.11667500154959" lon="9.885598443357337"><ele>32.0</ele><time>2026-04-22T06:44:00Z</time></trkpt><trkpt lat="44.11677607830939" lon="9.885883774274475"><ele>32.666666666666664</ele><time>2026-04-22T06:44:01Z</time></trkpt><trkpt lat="44.11688767193199" lon="9.886156858294449"><ele>33.333333333333336</ele><time>2026-04-22T06:44:02Z</time></trkpt><trkpt lat="44.11700818524999" lon="9.88641947884579"><ele>34.0</ele><time>2026-04-22T06:44:03Z</time></trkpt><trkpt lat="44.11713114616149" lon="9.886674411766503"><ele>36.66666666666667</ele><time>2026-04-22T06:44:04Z</time></trkpt><trkpt lat="44.11726392139085" lon="9.886920216495962"><ele>39.333333333333336</ele><time>2026-04-22T06:44:05Z</time></trkpt><trkpt lat="44.117412996212664" lon="9.887155892874711"><ele>42.0</ele><time>2026-04-22T06:44:06Z</time></trkpt><trkpt lat="44.117573081134765" lon="9.887375584570659"><ele>44.0</ele><time>2026-04-22T06:44:07Z</time></trkpt><trkpt lat="44.11774289256057" lon="9.887589832384947"><ele>46.0</ele><time>2026-04-22T06:44:08Z</time></trkpt><trkpt lat="44.117930919685016" lon="9.887802532872895"><ele>52.0</ele><time>2026-04-22T06:44:09Z</time></trkpt><trkpt lat="44.11812706040347" lon="9.888011236851026"><ele>58.0</ele><time>2026-04-22T06:44:10Z</time></trkpt><trkpt lat="44.11832460663651" lon="9.888218417007174"><ele>68.0</ele><time>2026-04-22T06:44:11Z</time></trkpt><trkpt lat="44.11851848446557" lon="9.888430232568627"><ele>78.0</ele><time>2026-04-22T06:44:12Z</time></trkpt><trkpt lat="44.11871465600601" lon="9.888644868361501"><ele>78.0</ele><time>2026-04-22T06:44:13Z</time></trkpt><trkpt lat="44.11891950922364" lon="9.888831170203675"><ele>78.0</ele><time>2026-04-22T06:44:14Z</time></trkpt><trkpt lat="44.11912402371473" lon="9.88900551055073"><ele>81.0</ele><time>2026-04-22T06:44:15Z</time></trkpt><trkpt lat="44.119319693092024" lon="9.889172328728765"><ele>84.0</ele><time>2026-04-22T06:44:16Z</time></trkpt><trkpt lat="44.11950433650966" lon="9.889330806955261"><ele>87.0</ele><time>2026-04-22T06:44:17Z</time></trkpt><trkpt lat="44.11969872690077" lon="9.889504062987998"><ele>90.66666666666666</ele><time>2026-04-22T06:44:18Z</time></trkpt><trkpt lat="44.119865768638874" lon="9.889655330952465"><ele>94.33333333333333</ele><time>2026-04-22T06:44:19Z</time></trkpt><trkpt lat="44.12008983586869" lon="9.889719596795677"><ele>98.0</ele><time>2026-04-22T06:44:20Z</time></trkpt><trkpt lat="44.12030630926082" lon="9.88990843829967"><ele>115.5</ele><time>2026-04-22T06:44:21Z</time></trkpt><trkpt lat="44.120522048195696" lon="9.890097546480623"><ele>133.0</ele><time>2026-04-22T06:44:22Z</time></trkpt><trkpt lat="44.120756566075706" lon="9.890294850374108"><ele>137.5</ele><time>2026-04-22T06:44:23Z</time></trkpt><trkpt lat="44.12099945807129" lon="9.890497376237985"><ele>142.0</ele><time>2026-04-22T06:44:24Z</time></trkpt><trkpt lat="44.121254248329464" lon="9.890716863911564"><ele>140.5</ele><time>2026-04-22T06:44:25Z</time></trkpt><trkpt lat="44.12150765286383" lon="9.890930069040152"><ele>139.0</ele><time>2026-04-22T06:44:26Z</time></trkpt><trkpt lat="44.121761161000045" lon="9.891140430159837"><ele>132.5</ele><time>2026-04-22T06:44:27Z</time></trkpt><trkpt lat="44.12201834931482" lon="9.891360814531154"><ele>126.0</ele><time>2026-04-22T06:44:28Z</time></trkpt><trkpt lat="44.122282678965945" lon="9.891589285543624"><ele>114.0</ele><time>2026-04-22T06:44:29Z</time></trkpt><trkpt lat="44.12256705183391" lon="9.891831911745397"><ele>102.0</ele><time>2026-04-22T06:44:30Z</time></trkpt><trkpt lat="44.122837813328374" lon="9.892068157203713"><ele>102.0</ele><time>2026-04-22T06:44:31Z</time></trkpt><trkpt lat="44.12311049480149" lon="9.892302478212077"><ele>102.0</ele><time>2026-04-22T06:44:32Z</time></trkpt><trkpt lat="44.123381398456964" lon="9.892537711969506"><ele>86.5</ele><time>2026-04-22T06:44:33Z</time></trkpt><trkpt lat="44.12365316959191" lon="9.892771146407847"><ele>71.0</ele><time>2026-04-22T06:44:34.01Z</time></trkpt><trkpt lat="44.124804512658976" lon="9.893790890515398"><ele>59.0</ele><time>2026-04-22T06:44:41Z</time></trkpt><trkpt lat="44.1250110855316" lon="9.893972307021151"><ele>47.0</ele><time>2026-04-22T06:44:42Z</time></trkpt><trkpt lat="44.12521947640575" lon="9.89416709431177"><ele>46.0</ele><time>2026-04-22T06:44:43Z</time></trkpt><trkpt lat="44.12542244325269" lon="9.894321767908778"><ele>45.0</ele><time>2026-04-22T06:44:44Z</time></trkpt><trkpt lat="44.125619146300075" lon="9.894470287773547"><ele>40.333333333333336</ele><time>2026-04-22T06:44:45Z</time></trkpt><trkpt lat="44.125810207132616" lon="9.894605468522006"><ele>35.66666666666667</ele><time>2026-04-22T06:44:46Z</time></trkpt><trkpt lat="44.12600049213957" lon="9.894703311995425"><ele>31.0</ele><time>2026-04-22T06:44:47Z</time></trkpt><trkpt lat="44.126196556245226" lon="9.894810705649231"><ele>31.0</ele><time>2026-04-22T06:44:48Z</time></trkpt><trkpt lat="44.12639707436013" lon="9.894907713666772"><ele>31.0</ele><time>2026-04-22T06:44:48.999Z</time></trkpt><trkpt lat="44.1265990817291" lon="9.894992470324123"><ele>31.0</ele><time>2026-04-22T06:44:49.999Z</time></trkpt><trkpt lat="44.12680083502941" lon="9.895066738761772"><ele>32.333333333333336</ele><time>2026-04-22T06:44:50.999Z</time></trkpt><trkpt lat="44.12701397694421" lon="9.895125667715128"><ele>33.666666666666664</ele><time>2026-04-22T06:44:51.999Z</time></trkpt><trkpt lat="44.12723670951556" lon="9.895180291480827"><ele>35.0</ele><time>2026-04-22T06:44:52.999Z</time></trkpt><trkpt lat="44.127464801308406" lon="9.89522674250309"><ele>37.5</ele><time>2026-04-22T06:44:53.999Z</time></trkpt><trkpt lat="44.127700853079105" lon="9.895267241081457"><ele>40.0</ele><time>2026-04-22T06:44:54.999Z</time></trkpt><trkpt lat="44.12793747508987" lon="9.895299683624014"><ele>40.0</ele><time>2026-04-22T06:44:55.999Z</time></trkpt><trkpt lat="44.128184681906525" lon="9.89533573517451"><ele>40.0</ele><time>2026-04-22T06:44:56.999Z</time></trkpt><trkpt lat="44.12842772323249" lon="9.895370582317517"><ele>46.5</ele><time>2026-04-22T06:44:57.999Z</time></trkpt><trkpt lat="44.128664388728176" lon="9.895409804158003"><ele>53.0</ele><time>2026-04-22T06:44:58.999Z</time></trkpt><trkpt lat="44.12889803372723" lon="9.895457000103304"><ele>54.0</ele><time>2026-04-22T06:44:59.999Z</time></trkpt><trkpt lat="44.12912542540078" lon="9.895518592727926"><ele>55.0</ele><time>2026-04-22T06:45:00.999Z</time></trkpt><trkpt lat="44.129347897594435" lon="9.895593228359179"><ele>55.0</ele><time>2026-04-22T06:45:01.999Z</time></trkpt><trkpt lat="44.129565199524244" lon="9.89568977710734"><ele>55.0</ele><time>2026-04-22T06:45:02.999Z</time></trkpt><trkpt lat="44.129777990198434" lon="9.895805628506618"><ele>61.0</ele><time>2026-04-22T06:45:03.999Z</time></trkpt><trkpt lat="44.12999231559227" lon="9.895933305136897"><ele>67.0</ele><time>2026-04-22T06:45:04.999Z</time></trkpt><trkpt lat="44.130205651108376" lon="9.896074774513915"><ele>67.0</ele><time>2026-04-22T06:45:05.999Z</time></trkpt><trkpt lat="44.130423397734056" lon="9.89622743534459"><ele>67.0</ele><time>2026-04-22T06:45:06.999Z</time></trkpt><trkpt lat="44.13064827375023" lon="9.896373945310206"><ele>59.5</ele><time>2026-04-22T06:45:07.999Z</time></trkpt><trkpt lat="44.130871754672576" lon="9.896521507486383"><ele>52.0</ele><time>2026-04-22T06:45:08.999Z</time></trkpt><trkpt lat="44.13109702236035" lon="9.896672375270837"><ele>60.5</ele><time>2026-04-22T06:45:09.999Z</time></trkpt><trkpt lat="44.13132062474964" lon="9.896818311717762"><ele>69.0</ele><time>2026-04-22T06:45:10.999Z</time></trkpt><trkpt lat="44.131546793347155" lon="9.896957504797982"><ele>58.0</ele><time>2026-04-22T06:45:11.999Z</time></trkpt><trkpt lat="44.13177106954068" lon="9.897090389134625"><ele>47.0</ele><time>2026-04-22T06:45:12.999Z</time></trkpt><trkpt lat="44.131991260166856" lon="9.897217023586418"><ele>47.0</ele><time>2026-04-22T06:45:13.999Z</time></trkpt><trkpt lat="44.13220606307578" lon="9.897337284993302"><ele>47.0</ele><time>2026-04-22T06:45:14.999Z</time></trkpt><trkpt lat="44.132416917347754" lon="9.89744990028627"><ele>41.0</ele><time>2026-04-22T06:45:15.999Z</time></trkpt><trkpt lat="44.132623905854665" lon="9.89756125507869"><ele>35.0</ele><time>2026-04-22T06:45:16.999Z</time></trkpt><trkpt lat="44.13283382845228" lon="9.897674072353917"><ele>29.0</ele><time>2026-04-22T06:45:17.999Z</time></trkpt><trkpt lat="44.133045934532106" lon="9.897788051600426"><ele>26.333333333333332</ele><time>2026-04-22T06:45:18.999Z</time></trkpt><trkpt lat="44.1332543820811" lon="9.897896706295429"><ele>23.666666666666664</ele><time>2026-04-22T06:45:19.999Z</time></trkpt><trkpt lat="44.13346656632545" lon="9.898007501681883"><ele>21.0</ele><time>2026-04-22T06:45:20.999Z</time></trkpt><trkpt lat="44.13368085168226" lon="9.898122207967331"><ele>21.0</ele><time>2026-04-22T06:45:21.999Z</time></trkpt><trkpt lat="44.1338984696229" lon="9.89823865498215"><ele>21.0</ele><time>2026-04-22T06:45:22.999Z</time></trkpt><trkpt lat="44.1341166452152" lon="9.898355980479838"><ele>19.0</ele><time>2026-04-22T06:45:23.999Z</time></trkpt><trkpt lat="44.134332226938945" lon="9.89846965541524"><ele>17.0</ele><time>2026-04-22T06:45:24.999Z</time></trkpt><trkpt lat="44.13454627493725" lon="9.898582867325961"><ele>17.0</ele><time>2026-04-22T06:45:25.999Z</time></trkpt><trkpt lat="44.13475795764677" lon="9.898702463385822"><ele>17.0</ele><time>2026-04-22T06:45:26.999Z</time></trkpt><trkpt lat="44.13496693027387" lon="9.898831180314325"><ele>17.333333333333336</ele><time>2026-04-22T06:45:27.999Z</time></trkpt><trkpt lat="44.13516458273023" lon="9.89896136786737"><ele>17.666666666666668</ele><time>2026-04-22T06:45:28.999Z</time></trkpt><trkpt lat="44.135348676778385" lon="9.899086828688313"><ele>18.0</ele><time>2026-04-22T06:45:29.999Z</time></trkpt><trkpt lat="44.13553021670286" lon="9.899209051948354"><ele>18.0</ele><time>2026-04-22T06:45:30.999Z</time></trkpt><trkpt lat="44.13571118722005" lon="9.899336513393115"><ele>18.0</ele><time>2026-04-22T06:45:31.999Z</time></trkpt><trkpt lat="44.13589255296933" lon="9.899484022869238"><ele>18.0</ele><time>2026-04-22T06:45:32.999Z</time></trkpt><trkpt lat="44.13607408981478" lon="9.899645975044633"><ele>18.0</ele><time>2026-04-22T06:45:33.999Z</time></trkpt><trkpt lat="44.136260815957634" lon="9.899810542016587"><ele>18.0</ele><time>2026-04-22T06:45:34.999Z</time></trkpt><trkpt lat="44.13644064960954" lon="9.899969670425106"><ele>18.0</ele><time>2026-04-22T06:45:35.999Z</time></trkpt><trkpt lat="44.13661221417419" lon="9.900122693854946"><ele>17.0</ele><time>2026-04-22T06:45:36.999Z</time></trkpt><trkpt lat="44.13678161853934" lon="9.900270833618055"><ele>16.0</ele><time>2026-04-22T06:45:37.999Z</time></trkpt><trkpt lat="44.136946451704695" lon="9.900416808923971"><ele>15.0</ele><time>2026-04-22T06:45:38.999Z</time></trkpt><trkpt lat="44.137108945890056" lon="9.900559429417845"><ele>15.0</ele><time>2026-04-22T06:45:39.999Z</time></trkpt><trkpt lat="44.137267693095495" lon="9.900699446840548"><ele>15.0</ele><time>2026-04-22T06:45:40.999Z</time></trkpt><trkpt lat="44.137426984408116" lon="9.90084129242527"><ele>15.0</ele><time>2026-04-22T06:45:41.999Z</time></trkpt><trkpt lat="44.1375866104754" lon="9.900984119176144"><ele>14.666666666666668</ele><time>2026-04-22T06:45:42.999Z</time></trkpt><trkpt lat="44.13774910037831" lon="9.901125847457996"><ele>14.333333333333334</ele><time>2026-04-22T06:45:43.999Z</time></trkpt><trkpt lat="44.13791009593691" lon="9.901267567948668"><ele>14.0</ele><time>2026-04-22T06:45:44.999Z</time></trkpt><trkpt lat="44.138072635508735" lon="9.901410100215445"><ele>14.0</ele><time>2026-04-22T06:45:45.999Z</time></trkpt><trkpt lat="44.13823515765791" lon="9.901548862693698"><ele>14.0</ele><time>2026-04-22T06:45:46.999Z</time></trkpt><trkpt lat="44.13839547457924" lon="9.901686438325216"><ele>14.0</ele><time>2026-04-22T06:45:47.999Z</time></trkpt><trkpt lat="44.13855140297737" lon="9.901824122423553"><ele>14.333333333333334</ele><time>2026-04-22T06:45:48.999Z</time></trkpt><trkpt lat="44.138703701946504" lon="9.901958313092491"><ele>14.666666666666668</ele><time>2026-04-22T06:45:49.999Z</time></trkpt><trkpt lat="44.13885745691846" lon="9.902091682592735"><ele>15.0</ele><time>2026-04-22T06:45:50.999Z</time></trkpt><trkpt lat="44.13900991827103" lon="9.902222755542956"><ele>15.0</ele><time>2026-04-22T06:45:51.999Z</time></trkpt><trkpt lat="44.13915849651488" lon="9.902354167385717"><ele>15.0</ele><time>2026-04-22T06:45:52.999Z</time></trkpt><trkpt lat="44.13930393824288" lon="9.902482385679496"><ele>15.0</ele><time>2026-04-22T06:45:53.999Z</time></trkpt><trkpt lat="44.13945471457109" lon="9.902614258868203"><ele>15.0</ele><time>2026-04-22T06:45:54.999Z</time></trkpt><trkpt lat="44.13961112205431" lon="9.902752719710605"><ele>15.0</ele><time>2026-04-22T06:45:55.999Z</time></trkpt><trkpt lat="44.139767370185396" lon="9.902889259920142"><ele>15.0</ele><time>2026-04-22T06:45:56.999Z</time></trkpt><trkpt lat="44.139926289861265" lon="9.903029193273403"><ele>14.333333333333332</ele><time>2026-04-22T06:45:58Z</time></trkpt><trkpt lat="44.1400821942886" lon="9.903166941509983"><ele>13.666666666666666</ele><time>2026-04-22T06:45:59Z</time></trkpt><trkpt lat="44.14023034683473" lon="9.903298835709501"><ele>13.0</ele><time>2026-04-22T06:46:00Z</time></trkpt><trkpt lat="44.14037472646287" lon="9.903429075297572"><ele>12.666666666666666</ele><time>2026-04-22T06:46:01Z</time></trkpt><trkpt lat="44.14051722945348" lon="9.90355426228319"><ele>12.333333333333332</ele><time>2026-04-22T06:46:02Z</time></trkpt><trkpt lat="44.1406591426644" lon="9.903677609128918"><ele>12.0</ele><time>2026-04-22T06:46:03Z</time></trkpt><trkpt lat="44.14079813326457" lon="9.903802691312219"><ele>13.666666666666668</ele><time>2026-04-22T06:46:04Z</time></trkpt><trkpt lat="44.14093674346797" lon="9.903925589670395"><ele>15.333333333333334</ele><time>2026-04-22T06:46:05Z</time></trkpt><trkpt lat="44.14107687857933" lon="9.904046076391406"><ele>17.0</ele><time>2026-04-22T06:46:06Z</time></trkpt><trkpt lat="44.14121383308003" lon="9.904167653908628"><ele>16.666666666666668</ele><time>2026-04-22T06:46:07Z</time></trkpt><trkpt lat="44.14134420284049" lon="9.904281994164544"><ele>16.333333333333332</ele><time>2026-04-22T06:46:08Z</time></trkpt><trkpt lat="44.14147565885668" lon="9.90439469358181"><ele>16.0</ele><time>2026-04-22T06:46:09Z</time></trkpt><trkpt lat="44.141607546566256" lon="9.904509166607275"><ele>16.0</ele><time>2026-04-22T06:46:10Z</time></trkpt><trkpt lat="44.14174479456791" lon="9.904628539349284"><ele>16.0</ele><time>2026-04-22T06:46:11Z</time></trkpt><trkpt lat="44.14188332365217" lon="9.904748554617735"><ele>16.0</ele><time>2026-04-22T06:46:12Z</time></trkpt><trkpt lat="44.142024859599786" lon="9.904869111295127"><ele>16.0</ele><time>2026-04-22T06:46:13Z</time></trkpt><trkpt lat="44.14216446560396" lon="9.904989809341549"><ele>16.0</ele><time>2026-04-22T06:46:14Z</time></trkpt><trkpt lat="44.14229970732862" lon="9.905108913235114"><ele>16.0</ele><time>2026-04-22T06:46:15Z</time></trkpt><trkpt lat="44.14242874744958" lon="9.905223665353555"><ele>15.5</ele><time>2026-04-22T06:46:16Z</time></trkpt><trkpt lat="44.142552850020124" lon="9.905332197427528"><ele>15.0</ele><time>2026-04-22T06:46:17Z</time></trkpt><trkpt lat="44.14267262993074" lon="9.905437369005904"><ele>14.5</ele><time>2026-04-22T06:46:18Z</time></trkpt><trkpt lat="44.14278770493311" lon="9.905541412329113"><ele>14.0</ele><time>2026-04-22T06:46:19Z</time></trkpt><trkpt lat="44.142903884305056" lon="9.905642122291887"><ele>14.0</ele><time>2026-04-22T06:46:20Z</time></trkpt><trkpt lat="44.14301685698024" lon="9.905742266573629"><ele>14.0</ele><time>2026-04-22T06:46:21Z</time></trkpt><trkpt lat="44.14313028319613" lon="9.905837187169684"><ele>14.0</ele><time>2026-04-22T06:46:22Z</time></trkpt><trkpt lat="44.143241924686116" lon="9.905932609109906"><ele>14.0</ele><time>2026-04-22T06:46:23Z</time></trkpt><trkpt lat="44.14335665832931" lon="9.906032938319987"><ele>14.25</ele><time>2026-04-22T06:46:24Z</time></trkpt><trkpt lat="44.143470945002285" lon="9.906134444912643"><ele>14.5</ele><time>2026-04-22T06:46:25Z</time></trkpt><trkpt lat="44.143586903441424" lon="9.906238444318248"><ele>14.75</ele><time>2026-04-22T06:46:26Z</time></trkpt><trkpt lat="44.143705384388724" lon="9.906339596146731"><ele>15.0</ele><time>2026-04-22T06:46:27Z</time></trkpt><trkpt lat="44.143815469489184" lon="9.906437317119023"><ele>15.0</ele><time>2026-04-22T06:46:28Z</time></trkpt><trkpt lat="44.143919244103074" lon="9.906538280834532"><ele>15.0</ele><time>2026-04-22T06:46:29Z</time></trkpt><trkpt lat="44.14402148843402" lon="9.906634421897722"><ele>15.0</ele><time>2026-04-22T06:46:30Z</time></trkpt><trkpt lat="44.1441178857191" lon="9.906723379417057"><ele>15.0</ele><time>2026-04-22T06:46:31Z</time></trkpt><trkpt lat="44.14420647739694" lon="9.906806088285581"><ele>15.0</ele><time>2026-04-22T06:46:32Z</time></trkpt><trkpt lat="44.14428798187437" lon="9.90688974619455"><ele>15.0</ele><time>2026-04-22T06:46:33Z</time></trkpt><trkpt lat="44.14435959001743" lon="9.906985073422884"><ele>15.0</ele><time>2026-04-22T06:46:34Z</time></trkpt><trkpt lat="44.1444176074802" lon="9.907096431524497"><ele>15.0</ele><time>2026-04-22T06:46:35Z</time></trkpt><trkpt lat="44.14445873539523" lon="9.907220326385211"><ele>15.0</ele><time>2026-04-22T06:46:36Z</time></trkpt><trkpt lat="44.14448443170732" lon="9.907347868105385"><ele>15.0</ele><time>2026-04-22T06:46:37Z</time></trkpt><trkpt lat="44.1445015827894" lon="9.907468478744859"><ele>15.0</ele><time>2026-04-22T06:46:38Z</time></trkpt><trkpt lat="44.144524396683416" lon="9.907582427396676"><ele>15.0</ele><time>2026-04-22T06:46:39Z</time></trkpt><trkpt lat="44.144559610339776" lon="9.907688759675157"><ele>15.0</ele><time>2026-04-22T06:46:40Z</time></trkpt><trkpt lat="44.14460572270816" lon="9.907788019048619"><ele>15.0</ele><time>2026-04-22T06:46:41Z</time></trkpt><trkpt lat="44.14467097313032" lon="9.907878199618818"><ele>15.0</ele><time>2026-04-22T06:46:42Z</time></trkpt><trkpt lat="44.144744482149925" lon="9.907950829270412"><ele>14.833333333333334</ele><time>2026-04-22T06:46:43Z</time></trkpt><trkpt lat="44.144821522047565" lon="9.908008960892245"><ele>14.666666666666668</ele><time>2026-04-22T06:46:44Z</time></trkpt><trkpt lat="44.1448951038637" lon="9.908041773383884"><ele>14.5</ele><time>2026-04-22T06:46:45Z</time></trkpt><trkpt lat="44.14496579807924" lon="9.90806287506214"><ele>14.333333333333334</ele><time>2026-04-22T06:46:46Z</time></trkpt><trkpt lat="44.14504084031451" lon="9.908068091428841"><ele>14.166666666666668</ele><time>2026-04-22T06:46:47Z</time></trkpt><trkpt lat="44.14511430204088" lon="9.908061282896464"><ele>14.0</ele><time>2026-04-22T06:46:48Z</time></trkpt><trkpt lat="44.145184333961375" lon="9.9080378334189"><ele>14.000000000000002</ele><time>2026-04-22T06:46:49Z</time></trkpt><trkpt lat="44.14525430583872" lon="9.908004455714837"><ele>14.0</ele><time>2026-04-22T06:46:50Z</time></trkpt><trkpt lat="44.145323423550245" lon="9.90796056339569"><ele>14.0</ele><time>2026-04-22T06:46:51Z</time></trkpt><trkpt lat="44.145385803212854" lon="9.90789163532995"><ele>14.0</ele><time>2026-04-22T06:46:52Z</time></trkpt><trkpt lat="44.145443604833474" lon="9.907810683842548"><ele>14.000000000000002</ele><time>2026-04-22T06:46:53Z</time></trkpt><trkpt lat="44.145497924777345" lon="9.907717741196024"><ele>14.0</ele><time>2026-04-22T06:46:54Z</time></trkpt><trkpt lat="44.14554625076212" lon="9.90761866614248"><ele>13.6</ele><time>2026-04-22T06:46:55Z</time></trkpt><trkpt lat="44.14558469931401" lon="9.90751372617201"><ele>13.2</ele><time>2026-04-22T06:46:56Z</time></trkpt><trkpt lat="44.14561269282879" lon="9.90740910395306"><ele>12.799999999999999</ele><time>2026-04-22T06:46:57Z</time></trkpt><trkpt lat="44.14563354991883" lon="9.907306748086905"><ele>12.399999999999999</ele><time>2026-04-22T06:46:58Z</time></trkpt><trkpt lat="44.14556259756773" lon="9.907098100617693"><ele>12.0</ele><time>2026-04-22T06:46:59Z</time></trkpt><trkpt lat="44.14552406922036" lon="9.906962262764205"><ele>12.0</ele><time>2026-04-22T06:47:00Z</time></trkpt><trkpt lat="44.145473298316595" lon="9.906826735878134"><ele>12.0</ele><time>2026-04-22T06:47:01Z</time></trkpt><trkpt lat="44.14543163252922" lon="9.906696666419114"><ele>12.0</ele><time>2026-04-22T06:47:02Z</time></trkpt><trkpt lat="44.14538825238564" lon="9.906557586028926"><ele>12.0</ele><time>2026-04-22T06:47:03Z</time></trkpt><trkpt lat="44.14534335301129" lon="9.906414553710952"><ele>12.0</ele><time>2026-04-22T06:47:04Z</time></trkpt><trkpt lat="44.1453035206376" lon="9.906280181283764"><ele>12.2</ele><time>2026-04-22T06:47:05Z</time></trkpt><trkpt lat="44.145264482425176" lon="9.906148593656075"><ele>12.399999999999999</ele><time>2026-04-22T06:47:06Z</time></trkpt><trkpt lat="44.14522480618329" lon="9.906019052240932"><ele>12.600000000000001</ele><time>2026-04-22T06:47:07Z</time></trkpt><trkpt lat="44.14519113830112" lon="9.905896612025238"><ele>12.8</ele><time>2026-04-22T06:47:08Z</time></trkpt><trkpt lat="44.14516880193976" lon="9.905767741314763"><ele>13.0</ele><time>2026-04-22T06:47:09Z</time></trkpt><trkpt lat="44.14516162096026" lon="9.905655536249053"><ele>13.4</ele><time>2026-04-22T06:47:10Z</time></trkpt><trkpt lat="44.14517005156817" lon="9.905550931525415"><ele>13.8</ele><time>2026-04-22T06:47:11Z</time></trkpt><trkpt lat="44.145194448313504" lon="9.905423762572086"><ele>14.2</ele><time>2026-04-22T06:47:12Z</time></trkpt><trkpt lat="44.145239544747554" lon="9.905301984897548"><ele>14.6</ele><time>2026-04-22T06:47:13Z</time></trkpt><trkpt lat="44.14529636927997" lon="9.905191551391333"><ele>15.0</ele><time>2026-04-22T06:47:14Z</time></trkpt><trkpt lat="44.14537135443139" lon="9.905106955370648"><ele>15.0</ele><time>2026-04-22T06:47:15Z</time></trkpt><trkpt lat="44.14545500922236" lon="9.905027142545176"><ele>15.0</ele><time>2026-04-22T06:47:16Z</time></trkpt><trkpt lat="44.14551817955587" lon="9.904955278209725"><ele>15.0</ele><time>2026-04-22T06:47:17Z</time></trkpt><trkpt lat="44.14557662756653" lon="9.90489193050579"><ele>15.0</ele><time>2026-04-22T06:47:17.999Z</time></trkpt><trkpt lat="44.14565191575767" lon="9.904784890776655"><ele>15.0</ele><time>2026-04-22T06:47:19.999Z</time></trkpt><trkpt lat="44.14567491440401" lon="9.904701882722327"><ele>15.0</ele><time>2026-04-22T06:47:44.999Z</time></trkpt><trkpt lat="44.145719226964864" lon="9.904562021836947"><ele>15.142857142857142</ele><time>2026-04-22T06:47:47.999Z</time></trkpt><trkpt lat="44.14576865778706" lon="9.904449475912395"><ele>15.285714285714285</ele><time>2026-04-22T06:47:49.999Z</time></trkpt><trkpt lat="44.14581453007561" lon="9.90438442460029"><ele>15.428571428571427</ele><time>2026-04-22T06:47:51.999Z</time></trkpt><trkpt lat="44.145853171199505" lon="9.904308258383743"><ele>15.571428571428571</ele><time>2026-04-22T06:47:53.999Z</time></trkpt><trkpt lat="44.14589035233182" lon="9.904235361502407"><ele>15.714285714285712</ele><time>2026-04-22T06:47:55.999Z</time></trkpt><trkpt lat="44.14592433408177" lon="9.904158896157794"><ele>15.857142857142856</ele><time>2026-04-22T06:47:57.999Z</time></trkpt><trkpt lat="44.14596817191827" lon="9.904069110226606"><ele>16.0</ele><time>2026-04-22T06:47:59.999Z</time></trkpt><trkpt lat="44.14602976091356" lon="9.903939200018636"><ele>16.166666666666664</ele><time>2026-04-22T06:48:01.999Z</time></trkpt><trkpt lat="44.14607621862746" lon="9.903828786621633"><ele>16.333333333333332</ele><time>2026-04-22T06:48:03Z</time></trkpt><trkpt lat="44.14611073977401" lon="9.903753737780821"><ele>16.5</ele><time>2026-04-22T06:48:04Z</time></trkpt><trkpt lat="44.14615960000502" lon="9.903650814085761"><ele>16.666666666666668</ele><time>2026-04-22T06:48:05Z</time></trkpt><trkpt lat="44.14620722285345" lon="9.903576270758032"><ele>16.833333333333336</ele><time>2026-04-22T06:48:06Z</time></trkpt><trkpt lat="44.146275818173955" lon="9.90346946796156"><ele>17.0</ele><time>2026-04-22T06:48:08Z</time></trkpt><trkpt lat="44.146309845998644" lon="9.903356569019332"><ele>17.0</ele><time>2026-04-22T06:48:32Z</time></trkpt><trkpt lat="44.146345131693124" lon="9.903211555275021"><ele>17.0</ele><time>2026-04-22T06:48:34Z</time></trkpt><trkpt lat="44.14638073006996" lon="9.903121853112985"><ele>17.0</ele><time>2026-04-22T06:48:35Z</time></trkpt><trkpt lat="44.146436622802625" lon="9.903003520259418"><ele>17.0</ele><time>2026-04-22T06:48:36Z</time></trkpt><trkpt lat="44.146507253385614" lon="9.902861049563676"><ele>17.0</ele><time>2026-04-22T06:48:37Z</time></trkpt><trkpt lat="44.14657600106096" lon="9.902714597152515"><ele>17.0</ele><time>2026-04-22T06:48:38Z</time></trkpt><trkpt lat="44.14666428349484" lon="9.902533246361696"><ele>17.0</ele><time>2026-04-22T06:48:39Z</time></trkpt><trkpt lat="44.14676365057439" lon="9.902344447289183"><ele>17.0</ele><time>2026-04-22T06:48:40Z</time></trkpt><trkpt lat="44.14685991092492" lon="9.902182707890361"><ele>17.0</ele><time>2026-04-22T06:48:41Z</time></trkpt><trkpt lat="44.14696573771699" lon="9.90202268228622"><ele>17.0</ele><time>2026-04-22T06:48:42Z</time></trkpt><trkpt lat="44.1470813859037" lon="9.901865788519459"><ele>17.0</ele><time>2026-04-22T06:48:43Z</time></trkpt><trkpt lat="44.14720853047369" lon="9.901714143187155"><ele>17.333333333333336</ele><time>2026-04-22T06:48:44Z</time></trkpt><trkpt lat="44.14734415544914" lon="9.901572447748656"><ele>17.666666666666668</ele><time>2026-04-22T06:48:45Z</time></trkpt><trkpt lat="44.147476770908995" lon="9.901447670976967"><ele>18.0</ele><time>2026-04-22T06:48:46Z</time></trkpt><trkpt lat="44.1476096981342" lon="9.901343363716386"><ele>17.333333333333332</ele><time>2026-04-22T06:48:47Z</time></trkpt><trkpt lat="44.14774658460867" lon="9.901249575977593"><ele>16.666666666666664</ele><time>2026-04-22T06:48:48Z</time></trkpt><trkpt lat="44.14788679617694" lon="9.901166323396254"><ele>16.0</ele><time>2026-04-22T06:48:49Z</time></trkpt><trkpt lat="44.14803487960619" lon="9.901096803300895"><ele>16.0</ele><time>2026-04-22T06:48:50Z</time></trkpt><trkpt lat="44.14818952336709" lon="9.901042041316607"><ele>16.0</ele><time>2026-04-22T06:48:51Z</time></trkpt><trkpt lat="44.14835153306422" lon="9.901004727001677"><ele>16.0</ele><time>2026-04-22T06:48:52Z</time></trkpt><trkpt lat="44.14851772983938" lon="9.900972405503145"><ele>16.0</ele><time>2026-04-22T06:48:53Z</time></trkpt><trkpt lat="44.14868504455902" lon="9.900950979593306"><ele>16.0</ele><time>2026-04-22T06:48:54Z</time></trkpt><trkpt lat="44.14885067098405" lon="9.90094528323702"><ele>16.0</ele><time>2026-04-22T06:48:55Z</time></trkpt><trkpt lat="44.14901464925766" lon="9.900957886448673"><ele>16.0</ele><time>2026-04-22T06:48:56Z</time></trkpt><trkpt lat="44.14917244932269" lon="9.900987476050092"><ele>16.0</ele><time>2026-04-22T06:48:57Z</time></trkpt><trkpt lat="44.14932235143024" lon="9.901033202023411"><ele>16.0</ele><time>2026-04-22T06:48:58Z</time></trkpt><trkpt lat="44.149460586993705" lon="9.901089603777027"><ele>16.0</ele><time>2026-04-22T06:48:59Z</time></trkpt><trkpt lat="44.14958912791039" lon="9.901152074384257"><ele>16.0</ele><time>2026-04-22T06:49:00Z</time></trkpt><trkpt lat="44.149705797530196" lon="9.901221778242745"><ele>16.0</ele><time>2026-04-22T06:49:01Z</time></trkpt><trkpt lat="44.149809984982355" lon="9.901303148219977"><ele>16.0</ele><time>2026-04-22T06:49:02Z</time></trkpt><trkpt lat="44.14990764241098" lon="9.901384828691763"><ele>16.25</ele><time>2026-04-22T06:49:03Z</time></trkpt><trkpt lat="44.15000503888416" lon="9.901479044217757"><ele>16.5</ele><time>2026-04-22T06:49:04Z</time></trkpt><trkpt lat="44.15010038103457" lon="9.901589864595355"><ele>16.75</ele><time>2026-04-22T06:49:05Z</time></trkpt><trkpt lat="44.150191690615046" lon="9.901713473857212"><ele>17.0</ele><time>2026-04-22T06:49:06Z</time></trkpt><trkpt lat="44.15027400025996" lon="9.901843503228713"><ele>17.25</ele><time>2026-04-22T06:49:07Z</time></trkpt><trkpt lat="44.15034978333522" lon="9.901986064482214"><ele>17.5</ele><time>2026-04-22T06:49:08Z</time></trkpt><trkpt lat="44.15041056492174" lon="9.902137014148474"><ele>17.75</ele><time>2026-04-22T06:49:09Z</time></trkpt><trkpt lat="44.15046915490298" lon="9.90229666199726"><ele>18.0</ele><time>2026-04-22T06:49:10Z</time></trkpt><trkpt lat="44.1505294457256" lon="9.90246323637038"><ele>18.0</ele><time>2026-04-22T06:49:11Z</time></trkpt><trkpt lat="44.1505916303468" lon="9.902622790556837"><ele>18.0</ele><time>2026-04-22T06:49:12Z</time></trkpt><trkpt lat="44.15066255164181" lon="9.902775076088078"><ele>18.0</ele><time>2026-04-22T06:49:13Z</time></trkpt><trkpt lat="44.15073411591303" lon="9.90291740560859"><ele>18.0</ele><time>2026-04-22T06:49:14Z</time></trkpt><trkpt lat="44.150813374250056" lon="9.903060538172832"><ele>18.25</ele><time>2026-04-22T06:49:15Z</time></trkpt><trkpt lat="44.15089876088808" lon="9.903202322154156"><ele>18.5</ele><time>2026-04-22T06:49:16Z</time></trkpt><trkpt lat="44.15100537222677" lon="9.903315852867385"><ele>18.75</ele><time>2026-04-22T06:49:17Z</time></trkpt><trkpt lat="44.15112291549961" lon="9.903419176287366"><ele>19.0</ele><time>2026-04-22T06:49:18Z</time></trkpt><trkpt lat="44.151245135991466" lon="9.903502005094769"><ele>19.0</ele><time>2026-04-22T06:49:19Z</time></trkpt><trkpt lat="44.15138087409877" lon="9.90356120329623"><ele>19.0</ele><time>2026-04-22T06:49:19.999Z</time></trkpt><trkpt lat="44.151527177509806" lon="9.903609249969797"><ele>19.0</ele><time>2026-04-22T06:49:20.999Z</time></trkpt><trkpt lat="44.15168735632171" lon="9.903643603267112"><ele>20.666666666666664</ele><time>2026-04-22T06:49:21.999Z</time></trkpt><trkpt lat="44.15185692318997" lon="9.903671215558413"><ele>22.333333333333332</ele><time>2026-04-22T06:49:22.999Z</time></trkpt><trkpt lat="44.152040053474394" lon="9.903700623387786"><ele>24.0</ele><time>2026-04-22T06:49:23.999Z</time></trkpt><trkpt lat="44.152239029193176" lon="9.90370384011403"><ele>22.333333333333332</ele><time>2026-04-22T06:49:24.999Z</time></trkpt><trkpt lat="44.152431371012" lon="9.903703528378841"><ele>20.666666666666664</ele><time>2026-04-22T06:49:25.999Z</time></trkpt><trkpt lat="44.15261991838891" lon="9.90371312272757"><ele>19.0</ele><time>2026-04-22T06:49:26.999Z</time></trkpt><trkpt lat="44.15280094107209" lon="9.903728977328456"><ele>19.0</ele><time>2026-04-22T06:49:27.999Z</time></trkpt><trkpt lat="44.15299512991471" lon="9.903718677136785"><ele>19.0</ele><time>2026-04-22T06:49:28.999Z</time></trkpt><trkpt lat="44.153189378238054" lon="9.903694822436876"><ele>19.0</ele><time>2026-04-22T06:49:29.999Z</time></trkpt><trkpt lat="44.15338627976021" lon="9.903660021591852"><ele>17.666666666666664</ele><time>2026-04-22T06:49:30.999Z</time></trkpt><trkpt lat="44.15358495766297" lon="9.90363578601994"><ele>16.333333333333332</ele><time>2026-04-22T06:49:31.999Z</time></trkpt><trkpt lat="44.15378915290549" lon="9.90360560009151"><ele>15.0</ele><time>2026-04-22T06:49:32.999Z</time></trkpt><trkpt lat="44.15399508031011" lon="9.9035801062174"><ele>16.666666666666668</ele><time>2026-04-22T06:49:33.999Z</time></trkpt><trkpt lat="44.15420192198331" lon="9.903551007541454"><ele>18.333333333333336</ele><time>2026-04-22T06:49:34.999Z</time></trkpt><trkpt lat="44.15439906300265" lon="9.903522109059104"><ele>20.0</ele><time>2026-04-22T06:49:35.999Z</time></trkpt><trkpt lat="44.15459302002794" lon="9.903492466127748"><ele>20.0</ele><time>2026-04-22T06:49:36.999Z</time></trkpt><trkpt lat="44.1547720883616" lon="9.903465208704809"><ele>20.0</ele><time>2026-04-22T06:49:37.999Z</time></trkpt><trkpt lat="44.15493396140521" lon="9.903439146718421"><ele>20.0</ele><time>2026-04-22T06:49:38.999Z</time></trkpt><trkpt lat="44.15508102920993" lon="9.903413399981204"><ele>19.75</ele><time>2026-04-22T06:49:39.999Z</time></trkpt><trkpt lat="44.15522052575253" lon="9.903376377533489"><ele>19.5</ele><time>2026-04-22T06:49:40.999Z</time></trkpt><trkpt lat="44.15535078988314" lon="9.903321057579596"><ele>19.25</ele><time>2026-04-22T06:49:41.999Z</time></trkpt><trkpt lat="44.15547159344086" lon="9.903246938991678"><ele>19.0</ele><time>2026-04-22T06:49:42.999Z</time></trkpt><trkpt lat="44.155581151874216" lon="9.903145610882603"><ele>19.0</ele><time>2026-04-22T06:49:43.999Z</time></trkpt><trkpt lat="44.155685193501625" lon="9.903021524835154"><ele>19.0</ele><time>2026-04-22T06:49:44.999Z</time></trkpt><trkpt lat="44.155776500959725" lon="9.902874691869398"><ele>19.0</ele><time>2026-04-22T06:49:45.999Z</time></trkpt><trkpt lat="44.15584369707781" lon="9.902704133815254"><ele>19.0</ele><time>2026-04-22T06:49:46.999Z</time></trkpt><trkpt lat="44.15588180040591" lon="9.902519800392268"><ele>19.5</ele><time>2026-04-22T06:49:47.999Z</time></trkpt><trkpt lat="44.15588643057673" lon="9.902321664048563"><ele>20.0</ele><time>2026-04-22T06:49:48.999Z</time></trkpt><trkpt lat="44.15590193842276" lon="9.902115933552677"><ele>20.5</ele><time>2026-04-22T06:49:49.999Z</time></trkpt><trkpt lat="44.15590212024178" lon="9.90193220300341"><ele>21.0</ele><time>2026-04-22T06:49:50.999Z</time></trkpt><trkpt lat="44.15586281068554" lon="9.901699292199345"><ele>21.0</ele><time>2026-04-22T06:49:51.999Z</time></trkpt><trkpt lat="44.155816854393365" lon="9.901453524822903"><ele>21.0</ele><time>2026-04-22T06:49:52.999Z</time></trkpt><trkpt lat="44.155778195352546" lon="9.901186076010541"><ele>21.0</ele><time>2026-04-22T06:49:53.999Z</time></trkpt><trkpt lat="44.155768716016524" lon="9.900928860296059"><ele>21.0</ele><time>2026-04-22T06:49:54.999Z</time></trkpt><trkpt lat="44.15577959780824" lon="9.900660863888406"><ele>21.0</ele><time>2026-04-22T06:49:55.999Z</time></trkpt><trkpt lat="44.1558030410015" lon="9.900380355043694"><ele>21.0</ele><time>2026-04-22T06:49:56.999Z</time></trkpt><trkpt lat="44.15583976278021" lon="9.900115730318017"><ele>21.333333333333332</ele><time>2026-04-22T06:49:57.999Z</time></trkpt><trkpt lat="44.155887830744376" lon="9.899852547674692"><ele>21.666666666666664</ele><time>2026-04-22T06:49:58.999Z</time></trkpt><trkpt lat="44.15594646691793" lon="9.89959404176226"><ele>22.0</ele><time>2026-04-22T06:49:59.999Z</time></trkpt><trkpt lat="44.15602105104666" lon="9.899343172865134"><ele>22.0</ele><time>2026-04-22T06:50:00.999Z</time></trkpt><trkpt lat="44.15611205484912" lon="9.899098414474778"><ele>22.0</ele><time>2026-04-22T06:50:01.999Z</time></trkpt><trkpt lat="44.15621938198086" lon="9.898854561422944"><ele>22.0</ele><time>2026-04-22T06:50:02.999Z</time></trkpt><trkpt lat="44.156340449206596" lon="9.89860520800091"><ele>21.666666666666664</ele><time>2026-04-22T06:50:03.999Z</time></trkpt><trkpt lat="44.156454015254845" lon="9.898381614634939"><ele>21.333333333333332</ele><time>2026-04-22T06:50:04.999Z</time></trkpt><trkpt lat="44.15655613057959" lon="9.898170015241256"><ele>21.0</ele><time>2026-04-22T06:50:05.999Z</time></trkpt><trkpt lat="44.156646856748736" lon="9.897968099524292"><ele>21.666666666666668</ele><time>2026-04-22T06:50:06.999Z</time></trkpt><trkpt lat="44.15673573196167" lon="9.897770229920447"><ele>22.333333333333336</ele><time>2026-04-22T06:50:07.999Z</time></trkpt><trkpt lat="44.156824157903735" lon="9.897560286314775"><ele>23.0</ele><time>2026-04-22T06:50:09Z</time></trkpt><trkpt lat="44.15691728465231" lon="9.897338094120837"><ele>23.0</ele><time>2026-04-22T06:50:10Z</time></trkpt><trkpt lat="44.157014786755866" lon="9.897113568219483"><ele>23.0</ele><time>2026-04-22T06:50:11Z</time></trkpt><trkpt lat="44.15712070981162" lon="9.896872189157472"><ele>23.0</ele><time>2026-04-22T06:50:12Z</time></trkpt><trkpt lat="44.157220422874" lon="9.896604917416635"><ele>23.0</ele><time>2026-04-22T06:50:13Z</time></trkpt><trkpt lat="44.15732091306417" lon="9.896321840430767"><ele>23.0</ele><time>2026-04-22T06:50:14Z</time></trkpt><trkpt lat="44.157429141991656" lon="9.896015876557032"><ele>23.5</ele><time>2026-04-22T06:50:15Z</time></trkpt><trkpt lat="44.15754531961179" lon="9.895692695728167"><ele>24.0</ele><time>2026-04-22T06:50:16Z</time></trkpt><trkpt lat="44.15767255400927" lon="9.895355760038882"><ele>23.5</ele><time>2026-04-22T06:50:17Z</time></trkpt><trkpt lat="44.15780047448753" lon="9.895022961948191"><ele>23.0</ele><time>2026-04-22T06:50:18Z</time></trkpt><trkpt lat="44.15793012447757" lon="9.89469218781116"><ele>23.0</ele><time>2026-04-22T06:50:19Z</time></trkpt><trkpt lat="44.15805946809262" lon="9.894359924890482"><ele>23.0</ele><time>2026-04-22T06:50:20Z</time></trkpt><trkpt lat="44.15818911328769" lon="9.894023301464745"><ele>22.5</ele><time>2026-04-22T06:50:21Z</time></trkpt><trkpt lat="44.158317651114494" lon="9.893687840298488"><ele>22.0</ele><time>2026-04-22T06:50:22Z</time></trkpt><trkpt lat="44.1584484285091" lon="9.89334547291852"><ele>21.5</ele><time>2026-04-22T06:50:23Z</time></trkpt><trkpt lat="44.158580821411725" lon="9.89299801908644"><ele>21.0</ele><time>2026-04-22T06:50:24Z</time></trkpt><trkpt lat="44.15871488350534" lon="9.892650432312879"><ele>20.5</ele><time>2026-04-22T06:50:25Z</time></trkpt><trkpt lat="44.15885080895002" lon="9.892298213924294"><ele>20.0</ele><time>2026-04-22T06:50:26Z</time></trkpt><trkpt lat="44.15898674571299" lon="9.891942999150737"><ele>21.0</ele><time>2026-04-22T06:50:27Z</time></trkpt><trkpt lat="44.159124559323985" lon="9.891587829682546"><ele>22.0</ele><time>2026-04-22T06:50:28Z</time></trkpt><trkpt lat="44.15926437590823" lon="9.891229526257842"><ele>21.5</ele><time>2026-04-22T06:50:29Z</time></trkpt><trkpt lat="44.159401537559916" lon="9.890876757814523"><ele>21.0</ele><time>2026-04-22T06:50:30Z</time></trkpt><trkpt lat="44.15954158803994" lon="9.890525805775074"><ele>21.0</ele><time>2026-04-22T06:50:31Z</time></trkpt><trkpt lat="44.15967921790498" lon="9.890178092175585"><ele>21.0</ele><time>2026-04-22T06:50:32Z</time></trkpt><trkpt lat="44.15981557235194" lon="9.889831044624147"><ele>22.0</ele><time>2026-04-22T06:50:33Z</time></trkpt><trkpt lat="44.159950355062755" lon="9.88948839933913"><ele>23.0</ele><time>2026-04-22T06:50:34Z</time></trkpt><trkpt lat="44.16008726263099" lon="9.889144704155054"><ele>23.0</ele><time>2026-04-22T06:50:35Z</time></trkpt><trkpt lat="44.16022298922811" lon="9.888805571136642"><ele>23.0</ele><time>2026-04-22T06:50:36Z</time></trkpt><trkpt lat="44.16035809356219" lon="9.888467446728788"><ele>21.5</ele><time>2026-04-22T06:50:37Z</time></trkpt><trkpt lat="44.160489151066606" lon="9.88813301375547"><ele>20.0</ele><time>2026-04-22T06:50:38Z</time></trkpt><trkpt lat="44.16061635797681" lon="9.887802785292314"><ele>21.0</ele><time>2026-04-22T06:50:39Z</time></trkpt><trkpt lat="44.16074360646839" lon="9.887472034757156"><ele>22.0</ele><time>2026-04-22T06:50:40Z</time></trkpt><trkpt lat="44.16086964314197" lon="9.887143347326312"><ele>22.0</ele><time>2026-04-22T06:50:41Z</time></trkpt><trkpt lat="44.16099598229938" lon="9.886815384770937"><ele>22.0</ele><time>2026-04-22T06:50:42Z</time></trkpt><trkpt lat="44.16112059068963" lon="9.8864914690545"><ele>22.0</ele><time>2026-04-22T06:50:43Z</time></trkpt><trkpt lat="44.161247266981114" lon="9.886169031359014"><ele>22.0</ele><time>2026-04-22T06:50:44Z</time></trkpt><trkpt lat="44.16137550606557" lon="9.885845056250632"><ele>22.0</ele><time>2026-04-22T06:50:45Z</time></trkpt><trkpt lat="44.16150211522577" lon="9.885528528147"><ele>22.0</ele><time>2026-04-22T06:50:46Z</time></trkpt><trkpt lat="44.161632757550485" lon="9.885211214790134"><ele>21.5</ele><time>2026-04-22T06:50:47Z</time></trkpt><trkpt lat="44.161761422300486" lon="9.884902784753098"><ele>21.0</ele><time>2026-04-22T06:50:48Z</time></trkpt><trkpt lat="44.16189356681932" lon="9.884590205080865"><ele>21.0</ele><time>2026-04-22T06:50:49Z</time></trkpt><trkpt lat="44.16202939738806" lon="9.884283272071787"><ele>21.0</ele><time>2026-04-22T06:50:50Z</time></trkpt><trkpt lat="44.16216636099252" lon="9.883975014650431"><ele>21.0</ele><time>2026-04-22T06:50:51Z</time></trkpt><trkpt lat="44.16230421713799" lon="9.883673045692994"><ele>21.0</ele><time>2026-04-22T06:50:52Z</time></trkpt><trkpt lat="44.16244551671328" lon="9.883370587289072"><ele>21.0</ele><time>2026-04-22T06:50:53Z</time></trkpt><trkpt lat="44.16258759768826" lon="9.883067958538682"><ele>21.0</ele><time>2026-04-22T06:50:54Z</time></trkpt><trkpt lat="44.16273205216755" lon="9.882768980716106"><ele>22.0</ele><time>2026-04-22T06:50:55Z</time></trkpt><trkpt lat="44.16287979542589" lon="9.882475061727998"><ele>23.0</ele><time>2026-04-22T06:50:56Z</time></trkpt><trkpt lat="44.16303172363142" lon="9.882174481722808"><ele>23.0</ele><time>2026-04-22T06:50:57Z</time></trkpt><trkpt lat="44.163185398213706" lon="9.881880344407223"><ele>23.0</ele><time>2026-04-22T06:50:58Z</time></trkpt><trkpt lat="44.16334002827138" lon="9.881589505782664"><ele>23.0</ele><time>2026-04-22T06:50:59Z</time></trkpt><trkpt lat="44.16349792456813" lon="9.881299272812427"><ele>23.0</ele><time>2026-04-22T06:51:00Z</time></trkpt><trkpt lat="44.16365581164122" lon="9.88100498034183"><ele>22.5</ele><time>2026-04-22T06:51:01Z</time></trkpt><trkpt lat="44.16381773931186" lon="9.880723356925325"><ele>22.0</ele><time>2026-04-22T06:51:02Z</time></trkpt><trkpt lat="44.16398463758273" lon="9.880442479320292"><ele>22.5</ele><time>2026-04-22T06:51:03Z</time></trkpt><trkpt lat="44.16415034226792" lon="9.88015879387214"><ele>23.0</ele><time>2026-04-22T06:51:04Z</time></trkpt><trkpt lat="44.16432167252544" lon="9.87987688959318"><ele>23.0</ele><time>2026-04-22T06:51:05Z</time></trkpt><trkpt lat="44.1644857793091" lon="9.87960068003443"><ele>23.0</ele><time>2026-04-22T06:51:06Z</time></trkpt><trkpt lat="44.1646559886887" lon="9.87932474553558"><ele>23.0</ele><time>2026-04-22T06:51:07Z</time></trkpt><trkpt lat="44.164826184290916" lon="9.879053768604688"><ele>23.0</ele><time>2026-04-22T06:51:08Z</time></trkpt><trkpt lat="44.16500279426391" lon="9.878779828733455"><ele>23.0</ele><time>2026-04-22T06:51:09Z</time></trkpt><trkpt lat="44.16517664121646" lon="9.878519022994771"><ele>23.0</ele><time>2026-04-22T06:51:10Z</time></trkpt><trkpt lat="44.16535538023734" lon="9.878253766848832"><ele>23.0</ele><time>2026-04-22T06:51:11Z</time></trkpt><trkpt lat="44.16553221663817" lon="9.877997375216458"><ele>23.0</ele><time>2026-04-22T06:51:12Z</time></trkpt><trkpt lat="44.1657122051731" lon="9.877737172868269"><ele>24.0</ele><time>2026-04-22T06:51:13Z</time></trkpt><trkpt lat="44.165892326965846" lon="9.87748330666376"><ele>25.0</ele><time>2026-04-22T06:51:14Z</time></trkpt><trkpt lat="44.16607296859751" lon="9.877233434287144"><ele>25.0</ele><time>2026-04-22T06:51:14.999Z</time></trkpt><trkpt lat="44.1666270905774" lon="9.876493547519255"><ele>25.0</ele><time>2026-04-22T06:51:17.999Z</time></trkpt><trkpt lat="44.166819203357356" lon="9.876251393096743"><ele>25.0</ele><time>2026-04-22T06:51:18.999Z</time></trkpt><trkpt lat="44.16700979737083" lon="9.876012595350376"><ele>24.5</ele><time>2026-04-22T06:51:19.999Z</time></trkpt><trkpt lat="44.16720308066371" lon="9.875776169775492"><ele>24.0</ele><time>2026-04-22T06:51:20.999Z</time></trkpt><trkpt lat="44.16739813630384" lon="9.875539019203663"><ele>24.0</ele><time>2026-04-22T06:51:21.999Z</time></trkpt><trkpt lat="44.16759102449107" lon="9.875310662850854"><ele>24.0</ele><time>2026-04-22T06:51:22.999Z</time></trkpt><trkpt lat="44.16778709332335" lon="9.875084611827209"><ele>24.0</ele><time>2026-04-22T06:51:23.999Z</time></trkpt><trkpt lat="44.167990558093244" lon="9.874854703163217"><ele>24.0</ele><time>2026-04-22T06:51:24.999Z</time></trkpt><trkpt lat="44.16818810066576" lon="9.874634482013954"><ele>25.0</ele><time>2026-04-22T06:51:25.999Z</time></trkpt><trkpt lat="44.16839071924052" lon="9.874413537055522"><ele>26.0</ele><time>2026-04-22T06:51:26.999Z</time></trkpt><trkpt lat="44.16859514399472" lon="9.874193925190237"><ele>26.0</ele><time>2026-04-22T06:51:27.999Z</time></trkpt><trkpt lat="44.16880279478047" lon="9.873976399494515"><ele>26.0</ele><time>2026-04-22T06:51:28.999Z</time></trkpt><trkpt lat="44.16901052505673" lon="9.873765050011732"><ele>26.0</ele><time>2026-04-22T06:51:29.999Z</time></trkpt><trkpt lat="44.16922203576686" lon="9.873547138204383"><ele>26.0</ele><time>2026-04-22T06:51:30.999Z</time></trkpt><trkpt lat="44.169437595267915" lon="9.873330183723276"><ele>26.0</ele><time>2026-04-22T06:51:31.999Z</time></trkpt><trkpt lat="44.169655700295145" lon="9.873115235860348"><ele>26.0</ele><time>2026-04-22T06:51:32.999Z</time></trkpt><trkpt lat="44.16987553360326" lon="9.872904285089048"><ele>26.0</ele><time>2026-04-22T06:51:33.999Z</time></trkpt><trkpt lat="44.17009944813041" lon="9.872695894251107"><ele>26.0</ele><time>2026-04-22T06:51:34.999Z</time></trkpt><trkpt lat="44.17032842436548" lon="9.872487899883732"><ele>26.0</ele><time>2026-04-22T06:51:35.999Z</time></trkpt><trkpt lat="44.17055730715845" lon="9.872282262419054"><ele>26.0</ele><time>2026-04-22T06:51:36.999Z</time></trkpt><trkpt lat="44.170785771498764" lon="9.872083637950686"><ele>26.0</ele><time>2026-04-22T06:51:37.999Z</time></trkpt><trkpt lat="44.17101536376776" lon="9.871885655581774"><ele>26.0</ele><time>2026-04-22T06:51:38.999Z</time></trkpt><trkpt lat="44.171243614404816" lon="9.871694706174415"><ele>26.0</ele><time>2026-04-22T06:51:39.999Z</time></trkpt><trkpt lat="44.17147429609612" lon="9.871508283915011"><ele>26.0</ele><time>2026-04-22T06:51:40.999Z</time></trkpt><trkpt lat="44.17170003088152" lon="9.871327137515468"><ele>26.0</ele><time>2026-04-22T06:51:41.999Z</time></trkpt><trkpt lat="44.17193448500615" lon="9.87115014561384"><ele>26.0</ele><time>2026-04-22T06:51:42.999Z</time></trkpt><trkpt lat="44.172161283226274" lon="9.870979185727775"><ele>26.0</ele><time>2026-04-22T06:51:43.999Z</time></trkpt><trkpt lat="44.17238835738841" lon="9.8708118249738"><ele>26.0</ele><time>2026-04-22T06:51:44.999Z</time></trkpt><trkpt lat="44.17261789269047" lon="9.870643965635045"><ele>26.0</ele><time>2026-04-22T06:51:45.999Z</time></trkpt><trkpt lat="44.172843933351864" lon="9.870480319146305"><ele>26.0</ele><time>2026-04-22T06:51:46.999Z</time></trkpt><trkpt lat="44.17307234473397" lon="9.870314392126522"><ele>26.0</ele><time>2026-04-22T06:51:47.999Z</time></trkpt><trkpt lat="44.17329582765235" lon="9.870150562864849"><ele>26.0</ele><time>2026-04-22T06:51:48.999Z</time></trkpt><trkpt lat="44.173522549921316" lon="9.869986690878099"><ele>26.0</ele><time>2026-04-22T06:51:49.999Z</time></trkpt><trkpt lat="44.17374716083506" lon="9.869825050597667"><ele>26.0</ele><time>2026-04-22T06:51:50.999Z</time></trkpt><trkpt lat="44.17397171223447" lon="9.86965765713801"><ele>26.5</ele><time>2026-04-22T06:51:51.999Z</time></trkpt><trkpt lat="44.17419475150957" lon="9.869493928878075"><ele>27.0</ele><time>2026-04-22T06:51:52.999Z</time></trkpt><trkpt lat="44.17441907825851" lon="9.869328402128101"><ele>27.0</ele><time>2026-04-22T06:51:53.999Z</time></trkpt><trkpt lat="44.17464691287969" lon="9.869161832455795"><ele>27.0</ele><time>2026-04-22T06:51:54.999Z</time></trkpt><trkpt lat="44.17487493314631" lon="9.868996273367166"><ele>28.0</ele><time>2026-04-22T06:51:55.999Z</time></trkpt><trkpt lat="44.17510168281859" lon="9.868832340397885"><ele>29.0</ele><time>2026-04-22T06:51:56.999Z</time></trkpt><trkpt lat="44.175336903459744" lon="9.868662055094461"><ele>29.0</ele><time>2026-04-22T06:51:57.999Z</time></trkpt><trkpt lat="44.17556578346579" lon="9.868492724428771"><ele>29.0</ele><time>2026-04-22T06:51:58.999Z</time></trkpt><trkpt lat="44.17579502160085" lon="9.868324161105996"><ele>29.0</ele><time>2026-04-22T06:51:59.999Z</time></trkpt><trkpt lat="44.17603436928089" lon="9.868150814295603"><ele>29.0</ele><time>2026-04-22T06:52:00.999Z</time></trkpt><trkpt lat="44.176272940187914" lon="9.86797790528365"><ele>29.0</ele><time>2026-04-22T06:52:01.999Z</time></trkpt><trkpt lat="44.17651460890987" lon="9.867808139329867"><ele>29.0</ele><time>2026-04-22T06:52:02.999Z</time></trkpt><trkpt lat="44.176759888481364" lon="9.867632307464758"><ele>29.0</ele><time>2026-04-22T06:52:03.999Z</time></trkpt><trkpt lat="44.17700221040059" lon="9.86746027136982"><ele>29.0</ele><time>2026-04-22T06:52:04.999Z</time></trkpt><trkpt lat="44.177245336596464" lon="9.867287751062307"><ele>29.5</ele><time>2026-04-22T06:52:05.999Z</time></trkpt><trkpt lat="44.17749257024872" lon="9.867110918544121"><ele>30.0</ele><time>2026-04-22T06:52:06.999Z</time></trkpt><trkpt lat="44.177738918365826" lon="9.866940124411371"><ele>29.5</ele><time>2026-04-22T06:52:07.999Z</time></trkpt><trkpt lat="44.177988137350205" lon="9.866768753262491"><ele>29.0</ele><time>2026-04-22T06:52:08.999Z</time></trkpt><trkpt lat="44.178229096730966" lon="9.866603856654438"><ele>30.0</ele><time>2026-04-22T06:52:09.999Z</time></trkpt><trkpt lat="44.178467213290126" lon="9.866441185316587"><ele>31.0</ele><time>2026-04-22T06:52:10.999Z</time></trkpt><trkpt lat="44.17870364495651" lon="9.866279421225293"><ele>31.0</ele><time>2026-04-22T06:52:11.999Z</time></trkpt><trkpt lat="44.178938035191536" lon="9.866117559178681"><ele>31.0</ele><time>2026-04-22T06:52:12.999Z</time></trkpt><trkpt lat="44.179170583102646" lon="9.865954421281385"><ele>33.0</ele><time>2026-04-22T06:52:13.999Z</time></trkpt><trkpt lat="44.17940157604294" lon="9.865794324027538"><ele>35.0</ele><time>2026-04-22T06:52:15Z</time></trkpt><trkpt lat="44.1796290251146" lon="9.865636518714373"><ele>34.0</ele><time>2026-04-22T06:52:16Z</time></trkpt><trkpt lat="44.17985374865288" lon="9.865475999845458"><ele>33.0</ele><time>2026-04-22T06:52:17Z</time></trkpt><trkpt lat="44.18007640330157" lon="9.865318956792677"><ele>33.0</ele><time>2026-04-22T06:52:18Z</time></trkpt><trkpt lat="44.18029998888355" lon="9.865157618695608"><ele>33.0</ele><time>2026-04-22T06:52:19Z</time></trkpt><trkpt lat="44.18052749493234" lon="9.864995840851002"><ele>35.5</ele><time>2026-04-22T06:52:20Z</time></trkpt><trkpt lat="44.18075877928023" lon="9.86482782150659"><ele>38.0</ele><time>2026-04-22T06:52:21Z</time></trkpt><trkpt lat="44.18099506676398" lon="9.864661422577901"><ele>38.0</ele><time>2026-04-22T06:52:22Z</time></trkpt><trkpt lat="44.181232419637205" lon="9.864494778203374"><ele>38.0</ele><time>2026-04-22T06:52:23Z</time></trkpt><trkpt lat="44.18147374352228" lon="9.864324427606213"><ele>37.0</ele><time>2026-04-22T06:52:24Z</time></trkpt><trkpt lat="44.18171747851966" lon="9.864162587499234"><ele>36.0</ele><time>2026-04-22T06:52:25Z</time></trkpt><trkpt lat="44.18196678558972" lon="9.864002919064818"><ele>36.0</ele><time>2026-04-22T06:52:26Z</time></trkpt><trkpt lat="44.18221571505438" lon="9.863855201104782"><ele>36.0</ele><time>2026-04-22T06:52:27Z</time></trkpt><trkpt lat="44.182471020318346" lon="9.863703408226517"><ele>36.0</ele><time>2026-04-22T06:52:28Z</time></trkpt><trkpt lat="44.18272551777061" lon="9.86355883988617"><ele>36.0</ele><time>2026-04-22T06:52:29Z</time></trkpt><trkpt lat="44.18298331676609" lon="9.86341976044465"><ele>41.0</ele><time>2026-04-22T06:52:30Z</time></trkpt><trkpt lat="44.183243358187426" lon="9.863287196371878"><ele>46.0</ele><time>2026-04-22T06:52:31Z</time></trkpt><trkpt lat="44.18350182842996" lon="9.863159913270515"><ele>46.0</ele><time>2026-04-22T06:52:32Z</time></trkpt><trkpt lat="44.18376050598875" lon="9.863036457486153"><ele>46.0</ele><time>2026-04-22T06:52:33Z</time></trkpt><trkpt lat="44.184017987169454" lon="9.862916182392803"><ele>49.5</ele><time>2026-04-22T06:52:34Z</time></trkpt><trkpt lat="44.184277568430794" lon="9.862800928468495"><ele>53.0</ele><time>2026-04-22T06:52:35Z</time></trkpt><trkpt lat="44.1845368165769" lon="9.862688311186394"><ele>44.0</ele><time>2026-04-22T06:52:36Z</time></trkpt><trkpt lat="44.18479328067476" lon="9.862571864104437"><ele>35.0</ele><time>2026-04-22T06:52:37Z</time></trkpt><trkpt lat="44.18504819640633" lon="9.862453392342715"><ele>34.5</ele><time>2026-04-22T06:52:38Z</time></trkpt><trkpt lat="44.185302406707414" lon="9.862339370944818"><ele>34.0</ele><time>2026-04-22T06:52:39Z</time></trkpt><trkpt lat="44.18555472137996" lon="9.862229313467651"><ele>34.5</ele><time>2026-04-22T06:52:40Z</time></trkpt><trkpt lat="44.1858010738169" lon="9.86212162080956"><ele>35.0</ele><time>2026-04-22T06:52:41Z</time></trkpt><trkpt lat="44.18604434483069" lon="9.862009936877811"><ele>35.0</ele><time>2026-04-22T06:52:42Z</time></trkpt><trkpt lat="44.18628734681688" lon="9.861899222581501"><ele>35.0</ele><time>2026-04-22T06:52:43Z</time></trkpt><trkpt lat="44.18652824517543" lon="9.861794102238767"><ele>34.5</ele><time>2026-04-22T06:52:44Z</time></trkpt><trkpt lat="44.18676595547816" lon="9.861691220642703"><ele>34.0</ele><time>2026-04-22T06:52:45Z</time></trkpt><trkpt lat="44.18699932253624" lon="9.86158702124479"><ele>34.0</ele><time>2026-04-22T06:52:46Z</time></trkpt><trkpt lat="44.1872330619269" lon="9.861484070601723"><ele>34.0</ele><time>2026-04-22T06:52:47Z</time></trkpt><trkpt lat="44.18746598637459" lon="9.861381832993667"><ele>34.5</ele><time>2026-04-22T06:52:48Z</time></trkpt><trkpt lat="44.18769802956647" lon="9.861278451141803"><ele>35.0</ele><time>2026-04-22T06:52:49Z</time></trkpt><trkpt lat="44.18793138931088" lon="9.861174599032507"><ele>35.0</ele><time>2026-04-22T06:52:50Z</time></trkpt><trkpt lat="44.188163328579414" lon="9.86107261655332"><ele>35.0</ele><time>2026-04-22T06:52:51Z</time></trkpt><trkpt lat="44.18839628718798" lon="9.860969185930927"><ele>36.0</ele><time>2026-04-22T06:52:52Z</time></trkpt><trkpt lat="44.1886307340823" lon="9.860864062493167"><ele>37.0</ele><time>2026-04-22T06:52:53Z</time></trkpt><trkpt lat="44.18886574330499" lon="9.86076125557342"><ele>36.0</ele><time>2026-04-22T06:52:54Z</time></trkpt><trkpt lat="44.189099324184895" lon="9.860657036062245"><ele>35.0</ele><time>2026-04-22T06:52:55Z</time></trkpt><trkpt lat="44.18933429181022" lon="9.86055247939648"><ele>35.0</ele><time>2026-04-22T06:52:56Z</time></trkpt><trkpt lat="44.189569251567065" lon="9.860445343991055"><ele>35.0</ele><time>2026-04-22T06:52:57Z</time></trkpt><trkpt lat="44.18980499417577" lon="9.860337823036067"><ele>37.0</ele><time>2026-04-22T06:52:58Z</time></trkpt><trkpt lat="44.19004307574769" lon="9.86022943531763"><ele>39.0</ele><time>2026-04-22T06:52:59Z</time></trkpt><trkpt lat="44.1902831721823" lon="9.860124478361078"><ele>38.5</ele><time>2026-04-22T06:53:00Z</time></trkpt><trkpt lat="44.190525844295166" lon="9.86001685197577"><ele>38.0</ele><time>2026-04-22T06:53:01Z</time></trkpt><trkpt lat="44.19076903017027" lon="9.859908484547566"><ele>38.0</ele><time>2026-04-22T06:53:02Z</time></trkpt><trkpt lat="44.19101075041028" lon="9.859803958389966"><ele>38.0</ele><time>2026-04-22T06:53:03Z</time></trkpt><trkpt lat="44.191253386789036" lon="9.859697351141168"><ele>38.0</ele><time>2026-04-22T06:53:04Z</time></trkpt><trkpt lat="44.191496925271295" lon="9.859586590211675"><ele>38.0</ele><time>2026-04-22T06:53:05Z</time></trkpt><trkpt lat="44.191740640906254" lon="9.859475835652129"><ele>38.0</ele><time>2026-04-22T06:53:06Z</time></trkpt><trkpt lat="44.19198499465279" lon="9.8593663299841"><ele>38.0</ele><time>2026-04-22T06:53:07Z</time></trkpt><trkpt lat="44.192226351250206" lon="9.859254460842639"><ele>38.5</ele><time>2026-04-22T06:53:08Z</time></trkpt><trkpt lat="44.192466941723374" lon="9.859138411001327"><ele>39.0</ele><time>2026-04-22T06:53:09Z</time></trkpt><trkpt lat="44.192713104111675" lon="9.859017323991218"><ele>39.0</ele><time>2026-04-22T06:53:10Z</time></trkpt><trkpt lat="44.19296585213484" lon="9.85889875417712"><ele>39.0</ele><time>2026-04-22T06:53:11Z</time></trkpt><trkpt lat="44.19322193068047" lon="9.858782461035265"><ele>41.0</ele><time>2026-04-22T06:53:11.999Z</time></trkpt><trkpt lat="44.19348139546872" lon="9.858662816718288"><ele>43.0</ele><time>2026-04-22T06:53:12.999Z</time></trkpt><trkpt lat="44.193743105220214" lon="9.858545581061046"><ele>43.5</ele><time>2026-04-22T06:53:13.999Z</time></trkpt><trkpt lat="44.19400502199289" lon="9.858430378335255"><ele>44.0</ele><time>2026-04-22T06:53:14.999Z</time></trkpt><trkpt lat="44.194260718943205" lon="9.858315542991757"><ele>44.0</ele><time>2026-04-22T06:53:15.999Z</time></trkpt><trkpt lat="44.194511990668296" lon="9.85820127634637"><ele>44.0</ele><time>2026-04-22T06:53:16.999Z</time></trkpt><trkpt lat="44.194753473915554" lon="9.858095794771222"><ele>43.0</ele><time>2026-04-22T06:53:17.999Z</time></trkpt><trkpt lat="44.1949838539122" lon="9.857990414980705"><ele>42.0</ele><time>2026-04-22T06:53:18.999Z</time></trkpt><trkpt lat="44.19521352259027" lon="9.857881052153235"><ele>42.0</ele><time>2026-04-22T06:53:19.999Z</time></trkpt><trkpt lat="44.195438009622656" lon="9.857769624838374"><ele>42.0</ele><time>2026-04-22T06:53:20.999Z</time></trkpt><trkpt lat="44.19566066217854" lon="9.857641315286491"><ele>43.0</ele><time>2026-04-22T06:53:21.999Z</time></trkpt><trkpt lat="44.195879813969725" lon="9.857497253514698"><ele>44.0</ele><time>2026-04-22T06:53:22.999Z</time></trkpt><trkpt lat="44.19609717603654" lon="9.85733596372171"><ele>44.0</ele><time>2026-04-22T06:53:23.999Z</time></trkpt><trkpt lat="44.19630752865107" lon="9.857163421800635"><ele>44.0</ele><time>2026-04-22T06:53:24.999Z</time></trkpt><trkpt lat="44.19651079746942" lon="9.856974467294293"><ele>43.0</ele><time>2026-04-22T06:53:25.999Z</time></trkpt><trkpt lat="44.19670612029147" lon="9.856772447820525"><ele>42.0</ele><time>2026-04-22T06:53:26.999Z</time></trkpt><trkpt lat="44.19689774222836" lon="9.85655555767558"><ele>42.0</ele><time>2026-04-22T06:53:27.999Z</time></trkpt><trkpt lat="44.1970847493779" lon="9.856320326177599"><ele>42.0</ele><time>2026-04-22T06:53:28.999Z</time></trkpt><trkpt lat="44.197261994849846" lon="9.856070763553499"><ele>42.5</ele><time>2026-04-22T06:53:29.999Z</time></trkpt><trkpt lat="44.19742969913061" lon="9.855802101094637"><ele>43.0</ele><time>2026-04-22T06:53:30.999Z</time></trkpt><trkpt lat="44.19759101860653" lon="9.855519414096525"><ele>43.0</ele><time>2026-04-22T06:53:31.999Z</time></trkpt><trkpt lat="44.19773956264752" lon="9.855224689760535"><ele>43.0</ele><time>2026-04-22T06:53:32.999Z</time></trkpt><trkpt lat="44.197877916470524" lon="9.854916124774709"><ele>43.0</ele><time>2026-04-22T06:53:33.999Z</time></trkpt><trkpt lat="44.198005658962984" lon="9.854589749968955"><ele>43.0</ele><time>2026-04-22T06:53:34.999Z</time></trkpt><trkpt lat="44.19812214206554" lon="9.854247248235001"><ele>45.0</ele><time>2026-04-22T06:53:35.999Z</time></trkpt><trkpt lat="44.1982252899365" lon="9.853899890676637"><ele>47.0</ele><time>2026-04-22T06:53:36.999Z</time></trkpt><trkpt lat="44.19831159237344" lon="9.853548754862853"><ele>45.0</ele><time>2026-04-22T06:53:37.999Z</time></trkpt><trkpt lat="44.19838685986834" lon="9.85318956029665"><ele>43.0</ele><time>2026-04-22T06:53:38.999Z</time></trkpt><trkpt lat="44.19845029919225" lon="9.852815997817034"><ele>42.5</ele><time>2026-04-22T06:53:39.999Z</time></trkpt><trkpt lat="44.198503338919494" lon="9.852431378150847"><ele>42.0</ele><time>2026-04-22T06:53:40.999Z</time></trkpt><trkpt lat="44.19855124308681" lon="9.852041388747026"><ele>41.0</ele><time>2026-04-22T06:53:41.999Z</time></trkpt><trkpt lat="44.198599572033956" lon="9.851643634434526"><ele>40.0</ele><time>2026-04-22T06:53:42.999Z</time></trkpt><trkpt lat="44.19865045313876" lon="9.85124187495408"><ele>38.5</ele><time>2026-04-22T06:53:43.999Z</time></trkpt><trkpt lat="44.1987027469167" lon="9.85084127422842"><ele>37.0</ele><time>2026-04-22T06:53:44.999Z</time></trkpt><trkpt lat="44.198751040155145" lon="9.850444412689038"><ele>37.5</ele><time>2026-04-22T06:53:45.999Z</time></trkpt><trkpt lat="44.1987980144982" lon="9.850056622034893"><ele>38.0</ele><time>2026-04-22T06:53:46.999Z</time></trkpt><trkpt lat="44.1988452036675" lon="9.849671585588911"><ele>38.0</ele><time>2026-04-22T06:53:47.999Z</time></trkpt><trkpt lat="44.19889205181908" lon="9.849285797733826"><ele>38.0</ele><time>2026-04-22T06:53:48.999Z</time></trkpt><trkpt lat="44.198938550321536" lon="9.84890077812596"><ele>38.0</ele><time>2026-04-22T06:53:49.999Z</time></trkpt><trkpt lat="44.198984304275854" lon="9.848517950316603"><ele>38.0</ele><time>2026-04-22T06:53:50.999Z</time></trkpt><trkpt lat="44.199028872785966" lon="9.848132463806508"><ele>43.5</ele><time>2026-04-22T06:53:51.999Z</time></trkpt><trkpt lat="44.19907291844556" lon="9.847751434853807"><ele>49.0</ele><time>2026-04-22T06:53:52.999Z</time></trkpt><trkpt lat="44.19911727849188" lon="9.847368058670785"><ele>49.0</ele><time>2026-04-22T06:53:53.999Z</time></trkpt><trkpt lat="44.199161418310815" lon="9.846988878305726"><ele>49.0</ele><time>2026-04-22T06:53:54.999Z</time></trkpt><trkpt lat="44.1992075553894" lon="9.84660168497487"><ele>47.5</ele><time>2026-04-22T06:53:55.999Z</time></trkpt><trkpt lat="44.199252912266374" lon="9.846214750010112"><ele>46.0</ele><time>2026-04-22T06:53:56.999Z</time></trkpt><trkpt lat="44.19929655206356" lon="9.845835501395234"><ele>45.5</ele><time>2026-04-22T06:53:57.999Z</time></trkpt><trkpt lat="44.1993388496487" lon="9.845457110668066"><ele>45.0</ele><time>2026-04-22T06:53:58.999Z</time></trkpt><trkpt lat="44.19938002109713" lon="9.845076557587932"><ele>44.5</ele><time>2026-04-22T06:53:59.999Z</time></trkpt><trkpt lat="44.1994244959618" lon="9.844702976720663"><ele>44.0</ele><time>2026-04-22T06:54:00.999Z</time></trkpt><trkpt lat="44.19946884967126" lon="9.844328092057028"><ele>44.5</ele><time>2026-04-22T06:54:01.999Z</time></trkpt><trkpt lat="44.199512133736874" lon="9.843958875620302"><ele>45.0</ele><time>2026-04-22T06:54:02.999Z</time></trkpt><trkpt lat="44.199555222940226" lon="9.843594622257351"><ele>44.0</ele><time>2026-04-22T06:54:03.999Z</time></trkpt><trkpt lat="44.199596988730086" lon="9.843233620974104"><ele>43.0</ele><time>2026-04-22T06:54:04.999Z</time></trkpt><trkpt lat="44.19963453286395" lon="9.842876667751817"><ele>42.5</ele><time>2026-04-22T06:54:05.999Z</time></trkpt><trkpt lat="44.19966979894765" lon="9.842519605567563"><ele>42.0</ele><time>2026-04-22T06:54:06.999Z</time></trkpt><trkpt lat="44.199700863366274" lon="9.84215631518379"><ele>43.0</ele><time>2026-04-22T06:54:07.999Z</time></trkpt><trkpt lat="44.19971903890434" lon="9.841782570248125"><ele>44.0</ele><time>2026-04-22T06:54:08.999Z</time></trkpt><trkpt lat="44.19973493956997" lon="9.841348006342402"><ele>44.0</ele><time>2026-04-22T06:54:09.999Z</time></trkpt><trkpt lat="44.19974511531775" lon="9.840940533018584"><ele>44.0</ele><time>2026-04-22T06:54:10.999Z</time></trkpt><trkpt lat="44.19975047643044" lon="9.840527654092767"><ele>43.5</ele><time>2026-04-22T06:54:11.999Z</time></trkpt><trkpt lat="44.199751028245785" lon="9.840111266185744"><ele>43.0</ele><time>2026-04-22T06:54:12.999Z</time></trkpt><trkpt lat="44.19974805712756" lon="9.839695431930883"><ele>43.5</ele><time>2026-04-22T06:54:13.999Z</time></trkpt><trkpt lat="44.19974155546356" lon="9.839294937735884"><ele>44.0</ele><time>2026-04-22T06:54:14.999Z</time></trkpt><trkpt lat="44.1997271636179" lon="9.838894323518412"><ele>44.0</ele><time>2026-04-22T06:54:15.999Z</time></trkpt><trkpt lat="44.1997054647043" lon="9.83848504952333"><ele>44.0</ele><time>2026-04-22T06:54:16.999Z</time></trkpt><trkpt lat="44.19968135035506" lon="9.838073235400033"><ele>43.5</ele><time>2026-04-22T06:54:17.999Z</time></trkpt><trkpt lat="44.199655437859015" lon="9.837655063650361"><ele>43.0</ele><time>2026-04-22T06:54:18.999Z</time></trkpt><trkpt lat="44.19962932892284" lon="9.837234578358904"><ele>44.0</ele><time>2026-04-22T06:54:19.999Z</time></trkpt><trkpt lat="44.19960518920822" lon="9.836811210783813"><ele>45.0</ele><time>2026-04-22T06:54:21Z</time></trkpt><trkpt lat="44.199587149337916" lon="9.836384648667213"><ele>44.5</ele><time>2026-04-22T06:54:22Z</time></trkpt><trkpt lat="44.19957156275719" lon="9.835955336412589"><ele>44.0</ele><time>2026-04-22T06:54:23Z</time></trkpt><trkpt lat="44.19955161888628" lon="9.835526841355458"><ele>44.5</ele><time>2026-04-22T06:54:24Z</time></trkpt><trkpt lat="44.199527144336045" lon="9.835104324279836"><ele>45.0</ele><time>2026-04-22T06:54:25Z</time></trkpt><trkpt lat="44.199500762610064" lon="9.834687299830506"><ele>45.5</ele><time>2026-04-22T06:54:26Z</time></trkpt><trkpt lat="44.19947161671894" lon="9.834268762934741"><ele>46.0</ele><time>2026-04-22T06:54:27Z</time></trkpt><trkpt lat="44.19944497065545" lon="9.833857548530954"><ele>47.0</ele><time>2026-04-22T06:54:28Z</time></trkpt><trkpt lat="44.19942163832014" lon="9.833450843947688"><ele>48.0</ele><time>2026-04-22T06:54:29Z</time></trkpt><trkpt lat="44.199398276168786" lon="9.833043408617364"><ele>49.0</ele><time>2026-04-22T06:54:30Z</time></trkpt><trkpt lat="44.19937225120894" lon="9.8326388804616"><ele>50.0</ele><time>2026-04-22T06:54:31Z</time></trkpt><trkpt lat="44.199347467678315" lon="9.83224368069014"><ele>50.0</ele><time>2026-04-22T06:54:32Z</time></trkpt><trkpt lat="44.199322367614926" lon="9.831846495628215"><ele>50.0</ele><time>2026-04-22T06:54:33Z</time></trkpt><trkpt lat="44.19929769731358" lon="9.831452184759014"><ele>51.5</ele><time>2026-04-22T06:54:34Z</time></trkpt><trkpt lat="44.19927330092205" lon="9.831058721175038"><ele>53.0</ele><time>2026-04-22T06:54:35Z</time></trkpt><trkpt lat="44.19924891405183" lon="9.830667182203483"><ele>53.0</ele><time>2026-04-22T06:54:36Z</time></trkpt><trkpt lat="44.1992255497584" lon="9.830277586253178"><ele>53.0</ele><time>2026-04-22T06:54:37Z</time></trkpt><trkpt lat="44.19920249519366" lon="9.829894366664172"><ele>53.0</ele><time>2026-04-22T06:54:38Z</time></trkpt><trkpt lat="44.199177587206535" lon="9.829514121025571"><ele>53.0</ele><time>2026-04-22T06:54:39Z</time></trkpt><trkpt lat="44.199153521454136" lon="9.82913832746214"><ele>53.5</ele><time>2026-04-22T06:54:40Z</time></trkpt><trkpt lat="44.19913018179075" lon="9.828762673899863"><ele>54.0</ele><time>2026-04-22T06:54:41Z</time></trkpt><trkpt lat="44.199107745256065" lon="9.828390422671513"><ele>54.5</ele><time>2026-04-22T06:54:42Z</time></trkpt><trkpt lat="44.1990844696964" lon="9.828022890381625"><ele>55.0</ele><time>2026-04-22T06:54:43Z</time></trkpt><trkpt lat="44.19906099335892" lon="9.827654163816094"><ele>57.0</ele><time>2026-04-22T06:54:44Z</time></trkpt><trkpt lat="44.199037271122684" lon="9.82728879229985"><ele>59.0</ele><time>2026-04-22T06:54:45Z</time></trkpt><trkpt lat="44.19901357051176" lon="9.82692009386239"><ele>56.0</ele><time>2026-04-22T06:54:46Z</time></trkpt><trkpt lat="44.19899120729437" lon="9.826556168280963"><ele>53.0</ele><time>2026-04-22T06:54:47Z</time></trkpt><trkpt lat="44.19896938096019" lon="9.82619095086465"><ele>52.0</ele><time>2026-04-22T06:54:48Z</time></trkpt><trkpt lat="44.19894724766504" lon="9.825826081036933"><ele>51.0</ele><time>2026-04-22T06:54:49Z</time></trkpt><trkpt lat="44.19892730659054" lon="9.825470098952474"><ele>51.0</ele><time>2026-04-22T06:54:50Z</time></trkpt><trkpt lat="44.19891009145589" lon="9.825116941456391"><ele>51.0</ele><time>2026-04-22T06:54:51Z</time></trkpt><trkpt lat="44.19889567140983" lon="9.82476296468799"><ele>51.0</ele><time>2026-04-22T06:54:52Z</time></trkpt><trkpt lat="44.198882025102115" lon="9.824408156403106"><ele>51.0</ele><time>2026-04-22T06:54:53Z</time></trkpt><trkpt lat="44.198826737954185" lon="9.823943090274241"><ele>50.5</ele><time>2026-04-22T06:54:54Z</time></trkpt><trkpt lat="44.19880618272257" lon="9.823563237654495"><ele>50.0</ele><time>2026-04-22T06:54:55Z</time></trkpt><trkpt lat="44.19878246973514" lon="9.823178986661283"><ele>50.0</ele><time>2026-04-22T06:54:56Z</time></trkpt><trkpt lat="44.19875647473081" lon="9.822786461237188"><ele>50.0</ele><time>2026-04-22T06:54:57Z</time></trkpt><trkpt lat="44.19873038257982" lon="9.822396426160031"><ele>50.5</ele><time>2026-04-22T06:54:58Z</time></trkpt><trkpt lat="44.198708056937974" lon="9.822004427448794"><ele>51.0</ele><time>2026-04-22T06:54:59Z</time></trkpt><trkpt lat="44.198680345308674" lon="9.821612890017748"><ele>51.0</ele><time>2026-04-22T06:55:00Z</time></trkpt><trkpt lat="44.19865557007576" lon="9.821219898726367"><ele>51.0</ele><time>2026-04-22T06:55:01Z</time></trkpt><trkpt lat="44.198633303290116" lon="9.82082684411154"><ele>51.5</ele><time>2026-04-22T06:55:02Z</time></trkpt><trkpt lat="44.198608282264516" lon="9.820429781229665"><ele>52.0</ele><time>2026-04-22T06:55:03Z</time></trkpt><trkpt lat="44.19858131940265" lon="9.820033002617148"><ele>53.5</ele><time>2026-04-22T06:55:04Z</time></trkpt><trkpt lat="44.19855575932646" lon="9.819632266662548"><ele>55.0</ele><time>2026-04-22T06:55:05Z</time></trkpt><trkpt lat="44.19853408446774" lon="9.819241975319368"><ele>54.5</ele><time>2026-04-22T06:55:06Z</time></trkpt><trkpt lat="44.19850984038618" lon="9.81885744688014"><ele>54.0</ele><time>2026-04-22T06:55:07Z</time></trkpt><trkpt lat="44.19848540866979" lon="9.818470399106852"><ele>54.0</ele><time>2026-04-22T06:55:08Z</time></trkpt><trkpt lat="44.19846299389409" lon="9.81808773412551"><ele>54.0</ele><time>2026-04-22T06:55:09Z</time></trkpt><trkpt lat="44.19843592245194" lon="9.817712158260345"><ele>52.5</ele><time>2026-04-22T06:55:10Z</time></trkpt><trkpt lat="44.19841017737376" lon="9.81733329405202"><ele>51.0</ele><time>2026-04-22T06:55:11Z</time></trkpt><trkpt lat="44.198386316124605" lon="9.816959595733687"><ele>52.0</ele><time>2026-04-22T06:55:12Z</time></trkpt><trkpt lat="44.19835824497064" lon="9.816584798856725"><ele>53.0</ele><time>2026-04-22T06:55:13Z</time></trkpt><trkpt lat="44.198335487283124" lon="9.81621065155573"><ele>52.5</ele><time>2026-04-22T06:55:14Z</time></trkpt><trkpt lat="44.198313696450846" lon="9.815842118869995"><ele>52.0</ele><time>2026-04-22T06:55:15Z</time></trkpt><trkpt lat="44.198293901779856" lon="9.815485713416756"><ele>51.5</ele><time>2026-04-22T06:55:16Z</time></trkpt><trkpt lat="44.198266979121605" lon="9.81513302426438"><ele>51.0</ele><time>2026-04-22T06:55:17Z</time></trkpt><trkpt lat="44.19824705526982" lon="9.814782137581417"><ele>51.0</ele><time>2026-04-22T06:55:18Z</time></trkpt><trkpt lat="44.19824379639307" lon="9.814436941427829"><ele>51.0</ele><time>2026-04-22T06:55:19Z</time></trkpt><trkpt lat="44.19824490111307" lon="9.81409380511337"><ele>51.0</ele><time>2026-04-22T06:55:20Z</time></trkpt><trkpt lat="44.19825919379444" lon="9.813751402359282"><ele>51.0</ele><time>2026-04-22T06:55:21Z</time></trkpt><trkpt lat="44.19828440694382" lon="9.813416390978862"><ele>51.5</ele><time>2026-04-22T06:55:22Z</time></trkpt><trkpt lat="44.198322250213295" lon="9.813088182494935"><ele>52.0</ele><time>2026-04-22T06:55:22.999Z</time></trkpt><trkpt lat="44.1983756108502" lon="9.812764181083196"><ele>53.0</ele><time>2026-04-22T06:55:23.999Z</time></trkpt><trkpt lat="44.198443822526414" lon="9.812452992125674"><ele>54.0</ele><time>2026-04-22T06:55:24.999Z</time></trkpt><trkpt lat="44.198521199819496" lon="9.812141341441755"><ele>54.0</ele><time>2026-04-22T06:55:25.999Z</time></trkpt><trkpt lat="44.19860974869324" lon="9.811840009575192"><ele>54.0</ele><time>2026-04-22T06:55:26.999Z</time></trkpt><trkpt lat="44.19870799615199" lon="9.81153765697997"><ele>54.0</ele><time>2026-04-22T06:55:27.999Z</time></trkpt><trkpt lat="44.19882305693918" lon="9.811233548232382"><ele>54.0</ele><time>2026-04-22T06:55:28.999Z</time></trkpt><trkpt lat="44.19895188958977" lon="9.810930028560007"><ele>55.5</ele><time>2026-04-22T06:55:29.999Z</time></trkpt><trkpt lat="44.199094495809824" lon="9.810620621385315"><ele>57.0</ele><time>2026-04-22T06:55:30.999Z</time></trkpt><trkpt lat="44.199243073693445" lon="9.81031596463033"><ele>57.5</ele><time>2026-04-22T06:55:31.999Z</time></trkpt><trkpt lat="44.1993941130904" lon="9.8100096169366"><ele>58.0</ele><time>2026-04-22T06:55:32.999Z</time></trkpt><trkpt lat="44.19954698863494" lon="9.80969638653845"><ele>58.0</ele><time>2026-04-22T06:55:33.999Z</time></trkpt><trkpt lat="44.1997006252767" lon="9.809388074580731"><ele>58.0</ele><time>2026-04-22T06:55:34.999Z</time></trkpt><trkpt lat="44.19985585206837" lon="9.80907490911344"><ele>57.5</ele><time>2026-04-22T06:55:35.999Z</time></trkpt><trkpt lat="44.200014986175695" lon="9.808760934340045"><ele>57.0</ele><time>2026-04-22T06:55:36.999Z</time></trkpt><trkpt lat="44.200171472889416" lon="9.8084454231013"><ele>57.0</ele><time>2026-04-22T06:55:37.999Z</time></trkpt><trkpt lat="44.20033000779485" lon="9.808126409277767"><ele>57.0</ele><time>2026-04-22T06:55:38.999Z</time></trkpt><trkpt lat="44.200492633504034" lon="9.807804238366487"><ele>55.5</ele><time>2026-04-22T06:55:39.999Z</time></trkpt><trkpt lat="44.20065177273277" lon="9.807479873403578"><ele>54.0</ele><time>2026-04-22T06:55:40.999Z</time></trkpt><trkpt lat="44.20081074939279" lon="9.807158294964655"><ele>56.0</ele><time>2026-04-22T06:55:41.999Z</time></trkpt><trkpt lat="44.20096952309634" lon="9.806835921815134"><ele>58.0</ele><time>2026-04-22T06:55:42.999Z</time></trkpt><trkpt lat="44.201126371737" lon="9.806518778690934"><ele>58.0</ele><time>2026-04-22T06:55:43.999Z</time></trkpt><trkpt lat="44.201284116499004" lon="9.806198473370076"><ele>58.0</ele><time>2026-04-22T06:55:44.999Z</time></trkpt><trkpt lat="44.20144257980503" lon="9.805881969374157"><ele>59.5</ele><time>2026-04-22T06:55:45.999Z</time></trkpt><trkpt lat="44.20159943481152" lon="9.805568767706239"><ele>61.0</ele><time>2026-04-22T06:55:46.999Z</time></trkpt><trkpt lat="44.20175705558357" lon="9.805259431985466"><ele>59.5</ele><time>2026-04-22T06:55:47.999Z</time></trkpt><trkpt lat="44.201912112235284" lon="9.804943438132229"><ele>58.0</ele><time>2026-04-22T06:55:48.999Z</time></trkpt><trkpt lat="44.202066560929005" lon="9.804634312247375"><ele>58.0</ele><time>2026-04-22T06:55:49.999Z</time></trkpt><trkpt lat="44.202218794209976" lon="9.804326555596665"><ele>58.0</ele><time>2026-04-22T06:55:50.999Z</time></trkpt><trkpt lat="44.2023708354294" lon="9.804019145723753"><ele>58.5</ele><time>2026-04-22T06:55:51.999Z</time></trkpt><trkpt lat="44.20252215584914" lon="9.803710284498313"><ele>59.0</ele><time>2026-04-22T06:55:52.999Z</time></trkpt><trkpt lat="44.20267048193872" lon="9.803407416105756"><ele>57.5</ele><time>2026-04-22T06:55:53.999Z</time></trkpt><trkpt lat="44.20282166055233" lon="9.803104989623492"><ele>56.0</ele><time>2026-04-22T06:55:54.999Z</time></trkpt><trkpt lat="44.20297262611202" lon="9.80280367281596"><ele>55.5</ele><time>2026-04-22T06:55:55.999Z</time></trkpt><trkpt lat="44.203121277540056" lon="9.802507308175441"><ele>55.0</ele><time>2026-04-22T06:55:56.999Z</time></trkpt><trkpt lat="44.203267836333076" lon="9.802206026805171"><ele>54.5</ele><time>2026-04-22T06:55:57.999Z</time></trkpt><trkpt lat="44.203413980641834" lon="9.801906724367862"><ele>54.0</ele><time>2026-04-22T06:55:58.999Z</time></trkpt><trkpt lat="44.20356064847135" lon="9.801611511980012"><ele>54.0</ele><time>2026-04-22T06:55:59.999Z</time></trkpt><trkpt lat="44.203707611193146" lon="9.801317757603886"><ele>54.0</ele><time>2026-04-22T06:56:00.999Z</time></trkpt><trkpt lat="44.20385628588106" lon="9.801024653042836"><ele>54.5</ele><time>2026-04-22T06:56:01.999Z</time></trkpt><trkpt lat="44.20400256959571" lon="9.800730862336552"><ele>55.0</ele><time>2026-04-22T06:56:02.999Z</time></trkpt><trkpt lat="44.204149462606956" lon="9.800435408093229"><ele>54.0</ele><time>2026-04-22T06:56:03.999Z</time></trkpt><trkpt lat="44.20429583442407" lon="9.800144326650017"><ele>53.0</ele><time>2026-04-22T06:56:04.999Z</time></trkpt><trkpt lat="44.20444145936501" lon="9.799851767343071"><ele>53.0</ele><time>2026-04-22T06:56:05.999Z</time></trkpt><trkpt lat="44.204581050934955" lon="9.799560784873758"><ele>53.0</ele><time>2026-04-22T06:56:06.999Z</time></trkpt><trkpt lat="44.204716088159266" lon="9.799267263913272"><ele>54.5</ele><time>2026-04-22T06:56:07.999Z</time></trkpt><trkpt lat="44.20484244813381" lon="9.798969891137029"><ele>56.0</ele><time>2026-04-22T06:56:08.999Z</time></trkpt><trkpt lat="44.20495541335373" lon="9.798664550639188"><ele>56.0</ele><time>2026-04-22T06:56:09.999Z</time></trkpt><trkpt lat="44.20505652778236" lon="9.798352670617476"><ele>56.0</ele><time>2026-04-22T06:56:10.999Z</time></trkpt><trkpt lat="44.205145150742986" lon="9.798033872264275"><ele>56.0</ele><time>2026-04-22T06:56:11.999Z</time></trkpt><trkpt lat="44.20522304213559" lon="9.797699942914027"><ele>56.0</ele><time>2026-04-22T06:56:12.999Z</time></trkpt><trkpt lat="44.205289637581025" lon="9.79734544132091"><ele>56.0</ele><time>2026-04-22T06:56:13.999Z</time></trkpt><trkpt lat="44.20534368358198" lon="9.796984998382287"><ele>56.0</ele><time>2026-04-22T06:56:14.999Z</time></trkpt><trkpt lat="44.205383203572524" lon="9.796612113512166"><ele>56.5</ele><time>2026-04-22T06:56:15.999Z</time></trkpt><trkpt lat="44.20540856249458" lon="9.79622635106203"><ele>57.0</ele><time>2026-04-22T06:56:16.999Z</time></trkpt><trkpt lat="44.20542368542982" lon="9.79582747922636"><ele>57.0</ele><time>2026-04-22T06:56:17.999Z</time></trkpt><trkpt lat="44.20543918435058" lon="9.795428578918486"><ele>57.0</ele><time>2026-04-22T06:56:18.999Z</time></trkpt><trkpt lat="44.20545458717049" lon="9.795022781233456"><ele>56.5</ele><time>2026-04-22T06:56:19.999Z</time></trkpt><trkpt lat="44.20546649285142" lon="9.794621776524696"><ele>56.0</ele><time>2026-04-22T06:56:20.999Z</time></trkpt><trkpt lat="44.20547933771506" lon="9.794221323004937"><ele>56.0</ele><time>2026-04-22T06:56:21.999Z</time></trkpt><trkpt lat="44.20549439014398" lon="9.793822973093372"><ele>56.0</ele><time>2026-04-22T06:56:22.999Z</time></trkpt><trkpt lat="44.2055081138219" lon="9.793430470372387"><ele>56.0</ele><time>2026-04-22T06:56:23.999Z</time></trkpt><trkpt lat="44.20552110427635" lon="9.793034921180427"><ele>56.0</ele><time>2026-04-22T06:56:24.999Z</time></trkpt><trkpt lat="44.205533043817624" lon="9.792647291298982"><ele>57.0</ele><time>2026-04-22T06:56:25.999Z</time></trkpt><trkpt lat="44.205547934168266" lon="9.792252253613286"><ele>58.0</ele><time>2026-04-22T06:56:27Z</time></trkpt><trkpt lat="44.205563678316686" lon="9.791874852202557"><ele>58.5</ele><time>2026-04-22T06:56:28Z</time></trkpt><trkpt lat="44.205579194425546" lon="9.79149393181216"><ele>59.0</ele><time>2026-04-22T06:56:29Z</time></trkpt><trkpt lat="44.205593728413234" lon="9.791114140509404"><ele>60.0</ele><time>2026-04-22T06:56:30Z</time></trkpt><trkpt lat="44.205608417093885" lon="9.79073537933035"><ele>61.0</ele><time>2026-04-22T06:56:31Z</time></trkpt><trkpt lat="44.20562334849952" lon="9.790361043062349"><ele>62.5</ele><time>2026-04-22T06:56:32Z</time></trkpt><trkpt lat="44.20563523314007" lon="9.789983313939631"><ele>64.0</ele><time>2026-04-22T06:56:33Z</time></trkpt><trkpt lat="44.20564955954755" lon="9.789610501199668"><ele>66.0</ele><time>2026-04-22T06:56:34Z</time></trkpt><trkpt lat="44.2056629940736" lon="9.789235571357999"><ele>68.0</ele><time>2026-04-22T06:56:35Z</time></trkpt><trkpt lat="44.205676521850734" lon="9.788864621740288"><ele>67.5</ele><time>2026-04-22T06:56:36Z</time></trkpt><trkpt lat="44.20569024447466" lon="9.788495527682425"><ele>67.0</ele><time>2026-04-22T06:56:37Z</time></trkpt><trkpt lat="44.205703788033865" lon="9.78812726302602"><ele>67.0</ele><time>2026-04-22T06:56:38Z</time></trkpt><trkpt lat="44.205713723264644" lon="9.787752253515977"><ele>67.0</ele><time>2026-04-22T06:56:39Z</time></trkpt><trkpt lat="44.20572994960257" lon="9.787386134231143"><ele>68.0</ele><time>2026-04-22T06:56:40Z</time></trkpt><trkpt lat="44.20574535874621" lon="9.787019216629949"><ele>69.0</ele><time>2026-04-22T06:56:41Z</time></trkpt><trkpt lat="44.205757419833525" lon="9.786656685801804"><ele>70.0</ele><time>2026-04-22T06:56:42Z</time></trkpt><trkpt lat="44.2057666405249" lon="9.78628287455403"><ele>71.0</ele><time>2026-04-22T06:56:43Z</time></trkpt><trkpt lat="44.205778230589665" lon="9.785930079507775"><ele>71.5</ele><time>2026-04-22T06:56:44Z</time></trkpt><trkpt lat="44.20579281011201" lon="9.78557323590402"><ele>72.0</ele><time>2026-04-22T06:56:45Z</time></trkpt><trkpt lat="44.20580877081308" lon="9.785209828947968"><ele>73.5</ele><time>2026-04-22T06:56:46Z</time></trkpt><trkpt lat="44.2058263491477" lon="9.784854065552826"><ele>75.0</ele><time>2026-04-22T06:56:47Z</time></trkpt><trkpt lat="44.20584795982476" lon="9.784498871336925"><ele>76.5</ele><time>2026-04-22T06:56:48Z</time></trkpt><trkpt lat="44.205874694725935" lon="9.784142979897414"><ele>78.0</ele><time>2026-04-22T06:56:49Z</time></trkpt><trkpt lat="44.205903692411425" lon="9.783781684515267"><ele>80.0</ele><time>2026-04-22T06:56:50Z</time></trkpt><trkpt lat="44.205941154792235" lon="9.78343143293145"><ele>82.0</ele><time>2026-04-22T06:56:51Z</time></trkpt><trkpt lat="44.205981302584995" lon="9.783073659706925"><ele>82.0</ele><time>2026-04-22T06:56:52Z</time></trkpt><trkpt lat="44.20602809055337" lon="9.78272027669295"><ele>82.0</ele><time>2026-04-22T06:56:53Z</time></trkpt><trkpt lat="44.206077110169346" lon="9.78236765818431"><ele>84.5</ele><time>2026-04-22T06:56:54Z</time></trkpt><trkpt lat="44.206128330709724" lon="9.782002165758295"><ele>87.0</ele><time>2026-04-22T06:56:55Z</time></trkpt><trkpt lat="44.20618360490303" lon="9.781651101755003"><ele>93.0</ele><time>2026-04-22T06:56:56Z</time></trkpt><trkpt lat="44.206243245280206" lon="9.781306402623292"><ele>99.0</ele><time>2026-04-22T06:56:57Z</time></trkpt><trkpt lat="44.20630958196524" lon="9.78095772630524"><ele>108.0</ele><time>2026-04-22T06:56:58Z</time></trkpt><trkpt lat="44.20638994621647" lon="9.780607665285778"><ele>117.0</ele><time>2026-04-22T06:56:59Z</time></trkpt><trkpt lat="44.20647540027568" lon="9.780260471364514"><ele>132.0</ele><time>2026-04-22T06:57:00Z</time></trkpt><trkpt lat="44.20656085607647" lon="9.779917735350704"><ele>147.0</ele><time>2026-04-22T06:57:01Z</time></trkpt><trkpt lat="44.20664074924101" lon="9.77958062254078"><ele>162.5</ele><time>2026-04-22T06:57:02Z</time></trkpt><trkpt lat="44.206731471191624" lon="9.779237054852565"><ele>178.0</ele><time>2026-04-22T06:57:03Z</time></trkpt><trkpt lat="44.206831096147916" lon="9.778861837131663"><ele>178.0</ele><time>2026-04-22T06:57:04.068Z</time></trkpt><trkpt lat="44.206909380584314" lon="9.778526567032621"><ele>178.0</ele><time>2026-04-22T06:57:05.054Z</time></trkpt><trkpt lat="44.20700480850037" lon="9.77818575546657"><ele>194.5</ele><time>2026-04-22T06:57:06.052Z</time></trkpt><trkpt lat="44.20709472531348" lon="9.777841440465817"><ele>211.0</ele><time>2026-04-22T06:57:07.056Z</time></trkpt><trkpt lat="44.20718097500288" lon="9.777501506074216"><ele>224.5</ele><time>2026-04-22T06:57:08.049Z</time></trkpt><trkpt lat="44.20726065889527" lon="9.777153050485877"><ele>238.0</ele><time>2026-04-22T06:57:09.043Z</time></trkpt><trkpt lat="44.207344613421284" lon="9.776814861634621"><ele>381.0</ele><time>2026-04-22T06:57:10.027Z</time></trkpt><trkpt lat="44.20849391176985" lon="9.773724867095169"><ele>89.0</ele><time>2026-04-22T06:57:22.117Z</time></trkpt><trkpt lat="44.213478908602546" lon="9.765817679442003"><ele>89.0</ele><time>2026-04-22T06:57:47.999Z</time></trkpt><trkpt lat="44.21376958250178" lon="9.765587915195885"><ele>89.0</ele><time>2026-04-22T06:57:48.999Z</time></trkpt><trkpt lat="44.21432851729312" lon="9.76539652666989"><ele>90.5</ele><time>2026-04-22T06:57:49.999Z</time></trkpt><trkpt lat="44.21448519112945" lon="9.765169328612863"><ele>92.0</ele><time>2026-04-22T06:57:50.999Z</time></trkpt><trkpt lat="44.2146415748498" lon="9.764929659822842"><ele>92.0</ele><time>2026-04-22T06:57:51.999Z</time></trkpt><trkpt lat="44.214800994873244" lon="9.764685740976484"><ele>92.0</ele><time>2026-04-22T06:57:52.999Z</time></trkpt><trkpt lat="44.21495832791839" lon="9.76445200390397"><ele>96.0</ele><time>2026-04-22T06:57:53.999Z</time></trkpt><trkpt lat="44.215115303549865" lon="9.764216966777497"><ele>100.0</ele><time>2026-04-22T06:57:54.999Z</time></trkpt><trkpt lat="44.215273026939514" lon="9.76397896766273"><ele>100.0</ele><time>2026-04-22T06:57:55.999Z</time></trkpt><trkpt lat="44.21542629039425" lon="9.763746049586295"><ele>100.0</ele><time>2026-04-22T06:57:56.999Z</time></trkpt><trkpt lat="44.21557354594999" lon="9.76352121409433"><ele>100.0</ele><time>2026-04-22T06:57:57.999Z</time></trkpt><trkpt lat="44.21571928207583" lon="9.763304532361289"><ele>105.33333333333334</ele><time>2026-04-22T06:57:58.999Z</time></trkpt><trkpt lat="44.21586286119698" lon="9.76308640652494"><ele>110.66666666666666</ele><time>2026-04-22T06:57:59.999Z</time></trkpt><trkpt lat="44.216006482409874" lon="9.762864781751672"><ele>116.0</ele><time>2026-04-22T06:58:00.999Z</time></trkpt><trkpt lat="44.216149481117405" lon="9.762637227459146"><ele>117.66666666666666</ele><time>2026-04-22T06:58:01.999Z</time></trkpt><trkpt lat="44.216295534399215" lon="9.762406370554281"><ele>119.33333333333334</ele><time>2026-04-22T06:58:02.999Z</time></trkpt><trkpt lat="44.2164438924145" lon="9.762171239914922"><ele>121.0</ele><time>2026-04-22T06:58:03.999Z</time></trkpt><trkpt lat="44.216594688572016" lon="9.761930523430038"><ele>155.5</ele><time>2026-04-22T06:58:04.999Z</time></trkpt><trkpt lat="44.21676426328724" lon="9.76166366585965"><ele>190.0</ele><time>2026-04-22T06:58:06.062Z</time></trkpt><trkpt lat="44.216931681771584" lon="9.761404308736669"><ele>190.0</ele><time>2026-04-22T06:58:07.053Z</time></trkpt><trkpt lat="44.21710560560062" lon="9.761135923002048"><ele>190.0</ele><time>2026-04-22T06:58:08.053Z</time></trkpt><trkpt lat="44.2172787622064" lon="9.760866528578335"><ele>105.0</ele><time>2026-04-22T06:58:09.044Z</time></trkpt><trkpt lat="44.21951861275899" lon="9.75746636943858"><ele>105.0</ele><time>2026-04-22T06:58:23.999Z</time></trkpt><trkpt lat="44.21966150049584" lon="9.757241649011986"><ele>105.0</ele><time>2026-04-22T06:58:24.999Z</time></trkpt><trkpt lat="44.2198305818433" lon="9.757045961708817"><ele>105.0</ele><time>2026-04-22T06:58:25.999Z</time></trkpt><trkpt lat="44.2199872807635" lon="9.756823787205663"><ele>101.33333333333333</ele><time>2026-04-22T06:58:26.999Z</time></trkpt><trkpt lat="44.220146002710884" lon="9.756603543021036"><ele>97.66666666666666</ele><time>2026-04-22T06:58:27.999Z</time></trkpt><trkpt lat="44.220309590802195" lon="9.756387352401422"><ele>94.0</ele><time>2026-04-22T06:58:28.999Z</time></trkpt><trkpt lat="44.22048047542328" lon="9.7561790493242"><ele>92.66666666666666</ele><time>2026-04-22T06:58:29.999Z</time></trkpt><trkpt lat="44.22058783749392" lon="9.756018629551686"><ele>91.33333333333333</ele><time>2026-04-22T06:58:30.999Z</time></trkpt><trkpt lat="44.22074889180169" lon="9.755833529457162"><ele>90.0</ele><time>2026-04-22T06:58:31.999Z</time></trkpt><trkpt lat="44.220911243148905" lon="9.755636668013727"><ele>89.66666666666667</ele><time>2026-04-22T06:58:33Z</time></trkpt><trkpt lat="44.22106655518104" lon="9.755444286480223"><ele>89.33333333333334</ele><time>2026-04-22T06:58:34Z</time></trkpt><trkpt lat="44.22122575222609" lon="9.755266266999362"><ele>89.0</ele><time>2026-04-22T06:58:35Z</time></trkpt><trkpt lat="44.22138499285025" lon="9.755087654943434"><ele>87.0</ele><time>2026-04-22T06:58:36Z</time></trkpt><trkpt lat="44.22154309204764" lon="9.754909179204157"><ele>85.0</ele><time>2026-04-22T06:58:37Z</time></trkpt><trkpt lat="44.22169945348697" lon="9.7547308930324"><ele>83.0</ele><time>2026-04-22T06:58:38Z</time></trkpt><trkpt lat="44.221855925955204" lon="9.754552135348028"><ele>85.33333333333334</ele><time>2026-04-22T06:58:39Z</time></trkpt><trkpt lat="44.222013738862074" lon="9.754371309244096"><ele>87.66666666666667</ele><time>2026-04-22T06:58:40Z</time></trkpt><trkpt lat="44.222175794462395" lon="9.754187486618829"><ele>90.0</ele><time>2026-04-22T06:58:41Z</time></trkpt><trkpt lat="44.22233713608917" lon="9.753998505288848"><ele>90.0</ele><time>2026-04-22T06:58:42Z</time></trkpt><trkpt lat="44.222490048304635" lon="9.75380731538768"><ele>90.0</ele><time>2026-04-22T06:58:43Z</time></trkpt><trkpt lat="44.22264086381125" lon="9.75360811355981"><ele>90.0</ele><time>2026-04-22T06:58:44Z</time></trkpt><trkpt lat="44.222787401177484" lon="9.753398129750163"><ele>90.33333333333333</ele><time>2026-04-22T06:58:45Z</time></trkpt><trkpt lat="44.22292816208845" lon="9.753175337026292"><ele>90.66666666666666</ele><time>2026-04-22T06:58:46Z</time></trkpt><trkpt lat="44.22306270481736" lon="9.752940317270593"><ele>91.0</ele><time>2026-04-22T06:58:47Z</time></trkpt><trkpt lat="44.223195749104065" lon="9.752700686618075"><ele>91.0</ele><time>2026-04-22T06:58:48Z</time></trkpt><trkpt lat="44.22331165950961" lon="9.752580634287803"><ele>91.0</ele><time>2026-04-22T06:58:49Z</time></trkpt><trkpt lat="44.223433450722574" lon="9.752354637879435"><ele>91.0</ele><time>2026-04-22T06:58:50Z</time></trkpt><trkpt lat="44.223553586485224" lon="9.752122521409747"><ele>91.0</ele><time>2026-04-22T06:58:51Z</time></trkpt><trkpt lat="44.223662452320625" lon="9.751877995915535"><ele>91.0</ele><time>2026-04-22T06:58:52Z</time></trkpt><trkpt lat="44.22376833639555" lon="9.751626578873925"><ele>91.0</ele><time>2026-04-22T06:58:53Z</time></trkpt><trkpt lat="44.22386117190622" lon="9.751377475921455"><ele>89.66666666666666</ele><time>2026-04-22T06:58:54Z</time></trkpt><trkpt lat="44.22394731281347" lon="9.751129029928642"><ele>88.33333333333333</ele><time>2026-04-22T06:58:55Z</time></trkpt><trkpt lat="44.224026431786406" lon="9.750882413718557"><ele>87.0</ele><time>2026-04-22T06:58:56Z</time></trkpt><trkpt lat="44.224098312612504" lon="9.750627973146726"><ele>87.0</ele><time>2026-04-22T06:58:57Z</time></trkpt><trkpt lat="44.22416005824006" lon="9.750373900542181"><ele>87.0</ele><time>2026-04-22T06:58:58Z</time></trkpt><trkpt lat="44.2242153884422" lon="9.750118464696456"><ele>87.0</ele><time>2026-04-22T06:58:59Z</time></trkpt><trkpt lat="44.224266708457094" lon="9.749859134843085"><ele>87.66666666666667</ele><time>2026-04-22T06:59:00Z</time></trkpt><trkpt lat="44.22431434219853" lon="9.749597113001888"><ele>88.33333333333334</ele><time>2026-04-22T06:59:01Z</time></trkpt><trkpt lat="44.22436333653262" lon="9.749323709800652"><ele>89.0</ele><time>2026-04-22T06:59:02Z</time></trkpt><trkpt lat="44.22441192851316" lon="9.749044596606504"><ele>89.0</ele><time>2026-04-22T06:59:03Z</time></trkpt><trkpt lat="44.22446399052879" lon="9.748758100212939"><ele>89.0</ele><time>2026-04-22T06:59:04Z</time></trkpt><trkpt lat="44.224515041041855" lon="9.748476461463929"><ele>89.0</ele><time>2026-04-22T06:59:05Z</time></trkpt><trkpt lat="44.22456287291883" lon="9.748209830617494"><ele>89.0</ele><time>2026-04-22T06:59:06Z</time></trkpt><trkpt lat="44.224613728388015" lon="9.747946820188329"><ele>89.0</ele><time>2026-04-22T06:59:07Z</time></trkpt><trkpt lat="44.22466577913716" lon="9.747678400486336"><ele>89.0</ele><time>2026-04-22T06:59:08Z</time></trkpt><trkpt lat="44.224717903925765" lon="9.747401324133005"><ele>89.0</ele><time>2026-04-22T06:59:09Z</time></trkpt><trkpt lat="44.22476810913425" lon="9.74712456921695"><ele>89.0</ele><time>2026-04-22T06:59:10Z</time></trkpt><trkpt lat="44.2248179133527" lon="9.74684803800586"><ele>89.0</ele><time>2026-04-22T06:59:11Z</time></trkpt><trkpt lat="44.22486600526441" lon="9.74657512136111"><ele>89.0</ele><time>2026-04-22T06:59:12Z</time></trkpt><trkpt lat="44.22491468312316" lon="9.746302181733656"><ele>89.0</ele><time>2026-04-22T06:59:13Z</time></trkpt><trkpt lat="44.22495871782569" lon="9.746039412324885"><ele>89.0</ele><time>2026-04-22T06:59:14Z</time></trkpt><trkpt lat="44.22499899814827" lon="9.74578373913385"><ele>89.0</ele><time>2026-04-22T06:59:15Z</time></trkpt><trkpt lat="44.22503260389233" lon="9.745531153239106"><ele>89.0</ele><time>2026-04-22T06:59:16Z</time></trkpt><trkpt lat="44.225059480078244" lon="9.74527588716319"><ele>89.0</ele><time>2026-04-22T06:59:17Z</time></trkpt><trkpt lat="44.225081353315005" lon="9.745016321004018"><ele>89.0</ele><time>2026-04-22T06:59:18Z</time></trkpt><trkpt lat="44.22509460909945" lon="9.744736010913082"><ele>89.0</ele><time>2026-04-22T06:59:19Z</time></trkpt><trkpt lat="44.22509927341646" lon="9.744444030097085"><ele>89.0</ele><time>2026-04-22T06:59:20Z</time></trkpt><trkpt lat="44.225096560481525" lon="9.744147854137216"><ele>89.0</ele><time>2026-04-22T06:59:21Z</time></trkpt><trkpt lat="44.22508351596112" lon="9.743858397635236"><ele>89.0</ele><time>2026-04-22T06:59:22Z</time></trkpt><trkpt lat="44.22505692751966" lon="9.743554911047903"><ele>89.0</ele><time>2026-04-22T06:59:23Z</time></trkpt><trkpt lat="44.22501783880658" lon="9.743235302990863"><ele>88.5</ele><time>2026-04-22T06:59:24Z</time></trkpt><trkpt lat="44.224966206666146" lon="9.742909752279964"><ele>88.0</ele><time>2026-04-22T06:59:25Z</time></trkpt><trkpt lat="44.224899859267154" lon="9.742573478146133"><ele>88.5</ele><time>2026-04-22T06:59:26Z</time></trkpt><trkpt lat="44.224821082324034" lon="9.742220284821943"><ele>89.0</ele><time>2026-04-22T06:59:27Z</time></trkpt><trkpt lat="44.22473733660653" lon="9.741849118769812"><ele>89.0</ele><time>2026-04-22T06:59:28Z</time></trkpt><trkpt lat="44.22465553607471" lon="9.7414891252174"><ele>89.0</ele><time>2026-04-22T06:59:29Z</time></trkpt><trkpt lat="44.22456896287454" lon="9.741132856220807"><ele>89.5</ele><time>2026-04-22T06:59:30Z</time></trkpt><trkpt lat="44.224485377482345" lon="9.740776647338317"><ele>90.0</ele><time>2026-04-22T06:59:31Z</time></trkpt><trkpt lat="44.22440513456512" lon="9.740422505565247"><ele>90.5</ele><time>2026-04-22T06:59:32Z</time></trkpt><trkpt lat="44.22432254421385" lon="9.74007698318096"><ele>91.0</ele><time>2026-04-22T06:59:33Z</time></trkpt><trkpt lat="44.22424221032897" lon="9.739735790412997"><ele>91.0</ele><time>2026-04-22T06:59:34Z</time></trkpt><trkpt lat="44.22416389956768" lon="9.739402467718977"><ele>91.0</ele><time>2026-04-22T06:59:35Z</time></trkpt><trkpt lat="44.22409353568735" lon="9.739073730525922"><ele>91.0</ele><time>2026-04-22T06:59:35.999Z</time></trkpt><trkpt lat="44.224034325257676" lon="9.73874263743351"><ele>91.0</ele><time>2026-04-22T06:59:36.999Z</time></trkpt><trkpt lat="44.22398579550733" lon="9.738409584260113"><ele>89.5</ele><time>2026-04-22T06:59:37.999Z</time></trkpt><trkpt lat="44.223951053885834" lon="9.738072602103506"><ele>88.0</ele><time>2026-04-22T06:59:38.999Z</time></trkpt><trkpt lat="44.22393058315552" lon="9.737746632693854"><ele>89.0</ele><time>2026-04-22T06:59:39.999Z</time></trkpt><trkpt lat="44.22391955506069" lon="9.737421491112528"><ele>90.0</ele><time>2026-04-22T06:59:40.999Z</time></trkpt><trkpt lat="44.22392055994032" lon="9.737083638122343"><ele>90.5</ele><time>2026-04-22T06:59:41.999Z</time></trkpt><trkpt lat="44.223934010256826" lon="9.736755747954051"><ele>91.0</ele><time>2026-04-22T06:59:42.999Z</time></trkpt><trkpt lat="44.223955462960845" lon="9.736427551302073"><ele>94.5</ele><time>2026-04-22T06:59:43.999Z</time></trkpt><trkpt lat="44.22399373002317" lon="9.736093505033187"><ele>98.0</ele><time>2026-04-22T06:59:44.999Z</time></trkpt><trkpt lat="44.22404906057586" lon="9.735753607963442"><ele>99.0</ele><time>2026-04-22T06:59:45.999Z</time></trkpt><trkpt lat="44.22411965398775" lon="9.735411528129704"><ele>100.0</ele><time>2026-04-22T06:59:46.999Z</time></trkpt><trkpt lat="44.22420409744607" lon="9.735064092629946"><ele>100.0</ele><time>2026-04-22T06:59:47.999Z</time></trkpt><trkpt lat="44.22430153657001" lon="9.734720971616163"><ele>100.0</ele><time>2026-04-22T06:59:48.999Z</time></trkpt><trkpt lat="44.22441472744264" lon="9.7343904118984"><ele>99.0</ele><time>2026-04-22T06:59:49.999Z</time></trkpt><trkpt lat="44.22454435233213" lon="9.734069093505225"><ele>98.0</ele><time>2026-04-22T06:59:50.999Z</time></trkpt><trkpt lat="44.224684986619536" lon="9.733765965300199"><ele>100.0</ele><time>2026-04-22T06:59:51.999Z</time></trkpt><trkpt lat="44.22483965749872" lon="9.733468132081429"><ele>102.0</ele><time>2026-04-22T06:59:52.999Z</time></trkpt><trkpt lat="44.22500435914802" lon="9.733172408890917"><ele>102.0</ele><time>2026-04-22T06:59:53.999Z</time></trkpt><trkpt lat="44.225170484776505" lon="9.732886612000115"><ele>102.0</ele><time>2026-04-22T06:59:54.999Z</time></trkpt><trkpt lat="44.22533005563352" lon="9.732609740472736"><ele>101.0</ele><time>2026-04-22T06:59:55.999Z</time></trkpt><trkpt lat="44.22548798539249" lon="9.73233671632175"><ele>100.0</ele><time>2026-04-22T06:59:56.999Z</time></trkpt><trkpt lat="44.22564243337735" lon="9.732067802489043"><ele>101.5</ele><time>2026-04-22T06:59:57.999Z</time></trkpt><trkpt lat="44.225789809311" lon="9.731810850476244"><ele>103.0</ele><time>2026-04-22T06:59:58.999Z</time></trkpt><trkpt lat="44.225932659404634" lon="9.731564055670484"><ele>103.0</ele><time>2026-04-22T06:59:59.999Z</time></trkpt><trkpt lat="44.22607341618953" lon="9.73131756522381"><ele>103.0</ele><time>2026-04-22T07:00:00.999Z</time></trkpt><trkpt lat="44.22621189643819" lon="9.731071776188973"><ele>103.33333333333334</ele><time>2026-04-22T07:00:01.999Z</time></trkpt><trkpt lat="44.22635015865983" lon="9.730828351256784"><ele>103.66666666666666</ele><time>2026-04-22T07:00:02.999Z</time></trkpt><trkpt lat="44.22648905572125" lon="9.73058418448948"><ele>104.0</ele><time>2026-04-22T07:00:03.999Z</time></trkpt><trkpt lat="44.226631280857156" lon="9.730334758200012"><ele>105.5</ele><time>2026-04-22T07:00:04.999Z</time></trkpt><trkpt lat="44.226773477929626" lon="9.73008242884954"><ele>107.0</ele><time>2026-04-22T07:00:05.999Z</time></trkpt><trkpt lat="44.22691884012086" lon="9.729823624295612"><ele>107.0</ele><time>2026-04-22T07:00:06.999Z</time></trkpt><trkpt lat="44.2270689457582" lon="9.729556616526375"><ele>107.0</ele><time>2026-04-22T07:00:07.999Z</time></trkpt><trkpt lat="44.22721986715177" lon="9.729295535397211"><ele>105.0</ele><time>2026-04-22T07:00:08.999Z</time></trkpt><trkpt lat="44.22736903865274" lon="9.72903350767358"><ele>103.0</ele><time>2026-04-22T07:00:09.999Z</time></trkpt><trkpt lat="44.227519734880744" lon="9.72877224777272"><ele>102.5</ele><time>2026-04-22T07:00:10.999Z</time></trkpt><trkpt lat="44.22767096457499" lon="9.72851163535389"><ele>102.0</ele><time>2026-04-22T07:00:11.999Z</time></trkpt><trkpt lat="44.22782237135262" lon="9.728246890366242"><ele>102.0</ele><time>2026-04-22T07:00:12.999Z</time></trkpt><trkpt lat="44.22797254630454" lon="9.727984550399059"><ele>102.0</ele><time>2026-04-22T07:00:13.999Z</time></trkpt><trkpt lat="44.228122876770804" lon="9.727721829286578"><ele>103.0</ele><time>2026-04-22T07:00:14.999Z</time></trkpt><trkpt lat="44.22827310924774" lon="9.727456195503034"><ele>104.0</ele><time>2026-04-22T07:00:15.999Z</time></trkpt><trkpt lat="44.228424484171825" lon="9.727186487073697"><ele>104.0</ele><time>2026-04-22T07:00:16.999Z</time></trkpt><trkpt lat="44.22857820210561" lon="9.726917081736964"><ele>104.0</ele><time>2026-04-22T07:00:17.999Z</time></trkpt><trkpt lat="44.228734067966265" lon="9.726645837177845"><ele>103.5</ele><time>2026-04-22T07:00:18.999Z</time></trkpt><trkpt lat="44.2288901067186" lon="9.726374152807606"><ele>103.0</ele><time>2026-04-22T07:00:19.999Z</time></trkpt><trkpt lat="44.22904405860229" lon="9.726102444277673"><ele>102.5</ele><time>2026-04-22T07:00:20.999Z</time></trkpt><trkpt lat="44.22919769823633" lon="9.725829154385265"><ele>102.0</ele><time>2026-04-22T07:00:21.999Z</time></trkpt><trkpt lat="44.229352031762446" lon="9.725556368439703"><ele>102.0</ele><time>2026-04-22T07:00:22.999Z</time></trkpt><trkpt lat="44.22950601267671" lon="9.725285019981728"><ele>102.0</ele><time>2026-04-22T07:00:23.999Z</time></trkpt><trkpt lat="44.22966096026853" lon="9.725013801172082"><ele>102.0</ele><time>2026-04-22T07:00:24.999Z</time></trkpt><trkpt lat="44.229816821601105" lon="9.724739922388794"><ele>102.0</ele><time>2026-04-22T07:00:25.999Z</time></trkpt><trkpt lat="44.2299754549453" lon="9.72446564028086"><ele>102.0</ele><time>2026-04-22T07:00:26.999Z</time></trkpt><trkpt lat="44.23013178912897" lon="9.724192760541984"><ele>102.0</ele><time>2026-04-22T07:00:27.999Z</time></trkpt><trkpt lat="44.23028718887942" lon="9.723919000919128"><ele>102.0</ele><time>2026-04-22T07:00:28.999Z</time></trkpt><trkpt lat="44.23044327019022" lon="9.723643158016515"><ele>102.0</ele><time>2026-04-22T07:00:29.999Z</time></trkpt><trkpt lat="44.230600086734846" lon="9.723364996516219"><ele>102.0</ele><time>2026-04-22T07:00:30.999Z</time></trkpt><trkpt lat="44.230755562001264" lon="9.723084977062134"><ele>102.0</ele><time>2026-04-22T07:00:31.999Z</time></trkpt><trkpt lat="44.230911711589606" lon="9.722809770137541"><ele>101.5</ele><time>2026-04-22T07:00:32.999Z</time></trkpt><trkpt lat="44.23106884438888" lon="9.7225377994258"><ele>101.0</ele><time>2026-04-22T07:00:33.999Z</time></trkpt><trkpt lat="44.231227048170474" lon="9.722257883259182"><ele>101.0</ele><time>2026-04-22T07:00:34.999Z</time></trkpt><trkpt lat="44.231385790126225" lon="9.72197861060291"><ele>101.0</ele><time>2026-04-22T07:00:35.999Z</time></trkpt><trkpt lat="44.231545483639906" lon="9.721699065943913"><ele>101.5</ele><time>2026-04-22T07:00:36.999Z</time></trkpt><trkpt lat="44.231706761363014" lon="9.721416641710478"><ele>102.0</ele><time>2026-04-22T07:00:38Z</time></trkpt><trkpt lat="44.23186919667127" lon="9.721127621423703"><ele>102.0</ele><time>2026-04-22T07:00:39Z</time></trkpt><trkpt lat="44.232033281867416" lon="9.720849703517324"><ele>102.0</ele><time>2026-04-22T07:00:40Z</time></trkpt><trkpt lat="44.23220045684876" lon="9.720578114288214"><ele>103.0</ele><time>2026-04-22T07:00:41Z</time></trkpt><trkpt lat="44.23236807083711" lon="9.720315798913772"><ele>104.0</ele><time>2026-04-22T07:00:42Z</time></trkpt><trkpt lat="44.232534481524645" lon="9.72006390764061"><ele>104.0</ele><time>2026-04-22T07:00:43Z</time></trkpt><trkpt lat="44.23269469880004" lon="9.719683479692451"><ele>104.0</ele><time>2026-04-22T07:00:44Z</time></trkpt><trkpt lat="44.23285515518705" lon="9.719407834866074"><ele>104.5</ele><time>2026-04-22T07:00:45Z</time></trkpt><trkpt lat="44.233013981352336" lon="9.719125581728253"><ele>105.0</ele><time>2026-04-22T07:00:46Z</time></trkpt><trkpt lat="44.23317030850295" lon="9.718847666732893"><ele>105.5</ele><time>2026-04-22T07:00:47Z</time></trkpt><trkpt lat="44.233326574167016" lon="9.718578867932761"><ele>106.0</ele><time>2026-04-22T07:00:48Z</time></trkpt><trkpt lat="44.23348378129965" lon="9.718301591357866"><ele>107.0</ele><time>2026-04-22T07:00:49Z</time></trkpt><trkpt lat="44.23364184322733" lon="9.7180262890802"><ele>108.0</ele><time>2026-04-22T07:00:50Z</time></trkpt><trkpt lat="44.23379625793936" lon="9.717745929184867"><ele>108.0</ele><time>2026-04-22T07:00:51Z</time></trkpt><trkpt lat="44.23395406684041" lon="9.71746703282207"><ele>108.0</ele><time>2026-04-22T07:00:52Z</time></trkpt><trkpt lat="44.234111457686296" lon="9.717194405313656"><ele>108.5</ele><time>2026-04-22T07:00:53Z</time></trkpt><trkpt lat="44.23427010467517" lon="9.716915066422752"><ele>109.0</ele><time>2026-04-22T07:00:54Z</time></trkpt><trkpt lat="44.234429473330806" lon="9.716642986763512"><ele>109.0</ele><time>2026-04-22T07:00:55Z</time></trkpt><trkpt lat="44.234584026628234" lon="9.716368942385808"><ele>109.0</ele><time>2026-04-22T07:00:56Z</time></trkpt><trkpt lat="44.2347373056637" lon="9.716093422681688"><ele>113.0</ele><time>2026-04-22T07:00:57Z</time></trkpt><trkpt lat="44.23488331940999" lon="9.715814307309106"><ele>117.0</ele><time>2026-04-22T07:00:58Z</time></trkpt><trkpt lat="44.235018641809205" lon="9.715531285820244"><ele>117.0</ele><time>2026-04-22T07:00:59Z</time></trkpt><trkpt lat="44.23515517785864" lon="9.71524643471586"><ele>117.0</ele><time>2026-04-22T07:01:00Z</time></trkpt><trkpt lat="44.23528768124506" lon="9.714959631205964"><ele>118.5</ele><time>2026-04-22T07:01:01Z</time></trkpt><trkpt lat="44.23541445986831" lon="9.714668614811275"><ele>120.0</ele><time>2026-04-22T07:01:02Z</time></trkpt><trkpt lat="44.23553185796375" lon="9.714376436663743"><ele>123.0</ele><time>2026-04-22T07:01:03Z</time></trkpt><trkpt lat="44.23564357869104" lon="9.714081452548399"><ele>126.0</ele><time>2026-04-22T07:01:04Z</time></trkpt><trkpt lat="44.23574864497827" lon="9.713785657797448"><ele>126.5</ele><time>2026-04-22T07:01:05Z</time></trkpt><trkpt lat="44.23585213436601" lon="9.713490555572081"><ele>127.0</ele><time>2026-04-22T07:01:06Z</time></trkpt><trkpt lat="44.23594211958215" lon="9.713192777746565"><ele>127.0</ele><time>2026-04-22T07:01:07Z</time></trkpt><trkpt lat="44.23603003201651" lon="9.712895355462358"><ele>127.0</ele><time>2026-04-22T07:01:08Z</time></trkpt><trkpt lat="44.23611980925087" lon="9.71259630398095"><ele>121.5</ele><time>2026-04-22T07:01:09Z</time></trkpt><trkpt lat="44.236199967411736" lon="9.712292259345768"><ele>116.0</ele><time>2026-04-22T07:01:10Z</time></trkpt><trkpt lat="44.23627211017553" lon="9.711990354630991"><ele>112.5</ele><time>2026-04-22T07:01:11Z</time></trkpt><trkpt lat="44.23634865382339" lon="9.711677395963195"><ele>109.0</ele><time>2026-04-22T07:01:12Z</time></trkpt><trkpt lat="44.23641193248674" lon="9.711369849367522"><ele>109.0</ele><time>2026-04-22T07:01:13Z</time></trkpt><trkpt lat="44.23647081184992" lon="9.711087365109266"><ele>109.0</ele><time>2026-04-22T07:01:14Z</time></trkpt><trkpt lat="44.23653091568305" lon="9.710812487003773"><ele>109.0</ele><time>2026-04-22T07:01:15Z</time></trkpt><trkpt lat="44.23657808333261" lon="9.710547480376931"><ele>109.0</ele><time>2026-04-22T07:01:16Z</time></trkpt><trkpt lat="44.23662353451343" lon="9.710287648012537"><ele>109.0</ele><time>2026-04-22T07:01:17Z</time></trkpt><trkpt lat="44.236666335618914" lon="9.710039256301076"><ele>109.0</ele><time>2026-04-22T07:01:18Z</time></trkpt><trkpt lat="44.23670653790575" lon="9.709792158385328"><ele>109.0</ele><time>2026-04-22T07:01:19Z</time></trkpt><trkpt lat="44.236751978642005" lon="9.709551919390188"><ele>109.0</ele><time>2026-04-22T07:01:20Z</time></trkpt><trkpt lat="44.23679633646141" lon="9.709306935464813"><ele>109.0</ele><time>2026-04-22T07:01:21Z</time></trkpt><trkpt lat="44.23683984054177" lon="9.709056386716652"><ele>113.33333333333334</ele><time>2026-04-22T07:01:22Z</time></trkpt><trkpt lat="44.236884801227546" lon="9.708800736622155"><ele>117.66666666666666</ele><time>2026-04-22T07:01:23Z</time></trkpt><trkpt lat="44.236923802204586" lon="9.708555842265929"><ele>122.0</ele><time>2026-04-22T07:01:24Z</time></trkpt><trkpt lat="44.23696379607309" lon="9.70832142891478"><ele>126.33333333333333</ele><time>2026-04-22T07:01:25Z</time></trkpt><trkpt lat="44.23700643050528" lon="9.7080844252276"><ele>130.66666666666666</ele><time>2026-04-22T07:01:26Z</time></trkpt><trkpt lat="44.237048587911495" lon="9.707847080631264"><ele>135.0</ele><time>2026-04-22T07:01:27Z</time></trkpt><trkpt lat="44.23709143574309" lon="9.707602571842196"><ele>138.0</ele><time>2026-04-22T07:01:28Z</time></trkpt><trkpt lat="44.237134400783766" lon="9.707360897882436"><ele>141.0</ele><time>2026-04-22T07:01:29Z</time></trkpt><trkpt lat="44.23717727901438" lon="9.707105870014207"><ele>144.0</ele><time>2026-04-22T07:01:30Z</time></trkpt><trkpt lat="44.237222882815075" lon="9.706840314894423"><ele>148.66666666666666</ele><time>2026-04-22T07:01:31Z</time></trkpt><trkpt lat="44.237269303827794" lon="9.706569610083072"><ele>153.33333333333331</ele><time>2026-04-22T07:01:32Z</time></trkpt><trkpt lat="44.2373461415403" lon="9.706251628535679"><ele>158.0</ele><time>2026-04-22T07:01:33Z</time></trkpt><trkpt lat="44.237424332043965" lon="9.705943833717672"><ele>174.5</ele><time>2026-04-22T07:01:34Z</time></trkpt><trkpt lat="44.23750584964069" lon="9.705636552708738"><ele>191.0</ele><time>2026-04-22T07:01:35Z</time></trkpt><trkpt lat="44.23758684917295" lon="9.705332921996444"><ele>205.0</ele><time>2026-04-22T07:01:36Z</time></trkpt><trkpt lat="44.23766533024055" lon="9.705032541163911"><ele>219.0</ele><time>2026-04-22T07:01:36.999Z</time></trkpt><trkpt lat="44.237743630907026" lon="9.704739980763382"><ele>219.0</ele><time>2026-04-22T07:01:38.072Z</time></trkpt><trkpt lat="44.23783768703528" lon="9.704421586538082"><ele>219.0</ele><time>2026-04-22T07:01:39.062Z</time></trkpt><trkpt lat="44.237929133955845" lon="9.704107631026726"><ele>233.5</ele><time>2026-04-22T07:01:40.063Z</time></trkpt><trkpt lat="44.238018132655704" lon="9.703802630806"><ele>248.0</ele><time>2026-04-22T07:01:41.058Z</time></trkpt><trkpt lat="44.237667066936055" lon="9.699132205998115"><ele>227.33333333333334</ele><time>2026-04-22T07:01:57.999Z</time></trkpt><trkpt lat="44.23763191165308" lon="9.698871695514812"><ele>206.66666666666669</ele><time>2026-04-22T07:01:58.999Z</time></trkpt><trkpt lat="44.23759431632878" lon="9.698583258306849"><ele>186.0</ele><time>2026-04-22T07:01:59.999Z</time></trkpt><trkpt lat="44.237602088884685" lon="9.69839796300662"><ele>180.0</ele><time>2026-04-22T07:02:00.999Z</time></trkpt><trkpt lat="44.2375926590655" lon="9.698151307834266"><ele>174.0</ele><time>2026-04-22T07:02:01.999Z</time></trkpt><trkpt lat="44.23757868306705" lon="9.69789407208934"><ele>168.0</ele><time>2026-04-22T07:02:02.999Z</time></trkpt><trkpt lat="44.23757820518282" lon="9.697642990102452"><ele>168.0</ele><time>2026-04-22T07:02:03.999Z</time></trkpt><trkpt lat="44.23758436502228" lon="9.697393238337291"><ele>168.0</ele><time>2026-04-22T07:02:04.999Z</time></trkpt><trkpt lat="44.23759539768808" lon="9.69714536474912"><ele>168.0</ele><time>2026-04-22T07:02:05.999Z</time></trkpt><trkpt lat="44.23761106263941" lon="9.696900982441102"><ele>168.0</ele><time>2026-04-22T07:02:06.999Z</time></trkpt><trkpt lat="44.23763971934846" lon="9.696656716242295"><ele>168.0</ele><time>2026-04-22T07:02:07.999Z</time></trkpt><trkpt lat="44.23766922150021" lon="9.69639769704034"><ele>168.0</ele><time>2026-04-22T07:02:08.999Z</time></trkpt><trkpt lat="44.23770659903002" lon="9.69615372477872"><ele>170.66666666666666</ele><time>2026-04-22T07:02:09.999Z</time></trkpt><trkpt lat="44.23774577693853" lon="9.695923973343515"><ele>173.33333333333331</ele><time>2026-04-22T07:02:10.999Z</time></trkpt><trkpt lat="44.23778995327176" lon="9.695703854139387"><ele>176.0</ele><time>2026-04-22T07:02:11.999Z</time></trkpt><trkpt lat="44.23784212423503" lon="9.695483857297823"><ele>176.0</ele><time>2026-04-22T07:02:12.999Z</time></trkpt><trkpt lat="44.23790160887644" lon="9.695266511280607"><ele>176.0</ele><time>2026-04-22T07:02:13.999Z</time></trkpt><trkpt lat="44.23797269415769" lon="9.695053079400253"><ele>176.0</ele><time>2026-04-22T07:02:14.999Z</time></trkpt><trkpt lat="44.238034459638605" lon="9.694837986273882"><ele>174.66666666666666</ele><time>2026-04-22T07:02:15.999Z</time></trkpt><trkpt lat="44.23811531387978" lon="9.694622353505705"><ele>173.33333333333334</ele><time>2026-04-22T07:02:16.999Z</time></trkpt><trkpt lat="44.238205616859275" lon="9.694407101706508"><ele>172.0</ele><time>2026-04-22T07:02:17.999Z</time></trkpt><trkpt lat="44.23829813029358" lon="9.694188599014828"><ele>172.0</ele><time>2026-04-22T07:02:18.999Z</time></trkpt><trkpt lat="44.238393854200076" lon="9.693985715137227"><ele>172.0</ele><time>2026-04-22T07:02:19.999Z</time></trkpt><trkpt lat="44.23849814116849" lon="9.693786087956328"><ele>172.0</ele><time>2026-04-22T07:02:20.999Z</time></trkpt><trkpt lat="44.238608743559126" lon="9.693592381224521"><ele>173.66666666666669</ele><time>2026-04-22T07:02:21.999Z</time></trkpt><trkpt lat="44.23872103830654" lon="9.693399477265352"><ele>175.33333333333334</ele><time>2026-04-22T07:02:22.999Z</time></trkpt><trkpt lat="44.23884562273828" lon="9.693214825029115"><ele>177.0</ele><time>2026-04-22T07:02:23.999Z</time></trkpt><trkpt lat="44.23897400682933" lon="9.69303239697618"><ele>177.0</ele><time>2026-04-22T07:02:24.999Z</time></trkpt><trkpt lat="44.23909898435865" lon="9.692855788105053"><ele>177.0</ele><time>2026-04-22T07:02:25.999Z</time></trkpt><trkpt lat="44.2392203769734" lon="9.692662822200736"><ele>177.0</ele><time>2026-04-22T07:02:26.999Z</time></trkpt><trkpt lat="44.239356757729624" lon="9.692481451838674"><ele>182.0</ele><time>2026-04-22T07:02:27.999Z</time></trkpt><trkpt lat="44.239508337340716" lon="9.69231413483415"><ele>187.0</ele><time>2026-04-22T07:02:28.999Z</time></trkpt><trkpt lat="44.239653598700855" lon="9.692131462381964"><ele>192.0</ele><time>2026-04-22T07:02:29.999Z</time></trkpt><trkpt lat="44.23981743859156" lon="9.691922470572594"><ele>197.0</ele><time>2026-04-22T07:02:30.999Z</time></trkpt><trkpt lat="44.23998348583297" lon="9.69172486657699"><ele>202.0</ele><time>2026-04-22T07:02:31.999Z</time></trkpt><trkpt lat="44.24119811043671" lon="9.68879723306963"><ele>269.0</ele><time>2026-04-22T07:02:39.53Z</time></trkpt><trkpt lat="44.241333999909735" lon="9.687564153764018"><ele>246.0</ele><time>2026-04-22T07:02:40.528Z</time></trkpt><trkpt lat="44.241291077881975" lon="9.686314108488792"><ele>246.0</ele><time>2026-04-22T07:02:41.529Z</time></trkpt><trkpt lat="44.2412777" lon="9.6861899"><ele>246.0</ele><time>2026-04-22T07:02:42.529Z</time></trkpt><trkpt lat="44.2411074381776" lon="9.68523918952661"><ele>224.0</ele><time>2026-04-22T07:02:52.998Z</time></trkpt><trkpt lat="44.24105858872175" lon="9.684890436845688"><ele>202.0</ele><time>2026-04-22T07:02:53.998Z</time></trkpt><trkpt lat="44.241010605784325" lon="9.684589019108879"><ele>201.0</ele><time>2026-04-22T07:02:54.998Z</time></trkpt><trkpt lat="44.24091074185675" lon="9.684187112233298"><ele>200.0</ele><time>2026-04-22T07:02:55.998Z</time></trkpt><trkpt lat="44.24086365967346" lon="9.683820295579082"><ele>198.5</ele><time>2026-04-22T07:02:56.998Z</time></trkpt><trkpt lat="44.24078680475763" lon="9.683447476096122"><ele>197.0</ele><time>2026-04-22T07:02:57.998Z</time></trkpt><trkpt lat="44.24071699586775" lon="9.683036269846427"><ele>196.0</ele><time>2026-04-22T07:02:59Z</time></trkpt><trkpt lat="44.24065426788787" lon="9.682652843981101"><ele>195.0</ele><time>2026-04-22T07:03:00Z</time></trkpt><trkpt lat="44.240592549393675" lon="9.682294050834091"><ele>206.0</ele><time>2026-04-22T07:03:01Z</time></trkpt><trkpt lat="44.24054524986498" lon="9.681956515426396"><ele>217.0</ele><time>2026-04-22T07:03:02Z</time></trkpt><trkpt lat="44.2404941505789" lon="9.681634737598715"><ele>217.0</ele><time>2026-04-22T07:03:03Z</time></trkpt><trkpt lat="44.24043398089695" lon="9.681298207126895"><ele>217.0</ele><time>2026-04-22T07:03:04Z</time></trkpt><trkpt lat="44.240371513938015" lon="9.6809706747786"><ele>217.0</ele><time>2026-04-22T07:03:05Z</time></trkpt><trkpt lat="44.240304400804234" lon="9.680636290768316"><ele>217.0</ele><time>2026-04-22T07:03:06Z</time></trkpt><trkpt lat="44.24022979682638" lon="9.680311277777998"><ele>215.5</ele><time>2026-04-22T07:03:07Z</time></trkpt><trkpt lat="44.24015012580082" lon="9.679982923508925"><ele>214.0</ele><time>2026-04-22T07:03:08Z</time></trkpt><trkpt lat="44.24007120260415" lon="9.679650734532405"><ele>205.5</ele><time>2026-04-22T07:03:09Z</time></trkpt><trkpt lat="44.239982091374955" lon="9.67932426556427"><ele>197.0</ele><time>2026-04-22T07:03:10Z</time></trkpt><trkpt lat="44.23988893579603" lon="9.67898750862272"><ele>214.0</ele><time>2026-04-22T07:03:11Z</time></trkpt><trkpt lat="44.239794426652104" lon="9.678658056990006"><ele>231.0</ele><time>2026-04-22T07:03:12Z</time></trkpt><trkpt lat="44.23969444537264" lon="9.678331554857111"><ele>231.0</ele><time>2026-04-22T07:03:13Z</time></trkpt><trkpt lat="44.23959243550679" lon="9.678009503859403"><ele>231.0</ele><time>2026-04-22T07:03:14Z</time></trkpt><trkpt lat="44.23948613959279" lon="9.677690601739286"><ele>233.0</ele><time>2026-04-22T07:03:15Z</time></trkpt><trkpt lat="44.23938616499791" lon="9.677378495805952"><ele>235.0</ele><time>2026-04-22T07:03:16Z</time></trkpt><trkpt lat="44.23929095054142" lon="9.677070657879364"><ele>239.0</ele><time>2026-04-22T07:03:17Z</time></trkpt><trkpt lat="44.2392073080717" lon="9.676748566618103"><ele>243.0</ele><time>2026-04-22T07:03:18Z</time></trkpt><trkpt lat="44.23911576701006" lon="9.676422743301446"><ele>244.5</ele><time>2026-04-22T07:03:19Z</time></trkpt><trkpt lat="44.239027141165934" lon="9.676090299141723"><ele>246.0</ele><time>2026-04-22T07:03:20Z</time></trkpt><trkpt lat="44.238935491444096" lon="9.675761046192427"><ele>264.0</ele><time>2026-04-22T07:03:21Z</time></trkpt><trkpt lat="44.23885359509823" lon="9.675414992461382"><ele>282.0</ele><time>2026-04-22T07:03:22Z</time></trkpt><trkpt lat="44.23875935376607" lon="9.675053801988874"><ele>283.5</ele><time>2026-04-22T07:03:23.069Z</time></trkpt><trkpt lat="44.23867592145574" lon="9.674719263486796"><ele>285.0</ele><time>2026-04-22T07:03:24.058Z</time></trkpt><trkpt lat="44.238632168103635" lon="9.67436982199542"><ele>290.0</ele><time>2026-04-22T07:03:25.057Z</time></trkpt><trkpt lat="44.238592672027124" lon="9.67402516022373"><ele>295.0</ele><time>2026-04-22T07:03:26.057Z</time></trkpt><trkpt lat="44.238603733797866" lon="9.67120589773331"><ele>307.0</ele><time>2026-04-22T07:03:29.528Z</time></trkpt><trkpt lat="44.23866513879913" lon="9.669957103006714"><ele>268.0</ele><time>2026-04-22T07:03:30.528Z</time></trkpt><trkpt lat="44.23863111493158" lon="9.668706610599273"><ele>220.0</ele><time>2026-04-22T07:03:31.528Z</time></trkpt><trkpt lat="44.238355711674274" lon="9.667125553265985"><ele>215.5</ele><time>2026-04-22T07:03:45Z</time></trkpt><trkpt lat="44.23837417572737" lon="9.66677445595098"><ele>211.0</ele><time>2026-04-22T07:03:46Z</time></trkpt><trkpt lat="44.23827514756306" lon="9.666438581215928"><ele>211.0</ele><time>2026-04-22T07:03:46.999Z</time></trkpt><trkpt lat="44.23819887823799" lon="9.666113521984988"><ele>211.0</ele><time>2026-04-22T07:03:47.999Z</time></trkpt><trkpt lat="44.23808833205021" lon="9.665788019960205"><ele>212.5</ele><time>2026-04-22T07:03:48.999Z</time></trkpt><trkpt lat="44.237976081632326" lon="9.665458559401365"><ele>214.0</ele><time>2026-04-22T07:03:49.999Z</time></trkpt><trkpt lat="44.23784963397828" lon="9.665124503385215"><ele>214.0</ele><time>2026-04-22T07:03:50.999Z</time></trkpt><trkpt lat="44.237721246995996" lon="9.664798490674508"><ele>214.0</ele><time>2026-04-22T07:03:51.999Z</time></trkpt><trkpt lat="44.23758897273438" lon="9.664457810381881"><ele>206.5</ele><time>2026-04-22T07:03:52.999Z</time></trkpt><trkpt lat="44.237451371465056" lon="9.664115532129465"><ele>199.0</ele><time>2026-04-22T07:03:53.999Z</time></trkpt><trkpt lat="44.237314340961326" lon="9.663775213406792"><ele>198.0</ele><time>2026-04-22T07:03:54.999Z</time></trkpt><trkpt lat="44.23717739014414" lon="9.663441010096982"><ele>197.0</ele><time>2026-04-22T07:03:55.999Z</time></trkpt><trkpt lat="44.23704584587167" lon="9.663114353391089"><ele>197.0</ele><time>2026-04-22T07:03:56.999Z</time></trkpt><trkpt lat="44.236921023009856" lon="9.662799288997943"><ele>197.0</ele><time>2026-04-22T07:03:57.999Z</time></trkpt><trkpt lat="44.236799236749256" lon="9.662486383939733"><ele>198.0</ele><time>2026-04-22T07:03:58.999Z</time></trkpt><trkpt lat="44.2366817238054" lon="9.662171766770285"><ele>199.0</ele><time>2026-04-22T07:03:59.999Z</time></trkpt><trkpt lat="44.23657173104292" lon="9.66185441404306"><ele>202.5</ele><time>2026-04-22T07:04:00.999Z</time></trkpt><trkpt lat="44.23647167207965" lon="9.661536336695917"><ele>206.0</ele><time>2026-04-22T07:04:01.999Z</time></trkpt><trkpt lat="44.23637372966891" lon="9.66122143236363"><ele>216.5</ele><time>2026-04-22T07:04:02.999Z</time></trkpt><trkpt lat="44.23628060374934" lon="9.660904930600813"><ele>227.0</ele><time>2026-04-22T07:04:03.999Z</time></trkpt><trkpt lat="44.23619646228751" lon="9.660575897557337"><ele>232.5</ele><time>2026-04-22T07:04:04.999Z</time></trkpt><trkpt lat="44.236119381459936" lon="9.660236393954367"><ele>238.0</ele><time>2026-04-22T07:04:05.999Z</time></trkpt><trkpt lat="44.236046373219295" lon="9.659897625363525"><ele>238.0</ele><time>2026-04-22T07:04:06.999Z</time></trkpt><trkpt lat="44.235972811362025" lon="9.659562957584514"><ele>238.0</ele><time>2026-04-22T07:04:07.999Z</time></trkpt><trkpt lat="44.235899175240206" lon="9.659226991307952"><ele>244.5</ele><time>2026-04-22T07:04:08.999Z</time></trkpt><trkpt lat="44.23581938911736" lon="9.658858782699385"><ele>251.0</ele><time>2026-04-22T07:04:10.06Z</time></trkpt><trkpt lat="44.23574907385619" lon="9.658512825755562"><ele>256.0</ele><time>2026-04-22T07:04:11.063Z</time></trkpt><trkpt lat="44.23567919714191" lon="9.65816743478863"><ele>261.0</ele><time>2026-04-22T07:04:12.058Z</time></trkpt><trkpt lat="44.235634737660384" lon="9.657818966467268"><ele>271.5</ele><time>2026-04-22T07:04:13.051Z</time></trkpt><trkpt lat="44.23560079806002" lon="9.657468961346158"><ele>282.0</ele><time>2026-04-22T07:04:14.05Z</time></trkpt><trkpt lat="44.23557274435255" lon="9.657123060877563"><ele>237.0</ele><time>2026-04-22T07:04:15.044Z</time></trkpt><trkpt lat="44.235461089738806" lon="9.654123780973144"><ele>237.0</ele><time>2026-04-22T07:04:22.999Z</time></trkpt><trkpt lat="44.23535625400519" lon="9.653761521811258"><ele>237.0</ele><time>2026-04-22T07:04:23.999Z</time></trkpt><trkpt lat="44.23564506507875" lon="9.6533615409971"><ele>225.5</ele><time>2026-04-22T07:04:24.999Z</time></trkpt><trkpt lat="44.235752430966556" lon="9.653010004788207"><ele>214.0</ele><time>2026-04-22T07:04:25.999Z</time></trkpt><trkpt lat="44.235810895520046" lon="9.652630671303475"><ele>214.0</ele><time>2026-04-22T07:04:26.999Z</time></trkpt><trkpt lat="44.23586890542042" lon="9.65226145857847"><ele>214.0</ele><time>2026-04-22T07:04:27.999Z</time></trkpt><trkpt lat="44.235935536640085" lon="9.651903604939848"><ele>217.0</ele><time>2026-04-22T07:04:28.999Z</time></trkpt><trkpt lat="44.2359942242953" lon="9.651553025063468"><ele>220.0</ele><time>2026-04-22T07:04:29.999Z</time></trkpt><trkpt lat="44.236045944186515" lon="9.651202299649565"><ele>222.5</ele><time>2026-04-22T07:04:30.999Z</time></trkpt><trkpt lat="44.23608409282835" lon="9.650862546068845"><ele>225.0</ele><time>2026-04-22T07:04:31.999Z</time></trkpt><trkpt lat="44.23611597701798" lon="9.650523143039742"><ele>231.0</ele><time>2026-04-22T07:04:32.999Z</time></trkpt><trkpt lat="44.23613716438063" lon="9.650185996396015"><ele>237.0</ele><time>2026-04-22T07:04:33.999Z</time></trkpt><trkpt lat="44.23614701776209" lon="9.649845333438966"><ele>237.0</ele><time>2026-04-22T07:04:34.999Z</time></trkpt><trkpt lat="44.236145052884865" lon="9.649512031614323"><ele>237.0</ele><time>2026-04-22T07:04:35.999Z</time></trkpt><trkpt lat="44.23613528433444" lon="9.64918016154562"><ele>237.5</ele><time>2026-04-22T07:04:36.999Z</time></trkpt><trkpt lat="44.23611671128614" lon="9.648846107189327"><ele>238.0</ele><time>2026-04-22T07:04:37.999Z</time></trkpt><trkpt lat="44.23609124925326" lon="9.648518558907487"><ele>238.0</ele><time>2026-04-22T07:04:38.999Z</time></trkpt><trkpt lat="44.23605216763445" lon="9.648187358711073"><ele>238.0</ele><time>2026-04-22T07:04:39.999Z</time></trkpt><trkpt lat="44.235999215524274" lon="9.64785393524717"><ele>236.0</ele><time>2026-04-22T07:04:40.999Z</time></trkpt><trkpt lat="44.235936356317666" lon="9.647520342474298"><ele>234.0</ele><time>2026-04-22T07:04:41.999Z</time></trkpt><trkpt lat="44.23586482383489" lon="9.647186969636653"><ele>243.5</ele><time>2026-04-22T07:04:42.999Z</time></trkpt><trkpt lat="44.235783265133925" lon="9.64685232535946"><ele>253.0</ele><time>2026-04-22T07:04:43.999Z</time></trkpt><trkpt lat="44.23569447556619" lon="9.646526238027127"><ele>275.5</ele><time>2026-04-22T07:04:44.999Z</time></trkpt><trkpt lat="44.23559928476339" lon="9.646211051020305"><ele>298.0</ele><time>2026-04-22T07:04:45.999Z</time></trkpt><trkpt lat="44.23550272134012" lon="9.645890493992649"><ele>306.5</ele><time>2026-04-22T07:04:46.999Z</time></trkpt><trkpt lat="44.23540607363065" lon="9.645571911191283"><ele>315.0</ele><time>2026-04-22T07:04:47.999Z</time></trkpt><trkpt lat="44.235309952959796" lon="9.645256276913992"><ele>315.0</ele><time>2026-04-22T07:04:48.999Z</time></trkpt><trkpt lat="44.235184676448405" lon="9.64495610190358"><ele>315.0</ele><time>2026-04-22T07:04:49.999Z</time></trkpt><trkpt lat="44.23506065859381" lon="9.644642262075934"><ele>302.5</ele><time>2026-04-22T07:04:51.073Z</time></trkpt><trkpt lat="44.234940871665394" lon="9.644339128756826"><ele>290.0</ele><time>2026-04-22T07:04:52.066Z</time></trkpt><trkpt lat="44.234833998640646" lon="9.644068675233125"><ele>288.6666666666667</ele><time>2026-04-22T07:04:53.057Z</time></trkpt><trkpt lat="44.2347095579875" lon="9.643753765314647"><ele>287.3333333333333</ele><time>2026-04-22T07:04:54.053Z</time></trkpt><trkpt lat="44.23462029019804" lon="9.643527863266797"><ele>286.0</ele><time>2026-04-22T07:04:55.045Z</time></trkpt><trkpt lat="44.23450627595838" lon="9.643239338252261"><ele>266.5</ele><time>2026-04-22T07:04:56.028Z</time></trkpt><trkpt lat="44.23437886655807" lon="9.642913424141648"><ele>247.0</ele><time>2026-04-22T07:04:57.026Z</time></trkpt><trkpt lat="44.23424084345344" lon="9.642333395161307"><ele>237.0</ele><time>2026-04-22T07:04:58.999Z</time></trkpt><trkpt lat="44.23407189239874" lon="9.642158585828444"><ele>227.0</ele><time>2026-04-22T07:04:59.999Z</time></trkpt><trkpt lat="44.23394931822853" lon="9.641867457151287"><ele>224.0</ele><time>2026-04-22T07:05:00.999Z</time></trkpt><trkpt lat="44.23385327070391" lon="9.641555850740868"><ele>221.0</ele><time>2026-04-22T07:05:01.998Z</time></trkpt><trkpt lat="44.23375894814665" lon="9.641249359626553"><ele>213.0</ele><time>2026-04-22T07:05:02.998Z</time></trkpt><trkpt lat="44.233671103891744" lon="9.6409422704658"><ele>205.0</ele><time>2026-04-22T07:05:03.998Z</time></trkpt><trkpt lat="44.23359218110406" lon="9.640640720328523"><ele>205.0</ele><time>2026-04-22T07:05:05Z</time></trkpt><trkpt lat="44.23351842700102" lon="9.640345148242377"><ele>205.0</ele><time>2026-04-22T07:05:06Z</time></trkpt><trkpt lat="44.233446890478504" lon="9.640056258375612"><ele>205.0</ele><time>2026-04-22T07:05:07Z</time></trkpt><trkpt lat="44.233381405696754" lon="9.639766909799398"><ele>206.0</ele><time>2026-04-22T07:05:08Z</time></trkpt><trkpt lat="44.23331838149357" lon="9.63947455929045"><ele>207.0</ele><time>2026-04-22T07:05:09Z</time></trkpt><trkpt lat="44.23325814588634" lon="9.639176667730558"><ele>208.0</ele><time>2026-04-22T07:05:10Z</time></trkpt><trkpt lat="44.23319986906843" lon="9.63887811966822"><ele>216.33333333333331</ele><time>2026-04-22T07:05:11Z</time></trkpt><trkpt lat="44.23314782949773" lon="9.638592975722178"><ele>224.66666666666669</ele><time>2026-04-22T07:05:12Z</time></trkpt><trkpt lat="44.23309883445805" lon="9.638326646552432"><ele>233.0</ele><time>2026-04-22T07:05:13Z</time></trkpt><trkpt lat="44.233045691582724" lon="9.63805344769857"><ele>241.33333333333334</ele><time>2026-04-22T07:05:14Z</time></trkpt><trkpt lat="44.23299094271522" lon="9.637766176978927"><ele>249.66666666666669</ele><time>2026-04-22T07:05:15Z</time></trkpt><trkpt lat="44.232935485663155" lon="9.637476182732346"><ele>258.0</ele><time>2026-04-22T07:05:16Z</time></trkpt><trkpt lat="44.23287863299469" lon="9.637186022667294"><ele>260.6666666666667</ele><time>2026-04-22T07:05:17Z</time></trkpt><trkpt lat="44.232819814169716" lon="9.63689637594043"><ele>263.33333333333337</ele><time>2026-04-22T07:05:18Z</time></trkpt><trkpt lat="44.2327599589276" lon="9.636606312683368"><ele>266.0</ele><time>2026-04-22T07:05:19Z</time></trkpt><trkpt lat="44.232701414621694" lon="9.63631680650203"><ele>266.0</ele><time>2026-04-22T07:05:20Z</time></trkpt><trkpt lat="44.23263715068651" lon="9.636030631024179"><ele>266.0</ele><time>2026-04-22T07:05:21Z</time></trkpt><trkpt lat="44.23257022902091" lon="9.635747014911392"><ele>266.0</ele><time>2026-04-22T07:05:22Z</time></trkpt><trkpt lat="44.232501758710356" lon="9.6354702662898"><ele>264.33333333333337</ele><time>2026-04-22T07:05:23Z</time></trkpt><trkpt lat="44.23243127817013" lon="9.635192704318344"><ele>262.6666666666667</ele><time>2026-04-22T07:05:24Z</time></trkpt><trkpt lat="44.23235987423563" lon="9.634916885868805"><ele>261.0</ele><time>2026-04-22T07:05:25Z</time></trkpt><trkpt lat="44.23228605200787" lon="9.634644954732947"><ele>268.6666666666667</ele><time>2026-04-22T07:05:26Z</time></trkpt><trkpt lat="44.23220930572697" lon="9.634375212906546"><ele>276.33333333333337</ele><time>2026-04-22T07:05:27Z</time></trkpt><trkpt lat="44.23213057158373" lon="9.634108225660661"><ele>284.0</ele><time>2026-04-22T07:05:28Z</time></trkpt><trkpt lat="44.23204961770616" lon="9.633845716858424"><ele>281.6666666666667</ele><time>2026-04-22T07:05:29Z</time></trkpt><trkpt lat="44.231968643102064" lon="9.6335843737168"><ele>279.3333333333333</ele><time>2026-04-22T07:05:30Z</time></trkpt><trkpt lat="44.23188484491889" lon="9.633323929113363"><ele>277.0</ele><time>2026-04-22T07:05:31Z</time></trkpt><trkpt lat="44.23179862700842" lon="9.633068048228182"><ele>277.0</ele><time>2026-04-22T07:05:32Z</time></trkpt><trkpt lat="44.23171263783816" lon="9.632816701347378"><ele>277.0</ele><time>2026-04-22T07:05:33Z</time></trkpt><trkpt lat="44.231623541194864" lon="9.632562836191662"><ele>277.0</ele><time>2026-04-22T07:05:34Z</time></trkpt><trkpt lat="44.231530889837714" lon="9.63230998187294"><ele>285.0</ele><time>2026-04-22T07:05:35Z</time></trkpt><trkpt lat="44.23143361000053" lon="9.63205589501448"><ele>293.0</ele><time>2026-04-22T07:05:36Z</time></trkpt><trkpt lat="44.231335513122616" lon="9.631803028893135"><ele>301.0</ele><time>2026-04-22T07:05:37Z</time></trkpt><trkpt lat="44.2312342826871" lon="9.631545622272633"><ele>301.0</ele><time>2026-04-22T07:05:38Z</time></trkpt><trkpt lat="44.23112980137039" lon="9.63128849359732"><ele>301.0</ele><time>2026-04-22T07:05:39Z</time></trkpt><trkpt lat="44.231025281585815" lon="9.631027873587177"><ele>301.0</ele><time>2026-04-22T07:05:40Z</time></trkpt><trkpt lat="44.23092329287872" lon="9.630768775140911"><ele>302.3333333333333</ele><time>2026-04-22T07:05:41Z</time></trkpt><trkpt lat="44.230822242183294" lon="9.630513472760976"><ele>303.6666666666667</ele><time>2026-04-22T07:05:42Z</time></trkpt><trkpt lat="44.23072001942835" lon="9.630261945802443"><ele>305.0</ele><time>2026-04-22T07:05:43Z</time></trkpt><trkpt lat="44.230620377904565" lon="9.630008039507485"><ele>305.0</ele><time>2026-04-22T07:05:44Z</time></trkpt><trkpt lat="44.230521755605494" lon="9.629755091255326"><ele>305.0</ele><time>2026-04-22T07:05:45Z</time></trkpt><trkpt lat="44.23042470088432" lon="9.629506715087564"><ele>305.0</ele><time>2026-04-22T07:05:46Z</time></trkpt><trkpt lat="44.23033126466384" lon="9.629261082716017"><ele>300.33333333333337</ele><time>2026-04-22T07:05:47Z</time></trkpt><trkpt lat="44.23023972703633" lon="9.629013860086983"><ele>295.6666666666667</ele><time>2026-04-22T07:05:48Z</time></trkpt><trkpt lat="44.23015250450075" lon="9.628764316059062"><ele>291.0</ele><time>2026-04-22T07:05:49Z</time></trkpt><trkpt lat="44.230068409482016" lon="9.628511977498937"><ele>287.3333333333333</ele><time>2026-04-22T07:05:50Z</time></trkpt><trkpt lat="44.229988970567994" lon="9.62825577480069"><ele>283.66666666666663</ele><time>2026-04-22T07:05:51Z</time></trkpt><trkpt lat="44.22991785623731" lon="9.627995397279543"><ele>280.0</ele><time>2026-04-22T07:05:51.999Z</time></trkpt><trkpt lat="44.22984969950896" lon="9.627729367444832"><ele>292.66666666666663</ele><time>2026-04-22T07:05:52.999Z</time></trkpt><trkpt lat="44.22978532706429" lon="9.627461144490457"><ele>305.3333333333333</ele><time>2026-04-22T07:05:53.999Z</time></trkpt><trkpt lat="44.22972826789383" lon="9.627186070923734"><ele>318.0</ele><time>2026-04-22T07:05:54.999Z</time></trkpt><trkpt lat="44.229676720755585" lon="9.626908181441408"><ele>318.0</ele><time>2026-04-22T07:05:55.999Z</time></trkpt><trkpt lat="44.22963269031822" lon="9.626627967188536"><ele>318.0</ele><time>2026-04-22T07:05:56.999Z</time></trkpt><trkpt lat="44.22959298547649" lon="9.626345997820497"><ele>318.0</ele><time>2026-04-22T07:05:57.999Z</time></trkpt><trkpt lat="44.22955938149874" lon="9.626060741869527"><ele>317.0</ele><time>2026-04-22T07:05:58.999Z</time></trkpt><trkpt lat="44.229534880180964" lon="9.625774920800378"><ele>316.0</ele><time>2026-04-22T07:05:59.999Z</time></trkpt><trkpt lat="44.22951773082839" lon="9.625492030738512"><ele>315.0</ele><time>2026-04-22T07:06:00.999Z</time></trkpt><trkpt lat="44.229504063443095" lon="9.625210933771971"><ele>312.3333333333333</ele><time>2026-04-22T07:06:01.999Z</time></trkpt><trkpt lat="44.22949231245006" lon="9.62492942795219"><ele>309.66666666666663</ele><time>2026-04-22T07:06:02.999Z</time></trkpt><trkpt lat="44.22948509876868" lon="9.624651268792508"><ele>307.0</ele><time>2026-04-22T07:06:03.999Z</time></trkpt><trkpt lat="44.229480005764344" lon="9.624371360164051"><ele>301.3333333333333</ele><time>2026-04-22T07:06:04.999Z</time></trkpt><trkpt lat="44.22947149105537" lon="9.624093327527664"><ele>295.6666666666667</ele><time>2026-04-22T07:06:05.999Z</time></trkpt><trkpt lat="44.22945928799686" lon="9.623811385593955"><ele>290.0</ele><time>2026-04-22T07:06:06.999Z</time></trkpt><trkpt lat="44.22944665635162" lon="9.623523146816582"><ele>290.0</ele><time>2026-04-22T07:06:07.999Z</time></trkpt><trkpt lat="44.22942540659178" lon="9.623228241623519"><ele>290.0</ele><time>2026-04-22T07:06:08.999Z</time></trkpt><trkpt lat="44.22940084827572" lon="9.62293776230004"><ele>290.0</ele><time>2026-04-22T07:06:09.999Z</time></trkpt><trkpt lat="44.22937147112453" lon="9.622653518950088"><ele>292.0</ele><time>2026-04-22T07:06:10.999Z</time></trkpt><trkpt lat="44.22933579652184" lon="9.622380357191462"><ele>294.0</ele><time>2026-04-22T07:06:11.999Z</time></trkpt><trkpt lat="44.22929551248953" lon="9.62211153943038"><ele>296.0</ele><time>2026-04-22T07:06:12.999Z</time></trkpt><trkpt lat="44.22925184594019" lon="9.621849683049225"><ele>296.0</ele><time>2026-04-22T07:06:13.999Z</time></trkpt><trkpt lat="44.229202771977086" lon="9.621592193286046"><ele>296.0</ele><time>2026-04-22T07:06:14.999Z</time></trkpt><trkpt lat="44.22914936953076" lon="9.621339990172828"><ele>296.0</ele><time>2026-04-22T07:06:15.999Z</time></trkpt><trkpt lat="44.22908881236217" lon="9.621089962373707"><ele>294.33333333333337</ele><time>2026-04-22T07:06:16.999Z</time></trkpt><trkpt lat="44.229025114787795" lon="9.620841211256378"><ele>292.6666666666667</ele><time>2026-04-22T07:06:17.999Z</time></trkpt><trkpt lat="44.22895864757877" lon="9.620595051571852"><ele>291.0</ele><time>2026-04-22T07:06:18.999Z</time></trkpt><trkpt lat="44.22889004702663" lon="9.62035352064645"><ele>301.0</ele><time>2026-04-22T07:06:19.999Z</time></trkpt><trkpt lat="44.22881982636756" lon="9.620115327862583"><ele>311.0</ele><time>2026-04-22T07:06:20.999Z</time></trkpt><trkpt lat="44.228748287985056" lon="9.619873900405233"><ele>321.0</ele><time>2026-04-22T07:06:21.999Z</time></trkpt><trkpt lat="44.2286736888471" lon="9.619636675356404"><ele>319.3333333333333</ele><time>2026-04-22T07:06:22.999Z</time></trkpt><trkpt lat="44.22860393803018" lon="9.61940769385787"><ele>317.66666666666663</ele><time>2026-04-22T07:06:23.999Z</time></trkpt><trkpt lat="44.22853720874859" lon="9.61918235037326"><ele>316.0</ele><time>2026-04-22T07:06:24.999Z</time></trkpt><trkpt lat="44.228472867360736" lon="9.618959035972537"><ele>316.0</ele><time>2026-04-22T07:06:25.999Z</time></trkpt><trkpt lat="44.2283865660276" lon="9.618697496921794"><ele>316.0</ele><time>2026-04-22T07:06:26.999Z</time></trkpt><trkpt lat="44.22831650666909" lon="9.61845708027892"><ele>316.0</ele><time>2026-04-22T07:06:27.999Z</time></trkpt><trkpt lat="44.22824940662092" lon="9.618215554524465"><ele>316.0</ele><time>2026-04-22T07:06:28.999Z</time></trkpt><trkpt lat="44.22818612327451" lon="9.617971685772218"><ele>316.0</ele><time>2026-04-22T07:06:29.999Z</time></trkpt><trkpt lat="44.22813052756366" lon="9.617728852189005"><ele>316.0</ele><time>2026-04-22T07:06:30.999Z</time></trkpt><trkpt lat="44.22807974063436" lon="9.617482342343761"><ele>316.0</ele><time>2026-04-22T07:06:31.999Z</time></trkpt><trkpt lat="44.22803386088923" lon="9.617234201955414"><ele>316.0</ele><time>2026-04-22T07:06:32.999Z</time></trkpt><trkpt lat="44.2279946002494" lon="9.616985658746867"><ele>316.0</ele><time>2026-04-22T07:06:33.999Z</time></trkpt><trkpt lat="44.22795900989147" lon="9.61673583152989"><ele>316.66666666666663</ele><time>2026-04-22T07:06:34.999Z</time></trkpt><trkpt lat="44.2279247377104" lon="9.61648517910854"><ele>317.3333333333333</ele><time>2026-04-22T07:06:35.999Z</time></trkpt><trkpt lat="44.22789261242195" lon="9.616235094996616"><ele>318.0</ele><time>2026-04-22T07:06:36.999Z</time></trkpt><trkpt lat="44.22786756828758" lon="9.615982398017522"><ele>318.0</ele><time>2026-04-22T07:06:37.999Z</time></trkpt><trkpt lat="44.22784990090947" lon="9.615729050572833"><ele>318.0</ele><time>2026-04-22T07:06:38.999Z</time></trkpt><trkpt lat="44.22783865006509" lon="9.615476046189782"><ele>318.0</ele><time>2026-04-22T07:06:39.999Z</time></trkpt><trkpt lat="44.227830125535874" lon="9.615223376258239"><ele>326.3333333333333</ele><time>2026-04-22T07:06:40.999Z</time></trkpt><trkpt lat="44.227830028974196" lon="9.614967947737952"><ele>334.66666666666663</ele><time>2026-04-22T07:06:41.999Z</time></trkpt><trkpt lat="44.22783607068004" lon="9.61471037707808"><ele>343.0</ele><time>2026-04-22T07:06:42.999Z</time></trkpt><trkpt lat="44.22784855122024" lon="9.614448138906935"><ele>351.66666666666663</ele><time>2026-04-22T07:06:43.999Z</time></trkpt><trkpt lat="44.227865275269785" lon="9.61418121364443"><ele>360.3333333333333</ele><time>2026-04-22T07:06:44.999Z</time></trkpt><trkpt lat="44.22788706100083" lon="9.613911570779583"><ele>369.0</ele><time>2026-04-22T07:06:45.999Z</time></trkpt><trkpt lat="44.22791184234444" lon="9.613630824921362"><ele>378.66666666666663</ele><time>2026-04-22T07:06:46.999Z</time></trkpt><trkpt lat="44.227945096090636" lon="9.61331378578416"><ele>388.3333333333333</ele><time>2026-04-22T07:06:48.071Z</time></trkpt><trkpt lat="44.22798037611861" lon="9.61301244847751"><ele>398.0</ele><time>2026-04-22T07:06:49.057Z</time></trkpt><trkpt lat="44.228022913810904" lon="9.612706327749892"><ele>333.0</ele><time>2026-04-22T07:06:50.055Z</time></trkpt><trkpt lat="44.228783865315215" lon="9.61024563922052"><ele>330.0</ele><time>2026-04-22T07:07:00.343Z</time></trkpt><trkpt lat="44.22905318756193" lon="9.609606166705785"><ele>321.5</ele><time>2026-04-22T07:07:01.999Z</time></trkpt><trkpt lat="44.229188791423894" lon="9.609332471865574"><ele>313.0</ele><time>2026-04-22T07:07:02.999Z</time></trkpt><trkpt lat="44.229317628939086" lon="9.609027608726528"><ele>313.0</ele><time>2026-04-22T07:07:03.998Z</time></trkpt><trkpt lat="44.22947228306045" lon="9.608751419039013"><ele>313.0</ele><time>2026-04-22T07:07:04.998Z</time></trkpt><trkpt lat="44.229646317059796" lon="9.608455297572961"><ele>314.5</ele><time>2026-04-22T07:07:05.998Z</time></trkpt><trkpt lat="44.229822273869175" lon="9.60815699391185"><ele>316.0</ele><time>2026-04-22T07:07:06.998Z</time></trkpt><trkpt lat="44.229985549519" lon="9.607878579342364"><ele>324.0</ele><time>2026-04-22T07:07:07.998Z</time></trkpt><trkpt lat="44.23014731924596" lon="9.607600291864442"><ele>332.0</ele><time>2026-04-22T07:07:08.998Z</time></trkpt><trkpt lat="44.23030638299005" lon="9.607322004320418"><ele>332.0</ele><time>2026-04-22T07:07:09.998Z</time></trkpt><trkpt lat="44.2304584195671" lon="9.607037674239834"><ele>332.0</ele><time>2026-04-22T07:07:11Z</time></trkpt><trkpt lat="44.23061042250989" lon="9.606762857985073"><ele>319.5</ele><time>2026-04-22T07:07:12Z</time></trkpt><trkpt lat="44.23076553248341" lon="9.60648797002002"><ele>307.0</ele><time>2026-04-22T07:07:13Z</time></trkpt><trkpt lat="44.23091906474519" lon="9.606218969723061"><ele>309.0</ele><time>2026-04-22T07:07:14Z</time></trkpt><trkpt lat="44.23106902344128" lon="9.605949323629051"><ele>311.0</ele><time>2026-04-22T07:07:15Z</time></trkpt><trkpt lat="44.231216855884625" lon="9.60568689713"><ele>311.0</ele><time>2026-04-22T07:07:16Z</time></trkpt><trkpt lat="44.23136816655919" lon="9.605416503488787"><ele>311.0</ele><time>2026-04-22T07:07:17Z</time></trkpt><trkpt lat="44.23151718541013" lon="9.605157284120684"><ele>322.0</ele><time>2026-04-22T07:07:18Z</time></trkpt><trkpt lat="44.23166984923855" lon="9.60489318307356"><ele>333.0</ele><time>2026-04-22T07:07:19Z</time></trkpt><trkpt lat="44.23183057987575" lon="9.604630927749907"><ele>345.0</ele><time>2026-04-22T07:07:20Z</time></trkpt><trkpt lat="44.231997980834315" lon="9.604378877993348"><ele>357.0</ele><time>2026-04-22T07:07:21Z</time></trkpt><trkpt lat="44.232168580106496" lon="9.604134166531365"><ele>346.5</ele><time>2026-04-22T07:07:22Z</time></trkpt><trkpt lat="44.23234761867429" lon="9.603901574067255"><ele>336.0</ele><time>2026-04-22T07:07:23Z</time></trkpt><trkpt lat="44.23253695084313" lon="9.603673854509422"><ele>343.0</ele><time>2026-04-22T07:07:24Z</time></trkpt><trkpt lat="44.23273284335852" lon="9.603452509451992"><ele>350.0</ele><time>2026-04-22T07:07:25Z</time></trkpt><trkpt lat="44.23293353506441" lon="9.60323758470577"><ele>353.5</ele><time>2026-04-22T07:07:26Z</time></trkpt><trkpt lat="44.23314352711217" lon="9.603028347653705"><ele>357.0</ele><time>2026-04-22T07:07:27Z</time></trkpt><trkpt lat="44.233365029946995" lon="9.60284142358803"><ele>359.0</ele><time>2026-04-22T07:07:28Z</time></trkpt><trkpt lat="44.23358961370865" lon="9.602669481780994"><ele>361.0</ele><time>2026-04-22T07:07:29Z</time></trkpt><trkpt lat="44.23381030645229" lon="9.602497126157864"><ele>382.0</ele><time>2026-04-22T07:07:30Z</time></trkpt><trkpt lat="44.23403374526351" lon="9.602324656557753"><ele>403.0</ele><time>2026-04-22T07:07:31Z</time></trkpt><trkpt lat="44.234241760725915" lon="9.602122801530646"><ele>401.5</ele><time>2026-04-22T07:07:32Z</time></trkpt><trkpt lat="44.234453056382726" lon="9.601928956981146"><ele>400.0</ele><time>2026-04-22T07:07:33Z</time></trkpt><trkpt lat="44.234679201292586" lon="9.601721489567428"><ele>405.5</ele><time>2026-04-22T07:07:34.066Z</time></trkpt><trkpt lat="44.23488852724716" lon="9.601528331283195"><ele>411.0</ele><time>2026-04-22T07:07:35.059Z</time></trkpt><trkpt lat="44.23510095492504" lon="9.601331130260819"><ele>408.0</ele><time>2026-04-22T07:07:36.059Z</time></trkpt><trkpt lat="44.23531754233585" lon="9.60113006773231"><ele>405.0</ele><time>2026-04-22T07:07:37.057Z</time></trkpt><trkpt lat="44.235964996445105" lon="9.60036592343618"><ele>378.0</ele><time>2026-04-22T07:07:40Z</time></trkpt><trkpt lat="44.2361739373653" lon="9.600168641868153"><ele>351.0</ele><time>2026-04-22T07:07:41Z</time></trkpt><trkpt lat="44.23642565311055" lon="9.599984144578698"><ele>345.0</ele><time>2026-04-22T07:07:42Z</time></trkpt><trkpt lat="44.23661442580009" lon="9.59977664115349"><ele>339.0</ele><time>2026-04-22T07:07:43Z</time></trkpt><trkpt lat="44.23679925853342" lon="9.599567084957604"><ele>346.0</ele><time>2026-04-22T07:07:44Z</time></trkpt><trkpt lat="44.23697278322164" lon="9.599349402792049"><ele>353.0</ele><time>2026-04-22T07:07:45Z</time></trkpt><trkpt lat="44.23714521463066" lon="9.599118382831499"><ele>346.0</ele><time>2026-04-22T07:07:46Z</time></trkpt><trkpt lat="44.23731219636082" lon="9.598891895189794"><ele>339.0</ele><time>2026-04-22T07:07:47Z</time></trkpt><trkpt lat="44.23747222361493" lon="9.598647898104181"><ele>339.0</ele><time>2026-04-22T07:07:48Z</time></trkpt><trkpt lat="44.23762583556525" lon="9.598401815082022"><ele>339.0</ele><time>2026-04-22T07:07:49Z</time></trkpt><trkpt lat="44.23777841728561" lon="9.59816257596755"><ele>339.0</ele><time>2026-04-22T07:07:50Z</time></trkpt><trkpt lat="44.23792107563823" lon="9.597914505564654"><ele>339.0</ele><time>2026-04-22T07:07:50.999Z</time></trkpt><trkpt lat="44.23805837336299" lon="9.59764668483827"><ele>334.5</ele><time>2026-04-22T07:07:51.999Z</time></trkpt><trkpt lat="44.23818885064435" lon="9.597382895409359"><ele>330.0</ele><time>2026-04-22T07:07:52.999Z</time></trkpt><trkpt lat="44.238311269818595" lon="9.597116970667772"><ele>333.5</ele><time>2026-04-22T07:07:53.999Z</time></trkpt><trkpt lat="44.23843238596743" lon="9.59685326593777"><ele>337.0</ele><time>2026-04-22T07:07:54.999Z</time></trkpt><trkpt lat="44.23854780405761" lon="9.596573908947638"><ele>337.0</ele><time>2026-04-22T07:07:55.999Z</time></trkpt><trkpt lat="44.23865491364519" lon="9.59629770007049"><ele>337.0</ele><time>2026-04-22T07:07:56.999Z</time></trkpt><trkpt lat="44.23875829185834" lon="9.596004574628596"><ele>338.5</ele><time>2026-04-22T07:07:57.999Z</time></trkpt><trkpt lat="44.23886753626596" lon="9.595707998824272"><ele>340.0</ele><time>2026-04-22T07:07:58.999Z</time></trkpt><trkpt lat="44.23896234227358" lon="9.595400405065668"><ele>343.0</ele><time>2026-04-22T07:07:59.999Z</time></trkpt><trkpt lat="44.23904768031844" lon="9.59509839843228"><ele>346.0</ele><time>2026-04-22T07:08:00.999Z</time></trkpt><trkpt lat="44.2391234244184" lon="9.594788412914246"><ele>346.5</ele><time>2026-04-22T07:08:01.999Z</time></trkpt><trkpt lat="44.239197884599264" lon="9.594478097401243"><ele>347.0</ele><time>2026-04-22T07:08:02.999Z</time></trkpt><trkpt lat="44.239262360819204" lon="9.594164219195978"><ele>347.0</ele><time>2026-04-22T07:08:03.999Z</time></trkpt><trkpt lat="44.239323101482775" lon="9.59384047266724"><ele>347.0</ele><time>2026-04-22T07:08:04.999Z</time></trkpt><trkpt lat="44.23937985402305" lon="9.59350757947536"><ele>350.0</ele><time>2026-04-22T07:08:05.999Z</time></trkpt><trkpt lat="44.23942746599399" lon="9.593166763582083"><ele>353.0</ele><time>2026-04-22T07:08:06.999Z</time></trkpt><trkpt lat="44.239470630083716" lon="9.592824926496657"><ele>363.5</ele><time>2026-04-22T07:08:07.999Z</time></trkpt><trkpt lat="44.23950342034537" lon="9.592475124071067"><ele>374.0</ele><time>2026-04-22T07:08:08.999Z</time></trkpt><trkpt lat="44.239545215919875" lon="9.5920966309793"><ele>389.5</ele><time>2026-04-22T07:08:09.999Z</time></trkpt><trkpt lat="44.239585963708784" lon="9.591721787689318"><ele>405.0</ele><time>2026-04-22T07:08:10.999Z</time></trkpt><trkpt lat="44.239627844321355" lon="9.591367684815197"><ele>414.0</ele><time>2026-04-22T07:08:11.999Z</time></trkpt><trkpt lat="44.23961259099869" lon="9.591021479855886"><ele>423.0</ele><time>2026-04-22T07:08:12.999Z</time></trkpt><trkpt lat="44.23961087532004" lon="9.59065851227245"><ele>430.0</ele><time>2026-04-22T07:08:13.999Z</time></trkpt><trkpt lat="44.23960902943236" lon="9.590267997322684"><ele>437.0</ele><time>2026-04-22T07:08:15.064Z</time></trkpt><trkpt lat="44.239652503960464" lon="9.589912316165211"><ele>437.0</ele><time>2026-04-22T07:08:16.059Z</time></trkpt><trkpt lat="44.23963956415142" lon="9.589554801502809"><ele>437.0</ele><time>2026-04-22T07:08:17.059Z</time></trkpt><trkpt lat="44.239626324793605" lon="9.589198149750414"><ele>439.0</ele><time>2026-04-22T07:08:18.056Z</time></trkpt><trkpt lat="44.23961894108819" lon="9.588844678642268"><ele>441.0</ele><time>2026-04-22T07:08:19.049Z</time></trkpt><trkpt lat="44.239615379939835" lon="9.588489802238948"><ele>446.0</ele><time>2026-04-22T07:08:20.049Z</time></trkpt><trkpt lat="44.23955835896025" lon="9.588142274051712"><ele>451.0</ele><time>2026-04-22T07:08:21.018Z</time></trkpt><trkpt lat="44.23984565098093" lon="9.570793416420416"><ele>393.5</ele><time>2026-04-22T07:09:04.999Z</time></trkpt><trkpt lat="44.23996360036826" lon="9.570470388645427"><ele>336.0</ele><time>2026-04-22T07:09:05.998Z</time></trkpt><trkpt lat="44.24009099677669" lon="9.57016623182806"><ele>328.5</ele><time>2026-04-22T07:09:06.998Z</time></trkpt><trkpt lat="44.240233068443935" lon="9.569854463641164"><ele>321.0</ele><time>2026-04-22T07:09:07.998Z</time></trkpt><trkpt lat="44.2403890210219" lon="9.569550571767403"><ele>324.5</ele><time>2026-04-22T07:09:08.998Z</time></trkpt><trkpt lat="44.240537420384655" lon="9.569255078827497"><ele>328.0</ele><time>2026-04-22T07:09:09.998Z</time></trkpt><trkpt lat="44.240687890992795" lon="9.568965493231332"><ele>325.0</ele><time>2026-04-22T07:09:10.998Z</time></trkpt><trkpt lat="44.24084561698871" lon="9.568691158166075"><ele>322.0</ele><time>2026-04-22T07:09:11.998Z</time></trkpt><trkpt lat="44.24099806942641" lon="9.568440355290454"><ele>322.0</ele><time>2026-04-22T07:09:12.998Z</time></trkpt><trkpt lat="44.24115189366007" lon="9.568191367381411"><ele>322.0</ele><time>2026-04-22T07:09:13.998Z</time></trkpt><trkpt lat="44.241299230235086" lon="9.567945777780102"><ele>324.5</ele><time>2026-04-22T07:09:14.998Z</time></trkpt><trkpt lat="44.2414452729689" lon="9.567705906260338"><ele>327.0</ele><time>2026-04-22T07:09:15.998Z</time></trkpt><trkpt lat="44.24158314630877" lon="9.56745044698819"><ele>340.0</ele><time>2026-04-22T07:09:17Z</time></trkpt><trkpt lat="44.24172845433065" lon="9.567200415477041"><ele>353.0</ele><time>2026-04-22T07:09:18Z</time></trkpt><trkpt lat="44.24187151687839" lon="9.566953140432886"><ele>369.0</ele><time>2026-04-22T07:09:19Z</time></trkpt><trkpt lat="44.24201552196439" lon="9.566706632901342"><ele>385.0</ele><time>2026-04-22T07:09:20Z</time></trkpt><trkpt lat="44.242161864766636" lon="9.566457617757155"><ele>420.5</ele><time>2026-04-22T07:09:21Z</time></trkpt><trkpt lat="44.24232600900017" lon="9.566190504438968"><ele>456.0</ele><time>2026-04-22T07:09:22.058Z</time></trkpt><trkpt lat="44.24247081781675" lon="9.565940869252147"><ele>374.0</ele><time>2026-04-22T07:09:23.047Z</time></trkpt><trkpt lat="44.24357199146016" lon="9.562556806574555"><ele>327.0</ele><time>2026-04-22T07:09:36.358Z</time></trkpt><trkpt lat="44.242931117751056" lon="9.561300019829902"><ele>312.0</ele><time>2026-04-22T07:09:37Z</time></trkpt><trkpt lat="44.24290309480754" lon="9.560988136745827"><ele>297.0</ele><time>2026-04-22T07:09:38Z</time></trkpt><trkpt lat="44.24288806229551" lon="9.56067403042366"><ele>297.0</ele><time>2026-04-22T07:09:39Z</time></trkpt><trkpt lat="44.24286127664638" lon="9.56037155953001"><ele>297.0</ele><time>2026-04-22T07:09:40Z</time></trkpt><trkpt lat="44.24283110625212" lon="9.560066213584852"><ele>297.0</ele><time>2026-04-22T07:09:41Z</time></trkpt><trkpt lat="44.2427945982691" lon="9.559749216620537"><ele>284.0</ele><time>2026-04-22T07:09:42Z</time></trkpt><trkpt lat="44.24275055611582" lon="9.559415458484722"><ele>271.0</ele><time>2026-04-22T07:09:43Z</time></trkpt><trkpt lat="44.24271032723673" lon="9.559089215993405"><ele>271.0</ele><time>2026-04-22T07:09:44Z</time></trkpt><trkpt lat="44.242669649499476" lon="9.558765343624822"><ele>271.0</ele><time>2026-04-22T07:09:45Z</time></trkpt><trkpt lat="44.24263003125534" lon="9.558438218393055"><ele>283.0</ele><time>2026-04-22T07:09:46Z</time></trkpt><trkpt lat="44.242588988314814" lon="9.55811205468887"><ele>295.0</ele><time>2026-04-22T07:09:47Z</time></trkpt><trkpt lat="44.24254628086691" lon="9.557783910577305"><ele>308.0</ele><time>2026-04-22T07:09:48Z</time></trkpt><trkpt lat="44.242518223034836" lon="9.557458306984804"><ele>321.0</ele><time>2026-04-22T07:09:49Z</time></trkpt><trkpt lat="44.24247497181588" lon="9.557128841669133"><ele>341.0</ele><time>2026-04-22T07:09:49.999Z</time></trkpt><trkpt lat="44.24243989688937" lon="9.556788387516235"><ele>361.0</ele><time>2026-04-22T07:09:51Z</time></trkpt><trkpt lat="44.24210997940665" lon="9.554391897780198"><ele>386.0</ele><time>2026-04-22T07:09:58.053Z</time></trkpt><trkpt lat="44.24206520377046" lon="9.55405419973806"><ele>411.0</ele><time>2026-04-22T07:09:59.054Z</time></trkpt><trkpt lat="44.24202045187783" lon="9.553716802921743"><ele>362.0</ele><time>2026-04-22T07:10:00.053Z</time></trkpt><trkpt lat="44.24220386418867" lon="9.550899604830287"><ele>352.0</ele><time>2026-04-22T07:10:03.521Z</time></trkpt><trkpt lat="44.242399001896175" lon="9.549676400404033"><ele>312.0</ele><time>2026-04-22T07:10:04.522Z</time></trkpt><trkpt lat="44.24267915289585" lon="9.548324184977188"><ele>312.0</ele><time>2026-04-22T07:10:14.999Z</time></trkpt><trkpt lat="44.242816881759275" lon="9.547998359856736"><ele>312.0</ele><time>2026-04-22T07:10:15.999Z</time></trkpt><trkpt lat="44.242950468546525" lon="9.547689445809054"><ele>306.5</ele><time>2026-04-22T07:10:16.999Z</time></trkpt><trkpt lat="44.24307388685174" lon="9.547397494097384"><ele>301.0</ele><time>2026-04-22T07:10:17.999Z</time></trkpt><trkpt lat="44.2432194584926" lon="9.547101188105241"><ele>309.0</ele><time>2026-04-22T07:10:18.999Z</time></trkpt><trkpt lat="44.2433369408709" lon="9.546769100806143"><ele>317.0</ele><time>2026-04-22T07:10:19.999Z</time></trkpt><trkpt lat="44.243472341101814" lon="9.546449098839988"><ele>317.0</ele><time>2026-04-22T07:10:20.999Z</time></trkpt><trkpt lat="44.24355245767766" lon="9.546267649883884"><ele>317.0</ele><time>2026-04-22T07:10:21.999Z</time></trkpt><trkpt lat="44.24359965463701" lon="9.546025860498704"><ele>317.0</ele><time>2026-04-22T07:10:22.999Z</time></trkpt><trkpt lat="44.24372786733612" lon="9.545744155323488"><ele>313.6666666666667</ele><time>2026-04-22T07:10:23.999Z</time></trkpt><trkpt lat="44.2438500654626" lon="9.545483110957784"><ele>310.3333333333333</ele><time>2026-04-22T07:10:24.999Z</time></trkpt><trkpt lat="44.243963558698034" lon="9.545224046764266"><ele>307.0</ele><time>2026-04-22T07:10:25.999Z</time></trkpt><trkpt lat="44.244076182774606" lon="9.544960335750977"><ele>305.3333333333333</ele><time>2026-04-22T07:10:26.999Z</time></trkpt><trkpt lat="44.24419398138456" lon="9.544711650154628"><ele>303.6666666666667</ele><time>2026-04-22T07:10:27.999Z</time></trkpt><trkpt lat="44.24429909040183" lon="9.544468367514705"><ele>302.0</ele><time>2026-04-22T07:10:28.999Z</time></trkpt><trkpt lat="44.24440433896383" lon="9.544215973596382"><ele>295.0</ele><time>2026-04-22T07:10:29.999Z</time></trkpt><trkpt lat="44.244512710239015" lon="9.543955838035146"><ele>288.0</ele><time>2026-04-22T07:10:30.999Z</time></trkpt><trkpt lat="44.24461220136276" lon="9.543690848363791"><ele>281.0</ele><time>2026-04-22T07:10:31.999Z</time></trkpt><trkpt lat="44.24470642229532" lon="9.543419714538079"><ele>281.6666666666667</ele><time>2026-04-22T07:10:32.999Z</time></trkpt><trkpt lat="44.24479706995559" lon="9.543140902920056"><ele>282.3333333333333</ele><time>2026-04-22T07:10:33.999Z</time></trkpt><trkpt lat="44.244885389126296" lon="9.542862140359944"><ele>283.0</ele><time>2026-04-22T07:10:34.999Z</time></trkpt><trkpt lat="44.24496211292666" lon="9.542569522737594"><ele>279.0</ele><time>2026-04-22T07:10:35.999Z</time></trkpt><trkpt lat="44.245036284131956" lon="9.542275539990882"><ele>275.0</ele><time>2026-04-22T07:10:36.999Z</time></trkpt><trkpt lat="44.24510055053086" lon="9.541979568164946"><ele>271.0</ele><time>2026-04-22T07:10:37.999Z</time></trkpt><trkpt lat="44.24516355709568" lon="9.541677793446832"><ele>271.0</ele><time>2026-04-22T07:10:38.999Z</time></trkpt><trkpt lat="44.24522059298431" lon="9.541372285225135"><ele>271.0</ele><time>2026-04-22T07:10:39.999Z</time></trkpt><trkpt lat="44.24527352334027" lon="9.541063648963485"><ele>279.5</ele><time>2026-04-22T07:10:40.999Z</time></trkpt><trkpt lat="44.24532623392735" lon="9.540745559491356"><ele>288.0</ele><time>2026-04-22T07:10:41.999Z</time></trkpt><trkpt lat="44.24538298288632" lon="9.54042820505461"><ele>288.5</ele><time>2026-04-22T07:10:42.999Z</time></trkpt><trkpt lat="44.24544146785762" lon="9.540103449147466"><ele>289.0</ele><time>2026-04-22T07:10:43.999Z</time></trkpt><trkpt lat="44.24549741355553" lon="9.539777082461669"><ele>285.5</ele><time>2026-04-22T07:10:44.999Z</time></trkpt><trkpt lat="44.24555573928047" lon="9.53944249883239"><ele>282.0</ele><time>2026-04-22T07:10:45.999Z</time></trkpt><trkpt lat="44.245614373373975" lon="9.539094263426941"><ele>299.5</ele><time>2026-04-22T07:10:46.999Z</time></trkpt><trkpt lat="44.24567237001226" lon="9.538752698610262"><ele>317.0</ele><time>2026-04-22T07:10:47.999Z</time></trkpt><trkpt lat="44.2457287762193" lon="9.538415329931354"><ele>317.0</ele><time>2026-04-22T07:10:48.999Z</time></trkpt><trkpt lat="44.24578480765556" lon="9.538082272102187"><ele>317.0</ele><time>2026-04-22T07:10:49.999Z</time></trkpt><trkpt lat="44.24584375890173" lon="9.537739273374449"><ele>327.0</ele><time>2026-04-22T07:10:50.999Z</time></trkpt><trkpt lat="44.245904983814334" lon="9.53739062251669"><ele>337.0</ele><time>2026-04-22T07:10:51.999Z</time></trkpt><trkpt lat="44.24597298865321" lon="9.537034271833964"><ele>352.5</ele><time>2026-04-22T07:10:52.999Z</time></trkpt><trkpt lat="44.24603992520838" lon="9.536681834468606"><ele>368.0</ele><time>2026-04-22T07:10:53.999Z</time></trkpt><trkpt lat="44.24610441780874" lon="9.536334205863916"><ele>385.0</ele><time>2026-04-22T07:10:54.999Z</time></trkpt><trkpt lat="44.24617071732296" lon="9.53598310357102"><ele>402.0</ele><time>2026-04-22T07:10:55.999Z</time></trkpt><trkpt lat="44.24623806328726" lon="9.535615214459222"><ele>421.0</ele><time>2026-04-22T07:10:57.066Z</time></trkpt><trkpt lat="44.2462871352978" lon="9.535260632797339"><ele>440.0</ele><time>2026-04-22T07:10:58.057Z</time></trkpt><trkpt lat="44.246648437572496" lon="9.532485627174587"><ele>545.0</ele><time>2026-04-22T07:11:01.521Z</time></trkpt><trkpt lat="44.24686198051164" lon="9.531139885241615"><ele>573.0</ele><time>2026-04-22T07:11:02.522Z</time></trkpt><trkpt lat="44.247071897757515" lon="9.52979479883489"><ele>577.0</ele><time>2026-04-22T07:11:03.522Z</time></trkpt><trkpt lat="44.247285736273554" lon="9.528451971737814"><ele>527.0</ele><time>2026-04-22T07:11:04.52Z</time></trkpt><trkpt lat="44.24749311949945" lon="9.527103597788377"><ele>449.0</ele><time>2026-04-22T07:11:05.522Z</time></trkpt><trkpt lat="44.247694650818076" lon="9.525756969069635"><ele>418.0</ele><time>2026-04-22T07:11:06.52Z</time></trkpt><trkpt lat="44.2477999" lon="9.5251465"><ele>280.0</ele><time>2026-04-22T07:11:07.522Z</time></trkpt><trkpt lat="44.24930161811877" lon="9.520452647671215"><ele>274.0</ele><time>2026-04-22T07:11:40.998Z</time></trkpt><trkpt lat="44.24943025034808" lon="9.520196668876423"><ele>268.0</ele><time>2026-04-22T07:11:41.998Z</time></trkpt><trkpt lat="44.2496555719888" lon="9.519956076399147"><ele>267.5</ele><time>2026-04-22T07:11:42.998Z</time></trkpt><trkpt lat="44.24981153148239" lon="9.51969578321608"><ele>267.0</ele><time>2026-04-22T07:11:43.998Z</time></trkpt><trkpt lat="44.249957392269806" lon="9.519427531795642"><ele>267.0</ele><time>2026-04-22T07:11:44.998Z</time></trkpt><trkpt lat="44.25010003613103" lon="9.519166474740045"><ele>267.0</ele><time>2026-04-22T07:11:45.998Z</time></trkpt><trkpt lat="44.2502431240898" lon="9.518902978505423"><ele>260.0</ele><time>2026-04-22T07:11:47Z</time></trkpt><trkpt lat="44.25038442781353" lon="9.518633304203634"><ele>253.0</ele><time>2026-04-22T07:11:48Z</time></trkpt><trkpt lat="44.250526283247126" lon="9.51836321174527"><ele>251.0</ele><time>2026-04-22T07:11:49Z</time></trkpt><trkpt lat="44.25067143913572" lon="9.518092362143694"><ele>249.0</ele><time>2026-04-22T07:11:50Z</time></trkpt><trkpt lat="44.25081587004675" lon="9.517819410516521"><ele>249.0</ele><time>2026-04-22T07:11:51Z</time></trkpt><trkpt lat="44.25096493926464" lon="9.517542184286745"><ele>249.0</ele><time>2026-04-22T07:11:52Z</time></trkpt><trkpt lat="44.251114998969946" lon="9.517267688580102"><ele>242.0</ele><time>2026-04-22T07:11:53Z</time></trkpt><trkpt lat="44.251261781072785" lon="9.516984567861797"><ele>235.0</ele><time>2026-04-22T07:11:54Z</time></trkpt><trkpt lat="44.251405347565665" lon="9.5167041167381"><ele>236.0</ele><time>2026-04-22T07:11:55Z</time></trkpt><trkpt lat="44.251550190806995" lon="9.516424925856652"><ele>237.0</ele><time>2026-04-22T07:11:56Z</time></trkpt><trkpt lat="44.25169828461935" lon="9.516148564299696"><ele>237.0</ele><time>2026-04-22T07:11:57Z</time></trkpt><trkpt lat="44.25184376117853" lon="9.515873194771128"><ele>237.0</ele><time>2026-04-22T07:11:58Z</time></trkpt><trkpt lat="44.25198618330002" lon="9.515595368711912"><ele>234.0</ele><time>2026-04-22T07:11:59Z</time></trkpt><trkpt lat="44.252125703749385" lon="9.515314029533393"><ele>231.0</ele><time>2026-04-22T07:12:00Z</time></trkpt><trkpt lat="44.25226135089962" lon="9.515031966330877"><ele>238.0</ele><time>2026-04-22T07:12:01Z</time></trkpt><trkpt lat="44.25239184365099" lon="9.51474613760226"><ele>245.0</ele><time>2026-04-22T07:12:02Z</time></trkpt><trkpt lat="44.25252028974079" lon="9.514463931514996"><ele>245.0</ele><time>2026-04-22T07:12:03Z</time></trkpt><trkpt lat="44.25264788723895" lon="9.514177861629928"><ele>245.0</ele><time>2026-04-22T07:12:04Z</time></trkpt><trkpt lat="44.252771135115076" lon="9.513892910570167"><ele>246.0</ele><time>2026-04-22T07:12:05Z</time></trkpt><trkpt lat="44.25288957360617" lon="9.5135991847363"><ele>247.0</ele><time>2026-04-22T07:12:06Z</time></trkpt><trkpt lat="44.253003997439336" lon="9.51329948399708"><ele>247.0</ele><time>2026-04-22T07:12:07Z</time></trkpt><trkpt lat="44.253116321763834" lon="9.513001982306958"><ele>247.0</ele><time>2026-04-22T07:12:08Z</time></trkpt><trkpt lat="44.25323525000415" lon="9.512701159783903"><ele>257.5</ele><time>2026-04-22T07:12:09Z</time></trkpt><trkpt lat="44.253354211998264" lon="9.512398983216439"><ele>268.0</ele><time>2026-04-22T07:12:10Z</time></trkpt><trkpt lat="44.2534721271325" lon="9.51209870958393"><ele>276.5</ele><time>2026-04-22T07:12:11Z</time></trkpt><trkpt lat="44.2535886776092" lon="9.51179735882487"><ele>285.0</ele><time>2026-04-22T07:12:12Z</time></trkpt><trkpt lat="44.25370766516762" lon="9.511491424416882"><ele>289.0</ele><time>2026-04-22T07:12:13Z</time></trkpt><trkpt lat="44.25383087185133" lon="9.511166105240088"><ele>293.0</ele><time>2026-04-22T07:12:14.063Z</time></trkpt><trkpt lat="44.25394553206687" lon="9.510862212441168"><ele>288.5</ele><time>2026-04-22T07:12:15.059Z</time></trkpt><trkpt lat="44.25406362484831" lon="9.510558123770064"><ele>284.0</ele><time>2026-04-22T07:12:16.062Z</time></trkpt><trkpt lat="44.254181962642704" lon="9.510258009899685"><ele>226.0</ele><time>2026-04-22T07:12:17.062Z</time></trkpt><trkpt lat="44.25435028920556" lon="9.507758900981255"><ele>226.0</ele><time>2026-04-22T07:12:23.999Z</time></trkpt><trkpt lat="44.25439988346747" lon="9.507402204910756"><ele>226.0</ele><time>2026-04-22T07:12:24.999Z</time></trkpt><trkpt lat="44.254445371121015" lon="9.507055415977485"><ele>228.0</ele><time>2026-04-22T07:12:25.999Z</time></trkpt><trkpt lat="44.254485057967884" lon="9.506694464402155"><ele>230.0</ele><time>2026-04-22T07:12:26.999Z</time></trkpt><trkpt lat="44.254530237672135" lon="9.506344057014104"><ele>225.5</ele><time>2026-04-22T07:12:27.999Z</time></trkpt><trkpt lat="44.2545754437994" lon="9.505995005950634"><ele>221.0</ele><time>2026-04-22T07:12:28.999Z</time></trkpt><trkpt lat="44.25462027392232" lon="9.505654406401472"><ele>215.5</ele><time>2026-04-22T07:12:29.999Z</time></trkpt><trkpt lat="44.25466589177928" lon="9.505323126538144"><ele>210.0</ele><time>2026-04-22T07:12:30.999Z</time></trkpt><trkpt lat="44.25470804438364" lon="9.505000936263437"><ele>210.0</ele><time>2026-04-22T07:12:31.999Z</time></trkpt><trkpt lat="44.254751187826834" lon="9.50468943898769"><ele>210.0</ele><time>2026-04-22T07:12:32.999Z</time></trkpt><trkpt lat="44.25479022072668" lon="9.504384509807261"><ele>210.0</ele><time>2026-04-22T07:12:33.999Z</time></trkpt><trkpt lat="44.25482848586796" lon="9.504073177651538"><ele>223.5</ele><time>2026-04-22T07:12:34.999Z</time></trkpt><trkpt lat="44.25486165273396" lon="9.503756648507853"><ele>237.0</ele><time>2026-04-22T07:12:35.999Z</time></trkpt><trkpt lat="44.25490160790017" lon="9.503431117999995"><ele>246.0</ele><time>2026-04-22T07:12:36.999Z</time></trkpt><trkpt lat="44.25493751844074" lon="9.50310263404533"><ele>255.0</ele><time>2026-04-22T07:12:37.999Z</time></trkpt><trkpt lat="44.254972360190855" lon="9.502777022155776"><ele>269.0</ele><time>2026-04-22T07:12:38.999Z</time></trkpt><trkpt lat="44.255008146506356" lon="9.502436637997103"><ele>283.0</ele><time>2026-04-22T07:12:39.999Z</time></trkpt><trkpt lat="44.25504387270894" lon="9.50209907852771"><ele>295.0</ele><time>2026-04-22T07:12:40.999Z</time></trkpt><trkpt lat="44.255081251587264" lon="9.501757170620342"><ele>307.0</ele><time>2026-04-22T07:12:41.999Z</time></trkpt><trkpt lat="44.25508798029079" lon="9.501396069857636"><ele>303.5</ele><time>2026-04-22T07:12:43.053Z</time></trkpt><trkpt lat="44.255096186865345" lon="9.501053066124513"><ele>300.0</ele><time>2026-04-22T07:12:44.047Z</time></trkpt><trkpt lat="44.25510176952932" lon="9.500707240081569"><ele>289.5</ele><time>2026-04-22T07:12:45.042Z</time></trkpt><trkpt lat="44.255102112339344" lon="9.500374106257645"><ele>279.0</ele><time>2026-04-22T07:12:46.045Z</time></trkpt><trkpt lat="44.2550986842097" lon="9.500045173113193"><ele>216.0</ele><time>2026-04-22T07:12:47.04Z</time></trkpt><trkpt lat="44.254995467168094" lon="9.497405956561156"><ele>215.0</ele><time>2026-04-22T07:12:53.999Z</time></trkpt><trkpt lat="44.25498156277821" lon="9.497060148791062"><ele>214.0</ele><time>2026-04-22T07:12:54.999Z</time></trkpt><trkpt lat="44.25494842312784" lon="9.496724200881848"><ele>214.0</ele><time>2026-04-22T07:12:55.999Z</time></trkpt><trkpt lat="44.254934015516795" lon="9.496365926394558"><ele>214.0</ele><time>2026-04-22T07:12:56.999Z</time></trkpt><trkpt lat="44.25492619342552" lon="9.495998623375122"><ele>210.0</ele><time>2026-04-22T07:12:57.999Z</time></trkpt><trkpt lat="44.25491160572369" lon="9.495634955145086"><ele>206.0</ele><time>2026-04-22T07:12:58.999Z</time></trkpt><trkpt lat="44.25490395062582" lon="9.495274548840763"><ele>206.0</ele><time>2026-04-22T07:12:59.999Z</time></trkpt><trkpt lat="44.25489396239271" lon="9.49492892453775"><ele>206.0</ele><time>2026-04-22T07:13:00.999Z</time></trkpt><trkpt lat="44.254881645913166" lon="9.494588952008336"><ele>218.0</ele><time>2026-04-22T07:13:01.999Z</time></trkpt><trkpt lat="44.254871049268445" lon="9.49425551925693"><ele>230.0</ele><time>2026-04-22T07:13:02.999Z</time></trkpt><trkpt lat="44.254857779096305" lon="9.493917900151999"><ele>231.0</ele><time>2026-04-22T07:13:03.999Z</time></trkpt><trkpt lat="44.25484365294602" lon="9.493577193357108"><ele>232.0</ele><time>2026-04-22T07:13:04.999Z</time></trkpt><trkpt lat="44.254827493334744" lon="9.493236126350153"><ele>221.5</ele><time>2026-04-22T07:13:05.999Z</time></trkpt><trkpt lat="44.25480775510284" lon="9.492891737458912"><ele>211.0</ele><time>2026-04-22T07:13:06.999Z</time></trkpt><trkpt lat="44.25478529365804" lon="9.492537598044995"><ele>211.0</ele><time>2026-04-22T07:13:07.999Z</time></trkpt><trkpt lat="44.254812200954916" lon="9.492196820313541"><ele>211.0</ele><time>2026-04-22T07:13:08.999Z</time></trkpt><trkpt lat="44.254826428029105" lon="9.492002327733292"><ele>211.0</ele><time>2026-04-22T07:13:09.999Z</time></trkpt><trkpt lat="44.25482338370207" lon="9.49167283502299"><ele>206.5</ele><time>2026-04-22T07:13:10.999Z</time></trkpt><trkpt lat="44.254834149415416" lon="9.491343084083029"><ele>202.0</ele><time>2026-04-22T07:13:11.999Z</time></trkpt><trkpt lat="44.25485800159051" lon="9.49102319219435"><ele>202.0</ele><time>2026-04-22T07:13:12.999Z</time></trkpt><trkpt lat="44.25489414062464" lon="9.490718930275749"><ele>202.0</ele><time>2026-04-22T07:13:13.999Z</time></trkpt><trkpt lat="44.254940233587966" lon="9.490417664464237"><ele>202.0</ele><time>2026-04-22T07:13:14.999Z</time></trkpt><trkpt lat="44.25499699979408" lon="9.490104689178773"><ele>196.5</ele><time>2026-04-22T07:13:15.999Z</time></trkpt><trkpt lat="44.255058121293416" lon="9.489792160075195"><ele>191.0</ele><time>2026-04-22T07:13:16.999Z</time></trkpt><trkpt lat="44.255127316212004" lon="9.489481947222455"><ele>184.0</ele><time>2026-04-22T07:13:17.999Z</time></trkpt><trkpt lat="44.25521596723522" lon="9.489169601171085"><ele>177.0</ele><time>2026-04-22T07:13:18.999Z</time></trkpt><trkpt lat="44.255314544600296" lon="9.488854672773085"><ele>181.5</ele><time>2026-04-22T07:13:19.999Z</time></trkpt><trkpt lat="44.25542168872337" lon="9.488554699562034"><ele>186.0</ele><time>2026-04-22T07:13:20.999Z</time></trkpt><trkpt lat="44.25553508639581" lon="9.488272818622839"><ele>202.5</ele><time>2026-04-22T07:13:21.999Z</time></trkpt><trkpt lat="44.25565591673185" lon="9.487999406025894"><ele>219.0</ele><time>2026-04-22T07:13:22.999Z</time></trkpt><trkpt lat="44.255763421229815" lon="9.487718921961338"><ele>228.5</ele><time>2026-04-22T07:13:23.999Z</time></trkpt><trkpt lat="44.25587322829875" lon="9.487441886139305"><ele>238.0</ele><time>2026-04-22T07:13:24.999Z</time></trkpt><trkpt lat="44.25600599182831" lon="9.487188305087642"><ele>243.5</ele><time>2026-04-22T07:13:25.999Z</time></trkpt><trkpt lat="44.256151347723836" lon="9.486954503045757"><ele>249.0</ele><time>2026-04-22T07:13:26.999Z</time></trkpt><trkpt lat="44.25646077765763" lon="9.486515870559066"><ele>257.6666666666667</ele><time>2026-04-22T07:13:29.066Z</time></trkpt><trkpt lat="44.25661421401337" lon="9.486326830228625"><ele>266.33333333333337</ele><time>2026-04-22T07:13:30.057Z</time></trkpt><trkpt lat="44.25677021014689" lon="9.486145482748086"><ele>275.0</ele><time>2026-04-22T07:13:31.059Z</time></trkpt><trkpt lat="44.257134184793806" lon="9.48577564624071"><ele>281.5</ele><time>2026-04-22T07:13:33.048Z</time></trkpt><trkpt lat="44.257297522782174" lon="9.485628445791084"><ele>288.0</ele><time>2026-04-22T07:13:34.024Z</time></trkpt><trkpt lat="44.25919734801203" lon="9.48470304449209"><ele>257.0</ele><time>2026-04-22T07:13:37.519Z</time></trkpt><trkpt lat="44.26008821197986" lon="9.484519963097341"><ele>212.0</ele><time>2026-04-22T07:13:38.519Z</time></trkpt><trkpt lat="44.2609373" lon="9.4843558"><ele>174.0</ele><time>2026-04-22T07:13:39.519Z</time></trkpt><trkpt lat="44.26176170476132" lon="9.484154345344574"><ele>174.0</ele><time>2026-04-22T07:13:51.998Z</time></trkpt><trkpt lat="44.26198604108172" lon="9.484112924100085"><ele>174.0</ele><time>2026-04-22T07:13:52.998Z</time></trkpt><trkpt lat="44.262276927529896" lon="9.484090930462992"><ele>170.0</ele><time>2026-04-22T07:13:53.998Z</time></trkpt><trkpt lat="44.26249779138928" lon="9.48402193127049"><ele>166.0</ele><time>2026-04-22T07:13:54.998Z</time></trkpt><trkpt lat="44.26272776085141" lon="9.483949223426844"><ele>166.0</ele><time>2026-04-22T07:13:55.998Z</time></trkpt><trkpt lat="44.26294254967043" lon="9.483863595601797"><ele>166.0</ele><time>2026-04-22T07:13:56.998Z</time></trkpt><trkpt lat="44.26313328169912" lon="9.483753128041249"><ele>166.0</ele><time>2026-04-22T07:13:58Z</time></trkpt><trkpt lat="44.263330424107835" lon="9.483640862379005"><ele>167.33333333333334</ele><time>2026-04-22T07:13:59Z</time></trkpt><trkpt lat="44.263517813075666" lon="9.483509468130862"><ele>168.66666666666666</ele><time>2026-04-22T07:14:00Z</time></trkpt><trkpt lat="44.26370864966227" lon="9.483373385778194"><ele>170.0</ele><time>2026-04-22T07:14:01Z</time></trkpt><trkpt lat="44.263892537729255" lon="9.483219655901607"><ele>162.66666666666666</ele><time>2026-04-22T07:14:02Z</time></trkpt><trkpt lat="44.26407575162184" lon="9.483053715218304"><ele>155.33333333333334</ele><time>2026-04-22T07:14:03Z</time></trkpt><trkpt lat="44.26425510669316" lon="9.482882676735825"><ele>148.0</ele><time>2026-04-22T07:14:04Z</time></trkpt><trkpt lat="44.26443667557375" lon="9.482697143801095"><ele>148.0</ele><time>2026-04-22T07:14:05Z</time></trkpt><trkpt lat="44.2646276010197" lon="9.48250193865515"><ele>148.0</ele><time>2026-04-22T07:14:06Z</time></trkpt><trkpt lat="44.26481463672574" lon="9.482306756847999"><ele>138.5</ele><time>2026-04-22T07:14:07Z</time></trkpt><trkpt lat="44.26499941604763" lon="9.482105914553573"><ele>129.0</ele><time>2026-04-22T07:14:08Z</time></trkpt><trkpt lat="44.26518696584465" lon="9.481899761356242"><ele>129.0</ele><time>2026-04-22T07:14:09Z</time></trkpt><trkpt lat="44.26537756875061" lon="9.481694165626092"><ele>129.0</ele><time>2026-04-22T07:14:10Z</time></trkpt><trkpt lat="44.265571997482745" lon="9.481486067452963"><ele>127.0</ele><time>2026-04-22T07:14:11Z</time></trkpt><trkpt lat="44.26576133289692" lon="9.481278354213734"><ele>125.0</ele><time>2026-04-22T07:14:12Z</time></trkpt><trkpt lat="44.26594386112113" lon="9.48107205155432"><ele>136.5</ele><time>2026-04-22T07:14:13Z</time></trkpt><trkpt lat="44.26613373995241" lon="9.480861998277303"><ele>148.0</ele><time>2026-04-22T07:14:14Z</time></trkpt><trkpt lat="44.26632522847199" lon="9.48064615636158"><ele>147.5</ele><time>2026-04-22T07:14:15Z</time></trkpt><trkpt lat="44.2665135701082" lon="9.480418898707146"><ele>147.0</ele><time>2026-04-22T07:14:16Z</time></trkpt><trkpt lat="44.26670000661604" lon="9.48017150499471"><ele>147.0</ele><time>2026-04-22T07:14:17Z</time></trkpt><trkpt lat="44.2668825603721" lon="9.479927040225054"><ele>147.0</ele><time>2026-04-22T07:14:18Z</time></trkpt><trkpt lat="44.267062388269906" lon="9.479683268109682"><ele>140.0</ele><time>2026-04-22T07:14:19Z</time></trkpt><trkpt lat="44.26723718308322" lon="9.479435360126446"><ele>133.0</ele><time>2026-04-22T07:14:20Z</time></trkpt><trkpt lat="44.267408321710526" lon="9.479177074878553"><ele>133.0</ele><time>2026-04-22T07:14:21Z</time></trkpt><trkpt lat="44.26757488364621" lon="9.478923531976939"><ele>133.0</ele><time>2026-04-22T07:14:22Z</time></trkpt><trkpt lat="44.26774062280975" lon="9.47866191366053"><ele>143.0</ele><time>2026-04-22T07:14:23Z</time></trkpt><trkpt lat="44.26790813260893" lon="9.478388971690558"><ele>153.0</ele><time>2026-04-22T07:14:24Z</time></trkpt><trkpt lat="44.268073008196176" lon="9.478115439620215"><ele>147.5</ele><time>2026-04-22T07:14:25Z</time></trkpt><trkpt lat="44.2682312292887" lon="9.477830893092225"><ele>142.0</ele><time>2026-04-22T07:14:26Z</time></trkpt><trkpt lat="44.26838608721567" lon="9.477549033629318"><ele>142.0</ele><time>2026-04-22T07:14:27Z</time></trkpt><trkpt lat="44.26854280161643" lon="9.47725485645945"><ele>142.0</ele><time>2026-04-22T07:14:28Z</time></trkpt><trkpt lat="44.26869708222753" lon="9.476960363043059"><ele>157.5</ele><time>2026-04-22T07:14:29Z</time></trkpt><trkpt lat="44.26885277731488" lon="9.47665810545932"><ele>173.0</ele><time>2026-04-22T07:14:30Z</time></trkpt><trkpt lat="44.269002068974004" lon="9.476375307150722"><ele>183.5</ele><time>2026-04-22T07:14:31Z</time></trkpt><trkpt lat="44.269155141394" lon="9.476072107127328"><ele>194.0</ele><time>2026-04-22T07:14:31.999Z</time></trkpt><trkpt lat="44.26931545081746" lon="9.475748506561777"><ele>194.0</ele><time>2026-04-22T07:14:33.063Z</time></trkpt><trkpt lat="44.26946766038831" lon="9.475448102090228"><ele>194.0</ele><time>2026-04-22T07:14:34.055Z</time></trkpt><trkpt lat="44.27075597060469" lon="9.472514569832162"><ele>182.33333333333334</ele><time>2026-04-22T07:14:44.719Z</time></trkpt><trkpt lat="44.27089934271659" lon="9.472157412301177"><ele>170.66666666666669</ele><time>2026-04-22T07:14:46.361Z</time></trkpt><trkpt lat="44.270952058125545" lon="9.472008819010583"><ele>159.0</ele><time>2026-04-22T07:14:47.017Z</time></trkpt><trkpt lat="44.27093327233796" lon="9.47092374677763"><ele>140.33333333333334</ele><time>2026-04-22T07:14:48.999Z</time></trkpt><trkpt lat="44.27086911169747" lon="9.470632366182958"><ele>121.66666666666667</ele><time>2026-04-22T07:14:49.999Z</time></trkpt><trkpt lat="44.27094382852046" lon="9.470338838476394"><ele>103.0</ele><time>2026-04-22T07:14:50.999Z</time></trkpt><trkpt lat="44.27099954921755" lon="9.470038654021625"><ele>103.0</ele><time>2026-04-22T07:14:51.999Z</time></trkpt><trkpt lat="44.27109128012143" lon="9.469762179384215"><ele>103.0</ele><time>2026-04-22T07:14:52.999Z</time></trkpt><trkpt lat="44.27113856275756" lon="9.4694656814288"><ele>103.0</ele><time>2026-04-22T07:14:53.999Z</time></trkpt><trkpt lat="44.27116412357796" lon="9.46915663127914"><ele>110.0</ele><time>2026-04-22T07:14:54.999Z</time></trkpt><trkpt lat="44.27118131089347" lon="9.468843359146344"><ele>117.0</ele><time>2026-04-22T07:14:55.999Z</time></trkpt><trkpt lat="44.27119238105198" lon="9.468530210794778"><ele>124.0</ele><time>2026-04-22T07:14:56.999Z</time></trkpt><trkpt lat="44.27119606169485" lon="9.468210270714694"><ele>121.0</ele><time>2026-04-22T07:14:57.999Z</time></trkpt><trkpt lat="44.271188436157864" lon="9.46789359603601"><ele>118.0</ele><time>2026-04-22T07:14:58.999Z</time></trkpt><trkpt lat="44.27117169739754" lon="9.467571914155261"><ele>118.0</ele><time>2026-04-22T07:14:59.999Z</time></trkpt><trkpt lat="44.271144729685744" lon="9.467241953180624"><ele>118.0</ele><time>2026-04-22T07:15:00.999Z</time></trkpt><trkpt lat="44.27111297912008" lon="9.46691963986975"><ele>113.5</ele><time>2026-04-22T07:15:01.999Z</time></trkpt><trkpt lat="44.27107314989953" lon="9.466595629739906"><ele>109.0</ele><time>2026-04-22T07:15:02.999Z</time></trkpt><trkpt lat="44.271035304125284" lon="9.466293533541995"><ele>108.66666666666667</ele><time>2026-04-22T07:15:03.999Z</time></trkpt><trkpt lat="44.27099394793148" lon="9.46599624231743"><ele>108.33333333333334</ele><time>2026-04-22T07:15:04.999Z</time></trkpt><trkpt lat="44.27094954570455" lon="9.4657103727839"><ele>108.0</ele><time>2026-04-22T07:15:05.999Z</time></trkpt><trkpt lat="44.27090501578685" lon="9.465427700578445"><ele>109.0</ele><time>2026-04-22T07:15:06.999Z</time></trkpt><trkpt lat="44.270861764213954" lon="9.465157203136691"><ele>110.0</ele><time>2026-04-22T07:15:07.999Z</time></trkpt><trkpt lat="44.270817509094314" lon="9.464882122705614"><ele>111.0</ele><time>2026-04-22T07:15:08.999Z</time></trkpt><trkpt lat="44.270776618795566" lon="9.46461093549431"><ele>113.66666666666666</ele><time>2026-04-22T07:15:09.999Z</time></trkpt><trkpt lat="44.27073051874743" lon="9.464329458661714"><ele>116.33333333333333</ele><time>2026-04-22T07:15:10.999Z</time></trkpt><trkpt lat="44.2706873376255" lon="9.464047535195833"><ele>119.0</ele><time>2026-04-22T07:15:11.999Z</time></trkpt><trkpt lat="44.27064368436747" lon="9.463761719523212"><ele>121.66666666666666</ele><time>2026-04-22T07:15:12.999Z</time></trkpt><trkpt lat="44.270597484846675" lon="9.46346905353449"><ele>124.33333333333334</ele><time>2026-04-22T07:15:13.999Z</time></trkpt><trkpt lat="44.27055070501056" lon="9.463181259357436"><ele>127.0</ele><time>2026-04-22T07:15:14.999Z</time></trkpt><trkpt lat="44.27050377484127" lon="9.462892337710672"><ele>119.0</ele><time>2026-04-22T07:15:15.999Z</time></trkpt><trkpt lat="44.270459274651195" lon="9.462598538944226"><ele>111.0</ele><time>2026-04-22T07:15:16.999Z</time></trkpt><trkpt lat="44.27041296752653" lon="9.462302195866622"><ele>103.0</ele><time>2026-04-22T07:15:17.999Z</time></trkpt><trkpt lat="44.270366122272044" lon="9.46200965144668"><ele>96.66666666666667</ele><time>2026-04-22T07:15:18.999Z</time></trkpt><trkpt lat="44.270318121275515" lon="9.461717237160466"><ele>90.33333333333334</ele><time>2026-04-22T07:15:19.999Z</time></trkpt><trkpt lat="44.270272391262615" lon="9.4614207300086"><ele>84.0</ele><time>2026-04-22T07:15:20.999Z</time></trkpt><trkpt lat="44.27022706723249" lon="9.46113196649947"><ele>79.33333333333333</ele><time>2026-04-22T07:15:21.999Z</time></trkpt><trkpt lat="44.27018242623241" lon="9.460837265853147"><ele>74.66666666666666</ele><time>2026-04-22T07:15:22.999Z</time></trkpt><trkpt lat="44.2701381284127" lon="9.460546789241876"><ele>70.0</ele><time>2026-04-22T07:15:23.999Z</time></trkpt><trkpt lat="44.27009172495994" lon="9.460256190627032"><ele>66.33333333333333</ele><time>2026-04-22T07:15:24.999Z</time></trkpt><trkpt lat="44.27004532309277" lon="9.459965965846314"><ele>62.66666666666667</ele><time>2026-04-22T07:15:25.999Z</time></trkpt><trkpt lat="44.270001664508584" lon="9.459678622676256"><ele>59.0</ele><time>2026-04-22T07:15:26.999Z</time></trkpt><trkpt lat="44.269954660736744" lon="9.459389321805967"><ele>55.333333333333336</ele><time>2026-04-22T07:15:27.999Z</time></trkpt><trkpt lat="44.26990888883939" lon="9.459102842676076"><ele>51.66666666666667</ele><time>2026-04-22T07:15:28.999Z</time></trkpt><trkpt lat="44.26986323152175" lon="9.458817336177429"><ele>48.0</ele><time>2026-04-22T07:15:29.999Z</time></trkpt><trkpt lat="44.26981991675715" lon="9.458534680343488"><ele>52.66666666666667</ele><time>2026-04-22T07:15:30.999Z</time></trkpt><trkpt lat="44.269774411080995" lon="9.45824845526667"><ele>57.333333333333336</ele><time>2026-04-22T07:15:31.999Z</time></trkpt><trkpt lat="44.26972768900965" lon="9.457961824832466"><ele>62.0</ele><time>2026-04-22T07:15:32.999Z</time></trkpt><trkpt lat="44.269683528653395" lon="9.457678556190311"><ele>68.66666666666667</ele><time>2026-04-22T07:15:33.999Z</time></trkpt><trkpt lat="44.26963791262683" lon="9.457391865497076"><ele>75.33333333333333</ele><time>2026-04-22T07:15:34.999Z</time></trkpt><trkpt lat="44.26959166760414" lon="9.457101618552903"><ele>82.0</ele><time>2026-04-22T07:15:35.999Z</time></trkpt><trkpt lat="44.2695480412116" lon="9.45681816655102"><ele>84.66666666666666</ele><time>2026-04-22T07:15:36.999Z</time></trkpt><trkpt lat="44.26950341111984" lon="9.45653208847588"><ele>87.33333333333333</ele><time>2026-04-22T07:15:37.999Z</time></trkpt><trkpt lat="44.26945784641352" lon="9.45625499322414"><ele>90.0</ele><time>2026-04-22T07:15:38.999Z</time></trkpt><trkpt lat="44.26941207661744" lon="9.455976325414856"><ele>90.0</ele><time>2026-04-22T07:15:39.999Z</time></trkpt><trkpt lat="44.269366451700584" lon="9.455698780549538"><ele>90.0</ele><time>2026-04-22T07:15:40.999Z</time></trkpt><trkpt lat="44.269325336668004" lon="9.455419455011882"><ele>90.0</ele><time>2026-04-22T07:15:41.998Z</time></trkpt><trkpt lat="44.26928113752828" lon="9.455150138420057"><ele>87.0</ele><time>2026-04-22T07:15:42.998Z</time></trkpt><trkpt lat="44.269237757826325" lon="9.454869798024857"><ele>84.0</ele><time>2026-04-22T07:15:43.998Z</time></trkpt><trkpt lat="44.26919343791015" lon="9.454586183742665"><ele>81.0</ele><time>2026-04-22T07:15:44.998Z</time></trkpt><trkpt lat="44.2691511107142" lon="9.454315911316097"><ele>80.66666666666667</ele><time>2026-04-22T07:15:45.998Z</time></trkpt><trkpt lat="44.26910876239758" lon="9.454051555775814"><ele>80.33333333333334</ele><time>2026-04-22T07:15:46.998Z</time></trkpt><trkpt lat="44.269070822673164" lon="9.453787575354449"><ele>80.0</ele><time>2026-04-22T07:15:47.998Z</time></trkpt><trkpt lat="44.269024215579755" lon="9.45355491983496"><ele>82.33333333333334</ele><time>2026-04-22T07:15:48.998Z</time></trkpt><trkpt lat="44.26898205703519" lon="9.453320564684585"><ele>84.66666666666667</ele><time>2026-04-22T07:15:49.998Z</time></trkpt><trkpt lat="44.26893724206813" lon="9.453089280674357"><ele>87.0</ele><time>2026-04-22T07:15:50.998Z</time></trkpt><trkpt lat="44.26889304231802" lon="9.452853165692241"><ele>86.66666666666667</ele><time>2026-04-22T07:15:51.998Z</time></trkpt><trkpt lat="44.26885057614953" lon="9.452568424712322"><ele>86.33333333333334</ele><time>2026-04-22T07:15:52.998Z</time></trkpt><trkpt lat="44.26880451990076" lon="9.452306008894823"><ele>86.0</ele><time>2026-04-22T07:15:54.068Z</time></trkpt><trkpt lat="44.26876366794302" lon="9.452060328898131"><ele>86.0</ele><time>2026-04-22T07:15:55.059Z</time></trkpt><trkpt lat="44.268727706897835" lon="9.451820649603526"><ele>86.0</ele><time>2026-04-22T07:15:56.06Z</time></trkpt><trkpt lat="44.26868059661915" lon="9.451588170980537"><ele>86.0</ele><time>2026-04-22T07:15:57.06Z</time></trkpt><trkpt lat="44.268630077286325" lon="9.451358567016332"><ele>80.0</ele><time>2026-04-22T07:15:58.059Z</time></trkpt><trkpt lat="44.26858301458883" lon="9.451127349281297"><ele>74.0</ele><time>2026-04-22T07:15:59.053Z</time></trkpt><trkpt lat="44.26853923444912" lon="9.450895331214205"><ele>68.0</ele><time>2026-04-22T07:16:00.033Z</time></trkpt><trkpt lat="44.268500705394004" lon="9.450316566696767"><ele>61.0</ele><time>2026-04-22T07:16:00.998Z</time></trkpt><trkpt lat="44.268457509557045" lon="9.450056536061672"><ele>54.0</ele><time>2026-04-22T07:16:01.998Z</time></trkpt><trkpt lat="44.268433047634346" lon="9.449794384113797"><ele>47.0</ele><time>2026-04-22T07:16:02.998Z</time></trkpt><trkpt lat="44.26840320458952" lon="9.449538276680574"><ele>43.33333333333333</ele><time>2026-04-22T07:16:03.998Z</time></trkpt><trkpt lat="44.26836535409481" lon="9.449294191989319"><ele>39.666666666666664</ele><time>2026-04-22T07:16:04.998Z</time></trkpt><trkpt lat="44.26832994778441" lon="9.449056606919239"><ele>36.0</ele><time>2026-04-22T07:16:05.998Z</time></trkpt><trkpt lat="44.268237276579825" lon="9.448783715148151"><ele>36.0</ele><time>2026-04-22T07:16:07Z</time></trkpt><trkpt lat="44.268247015254914" lon="9.44854170313905"><ele>36.0</ele><time>2026-04-22T07:16:08Z</time></trkpt><trkpt lat="44.26824187251524" lon="9.448284209035135"><ele>36.0</ele><time>2026-04-22T07:16:09Z</time></trkpt><trkpt lat="44.26823786046299" lon="9.448022792400625"><ele>39.666666666666664</ele><time>2026-04-22T07:16:10Z</time></trkpt><trkpt lat="44.26823338062607" lon="9.44774728679846"><ele>43.33333333333333</ele><time>2026-04-22T07:16:11Z</time></trkpt><trkpt lat="44.26823642093213" lon="9.447479418525935"><ele>47.0</ele><time>2026-04-22T07:16:12Z</time></trkpt><trkpt lat="44.26824610789987" lon="9.44721851692872"><ele>49.666666666666664</ele><time>2026-04-22T07:16:13Z</time></trkpt><trkpt lat="44.26826145823025" lon="9.446964490502056"><ele>52.33333333333333</ele><time>2026-04-22T07:16:14Z</time></trkpt><trkpt lat="44.26828485165403" lon="9.446711349932803"><ele>55.0</ele><time>2026-04-22T07:16:15Z</time></trkpt><trkpt lat="44.26831344649099" lon="9.44646232356292"><ele>57.666666666666664</ele><time>2026-04-22T07:16:16Z</time></trkpt><trkpt lat="44.268345809979145" lon="9.446203524196552"><ele>60.33333333333333</ele><time>2026-04-22T07:16:17Z</time></trkpt><trkpt lat="44.26838700828299" lon="9.44594589569183"><ele>63.0</ele><time>2026-04-22T07:16:18Z</time></trkpt><trkpt lat="44.268433315452405" lon="9.445694990156609"><ele>67.33333333333333</ele><time>2026-04-22T07:16:19Z</time></trkpt><trkpt lat="44.26848099894982" lon="9.445448330934084"><ele>71.66666666666666</ele><time>2026-04-22T07:16:20Z</time></trkpt><trkpt lat="44.26852831992909" lon="9.445211140467537"><ele>76.0</ele><time>2026-04-22T07:16:21Z</time></trkpt><trkpt lat="44.268576411539314" lon="9.444984262725582"><ele>76.0</ele><time>2026-04-22T07:16:22Z</time></trkpt><trkpt lat="44.2686217728508" lon="9.444759535203612"><ele>76.0</ele><time>2026-04-22T07:16:23Z</time></trkpt><trkpt lat="44.268666480051245" lon="9.444539830964066"><ele>76.0</ele><time>2026-04-22T07:16:24Z</time></trkpt><trkpt lat="44.268700180968096" lon="9.444316908486684"><ele>77.0</ele><time>2026-04-22T07:16:25Z</time></trkpt><trkpt lat="44.2687330433297" lon="9.444094826204658"><ele>78.0</ele><time>2026-04-22T07:16:26Z</time></trkpt><trkpt lat="44.268767926885815" lon="9.443868752446006"><ele>79.0</ele><time>2026-04-22T07:16:27Z</time></trkpt><trkpt lat="44.26879703793952" lon="9.44364843741179"><ele>79.66666666666666</ele><time>2026-04-22T07:16:28Z</time></trkpt><trkpt lat="44.268820170040414" lon="9.443420262980787"><ele>80.33333333333333</ele><time>2026-04-22T07:16:29Z</time></trkpt><trkpt lat="44.268839282861116" lon="9.4431857128093"><ele>81.0</ele><time>2026-04-22T07:16:30Z</time></trkpt><trkpt lat="44.268856218703355" lon="9.442950651377904"><ele>77.33333333333333</ele><time>2026-04-22T07:16:31Z</time></trkpt><trkpt lat="44.268871395667205" lon="9.44271236966981"><ele>73.66666666666666</ele><time>2026-04-22T07:16:32Z</time></trkpt><trkpt lat="44.26888292250232" lon="9.442475710339826"><ele>70.0</ele><time>2026-04-22T07:16:33Z</time></trkpt><trkpt lat="44.26888969309953" lon="9.44223968701898"><ele>60.0</ele><time>2026-04-22T07:16:34Z</time></trkpt><trkpt lat="44.268891716044045" lon="9.442004347259223"><ele>50.0</ele><time>2026-04-22T07:16:35Z</time></trkpt><trkpt lat="44.26889145537213" lon="9.441772801669833"><ele>40.0</ele><time>2026-04-22T07:16:36Z</time></trkpt><trkpt lat="44.268883375567924" lon="9.44153830881214"><ele>40.0</ele><time>2026-04-22T07:16:36.999Z</time></trkpt><trkpt lat="44.26887374515642" lon="9.441302311726428"><ele>40.0</ele><time>2026-04-22T07:16:37.999Z</time></trkpt><trkpt lat="44.26885771459879" lon="9.441067369809877"><ele>40.0</ele><time>2026-04-22T07:16:38.999Z</time></trkpt><trkpt lat="44.26883894130208" lon="9.44083502130164"><ele>38.0</ele><time>2026-04-22T07:16:39.999Z</time></trkpt><trkpt lat="44.26881899819161" lon="9.440595922013545"><ele>36.0</ele><time>2026-04-22T07:16:40.999Z</time></trkpt><trkpt lat="44.268793893770415" lon="9.440354062481438"><ele>34.0</ele><time>2026-04-22T07:16:41.999Z</time></trkpt><trkpt lat="44.268765727208326" lon="9.440118150140835"><ele>41.66666666666667</ele><time>2026-04-22T07:16:42.999Z</time></trkpt><trkpt lat="44.26873489326168" lon="9.439878333206549"><ele>49.333333333333336</ele><time>2026-04-22T07:16:43.999Z</time></trkpt><trkpt lat="44.268701459073846" lon="9.439638510335497"><ele>57.0</ele><time>2026-04-22T07:16:44.999Z</time></trkpt><trkpt lat="44.268667319837625" lon="9.439398890927526"><ele>56.0</ele><time>2026-04-22T07:16:45.999Z</time></trkpt><trkpt lat="44.26863205488398" lon="9.439158341004244"><ele>55.0</ele><time>2026-04-22T07:16:46.999Z</time></trkpt><trkpt lat="44.26859755360696" lon="9.438913284578142"><ele>54.0</ele><time>2026-04-22T07:16:47.999Z</time></trkpt><trkpt lat="44.2685627127912" lon="9.438670584870408"><ele>54.0</ele><time>2026-04-22T07:16:48.999Z</time></trkpt><trkpt lat="44.26852613927961" lon="9.438422988291618"><ele>54.0</ele><time>2026-04-22T07:16:49.999Z</time></trkpt><trkpt lat="44.26849033782817" lon="9.438179024701313"><ele>54.0</ele><time>2026-04-22T07:16:50.999Z</time></trkpt><trkpt lat="44.268454790702336" lon="9.437929696334182"><ele>51.666666666666664</ele><time>2026-04-22T07:16:51.999Z</time></trkpt><trkpt lat="44.268419879309654" lon="9.437680188312013"><ele>49.33333333333333</ele><time>2026-04-22T07:16:52.999Z</time></trkpt><trkpt lat="44.268384410865245" lon="9.437432214169188"><ele>47.0</ele><time>2026-04-22T07:16:53.999Z</time></trkpt><trkpt lat="44.26834991418091" lon="9.43718282353539"><ele>44.666666666666664</ele><time>2026-04-22T07:16:54.999Z</time></trkpt><trkpt lat="44.26831488727962" lon="9.436937042499277"><ele>42.333333333333336</ele><time>2026-04-22T07:16:55.999Z</time></trkpt><trkpt lat="44.2682785221146" lon="9.436686742801864"><ele>40.0</ele><time>2026-04-22T07:16:56.999Z</time></trkpt><trkpt lat="44.26824119746626" lon="9.436440735225807"><ele>37.66666666666667</ele><time>2026-04-22T07:16:57.999Z</time></trkpt><trkpt lat="44.26820484038517" lon="9.436192736146932"><ele>35.333333333333336</ele><time>2026-04-22T07:16:58.999Z</time></trkpt><trkpt lat="44.26816796872451" lon="9.435941750257445"><ele>33.0</ele><time>2026-04-22T07:16:59.999Z</time></trkpt><trkpt lat="44.26813160374891" lon="9.435692766509312"><ele>38.33333333333333</ele><time>2026-04-22T07:17:00.999Z</time></trkpt><trkpt lat="44.26809638080624" lon="9.435441622985948"><ele>43.666666666666664</ele><time>2026-04-22T07:17:01.999Z</time></trkpt><trkpt lat="44.268062861883415" lon="9.435182930081531"><ele>49.0</ele><time>2026-04-22T07:17:02.999Z</time></trkpt><trkpt lat="44.26802624930072" lon="9.434922956842934"><ele>49.0</ele><time>2026-04-22T07:17:03.999Z</time></trkpt><trkpt lat="44.26798744123798" lon="9.434664122641689"><ele>49.0</ele><time>2026-04-22T07:17:04.999Z</time></trkpt><trkpt lat="44.26794715328406" lon="9.434398237249598"><ele>49.0</ele><time>2026-04-22T07:17:05.999Z</time></trkpt><trkpt lat="44.267908640039416" lon="9.43413452689571"><ele>49.0</ele><time>2026-04-22T07:17:06.999Z</time></trkpt><trkpt lat="44.26787405552796" lon="9.433867999952685"><ele>49.0</ele><time>2026-04-22T07:17:07.999Z</time></trkpt><trkpt lat="44.2678452415568" lon="9.433598269111235"><ele>49.0</ele><time>2026-04-22T07:17:08.999Z</time></trkpt><trkpt lat="44.26782349502058" lon="9.433325590822445"><ele>48.0</ele><time>2026-04-22T07:17:09.999Z</time></trkpt><trkpt lat="44.26780922913311" lon="9.433056448275066"><ele>47.0</ele><time>2026-04-22T07:17:10.999Z</time></trkpt><trkpt lat="44.26780118161552" lon="9.43278899815969"><ele>46.0</ele><time>2026-04-22T07:17:11.999Z</time></trkpt><trkpt lat="44.267798907973" lon="9.432522768174138"><ele>45.66666666666667</ele><time>2026-04-22T07:17:12.999Z</time></trkpt><trkpt lat="44.267804893066234" lon="9.43225543169854"><ele>45.333333333333336</ele><time>2026-04-22T07:17:13.999Z</time></trkpt><trkpt lat="44.267818240620436" lon="9.431979960354905"><ele>45.0</ele><time>2026-04-22T07:17:14.999Z</time></trkpt><trkpt lat="44.26783702062973" lon="9.431695876160063"><ele>45.0</ele><time>2026-04-22T07:17:15.999Z</time></trkpt><trkpt lat="44.26786493402169" lon="9.431411573232118"><ele>45.0</ele><time>2026-04-22T07:17:16.999Z</time></trkpt><trkpt lat="44.26790163939916" lon="9.43112585678959"><ele>45.0</ele><time>2026-04-22T07:17:17.999Z</time></trkpt><trkpt lat="44.26794456965629" lon="9.430846409197459"><ele>45.0</ele><time>2026-04-22T07:17:18.999Z</time></trkpt><trkpt lat="44.26799776982919" lon="9.430572703830999"><ele>45.0</ele><time>2026-04-22T07:17:19.999Z</time></trkpt><trkpt lat="44.268058190455356" lon="9.430300829065112"><ele>45.0</ele><time>2026-04-22T07:17:20.999Z</time></trkpt><trkpt lat="44.268124089701345" lon="9.430033260900371"><ele>36.0</ele><time>2026-04-22T07:17:21.999Z</time></trkpt><trkpt lat="44.268195800861626" lon="9.429770307996355"><ele>27.0</ele><time>2026-04-22T07:17:22.999Z</time></trkpt><trkpt lat="44.268276273996776" lon="9.429509535385325"><ele>18.0</ele><time>2026-04-22T07:17:23.999Z</time></trkpt><trkpt lat="44.26836473943171" lon="9.429247170595307"><ele>18.0</ele><time>2026-04-22T07:17:24.999Z</time></trkpt><trkpt lat="44.26846098135311" lon="9.428989613010456"><ele>18.0</ele><time>2026-04-22T07:17:25.999Z</time></trkpt><trkpt lat="44.26856684711485" lon="9.428734597779783"><ele>18.0</ele><time>2026-04-22T07:17:26.999Z</time></trkpt><trkpt lat="44.268679390640365" lon="9.428484311143281"><ele>16.666666666666668</ele><time>2026-04-22T07:17:27.999Z</time></trkpt><trkpt lat="44.2687985647302" lon="9.428239459821658"><ele>15.333333333333334</ele><time>2026-04-22T07:17:28.999Z</time></trkpt><trkpt lat="44.26892647181241" lon="9.428000870708516"><ele>14.0</ele><time>2026-04-22T07:17:29.999Z</time></trkpt><trkpt lat="44.26906162744865" lon="9.427771165722264"><ele>13.666666666666668</ele><time>2026-04-22T07:17:30.999Z</time></trkpt><trkpt lat="44.26920332726547" lon="9.42754726142616"><ele>13.333333333333332</ele><time>2026-04-22T07:17:31.999Z</time></trkpt><trkpt lat="44.269349521277036" lon="9.427332758702104"><ele>13.0</ele><time>2026-04-22T07:17:32.999Z</time></trkpt><trkpt lat="44.269502153143705" lon="9.42712828252354"><ele>12.666666666666666</ele><time>2026-04-22T07:17:33.999Z</time></trkpt><trkpt lat="44.26966003532396" lon="9.426931956997409"><ele>12.333333333333332</ele><time>2026-04-22T07:17:34.999Z</time></trkpt><trkpt lat="44.269821884693485" lon="9.426746631791543"><ele>12.0</ele><time>2026-04-22T07:17:35.999Z</time></trkpt><trkpt lat="44.26998170428459" lon="9.426573241410335"><ele>12.0</ele><time>2026-04-22T07:17:36.999Z</time></trkpt><trkpt lat="44.27013920357815" lon="9.426403223910405"><ele>12.0</ele><time>2026-04-22T07:17:37.999Z</time></trkpt><trkpt lat="44.27029264793478" lon="9.426235196260347"><ele>12.0</ele><time>2026-04-22T07:17:38.999Z</time></trkpt><trkpt lat="44.27044648482954" lon="9.426070754546902"><ele>12.0</ele><time>2026-04-22T07:17:39.999Z</time></trkpt><trkpt lat="44.27060265381607" lon="9.425906986325746"><ele>12.0</ele><time>2026-04-22T07:17:40.999Z</time></trkpt><trkpt lat="44.27075487910434" lon="9.425745326466533"><ele>12.0</ele><time>2026-04-22T07:17:41.999Z</time></trkpt><trkpt lat="44.270904404877605" lon="9.425580602303853"><ele>13.333333333333332</ele><time>2026-04-22T07:17:42.999Z</time></trkpt><trkpt lat="44.27106232463331" lon="9.425405229770764"><ele>14.666666666666666</ele><time>2026-04-22T07:17:43.999Z</time></trkpt><trkpt lat="44.27122617757699" lon="9.42522030556661"><ele>16.0</ele><time>2026-04-22T07:17:44.998Z</time></trkpt><trkpt lat="44.27139561313321" lon="9.425028416226981"><ele>16.5</ele><time>2026-04-22T07:17:45.998Z</time></trkpt><trkpt lat="44.27157302050089" lon="9.424830753755149"><ele>17.0</ele><time>2026-04-22T07:17:46.998Z</time></trkpt><trkpt lat="44.271753919754474" lon="9.424625304275702"><ele>17.0</ele><time>2026-04-22T07:17:47.998Z</time></trkpt><trkpt lat="44.271929042633154" lon="9.424428395466256"><ele>17.0</ele><time>2026-04-22T07:17:48.998Z</time></trkpt><trkpt lat="44.27210884363502" lon="9.424226760311427"><ele>20.5</ele><time>2026-04-22T07:17:49.998Z</time></trkpt><trkpt lat="44.272296185901574" lon="9.424009313896027"><ele>24.0</ele><time>2026-04-22T07:17:50.998Z</time></trkpt><trkpt lat="44.272488499464856" lon="9.423783192460066"><ele>24.0</ele><time>2026-04-22T07:17:51.998Z</time></trkpt><trkpt lat="44.272679443346235" lon="9.423556112184414"><ele>24.0</ele><time>2026-04-22T07:17:52.998Z</time></trkpt><trkpt lat="44.27286749218647" lon="9.42332840906774"><ele>24.0</ele><time>2026-04-22T07:17:53.998Z</time></trkpt><trkpt lat="44.27305004735008" lon="9.423107400321982"><ele>24.0</ele><time>2026-04-22T07:17:54.998Z</time></trkpt><trkpt lat="44.27322321681077" lon="9.42289960052482"><ele>24.666666666666664</ele><time>2026-04-22T07:17:55.998Z</time></trkpt><trkpt lat="44.27338862014386" lon="9.42269909300801"><ele>25.333333333333332</ele><time>2026-04-22T07:17:56.998Z</time></trkpt><trkpt lat="44.273553423097496" lon="9.422496518814755"><ele>26.0</ele><time>2026-04-22T07:17:57.998Z</time></trkpt><trkpt lat="44.273723917146036" lon="9.422290139998534"><ele>24.5</ele><time>2026-04-22T07:17:58.998Z</time></trkpt><trkpt lat="44.273897073151694" lon="9.422082083179207"><ele>23.0</ele><time>2026-04-22T07:17:59.998Z</time></trkpt><trkpt lat="44.27407050314655" lon="9.421871504067761"><ele>20.0</ele><time>2026-04-22T07:18:00.998Z</time></trkpt><trkpt lat="44.27424753747074" lon="9.421659386367276"><ele>17.0</ele><time>2026-04-22T07:18:01.998Z</time></trkpt><trkpt lat="44.27442630240818" lon="9.421451985793029"><ele>17.0</ele><time>2026-04-22T07:18:02.998Z</time></trkpt><trkpt lat="44.27460570079265" lon="9.421242563002584"><ele>17.0</ele><time>2026-04-22T07:18:03.998Z</time></trkpt><trkpt lat="44.2747871004804" lon="9.421028801940702"><ele>17.0</ele><time>2026-04-22T07:18:04.998Z</time></trkpt><trkpt lat="44.27497038438217" lon="9.420812749861364"><ele>17.0</ele><time>2026-04-22T07:18:05.998Z</time></trkpt><trkpt lat="44.27514930977257" lon="9.420605894224007"><ele>17.0</ele><time>2026-04-22T07:18:06.998Z</time></trkpt><trkpt lat="44.275323818971266" lon="9.420401729135152"><ele>17.0</ele><time>2026-04-22T07:18:07.998Z</time></trkpt><trkpt lat="44.27549908462722" lon="9.42020110270442"><ele>17.0</ele><time>2026-04-22T07:18:08.998Z</time></trkpt><trkpt lat="44.27567278119261" lon="9.420002673897987"><ele>17.0</ele><time>2026-04-22T07:18:09.998Z</time></trkpt><trkpt lat="44.2758452143422" lon="9.41980163515325"><ele>17.0</ele><time>2026-04-22T07:18:10.998Z</time></trkpt><trkpt lat="44.27601165038322" lon="9.419605286786263"><ele>16.666666666666668</ele><time>2026-04-22T07:18:12Z</time></trkpt><trkpt lat="44.276174626525005" lon="9.419412742420702"><ele>16.333333333333332</ele><time>2026-04-22T07:18:13Z</time></trkpt><trkpt lat="44.27634068763643" lon="9.419218156331636"><ele>16.0</ele><time>2026-04-22T07:18:14Z</time></trkpt><trkpt lat="44.27650182115604" lon="9.419026399419595"><ele>16.0</ele><time>2026-04-22T07:18:15Z</time></trkpt><trkpt lat="44.27665738834377" lon="9.418835802676893"><ele>16.0</ele><time>2026-04-22T07:18:16Z</time></trkpt><trkpt lat="44.27681397627425" lon="9.418647388513628"><ele>16.0</ele><time>2026-04-22T07:18:17Z</time></trkpt><trkpt lat="44.27697695781744" lon="9.418463636598819"><ele>15.666666666666666</ele><time>2026-04-22T07:18:18Z</time></trkpt><trkpt lat="44.27714777051121" lon="9.418279013697104"><ele>15.333333333333332</ele><time>2026-04-22T07:18:19Z</time></trkpt><trkpt lat="44.2772989349209" lon="9.418088576139032"><ele>15.0</ele><time>2026-04-22T07:18:20Z</time></trkpt><trkpt lat="44.2774017117675" lon="9.417981075550076"><ele>15.666666666666668</ele><time>2026-04-22T07:18:21Z</time></trkpt><trkpt lat="44.27756313245108" lon="9.417784165115815"><ele>16.333333333333336</ele><time>2026-04-22T07:18:22Z</time></trkpt><trkpt lat="44.27771933904618" lon="9.41759594753358"><ele>17.0</ele><time>2026-04-22T07:18:23Z</time></trkpt><trkpt lat="44.2778597738787" lon="9.41743345546388"><ele>17.0</ele><time>2026-04-22T07:18:24Z</time></trkpt><trkpt lat="44.278002564508036" lon="9.417266106675612"><ele>17.0</ele><time>2026-04-22T07:18:25Z</time></trkpt><trkpt lat="44.278143144317475" lon="9.417104313157141"><ele>17.0</ele><time>2026-04-22T07:18:26Z</time></trkpt><trkpt lat="44.278277500793756" lon="9.41694871631972"><ele>20.5</ele><time>2026-04-22T07:18:27Z</time></trkpt><trkpt lat="44.27839611957716" lon="9.416805914882625"><ele>24.0</ele><time>2026-04-22T07:18:28Z</time></trkpt><trkpt lat="44.27850253077269" lon="9.416674523879417"><ele>27.5</ele><time>2026-04-22T07:18:29Z</time></trkpt><trkpt lat="44.27860377670014" lon="9.416554095225974"><ele>31.0</ele><time>2026-04-22T07:18:30Z</time></trkpt><trkpt lat="44.278700312204805" lon="9.416444424304643"><ele>31.0</ele><time>2026-04-22T07:18:31Z</time></trkpt><trkpt lat="44.27879675123865" lon="9.41633575681229"><ele>31.0</ele><time>2026-04-22T07:18:32Z</time></trkpt><trkpt lat="44.278900986632806" lon="9.41620404917095"><ele>31.0</ele><time>2026-04-22T07:18:33Z</time></trkpt><trkpt lat="44.27901422686567" lon="9.416029923996172"><ele>31.0</ele><time>2026-04-22T07:18:34Z</time></trkpt><trkpt lat="44.27913333919159" lon="9.415847585115973"><ele>32.333333333333336</ele><time>2026-04-22T07:18:34.999Z</time></trkpt><trkpt lat="44.279252856578296" lon="9.415636033702064"><ele>33.666666666666664</ele><time>2026-04-22T07:18:35.999Z</time></trkpt><trkpt lat="44.279368241043876" lon="9.415405764110393"><ele>35.0</ele><time>2026-04-22T07:18:36.999Z</time></trkpt><trkpt lat="44.27948386293884" lon="9.415168330259185"><ele>38.33333333333333</ele><time>2026-04-22T07:18:37.999Z</time></trkpt><trkpt lat="44.27958627044659" lon="9.41492298249937"><ele>41.666666666666664</ele><time>2026-04-22T07:18:38.999Z</time></trkpt><trkpt lat="44.27967543902903" lon="9.414683485240182"><ele>45.0</ele><time>2026-04-22T07:18:39.999Z</time></trkpt><trkpt lat="44.279784179499124" lon="9.414470090886267"><ele>45.0</ele><time>2026-04-22T07:18:40.999Z</time></trkpt><trkpt lat="44.27989880441326" lon="9.414248667458258"><ele>45.0</ele><time>2026-04-22T07:18:41.999Z</time></trkpt><trkpt lat="44.280064761009044" lon="9.413936047509518"><ele>39.0</ele><time>2026-04-22T07:18:42.999Z</time></trkpt><trkpt lat="44.28015683469109" lon="9.41368261139262"><ele>33.0</ele><time>2026-04-22T07:18:43.999Z</time></trkpt><trkpt lat="44.28024537990622" lon="9.413391998231647"><ele>27.0</ele><time>2026-04-22T07:18:44.999Z</time></trkpt><trkpt lat="44.28035495122411" lon="9.413111295334263"><ele>26.333333333333336</ele><time>2026-04-22T07:18:45.999Z</time></trkpt><trkpt lat="44.28046448848413" lon="9.412849480733128"><ele>25.666666666666668</ele><time>2026-04-22T07:18:46.999Z</time></trkpt><trkpt lat="44.28057121429597" lon="9.412606767874276"><ele>25.0</ele><time>2026-04-22T07:18:47.999Z</time></trkpt><trkpt lat="44.2806698937715" lon="9.412378104844903"><ele>30.0</ele><time>2026-04-22T07:18:48.999Z</time></trkpt><trkpt lat="44.28076269439878" lon="9.412156493304588"><ele>35.0</ele><time>2026-04-22T07:18:49.999Z</time></trkpt><trkpt lat="44.28085511866181" lon="9.411941778295418"><ele>40.0</ele><time>2026-04-22T07:18:50.999Z</time></trkpt><trkpt lat="44.28095611318591" lon="9.411722597273608"><ele>40.0</ele><time>2026-04-22T07:18:51.999Z</time></trkpt><trkpt lat="44.28106845695194" lon="9.411497292553525"><ele>40.0</ele><time>2026-04-22T07:18:52.999Z</time></trkpt><trkpt lat="44.28119594411801" lon="9.41127243786991"><ele>40.0</ele><time>2026-04-22T07:18:53.999Z</time></trkpt><trkpt lat="44.2813343520951" lon="9.411057634210175"><ele>41.333333333333336</ele><time>2026-04-22T07:18:54.999Z</time></trkpt><trkpt lat="44.281481767375375" lon="9.410853998027765"><ele>42.666666666666664</ele><time>2026-04-22T07:18:55.999Z</time></trkpt><trkpt lat="44.281637730002934" lon="9.410658563046388"><ele>44.0</ele><time>2026-04-22T07:18:56.999Z</time></trkpt><trkpt lat="44.28181354707364" lon="9.41046597258706"><ele>44.0</ele><time>2026-04-22T07:18:57.999Z</time></trkpt><trkpt lat="44.281993840344825" lon="9.41027466308954"><ele>44.0</ele><time>2026-04-22T07:18:58.999Z</time></trkpt><trkpt lat="44.282162738575714" lon="9.410093702349945"><ele>44.0</ele><time>2026-04-22T07:18:59.999Z</time></trkpt><trkpt lat="44.28232159081884" lon="9.409919676601836"><ele>44.666666666666664</ele><time>2026-04-22T07:19:00.999Z</time></trkpt><trkpt lat="44.28247525412974" lon="9.409750841021365"><ele>45.333333333333336</ele><time>2026-04-22T07:19:01.999Z</time></trkpt><trkpt lat="44.28262942225497" lon="9.409579361211497"><ele>46.0</ele><time>2026-04-22T07:19:02.999Z</time></trkpt><trkpt lat="44.28278473993453" lon="9.409403068280955"><ele>46.0</ele><time>2026-04-22T07:19:03.999Z</time></trkpt><trkpt lat="44.28294043315125" lon="9.409218434813328"><ele>46.0</ele><time>2026-04-22T07:19:04.999Z</time></trkpt><trkpt lat="44.28309049566364" lon="9.409022762296118"><ele>46.0</ele><time>2026-04-22T07:19:05.999Z</time></trkpt><trkpt lat="44.283236101367365" lon="9.408811825092041"><ele>50.333333333333336</ele><time>2026-04-22T07:19:06.999Z</time></trkpt><trkpt lat="44.28337476563333" lon="9.408587101620295"><ele>54.66666666666667</ele><time>2026-04-22T07:19:07.999Z</time></trkpt><trkpt lat="44.283504322294995" lon="9.40834980338571"><ele>59.0</ele><time>2026-04-22T07:19:08.999Z</time></trkpt><trkpt lat="44.28362389051805" lon="9.408095435793863"><ele>57.5</ele><time>2026-04-22T07:19:09.999Z</time></trkpt><trkpt lat="44.28373346670726" lon="9.40782779583089"><ele>56.0</ele><time>2026-04-22T07:19:10.999Z</time></trkpt><trkpt lat="44.28383547543956" lon="9.407536046787861"><ele>56.0</ele><time>2026-04-22T07:19:11.999Z</time></trkpt><trkpt lat="44.283927340095374" lon="9.407231854157011"><ele>56.0</ele><time>2026-04-22T07:19:12.999Z</time></trkpt><trkpt lat="44.28400297350658" lon="9.406925416438195"><ele>66.0</ele><time>2026-04-22T07:19:13.999Z</time></trkpt><trkpt lat="44.284068586954554" lon="9.406603971509806"><ele>76.0</ele><time>2026-04-22T07:19:14.999Z</time></trkpt><trkpt lat="44.28411882113958" lon="9.406261571951854"><ele>76.0</ele><time>2026-04-22T07:19:15.999Z</time></trkpt><trkpt lat="44.28416099613507" lon="9.40591020397568"><ele>76.0</ele><time>2026-04-22T07:19:16.999Z</time></trkpt><trkpt lat="44.284197092493905" lon="9.405539187588994"><ele>70.0</ele><time>2026-04-22T07:19:17.999Z</time></trkpt><trkpt lat="44.28423555084507" lon="9.405158712765965"><ele>64.0</ele><time>2026-04-22T07:19:18.999Z</time></trkpt><trkpt lat="44.284275908893726" lon="9.404773838505609"><ele>64.0</ele><time>2026-04-22T07:19:19.999Z</time></trkpt><trkpt lat="44.28431346953229" lon="9.404411150953417"><ele>64.0</ele><time>2026-04-22T07:19:20.999Z</time></trkpt><trkpt lat="44.284351189223855" lon="9.40405192229024"><ele>70.5</ele><time>2026-04-22T07:19:21.999Z</time></trkpt><trkpt lat="44.284391820658044" lon="9.403681410577201"><ele>77.0</ele><time>2026-04-22T07:19:22.999Z</time></trkpt><trkpt lat="44.2844310835291" lon="9.403298358308254"><ele>75.0</ele><time>2026-04-22T07:19:23.999Z</time></trkpt><trkpt lat="44.28447284518069" lon="9.402917584423777"><ele>73.0</ele><time>2026-04-22T07:19:24.999Z</time></trkpt><trkpt lat="44.28451834709134" lon="9.402535601048776"><ele>69.5</ele><time>2026-04-22T07:19:25.999Z</time></trkpt><trkpt lat="44.28456025429261" lon="9.40214918265908"><ele>66.0</ele><time>2026-04-22T07:19:26.999Z</time></trkpt><trkpt lat="44.284599565960484" lon="9.40177275781498"><ele>66.0</ele><time>2026-04-22T07:19:27.999Z</time></trkpt><trkpt lat="44.28464133851995" lon="9.401421383217667"><ele>66.0</ele><time>2026-04-22T07:19:28.999Z</time></trkpt><trkpt lat="44.284686154220594" lon="9.401084029255829"><ele>71.0</ele><time>2026-04-22T07:19:29.999Z</time></trkpt><trkpt lat="44.28472996126647" lon="9.400754749880374"><ele>76.0</ele><time>2026-04-22T07:19:30.999Z</time></trkpt><trkpt lat="44.284769608408055" lon="9.40042369455977"><ele>87.0</ele><time>2026-04-22T07:19:31.999Z</time></trkpt><trkpt lat="44.28480692188332" lon="9.400096034331323"><ele>98.0</ele><time>2026-04-22T07:19:32.999Z</time></trkpt><trkpt lat="44.28484274513578" lon="9.399776960399018"><ele>99.5</ele><time>2026-04-22T07:19:33.999Z</time></trkpt><trkpt lat="44.28487877619269" lon="9.399455688877977"><ele>101.0</ele><time>2026-04-22T07:19:34.999Z</time></trkpt><trkpt lat="44.28491936486144" lon="9.39914012068125"><ele>105.5</ele><time>2026-04-22T07:19:35.999Z</time></trkpt><trkpt lat="44.2849686368374" lon="9.398828483451988"><ele>110.0</ele><time>2026-04-22T07:19:36.999Z</time></trkpt><trkpt lat="44.285026796223924" lon="9.398518252331861"><ele>110.0</ele><time>2026-04-22T07:19:37.999Z</time></trkpt><trkpt lat="44.28509080297025" lon="9.398214843203245"><ele>110.0</ele><time>2026-04-22T07:19:38.999Z</time></trkpt><trkpt lat="44.285170438618756" lon="9.397874817301009"><ele>120.0</ele><time>2026-04-22T07:19:39.999Z</time></trkpt><trkpt lat="44.2852564935784" lon="9.39751341304442"><ele>130.0</ele><time>2026-04-22T07:19:40.999Z</time></trkpt><trkpt lat="44.28533428490495" lon="9.397154227427908"><ele>136.0</ele><time>2026-04-22T07:19:41.999Z</time></trkpt><trkpt lat="44.28542389447905" lon="9.396823862520911"><ele>142.0</ele><time>2026-04-22T07:19:42.999Z</time></trkpt><trkpt lat="44.28554875024446" lon="9.396508437521772"><ele>125.5</ele><time>2026-04-22T07:19:43.999Z</time></trkpt><trkpt lat="44.28568210526362" lon="9.396196072369458"><ele>109.0</ele><time>2026-04-22T07:19:44.999Z</time></trkpt><trkpt lat="44.28583031243402" lon="9.395883101788078"><ele>109.0</ele><time>2026-04-22T07:19:46.065Z</time></trkpt><trkpt lat="44.28597101694304" lon="9.395611704713613"><ele>109.0</ele><time>2026-04-22T07:19:47.058Z</time></trkpt><trkpt lat="44.28610985232913" lon="9.39536499340281"><ele>106.66666666666667</ele><time>2026-04-22T07:19:47.998Z</time></trkpt><trkpt lat="44.28618980080777" lon="9.395224740796088"><ele>104.33333333333334</ele><time>2026-04-22T07:19:49.998Z</time></trkpt><trkpt lat="44.28634141921171" lon="9.39497632232079"><ele>102.0</ele><time>2026-04-22T07:19:50.998Z</time></trkpt><trkpt lat="44.28650864548182" lon="9.394730257975082"><ele>270.0</ele><time>2026-04-22T07:19:51.998Z</time></trkpt><trkpt lat="44.28876342758748" lon="9.391622685416134"><ele>257.0</ele><time>2026-04-22T07:20:00.514Z</time></trkpt><trkpt lat="44.289451389009024" lon="9.390634124145997"><ele>215.0</ele><time>2026-04-22T07:20:01.513Z</time></trkpt><trkpt lat="44.2897954" lon="9.3901398"><ele>104.0</ele><time>2026-04-22T07:20:02.514Z</time></trkpt><trkpt lat="44.29198628438292" lon="9.387037112776124"><ele>104.0</ele><time>2026-04-22T07:20:24.998Z</time></trkpt><trkpt lat="44.292235971049614" lon="9.386811061880973"><ele>104.0</ele><time>2026-04-22T07:20:25.998Z</time></trkpt><trkpt lat="44.29236049125867" lon="9.386512416936707"><ele>98.5</ele><time>2026-04-22T07:20:26.998Z</time></trkpt><trkpt lat="44.29252681058818" lon="9.386244486495617"><ele>93.0</ele><time>2026-04-22T07:20:27.998Z</time></trkpt><trkpt lat="44.29269672641552" lon="9.386006073652828"><ele>93.0</ele><time>2026-04-22T07:20:28.998Z</time></trkpt><trkpt lat="44.292868502346884" lon="9.385774531325124"><ele>93.0</ele><time>2026-04-22T07:20:29.998Z</time></trkpt><trkpt lat="44.29304136715658" lon="9.385567051311474"><ele>96.5</ele><time>2026-04-22T07:20:30.999Z</time></trkpt><trkpt lat="44.293218146890304" lon="9.385368494464558"><ele>100.0</ele><time>2026-04-22T07:20:31.999Z</time></trkpt><trkpt lat="44.293403654884386" lon="9.38518192783823"><ele>100.0</ele><time>2026-04-22T07:20:32.999Z</time></trkpt><trkpt lat="44.29358843985319" lon="9.38500701727424"><ele>100.0</ele><time>2026-04-22T07:20:33.999Z</time></trkpt><trkpt lat="44.29378437784058" lon="9.38483725555689"><ele>100.0</ele><time>2026-04-22T07:20:34.999Z</time></trkpt><trkpt lat="44.29399194364528" lon="9.38467889856921"><ele>100.0</ele><time>2026-04-22T07:20:35.999Z</time></trkpt><trkpt lat="44.294199828073126" lon="9.38453409032598"><ele>100.0</ele><time>2026-04-22T07:20:36.999Z</time></trkpt><trkpt lat="44.29440403811827" lon="9.384402609241853"><ele>100.0</ele><time>2026-04-22T07:20:38Z</time></trkpt><trkpt lat="44.294607243869464" lon="9.384288332578757"><ele>100.0</ele><time>2026-04-22T07:20:38.999Z</time></trkpt><trkpt lat="44.294813525891065" lon="9.384187808872474"><ele>98.0</ele><time>2026-04-22T07:20:40Z</time></trkpt><trkpt lat="44.29502288133876" lon="9.384096930353286"><ele>96.0</ele><time>2026-04-22T07:20:41Z</time></trkpt><trkpt lat="44.2952334547728" lon="9.384022768428332"><ele>94.0</ele><time>2026-04-22T07:20:42Z</time></trkpt><trkpt lat="44.2954499740089" lon="9.383956138204612"><ele>89.0</ele><time>2026-04-22T07:20:43Z</time></trkpt><trkpt lat="44.29566738722999" lon="9.383901263667646"><ele>84.0</ele><time>2026-04-22T07:20:44Z</time></trkpt><trkpt lat="44.29588580852765" lon="9.38386254544471"><ele>79.0</ele><time>2026-04-22T07:20:45Z</time></trkpt><trkpt lat="44.2961074824775" lon="9.383837131526834"><ele>75.33333333333333</ele><time>2026-04-22T07:20:45.999Z</time></trkpt><trkpt lat="44.29633154257339" lon="9.383822124407642"><ele>71.66666666666667</ele><time>2026-04-22T07:20:46.999Z</time></trkpt><trkpt lat="44.296556711121895" lon="9.383819373152352"><ele>68.0</ele><time>2026-04-22T07:20:47.999Z</time></trkpt><trkpt lat="44.29678830331977" lon="9.383831985431195"><ele>74.5</ele><time>2026-04-22T07:20:48.999Z</time></trkpt><trkpt lat="44.29701997075537" lon="9.383862090714763"><ele>81.0</ele><time>2026-04-22T07:20:49.999Z</time></trkpt><trkpt lat="44.29725771995879" lon="9.38390089000601"><ele>92.0</ele><time>2026-04-22T07:20:50.999Z</time></trkpt><trkpt lat="44.297500954044274" lon="9.383934080015898"><ele>103.0</ele><time>2026-04-22T07:20:51.999Z</time></trkpt><trkpt lat="44.297736417610786" lon="9.383966851668726"><ele>103.0</ele><time>2026-04-22T07:20:52.999Z</time></trkpt><trkpt lat="44.29796962404684" lon="9.384005712986752"><ele>103.0</ele><time>2026-04-22T07:20:53.999Z</time></trkpt><trkpt lat="44.29820213789254" lon="9.384043344476751"><ele>106.5</ele><time>2026-04-22T07:20:54.999Z</time></trkpt><trkpt lat="44.298434669780434" lon="9.384070907152005"><ele>110.0</ele><time>2026-04-22T07:20:55.999Z</time></trkpt><trkpt lat="44.29866854288196" lon="9.384108104919902"><ele>110.0</ele><time>2026-04-22T07:20:56.999Z</time></trkpt><trkpt lat="44.29889766058727" lon="9.384138433878453"><ele>110.0</ele><time>2026-04-22T07:20:57.999Z</time></trkpt><trkpt lat="44.299125868712316" lon="9.384170470436446"><ele>108.33333333333333</ele><time>2026-04-22T07:20:58.999Z</time></trkpt><trkpt lat="44.299342738855216" lon="9.384197917285261"><ele>106.66666666666666</ele><time>2026-04-22T07:20:59.999Z</time></trkpt><trkpt lat="44.299556464959394" lon="9.38420951661791"><ele>105.0</ele><time>2026-04-22T07:21:00.999Z</time></trkpt><trkpt lat="44.29976867586812" lon="9.384201381328669"><ele>104.66666666666666</ele><time>2026-04-22T07:21:01.999Z</time></trkpt><trkpt lat="44.299985183643784" lon="9.384184226508564"><ele>104.33333333333333</ele><time>2026-04-22T07:21:02.999Z</time></trkpt><trkpt lat="44.300200322605846" lon="9.384147653248036"><ele>104.0</ele><time>2026-04-22T07:21:03.999Z</time></trkpt><trkpt lat="44.300413118933236" lon="9.384091298733008"><ele>105.0</ele><time>2026-04-22T07:21:04.999Z</time></trkpt><trkpt lat="44.30062666095001" lon="9.384018166006545"><ele>106.0</ele><time>2026-04-22T07:21:05.999Z</time></trkpt><trkpt lat="44.30084350176107" lon="9.383922149770093"><ele>107.0</ele><time>2026-04-22T07:21:06.999Z</time></trkpt><trkpt lat="44.30105714585897" lon="9.383806148027762"><ele>106.5</ele><time>2026-04-22T07:21:07.999Z</time></trkpt><trkpt lat="44.301267782171955" lon="9.383672756270968"><ele>106.0</ele><time>2026-04-22T07:21:08.999Z</time></trkpt><trkpt lat="44.301468068744406" lon="9.383518656515157"><ele>106.0</ele><time>2026-04-22T07:21:09.999Z</time></trkpt><trkpt lat="44.301662100344146" lon="9.383351930083844"><ele>106.0</ele><time>2026-04-22T07:21:10.999Z</time></trkpt><trkpt lat="44.301845028650355" lon="9.38317126987159"><ele>105.66666666666667</ele><time>2026-04-22T07:21:11.999Z</time></trkpt><trkpt lat="44.302012757902865" lon="9.382982901532433"><ele>105.33333333333334</ele><time>2026-04-22T07:21:12.999Z</time></trkpt><trkpt lat="44.30217345274281" lon="9.382776743375157"><ele>105.0</ele><time>2026-04-22T07:21:13.999Z</time></trkpt><trkpt lat="44.30232644925076" lon="9.382558835233622"><ele>105.0</ele><time>2026-04-22T07:21:14.999Z</time></trkpt><trkpt lat="44.3024712685092" lon="9.382330187076258"><ele>105.0</ele><time>2026-04-22T07:21:15.999Z</time></trkpt><trkpt lat="44.30260558020849" lon="9.382089134454555"><ele>105.0</ele><time>2026-04-22T07:21:16.999Z</time></trkpt><trkpt lat="44.30272922132682" lon="9.38183133624309"><ele>107.5</ele><time>2026-04-22T07:21:17.999Z</time></trkpt><trkpt lat="44.30284214722699" lon="9.381559910266768"><ele>110.0</ele><time>2026-04-22T07:21:18.999Z</time></trkpt><trkpt lat="44.302944598029306" lon="9.381277836862186"><ele>120.5</ele><time>2026-04-22T07:21:19.999Z</time></trkpt><trkpt lat="44.30303550209955" lon="9.380983576861915"><ele>131.0</ele><time>2026-04-22T07:21:20.999Z</time></trkpt><trkpt lat="44.3031191087676" lon="9.380683405348252"><ele>144.5</ele><time>2026-04-22T07:21:21.999Z</time></trkpt><trkpt lat="44.303200149487935" lon="9.380379536279609"><ele>158.0</ele><time>2026-04-22T07:21:22.999Z</time></trkpt><trkpt lat="44.30328197212814" lon="9.380076086564754"><ele>158.0</ele><time>2026-04-22T07:21:23.999Z</time></trkpt><trkpt lat="44.30336226705385" lon="9.379779935108257"><ele>158.0</ele><time>2026-04-22T07:21:24.999Z</time></trkpt><trkpt lat="44.30343945896951" lon="9.379491441974835"><ele>158.0</ele><time>2026-04-22T07:21:25.999Z</time></trkpt><trkpt lat="44.30351883334404" lon="9.379191833076412"><ele>166.66666666666666</ele><time>2026-04-22T07:21:27.064Z</time></trkpt><trkpt lat="44.303592277880306" lon="9.378917409243726"><ele>175.33333333333334</ele><time>2026-04-22T07:21:28.058Z</time></trkpt><trkpt lat="44.303665621079716" lon="9.378644038477086"><ele>184.0</ele><time>2026-04-22T07:21:29.056Z</time></trkpt><trkpt lat="44.30461780569377" lon="9.3746617690652"><ele>256.0</ele><time>2026-04-22T07:21:33.511Z</time></trkpt><trkpt lat="44.30494506261471" lon="9.37335978634086"><ele>198.0</ele><time>2026-04-22T07:21:34.512Z</time></trkpt><trkpt lat="44.30527131555356" lon="9.372058331543645"><ele>185.0</ele><time>2026-04-22T07:21:35.512Z</time></trkpt><trkpt lat="44.30560256259427" lon="9.370758370588494"><ele>133.0</ele><time>2026-04-22T07:21:36.513Z</time></trkpt><trkpt lat="44.305992337340854" lon="9.369490241350027"><ele>124.0</ele><time>2026-04-22T07:21:37.513Z</time></trkpt><trkpt lat="44.30644418906466" lon="9.368263612798913"><ele>104.0</ele><time>2026-04-22T07:21:38.514Z</time></trkpt><trkpt lat="44.306927470606176" lon="9.367168054685012"><ele>104.0</ele><time>2026-04-22T07:22:06.998Z</time></trkpt><trkpt lat="44.30704539561987" lon="9.366924621164815"><ele>104.0</ele><time>2026-04-22T07:22:07.998Z</time></trkpt><trkpt lat="44.30722569872611" lon="9.366488473421345"><ele>93.5</ele><time>2026-04-22T07:22:08.998Z</time></trkpt><trkpt lat="44.307337190753444" lon="9.366171555001783"><ele>83.0</ele><time>2026-04-22T07:22:09.998Z</time></trkpt><trkpt lat="44.30748853917592" lon="9.36589000336681"><ele>83.0</ele><time>2026-04-22T07:22:10.998Z</time></trkpt><trkpt lat="44.30764510935446" lon="9.365612369577118"><ele>83.0</ele><time>2026-04-22T07:22:11.998Z</time></trkpt><trkpt lat="44.30774457561494" lon="9.365601004691612"><ele>83.0</ele><time>2026-04-22T07:22:12.998Z</time></trkpt><trkpt lat="44.30786573639356" lon="9.365361714211943"><ele>86.33333333333334</ele><time>2026-04-22T07:22:13.998Z</time></trkpt><trkpt lat="44.30798984784201" lon="9.365118695123655"><ele>89.66666666666667</ele><time>2026-04-22T07:22:14.998Z</time></trkpt><trkpt lat="44.30813576043801" lon="9.36488727414999"><ele>93.0</ele><time>2026-04-22T07:22:15.998Z</time></trkpt><trkpt lat="44.30828549964827" lon="9.364664000834898"><ele>85.33333333333333</ele><time>2026-04-22T07:22:16.998Z</time></trkpt><trkpt lat="44.308427299601625" lon="9.364428606474746"><ele>77.66666666666666</ele><time>2026-04-22T07:22:17.998Z</time></trkpt><trkpt lat="44.30856888031966" lon="9.364191596730347"><ele>70.0</ele><time>2026-04-22T07:22:18.998Z</time></trkpt><trkpt lat="44.30872017418623" lon="9.363964400786058"><ele>72.0</ele><time>2026-04-22T07:22:19.998Z</time></trkpt><trkpt lat="44.30887692275076" lon="9.36373737445461"><ele>74.0</ele><time>2026-04-22T07:22:20.998Z</time></trkpt><trkpt lat="44.3090385598153" lon="9.363515976059256"><ele>67.5</ele><time>2026-04-22T07:22:21.998Z</time></trkpt><trkpt lat="44.30919827023074" lon="9.363270800454686"><ele>61.0</ele><time>2026-04-22T07:22:22.998Z</time></trkpt><trkpt lat="44.30936209110744" lon="9.36305623249498"><ele>61.666666666666664</ele><time>2026-04-22T07:22:23.998Z</time></trkpt><trkpt lat="44.309515874339986" lon="9.362836489603556"><ele>62.33333333333333</ele><time>2026-04-22T07:22:24.998Z</time></trkpt><trkpt lat="44.309671174211964" lon="9.362623434024963"><ele>63.0</ele><time>2026-04-22T07:22:25.998Z</time></trkpt><trkpt lat="44.309823968466056" lon="9.362416056513847"><ele>63.0</ele><time>2026-04-22T07:22:26.998Z</time></trkpt><trkpt lat="44.309973280860554" lon="9.362201218892928"><ele>63.0</ele><time>2026-04-22T07:22:27.998Z</time></trkpt><trkpt lat="44.31011754545423" lon="9.361991550773755"><ele>63.0</ele><time>2026-04-22T07:22:28.998Z</time></trkpt><trkpt lat="44.31026372309894" lon="9.361783075364226"><ele>61.33333333333333</ele><time>2026-04-22T07:22:29.998Z</time></trkpt><trkpt lat="44.3104134305138" lon="9.361563914239381"><ele>59.666666666666664</ele><time>2026-04-22T07:22:30.998Z</time></trkpt><trkpt lat="44.310562345799724" lon="9.361341405578672"><ele>58.0</ele><time>2026-04-22T07:22:31.998Z</time></trkpt><trkpt lat="44.31071600466862" lon="9.36111449120808"><ele>58.0</ele><time>2026-04-22T07:22:32.998Z</time></trkpt><trkpt lat="44.31087392935285" lon="9.36087658467161"><ele>58.0</ele><time>2026-04-22T07:22:33.998Z</time></trkpt><trkpt lat="44.31104281107403" lon="9.360635566258614"><ele>63.5</ele><time>2026-04-22T07:22:34.998Z</time></trkpt><trkpt lat="44.31122296108069" lon="9.36037491341954"><ele>69.0</ele><time>2026-04-22T07:22:36Z</time></trkpt><trkpt lat="44.31140629467138" lon="9.360101242816558"><ele>56.0</ele><time>2026-04-22T07:22:37Z</time></trkpt><trkpt lat="44.31159714997307" lon="9.359828192579354"><ele>43.0</ele><time>2026-04-22T07:22:38Z</time></trkpt><trkpt lat="44.31178895681979" lon="9.359559837424154"><ele>42.5</ele><time>2026-04-22T07:22:39Z</time></trkpt><trkpt lat="44.31197420058819" lon="9.359288384580623"><ele>42.0</ele><time>2026-04-22T07:22:40Z</time></trkpt><trkpt lat="44.31216373488965" lon="9.359016329562401"><ele>39.5</ele><time>2026-04-22T07:22:41Z</time></trkpt><trkpt lat="44.31235260715151" lon="9.358751374983747"><ele>37.0</ele><time>2026-04-22T07:22:42Z</time></trkpt><trkpt lat="44.31253567923808" lon="9.358491024738964"><ele>37.0</ele><time>2026-04-22T07:22:43Z</time></trkpt><trkpt lat="44.31272786795191" lon="9.358220053919064"><ele>37.0</ele><time>2026-04-22T07:22:44Z</time></trkpt><trkpt lat="44.31292000686173" lon="9.357949097313499"><ele>48.0</ele><time>2026-04-22T07:22:45Z</time></trkpt><trkpt lat="44.31312186670297" lon="9.357659145372741"><ele>59.0</ele><time>2026-04-22T07:22:46Z</time></trkpt><trkpt lat="44.313325902890554" lon="9.357362828140603"><ele>58.0</ele><time>2026-04-22T07:22:47Z</time></trkpt><trkpt lat="44.31352875497147" lon="9.357058591239754"><ele>57.0</ele><time>2026-04-22T07:22:48Z</time></trkpt><trkpt lat="44.313730438422816" lon="9.356751100311797"><ele>57.0</ele><time>2026-04-22T07:22:49Z</time></trkpt><trkpt lat="44.31393540444638" lon="9.356441479483161"><ele>57.0</ele><time>2026-04-22T07:22:50Z</time></trkpt><trkpt lat="44.31415217761231" lon="9.35612731432096"><ele>57.0</ele><time>2026-04-22T07:22:51Z</time></trkpt><trkpt lat="44.31436356257108" lon="9.355817073797803"><ele>57.0</ele><time>2026-04-22T07:22:51.999Z</time></trkpt><trkpt lat="44.31457011483989" lon="9.355508665983889"><ele>47.5</ele><time>2026-04-22T07:22:52.999Z</time></trkpt><trkpt lat="44.314751332961094" lon="9.355247837740686"><ele>38.0</ele><time>2026-04-22T07:22:53.999Z</time></trkpt><trkpt lat="44.31499304132274" lon="9.354966343673045"><ele>37.5</ele><time>2026-04-22T07:22:54.999Z</time></trkpt><trkpt lat="44.31522542504654" lon="9.354701175243742"><ele>37.0</ele><time>2026-04-22T07:22:55.999Z</time></trkpt><trkpt lat="44.315414957666015" lon="9.35445992532367"><ele>34.0</ele><time>2026-04-22T07:22:56.999Z</time></trkpt><trkpt lat="44.315590775088886" lon="9.354221631394761"><ele>31.0</ele><time>2026-04-22T07:22:57.999Z</time></trkpt><trkpt lat="44.31575799540843" lon="9.353979684987968"><ele>31.0</ele><time>2026-04-22T07:22:58.999Z</time></trkpt><trkpt lat="44.315914927616035" lon="9.353744090113157"><ele>31.0</ele><time>2026-04-22T07:22:59.999Z</time></trkpt><trkpt lat="44.316069713625765" lon="9.353486209194969"><ele>31.0</ele><time>2026-04-22T07:23:00.999Z</time></trkpt><trkpt lat="44.31621967053295" lon="9.353215794535096"><ele>31.0</ele><time>2026-04-22T07:23:01.999Z</time></trkpt><trkpt lat="44.31636976933976" lon="9.352932897482525"><ele>33.5</ele><time>2026-04-22T07:23:02.999Z</time></trkpt><trkpt lat="44.316515481334356" lon="9.352622892062747"><ele>36.0</ele><time>2026-04-22T07:23:03.999Z</time></trkpt><trkpt lat="44.31665752105581" lon="9.352321567557949"><ele>34.0</ele><time>2026-04-22T07:23:04.999Z</time></trkpt><trkpt lat="44.31679506442863" lon="9.352021314187427"><ele>32.0</ele><time>2026-04-22T07:23:05.999Z</time></trkpt><trkpt lat="44.31693112408524" lon="9.351724114285103"><ele>32.0</ele><time>2026-04-22T07:23:06.999Z</time></trkpt><trkpt lat="44.317075133402106" lon="9.351408715772786"><ele>32.0</ele><time>2026-04-22T07:23:07.999Z</time></trkpt><trkpt lat="44.31721410331931" lon="9.351105549564542"><ele>36.5</ele><time>2026-04-22T07:23:08.999Z</time></trkpt><trkpt lat="44.317350528422146" lon="9.35080298899731"><ele>41.0</ele><time>2026-04-22T07:23:09.999Z</time></trkpt><trkpt lat="44.31748947271413" lon="9.350493700626044"><ele>42.5</ele><time>2026-04-22T07:23:10.999Z</time></trkpt><trkpt lat="44.317624879219295" lon="9.350186441823986"><ele>44.0</ele><time>2026-04-22T07:23:11.999Z</time></trkpt><trkpt lat="44.31775646862471" lon="9.349888408937034"><ele>44.0</ele><time>2026-04-22T07:23:12.999Z</time></trkpt><trkpt lat="44.3178870778926" lon="9.349594227323651"><ele>44.0</ele><time>2026-04-22T07:23:13.999Z</time></trkpt><trkpt lat="44.31800401126841" lon="9.34929974201"><ele>39.5</ele><time>2026-04-22T07:23:14.999Z</time></trkpt><trkpt lat="44.31813116759042" lon="9.349006465091005"><ele>35.0</ele><time>2026-04-22T07:23:15.999Z</time></trkpt><trkpt lat="44.318242135199284" lon="9.348716320234194"><ele>35.0</ele><time>2026-04-22T07:23:16.999Z</time></trkpt><trkpt lat="44.31835013190988" lon="9.348424104098108"><ele>35.0</ele><time>2026-04-22T07:23:17.999Z</time></trkpt><trkpt lat="44.31845432381487" lon="9.348144146170926"><ele>32.33333333333333</ele><time>2026-04-22T07:23:18.999Z</time></trkpt><trkpt lat="44.31855604953473" lon="9.347867312545743"><ele>29.666666666666664</ele><time>2026-04-22T07:23:19.999Z</time></trkpt><trkpt lat="44.31865909090979" lon="9.347592662352623"><ele>27.0</ele><time>2026-04-22T07:23:20.999Z</time></trkpt><trkpt lat="44.31875532771243" lon="9.347324744064853"><ele>21.0</ele><time>2026-04-22T07:23:21.999Z</time></trkpt><trkpt lat="44.31885229246098" lon="9.347057493260463"><ele>15.0</ele><time>2026-04-22T07:23:22.999Z</time></trkpt><trkpt lat="44.318947370412744" lon="9.34679583430495"><ele>9.0</ele><time>2026-04-22T07:23:23.999Z</time></trkpt><trkpt lat="44.31904629220861" lon="9.346531309323396"><ele>8.333333333333334</ele><time>2026-04-22T07:23:24.999Z</time></trkpt><trkpt lat="44.319138265672954" lon="9.346268799820779"><ele>7.666666666666667</ele><time>2026-04-22T07:23:25.999Z</time></trkpt><trkpt lat="44.319233820766335" lon="9.34600307445401"><ele>7.0</ele><time>2026-04-22T07:23:26.999Z</time></trkpt><trkpt lat="44.31933243839621" lon="9.3457288145755"><ele>7.0</ele><time>2026-04-22T07:23:27.999Z</time></trkpt><trkpt lat="44.31943406874053" lon="9.345453254344802"><ele>7.0</ele><time>2026-04-22T07:23:28.999Z</time></trkpt><trkpt lat="44.31953560446577" lon="9.345176237611074"><ele>7.0</ele><time>2026-04-22T07:23:29.999Z</time></trkpt><trkpt lat="44.31963723383728" lon="9.344897877790846"><ele>7.5</ele><time>2026-04-22T07:23:30.999Z</time></trkpt><trkpt lat="44.31973951648636" lon="9.344614657958289"><ele>8.0</ele><time>2026-04-22T07:23:31.999Z</time></trkpt><trkpt lat="44.31984129352404" lon="9.344336251954672"><ele>8.0</ele><time>2026-04-22T07:23:32.999Z</time></trkpt><trkpt lat="44.31994619930202" lon="9.344049045751671"><ele>8.0</ele><time>2026-04-22T07:23:33.999Z</time></trkpt><trkpt lat="44.32004930740253" lon="9.3437620821167"><ele>9.0</ele><time>2026-04-22T07:23:34.999Z</time></trkpt><trkpt lat="44.32015327608241" lon="9.343476079343821"><ele>10.0</ele><time>2026-04-22T07:23:35.999Z</time></trkpt><trkpt lat="44.32026013878949" lon="9.343184556707207"><ele>9.0</ele><time>2026-04-22T07:23:36.999Z</time></trkpt><trkpt lat="44.32036606117521" lon="9.342894616672876"><ele>8.0</ele><time>2026-04-22T07:23:37.999Z</time></trkpt><trkpt lat="44.32046859165353" lon="9.342612988727264"><ele>9.0</ele><time>2026-04-22T07:23:38.999Z</time></trkpt><trkpt lat="44.32057268551243" lon="9.342328170723968"><ele>10.0</ele><time>2026-04-22T07:23:39.999Z</time></trkpt><trkpt lat="44.320673106215715" lon="9.342049734424174"><ele>10.0</ele><time>2026-04-22T07:23:40.999Z</time></trkpt><trkpt lat="44.32077247056252" lon="9.341771567458249"><ele>10.0</ele><time>2026-04-22T07:23:41.999Z</time></trkpt><trkpt lat="44.32087470423034" lon="9.341492723277273"><ele>10.0</ele><time>2026-04-22T07:23:42.999Z</time></trkpt><trkpt lat="44.32097709855775" lon="9.3412084164593"><ele>15.0</ele><time>2026-04-22T07:23:43.999Z</time></trkpt><trkpt lat="44.321083544849266" lon="9.340922732275503"><ele>20.0</ele><time>2026-04-22T07:23:44.999Z</time></trkpt><trkpt lat="44.3211872434391" lon="9.340639564729946"><ele>23.5</ele><time>2026-04-22T07:23:45.999Z</time></trkpt><trkpt lat="44.32129207859564" lon="9.340353726940808"><ele>27.0</ele><time>2026-04-22T07:23:46.999Z</time></trkpt><trkpt lat="44.32140058345501" lon="9.340060951681807"><ele>35.0</ele><time>2026-04-22T07:23:47.999Z</time></trkpt><trkpt lat="44.32150015561553" lon="9.339786448496683"><ele>43.0</ele><time>2026-04-22T07:23:48.999Z</time></trkpt><trkpt lat="44.32160941895801" lon="9.3394944731972"><ele>43.0</ele><time>2026-04-22T07:23:49.999Z</time></trkpt><trkpt lat="44.32171824797429" lon="9.339213590215008"><ele>43.0</ele><time>2026-04-22T07:23:50.999Z</time></trkpt><trkpt lat="44.32183561071722" lon="9.338927912275441"><ele>45.0</ele><time>2026-04-22T07:23:51.999Z</time></trkpt><trkpt lat="44.32195185284196" lon="9.338641371897793"><ele>47.0</ele><time>2026-04-22T07:23:52.999Z</time></trkpt><trkpt lat="44.32207945362823" lon="9.338354118593864"><ele>47.0</ele><time>2026-04-22T07:23:53.999Z</time></trkpt><trkpt lat="44.32220727716267" lon="9.338067347634741"><ele>47.0</ele><time>2026-04-22T07:23:54.999Z</time></trkpt><trkpt lat="44.32232891348399" lon="9.337782672269064"><ele>52.0</ele><time>2026-04-22T07:23:55.999Z</time></trkpt><trkpt lat="44.322454053564456" lon="9.337490293297657"><ele>57.0</ele><time>2026-04-22T07:23:56.999Z</time></trkpt><trkpt lat="44.32257958746259" lon="9.337196154209385"><ele>57.0</ele><time>2026-04-22T07:23:57.999Z</time></trkpt><trkpt lat="44.32270586820498" lon="9.336908716427564"><ele>57.0</ele><time>2026-04-22T07:23:58.999Z</time></trkpt><trkpt lat="44.32283858487408" lon="9.336592269920137"><ele>55.0</ele><time>2026-04-22T07:23:59.999Z</time></trkpt><trkpt lat="44.3229628779228" lon="9.336251915434406"><ele>53.0</ele><time>2026-04-22T07:24:00.999Z</time></trkpt><trkpt lat="44.323089360689046" lon="9.335899792780914"><ele>53.0</ele><time>2026-04-22T07:24:01.999Z</time></trkpt><trkpt lat="44.32322781574981" lon="9.335590955662022"><ele>53.0</ele><time>2026-04-22T07:24:02.999Z</time></trkpt><trkpt lat="44.323353618792524" lon="9.335298993465436"><ele>50.0</ele><time>2026-04-22T07:24:03.999Z</time></trkpt><trkpt lat="44.323468820229586" lon="9.335023285734875"><ele>47.0</ele><time>2026-04-22T07:24:04.999Z</time></trkpt><trkpt lat="44.32358042840438" lon="9.334755735186276"><ele>47.666666666666664</ele><time>2026-04-22T07:24:05.999Z</time></trkpt><trkpt lat="44.32368850750015" lon="9.33449875532709"><ele>48.33333333333333</ele><time>2026-04-22T07:24:06.999Z</time></trkpt><trkpt lat="44.32379686920512" lon="9.334240323421673"><ele>49.0</ele><time>2026-04-22T07:24:07.998Z</time></trkpt><trkpt lat="44.323904983506125" lon="9.333979945528728"><ele>58.33333333333333</ele><time>2026-04-22T07:24:08.998Z</time></trkpt><trkpt lat="44.32401759933928" lon="9.333715168389405"><ele>67.66666666666667</ele><time>2026-04-22T07:24:09.998Z</time></trkpt><trkpt lat="44.32412909691453" lon="9.333444285070035"><ele>77.0</ele><time>2026-04-22T07:24:10.998Z</time></trkpt><trkpt lat="44.32426099041162" lon="9.333181763512291"><ele>85.5</ele><time>2026-04-22T07:24:11.998Z</time></trkpt><trkpt lat="44.32440341942628" lon="9.332910926949229"><ele>94.0</ele><time>2026-04-22T07:24:12.998Z</time></trkpt><trkpt lat="44.32453598601907" lon="9.332655638626152"><ele>94.0</ele><time>2026-04-22T07:24:13.998Z</time></trkpt><trkpt lat="44.32462990167882" lon="9.332368823890185"><ele>94.0</ele><time>2026-04-22T07:24:14.998Z</time></trkpt><trkpt lat="44.32472559617205" lon="9.332099124049234"><ele>94.0</ele><time>2026-04-22T07:24:15.998Z</time></trkpt><trkpt lat="44.324828504006796" lon="9.331802072109587"><ele>99.66666666666666</ele><time>2026-04-22T07:24:17.054Z</time></trkpt><trkpt lat="44.32491886136858" lon="9.331527382400806"><ele>105.33333333333333</ele><time>2026-04-22T07:24:18.058Z</time></trkpt><trkpt lat="44.32500714599051" lon="9.331246667604251"><ele>111.0</ele><time>2026-04-22T07:24:19.052Z</time></trkpt><trkpt lat="44.32509127702828" lon="9.33096763622575"><ele>111.0</ele><time>2026-04-22T07:24:20.053Z</time></trkpt><trkpt lat="44.32517187377594" lon="9.330687891657595"><ele>111.0</ele><time>2026-04-22T07:24:21.052Z</time></trkpt><trkpt lat="44.325692921539954" lon="9.32813296748886"><ele>74.0</ele><time>2026-04-22T07:24:26.998Z</time></trkpt><trkpt lat="44.325762403076496" lon="9.327767832065408"><ele>37.0</ele><time>2026-04-22T07:24:27.998Z</time></trkpt><trkpt lat="44.32579621955849" lon="9.327367844391668"><ele>37.5</ele><time>2026-04-22T07:24:28.998Z</time></trkpt><trkpt lat="44.325873430625194" lon="9.327010189153746"><ele>38.0</ele><time>2026-04-22T07:24:29.998Z</time></trkpt><trkpt lat="44.32593333774739" lon="9.326650721096453"><ele>41.0</ele><time>2026-04-22T07:24:30.998Z</time></trkpt><trkpt lat="44.326000222596655" lon="9.326289738572825"><ele>44.0</ele><time>2026-04-22T07:24:31.998Z</time></trkpt><trkpt lat="44.326060479863315" lon="9.325925333514057"><ele>45.5</ele><time>2026-04-22T07:24:32.998Z</time></trkpt><trkpt lat="44.32612321484227" lon="9.32555605767551"><ele>47.0</ele><time>2026-04-22T07:24:33.998Z</time></trkpt><trkpt lat="44.326183705969584" lon="9.32519245246409"><ele>47.0</ele><time>2026-04-22T07:24:34.998Z</time></trkpt><trkpt lat="44.3262446953734" lon="9.324838372797362"><ele>47.0</ele><time>2026-04-22T07:24:35.998Z</time></trkpt><trkpt lat="44.32631416705136" lon="9.32446391000566"><ele>44.0</ele><time>2026-04-22T07:24:36.998Z</time></trkpt><trkpt lat="44.32637583820677" lon="9.324119642729833"><ele>41.0</ele><time>2026-04-22T07:24:37.998Z</time></trkpt><trkpt lat="44.32644102843151" lon="9.323784152309544"><ele>41.0</ele><time>2026-04-22T07:24:38.998Z</time></trkpt><trkpt lat="44.326501012553294" lon="9.323474632814804"><ele>41.0</ele><time>2026-04-22T07:24:39.998Z</time></trkpt><trkpt lat="44.32655185305498" lon="9.323153705488172"><ele>34.5</ele><time>2026-04-22T07:24:40.998Z</time></trkpt><trkpt lat="44.32661020936786" lon="9.322845894417334"><ele>28.0</ele><time>2026-04-22T07:24:41.999Z</time></trkpt><trkpt lat="44.326673536989354" lon="9.322530008677415"><ele>22.0</ele><time>2026-04-22T07:24:42.999Z</time></trkpt><trkpt lat="44.32674734968196" lon="9.32222648865912"><ele>16.0</ele><time>2026-04-22T07:24:43.999Z</time></trkpt><trkpt lat="44.3268308768576" lon="9.321920676886716"><ele>16.0</ele><time>2026-04-22T07:24:44.999Z</time></trkpt><trkpt lat="44.32692381570019" lon="9.32162232826462"><ele>16.0</ele><time>2026-04-22T07:24:45.999Z</time></trkpt><trkpt lat="44.32702470433734" lon="9.321321091859865"><ele>13.0</ele><time>2026-04-22T07:24:46.999Z</time></trkpt><trkpt lat="44.32713439216923" lon="9.321024536639028"><ele>10.0</ele><time>2026-04-22T07:24:47.999Z</time></trkpt><trkpt lat="44.327254140795574" lon="9.320727455851884"><ele>13.0</ele><time>2026-04-22T07:24:48.999Z</time></trkpt><trkpt lat="44.32738399153163" lon="9.320424591373547"><ele>16.0</ele><time>2026-04-22T07:24:49.999Z</time></trkpt><trkpt lat="44.32751869088002" lon="9.3201293715948"><ele>16.0</ele><time>2026-04-22T07:24:50.999Z</time></trkpt><trkpt lat="44.32766124127966" lon="9.31982561169059"><ele>16.0</ele><time>2026-04-22T07:24:51.999Z</time></trkpt><trkpt lat="44.32780246297831" lon="9.319518257889374"><ele>18.0</ele><time>2026-04-22T07:24:52.999Z</time></trkpt><trkpt lat="44.32794089013281" lon="9.319211664168325"><ele>20.0</ele><time>2026-04-22T07:24:53.999Z</time></trkpt><trkpt lat="44.328074384687234" lon="9.318905002512938"><ele>29.5</ele><time>2026-04-22T07:24:54.999Z</time></trkpt><trkpt lat="44.328204270685276" lon="9.31860899403237"><ele>39.0</ele><time>2026-04-22T07:24:55.999Z</time></trkpt><trkpt lat="44.32833117664539" lon="9.31831869941199"><ele>48.0</ele><time>2026-04-22T07:24:56.999Z</time></trkpt><trkpt lat="44.32844979671177" lon="9.31802330328506"><ele>57.0</ele><time>2026-04-22T07:24:57.999Z</time></trkpt><trkpt lat="44.328559474437945" lon="9.317724375369027"><ele>57.0</ele><time>2026-04-22T07:24:58.999Z</time></trkpt><trkpt lat="44.32866717870189" lon="9.317415131628243"><ele>57.0</ele><time>2026-04-22T07:24:59.999Z</time></trkpt><trkpt lat="44.328765527745695" lon="9.317097739259381"><ele>64.5</ele><time>2026-04-22T07:25:00.999Z</time></trkpt><trkpt lat="44.328862050204" lon="9.316766356319535"><ele>72.0</ele><time>2026-04-22T07:25:01.999Z</time></trkpt><trkpt lat="44.32895545129523" lon="9.316425076679531"><ele>75.0</ele><time>2026-04-22T07:25:02.999Z</time></trkpt><trkpt lat="44.32904709152346" lon="9.316077058054276"><ele>78.0</ele><time>2026-04-22T07:25:03.999Z</time></trkpt><trkpt lat="44.32913964088333" lon="9.315720715229341"><ele>74.5</ele><time>2026-04-22T07:25:04.999Z</time></trkpt><trkpt lat="44.32923084258981" lon="9.315355411049842"><ele>71.0</ele><time>2026-04-22T07:25:05.999Z</time></trkpt><trkpt lat="44.32931951607411" lon="9.314989239212638"><ele>73.5</ele><time>2026-04-22T07:25:06.999Z</time></trkpt><trkpt lat="44.32943374437505" lon="9.314685880739248"><ele>76.0</ele><time>2026-04-22T07:25:07.999Z</time></trkpt><trkpt lat="44.32957140841516" lon="9.314332260442992"><ele>76.0</ele><time>2026-04-22T07:25:08.999Z</time></trkpt><trkpt lat="44.3296820946934" lon="9.31395794667978"><ele>76.0</ele><time>2026-04-22T07:25:09.999Z</time></trkpt><trkpt lat="44.32979842656366" lon="9.313626900195919"><ele>71.0</ele><time>2026-04-22T07:25:10.999Z</time></trkpt><trkpt lat="44.32990340211291" lon="9.313298341014848"><ele>66.0</ele><time>2026-04-22T07:25:11.999Z</time></trkpt><trkpt lat="44.330000696364095" lon="9.312966976546644"><ele>66.0</ele><time>2026-04-22T07:25:12.999Z</time></trkpt><trkpt lat="44.3300942929291" lon="9.312634825333724"><ele>66.0</ele><time>2026-04-22T07:25:13.999Z</time></trkpt><trkpt lat="44.33018594914405" lon="9.31229858846817"><ele>72.5</ele><time>2026-04-22T07:25:14.999Z</time></trkpt><trkpt lat="44.33027312868574" lon="9.311961589179074"><ele>79.0</ele><time>2026-04-22T07:25:15.999Z</time></trkpt><trkpt lat="44.330356842502006" lon="9.311623208244479"><ele>78.5</ele><time>2026-04-22T07:25:16.999Z</time></trkpt><trkpt lat="44.3304353010197" lon="9.311286769262471"><ele>78.0</ele><time>2026-04-22T07:25:17.999Z</time></trkpt><trkpt lat="44.33050791000976" lon="9.310941151078431"><ele>66.5</ele><time>2026-04-22T07:25:18.999Z</time></trkpt><trkpt lat="44.33058601860726" lon="9.310625831539575"><ele>55.0</ele><time>2026-04-22T07:25:19.999Z</time></trkpt><trkpt lat="44.33065728770854" lon="9.310287296394346"><ele>55.0</ele><time>2026-04-22T07:25:20.999Z</time></trkpt><trkpt lat="44.33072671395261" lon="9.309944109013076"><ele>55.0</ele><time>2026-04-22T07:25:21.999Z</time></trkpt><trkpt lat="44.330795480406266" lon="9.309610930776891"><ele>64.5</ele><time>2026-04-22T07:25:22.999Z</time></trkpt><trkpt lat="44.330862345487006" lon="9.309284444369446"><ele>74.0</ele><time>2026-04-22T07:25:23.999Z</time></trkpt><trkpt lat="44.33093019721807" lon="9.308964661412121"><ele>83.5</ele><time>2026-04-22T07:25:24.999Z</time></trkpt><trkpt lat="44.33099695636947" lon="9.308649578731067"><ele>93.0</ele><time>2026-04-22T07:25:25.999Z</time></trkpt><trkpt lat="44.33105600488189" lon="9.308335627073289"><ele>96.0</ele><time>2026-04-22T07:25:26.999Z</time></trkpt><trkpt lat="44.33110947069815" lon="9.30802780831546"><ele>99.0</ele><time>2026-04-22T07:25:27.999Z</time></trkpt><trkpt lat="44.331147249359766" lon="9.307725565305082"><ele>102.0</ele><time>2026-04-22T07:25:28.999Z</time></trkpt><trkpt lat="44.33118683416206" lon="9.307411648604395"><ele>104.66666666666666</ele><time>2026-04-22T07:25:29.999Z</time></trkpt><trkpt lat="44.331208919743915" lon="9.307105969632273"><ele>107.33333333333333</ele><time>2026-04-22T07:25:30.999Z</time></trkpt><trkpt lat="44.33121484379554" lon="9.306801605316513"><ele>110.0</ele><time>2026-04-22T07:25:31.999Z</time></trkpt><trkpt lat="44.33120868136009" lon="9.306501894053254"><ele>110.0</ele><time>2026-04-22T07:25:32.999Z</time></trkpt><trkpt lat="44.331189779348776" lon="9.306197421805951"><ele>110.0</ele><time>2026-04-22T07:25:33.999Z</time></trkpt><trkpt lat="44.33116366132111" lon="9.305899301496508"><ele>110.0</ele><time>2026-04-22T07:25:34.999Z</time></trkpt><trkpt lat="44.331132309043454" lon="9.30559636186442"><ele>108.0</ele><time>2026-04-22T07:25:35.999Z</time></trkpt><trkpt lat="44.331099322286754" lon="9.305292604912548"><ele>106.0</ele><time>2026-04-22T07:25:36.999Z</time></trkpt><trkpt lat="44.33106555050841" lon="9.30498868218029"><ele>104.0</ele><time>2026-04-22T07:25:37.999Z</time></trkpt><trkpt lat="44.33103985615745" lon="9.304683747003981"><ele>103.33333333333333</ele><time>2026-04-22T07:25:38.999Z</time></trkpt><trkpt lat="44.331027365037386" lon="9.304376969099295"><ele>102.66666666666666</ele><time>2026-04-22T07:25:39.999Z</time></trkpt><trkpt lat="44.33102369515613" lon="9.304070073192763"><ele>102.0</ele><time>2026-04-22T07:25:40.999Z</time></trkpt><trkpt lat="44.33102856272064" lon="9.303760829612745"><ele>105.0</ele><time>2026-04-22T07:25:41.999Z</time></trkpt><trkpt lat="44.331046034434245" lon="9.3034479388564"><ele>108.0</ele><time>2026-04-22T07:25:42.999Z</time></trkpt><trkpt lat="44.33106629408979" lon="9.303128866889994"><ele>108.66666666666666</ele><time>2026-04-22T07:25:43.999Z</time></trkpt><trkpt lat="44.33108621582306" lon="9.302818112928088"><ele>109.33333333333333</ele><time>2026-04-22T07:25:44.999Z</time></trkpt><trkpt lat="44.33110286893606" lon="9.302515788898715"><ele>110.0</ele><time>2026-04-22T07:25:45.999Z</time></trkpt><trkpt lat="44.331117356862265" lon="9.302233355356517"><ele>110.0</ele><time>2026-04-22T07:25:46.999Z</time></trkpt><trkpt lat="44.33112590779148" lon="9.301960289439814"><ele>110.0</ele><time>2026-04-22T07:25:47.999Z</time></trkpt><trkpt lat="44.33112336153093" lon="9.301688263090067"><ele>110.0</ele><time>2026-04-22T07:25:48.999Z</time></trkpt><trkpt lat="44.331110286804694" lon="9.301414006200172"><ele>108.33333333333333</ele><time>2026-04-22T07:25:49.999Z</time></trkpt><trkpt lat="44.33108732831914" lon="9.30113107428669"><ele>106.66666666666666</ele><time>2026-04-22T07:25:50.999Z</time></trkpt><trkpt lat="44.33105606587558" lon="9.30084245000407"><ele>105.0</ele><time>2026-04-22T07:25:51.999Z</time></trkpt><trkpt lat="44.33102496330737" lon="9.300549001098066"><ele>105.0</ele><time>2026-04-22T07:25:52.999Z</time></trkpt><trkpt lat="44.3309938739437" lon="9.300266693012798"><ele>105.0</ele><time>2026-04-22T07:25:53.999Z</time></trkpt><trkpt lat="44.33096843620817" lon="9.29999078925118"><ele>105.0</ele><time>2026-04-22T07:25:54.999Z</time></trkpt><trkpt lat="44.33095571731514" lon="9.299714368191232"><ele>107.33333333333334</ele><time>2026-04-22T07:25:55.999Z</time></trkpt><trkpt lat="44.33094896412307" lon="9.299435826134289"><ele>109.66666666666667</ele><time>2026-04-22T07:25:56.999Z</time></trkpt><trkpt lat="44.33095445172066" lon="9.299152882915289"><ele>112.0</ele><time>2026-04-22T07:25:57.999Z</time></trkpt><trkpt lat="44.33096758676562" lon="9.298868595892154"><ele>117.66666666666667</ele><time>2026-04-22T07:25:58.999Z</time></trkpt><trkpt lat="44.33098573498876" lon="9.298579758206673"><ele>123.33333333333334</ele><time>2026-04-22T07:25:59.999Z</time></trkpt><trkpt lat="44.331016510533914" lon="9.2982895554466"><ele>129.0</ele><time>2026-04-22T07:26:00.999Z</time></trkpt><trkpt lat="44.33106009999" lon="9.297996215150222"><ele>131.66666666666666</ele><time>2026-04-22T07:26:01.999Z</time></trkpt><trkpt lat="44.33111279971775" lon="9.297703506909691"><ele>134.33333333333331</ele><time>2026-04-22T07:26:02.999Z</time></trkpt><trkpt lat="44.331176527974144" lon="9.297411958613354"><ele>137.0</ele><time>2026-04-22T07:26:03.999Z</time></trkpt><trkpt lat="44.33125148409099" lon="9.297120351983748"><ele>139.66666666666666</ele><time>2026-04-22T07:26:04.999Z</time></trkpt><trkpt lat="44.33133052916681" lon="9.296832951245296"><ele>142.33333333333334</ele><time>2026-04-22T07:26:05.999Z</time></trkpt><trkpt lat="44.33140631704359" lon="9.29655263560038"><ele>145.0</ele><time>2026-04-22T07:26:06.999Z</time></trkpt><trkpt lat="44.33148507785868" lon="9.29628265039487"><ele>141.0</ele><time>2026-04-22T07:26:07.999Z</time></trkpt><trkpt lat="44.33156512103291" lon="9.296019004669581"><ele>137.0</ele><time>2026-04-22T07:26:08.999Z</time></trkpt><trkpt lat="44.331644373170136" lon="9.295760832876436"><ele>133.0</ele><time>2026-04-22T07:26:09.999Z</time></trkpt><trkpt lat="44.33172751497691" lon="9.29550735120719"><ele>133.0</ele><time>2026-04-22T07:26:10.999Z</time></trkpt><trkpt lat="44.33181750002599" lon="9.295255938357274"><ele>133.0</ele><time>2026-04-22T07:26:11.999Z</time></trkpt><trkpt lat="44.33191514359692" lon="9.295005929601787"><ele>133.0</ele><time>2026-04-22T07:26:12.999Z</time></trkpt><trkpt lat="44.332023774702584" lon="9.294751746132839"><ele>129.0</ele><time>2026-04-22T07:26:13.998Z</time></trkpt><trkpt lat="44.33214751340469" lon="9.29450507107562"><ele>125.0</ele><time>2026-04-22T07:26:14.998Z</time></trkpt><trkpt lat="44.33228031362148" lon="9.29426358134231"><ele>121.0</ele><time>2026-04-22T07:26:15.998Z</time></trkpt><trkpt lat="44.33241964518873" lon="9.294029174985829"><ele>128.66666666666669</ele><time>2026-04-22T07:26:16.998Z</time></trkpt><trkpt lat="44.332566405044425" lon="9.293808708114979"><ele>136.33333333333334</ele><time>2026-04-22T07:26:17.998Z</time></trkpt><trkpt lat="44.332720264533656" lon="9.293595816476769"><ele>144.0</ele><time>2026-04-22T07:26:18.998Z</time></trkpt><trkpt lat="44.332882618275484" lon="9.293394336974158"><ele>144.0</ele><time>2026-04-22T07:26:19.998Z</time></trkpt><trkpt lat="44.33305146794003" lon="9.293200414451642"><ele>144.0</ele><time>2026-04-22T07:26:20.998Z</time></trkpt><trkpt lat="44.33322810193429" lon="9.293017490596446"><ele>144.0</ele><time>2026-04-22T07:26:21.998Z</time></trkpt><trkpt lat="44.33341474696563" lon="9.292840372709346"><ele>143.0</ele><time>2026-04-22T07:26:22.998Z</time></trkpt><trkpt lat="44.3336066553907" lon="9.292663065369924"><ele>142.0</ele><time>2026-04-22T07:26:23.998Z</time></trkpt><trkpt lat="44.333803794529544" lon="9.292487377405763"><ele>138.5</ele><time>2026-04-22T07:26:24.998Z</time></trkpt><trkpt lat="44.334005771390025" lon="9.29231323469485"><ele>135.0</ele><time>2026-04-22T07:26:25.998Z</time></trkpt><trkpt lat="44.334202158351374" lon="9.292136580024515"><ele>138.33333333333334</ele><time>2026-04-22T07:26:26.998Z</time></trkpt><trkpt lat="44.334386935185655" lon="9.291961850761204"><ele>141.66666666666669</ele><time>2026-04-22T07:26:27.998Z</time></trkpt><trkpt lat="44.33456386039605" lon="9.291791789926801"><ele>145.0</ele><time>2026-04-22T07:26:28.998Z</time></trkpt><trkpt lat="44.334736626779176" lon="9.29161494824892"><ele>145.0</ele><time>2026-04-22T07:26:29.998Z</time></trkpt><trkpt lat="44.33490656964216" lon="9.291435269335139"><ele>145.0</ele><time>2026-04-22T07:26:30.998Z</time></trkpt><trkpt lat="44.33507825249895" lon="9.291237872631255"><ele>145.0</ele><time>2026-04-22T07:26:31.998Z</time></trkpt><trkpt lat="44.33524605919669" lon="9.291024783252718"><ele>152.0</ele><time>2026-04-22T07:26:32.998Z</time></trkpt><trkpt lat="44.33541573272691" lon="9.29079128447507"><ele>159.0</ele><time>2026-04-22T07:26:33.998Z</time></trkpt><trkpt lat="44.335582227559314" lon="9.290546547690427"><ele>168.0</ele><time>2026-04-22T07:26:34.998Z</time></trkpt><trkpt lat="44.33575299226038" lon="9.290293485449974"><ele>177.0</ele><time>2026-04-22T07:26:35.998Z</time></trkpt><trkpt lat="44.33591879642807" lon="9.290034323162878"><ele>177.0</ele><time>2026-04-22T07:26:36.998Z</time></trkpt><trkpt lat="44.33607543348243" lon="9.28977362240266"><ele>177.0</ele><time>2026-04-22T07:26:37.998Z</time></trkpt><trkpt lat="44.33622611361584" lon="9.289513689095719"><ele>193.0</ele><time>2026-04-22T07:26:38.998Z</time></trkpt><trkpt lat="44.3363694732582" lon="9.289254804185504"><ele>209.0</ele><time>2026-04-22T07:26:39.998Z</time></trkpt><trkpt lat="44.33651295453015" lon="9.28898843296507"><ele>232.0</ele><time>2026-04-22T07:26:40.998Z</time></trkpt><trkpt lat="44.336667934512825" lon="9.288699275263902"><ele>255.0</ele><time>2026-04-22T07:26:42.056Z</time></trkpt><trkpt lat="44.33681359997076" lon="9.28842687766908"><ele>368.0</ele><time>2026-04-22T07:26:43.057Z</time></trkpt><trkpt lat="44.3382173329245" lon="9.285824829642085"><ele>364.0</ele><time>2026-04-22T07:26:53.764Z</time></trkpt><trkpt lat="44.33873818666164" lon="9.284856291061836"><ele>374.3333333333333</ele><time>2026-04-22T07:26:58.418Z</time></trkpt><trkpt lat="44.33890134110199" lon="9.284534671599488"><ele>384.66666666666663</ele><time>2026-04-22T07:26:59.836Z</time></trkpt><trkpt lat="44.33898392952554" lon="9.284376840579142"><ele>395.0</ele><time>2026-04-22T07:27:00.635Z</time></trkpt><trkpt lat="44.33908141436057" lon="9.284189322268423"><ele>127.0</ele><time>2026-04-22T07:27:01.59Z</time></trkpt><trkpt lat="44.34338342189542" lon="9.275111765181213"><ele>127.0</ele><time>2026-04-22T07:27:24.998Z</time></trkpt><trkpt lat="44.34350311656897" lon="9.274802016226701"><ele>127.0</ele><time>2026-04-22T07:27:25.998Z</time></trkpt><trkpt lat="44.34362411186134" lon="9.27445902785382"><ele>115.0</ele><time>2026-04-22T07:27:26.997Z</time></trkpt><trkpt lat="44.34375370289362" lon="9.27415676208991"><ele>103.0</ele><time>2026-04-22T07:27:27.997Z</time></trkpt><trkpt lat="44.34386834783868" lon="9.27383578808913"><ele>85.0</ele><time>2026-04-22T07:27:28.997Z</time></trkpt><trkpt lat="44.343985588575464" lon="9.273525126206222"><ele>67.0</ele><time>2026-04-22T07:27:29.997Z</time></trkpt><trkpt lat="44.34409238535031" lon="9.273221367621769"><ele>77.5</ele><time>2026-04-22T07:27:30.999Z</time></trkpt><trkpt lat="44.34420334219381" lon="9.272912616138882"><ele>88.0</ele><time>2026-04-22T07:27:31.999Z</time></trkpt><trkpt lat="44.344310348267385" lon="9.272625247461363"><ele>88.0</ele><time>2026-04-22T07:27:32.999Z</time></trkpt><trkpt lat="44.3444157514566" lon="9.272346971206497"><ele>88.0</ele><time>2026-04-22T07:27:33.999Z</time></trkpt><trkpt lat="44.34451779208432" lon="9.27207783541809"><ele>88.0</ele><time>2026-04-22T07:27:34.999Z</time></trkpt><trkpt lat="44.344618815316586" lon="9.271811536291535"><ele>107.66666666666666</ele><time>2026-04-22T07:27:35.999Z</time></trkpt><trkpt lat="44.34471735690425" lon="9.2715432780408"><ele>127.33333333333333</ele><time>2026-04-22T07:27:36.999Z</time></trkpt><trkpt lat="44.34480933899081" lon="9.27126751606244"><ele>147.0</ele><time>2026-04-22T07:27:37.999Z</time></trkpt><trkpt lat="44.34489592659588" lon="9.270983181113628"><ele>166.5</ele><time>2026-04-22T07:27:38.999Z</time></trkpt><trkpt lat="44.3449741179288" lon="9.270681137512636"><ele>186.0</ele><time>2026-04-22T07:27:39.999Z</time></trkpt><trkpt lat="44.34504780867174" lon="9.270370340819508"><ele>199.5</ele><time>2026-04-22T07:27:41Z</time></trkpt><trkpt lat="44.3451150188986" lon="9.270043563243389"><ele>213.0</ele><time>2026-04-22T07:27:41.999Z</time></trkpt><trkpt lat="44.345185781672804" lon="9.269683409670874"><ele>222.0</ele><time>2026-04-22T07:27:43.054Z</time></trkpt><trkpt lat="44.3452557710936" lon="9.269330140005279"><ele>231.0</ele><time>2026-04-22T07:27:44.048Z</time></trkpt><trkpt lat="44.34532349850137" lon="9.268966793169312"><ele>238.0</ele><time>2026-04-22T07:27:45.045Z</time></trkpt><trkpt lat="44.345392381793346" lon="9.268595210191373"><ele>245.0</ele><time>2026-04-22T07:27:46.053Z</time></trkpt><trkpt lat="44.34545910303925" lon="9.268219212722345"><ele>108.0</ele><time>2026-04-22T07:27:47.046Z</time></trkpt><trkpt lat="44.3486753278548" lon="9.253442772747515"><ele>108.0</ele><time>2026-04-22T07:28:34.999Z</time></trkpt><trkpt lat="44.34872270960293" lon="9.25314305576561"><ele>108.0</ele><time>2026-04-22T07:28:35.999Z</time></trkpt><trkpt lat="44.34875585769074" lon="9.252846733680508"><ele>108.0</ele><time>2026-04-22T07:28:36.999Z</time></trkpt><trkpt lat="44.34879347262586" lon="9.252546014713543"><ele>103.33333333333333</ele><time>2026-04-22T07:28:37.999Z</time></trkpt><trkpt lat="44.34881041103211" lon="9.25223072690931"><ele>98.66666666666666</ele><time>2026-04-22T07:28:38.999Z</time></trkpt><trkpt lat="44.34883445871767" lon="9.251938915845955"><ele>94.0</ele><time>2026-04-22T07:28:39.999Z</time></trkpt><trkpt lat="44.34886481940848" lon="9.251656068056194"><ele>105.33333333333333</ele><time>2026-04-22T07:28:40.999Z</time></trkpt><trkpt lat="44.34888677624459" lon="9.25137177625351"><ele>116.66666666666666</ele><time>2026-04-22T07:28:41.999Z</time></trkpt><trkpt lat="44.34890795513199" lon="9.251086725553531"><ele>128.0</ele><time>2026-04-22T07:28:42.999Z</time></trkpt><trkpt lat="44.34892877406789" lon="9.250822708315166"><ele>125.33333333333333</ele><time>2026-04-22T07:28:43.999Z</time></trkpt><trkpt lat="44.348952777947225" lon="9.250557872628585"><ele>122.66666666666666</ele><time>2026-04-22T07:28:44.999Z</time></trkpt><trkpt lat="44.34897928987005" lon="9.250287115781061"><ele>120.0</ele><time>2026-04-22T07:28:45.999Z</time></trkpt><trkpt lat="44.349024633051386" lon="9.250016867837491"><ele>116.33333333333334</ele><time>2026-04-22T07:28:46.999Z</time></trkpt><trkpt lat="44.34908022730843" lon="9.249733647449634"><ele>112.66666666666667</ele><time>2026-04-22T07:28:47.999Z</time></trkpt><trkpt lat="44.34915618144901" lon="9.24946240184847"><ele>109.0</ele><time>2026-04-22T07:28:48.999Z</time></trkpt><trkpt lat="44.34924262747033" lon="9.249202726247468"><ele>106.33333333333334</ele><time>2026-04-22T07:28:49.999Z</time></trkpt><trkpt lat="44.349345468932846" lon="9.248954049429114"><ele>103.66666666666666</ele><time>2026-04-22T07:28:50.999Z</time></trkpt><trkpt lat="44.349469748971984" lon="9.248729800233752"><ele>101.0</ele><time>2026-04-22T07:28:51.999Z</time></trkpt><trkpt lat="44.34958635348537" lon="9.248509584110076"><ele>100.0</ele><time>2026-04-22T07:28:52.999Z</time></trkpt><trkpt lat="44.34971748125313" lon="9.248292250797006"><ele>99.0</ele><time>2026-04-22T07:28:53.999Z</time></trkpt><trkpt lat="44.34986672450178" lon="9.248091868559337"><ele>98.0</ele><time>2026-04-22T07:28:54.999Z</time></trkpt><trkpt lat="44.35002769096099" lon="9.247894058907091"><ele>98.0</ele><time>2026-04-22T07:28:55.999Z</time></trkpt><trkpt lat="44.35017432661744" lon="9.247677384541284"><ele>98.0</ele><time>2026-04-22T07:28:56.999Z</time></trkpt><trkpt lat="44.35033369401969" lon="9.247480960765959"><ele>98.0</ele><time>2026-04-22T07:28:57.998Z</time></trkpt><trkpt lat="44.35048258996337" lon="9.247296774638272"><ele>109.0</ele><time>2026-04-22T07:28:58.998Z</time></trkpt><trkpt lat="44.35062605094171" lon="9.247100459577416"><ele>120.0</ele><time>2026-04-22T07:28:59.998Z</time></trkpt><trkpt lat="44.35077162381361" lon="9.246902756749224"><ele>131.0</ele><time>2026-04-22T07:29:00.998Z</time></trkpt><trkpt lat="44.35092264435839" lon="9.246712472276846"><ele>131.0</ele><time>2026-04-22T07:29:01.998Z</time></trkpt><trkpt lat="44.35107905150987" lon="9.246520474799674"><ele>131.0</ele><time>2026-04-22T07:29:02.998Z</time></trkpt><trkpt lat="44.35124349837297" lon="9.246333157648998"><ele>131.0</ele><time>2026-04-22T07:29:03.998Z</time></trkpt><trkpt lat="44.351398045515445" lon="9.24614294488907"><ele>131.33333333333331</ele><time>2026-04-22T07:29:04.998Z</time></trkpt><trkpt lat="44.35155376162241" lon="9.24595253513821"><ele>131.66666666666666</ele><time>2026-04-22T07:29:05.998Z</time></trkpt><trkpt lat="44.3517194520038" lon="9.245744234908063"><ele>132.0</ele><time>2026-04-22T07:29:07.058Z</time></trkpt><trkpt lat="44.35187744372947" lon="9.24554962527758"><ele>121.33333333333334</ele><time>2026-04-22T07:29:08.057Z</time></trkpt><trkpt lat="44.35204224760216" lon="9.24534510184396"><ele>110.66666666666667</ele><time>2026-04-22T07:29:09.061Z</time></trkpt><trkpt lat="44.352201805725215" lon="9.245154139002613"><ele>100.0</ele><time>2026-04-22T07:29:10.059Z</time></trkpt><trkpt lat="44.352784787179374" lon="9.244407433938251"><ele>92.33333333333334</ele><time>2026-04-22T07:29:13.998Z</time></trkpt><trkpt lat="44.35293114121622" lon="9.244220222525831"><ele>84.66666666666667</ele><time>2026-04-22T07:29:14.998Z</time></trkpt><trkpt lat="44.35305728424608" lon="9.243976199330955"><ele>77.0</ele><time>2026-04-22T07:29:15.998Z</time></trkpt><trkpt lat="44.353188247185514" lon="9.24376101863551"><ele>64.66666666666667</ele><time>2026-04-22T07:29:16.998Z</time></trkpt><trkpt lat="44.35331890119214" lon="9.243576732295532"><ele>52.333333333333336</ele><time>2026-04-22T07:29:17.998Z</time></trkpt><trkpt lat="44.35345458805984" lon="9.243396836758935"><ele>40.0</ele><time>2026-04-22T07:29:18.998Z</time></trkpt><trkpt lat="44.35358867667881" lon="9.243206270371774"><ele>44.66666666666667</ele><time>2026-04-22T07:29:19.998Z</time></trkpt><trkpt lat="44.35371979172067" lon="9.243034928616847"><ele>49.333333333333336</ele><time>2026-04-22T07:29:20.998Z</time></trkpt><trkpt lat="44.3538493310246" lon="9.242865963735284"><ele>54.0</ele><time>2026-04-22T07:29:21.998Z</time></trkpt><trkpt lat="44.35397930669042" lon="9.242691834980478"><ele>63.66666666666667</ele><time>2026-04-22T07:29:22.998Z</time></trkpt><trkpt lat="44.35411006640841" lon="9.24251804612445"><ele>73.33333333333334</ele><time>2026-04-22T07:29:23.998Z</time></trkpt><trkpt lat="44.35424496910077" lon="9.242339901264508"><ele>83.0</ele><time>2026-04-22T07:29:24.998Z</time></trkpt><trkpt lat="44.35438749981377" lon="9.24215338576845"><ele>92.66666666666667</ele><time>2026-04-22T07:29:25.998Z</time></trkpt><trkpt lat="44.35452919998108" lon="9.241973295258715"><ele>102.33333333333334</ele><time>2026-04-22T07:29:26.998Z</time></trkpt><trkpt lat="44.35467561208329" lon="9.241789842666785"><ele>112.0</ele><time>2026-04-22T07:29:27.998Z</time></trkpt><trkpt lat="44.35482099774497" lon="9.241607485625934"><ele>123.33333333333334</ele><time>2026-04-22T07:29:28.998Z</time></trkpt><trkpt lat="44.354967501205834" lon="9.241423956233902"><ele>134.66666666666666</ele><time>2026-04-22T07:29:29.998Z</time></trkpt><trkpt lat="44.35511931273881" lon="9.241235073454845"><ele>146.0</ele><time>2026-04-22T07:29:30.998Z</time></trkpt><trkpt lat="44.355269686053255" lon="9.241025693730702"><ele>146.0</ele><time>2026-04-22T07:29:32.064Z</time></trkpt><trkpt lat="44.35540894981215" lon="9.24084515515896"><ele>146.0</ele><time>2026-04-22T07:29:33.055Z</time></trkpt><trkpt lat="44.35555229352305" lon="9.240663752864698"><ele>146.0</ele><time>2026-04-22T07:29:34.055Z</time></trkpt><trkpt lat="44.35569250221371" lon="9.240484653277933"><ele>140.33333333333331</ele><time>2026-04-22T07:29:35.046Z</time></trkpt><trkpt lat="44.35583236435789" lon="9.240309983162588"><ele>134.66666666666666</ele><time>2026-04-22T07:29:36.043Z</time></trkpt><trkpt lat="44.355973973723124" lon="9.240129064905284"><ele>129.0</ele><time>2026-04-22T07:29:37.04Z</time></trkpt><trkpt lat="44.35741937861706" lon="9.238154673147031"><ele>82.0</ele><time>2026-04-22T07:29:40.507Z</time></trkpt><trkpt lat="44.3580726814913" lon="9.237292983694632"><ele>82.0</ele><time>2026-04-22T07:29:41.506Z</time></trkpt><trkpt lat="44.35853093981718" lon="9.236559376344374"><ele>66.5</ele><time>2026-04-22T07:29:54.998Z</time></trkpt><trkpt lat="44.3586018318477" lon="9.235944107452855"><ele>51.0</ele><time>2026-04-22T07:29:55.998Z</time></trkpt><trkpt lat="44.35881720362829" lon="9.235907346412718"><ele>50.66666666666667</ele><time>2026-04-22T07:29:56.998Z</time></trkpt><trkpt lat="44.35891130513276" lon="9.235685585500699"><ele>50.333333333333336</ele><time>2026-04-22T07:29:57.998Z</time></trkpt><trkpt lat="44.35897781565305" lon="9.23547723044369"><ele>50.0</ele><time>2026-04-22T07:29:59Z</time></trkpt><trkpt lat="44.35905575849764" lon="9.235344854912585"><ele>48.0</ele><time>2026-04-22T07:30:00Z</time></trkpt><trkpt lat="44.35912784378394" lon="9.235213998569028"><ele>46.0</ele><time>2026-04-22T07:30:01Z</time></trkpt><trkpt lat="44.35920802297712" lon="9.235028896622723"><ele>44.0</ele><time>2026-04-22T07:30:02Z</time></trkpt><trkpt lat="44.35927709286598" lon="9.234802407514179"><ele>42.0</ele><time>2026-04-22T07:30:03Z</time></trkpt><trkpt lat="44.35934251480055" lon="9.234570949386445"><ele>42.0</ele><time>2026-04-22T07:30:04Z</time></trkpt><trkpt lat="44.35940394157131" lon="9.234328099215379"><ele>42.0</ele><time>2026-04-22T07:30:05Z</time></trkpt><trkpt lat="44.35945308664308" lon="9.234087591367194"><ele>42.0</ele><time>2026-04-22T07:30:06Z</time></trkpt><trkpt lat="44.35949852711201" lon="9.233832628390616"><ele>53.0</ele><time>2026-04-22T07:30:07Z</time></trkpt><trkpt lat="44.35953436702767" lon="9.233581321277027"><ele>64.0</ele><time>2026-04-22T07:30:08Z</time></trkpt><trkpt lat="44.35956117293915" lon="9.233322260259458"><ele>75.0</ele><time>2026-04-22T07:30:09Z</time></trkpt><trkpt lat="44.359581734233345" lon="9.233055359936866"><ele>89.33333333333334</ele><time>2026-04-22T07:30:10Z</time></trkpt><trkpt lat="44.35960088808751" lon="9.232782933541898"><ele>103.66666666666667</ele><time>2026-04-22T07:30:11Z</time></trkpt><trkpt lat="44.359620038660495" lon="9.23252283224556"><ele>118.0</ele><time>2026-04-22T07:30:12Z</time></trkpt><trkpt lat="44.35963791898601" lon="9.232258317342668"><ele>125.33333333333334</ele><time>2026-04-22T07:30:13Z</time></trkpt><trkpt lat="44.35965577934637" lon="9.231991090464318"><ele>132.66666666666666</ele><time>2026-04-22T07:30:14Z</time></trkpt><trkpt lat="44.359620051288246" lon="9.23172786745913"><ele>140.0</ele><time>2026-04-22T07:30:15Z</time></trkpt><trkpt lat="44.35959324119795" lon="9.231454278268185"><ele>140.0</ele><time>2026-04-22T07:30:16.059Z</time></trkpt><trkpt lat="44.359562976745345" lon="9.231204443988364"><ele>140.0</ele><time>2026-04-22T07:30:17.053Z</time></trkpt><trkpt lat="44.3589929685519" lon="9.22826998872771"><ele>121.33333333333333</ele><time>2026-04-22T07:30:27.999Z</time></trkpt><trkpt lat="44.35894287537169" lon="9.227998111611134"><ele>102.66666666666666</ele><time>2026-04-22T07:30:28.999Z</time></trkpt><trkpt lat="44.35892566935675" lon="9.227819519300558"><ele>84.0</ele><time>2026-04-22T07:30:29.999Z</time></trkpt><trkpt lat="44.35884251027138" lon="9.227552996294468"><ele>43.0</ele><time>2026-04-22T07:30:30.999Z</time></trkpt><trkpt lat="44.358369983015805" lon="9.224599532695072"><ele>43.0</ele><time>2026-04-22T07:30:41.999Z</time></trkpt><trkpt lat="44.358326114593815" lon="9.22432510608057"><ele>43.0</ele><time>2026-04-22T07:30:42.999Z</time></trkpt><trkpt lat="44.35826088710799" lon="9.224043700237006"><ele>43.0</ele><time>2026-04-22T07:30:43.999Z</time></trkpt><trkpt lat="44.35822064198943" lon="9.223763557852724"><ele>41.66666666666667</ele><time>2026-04-22T07:30:44.999Z</time></trkpt><trkpt lat="44.35817664033263" lon="9.223515814499237"><ele>40.333333333333336</ele><time>2026-04-22T07:30:45.999Z</time></trkpt><trkpt lat="44.35813292244002" lon="9.223261019150028"><ele>39.0</ele><time>2026-04-22T07:30:46.999Z</time></trkpt><trkpt lat="44.35808904439406" lon="9.223013212304364"><ele>41.666666666666664</ele><time>2026-04-22T07:30:47.999Z</time></trkpt><trkpt lat="44.358040098724" lon="9.222761963511779"><ele>44.33333333333333</ele><time>2026-04-22T07:30:48.999Z</time></trkpt><trkpt lat="44.358000162134644" lon="9.222518118531761"><ele>47.0</ele><time>2026-04-22T07:30:49.999Z</time></trkpt><trkpt lat="44.35795278071875" lon="9.22226865904265"><ele>48.33333333333333</ele><time>2026-04-22T07:30:50.999Z</time></trkpt><trkpt lat="44.35790899306903" lon="9.222014482312206"><ele>49.666666666666664</ele><time>2026-04-22T07:30:51.999Z</time></trkpt><trkpt lat="44.35786491586384" lon="9.221757443068874"><ele>51.0</ele><time>2026-04-22T07:30:52.999Z</time></trkpt><trkpt lat="44.357818296769054" lon="9.22149599323602"><ele>49.666666666666664</ele><time>2026-04-22T07:30:53.999Z</time></trkpt><trkpt lat="44.35777363670605" lon="9.221229418432323"><ele>48.33333333333333</ele><time>2026-04-22T07:30:55Z</time></trkpt><trkpt lat="44.357730431862734" lon="9.220963672104213"><ele>47.0</ele><time>2026-04-22T07:30:56Z</time></trkpt><trkpt lat="44.357684396224826" lon="9.220685663870045"><ele>45.33333333333333</ele><time>2026-04-22T07:30:57Z</time></trkpt><trkpt lat="44.357646317401674" lon="9.220414053297441"><ele>43.666666666666664</ele><time>2026-04-22T07:30:58Z</time></trkpt><trkpt lat="44.357609498953195" lon="9.220133855599643"><ele>42.0</ele><time>2026-04-22T07:30:59Z</time></trkpt><trkpt lat="44.357580719702895" lon="9.21984703797055"><ele>39.333333333333336</ele><time>2026-04-22T07:31:00Z</time></trkpt><trkpt lat="44.35756034419827" lon="9.219556580626364"><ele>36.66666666666667</ele><time>2026-04-22T07:31:01Z</time></trkpt><trkpt lat="44.357564890400276" lon="9.219244174832825"><ele>34.0</ele><time>2026-04-22T07:31:02Z</time></trkpt><trkpt lat="44.357543828091735" lon="9.218965073417332"><ele>33.0</ele><time>2026-04-22T07:31:03Z</time></trkpt><trkpt lat="44.357538974956796" lon="9.218664225096402"><ele>32.0</ele><time>2026-04-22T07:31:04Z</time></trkpt><trkpt lat="44.35755256213248" lon="9.218365886551986"><ele>31.0</ele><time>2026-04-22T07:31:05Z</time></trkpt><trkpt lat="44.35756931950309" lon="9.218079234180568"><ele>34.0</ele><time>2026-04-22T07:31:06Z</time></trkpt><trkpt lat="44.357590598621634" lon="9.217782893393853"><ele>37.0</ele><time>2026-04-22T07:31:07Z</time></trkpt><trkpt lat="44.35761417117919" lon="9.217485073122987"><ele>40.0</ele><time>2026-04-22T07:31:08Z</time></trkpt><trkpt lat="44.357646402656805" lon="9.217181325914353"><ele>46.0</ele><time>2026-04-22T07:31:09Z</time></trkpt><trkpt lat="44.35767589585105" lon="9.216875901602554"><ele>52.0</ele><time>2026-04-22T07:31:10Z</time></trkpt><trkpt lat="44.357710966889904" lon="9.2165768908077"><ele>58.0</ele><time>2026-04-22T07:31:11Z</time></trkpt><trkpt lat="44.35774895688853" lon="9.216300955155791"><ele>59.0</ele><time>2026-04-22T07:31:12Z</time></trkpt><trkpt lat="44.357787491642675" lon="9.21601710141084"><ele>60.0</ele><time>2026-04-22T07:31:13Z</time></trkpt><trkpt lat="44.35781992639571" lon="9.215735185026864"><ele>61.0</ele><time>2026-04-22T07:31:14Z</time></trkpt><trkpt lat="44.35786534380096" lon="9.21543179053508"><ele>55.666666666666664</ele><time>2026-04-22T07:31:15.058Z</time></trkpt><trkpt lat="44.35789006173576" lon="9.215129391037388"><ele>50.33333333333333</ele><time>2026-04-22T07:31:16.056Z</time></trkpt><trkpt lat="44.357904641364776" lon="9.21484694871209"><ele>45.0</ele><time>2026-04-22T07:31:17.056Z</time></trkpt><trkpt lat="44.3579214355099" lon="9.214660018713873"><ele>32.5</ele><time>2026-04-22T07:31:18Z</time></trkpt><trkpt lat="44.35791719220826" lon="9.214210672517853"><ele>20.0</ele><time>2026-04-22T07:31:19Z</time></trkpt><trkpt lat="44.35791310370999" lon="9.213884654634505"><ele>17.666666666666668</ele><time>2026-04-22T07:31:20Z</time></trkpt><trkpt lat="44.35794617894458" lon="9.213647204909439"><ele>15.333333333333332</ele><time>2026-04-22T07:31:21Z</time></trkpt><trkpt lat="44.358000691523664" lon="9.21327799973121"><ele>13.0</ele><time>2026-04-22T07:31:22Z</time></trkpt><trkpt lat="44.35801808769073" lon="9.212883102090686"><ele>15.0</ele><time>2026-04-22T07:31:23Z</time></trkpt><trkpt lat="44.35805765578602" lon="9.21250266545114"><ele>17.0</ele><time>2026-04-22T07:31:24Z</time></trkpt><trkpt lat="44.358122240377" lon="9.212156407064139"><ele>19.5</ele><time>2026-04-22T07:31:25Z</time></trkpt><trkpt lat="44.35819295746945" lon="9.211806904679989"><ele>22.0</ele><time>2026-04-22T07:31:26Z</time></trkpt><trkpt lat="44.35826132175207" lon="9.21146641499964"><ele>25.0</ele><time>2026-04-22T07:31:27Z</time></trkpt><trkpt lat="44.35831558808521" lon="9.211140331960417"><ele>28.0</ele><time>2026-04-22T07:31:27.999Z</time></trkpt><trkpt lat="44.35841062236053" lon="9.21078539119744"><ele>25.0</ele><time>2026-04-22T07:31:28.999Z</time></trkpt><trkpt lat="44.35850724283684" lon="9.21044855843526"><ele>22.0</ele><time>2026-04-22T07:31:29.999Z</time></trkpt><trkpt lat="44.35860359625973" lon="9.210119600205479"><ele>23.0</ele><time>2026-04-22T07:31:30.999Z</time></trkpt><trkpt lat="44.35871224033591" lon="9.209788835543275"><ele>24.0</ele><time>2026-04-22T07:31:31.999Z</time></trkpt><trkpt lat="44.358825920630515" lon="9.20945187508365"><ele>26.5</ele><time>2026-04-22T07:31:32.999Z</time></trkpt><trkpt lat="44.3589382294879" lon="9.209111437211067"><ele>29.0</ele><time>2026-04-22T07:31:33.999Z</time></trkpt><trkpt lat="44.35904854076736" lon="9.208764733264218"><ele>29.0</ele><time>2026-04-22T07:31:34.999Z</time></trkpt><trkpt lat="44.359154578302515" lon="9.208418415837485"><ele>29.0</ele><time>2026-04-22T07:31:35.999Z</time></trkpt><trkpt lat="44.359256424562666" lon="9.208076595475223"><ele>33.0</ele><time>2026-04-22T07:31:36.999Z</time></trkpt><trkpt lat="44.35935805618688" lon="9.207741509159916"><ele>37.0</ele><time>2026-04-22T07:31:37.999Z</time></trkpt><trkpt lat="44.35945457485901" lon="9.207411915941629"><ele>37.0</ele><time>2026-04-22T07:31:38.999Z</time></trkpt><trkpt lat="44.35955501725132" lon="9.2070909689151"><ele>37.0</ele><time>2026-04-22T07:31:39.999Z</time></trkpt><trkpt lat="44.35965169925022" lon="9.206769193705684"><ele>40.5</ele><time>2026-04-22T07:31:40.999Z</time></trkpt><trkpt lat="44.35974838888854" lon="9.206450535414215"><ele>44.0</ele><time>2026-04-22T07:31:41.999Z</time></trkpt><trkpt lat="44.359844093911256" lon="9.206134469364173"><ele>44.0</ele><time>2026-04-22T07:31:42.999Z</time></trkpt><trkpt lat="44.35993718891268" lon="9.205814217123354"><ele>44.0</ele><time>2026-04-22T07:31:43.999Z</time></trkpt><trkpt lat="44.36002784641971" lon="9.205493761915937"><ele>46.5</ele><time>2026-04-22T07:31:44.999Z</time></trkpt><trkpt lat="44.36010345641378" lon="9.205192077217701"><ele>49.0</ele><time>2026-04-22T07:31:45.999Z</time></trkpt><trkpt lat="44.36017287546725" lon="9.20488392227441"><ele>47.5</ele><time>2026-04-22T07:31:46.999Z</time></trkpt><trkpt lat="44.3602343873415" lon="9.204579590278373"><ele>46.0</ele><time>2026-04-22T07:31:47.999Z</time></trkpt><trkpt lat="44.36028510644762" lon="9.20426920528665"><ele>46.0</ele><time>2026-04-22T07:31:48.999Z</time></trkpt><trkpt lat="44.360329148851605" lon="9.203950731002964"><ele>46.0</ele><time>2026-04-22T07:31:49.999Z</time></trkpt><trkpt lat="44.36036287205053" lon="9.203625371236264"><ele>46.0</ele><time>2026-04-22T07:31:50.999Z</time></trkpt><trkpt lat="44.360390264511814" lon="9.203297455339108"><ele>46.0</ele><time>2026-04-22T07:31:51.999Z</time></trkpt><trkpt lat="44.36041334999793" lon="9.202959024395305"><ele>47.5</ele><time>2026-04-22T07:31:52.999Z</time></trkpt><trkpt lat="44.36043310243574" lon="9.202611035526976"><ele>49.0</ele><time>2026-04-22T07:31:53.999Z</time></trkpt><trkpt lat="44.360452326020294" lon="9.202260833065202"><ele>50.0</ele><time>2026-04-22T07:31:54.999Z</time></trkpt><trkpt lat="44.36047211745597" lon="9.20191042813725"><ele>51.0</ele><time>2026-04-22T07:31:55.999Z</time></trkpt><trkpt lat="44.36049077133464" lon="9.201562915014073"><ele>48.5</ele><time>2026-04-22T07:31:56.999Z</time></trkpt><trkpt lat="44.360507666935824" lon="9.201214718802042"><ele>46.0</ele><time>2026-04-22T07:31:57.999Z</time></trkpt><trkpt lat="44.36052530896181" lon="9.200874882024262"><ele>61.0</ele><time>2026-04-22T07:31:58.999Z</time></trkpt><trkpt lat="44.36054313224796" lon="9.200547224602756"><ele>76.0</ele><time>2026-04-22T07:31:59.999Z</time></trkpt><trkpt lat="44.36056033171562" lon="9.200229196538286"><ele>76.0</ele><time>2026-04-22T07:32:00.999Z</time></trkpt><trkpt lat="44.36057854199409" lon="9.199916597243647"><ele>76.0</ele><time>2026-04-22T07:32:01.999Z</time></trkpt><trkpt lat="44.36059827248239" lon="9.199600691145546"><ele>76.5</ele><time>2026-04-22T07:32:02.999Z</time></trkpt><trkpt lat="44.36062800183196" lon="9.199273479264006"><ele>77.0</ele><time>2026-04-22T07:32:04.001Z</time></trkpt><trkpt lat="44.36067435444177" lon="9.19894594267635"><ele>77.0</ele><time>2026-04-22T07:32:05.001Z</time></trkpt><trkpt lat="44.360733215762394" lon="9.198621138718734"><ele>77.0</ele><time>2026-04-22T07:32:06.001Z</time></trkpt><trkpt lat="44.36080357026738" lon="9.198293627383974"><ele>73.0</ele><time>2026-04-22T07:32:07.001Z</time></trkpt><trkpt lat="44.36088279975907" lon="9.197959835052115"><ele>69.0</ele><time>2026-04-22T07:32:08.001Z</time></trkpt><trkpt lat="44.36096841339379" lon="9.197625511903052"><ele>67.0</ele><time>2026-04-22T07:32:09.001Z</time></trkpt><trkpt lat="44.36105520298328" lon="9.197290831497153"><ele>65.0</ele><time>2026-04-22T07:32:10.001Z</time></trkpt><trkpt lat="44.36113414336157" lon="9.196967301816223"><ele>65.0</ele><time>2026-04-22T07:32:11.001Z</time></trkpt><trkpt lat="44.36120366235914" lon="9.196644679791126"><ele>65.0</ele><time>2026-04-22T07:32:12.001Z</time></trkpt><trkpt lat="44.361262211264645" lon="9.19632320797659"><ele>66.0</ele><time>2026-04-22T07:32:13.001Z</time></trkpt><trkpt lat="44.361311650882534" lon="9.19599123550314"><ele>67.0</ele><time>2026-04-22T07:32:14.001Z</time></trkpt><trkpt lat="44.36135125912793" lon="9.195654347520517"><ele>81.0</ele><time>2026-04-22T07:32:15.001Z</time></trkpt><trkpt lat="44.361386825222496" lon="9.195312229034254"><ele>95.0</ele><time>2026-04-22T07:32:16.001Z</time></trkpt><trkpt lat="44.361413561733336" lon="9.1949654627396"><ele>105.0</ele><time>2026-04-22T07:32:17.001Z</time></trkpt><trkpt lat="44.36144032645197" lon="9.194615529180377"><ele>115.0</ele><time>2026-04-22T07:32:18Z</time></trkpt><trkpt lat="44.36147173250498" lon="9.194264983405358"><ele>110.0</ele><time>2026-04-22T07:32:19Z</time></trkpt><trkpt lat="44.36150868995625" lon="9.193911407395042"><ele>105.0</ele><time>2026-04-22T07:32:20Z</time></trkpt><trkpt lat="44.36155642568714" lon="9.19354180880816"><ele>92.5</ele><time>2026-04-22T07:32:21Z</time></trkpt><trkpt lat="44.361611060931565" lon="9.193156959206748"><ele>80.0</ele><time>2026-04-22T07:32:22Z</time></trkpt><trkpt lat="44.36165611911669" lon="9.192781744900305"><ele>80.0</ele><time>2026-04-22T07:32:23Z</time></trkpt><trkpt lat="44.361708134790064" lon="9.192380651991094"><ele>80.0</ele><time>2026-04-22T07:32:24Z</time></trkpt><trkpt lat="44.36178885874152" lon="9.192069980814397"><ele>78.5</ele><time>2026-04-22T07:32:25Z</time></trkpt><trkpt lat="44.36185974046174" lon="9.191683360071705"><ele>77.0</ele><time>2026-04-22T07:32:26Z</time></trkpt><trkpt lat="44.36192801130791" lon="9.191315386381763"><ele>77.0</ele><time>2026-04-22T07:32:27Z</time></trkpt><trkpt lat="44.36199057537457" lon="9.190980558070914"><ele>77.0</ele><time>2026-04-22T07:32:28Z</time></trkpt><trkpt lat="44.362049591704945" lon="9.190650801081256"><ele>76.0</ele><time>2026-04-22T07:32:29Z</time></trkpt><trkpt lat="44.36210877377127" lon="9.19033510782703"><ele>75.0</ele><time>2026-04-22T07:32:30Z</time></trkpt><trkpt lat="44.36216150839445" lon="9.19002901457527"><ele>87.66666666666666</ele><time>2026-04-22T07:32:31Z</time></trkpt><trkpt lat="44.36221267429211" lon="9.189735136706043"><ele>100.33333333333333</ele><time>2026-04-22T07:32:32Z</time></trkpt><trkpt lat="44.362259610894334" lon="9.18945173926391"><ele>113.0</ele><time>2026-04-22T07:32:33Z</time></trkpt><trkpt lat="44.36230716458496" lon="9.189175400538259"><ele>110.33333333333333</ele><time>2026-04-22T07:32:34Z</time></trkpt><trkpt lat="44.362358546224655" lon="9.188891639886892"><ele>107.66666666666666</ele><time>2026-04-22T07:32:35Z</time></trkpt><trkpt lat="44.362411964115594" lon="9.188610058387905"><ele>105.0</ele><time>2026-04-22T07:32:36Z</time></trkpt><trkpt lat="44.362460923364054" lon="9.188332638694368"><ele>104.33333333333334</ele><time>2026-04-22T07:32:37Z</time></trkpt><trkpt lat="44.36250810111457" lon="9.188047103768023"><ele>103.66666666666667</ele><time>2026-04-22T07:32:38Z</time></trkpt><trkpt lat="44.362559722034085" lon="9.187765325384502"><ele>103.0</ele><time>2026-04-22T07:32:39Z</time></trkpt><trkpt lat="44.36261031458367" lon="9.187483925293995"><ele>102.66666666666667</ele><time>2026-04-22T07:32:40Z</time></trkpt><trkpt lat="44.362657554522585" lon="9.187214205135046"><ele>102.33333333333334</ele><time>2026-04-22T07:32:41Z</time></trkpt><trkpt lat="44.36270947514347" lon="9.186942321655588"><ele>102.0</ele><time>2026-04-22T07:32:42Z</time></trkpt><trkpt lat="44.36276578070741" lon="9.186661587323469"><ele>103.66666666666666</ele><time>2026-04-22T07:32:43Z</time></trkpt><trkpt lat="44.36283201089748" lon="9.186367656274717"><ele>105.33333333333333</ele><time>2026-04-22T07:32:44Z</time></trkpt><trkpt lat="44.36291370730815" lon="9.186082581298685"><ele>107.0</ele><time>2026-04-22T07:32:45Z</time></trkpt><trkpt lat="44.363013886181164" lon="9.185791764665552"><ele>113.5</ele><time>2026-04-22T07:32:46Z</time></trkpt><trkpt lat="44.36313070772723" lon="9.185516961059525"><ele>120.0</ele><time>2026-04-22T07:32:47Z</time></trkpt><trkpt lat="44.363260085457696" lon="9.185244895907283"><ele>120.0</ele><time>2026-04-22T07:32:48Z</time></trkpt><trkpt lat="44.36339648619071" lon="9.1849882079508"><ele>120.0</ele><time>2026-04-22T07:32:49Z</time></trkpt><trkpt lat="44.3635357721543" lon="9.184738981319127"><ele>121.0</ele><time>2026-04-22T07:32:50Z</time></trkpt><trkpt lat="44.363663533772225" lon="9.184502353138525"><ele>122.0</ele><time>2026-04-22T07:32:51Z</time></trkpt><trkpt lat="44.36378386643248" lon="9.184283198600161"><ele>123.0</ele><time>2026-04-22T07:32:52Z</time></trkpt><trkpt lat="44.36389658680873" lon="9.184066316022646"><ele>126.33333333333334</ele><time>2026-04-22T07:32:53Z</time></trkpt><trkpt lat="44.36400208027198" lon="9.183848373600172"><ele>129.66666666666669</ele><time>2026-04-22T07:32:54Z</time></trkpt><trkpt lat="44.36410514610131" lon="9.183621931217088"><ele>133.0</ele><time>2026-04-22T07:32:55Z</time></trkpt><trkpt lat="44.364201092608056" lon="9.183375191736895"><ele>141.33333333333334</ele><time>2026-04-22T07:32:56Z</time></trkpt><trkpt lat="44.3642894247239" lon="9.183114161366728"><ele>149.66666666666666</ele><time>2026-04-22T07:32:57Z</time></trkpt><trkpt lat="44.3643748939544" lon="9.182838650984067"><ele>158.0</ele><time>2026-04-22T07:32:58Z</time></trkpt><trkpt lat="44.36444946126189" lon="9.18254564084173"><ele>179.5</ele><time>2026-04-22T07:32:59Z</time></trkpt><trkpt lat="44.36452617541097" lon="9.182248095526333"><ele>201.0</ele><time>2026-04-22T07:33:00Z</time></trkpt><trkpt lat="44.36459985611419" lon="9.181940324706652"><ele>201.0</ele><time>2026-04-22T07:33:01Z</time></trkpt><trkpt lat="44.36467784585437" lon="9.181629682875567"><ele>201.0</ele><time>2026-04-22T07:33:02Z</time></trkpt><trkpt lat="44.36477647404308" lon="9.181314256011724"><ele>206.5</ele><time>2026-04-22T07:33:03Z</time></trkpt><trkpt lat="44.364836043960494" lon="9.181006293346778"><ele>212.0</ele><time>2026-04-22T07:33:04Z</time></trkpt><trkpt lat="44.36490225838318" lon="9.180686178448036"><ele>233.0</ele><time>2026-04-22T07:33:05.055Z</time></trkpt><trkpt lat="44.36496688289077" lon="9.18037374989837"><ele>254.0</ele><time>2026-04-22T07:33:06.053Z</time></trkpt><trkpt lat="44.365033094575345" lon="9.180053648313876"><ele>275.5</ele><time>2026-04-22T07:33:07.052Z</time></trkpt><trkpt lat="44.36510129285091" lon="9.179723942482248"><ele>297.0</ele><time>2026-04-22T07:33:08.055Z</time></trkpt><trkpt lat="44.36516583805479" lon="9.179410624396548"><ele>356.0</ele><time>2026-04-22T07:33:09.048Z</time></trkpt><trkpt lat="44.365660321030056" lon="9.176669325360844"><ele>417.0</ele><time>2026-04-22T07:33:12.504Z</time></trkpt><trkpt lat="44.36593184133882" lon="9.175345688548676"><ele>497.0</ele><time>2026-04-22T07:33:13.502Z</time></trkpt><trkpt lat="44.36620623112746" lon="9.174018169826292"><ele>527.0</ele><time>2026-04-22T07:33:14.503Z</time></trkpt><trkpt lat="44.366478170574354" lon="9.17269236525646"><ele>530.0</ele><time>2026-04-22T07:33:15.502Z</time></trkpt><trkpt lat="44.36675275536023" lon="9.17136550487769"><ele>491.0</ele><time>2026-04-22T07:33:16.503Z</time></trkpt><trkpt lat="44.36702481567889" lon="9.170038198358984"><ele>410.0</ele><time>2026-04-22T07:33:17.503Z</time></trkpt><trkpt lat="44.3673017374113" lon="9.168711967026852"><ele>371.0</ele><time>2026-04-22T07:33:18.504Z</time></trkpt><trkpt lat="44.36757479694537" lon="9.167387041311127"><ele>316.0</ele><time>2026-04-22T07:33:19.503Z</time></trkpt><trkpt lat="44.36784873319322" lon="9.166060659394308"><ele>252.0</ele><time>2026-04-22T07:33:20.503Z</time></trkpt><trkpt lat="44.368121612139426" lon="9.164735108937052"><ele>221.0</ele><time>2026-04-22T07:33:21.503Z</time></trkpt><trkpt lat="44.36839424162282" lon="9.16340687042562"><ele>145.0</ele><time>2026-04-22T07:33:22.504Z</time></trkpt><trkpt lat="44.36866722316013" lon="9.162080006384912"><ele>131.0</ele><time>2026-04-22T07:33:23.504Z</time></trkpt><trkpt lat="44.36896999382773" lon="9.160573610138977"><ele>131.0</ele><time>2026-04-22T07:34:04.999Z</time></trkpt><trkpt lat="44.36902314312578" lon="9.160270404289859"><ele>131.0</ele><time>2026-04-22T07:34:05.999Z</time></trkpt><trkpt lat="44.36907095131737" lon="9.159982631170754"><ele>131.0</ele><time>2026-04-22T07:34:06.999Z</time></trkpt><trkpt lat="44.369102692720666" lon="9.159684273034326"><ele>127.33333333333333</ele><time>2026-04-22T07:34:07.999Z</time></trkpt><trkpt lat="44.3691432725607" lon="9.159393958338613"><ele>123.66666666666666</ele><time>2026-04-22T07:34:08.999Z</time></trkpt><trkpt lat="44.36918053334654" lon="9.159095760776635"><ele>120.0</ele><time>2026-04-22T07:34:09.999Z</time></trkpt><trkpt lat="44.3692221715353" lon="9.158786989424648"><ele>118.33333333333334</ele><time>2026-04-22T07:34:11Z</time></trkpt><trkpt lat="44.369260271072726" lon="9.158486155835714"><ele>116.66666666666667</ele><time>2026-04-22T07:34:12Z</time></trkpt><trkpt lat="44.36930064546123" lon="9.158188086107108"><ele>115.0</ele><time>2026-04-22T07:34:13Z</time></trkpt><trkpt lat="44.369340510408485" lon="9.157888357979832"><ele>111.0</ele><time>2026-04-22T07:34:14Z</time></trkpt><trkpt lat="44.369379890861225" lon="9.157594033448161"><ele>107.0</ele><time>2026-04-22T07:34:15Z</time></trkpt><trkpt lat="44.3694191528642" lon="9.157301463233404"><ele>103.0</ele><time>2026-04-22T07:34:16Z</time></trkpt><trkpt lat="44.36946338626567" lon="9.157009797821178"><ele>97.0</ele><time>2026-04-22T07:34:17Z</time></trkpt><trkpt lat="44.369514241760456" lon="9.15672402833206"><ele>91.0</ele><time>2026-04-22T07:34:18Z</time></trkpt><trkpt lat="44.36957871931698" lon="9.156435166344826"><ele>85.0</ele><time>2026-04-22T07:34:19Z</time></trkpt><trkpt lat="44.3696543876213" lon="9.156148610111286"><ele>92.33333333333333</ele><time>2026-04-22T07:34:20Z</time></trkpt><trkpt lat="44.36974186811719" lon="9.155879155124012"><ele>99.66666666666666</ele><time>2026-04-22T07:34:21Z</time></trkpt><trkpt lat="44.369839530842334" lon="9.155620476989752"><ele>107.0</ele><time>2026-04-22T07:34:22Z</time></trkpt><trkpt lat="44.36994922092018" lon="9.155365330147392"><ele>107.0</ele><time>2026-04-22T07:34:23Z</time></trkpt><trkpt lat="44.37007201367372" lon="9.155116795089738"><ele>107.0</ele><time>2026-04-22T07:34:24Z</time></trkpt><trkpt lat="44.37020286859635" lon="9.154878397348972"><ele>107.0</ele><time>2026-04-22T07:34:25Z</time></trkpt><trkpt lat="44.37034941300075" lon="9.15465793787448"><ele>108.66666666666666</ele><time>2026-04-22T07:34:26Z</time></trkpt><trkpt lat="44.370500588064125" lon="9.154449239432306"><ele>110.33333333333334</ele><time>2026-04-22T07:34:27Z</time></trkpt><trkpt lat="44.37065666900176" lon="9.154245044569992"><ele>112.0</ele><time>2026-04-22T07:34:28Z</time></trkpt><trkpt lat="44.370825183320534" lon="9.15406143678949"><ele>103.66666666666667</ele><time>2026-04-22T07:34:29Z</time></trkpt><trkpt lat="44.37099768371908" lon="9.153892715321767"><ele>95.33333333333334</ele><time>2026-04-22T07:34:30Z</time></trkpt><trkpt lat="44.37118152010619" lon="9.153727847587673"><ele>87.0</ele><time>2026-04-22T07:34:31Z</time></trkpt><trkpt lat="44.371367441423686" lon="9.15358516507408"><ele>87.0</ele><time>2026-04-22T07:34:32Z</time></trkpt><trkpt lat="44.371559639360925" lon="9.15344021628503"><ele>87.0</ele><time>2026-04-22T07:34:33Z</time></trkpt><trkpt lat="44.3717459387004" lon="9.153303525118865"><ele>87.0</ele><time>2026-04-22T07:34:34Z</time></trkpt><trkpt lat="44.37193750571073" lon="9.15316403738375"><ele>77.33333333333333</ele><time>2026-04-22T07:34:35Z</time></trkpt><trkpt lat="44.37211750694511" lon="9.153024412821251"><ele>67.66666666666666</ele><time>2026-04-22T07:34:36Z</time></trkpt><trkpt lat="44.37230418584609" lon="9.152879412384515"><ele>58.0</ele><time>2026-04-22T07:34:37Z</time></trkpt><trkpt lat="44.372483490727" lon="9.152723622338877"><ele>58.0</ele><time>2026-04-22T07:34:38Z</time></trkpt><trkpt lat="44.37266654000917" lon="9.152554149057911"><ele>58.0</ele><time>2026-04-22T07:34:39Z</time></trkpt><trkpt lat="44.3728467353831" lon="9.152371582733245"><ele>58.0</ele><time>2026-04-22T07:34:39.999Z</time></trkpt><trkpt lat="44.37302833764475" lon="9.152183730858265"><ele>48.33333333333333</ele><time>2026-04-22T07:34:40.999Z</time></trkpt><trkpt lat="44.373202263859994" lon="9.151986310903185"><ele>38.666666666666664</ele><time>2026-04-22T07:34:41.999Z</time></trkpt><trkpt lat="44.373366806380616" lon="9.15178282193234"><ele>29.0</ele><time>2026-04-22T07:34:42.999Z</time></trkpt><trkpt lat="44.373528623137936" lon="9.151566613976943"><ele>27.666666666666664</ele><time>2026-04-22T07:34:43.999Z</time></trkpt><trkpt lat="44.37368173027057" lon="9.151342857875651"><ele>26.333333333333336</ele><time>2026-04-22T07:34:44.999Z</time></trkpt><trkpt lat="44.37382874058945" lon="9.151114775869535"><ele>25.0</ele><time>2026-04-22T07:34:45.999Z</time></trkpt><trkpt lat="44.373971650079035" lon="9.150885096273427"><ele>27.333333333333336</ele><time>2026-04-22T07:34:46.999Z</time></trkpt><trkpt lat="44.374110241665974" lon="9.150645894791337"><ele>29.666666666666664</ele><time>2026-04-22T07:34:47.999Z</time></trkpt><trkpt lat="44.3742447764011" lon="9.150393849375742"><ele>32.0</ele><time>2026-04-22T07:34:48.999Z</time></trkpt><trkpt lat="44.37437501764353" lon="9.150132216795383"><ele>42.0</ele><time>2026-04-22T07:34:49.999Z</time></trkpt><trkpt lat="44.37450166848004" lon="9.149855330197727"><ele>52.0</ele><time>2026-04-22T07:34:50.999Z</time></trkpt><trkpt lat="44.37462154972755" lon="9.14957328079118"><ele>59.0</ele><time>2026-04-22T07:34:51.999Z</time></trkpt><trkpt lat="44.374737850683005" lon="9.149295941191864"><ele>66.0</ele><time>2026-04-22T07:34:52.999Z</time></trkpt><trkpt lat="44.37485679867476" lon="9.149011192937733"><ele>78.5</ele><time>2026-04-22T07:34:53.999Z</time></trkpt><trkpt lat="44.37497733516442" lon="9.148731575018884"><ele>91.0</ele><time>2026-04-22T07:34:54.999Z</time></trkpt><trkpt lat="44.37510482443243" lon="9.148456833031348"><ele>100.5</ele><time>2026-04-22T07:34:55.999Z</time></trkpt><trkpt lat="44.37523427016768" lon="9.148184439627647"><ele>110.0</ele><time>2026-04-22T07:34:56.999Z</time></trkpt><trkpt lat="44.375364982653494" lon="9.147919749532372"><ele>110.0</ele><time>2026-04-22T07:34:57.999Z</time></trkpt><trkpt lat="44.37550340495052" lon="9.147646420019747"><ele>110.0</ele><time>2026-04-22T07:34:58.999Z</time></trkpt><trkpt lat="44.37564638544225" lon="9.147381593863384"><ele>104.5</ele><time>2026-04-22T07:34:59.999Z</time></trkpt><trkpt lat="44.375787360245155" lon="9.147123704219231"><ele>99.0</ele><time>2026-04-22T07:35:00.999Z</time></trkpt><trkpt lat="44.37592584086158" lon="9.146857927293393"><ele>99.0</ele><time>2026-04-22T07:35:01.999Z</time></trkpt><trkpt lat="44.37605905366421" lon="9.146590385015545"><ele>99.0</ele><time>2026-04-22T07:35:02.999Z</time></trkpt><trkpt lat="44.37619459210199" lon="9.146357931673792"><ele>99.0</ele><time>2026-04-22T07:35:03.999Z</time></trkpt><trkpt lat="44.37635751585688" lon="9.146134706888464"><ele>95.0</ele><time>2026-04-22T07:35:04.999Z</time></trkpt><trkpt lat="44.37648732587309" lon="9.145884060808728"><ele>91.0</ele><time>2026-04-22T07:35:05.999Z</time></trkpt><trkpt lat="44.37660928204171" lon="9.145628138519873"><ele>87.0</ele><time>2026-04-22T07:35:06.999Z</time></trkpt><trkpt lat="44.37672560158561" lon="9.145365927556355"><ele>95.33333333333334</ele><time>2026-04-22T07:35:07.999Z</time></trkpt><trkpt lat="44.376834206643245" lon="9.145100320192943"><ele>103.66666666666667</ele><time>2026-04-22T07:35:08.999Z</time></trkpt><trkpt lat="44.37693269254662" lon="9.144829534146114"><ele>112.0</ele><time>2026-04-22T07:35:09.999Z</time></trkpt><trkpt lat="44.37701951202759" lon="9.144549284507825"><ele>112.0</ele><time>2026-04-22T07:35:10.999Z</time></trkpt><trkpt lat="44.37709780123831" lon="9.144269665865197"><ele>112.0</ele><time>2026-04-22T07:35:11.999Z</time></trkpt><trkpt lat="44.37716199402942" lon="9.143985294425466"><ele>112.0</ele><time>2026-04-22T07:35:12.999Z</time></trkpt><trkpt lat="44.37721866226918" lon="9.143706167812836"><ele>112.0</ele><time>2026-04-22T07:35:13.999Z</time></trkpt><trkpt lat="44.3772607621409" lon="9.143420453644378"><ele>112.0</ele><time>2026-04-22T07:35:14.999Z</time></trkpt><trkpt lat="44.37729616094436" lon="9.143128978955287"><ele>112.0</ele><time>2026-04-22T07:35:15.999Z</time></trkpt><trkpt lat="44.3773290815055" lon="9.142841504467821"><ele>116.33333333333334</ele><time>2026-04-22T07:35:16.999Z</time></trkpt><trkpt lat="44.377355107547054" lon="9.142560953454888"><ele>120.66666666666666</ele><time>2026-04-22T07:35:17.999Z</time></trkpt><trkpt lat="44.37738138327852" lon="9.142275492803256"><ele>125.0</ele><time>2026-04-22T07:35:18.998Z</time></trkpt><trkpt lat="44.37740617337615" lon="9.14198370118113"><ele>132.33333333333331</ele><time>2026-04-22T07:35:19.998Z</time></trkpt><trkpt lat="44.37743448353859" lon="9.14173041749229"><ele>139.66666666666666</ele><time>2026-04-22T07:35:20.998Z</time></trkpt><trkpt lat="44.37745686432164" lon="9.141444643314117"><ele>147.0</ele><time>2026-04-22T07:35:21.998Z</time></trkpt><trkpt lat="44.37747453398487" lon="9.141153575565692"><ele>152.0</ele><time>2026-04-22T07:35:22.998Z</time></trkpt><trkpt lat="44.37748923678144" lon="9.140878005248954"><ele>157.0</ele><time>2026-04-22T07:35:23.998Z</time></trkpt><trkpt lat="44.377500507942095" lon="9.140594805087062"><ele>162.0</ele><time>2026-04-22T07:35:24.998Z</time></trkpt><trkpt lat="44.37750544569962" lon="9.140300106508514"><ele>170.5</ele><time>2026-04-22T07:35:25.998Z</time></trkpt><trkpt lat="44.37750296488454" lon="9.139985896886438"><ele>179.0</ele><time>2026-04-22T07:35:26.998Z</time></trkpt><trkpt lat="44.37749681227623" lon="9.13962545562409"><ele>186.0</ele><time>2026-04-22T07:35:28.066Z</time></trkpt><trkpt lat="44.37748401122475" lon="9.139266305576504"><ele>193.0</ele><time>2026-04-22T07:35:29.056Z</time></trkpt><trkpt lat="44.37747085875966" lon="9.138890054517205"><ele>199.5</ele><time>2026-04-22T07:35:30.049Z</time></trkpt><trkpt lat="44.37744824947535" lon="9.138480938588385"><ele>206.0</ele><time>2026-04-22T07:35:31.049Z</time></trkpt><trkpt lat="44.377427745451016" lon="9.13806099103254"><ele>164.0</ele><time>2026-04-22T07:35:32.039Z</time></trkpt><trkpt lat="44.37951287457149" lon="9.117546291133575"><ele>162.5</ele><time>2026-04-22T07:36:28.997Z</time></trkpt><trkpt lat="44.37950466718575" lon="9.117147246158147"><ele>161.0</ele><time>2026-04-22T07:36:29.997Z</time></trkpt><trkpt lat="44.37953789101781" lon="9.116833200971408"><ele>161.0</ele><time>2026-04-22T07:36:30.997Z</time></trkpt><trkpt lat="44.37956584363433" lon="9.116496706110711"><ele>161.0</ele><time>2026-04-22T07:36:31.997Z</time></trkpt><trkpt lat="44.3795933950373" lon="9.116164493379898"><ele>161.0</ele><time>2026-04-22T07:36:32.997Z</time></trkpt><trkpt lat="44.379621443863456" lon="9.115830032210553"><ele>161.0</ele><time>2026-04-22T07:36:33.999Z</time></trkpt><trkpt lat="44.37965172646986" lon="9.115490282747478"><ele>163.5</ele><time>2026-04-22T07:36:34.999Z</time></trkpt><trkpt lat="44.37967537956018" lon="9.115148886529063"><ele>166.0</ele><time>2026-04-22T07:36:35.999Z</time></trkpt><trkpt lat="44.37969317079641" lon="9.114793712688009"><ele>144.5</ele><time>2026-04-22T07:36:36.999Z</time></trkpt><trkpt lat="44.379720684137226" lon="9.114442905662814"><ele>123.0</ele><time>2026-04-22T07:36:37.999Z</time></trkpt><trkpt lat="44.379745811364856" lon="9.114088763908368"><ele>121.0</ele><time>2026-04-22T07:36:38.999Z</time></trkpt><trkpt lat="44.37978457446051" lon="9.113747531185231"><ele>119.0</ele><time>2026-04-22T07:36:40Z</time></trkpt><trkpt lat="44.3798099840217" lon="9.11339695542969"><ele>121.5</ele><time>2026-04-22T07:36:41Z</time></trkpt><trkpt lat="44.379841021736546" lon="9.113044956831265"><ele>124.0</ele><time>2026-04-22T07:36:42Z</time></trkpt><trkpt lat="44.379875346839654" lon="9.11269969906937"><ele>124.0</ele><time>2026-04-22T07:36:43Z</time></trkpt><trkpt lat="44.379901416262555" lon="9.112346612361849"><ele>124.0</ele><time>2026-04-22T07:36:44Z</time></trkpt><trkpt lat="44.37992220189726" lon="9.11202266500305"><ele>124.0</ele><time>2026-04-22T07:36:45Z</time></trkpt><trkpt lat="44.37996060976651" lon="9.111668255493301"><ele>124.0</ele><time>2026-04-22T07:36:46Z</time></trkpt><trkpt lat="44.37999389734648" lon="9.111330576651193"><ele>110.0</ele><time>2026-04-22T07:36:47Z</time></trkpt><trkpt lat="44.380015294972466" lon="9.11098046555119"><ele>96.0</ele><time>2026-04-22T07:36:48Z</time></trkpt><trkpt lat="44.3800401657669" lon="9.110635002191469"><ele>78.5</ele><time>2026-04-22T07:36:49Z</time></trkpt><trkpt lat="44.38006855481209" lon="9.11030252414691"><ele>61.0</ele><time>2026-04-22T07:36:50Z</time></trkpt><trkpt lat="44.38009821576423" lon="9.109973966872671"><ele>49.0</ele><time>2026-04-22T07:36:51Z</time></trkpt><trkpt lat="44.38012197784454" lon="9.109646111464963"><ele>37.0</ele><time>2026-04-22T07:36:52Z</time></trkpt><trkpt lat="44.38015301588774" lon="9.109332774061462"><ele>39.0</ele><time>2026-04-22T07:36:53Z</time></trkpt><trkpt lat="44.38017856671913" lon="9.10902491087923"><ele>41.0</ele><time>2026-04-22T07:36:54Z</time></trkpt><trkpt lat="44.38021245546273" lon="9.108721306646862"><ele>43.0</ele><time>2026-04-22T07:36:55Z</time></trkpt><trkpt lat="44.380228227236884" lon="9.1084309063202"><ele>52.333333333333336</ele><time>2026-04-22T07:36:56Z</time></trkpt><trkpt lat="44.38025305961647" lon="9.108153627542901"><ele>61.66666666666667</ele><time>2026-04-22T07:36:57Z</time></trkpt><trkpt lat="44.38027521426987" lon="9.107875331904626"><ele>71.0</ele><time>2026-04-22T07:36:58Z</time></trkpt><trkpt lat="44.380306839809464" lon="9.107607413545834"><ele>81.33333333333334</ele><time>2026-04-22T07:36:59Z</time></trkpt><trkpt lat="44.38033194237578" lon="9.10734549393297"><ele>91.66666666666667</ele><time>2026-04-22T07:37:00Z</time></trkpt><trkpt lat="44.380377979949536" lon="9.107085546818004"><ele>102.0</ele><time>2026-04-22T07:37:01Z</time></trkpt><trkpt lat="44.38042706161553" lon="9.106819989470075"><ele>109.66666666666666</ele><time>2026-04-22T07:37:02Z</time></trkpt><trkpt lat="44.38049255899682" lon="9.106562803587753"><ele>117.33333333333333</ele><time>2026-04-22T07:37:03Z</time></trkpt><trkpt lat="44.38056740778401" lon="9.106308501104015"><ele>125.0</ele><time>2026-04-22T07:37:04Z</time></trkpt><trkpt lat="44.38064807942219" lon="9.106055876158331"><ele>125.0</ele><time>2026-04-22T07:37:05Z</time></trkpt><trkpt lat="44.3807466570988" lon="9.105800380813102"><ele>125.0</ele><time>2026-04-22T07:37:06Z</time></trkpt><trkpt lat="44.380859774300106" lon="9.105546481097655"><ele>125.0</ele><time>2026-04-22T07:37:07Z</time></trkpt><trkpt lat="44.380983703205494" lon="9.105304380130788"><ele>133.5</ele><time>2026-04-22T07:37:08Z</time></trkpt><trkpt lat="44.381122234601435" lon="9.10505971244747"><ele>142.0</ele><time>2026-04-22T07:37:09Z</time></trkpt><trkpt lat="44.38127561718969" lon="9.104826073418348"><ele>138.5</ele><time>2026-04-22T07:37:10Z</time></trkpt><trkpt lat="44.38144386705553" lon="9.10459445177712"><ele>135.0</ele><time>2026-04-22T07:37:11Z</time></trkpt><trkpt lat="44.38162191844902" lon="9.10438665910048"><ele>135.0</ele><time>2026-04-22T07:37:12Z</time></trkpt><trkpt lat="44.38181962018285" lon="9.104180624107306"><ele>135.0</ele><time>2026-04-22T07:37:13Z</time></trkpt><trkpt lat="44.382035201944895" lon="9.103991242257537"><ele>141.5</ele><time>2026-04-22T07:37:14Z</time></trkpt><trkpt lat="44.38225022393617" lon="9.103811300461622"><ele>148.0</ele><time>2026-04-22T07:37:15Z</time></trkpt><trkpt lat="44.38245842669625" lon="9.103640596596973"><ele>148.0</ele><time>2026-04-22T07:37:16Z</time></trkpt><trkpt lat="44.382664880683095" lon="9.103487077363987"><ele>148.0</ele><time>2026-04-22T07:37:17Z</time></trkpt><trkpt lat="44.38286049668432" lon="9.103331020259708"><ele>150.66666666666669</ele><time>2026-04-22T07:37:18Z</time></trkpt><trkpt lat="44.38304788884962" lon="9.10316918270234"><ele>153.33333333333334</ele><time>2026-04-22T07:37:19Z</time></trkpt><trkpt lat="44.383228175907725" lon="9.103003905757932"><ele>156.0</ele><time>2026-04-22T07:37:20Z</time></trkpt><trkpt lat="44.38340488131833" lon="9.102837932230962"><ele>156.0</ele><time>2026-04-22T07:37:21Z</time></trkpt><trkpt lat="44.383572100047" lon="9.10265768471779"><ele>156.0</ele><time>2026-04-22T07:37:22Z</time></trkpt><trkpt lat="44.38374061899626" lon="9.102454380864744"><ele>156.0</ele><time>2026-04-22T07:37:23Z</time></trkpt><trkpt lat="44.38390448521303" lon="9.102236084832581"><ele>147.5</ele><time>2026-04-22T07:37:24Z</time></trkpt><trkpt lat="44.3840651766774" lon="9.10200676173211"><ele>139.0</ele><time>2026-04-22T07:37:25Z</time></trkpt><trkpt lat="44.384226536102915" lon="9.101769630844505"><ele>155.5</ele><time>2026-04-22T07:37:26Z</time></trkpt><trkpt lat="44.3843849486137" lon="9.101526361971473"><ele>172.0</ele><time>2026-04-22T07:37:27Z</time></trkpt><trkpt lat="44.384537530599246" lon="9.1012802244274"><ele>154.0</ele><time>2026-04-22T07:37:28Z</time></trkpt><trkpt lat="44.38469424337486" lon="9.101031454684515"><ele>136.0</ele><time>2026-04-22T07:37:29Z</time></trkpt><trkpt lat="44.38484855617326" lon="9.10078834576854"><ele>151.0</ele><time>2026-04-22T07:37:30Z</time></trkpt><trkpt lat="44.38500119180525" lon="9.100550715783386"><ele>166.0</ele><time>2026-04-22T07:37:31Z</time></trkpt><trkpt lat="44.38515093949149" lon="9.100315515449505"><ele>166.0</ele><time>2026-04-22T07:37:32Z</time></trkpt><trkpt lat="44.385299444653086" lon="9.100083093916803"><ele>166.0</ele><time>2026-04-22T07:37:33Z</time></trkpt><trkpt lat="44.385442740283416" lon="9.09985486315757"><ele>166.0</ele><time>2026-04-22T07:37:34Z</time></trkpt><trkpt lat="44.38558195783888" lon="9.099629700752972"><ele>166.0</ele><time>2026-04-22T07:37:35Z</time></trkpt><trkpt lat="44.38571060479823" lon="9.099412273523129"><ele>166.0</ele><time>2026-04-22T07:37:36Z</time></trkpt><trkpt lat="44.38583311964815" lon="9.099194631324309"><ele>166.0</ele><time>2026-04-22T07:37:37Z</time></trkpt><trkpt lat="44.385950126020965" lon="9.09896419493186"><ele>166.0</ele><time>2026-04-22T07:37:38Z</time></trkpt><trkpt lat="44.38606403979084" lon="9.098723090574529"><ele>166.0</ele><time>2026-04-22T07:37:39Z</time></trkpt><trkpt lat="44.38617381840434" lon="9.09846818466114"><ele>166.0</ele><time>2026-04-22T07:37:40Z</time></trkpt><trkpt lat="44.38627592002848" lon="9.09820529314233"><ele>181.66666666666669</ele><time>2026-04-22T07:37:41Z</time></trkpt><trkpt lat="44.38637807128798" lon="9.097937581341945"><ele>197.33333333333334</ele><time>2026-04-22T07:37:42Z</time></trkpt><trkpt lat="44.38647451744434" lon="9.0976725049872"><ele>213.0</ele><time>2026-04-22T07:37:43Z</time></trkpt><trkpt lat="44.38656962514032" lon="9.097413074148106"><ele>222.33333333333331</ele><time>2026-04-22T07:37:44Z</time></trkpt><trkpt lat="44.386666559987724" lon="9.097153045759123"><ele>231.66666666666666</ele><time>2026-04-22T07:37:45Z</time></trkpt><trkpt lat="44.38675591011641" lon="9.096908667342527"><ele>241.0</ele><time>2026-04-22T07:37:46Z</time></trkpt><trkpt lat="44.386849417945314" lon="9.096633921992359"><ele>248.33333333333331</ele><time>2026-04-22T07:37:47.07Z</time></trkpt><trkpt lat="44.38693358118945" lon="9.096378544530427"><ele>255.66666666666669</ele><time>2026-04-22T07:37:48.054Z</time></trkpt><trkpt lat="44.387030399151485" lon="9.096124530190995"><ele>263.0</ele><time>2026-04-22T07:37:49.054Z</time></trkpt><trkpt lat="44.387117934985866" lon="9.09585418153225"><ele>241.0</ele><time>2026-04-22T07:37:50.054Z</time></trkpt><trkpt lat="44.38721268231007" lon="9.095590555390448"><ele>219.0</ele><time>2026-04-22T07:37:51.05Z</time></trkpt><trkpt lat="44.38950764456464" lon="9.081909762561025"><ele>175.5</ele><time>2026-04-22T07:38:34.999Z</time></trkpt><trkpt lat="44.38950505525687" lon="9.081568568921401"><ele>132.0</ele><time>2026-04-22T07:38:35.999Z</time></trkpt><trkpt lat="44.38949741397591" lon="9.081218537484053"><ele>132.0</ele><time>2026-04-22T07:38:36.999Z</time></trkpt><trkpt lat="44.389482445103226" lon="9.080878191857787"><ele>132.0</ele><time>2026-04-22T07:38:37.999Z</time></trkpt><trkpt lat="44.389459173660555" lon="9.080528461940007"><ele>139.0</ele><time>2026-04-22T07:38:38.999Z</time></trkpt><trkpt lat="44.38943815716575" lon="9.080192434678297"><ele>146.0</ele><time>2026-04-22T07:38:39.999Z</time></trkpt><trkpt lat="44.38942096402586" lon="9.079839926292145"><ele>150.0</ele><time>2026-04-22T07:38:41Z</time></trkpt><trkpt lat="44.389401688488334" lon="9.079492740043142"><ele>154.0</ele><time>2026-04-22T07:38:42Z</time></trkpt><trkpt lat="44.38938561531186" lon="9.079151842853918"><ele>157.5</ele><time>2026-04-22T07:38:43Z</time></trkpt><trkpt lat="44.389368224785166" lon="9.078805195488325"><ele>161.0</ele><time>2026-04-22T07:38:44Z</time></trkpt><trkpt lat="44.389352600146275" lon="9.078463289540258"><ele>172.5</ele><time>2026-04-22T07:38:45Z</time></trkpt><trkpt lat="44.389335240723575" lon="9.078120879075435"><ele>184.0</ele><time>2026-04-22T07:38:46Z</time></trkpt><trkpt lat="44.38931798298195" lon="9.077782042911272"><ele>184.0</ele><time>2026-04-22T07:38:47Z</time></trkpt><trkpt lat="44.38929806837457" lon="9.07745985341331"><ele>184.0</ele><time>2026-04-22T07:38:48Z</time></trkpt><trkpt lat="44.38928047775083" lon="9.077142113528588"><ele>195.33333333333334</ele><time>2026-04-22T07:38:49Z</time></trkpt><trkpt lat="44.38925752117277" lon="9.076832260930303"><ele>206.66666666666669</ele><time>2026-04-22T07:38:50Z</time></trkpt><trkpt lat="44.38923673641554" lon="9.076521112764269"><ele>218.0</ele><time>2026-04-22T07:38:51Z</time></trkpt><trkpt lat="44.38921707412474" lon="9.076207698378811"><ele>236.0</ele><time>2026-04-22T07:38:52Z</time></trkpt><trkpt lat="44.38919622719077" lon="9.075862712850677"><ele>254.0</ele><time>2026-04-22T07:38:53.067Z</time></trkpt><trkpt lat="44.38917740797466" lon="9.075554571602463"><ele>247.0</ele><time>2026-04-22T07:38:54.05Z</time></trkpt><trkpt lat="44.389074063546566" lon="9.072733496478724"><ele>180.0</ele><time>2026-04-22T07:38:57.499Z</time></trkpt><trkpt lat="44.38901090406482" lon="9.071357128936326"><ele>178.0</ele><time>2026-04-22T07:38:58.498Z</time></trkpt><trkpt lat="44.38895034003053" lon="9.069900150820493"><ele>178.0</ele><time>2026-04-22T07:39:11Z</time></trkpt><trkpt lat="44.38891218230799" lon="9.069522270484585"><ele>178.0</ele><time>2026-04-22T07:39:12Z</time></trkpt><trkpt lat="44.38892080988306" lon="9.06928458834287"><ele>178.0</ele><time>2026-04-22T07:39:13Z</time></trkpt><trkpt lat="44.388902806706994" lon="9.068945203326841"><ele>184.0</ele><time>2026-04-22T07:39:14Z</time></trkpt><trkpt lat="44.38888938133963" lon="9.068638311542808"><ele>190.0</ele><time>2026-04-22T07:39:15Z</time></trkpt><trkpt lat="44.3888843938877" lon="9.068340419667596"><ele>196.0</ele><time>2026-04-22T07:39:16Z</time></trkpt><trkpt lat="44.38888777052574" lon="9.06803206583018"><ele>196.33333333333331</ele><time>2026-04-22T07:39:17Z</time></trkpt><trkpt lat="44.38890156955207" lon="9.06772873281692"><ele>196.66666666666669</ele><time>2026-04-22T07:39:18Z</time></trkpt><trkpt lat="44.3889227103055" lon="9.067427311150855"><ele>197.0</ele><time>2026-04-22T07:39:19Z</time></trkpt><trkpt lat="44.38894931260949" lon="9.067120074527704"><ele>206.0</ele><time>2026-04-22T07:39:20Z</time></trkpt><trkpt lat="44.38898889196058" lon="9.066812357370699"><ele>215.0</ele><time>2026-04-22T07:39:21Z</time></trkpt><trkpt lat="44.38903680547953" lon="9.066504425783387"><ele>224.0</ele><time>2026-04-22T07:39:22Z</time></trkpt><trkpt lat="44.38909593728665" lon="9.06619159489033"><ele>243.5</ele><time>2026-04-22T07:39:23Z</time></trkpt><trkpt lat="44.38916173107673" lon="9.065876217207695"><ele>263.0</ele><time>2026-04-22T07:39:24Z</time></trkpt><trkpt lat="44.38923344613552" lon="9.0655534885715"><ele>271.5</ele><time>2026-04-22T07:39:25Z</time></trkpt><trkpt lat="44.389311129537454" lon="9.06520281082177"><ele>280.0</ele><time>2026-04-22T07:39:26.068Z</time></trkpt><trkpt lat="44.38938357789194" lon="9.064869248229762"><ele>289.0</ele><time>2026-04-22T07:39:27.062Z</time></trkpt><trkpt lat="44.38946945388095" lon="9.064520523777718"><ele>298.0</ele><time>2026-04-22T07:39:28.051Z</time></trkpt><trkpt lat="44.38955199493143" lon="9.064170889256893"><ele>423.0</ele><time>2026-04-22T07:39:29.055Z</time></trkpt><trkpt lat="44.39032299168825" lon="9.060497529363051"><ele>471.0</ele><time>2026-04-22T07:39:33.498Z</time></trkpt><trkpt lat="44.390532437596015" lon="9.059536045249418"><ele>464.0</ele><time>2026-04-22T07:39:34.499Z</time></trkpt><trkpt lat="44.390741959060065" lon="9.058576061364796"><ele>445.0</ele><time>2026-04-22T07:39:35.498Z</time></trkpt><trkpt lat="44.39095187823356" lon="9.057615697304719"><ele>430.0</ele><time>2026-04-22T07:39:36.498Z</time></trkpt><trkpt lat="44.3911619972362" lon="9.056654419041706"><ele>362.0</ele><time>2026-04-22T07:39:37.499Z</time></trkpt><trkpt lat="44.39137145823354" lon="9.055694890608816"><ele>351.0</ele><time>2026-04-22T07:39:38.498Z</time></trkpt><trkpt lat="44.39157908028425" lon="9.05473300545181"><ele>336.0</ele><time>2026-04-22T07:39:39.498Z</time></trkpt><trkpt lat="44.391786530746174" lon="9.053771852590616"><ele>324.0</ele><time>2026-04-22T07:39:40.498Z</time></trkpt><trkpt lat="44.391994179312924" lon="9.052812112439106"><ele>278.0</ele><time>2026-04-22T07:39:41.496Z</time></trkpt><trkpt lat="44.39220238224066" lon="9.051848950188566"><ele>255.0</ele><time>2026-04-22T07:39:42.498Z</time></trkpt><trkpt lat="44.3924107444929" lon="9.050888502383168"><ele>215.0</ele><time>2026-04-22T07:39:43.498Z</time></trkpt><trkpt lat="44.39261440818877" lon="9.049926387092464"><ele>201.0</ele><time>2026-04-22T07:39:44.497Z</time></trkpt><trkpt lat="44.39276786203285" lon="9.048944912224824"><ele>184.0</ele><time>2026-04-22T07:39:45.498Z</time></trkpt><trkpt lat="44.39284635530056" lon="9.04794722280478"><ele>164.0</ele><time>2026-04-22T07:39:46.498Z</time></trkpt><trkpt lat="44.39285283220851" lon="9.04694303784428"><ele>149.0</ele><time>2026-04-22T07:39:47.499Z</time></trkpt><trkpt lat="44.392589561893004" lon="9.045688996727549"><ele>154.0</ele><time>2026-04-22T07:40:26.554Z</time></trkpt><trkpt lat="44.39288590029311" lon="9.046578981713987"><ele>154.0</ele><time>2026-04-22T07:40:26.999Z</time></trkpt><trkpt lat="44.392946271483055" lon="9.046368089925458"><ele>154.0</ele><time>2026-04-22T07:40:27.999Z</time></trkpt><trkpt lat="44.39290166348674" lon="9.046286270142135"><ele>154.0</ele><time>2026-04-22T07:40:28.999Z</time></trkpt><trkpt lat="44.392894514569655" lon="9.046160489060089"><ele>154.0</ele><time>2026-04-22T07:40:29.999Z</time></trkpt><trkpt lat="44.39292561968516" lon="9.04607963880716"><ele>154.0</ele><time>2026-04-22T07:40:30.999Z</time></trkpt><trkpt lat="44.39297082867572" lon="9.045992550629702"><ele>154.0</ele><time>2026-04-22T07:40:32.999Z</time></trkpt><trkpt lat="44.39308149285444" lon="9.046031525773024"><ele>140.0</ele><time>2026-04-22T07:40:33.999Z</time></trkpt><trkpt lat="44.39316113280128" lon="9.046108362813797"><ele>140.0</ele><time>2026-04-22T07:40:35.999Z</time></trkpt><trkpt lat="44.393186472290836" lon="9.046193179614992"><ele>140.0</ele><time>2026-04-22T07:40:37.999Z</time></trkpt><trkpt lat="44.39311072283215" lon="9.046211930560878"><ele>140.0</ele><time>2026-04-22T07:40:38.999Z</time></trkpt></trkseg><trkseg><trkpt lat="44.39319956117806" lon="9.028418620714502"><ele>372.0</ele><time>2026-04-22T08:00:13.79Z</time></trkpt><trkpt lat="44.39344332636212" lon="9.02708046997345"><ele>329.0</ele><time>2026-04-22T08:00:14.79Z</time></trkpt><trkpt lat="44.39368533076676" lon="9.025741519806255"><ele>261.0</ele><time>2026-04-22T08:00:15.79Z</time></trkpt><trkpt lat="44.39392679723165" lon="9.024402750884605"><ele>192.0</ele><time>2026-04-22T08:00:16.79Z</time></trkpt><trkpt lat="44.394169615795136" lon="9.023056485486883"><ele>144.0</ele><time>2026-04-22T08:00:17.795Z</time></trkpt><trkpt lat="44.394498383903525" lon="9.021224741070009"><ele>144.0</ele><time>2026-04-22T08:00:37.999Z</time></trkpt><trkpt lat="44.39455880428712" lon="9.02084409642314"><ele>144.0</ele><time>2026-04-22T08:00:38.999Z</time></trkpt><trkpt lat="44.39463520061011" lon="9.020463021684149"><ele>153.5</ele><time>2026-04-22T08:00:39.999Z</time></trkpt><trkpt lat="44.39470033051491" lon="9.020099720005055"><ele>163.0</ele><time>2026-04-22T08:00:40.999Z</time></trkpt><trkpt lat="44.39476077456029" lon="9.01975007657888"><ele>172.5</ele><time>2026-04-22T08:00:41.999Z</time></trkpt><trkpt lat="44.3948233878012" lon="9.019403785353632"><ele>182.0</ele><time>2026-04-22T08:00:42.999Z</time></trkpt><trkpt lat="44.39488418317671" lon="9.019056960786454"><ele>195.5</ele><time>2026-04-22T08:00:43.999Z</time></trkpt><trkpt lat="44.39494566830679" lon="9.01870341938433"><ele>209.0</ele><time>2026-04-22T08:00:44.999Z</time></trkpt><trkpt lat="44.39500310206074" lon="9.018357340154337"><ele>218.0</ele><time>2026-04-22T08:00:45.999Z</time></trkpt><trkpt lat="44.395062398146656" lon="9.01799814040026"><ele>227.0</ele><time>2026-04-22T08:00:46.999Z</time></trkpt><trkpt lat="44.39512247167246" lon="9.017657639594812"><ele>223.5</ele><time>2026-04-22T08:00:47.999Z</time></trkpt><trkpt lat="44.395177711199956" lon="9.017322657469808"><ele>220.0</ele><time>2026-04-22T08:00:48.999Z</time></trkpt><trkpt lat="44.39523580522019" lon="9.016968762609235"><ele>202.5</ele><time>2026-04-22T08:00:49.999Z</time></trkpt><trkpt lat="44.39526094597581" lon="9.016588339689314"><ele>185.0</ele><time>2026-04-22T08:00:51.059Z</time></trkpt><trkpt lat="44.39527969266398" lon="9.016207693682428"><ele>185.0</ele><time>2026-04-22T08:00:52.05Z</time></trkpt><trkpt lat="44.39529873646203" lon="9.015839365831058"><ele>185.0</ele><time>2026-04-22T08:00:53.049Z</time></trkpt><trkpt lat="44.39531736992681" lon="9.015478971931932"><ele>124.0</ele><time>2026-04-22T08:00:54.045Z</time></trkpt><trkpt lat="44.39529193462619" lon="9.014367986054149"><ele>107.5</ele><time>2026-04-22T08:00:56.999Z</time></trkpt><trkpt lat="44.39531300114535" lon="9.013955638112389"><ele>91.0</ele><time>2026-04-22T08:00:57.999Z</time></trkpt><trkpt lat="44.39533617005107" lon="9.01352610581017"><ele>91.5</ele><time>2026-04-22T08:00:58.999Z</time></trkpt><trkpt lat="44.39536510730866" lon="9.013107925836247"><ele>92.0</ele><time>2026-04-22T08:00:59.999Z</time></trkpt><trkpt lat="44.3953899909114" lon="9.012693265871052"><ele>100.0</ele><time>2026-04-22T08:01:00.999Z</time></trkpt><trkpt lat="44.395414773774895" lon="9.012282474778933"><ele>108.0</ele><time>2026-04-22T08:01:01.999Z</time></trkpt><trkpt lat="44.3954403210947" lon="9.011939144979003"><ele>113.0</ele><time>2026-04-22T08:01:02.999Z</time></trkpt><trkpt lat="44.3954640435122" lon="9.011586775520438"><ele>118.0</ele><time>2026-04-22T08:01:03.999Z</time></trkpt><trkpt lat="44.395487274609096" lon="9.011232827551929"><ele>132.0</ele><time>2026-04-22T08:01:04.999Z</time></trkpt><trkpt lat="44.39551997249646" lon="9.010898045882877"><ele>146.0</ele><time>2026-04-22T08:01:05.999Z</time></trkpt><trkpt lat="44.39556382516567" lon="9.010596458677773"><ele>146.0</ele><time>2026-04-22T08:01:06.999Z</time></trkpt><trkpt lat="44.39562358409241" lon="9.01029576101622"><ele>146.0</ele><time>2026-04-22T08:01:07.999Z</time></trkpt><trkpt lat="44.395693030801276" lon="9.010003389879028"><ele>146.0</ele><time>2026-04-22T08:01:08.999Z</time></trkpt><trkpt lat="44.395777674734305" lon="9.009718789743665"><ele>142.66666666666666</ele><time>2026-04-22T08:01:09.999Z</time></trkpt><trkpt lat="44.39587604165931" lon="9.009446133629217"><ele>139.33333333333334</ele><time>2026-04-22T08:01:10.999Z</time></trkpt><trkpt lat="44.39598543865261" lon="9.009183355054576"><ele>136.0</ele><time>2026-04-22T08:01:11.999Z</time></trkpt><trkpt lat="44.39610793522872" lon="9.008923970666114"><ele>136.66666666666669</ele><time>2026-04-22T08:01:12.999Z</time></trkpt><trkpt lat="44.39623746478654" lon="9.00867657665976"><ele>137.33333333333334</ele><time>2026-04-22T08:01:13.999Z</time></trkpt><trkpt lat="44.39637575188167" lon="9.008445740577708"><ele>138.0</ele><time>2026-04-22T08:01:14.999Z</time></trkpt><trkpt lat="44.39651797024773" lon="9.008232180397226"><ele>134.33333333333334</ele><time>2026-04-22T08:01:16Z</time></trkpt><trkpt lat="44.39666023746786" lon="9.008040836122774"><ele>130.66666666666669</ele><time>2026-04-22T08:01:17Z</time></trkpt><trkpt lat="44.39680967780247" lon="9.007870731440256"><ele>127.0</ele><time>2026-04-22T08:01:18Z</time></trkpt><trkpt lat="44.396968397059865" lon="9.007704237786776"><ele>127.0</ele><time>2026-04-22T08:01:19Z</time></trkpt><trkpt lat="44.3971474835517" lon="9.007531375555244"><ele>127.0</ele><time>2026-04-22T08:01:20Z</time></trkpt><trkpt lat="44.397334093142376" lon="9.007347962059008"><ele>127.0</ele><time>2026-04-22T08:01:21Z</time></trkpt><trkpt lat="44.397522178866694" lon="9.007152445008302"><ele>110.0</ele><time>2026-04-22T08:01:22Z</time></trkpt><trkpt lat="44.39771629498001" lon="9.006949243094715"><ele>93.0</ele><time>2026-04-22T08:01:23Z</time></trkpt><trkpt lat="44.39792044358826" lon="9.006738652318708"><ele>95.5</ele><time>2026-04-22T08:01:24Z</time></trkpt><trkpt lat="44.3981325081872" lon="9.006525728433125"><ele>98.0</ele><time>2026-04-22T08:01:25Z</time></trkpt><trkpt lat="44.398348133614704" lon="9.006313030524158"><ele>98.0</ele><time>2026-04-22T08:01:26Z</time></trkpt><trkpt lat="44.398566568098396" lon="9.006096781765692"><ele>98.0</ele><time>2026-04-22T08:01:27Z</time></trkpt><trkpt lat="44.398786317398915" lon="9.005879070564408"><ele>121.5</ele><time>2026-04-22T08:01:28Z</time></trkpt><trkpt lat="44.39900960991588" lon="9.005658442629903"><ele>145.0</ele><time>2026-04-22T08:01:29Z</time></trkpt><trkpt lat="44.39922870367674" lon="9.005447350455277"><ele>145.0</ele><time>2026-04-22T08:01:30Z</time></trkpt><trkpt lat="44.399453326300225" lon="9.005230872720036"><ele>145.0</ele><time>2026-04-22T08:01:31Z</time></trkpt><trkpt lat="44.39968253816572" lon="9.004999641227391"><ele>167.5</ele><time>2026-04-22T08:01:32Z</time></trkpt><trkpt lat="44.3999132765247" lon="9.00475392435409"><ele>190.0</ele><time>2026-04-22T08:01:33Z</time></trkpt><trkpt lat="44.40013961019399" lon="9.004507197561793"><ele>190.0</ele><time>2026-04-22T08:01:34Z</time></trkpt><trkpt lat="44.40037112448467" lon="9.00424798076977"><ele>190.0</ele><time>2026-04-22T08:01:35Z</time></trkpt><trkpt lat="44.40059387634744" lon="9.004013993087295"><ele>177.0</ele><time>2026-04-22T08:01:36Z</time></trkpt><trkpt lat="44.40083245313866" lon="9.003789195520735"><ele>164.0</ele><time>2026-04-22T08:01:37Z</time></trkpt><trkpt lat="44.40110577045445" lon="9.003612909883584"><ele>154.5</ele><time>2026-04-22T08:01:38.067Z</time></trkpt><trkpt lat="44.40135684432726" lon="9.003376275280859"><ele>145.0</ele><time>2026-04-22T08:01:39.057Z</time></trkpt><trkpt lat="44.4016144405089" lon="9.003132652300337"><ele>123.0</ele><time>2026-04-22T08:01:40.047Z</time></trkpt><trkpt lat="44.40202871058191" lon="9.002703844714105"><ele>117.5</ele><time>2026-04-22T08:01:42Z</time></trkpt><trkpt lat="44.40225084692171" lon="9.002486457309052"><ele>112.0</ele><time>2026-04-22T08:01:43Z</time></trkpt><trkpt lat="44.40248136772612" lon="9.002251321406193"><ele>112.0</ele><time>2026-04-22T08:01:44Z</time></trkpt><trkpt lat="44.4026902555956" lon="9.002037183969593"><ele>112.0</ele><time>2026-04-22T08:01:45Z</time></trkpt><trkpt lat="44.40290708874587" lon="9.001818459301424"><ele>131.0</ele><time>2026-04-22T08:01:46Z</time></trkpt><trkpt lat="44.40311746762192" lon="9.001607279292008"><ele>150.0</ele><time>2026-04-22T08:01:47Z</time></trkpt><trkpt lat="44.40330943365874" lon="9.001418184647104"><ele>150.0</ele><time>2026-04-22T08:01:48Z</time></trkpt><trkpt lat="44.403510589351065" lon="9.001219205813493"><ele>150.0</ele><time>2026-04-22T08:01:49Z</time></trkpt><trkpt lat="44.40369966705878" lon="9.001047614378805"><ele>165.0</ele><time>2026-04-22T08:01:50Z</time></trkpt><trkpt lat="44.404275251649764" lon="9.000402821929702"><ele>165.0</ele><time>2026-04-22T08:01:53Z</time></trkpt><trkpt lat="44.40446569720538" lon="9.00020281762457"><ele>165.0</ele><time>2026-04-22T08:01:54Z</time></trkpt><trkpt lat="44.40465995858162" lon="8.999999261536578"><ele>171.0</ele><time>2026-04-22T08:01:55.055Z</time></trkpt><trkpt lat="44.40484272959075" lon="8.999793299185367"><ele>177.0</ele><time>2026-04-22T08:01:56.051Z</time></trkpt><trkpt lat="44.40502964201648" lon="8.9995827164783"><ele>177.0</ele><time>2026-04-22T08:01:57.048Z</time></trkpt><trkpt lat="44.40521522328782" lon="8.999381801599544"><ele>177.0</ele><time>2026-04-22T08:01:58.047Z</time></trkpt><trkpt lat="44.405395056688775" lon="8.999192272743597"><ele>193.0</ele><time>2026-04-22T08:01:59.042Z</time></trkpt><trkpt lat="44.405572080290696" lon="8.999009137022153"><ele>209.0</ele><time>2026-04-22T08:02:00.029Z</time></trkpt><trkpt lat="44.40729508743017" lon="8.997251019842734"><ele>105.0</ele><time>2026-04-22T08:02:10.252Z</time></trkpt><trkpt lat="44.4109233712176" lon="8.992454559060667"><ele>105.0</ele><time>2026-04-22T08:02:21.999Z</time></trkpt><trkpt lat="44.41112122824739" lon="8.992199061609686"><ele>105.0</ele><time>2026-04-22T08:02:22.999Z</time></trkpt><trkpt lat="44.4113510061225" lon="8.991928178437153"><ele>81.5</ele><time>2026-04-22T08:02:23.999Z</time></trkpt><trkpt lat="44.411552912552935" lon="8.991682597215858"><ele>58.0</ele><time>2026-04-22T08:02:24.999Z</time></trkpt><trkpt lat="44.41175488502836" lon="8.991433220164986"><ele>54.5</ele><time>2026-04-22T08:02:25.999Z</time></trkpt><trkpt lat="44.41195378160736" lon="8.991200412505014"><ele>51.0</ele><time>2026-04-22T08:02:26.999Z</time></trkpt><trkpt lat="44.41213705205789" lon="8.990976769705485"><ele>68.5</ele><time>2026-04-22T08:02:27.999Z</time></trkpt><trkpt lat="44.41232199514461" lon="8.990744817195738"><ele>86.0</ele><time>2026-04-22T08:02:28.999Z</time></trkpt><trkpt lat="44.412499270192065" lon="8.99053151387485"><ele>86.0</ele><time>2026-04-22T08:02:29.999Z</time></trkpt><trkpt lat="44.412678280915244" lon="8.990336903591448"><ele>86.0</ele><time>2026-04-22T08:02:30.999Z</time></trkpt><trkpt lat="44.41285573483832" lon="8.990137973464329"><ele>107.0</ele><time>2026-04-22T08:02:31.999Z</time></trkpt><trkpt lat="44.41304380692617" lon="8.989925597330393"><ele>128.0</ele><time>2026-04-22T08:02:32.999Z</time></trkpt><trkpt lat="44.41323407048037" lon="8.989724848036168"><ele>128.0</ele><time>2026-04-22T08:02:33.999Z</time></trkpt><trkpt lat="44.41342724197145" lon="8.98952606133101"><ele>128.0</ele><time>2026-04-22T08:02:34.999Z</time></trkpt><trkpt lat="44.41361990050267" lon="8.98931583806681"><ele>134.0</ele><time>2026-04-22T08:02:35.999Z</time></trkpt><trkpt lat="44.4138115951068" lon="8.989097061427108"><ele>140.0</ele><time>2026-04-22T08:02:36.999Z</time></trkpt><trkpt lat="44.41400176957112" lon="8.988873235193946"><ele>159.0</ele><time>2026-04-22T08:02:37.999Z</time></trkpt><trkpt lat="44.41419150861929" lon="8.9886504154105"><ele>178.0</ele><time>2026-04-22T08:02:38.999Z</time></trkpt><trkpt lat="44.41438192310479" lon="8.988428804345336"><ele>190.5</ele><time>2026-04-22T08:02:39.999Z</time></trkpt><trkpt lat="44.41457046889378" lon="8.988209661394343"><ele>203.0</ele><time>2026-04-22T08:02:40.999Z</time></trkpt><trkpt lat="44.414766735484505" lon="8.98797849162795"><ele>210.0</ele><time>2026-04-22T08:02:42.057Z</time></trkpt><trkpt lat="44.41494723622613" lon="8.987761331032258"><ele>217.0</ele><time>2026-04-22T08:02:43.052Z</time></trkpt><trkpt lat="44.41511916790517" lon="8.987546957036972"><ele>210.0</ele><time>2026-04-22T08:02:44.047Z</time></trkpt><trkpt lat="44.415286008850956" lon="8.987336115963705"><ele>203.0</ele><time>2026-04-22T08:02:45.04Z</time></trkpt><trkpt lat="44.41544503390924" lon="8.98712632542451"><ele>196.0</ele><time>2026-04-22T08:02:46.041Z</time></trkpt><trkpt lat="44.41560003382125" lon="8.986923587171265"><ele>279.0</ele><time>2026-04-22T08:02:47.025Z</time></trkpt><trkpt lat="44.417763630750564" lon="8.983992535300162"><ele>264.0</ele><time>2026-04-22T08:02:51.788Z</time></trkpt><trkpt lat="44.41846709401047" lon="8.983021455439614"><ele>227.0</ele><time>2026-04-22T08:02:52.788Z</time></trkpt><trkpt lat="44.419170685068465" lon="8.9820494356387"><ele>227.0</ele><time>2026-04-22T08:02:53.788Z</time></trkpt><trkpt lat="44.41987687821394" lon="8.981081600979337"><ele>232.0</ele><time>2026-04-22T08:02:54.788Z</time></trkpt><trkpt lat="44.42058182184626" lon="8.980111977465885"><ele>183.0</ele><time>2026-04-22T08:02:55.788Z</time></trkpt><trkpt lat="44.421286760132055" lon="8.979142172622893"><ele>146.0</ele><time>2026-04-22T08:02:56.788Z</time></trkpt><trkpt lat="44.421961153416554" lon="8.978133440232696"><ele>115.0</ele><time>2026-04-22T08:02:57.788Z</time></trkpt><trkpt lat="44.4225085375386" lon="8.977399879141172"><ele>115.0</ele><time>2026-04-22T08:03:19.999Z</time></trkpt><trkpt lat="44.422706576265156" lon="8.977105959538326"><ele>115.0</ele><time>2026-04-22T08:03:20.999Z</time></trkpt><trkpt lat="44.42291472927466" lon="8.976849924994902"><ele>106.5</ele><time>2026-04-22T08:03:21.999Z</time></trkpt><trkpt lat="44.423107782696874" lon="8.976559308130339"><ele>98.0</ele><time>2026-04-22T08:03:22.999Z</time></trkpt><trkpt lat="44.42329425306411" lon="8.976293409797519"><ele>98.0</ele><time>2026-04-22T08:03:23.999Z</time></trkpt><trkpt lat="44.42347174152932" lon="8.976044352216261"><ele>98.0</ele><time>2026-04-22T08:03:25Z</time></trkpt><trkpt lat="44.42365938223115" lon="8.975796182625677"><ele>118.0</ele><time>2026-04-22T08:03:26Z</time></trkpt><trkpt lat="44.42385306241211" lon="8.975558014899303"><ele>138.0</ele><time>2026-04-22T08:03:27Z</time></trkpt><trkpt lat="44.424049708575176" lon="8.9753033704192"><ele>138.0</ele><time>2026-04-22T08:03:28Z</time></trkpt><trkpt lat="44.424243303315954" lon="8.97506599117875"><ele>138.0</ele><time>2026-04-22T08:03:29Z</time></trkpt><trkpt lat="44.42443740982926" lon="8.974827985781442"><ele>142.0</ele><time>2026-04-22T08:03:30Z</time></trkpt><trkpt lat="44.42463152371677" lon="8.974589970582453"><ele>146.0</ele><time>2026-04-22T08:03:31Z</time></trkpt><trkpt lat="44.42482563399048" lon="8.974351959008851"><ele>161.0</ele><time>2026-04-22T08:03:32Z</time></trkpt><trkpt lat="44.42501974020648" lon="8.974113951603055"><ele>176.0</ele><time>2026-04-22T08:03:33Z</time></trkpt><trkpt lat="44.42521385415827" lon="8.973875933953652"><ele>176.0</ele><time>2026-04-22T08:03:34Z</time></trkpt><trkpt lat="44.42540258793215" lon="8.973603491662011"><ele>176.0</ele><time>2026-04-22T08:03:35.052Z</time></trkpt><trkpt lat="44.42678367197012" lon="8.971524888577676"><ele>260.0</ele><time>2026-04-22T08:03:38.788Z</time></trkpt><trkpt lat="44.42737478318493" lon="8.97057795255901"><ele>267.0</ele><time>2026-04-22T08:03:39.788Z</time></trkpt><trkpt lat="44.42793664506485" lon="8.969596973393251"><ele>291.0</ele><time>2026-04-22T08:03:40.788Z</time></trkpt><trkpt lat="44.42849323755134" lon="8.96860936159243"><ele>270.0</ele><time>2026-04-22T08:03:41.788Z</time></trkpt><trkpt lat="44.42904877795131" lon="8.967620503254242"><ele>261.0</ele><time>2026-04-22T08:03:42.789Z</time></trkpt><trkpt lat="44.42960365260728" lon="8.966632829936092"><ele>217.0</ele><time>2026-04-22T08:03:43.788Z</time></trkpt><trkpt lat="44.43015959679726" lon="8.965644200099286"><ele>180.0</ele><time>2026-04-22T08:03:44.789Z</time></trkpt><trkpt lat="44.43071480246634" lon="8.964657899950517"><ele>159.0</ele><time>2026-04-22T08:03:45.787Z</time></trkpt><trkpt lat="44.431268394482174" lon="8.963667650730041"><ele>105.0</ele><time>2026-04-22T08:03:46.788Z</time></trkpt><trkpt lat="44.43171714562145" lon="8.962924185097318"><ele>105.0</ele><time>2026-04-22T08:04:13Z</time></trkpt><trkpt lat="44.43185848292249" lon="8.96266564527982"><ele>105.0</ele><time>2026-04-22T08:04:14Z</time></trkpt><trkpt lat="44.432016270186466" lon="8.962283194982195"><ele>79.5</ele><time>2026-04-22T08:04:15Z</time></trkpt><trkpt lat="44.432166626694666" lon="8.962013209223606"><ele>54.0</ele><time>2026-04-22T08:04:15.999Z</time></trkpt><trkpt lat="44.43230275233517" lon="8.961737613954615"><ele>50.666666666666664</ele><time>2026-04-22T08:04:16.999Z</time></trkpt><trkpt lat="44.43244047752997" lon="8.961490657617846"><ele>47.33333333333333</ele><time>2026-04-22T08:04:17.999Z</time></trkpt><trkpt lat="44.43257034033442" lon="8.961241470988675"><ele>44.0</ele><time>2026-04-22T08:04:18.999Z</time></trkpt><trkpt lat="44.432710675155526" lon="8.960992259580353"><ele>40.33333333333333</ele><time>2026-04-22T08:04:19.999Z</time></trkpt><trkpt lat="44.4328443373246" lon="8.960744701490208"><ele>36.666666666666664</ele><time>2026-04-22T08:04:20.999Z</time></trkpt><trkpt lat="44.43298143449247" lon="8.960504441956102"><ele>33.0</ele><time>2026-04-22T08:04:21.999Z</time></trkpt><trkpt lat="44.43311516322705" lon="8.960262786548252"><ele>33.666666666666664</ele><time>2026-04-22T08:04:22.999Z</time></trkpt><trkpt lat="44.43325149023464" lon="8.960025371620297"><ele>34.33333333333333</ele><time>2026-04-22T08:04:23.999Z</time></trkpt><trkpt lat="44.433384079612516" lon="8.959778905195321"><ele>35.0</ele><time>2026-04-22T08:04:24.999Z</time></trkpt><trkpt lat="44.43351836212762" lon="8.959525873427156"><ele>35.0</ele><time>2026-04-22T08:04:25.999Z</time></trkpt><trkpt lat="44.43365658122023" lon="8.95927881698457"><ele>35.0</ele><time>2026-04-22T08:04:26.999Z</time></trkpt><trkpt lat="44.43379536412968" lon="8.959027643625934"><ele>35.0</ele><time>2026-04-22T08:04:27.999Z</time></trkpt><trkpt lat="44.43393291890681" lon="8.958775451603108"><ele>35.0</ele><time>2026-04-22T08:04:28.999Z</time></trkpt><trkpt lat="44.43406763348405" lon="8.958529136260916"><ele>35.0</ele><time>2026-04-22T08:04:29.999Z</time></trkpt><trkpt lat="44.43420091267011" lon="8.958277857457182"><ele>41.0</ele><time>2026-04-22T08:04:30.999Z</time></trkpt><trkpt lat="44.434336538748404" lon="8.958036701271567"><ele>47.0</ele><time>2026-04-22T08:04:31.999Z</time></trkpt><trkpt lat="44.4344663667713" lon="8.957802180331482"><ele>53.0</ele><time>2026-04-22T08:04:32.999Z</time></trkpt><trkpt lat="44.43459271897659" lon="8.957572582884806"><ele>58.66666666666667</ele><time>2026-04-22T08:04:33.999Z</time></trkpt><trkpt lat="44.43471907744172" lon="8.957344961828984"><ele>64.33333333333333</ele><time>2026-04-22T08:04:34.999Z</time></trkpt><trkpt lat="44.43483716099298" lon="8.957113716403422"><ele>70.0</ele><time>2026-04-22T08:04:35.999Z</time></trkpt><trkpt lat="44.43495420209133" lon="8.956876823560961"><ele>78.66666666666666</ele><time>2026-04-22T08:04:36.999Z</time></trkpt><trkpt lat="44.43505698012599" lon="8.956629105676338"><ele>87.33333333333333</ele><time>2026-04-22T08:04:37.999Z</time></trkpt><trkpt lat="44.435157835767214" lon="8.95636194845543"><ele>96.0</ele><time>2026-04-22T08:04:38.999Z</time></trkpt><trkpt lat="44.43525515600255" lon="8.956080981019486"><ele>107.5</ele><time>2026-04-22T08:04:39.999Z</time></trkpt><trkpt lat="44.43535366323946" lon="8.955798816574186"><ele>119.0</ele><time>2026-04-22T08:04:40.999Z</time></trkpt><trkpt lat="44.43544832450655" lon="8.95551104396188"><ele>123.0</ele><time>2026-04-22T08:04:41.999Z</time></trkpt><trkpt lat="44.435541272241025" lon="8.955226657539177"><ele>127.0</ele><time>2026-04-22T08:04:42.999Z</time></trkpt><trkpt lat="44.43563649044978" lon="8.95493946677979"><ele>131.0</ele><time>2026-04-22T08:04:43.999Z</time></trkpt><trkpt lat="44.43573201467667" lon="8.954655445099409"><ele>144.0</ele><time>2026-04-22T08:04:44.999Z</time></trkpt><trkpt lat="44.43582541782574" lon="8.95437135919162"><ele>157.0</ele><time>2026-04-22T08:04:45.999Z</time></trkpt><trkpt lat="44.43592613715894" lon="8.954069677058586"><ele>170.5</ele><time>2026-04-22T08:04:47.064Z</time></trkpt><trkpt lat="44.43602079435534" lon="8.953787213601306"><ele>184.0</ele><time>2026-04-22T08:04:48.059Z</time></trkpt><trkpt lat="44.43684263804638" lon="8.951206379228125"><ele>209.0</ele><time>2026-04-22T08:04:51.791Z</time></trkpt><trkpt lat="44.43708820442221" lon="8.950267362934165"><ele>126.0</ele><time>2026-04-22T08:04:52.787Z</time></trkpt><trkpt lat="44.43718899811814" lon="8.948609591135323"><ele>114.0</ele><time>2026-04-22T08:05:03.999Z</time></trkpt><trkpt lat="44.437203443011086" lon="8.948268861381958"><ele>102.0</ele><time>2026-04-22T08:05:04.999Z</time></trkpt><trkpt lat="44.437221687417555" lon="8.947971883952771"><ele>102.0</ele><time>2026-04-22T08:05:05.999Z</time></trkpt><trkpt lat="44.43721738873918" lon="8.947637062244286"><ele>102.0</ele><time>2026-04-22T08:05:06.999Z</time></trkpt><trkpt lat="44.4372037803273" lon="8.94730711103759"><ele>96.0</ele><time>2026-04-22T08:05:07.999Z</time></trkpt><trkpt lat="44.437193268321685" lon="8.946981652633486"><ele>90.0</ele><time>2026-04-22T08:05:08.999Z</time></trkpt><trkpt lat="44.43718350875339" lon="8.946654454956624"><ele>98.66666666666666</ele><time>2026-04-22T08:05:09.999Z</time></trkpt><trkpt lat="44.43717112993037" lon="8.94634745761049"><ele>107.33333333333333</ele><time>2026-04-22T08:05:10.999Z</time></trkpt><trkpt lat="44.43715895649857" lon="8.946044332581232"><ele>116.0</ele><time>2026-04-22T08:05:11.999Z</time></trkpt><trkpt lat="44.43714858859588" lon="8.945748172766555"><ele>117.0</ele><time>2026-04-22T08:05:12.999Z</time></trkpt><trkpt lat="44.43713692535926" lon="8.945452780131246"><ele>118.0</ele><time>2026-04-22T08:05:13.999Z</time></trkpt><trkpt lat="44.43712657272972" lon="8.94515083955717"><ele>119.0</ele><time>2026-04-22T08:05:14.999Z</time></trkpt><trkpt lat="44.437117212516824" lon="8.94484233364517"><ele>119.0</ele><time>2026-04-22T08:05:15.999Z</time></trkpt><trkpt lat="44.43710594512109" lon="8.944526664069965"><ele>119.0</ele><time>2026-04-22T08:05:16.999Z</time></trkpt><trkpt lat="44.43709359374941" lon="8.944208888089758"><ele>120.66666666666666</ele><time>2026-04-22T08:05:17.999Z</time></trkpt><trkpt lat="44.43708253850414" lon="8.943894698178509"><ele>122.33333333333334</ele><time>2026-04-22T08:05:18.999Z</time></trkpt><trkpt lat="44.43707312695589" lon="8.943597219631833"><ele>124.0</ele><time>2026-04-22T08:05:19.999Z</time></trkpt><trkpt lat="44.43706591753816" lon="8.943315424963991"><ele>125.33333333333334</ele><time>2026-04-22T08:05:20.999Z</time></trkpt><trkpt lat="44.43706090627769" lon="8.943040795625059"><ele>126.66666666666666</ele><time>2026-04-22T08:05:21.999Z</time></trkpt><trkpt lat="44.43706004683858" lon="8.942769484185378"><ele>128.0</ele><time>2026-04-22T08:05:22.999Z</time></trkpt><trkpt lat="44.437067683735044" lon="8.94250549773956"><ele>129.66666666666666</ele><time>2026-04-22T08:05:23.999Z</time></trkpt><trkpt lat="44.437082258103246" lon="8.94223822926183"><ele>131.33333333333334</ele><time>2026-04-22T08:05:24.999Z</time></trkpt><trkpt lat="44.43711034939229" lon="8.941967112567871"><ele>133.0</ele><time>2026-04-22T08:05:25.999Z</time></trkpt><trkpt lat="44.437157258945874" lon="8.941696334464648"><ele>137.0</ele><time>2026-04-22T08:05:26.999Z</time></trkpt><trkpt lat="44.43722135738942" lon="8.941420133238136"><ele>141.0</ele><time>2026-04-22T08:05:27.999Z</time></trkpt><trkpt lat="44.43730099791405" lon="8.94114913495392"><ele>145.0</ele><time>2026-04-22T08:05:28.999Z</time></trkpt><trkpt lat="44.43739665009165" lon="8.940878358926604"><ele>145.0</ele><time>2026-04-22T08:05:30Z</time></trkpt><trkpt lat="44.437508452029704" lon="8.94061061166978"><ele>145.0</ele><time>2026-04-22T08:05:31Z</time></trkpt><trkpt lat="44.4376325455347" lon="8.940345775977313"><ele>145.0</ele><time>2026-04-22T08:05:32Z</time></trkpt><trkpt lat="44.43776872750127" lon="8.940082731221041"><ele>146.0</ele><time>2026-04-22T08:05:33Z</time></trkpt><trkpt lat="44.43790606282383" lon="8.939828426005509"><ele>147.0</ele><time>2026-04-22T08:05:34Z</time></trkpt><trkpt lat="44.438042951435904" lon="8.939570042489642"><ele>152.5</ele><time>2026-04-22T08:05:35Z</time></trkpt><trkpt lat="44.43818046173943" lon="8.93930777470337"><ele>158.0</ele><time>2026-04-22T08:05:36Z</time></trkpt><trkpt lat="44.43831730038077" lon="8.939046464234762"><ele>158.0</ele><time>2026-04-22T08:05:37Z</time></trkpt><trkpt lat="44.43845365791317" lon="8.938787267571813"><ele>158.0</ele><time>2026-04-22T08:05:38Z</time></trkpt><trkpt lat="44.438590966804526" lon="8.938548146674552"><ele>158.0</ele><time>2026-04-22T08:05:39Z</time></trkpt><trkpt lat="44.43872771833706" lon="8.938322982307907"><ele>168.33333333333331</ele><time>2026-04-22T08:05:40Z</time></trkpt><trkpt lat="44.43887094517071" lon="8.938094221440975"><ele>178.66666666666666</ele><time>2026-04-22T08:05:41Z</time></trkpt><trkpt lat="44.43899351273066" lon="8.937856409635216"><ele>189.0</ele><time>2026-04-22T08:05:42Z</time></trkpt><trkpt lat="44.4391141743758" lon="8.937612534964947"><ele>193.33333333333331</ele><time>2026-04-22T08:05:43Z</time></trkpt><trkpt lat="44.439240653031035" lon="8.937350628451501"><ele>197.66666666666666</ele><time>2026-04-22T08:05:44.066Z</time></trkpt><trkpt lat="44.439355169286095" lon="8.937106110124482"><ele>202.0</ele><time>2026-04-22T08:05:45.052Z</time></trkpt><trkpt lat="44.43946980358418" lon="8.93685514169277"><ele>308.0</ele><time>2026-04-22T08:05:46.053Z</time></trkpt><trkpt lat="44.44045533806605" lon="8.934393044458387"><ele>128.0</ele><time>2026-04-22T08:05:49.786Z</time></trkpt><trkpt lat="44.446187406656186" lon="8.92049854201853"><ele>128.0</ele><time>2026-04-22T08:06:45.999Z</time></trkpt><trkpt lat="44.44621054150266" lon="8.920163675566174"><ele>128.0</ele><time>2026-04-22T08:06:46.999Z</time></trkpt><trkpt lat="44.44624212802626" lon="8.91988037623725"><ele>128.0</ele><time>2026-04-22T08:06:47.999Z</time></trkpt><trkpt lat="44.44625450745008" lon="8.919596083517268"><ele>124.66666666666666</ele><time>2026-04-22T08:06:48.999Z</time></trkpt><trkpt lat="44.44625816473584" lon="8.919306489761633"><ele>121.33333333333334</ele><time>2026-04-22T08:06:49.999Z</time></trkpt><trkpt lat="44.44625061815265" lon="8.919004201101902"><ele>118.0</ele><time>2026-04-22T08:06:50.999Z</time></trkpt><trkpt lat="44.44622821954654" lon="8.91869501919141"><ele>115.0</ele><time>2026-04-22T08:06:51.999Z</time></trkpt><trkpt lat="44.44618817895436" lon="8.918361670599143"><ele>112.0</ele><time>2026-04-22T08:06:52.999Z</time></trkpt><trkpt lat="44.44613540484517" lon="8.918019175163892"><ele>112.0</ele><time>2026-04-22T08:06:53.999Z</time></trkpt><trkpt lat="44.44607311193816" lon="8.917664507868102"><ele>112.0</ele><time>2026-04-22T08:06:54.999Z</time></trkpt><trkpt lat="44.446014758184354" lon="8.917319396327395"><ele>110.5</ele><time>2026-04-22T08:06:55.999Z</time></trkpt><trkpt lat="44.44595518713279" lon="8.916979515785727"><ele>109.0</ele><time>2026-04-22T08:06:56.999Z</time></trkpt><trkpt lat="44.44589219627733" lon="8.916644510716552"><ele>109.0</ele><time>2026-04-22T08:06:57.999Z</time></trkpt><trkpt lat="44.44583071132113" lon="8.916309331200555"><ele>109.0</ele><time>2026-04-22T08:06:58.999Z</time></trkpt><trkpt lat="44.44577309865934" lon="8.915978811438661"><ele>107.0</ele><time>2026-04-22T08:06:59.999Z</time></trkpt><trkpt lat="44.445722337166025" lon="8.91564790171133"><ele>105.0</ele><time>2026-04-22T08:07:00.999Z</time></trkpt><trkpt lat="44.44567289554989" lon="8.915308121622761"><ele>103.5</ele><time>2026-04-22T08:07:01.999Z</time></trkpt><trkpt lat="44.44563444300547" lon="8.914977849856975"><ele>102.0</ele><time>2026-04-22T08:07:02.999Z</time></trkpt><trkpt lat="44.445598051102635" lon="8.914642461317175"><ele>102.0</ele><time>2026-04-22T08:07:03.999Z</time></trkpt><trkpt lat="44.44557120318875" lon="8.914300675954001"><ele>102.0</ele><time>2026-04-22T08:07:04.999Z</time></trkpt><trkpt lat="44.445556034799004" lon="8.91396439944843"><ele>103.5</ele><time>2026-04-22T08:07:05.999Z</time></trkpt><trkpt lat="44.44554663789161" lon="8.913621672844368"><ele>105.0</ele><time>2026-04-22T08:07:06.999Z</time></trkpt><trkpt lat="44.44555174453215" lon="8.913276357016704"><ele>105.0</ele><time>2026-04-22T08:07:07.999Z</time></trkpt><trkpt lat="44.44556277662052" lon="8.912926334912099"><ele>105.0</ele><time>2026-04-22T08:07:08.999Z</time></trkpt><trkpt lat="44.445578162248225" lon="8.912559923960965"><ele>101.0</ele><time>2026-04-22T08:07:09.999Z</time></trkpt><trkpt lat="44.445601776321105" lon="8.912189344018458"><ele>97.0</ele><time>2026-04-22T08:07:10.999Z</time></trkpt><trkpt lat="44.44562753200704" lon="8.911814774709562"><ele>96.0</ele><time>2026-04-22T08:07:11.999Z</time></trkpt><trkpt lat="44.44565220021222" lon="8.911449381937313"><ele>95.0</ele><time>2026-04-22T08:07:12.999Z</time></trkpt><trkpt lat="44.445674199866986" lon="8.911080456524019"><ele>93.0</ele><time>2026-04-22T08:07:13.999Z</time></trkpt><trkpt lat="44.445691508758195" lon="8.910725790575508"><ele>91.0</ele><time>2026-04-22T08:07:14.999Z</time></trkpt><trkpt lat="44.4457151115765" lon="8.910384333998866"><ele>89.5</ele><time>2026-04-22T08:07:15.999Z</time></trkpt><trkpt lat="44.4457379316091" lon="8.910056741937137"><ele>88.0</ele><time>2026-04-22T08:07:16.999Z</time></trkpt><trkpt lat="44.445754395077515" lon="8.909737632442281"><ele>88.0</ele><time>2026-04-22T08:07:17.999Z</time></trkpt><trkpt lat="44.4457711727221" lon="8.909424109947523"><ele>88.0</ele><time>2026-04-22T08:07:18.999Z</time></trkpt><trkpt lat="44.44578886411764" lon="8.909124520277656"><ele>88.0</ele><time>2026-04-22T08:07:19.999Z</time></trkpt><trkpt lat="44.445798759854824" lon="8.90881413691444"><ele>86.33333333333333</ele><time>2026-04-22T08:07:20.999Z</time></trkpt><trkpt lat="44.44580215490314" lon="8.908506893052468"><ele>84.66666666666667</ele><time>2026-04-22T08:07:21.999Z</time></trkpt><trkpt lat="44.4457906595959" lon="8.908211317470325"><ele>83.0</ele><time>2026-04-22T08:07:22.999Z</time></trkpt><trkpt lat="44.4457621080753" lon="8.907924877868876"><ele>83.0</ele><time>2026-04-22T08:07:23.999Z</time></trkpt><trkpt lat="44.44567965551813" lon="8.907642461290056"><ele>83.0</ele><time>2026-04-22T08:07:24.999Z</time></trkpt><trkpt lat="44.4456023725592" lon="8.907372956457126"><ele>83.0</ele><time>2026-04-22T08:07:25.999Z</time></trkpt><trkpt lat="44.44561926807578" lon="8.907057057148466"><ele>83.33333333333334</ele><time>2026-04-22T08:07:26.999Z</time></trkpt><trkpt lat="44.4455825442017" lon="8.906731984846585"><ele>83.66666666666667</ele><time>2026-04-22T08:07:27.999Z</time></trkpt><trkpt lat="44.44554159874743" lon="8.906449895890585"><ele>84.0</ele><time>2026-04-22T08:07:28.999Z</time></trkpt><trkpt lat="44.44548589353349" lon="8.906166528844382"><ele>76.0</ele><time>2026-04-22T08:07:29.999Z</time></trkpt><trkpt lat="44.445437581553314" lon="8.905873145854072"><ele>68.0</ele><time>2026-04-22T08:07:30.999Z</time></trkpt><trkpt lat="44.445394288753505" lon="8.905574410635628"><ele>60.0</ele><time>2026-04-22T08:07:31.999Z</time></trkpt><trkpt lat="44.445351359899774" lon="8.905279023462224"><ele>63.0</ele><time>2026-04-22T08:07:32.999Z</time></trkpt><trkpt lat="44.44530315287079" lon="8.904996957372546"><ele>66.0</ele><time>2026-04-22T08:07:33.999Z</time></trkpt><trkpt lat="44.44526173758536" lon="8.904722574788234"><ele>69.0</ele><time>2026-04-22T08:07:35Z</time></trkpt><trkpt lat="44.445226196597474" lon="8.904458061039708"><ele>72.0</ele><time>2026-04-22T08:07:36Z</time></trkpt><trkpt lat="44.44520557206176" lon="8.904190303304475"><ele>75.0</ele><time>2026-04-22T08:07:37Z</time></trkpt><trkpt lat="44.44519693579391" lon="8.903917163831277"><ele>78.0</ele><time>2026-04-22T08:07:38Z</time></trkpt><trkpt lat="44.445197486604535" lon="8.903641816918016"><ele>82.66666666666667</ele><time>2026-04-22T08:07:39Z</time></trkpt><trkpt lat="44.44520281528854" lon="8.903370941131827"><ele>87.33333333333334</ele><time>2026-04-22T08:07:40Z</time></trkpt><trkpt lat="44.445211959730116" lon="8.903097052582046"><ele>92.0</ele><time>2026-04-22T08:07:41Z</time></trkpt><trkpt lat="44.445214164503795" lon="8.902821432661407"><ele>91.33333333333334</ele><time>2026-04-22T08:07:42Z</time></trkpt><trkpt lat="44.44525944795515" lon="8.902576905244574"><ele>90.66666666666667</ele><time>2026-04-22T08:07:43Z</time></trkpt><trkpt lat="44.44532764392521" lon="8.902295287337065"><ele>90.0</ele><time>2026-04-22T08:07:44Z</time></trkpt><trkpt lat="44.445399739781465" lon="8.902039812386802"><ele>98.33333333333334</ele><time>2026-04-22T08:07:45.065Z</time></trkpt><trkpt lat="44.445471401372046" lon="8.901826518765004"><ele>106.66666666666667</ele><time>2026-04-22T08:07:46.058Z</time></trkpt><trkpt lat="44.44554301503888" lon="8.901639379464203"><ele>115.0</ele><time>2026-04-22T08:07:47.061Z</time></trkpt><trkpt lat="44.445620404817696" lon="8.901443595816163"><ele>115.0</ele><time>2026-04-22T08:07:48.047Z</time></trkpt><trkpt lat="44.44570607302888" lon="8.901224016082137"><ele>115.0</ele><time>2026-04-22T08:07:49.045Z</time></trkpt><trkpt lat="44.4461201" lon="8.9003556"><ele>71.0</ele><time>2026-04-22T08:07:52.785Z</time></trkpt><trkpt lat="44.44591940823214" lon="8.897204838599217"><ele>71.0</ele><time>2026-04-22T08:08:08Z</time></trkpt><trkpt lat="44.44583032104787" lon="8.897089181063325"><ele>71.0</ele><time>2026-04-22T08:08:09Z</time></trkpt><trkpt lat="44.44572897206299" lon="8.897048717780056"><ele>71.0</ele><time>2026-04-22T08:08:10Z</time></trkpt><trkpt lat="44.445598446391365" lon="8.89699407169779"><ele>71.0</ele><time>2026-04-22T08:08:11Z</time></trkpt><trkpt lat="44.44544179938865" lon="8.896946628292303"><ele>72.5</ele><time>2026-04-22T08:08:12Z</time></trkpt><trkpt lat="44.44530109235124" lon="8.896904776962717"><ele>74.0</ele><time>2026-04-22T08:08:13Z</time></trkpt><trkpt lat="44.44516908918774" lon="8.896870678999624"><ele>75.5</ele><time>2026-04-22T08:08:14Z</time></trkpt><trkpt lat="44.445032713062346" lon="8.896854272693163"><ele>77.0</ele><time>2026-04-22T08:08:15Z</time></trkpt><trkpt lat="44.44489430304243" lon="8.896839713688495"><ele>77.0</ele><time>2026-04-22T08:08:16Z</time></trkpt><trkpt lat="44.444748475230575" lon="8.896816285273532"><ele>77.0</ele><time>2026-04-22T08:08:17Z</time></trkpt><trkpt lat="44.44460960635451" lon="8.896787336688593"><ele>77.0</ele><time>2026-04-22T08:08:18Z</time></trkpt><trkpt lat="44.44446679374485" lon="8.896737472676968"><ele>77.0</ele><time>2026-04-22T08:08:19Z</time></trkpt><trkpt lat="44.44432572409891" lon="8.896670684733753"><ele>72.5</ele><time>2026-04-22T08:08:20Z</time></trkpt><trkpt lat="44.44420004071905" lon="8.896595560235232"><ele>68.0</ele><time>2026-04-22T08:08:21Z</time></trkpt><trkpt lat="44.444096536001126" lon="8.896470809630532"><ele>63.5</ele><time>2026-04-22T08:08:22Z</time></trkpt><trkpt lat="44.44400020066707" lon="8.896331689906699"><ele>59.0</ele><time>2026-04-22T08:08:23Z</time></trkpt><trkpt lat="44.44392085396434" lon="8.89616295607343"><ele>51.0</ele><time>2026-04-22T08:08:24Z</time></trkpt><trkpt lat="44.444859858648414" lon="8.896109557309092"><ele>47.666666666666664</ele><time>2026-04-22T08:08:25Z</time></trkpt><trkpt lat="44.4447607346667" lon="8.89591805361354"><ele>44.33333333333333</ele><time>2026-04-22T08:08:26Z</time></trkpt><trkpt lat="44.44470013747779" lon="8.89572223901973"><ele>41.0</ele><time>2026-04-22T08:08:27Z</time></trkpt><trkpt lat="44.44460214587166" lon="8.895524932873814"><ele>41.0</ele><time>2026-04-22T08:08:28Z</time></trkpt><trkpt lat="44.444531731662686" lon="8.895332618902284"><ele>41.0</ele><time>2026-04-22T08:08:29Z</time></trkpt><trkpt lat="44.443648577213644" lon="8.89496445857258"><ele>38.0</ele><time>2026-04-22T08:08:30Z</time></trkpt><trkpt lat="44.443568734594216" lon="8.894819325218057"><ele>35.0</ele><time>2026-04-22T08:08:31Z</time></trkpt><trkpt lat="44.443462953552945" lon="8.894696592405872"><ele>32.0</ele><time>2026-04-22T08:08:32Z</time></trkpt><trkpt lat="44.445035352029464" lon="8.894733032204195"><ele>32.0</ele><time>2026-04-22T08:08:33Z</time></trkpt><trkpt lat="44.44494401405273" lon="8.89454841930019"><ele>32.0</ele><time>2026-04-22T08:08:34Z</time></trkpt><trkpt lat="44.44488867890448" lon="8.894356658961245"><ele>32.0</ele><time>2026-04-22T08:08:35Z</time></trkpt><trkpt lat="44.44279152488657" lon="8.894159546049744"><ele>36.5</ele><time>2026-04-22T08:08:36Z</time></trkpt><trkpt lat="44.442667281320055" lon="8.894051511193206"><ele>41.0</ele><time>2026-04-22T08:08:37Z</time></trkpt><trkpt lat="44.442538858428655" lon="8.89396025799399"><ele>45.5</ele><time>2026-04-22T08:08:38Z</time></trkpt><trkpt lat="44.442400632472655" lon="8.893912013359131"><ele>50.0</ele><time>2026-04-22T08:08:39Z</time></trkpt><trkpt lat="44.44224333084592" lon="8.893889702689172"><ele>52.0</ele><time>2026-04-22T08:08:40Z</time></trkpt><trkpt lat="44.44208804567298" lon="8.893893467494161"><ele>54.0</ele><time>2026-04-22T08:08:41Z</time></trkpt><trkpt lat="44.441942421297156" lon="8.893890533482354"><ele>56.0</ele><time>2026-04-22T08:08:42Z</time></trkpt><trkpt lat="44.4417909247526" lon="8.893850929071686"><ele>56.0</ele><time>2026-04-22T08:08:42.999Z</time></trkpt><trkpt lat="44.44165245038699" lon="8.893764530228806"><ele>56.0</ele><time>2026-04-22T08:08:43.999Z</time></trkpt><trkpt lat="44.441513349265875" lon="8.893656147482558"><ele>56.0</ele><time>2026-04-22T08:08:44.999Z</time></trkpt><trkpt lat="44.441389510689575" lon="8.89351726355696"><ele>58.66666666666667</ele><time>2026-04-22T08:08:45.999Z</time></trkpt><trkpt lat="44.44127473234754" lon="8.893356719037085"><ele>61.33333333333333</ele><time>2026-04-22T08:08:46.999Z</time></trkpt><trkpt lat="44.44115753771877" lon="8.893203087968768"><ele>64.0</ele><time>2026-04-22T08:08:47.999Z</time></trkpt><trkpt lat="44.44104254689868" lon="8.893048550411404"><ele>64.0</ele><time>2026-04-22T08:08:48.999Z</time></trkpt><trkpt lat="44.44091941182559" lon="8.892913838991772"><ele>64.0</ele><time>2026-04-22T08:08:49.999Z</time></trkpt><trkpt lat="44.440812588029665" lon="8.892795330832403"><ele>64.0</ele><time>2026-04-22T08:08:50.999Z</time></trkpt><trkpt lat="44.44071115467938" lon="8.892680359030853"><ele>64.0</ele><time>2026-04-22T08:08:51.999Z</time></trkpt><trkpt lat="44.440606081842496" lon="8.892596623324554"><ele>64.0</ele><time>2026-04-22T08:08:52.999Z</time></trkpt><trkpt lat="44.440495240119326" lon="8.892543712587258"><ele>64.0</ele><time>2026-04-22T08:08:53.999Z</time></trkpt><trkpt lat="44.44035642917686" lon="8.89251148252006"><ele>64.0</ele><time>2026-04-22T08:08:54.999Z</time></trkpt><trkpt lat="44.44022227158533" lon="8.892492523366203"><ele>64.0</ele><time>2026-04-22T08:08:55.999Z</time></trkpt><trkpt lat="44.44124281335392" lon="8.892652821042189"><ele>64.0</ele><time>2026-04-22T08:08:56.999Z</time></trkpt><trkpt lat="44.44110727335474" lon="8.892708632245292"><ele>64.0</ele><time>2026-04-22T08:08:57.999Z</time></trkpt><trkpt lat="44.44096410064093" lon="8.892797308484427"><ele>64.0</ele><time>2026-04-22T08:08:58.999Z</time></trkpt><trkpt lat="44.44076329358246" lon="8.892863835203386"><ele>64.0</ele><time>2026-04-22T08:08:59.999Z</time></trkpt><trkpt lat="44.440616193959" lon="8.893053851129416"><ele>64.0</ele><time>2026-04-22T08:09:00.999Z</time></trkpt><trkpt lat="44.44046857452271" lon="8.893181493207571"><ele>64.0</ele><time>2026-04-22T08:09:01.999Z</time></trkpt><trkpt lat="44.439183971234705" lon="8.893264769220224"><ele>64.66666666666666</ele><time>2026-04-22T08:09:02.999Z</time></trkpt><trkpt lat="44.43900209680579" lon="8.893435381318383"><ele>65.33333333333333</ele><time>2026-04-22T08:09:03.999Z</time></trkpt><trkpt lat="44.438845123630706" lon="8.893602473660962"><ele>66.0</ele><time>2026-04-22T08:09:04.999Z</time></trkpt><trkpt lat="44.43867225128322" lon="8.893755728839443"><ele>59.333333333333336</ele><time>2026-04-22T08:09:05.999Z</time></trkpt><trkpt lat="44.438507801581004" lon="8.893907208228109"><ele>52.66666666666667</ele><time>2026-04-22T08:09:06.999Z</time></trkpt><trkpt lat="44.43835162020239" lon="8.894046315597516"><ele>46.0</ele><time>2026-04-22T08:09:07.999Z</time></trkpt><trkpt lat="44.43820524247151" lon="8.89418548009825"><ele>46.66666666666667</ele><time>2026-04-22T08:09:08.999Z</time></trkpt><trkpt lat="44.43806380213802" lon="8.894336376807164"><ele>47.333333333333336</ele><time>2026-04-22T08:09:09.999Z</time></trkpt><trkpt lat="44.437922989737174" lon="8.894481659440508"><ele>48.0</ele><time>2026-04-22T08:09:10.999Z</time></trkpt><trkpt lat="44.437777066547255" lon="8.894593013024549"><ele>42.333333333333336</ele><time>2026-04-22T08:09:11.999Z</time></trkpt><trkpt lat="44.43760598426462" lon="8.894625589747442"><ele>36.66666666666667</ele><time>2026-04-22T08:09:12.999Z</time></trkpt><trkpt lat="44.4374385195694" lon="8.894693703726295"><ele>31.0</ele><time>2026-04-22T08:09:13.999Z</time></trkpt><trkpt lat="44.437262422864784" lon="8.894777811086923"><ele>30.333333333333336</ele><time>2026-04-22T08:09:14.999Z</time></trkpt><trkpt lat="44.437069951514424" lon="8.894821651798818"><ele>29.666666666666664</ele><time>2026-04-22T08:09:15.999Z</time></trkpt><trkpt lat="44.43689405989412" lon="8.89488602517259"><ele>29.0</ele><time>2026-04-22T08:09:16.999Z</time></trkpt><trkpt lat="44.436718727983994" lon="8.894954642576861"><ele>29.0</ele><time>2026-04-22T08:09:17.999Z</time></trkpt><trkpt lat="44.43655518921405" lon="8.895019537871054"><ele>29.0</ele><time>2026-04-22T08:09:18.999Z</time></trkpt><trkpt lat="44.436387372620864" lon="8.895091084091728"><ele>29.0</ele><time>2026-04-22T08:09:19.999Z</time></trkpt><trkpt lat="44.43623902911331" lon="8.895155488807529"><ele>36.0</ele><time>2026-04-22T08:09:20.999Z</time></trkpt><trkpt lat="44.43608826405468" lon="8.895210574495554"><ele>43.0</ele><time>2026-04-22T08:09:21.999Z</time></trkpt><trkpt lat="44.435934144245536" lon="8.895272972251597"><ele>50.0</ele><time>2026-04-22T08:09:22.999Z</time></trkpt><trkpt lat="44.43577906270871" lon="8.895332194947247"><ele>50.0</ele><time>2026-04-22T08:09:23.999Z</time></trkpt><trkpt lat="44.43562354887928" lon="8.895391327425818"><ele>50.0</ele><time>2026-04-22T08:09:24.999Z</time></trkpt><trkpt lat="44.4354669457373" lon="8.895446658515352"><ele>50.0</ele><time>2026-04-22T08:09:25.999Z</time></trkpt><trkpt lat="44.4353077178953" lon="8.895496809586033"><ele>56.66666666666667</ele><time>2026-04-22T08:09:26.999Z</time></trkpt><trkpt lat="44.43514311412431" lon="8.895557669124342"><ele>63.33333333333333</ele><time>2026-04-22T08:09:27.999Z</time></trkpt><trkpt lat="44.43496561974116" lon="8.895613642765412"><ele>70.0</ele><time>2026-04-22T08:09:28.999Z</time></trkpt><trkpt lat="44.43481107299661" lon="8.895683488304824"><ele>70.0</ele><time>2026-04-22T08:09:29.999Z</time></trkpt><trkpt lat="44.4346477536724" lon="8.895745505587909"><ele>70.0</ele><time>2026-04-22T08:09:30.999Z</time></trkpt><trkpt lat="44.434527345488675" lon="8.895790436515151"><ele>70.0</ele><time>2026-04-22T08:09:31.999Z</time></trkpt><trkpt lat="44.434365160490636" lon="8.89585183210863"><ele>69.5</ele><time>2026-04-22T08:09:33.066Z</time></trkpt><trkpt lat="44.434239485521424" lon="8.895850112187217"><ele>69.0</ele><time>2026-04-22T08:09:34.06Z</time></trkpt><trkpt lat="44.433411480313325" lon="8.896050530724185"><ele>61.666666666666664</ele><time>2026-04-22T08:09:36.999Z</time></trkpt><trkpt lat="44.43319882152162" lon="8.896118572041756"><ele>54.33333333333333</ele><time>2026-04-22T08:09:37.999Z</time></trkpt><trkpt lat="44.43300634192984" lon="8.896197395335491"><ele>47.0</ele><time>2026-04-22T08:09:38.999Z</time></trkpt><trkpt lat="44.43285108571202" lon="8.896309987999015"><ele>47.0</ele><time>2026-04-22T08:09:39.999Z</time></trkpt><trkpt lat="44.43268683006827" lon="8.896450905714387"><ele>47.0</ele><time>2026-04-22T08:09:40.999Z</time></trkpt><trkpt lat="44.43249681260677" lon="8.896555827579768"><ele>47.0</ele><time>2026-04-22T08:09:41.999Z</time></trkpt><trkpt lat="44.43232660310793" lon="8.896651588162646"><ele>47.0</ele><time>2026-04-22T08:09:43Z</time></trkpt><trkpt lat="44.43216540669679" lon="8.896746871721422"><ele>47.0</ele><time>2026-04-22T08:09:44Z</time></trkpt><trkpt lat="44.432001113514374" lon="8.896855391897358"><ele>47.0</ele><time>2026-04-22T08:09:45Z</time></trkpt><trkpt lat="44.43184403272959" lon="8.89695709564364"><ele>60.0</ele><time>2026-04-22T08:09:46Z</time></trkpt><trkpt lat="44.431690779406594" lon="8.897062074327357"><ele>73.0</ele><time>2026-04-22T08:09:47Z</time></trkpt><trkpt lat="44.431533996746616" lon="8.897159483286714"><ele>86.0</ele><time>2026-04-22T08:09:48Z</time></trkpt><trkpt lat="44.43137932232467" lon="8.897262825398853"><ele>79.66666666666667</ele><time>2026-04-22T08:09:49Z</time></trkpt><trkpt lat="44.43122692279091" lon="8.897366130390747"><ele>73.33333333333333</ele><time>2026-04-22T08:09:50Z</time></trkpt><trkpt lat="44.43104902914165" lon="8.897467015339613"><ele>67.0</ele><time>2026-04-22T08:09:51.062Z</time></trkpt><trkpt lat="44.43089403193424" lon="8.897575355273288"><ele>67.5</ele><time>2026-04-22T08:09:52.061Z</time></trkpt><trkpt lat="44.43073249579432" lon="8.897677751871315"><ele>68.0</ele><time>2026-04-22T08:09:53.048Z</time></trkpt><trkpt lat="44.43045272509572" lon="8.897861356547471"><ele>65.25</ele><time>2026-04-22T08:09:55Z</time></trkpt><trkpt lat="44.43040824349636" lon="8.897778088743895"><ele>62.5</ele><time>2026-04-22T08:09:56Z</time></trkpt><trkpt lat="44.4302635603823" lon="8.897803860619748"><ele>59.75</ele><time>2026-04-22T08:09:57Z</time></trkpt><trkpt lat="44.43013492616969" lon="8.89773296749306"><ele>57.0</ele><time>2026-04-22T08:09:58Z</time></trkpt><trkpt lat="44.43001264658184" lon="8.897576520030169"><ele>57.0</ele><time>2026-04-22T08:09:59Z</time></trkpt><trkpt lat="44.429862015554264" lon="8.897465841265985"><ele>57.0</ele><time>2026-04-22T08:10:00Z</time></trkpt><trkpt lat="44.42969289298002" lon="8.897372048697235"><ele>57.0</ele><time>2026-04-22T08:10:01Z</time></trkpt><trkpt lat="44.4296032024593" lon="8.89746515894126"><ele>60.75</ele><time>2026-04-22T08:10:02Z</time></trkpt><trkpt lat="44.42946170499731" lon="8.897485747634507"><ele>64.5</ele><time>2026-04-22T08:10:03Z</time></trkpt><trkpt lat="44.42932064482383" lon="8.89754704910134"><ele>68.25</ele><time>2026-04-22T08:10:04Z</time></trkpt><trkpt lat="44.42920759710023" lon="8.897638874829404"><ele>72.0</ele><time>2026-04-22T08:10:05Z</time></trkpt><trkpt lat="44.42909012024945" lon="8.897760692168749"><ele>78.5</ele><time>2026-04-22T08:10:06Z</time></trkpt><trkpt lat="44.428948672009895" lon="8.897875074406096"><ele>85.0</ele><time>2026-04-22T08:10:07Z</time></trkpt><trkpt lat="44.428840013922716" lon="8.897964133103645"><ele>91.5</ele><time>2026-04-22T08:10:08Z</time></trkpt><trkpt lat="44.42872357373164" lon="8.898057063690276"><ele>98.0</ele><time>2026-04-22T08:10:09Z</time></trkpt><trkpt lat="44.42860475937131" lon="8.898152107947974"><ele>100.5</ele><time>2026-04-22T08:10:10Z</time></trkpt><trkpt lat="44.42848561761272" lon="8.898247452230978"><ele>103.0</ele><time>2026-04-22T08:10:11Z</time></trkpt><trkpt lat="44.42836733215993" lon="8.898341538800043"><ele>105.5</ele><time>2026-04-22T08:10:12Z</time></trkpt><trkpt lat="44.42824233947361" lon="8.89844113831555"><ele>108.0</ele><time>2026-04-22T08:10:13.054Z</time></trkpt><trkpt lat="44.427066462644554" lon="8.897505578528385"><ele>101.75</ele><time>2026-04-22T08:10:23Z</time></trkpt><trkpt lat="44.42699836525676" lon="8.897373301006386"><ele>95.5</ele><time>2026-04-22T08:10:24Z</time></trkpt><trkpt lat="44.427008902400594" lon="8.89716930996985"><ele>89.25</ele><time>2026-04-22T08:10:26Z</time></trkpt><trkpt lat="44.42699975536807" lon="8.897013999382162"><ele>83.0</ele><time>2026-04-22T08:10:27Z</time></trkpt><trkpt lat="44.42701003067183" lon="8.896832732525029"><ele>82.2</ele><time>2026-04-22T08:10:28Z</time></trkpt><trkpt lat="44.42697204069018" lon="8.896706776553481"><ele>81.4</ele><time>2026-04-22T08:10:29Z</time></trkpt><trkpt lat="44.42695228153243" lon="8.89656123432843"><ele>80.60000000000001</ele><time>2026-04-22T08:10:30Z</time></trkpt><trkpt lat="44.42693230470021" lon="8.896399644257034"><ele>79.80000000000001</ele><time>2026-04-22T08:10:31Z</time></trkpt><trkpt lat="44.42690690549003" lon="8.896237764229275"><ele>79.0</ele><time>2026-04-22T08:10:32Z</time></trkpt><trkpt lat="44.42686991903756" lon="8.896075680731723"><ele>75.75</ele><time>2026-04-22T08:10:33Z</time></trkpt><trkpt lat="44.426822407897276" lon="8.895906067250841"><ele>72.5</ele><time>2026-04-22T08:10:34Z</time></trkpt><trkpt lat="44.42675847260353" lon="8.895764633680663"><ele>69.25</ele><time>2026-04-22T08:10:35Z</time></trkpt><trkpt lat="44.42668174219897" lon="8.895655549200642"><ele>66.0</ele><time>2026-04-22T08:10:36Z</time></trkpt><trkpt lat="44.42659715151715" lon="8.895551470702381"><ele>66.0</ele><time>2026-04-22T08:10:37Z</time></trkpt><trkpt lat="44.42650531601318" lon="8.895441031836835"><ele>66.0</ele><time>2026-04-22T08:10:38Z</time></trkpt><trkpt lat="44.42639337955345" lon="8.895341184685675"><ele>66.0</ele><time>2026-04-22T08:10:39Z</time></trkpt><trkpt lat="44.42627508099023" lon="8.895258762539447"><ele>66.0</ele><time>2026-04-22T08:10:40Z</time></trkpt><trkpt lat="44.42615443783375" lon="8.89517719732437"><ele>64.75</ele><time>2026-04-22T08:10:41Z</time></trkpt><trkpt lat="44.426022879764766" lon="8.895103084094506"><ele>63.5</ele><time>2026-04-22T08:10:42Z</time></trkpt><trkpt lat="44.42590230690658" lon="8.895033526277969"><ele>62.25</ele><time>2026-04-22T08:10:43Z</time></trkpt><trkpt lat="44.42578533961305" lon="8.894960850390405"><ele>61.0</ele><time>2026-04-22T08:10:44Z</time></trkpt><trkpt lat="44.42567355289467" lon="8.894880717681286"><ele>61.0</ele><time>2026-04-22T08:10:45Z</time></trkpt><trkpt lat="44.42555677332307" lon="8.89481366324487"><ele>61.0</ele><time>2026-04-22T08:10:46Z</time></trkpt><trkpt lat="44.425442396145414" lon="8.89472441488053"><ele>61.0</ele><time>2026-04-22T08:10:47Z</time></trkpt><trkpt lat="44.425331106132" lon="8.894642513182044"><ele>61.0</ele><time>2026-04-22T08:10:48Z</time></trkpt><trkpt lat="44.42522164582225" lon="8.894542267622821"><ele>60.75</ele><time>2026-04-22T08:10:49Z</time></trkpt><trkpt lat="44.42512542208179" lon="8.894414988164591"><ele>60.5</ele><time>2026-04-22T08:10:50Z</time></trkpt><trkpt lat="44.425040519066364" lon="8.894282624840514"><ele>60.25</ele><time>2026-04-22T08:10:50.999Z</time></trkpt><trkpt lat="44.42496299829044" lon="8.894162145619676"><ele>60.0</ele><time>2026-04-22T08:10:51.999Z</time></trkpt><trkpt lat="44.42488368195365" lon="8.894063353499797"><ele>60.0</ele><time>2026-04-22T08:10:52.999Z</time></trkpt><trkpt lat="44.42480993552209" lon="8.893957027249714"><ele>60.0</ele><time>2026-04-22T08:10:53.999Z</time></trkpt><trkpt lat="44.42473985877325" lon="8.89385404856202"><ele>60.0</ele><time>2026-04-22T08:10:54.999Z</time></trkpt><trkpt lat="44.424666938602925" lon="8.893744771790617"><ele>60.0</ele><time>2026-04-22T08:10:55.999Z</time></trkpt><trkpt lat="44.42459045742566" lon="8.893625932201918"><ele>60.0</ele><time>2026-04-22T08:10:56.999Z</time></trkpt><trkpt lat="44.42450906527989" lon="8.89349563463423"><ele>60.0</ele><time>2026-04-22T08:10:57.999Z</time></trkpt><trkpt lat="44.42444040279288" lon="8.893340755909893"><ele>60.0</ele><time>2026-04-22T08:10:58.999Z</time></trkpt><trkpt lat="44.42439435939641" lon="8.893164272470909"><ele>60.0</ele><time>2026-04-22T08:10:59.999Z</time></trkpt><trkpt lat="44.42436181381115" lon="8.892969944367863"><ele>60.0</ele><time>2026-04-22T08:11:00.999Z</time></trkpt><trkpt lat="44.424352410677066" lon="8.892776285292445"><ele>51.0</ele><time>2026-04-22T08:11:01.999Z</time></trkpt><trkpt lat="44.42436850238457" lon="8.892576779049278"><ele>42.0</ele><time>2026-04-22T08:11:02.999Z</time></trkpt><trkpt lat="44.4244130189678" lon="8.89236967308992"><ele>33.0</ele><time>2026-04-22T08:11:03.999Z</time></trkpt><trkpt lat="44.42447944956856" lon="8.892147901840401"><ele>33.0</ele><time>2026-04-22T08:11:04.999Z</time></trkpt><trkpt lat="44.4245708383283" lon="8.891942305496592"><ele>33.0</ele><time>2026-04-22T08:11:05.999Z</time></trkpt><trkpt lat="44.42465327268416" lon="8.891762561546678"><ele>33.0</ele><time>2026-04-22T08:11:06.999Z</time></trkpt><trkpt lat="44.424729770992045" lon="8.8915827634058"><ele>28.0</ele><time>2026-04-22T08:11:07.999Z</time></trkpt><trkpt lat="44.424807106592716" lon="8.8913957291229"><ele>23.0</ele><time>2026-04-22T08:11:08.999Z</time></trkpt><trkpt lat="44.42488625978283" lon="8.891214336247746"><ele>18.0</ele><time>2026-04-22T08:11:09.999Z</time></trkpt><trkpt lat="44.424966371044746" lon="8.89103157139886"><ele>17.666666666666668</ele><time>2026-04-22T08:11:10.999Z</time></trkpt><trkpt lat="44.4250404513202" lon="8.890845932144796"><ele>17.333333333333336</ele><time>2026-04-22T08:11:11.999Z</time></trkpt><trkpt lat="44.4251145456535" lon="8.890655713094253"><ele>17.0</ele><time>2026-04-22T08:11:12.999Z</time></trkpt><trkpt lat="44.42519456503357" lon="8.890473057667775"><ele>17.0</ele><time>2026-04-22T08:11:13.999Z</time></trkpt><trkpt lat="44.42527292053042" lon="8.890287829250317"><ele>17.0</ele><time>2026-04-22T08:11:14.999Z</time></trkpt><trkpt lat="44.4253483474702" lon="8.890101946206913"><ele>17.0</ele><time>2026-04-22T08:11:15.999Z</time></trkpt><trkpt lat="44.425425782957404" lon="8.889906556438293"><ele>16.0</ele><time>2026-04-22T08:11:16.999Z</time></trkpt><trkpt lat="44.425508352214976" lon="8.889709841868617"><ele>15.0</ele><time>2026-04-22T08:11:17.999Z</time></trkpt><trkpt lat="44.425591047047334" lon="8.889514224145799"><ele>14.0</ele><time>2026-04-22T08:11:18.999Z</time></trkpt><trkpt lat="44.42567376068513" lon="8.889306372159094"><ele>14.0</ele><time>2026-04-22T08:11:19.999Z</time></trkpt><trkpt lat="44.425766827442835" lon="8.889081185031323"><ele>14.0</ele><time>2026-04-22T08:11:20.999Z</time></trkpt><trkpt lat="44.42587123103083" lon="8.88884226035744"><ele>14.0</ele><time>2026-04-22T08:11:21.999Z</time></trkpt><trkpt lat="44.42597259154572" lon="8.888582528653462"><ele>13.333333333333334</ele><time>2026-04-22T08:11:22.999Z</time></trkpt><trkpt lat="44.42609046724898" lon="8.888307075799702"><ele>12.666666666666668</ele><time>2026-04-22T08:11:23.999Z</time></trkpt><trkpt lat="44.42619118048105" lon="8.888043388387365"><ele>12.0</ele><time>2026-04-22T08:11:24.999Z</time></trkpt><trkpt lat="44.42629889940792" lon="8.887786725719767"><ele>13.333333333333332</ele><time>2026-04-22T08:11:25.999Z</time></trkpt><trkpt lat="44.42640143352701" lon="8.887534778445678"><ele>14.666666666666666</ele><time>2026-04-22T08:11:26.999Z</time></trkpt><trkpt lat="44.426501857230825" lon="8.887278214886084"><ele>16.0</ele><time>2026-04-22T08:11:27.999Z</time></trkpt><trkpt lat="44.42660619285327" lon="8.887024764395129"><ele>16.0</ele><time>2026-04-22T08:11:28.999Z</time></trkpt><trkpt lat="44.42671041945924" lon="8.88678149706836"><ele>16.0</ele><time>2026-04-22T08:11:29.999Z</time></trkpt><trkpt lat="44.42681019058759" lon="8.886535036030848"><ele>16.0</ele><time>2026-04-22T08:11:30.999Z</time></trkpt><trkpt lat="44.42691254742221" lon="8.886287621523058"><ele>15.666666666666666</ele><time>2026-04-22T08:11:31.999Z</time></trkpt><trkpt lat="44.427015156821916" lon="8.886034230899098"><ele>15.333333333333332</ele><time>2026-04-22T08:11:32.999Z</time></trkpt><trkpt lat="44.42711647613701" lon="8.88578376626363"><ele>15.0</ele><time>2026-04-22T08:11:33.999Z</time></trkpt><trkpt lat="44.4272208430718" lon="8.8855318904074"><ele>15.666666666666668</ele><time>2026-04-22T08:11:34.999Z</time></trkpt><trkpt lat="44.42732151262248" lon="8.885281124839624"><ele>16.333333333333336</ele><time>2026-04-22T08:11:35.999Z</time></trkpt><trkpt lat="44.42742259054381" lon="8.885031955215657"><ele>17.0</ele><time>2026-04-22T08:11:36.999Z</time></trkpt><trkpt lat="44.42752169622065" lon="8.884777503165012"><ele>17.0</ele><time>2026-04-22T08:11:37.999Z</time></trkpt><trkpt lat="44.4276103549474" lon="8.88454153246269"><ele>17.0</ele><time>2026-04-22T08:11:38.999Z</time></trkpt><trkpt lat="44.42770083151405" lon="8.884289193570988"><ele>17.0</ele><time>2026-04-22T08:11:39.999Z</time></trkpt><trkpt lat="44.42777399562179" lon="8.884031860843578"><ele>16.666666666666668</ele><time>2026-04-22T08:11:40.999Z</time></trkpt><trkpt lat="44.42783631065221" lon="8.883773384880682"><ele>16.333333333333332</ele><time>2026-04-22T08:11:41.999Z</time></trkpt><trkpt lat="44.42788777130225" lon="8.883507428411287"><ele>16.0</ele><time>2026-04-22T08:11:42.999Z</time></trkpt><trkpt lat="44.42793440705408" lon="8.88323567008745"><ele>16.0</ele><time>2026-04-22T08:11:43.999Z</time></trkpt><trkpt lat="44.427956149091166" lon="8.882967182270882"><ele>16.0</ele><time>2026-04-22T08:11:44.999Z</time></trkpt><trkpt lat="44.42796218179572" lon="8.88268672584413"><ele>16.0</ele><time>2026-04-22T08:11:45.999Z</time></trkpt><trkpt lat="44.427953792785075" lon="8.882409123367653"><ele>17.0</ele><time>2026-04-22T08:11:46.999Z</time></trkpt><trkpt lat="44.42793253429008" lon="8.882128403582058"><ele>18.0</ele><time>2026-04-22T08:11:47.999Z</time></trkpt><trkpt lat="44.42789231802322" lon="8.881838563074545"><ele>19.0</ele><time>2026-04-22T08:11:49Z</time></trkpt><trkpt lat="44.42783811835692" lon="8.881552068525249"><ele>26.333333333333332</ele><time>2026-04-22T08:11:50Z</time></trkpt><trkpt lat="44.4277707150426" lon="8.881276263338206"><ele>33.666666666666664</ele><time>2026-04-22T08:11:51Z</time></trkpt><trkpt lat="44.42769708411011" lon="8.881011581164515"><ele>41.0</ele><time>2026-04-22T08:11:52Z</time></trkpt><trkpt lat="44.42763072585166" lon="8.880758673322777"><ele>47.666666666666664</ele><time>2026-04-22T08:11:53Z</time></trkpt><trkpt lat="44.42756958425503" lon="8.880531282196381"><ele>54.33333333333333</ele><time>2026-04-22T08:11:54Z</time></trkpt><trkpt lat="44.42751348729887" lon="8.880298730960709"><ele>61.0</ele><time>2026-04-22T08:11:55Z</time></trkpt><trkpt lat="44.427452482079936" lon="8.880053701132638"><ele>70.33333333333333</ele><time>2026-04-22T08:11:56Z</time></trkpt><trkpt lat="44.427389766172496" lon="8.879805001995255"><ele>79.66666666666667</ele><time>2026-04-22T08:11:57Z</time></trkpt><trkpt lat="44.42732681295941" lon="8.879563245187418"><ele>89.0</ele><time>2026-04-22T08:11:58Z</time></trkpt><trkpt lat="44.42726119431217" lon="8.879319861718832"><ele>94.0</ele><time>2026-04-22T08:11:59Z</time></trkpt><trkpt lat="44.427189705089106" lon="8.879066081891734"><ele>99.0</ele><time>2026-04-22T08:12:00.058Z</time></trkpt><trkpt lat="44.42711976944885" lon="8.878827207134668"><ele>104.0</ele><time>2026-04-22T08:12:01.057Z</time></trkpt><trkpt lat="44.42703408940466" lon="8.878600409018397"><ele>124.0</ele><time>2026-04-22T08:12:02.059Z</time></trkpt><trkpt lat="44.42611588886207" lon="8.876082337830589"><ele>81.0</ele><time>2026-04-22T08:12:05.782Z</time></trkpt><trkpt lat="44.424173588801764" lon="8.869468363340586"><ele>78.66666666666667</ele><time>2026-04-22T08:12:37.999Z</time></trkpt><trkpt lat="44.42413252294284" lon="8.869256081519396"><ele>76.33333333333334</ele><time>2026-04-22T08:12:38.999Z</time></trkpt><trkpt lat="44.424116457544216" lon="8.868979141506893"><ele>74.0</ele><time>2026-04-22T08:12:39.999Z</time></trkpt><trkpt lat="44.424137342689995" lon="8.868736688458247"><ele>74.0</ele><time>2026-04-22T08:12:40.999Z</time></trkpt><trkpt lat="44.424167552222656" lon="8.868491506238218"><ele>74.0</ele><time>2026-04-22T08:12:41.999Z</time></trkpt><trkpt lat="44.4242192897067" lon="8.86823959158618"><ele>74.0</ele><time>2026-04-22T08:12:42.999Z</time></trkpt><trkpt lat="44.4242765617057" lon="8.867987891125416"><ele>72.0</ele><time>2026-04-22T08:12:43.999Z</time></trkpt><trkpt lat="44.42435461316027" lon="8.86774660093972"><ele>70.0</ele><time>2026-04-22T08:12:44.999Z</time></trkpt><trkpt lat="44.42444468341523" lon="8.867523782325252"><ele>68.0</ele><time>2026-04-22T08:12:45.999Z</time></trkpt><trkpt lat="44.42454741657851" lon="8.867313184597881"><ele>79.33333333333334</ele><time>2026-04-22T08:12:46.999Z</time></trkpt><trkpt lat="44.424666249024646" lon="8.867087392161244"><ele>90.66666666666667</ele><time>2026-04-22T08:12:47.999Z</time></trkpt><trkpt lat="44.42478272328178" lon="8.866857377101253"><ele>102.0</ele><time>2026-04-22T08:12:48.999Z</time></trkpt><trkpt lat="44.42488942092183" lon="8.866634314010854"><ele>107.0</ele><time>2026-04-22T08:12:49.999Z</time></trkpt><trkpt lat="44.42500138212607" lon="8.866412890085194"><ele>112.0</ele><time>2026-04-22T08:12:50.999Z</time></trkpt><trkpt lat="44.425112726702416" lon="8.866175417932151"><ele>117.0</ele><time>2026-04-22T08:12:51.999Z</time></trkpt><trkpt lat="44.42523037260363" lon="8.865927966597349"><ele>117.33333333333334</ele><time>2026-04-22T08:12:53.061Z</time></trkpt><trkpt lat="44.42533400049152" lon="8.865710046902246"><ele>117.66666666666667</ele><time>2026-04-22T08:12:54.051Z</time></trkpt><trkpt lat="44.425440993691716" lon="8.86548809324621"><ele>118.0</ele><time>2026-04-22T08:12:55.046Z</time></trkpt><trkpt lat="44.425548378561594" lon="8.86526710899123"><ele>117.66666666666667</ele><time>2026-04-22T08:12:56.048Z</time></trkpt><trkpt lat="44.42565578506979" lon="8.865047530371303"><ele>117.33333333333334</ele><time>2026-04-22T08:12:57.045Z</time></trkpt><trkpt lat="44.42576185912159" lon="8.864833964593316"><ele>117.0</ele><time>2026-04-22T08:12:58.025Z</time></trkpt><trkpt lat="44.42633758814747" lon="8.863667799896225"><ele>113.5</ele><time>2026-04-22T08:13:01.781Z</time></trkpt><trkpt lat="44.42648969687196" lon="8.86335673537017"><ele>110.0</ele><time>2026-04-22T08:13:02.781Z</time></trkpt><trkpt lat="44.42664238553668" lon="8.8630460276371"><ele>110.0</ele><time>2026-04-22T08:13:03.781Z</time></trkpt><trkpt lat="44.42679049153861" lon="8.862731068248126"><ele>110.0</ele><time>2026-04-22T08:13:04.781Z</time></trkpt><trkpt lat="44.42692731843752" lon="8.862406360674397"><ele>60.0</ele><time>2026-04-22T08:13:05.781Z</time></trkpt><trkpt lat="44.42723272612129" lon="8.861567247119748"><ele>60.0</ele><time>2026-04-22T08:13:10.999Z</time></trkpt><trkpt lat="44.42734753434151" lon="8.861323939630052"><ele>60.0</ele><time>2026-04-22T08:13:11.999Z</time></trkpt><trkpt lat="44.427497424744345" lon="8.861100358132516"><ele>60.0</ele><time>2026-04-22T08:13:12.999Z</time></trkpt><trkpt lat="44.427619728350926" lon="8.86089204381311"><ele>58.66666666666667</ele><time>2026-04-22T08:13:13.999Z</time></trkpt><trkpt lat="44.427737076259724" lon="8.860674360747835"><ele>57.333333333333336</ele><time>2026-04-22T08:13:14.999Z</time></trkpt><trkpt lat="44.42785218294112" lon="8.860451654962297"><ele>56.0</ele><time>2026-04-22T08:13:15.999Z</time></trkpt><trkpt lat="44.42796687069817" lon="8.860213402169805"><ele>46.0</ele><time>2026-04-22T08:13:16.999Z</time></trkpt><trkpt lat="44.4280833390138" lon="8.859992230848126"><ele>36.0</ele><time>2026-04-22T08:13:17.998Z</time></trkpt><trkpt lat="44.428198923835254" lon="8.859771372406225"><ele>26.0</ele><time>2026-04-22T08:13:18.998Z</time></trkpt><trkpt lat="44.42831434773259" lon="8.859551795308173"><ele>26.0</ele><time>2026-04-22T08:13:19.998Z</time></trkpt><trkpt lat="44.42842907114415" lon="8.859332836441082"><ele>26.0</ele><time>2026-04-22T08:13:20.998Z</time></trkpt><trkpt lat="44.42854560931755" lon="8.859117750687552"><ele>26.0</ele><time>2026-04-22T08:13:21.998Z</time></trkpt><trkpt lat="44.42865737938972" lon="8.858900275292537"><ele>23.666666666666664</ele><time>2026-04-22T08:13:22.998Z</time></trkpt><trkpt lat="44.428771193750386" lon="8.858686348157152"><ele>21.333333333333332</ele><time>2026-04-22T08:13:23.998Z</time></trkpt><trkpt lat="44.42888451328309" lon="8.858470236963475"><ele>19.0</ele><time>2026-04-22T08:13:24.998Z</time></trkpt><trkpt lat="44.42899759183132" lon="8.858258548966297"><ele>19.0</ele><time>2026-04-22T08:13:25.998Z</time></trkpt><trkpt lat="44.42910729643163" lon="8.858047641978647"><ele>19.0</ele><time>2026-04-22T08:13:26.998Z</time></trkpt><trkpt lat="44.42921048703813" lon="8.857840746376917"><ele>19.0</ele><time>2026-04-22T08:13:27.998Z</time></trkpt><trkpt lat="44.429304680300774" lon="8.857636568868479"><ele>21.0</ele><time>2026-04-22T08:13:28.998Z</time></trkpt><trkpt lat="44.42938875267046" lon="8.857428012959096"><ele>23.0</ele><time>2026-04-22T08:13:29.998Z</time></trkpt><trkpt lat="44.42946213629504" lon="8.857205351753437"><ele>25.0</ele><time>2026-04-22T08:13:30.998Z</time></trkpt><trkpt lat="44.42952329866628" lon="8.856969551054972"><ele>27.0</ele><time>2026-04-22T08:13:31.998Z</time></trkpt><trkpt lat="44.42957380003895" lon="8.856717497743677"><ele>29.0</ele><time>2026-04-22T08:13:32.998Z</time></trkpt><trkpt lat="44.42961793850879" lon="8.856454372609656"><ele>31.0</ele><time>2026-04-22T08:13:33.998Z</time></trkpt><trkpt lat="44.42965749477257" lon="8.856176794646835"><ele>31.666666666666668</ele><time>2026-04-22T08:13:34.998Z</time></trkpt><trkpt lat="44.42970235347032" lon="8.855882341759273"><ele>32.333333333333336</ele><time>2026-04-22T08:13:35.998Z</time></trkpt><trkpt lat="44.42975179541249" lon="8.855588473632109"><ele>33.0</ele><time>2026-04-22T08:13:36.998Z</time></trkpt><trkpt lat="44.42980386811194" lon="8.855292003520882"><ele>29.0</ele><time>2026-04-22T08:13:37.998Z</time></trkpt><trkpt lat="44.42985821481397" lon="8.854992072962617"><ele>25.0</ele><time>2026-04-22T08:13:38.998Z</time></trkpt><trkpt lat="44.429911254335" lon="8.85469766275453"><ele>21.0</ele><time>2026-04-22T08:13:39.998Z</time></trkpt><trkpt lat="44.42996044972159" lon="8.854407383038952"><ele>21.333333333333332</ele><time>2026-04-22T08:13:40.998Z</time></trkpt><trkpt lat="44.43000929364737" lon="8.85412235893216"><ele>21.666666666666664</ele><time>2026-04-22T08:13:41.998Z</time></trkpt><trkpt lat="44.43005727686725" lon="8.853840992615838"><ele>22.0</ele><time>2026-04-22T08:13:42.998Z</time></trkpt><trkpt lat="44.43010549738669" lon="8.853556067771033"><ele>24.0</ele><time>2026-04-22T08:13:43.998Z</time></trkpt><trkpt lat="44.43015465250798" lon="8.853276806337668"><ele>26.0</ele><time>2026-04-22T08:13:44.998Z</time></trkpt><trkpt lat="44.43020484717925" lon="8.85300060998865"><ele>28.0</ele><time>2026-04-22T08:13:45.998Z</time></trkpt><trkpt lat="44.430257322095024" lon="8.852712646516885"><ele>32.0</ele><time>2026-04-22T08:13:46.998Z</time></trkpt><trkpt lat="44.4303161533592" lon="8.852419754546666"><ele>36.0</ele><time>2026-04-22T08:13:47.998Z</time></trkpt><trkpt lat="44.43037368294967" lon="8.852122124862612"><ele>40.0</ele><time>2026-04-22T08:13:48.998Z</time></trkpt><trkpt lat="44.430425040997555" lon="8.851815348865028"><ele>45.0</ele><time>2026-04-22T08:13:49.998Z</time></trkpt><trkpt lat="44.43047321783038" lon="8.851502703124378"><ele>50.0</ele><time>2026-04-22T08:13:50.998Z</time></trkpt><trkpt lat="44.43051851624772" lon="8.851197712304536"><ele>53.0</ele><time>2026-04-22T08:13:51.998Z</time></trkpt><trkpt lat="44.430559720137964" lon="8.85089582708485"><ele>56.0</ele><time>2026-04-22T08:13:52.998Z</time></trkpt><trkpt lat="44.43059527416759" lon="8.85059182311342"><ele>59.0</ele><time>2026-04-22T08:13:53.998Z</time></trkpt><trkpt lat="44.43062156112993" lon="8.850285896478162"><ele>58.5</ele><time>2026-04-22T08:13:54.999Z</time></trkpt><trkpt lat="44.43063182815899" lon="8.849950997407886"><ele>58.0</ele><time>2026-04-22T08:13:56.061Z</time></trkpt><trkpt lat="44.43063492361287" lon="8.849628005498744"><ele>39.0</ele><time>2026-04-22T08:13:57.056Z</time></trkpt><trkpt lat="44.430241754435215" lon="8.846858539092688"><ele>39.0</ele><time>2026-04-22T08:14:00.78Z</time></trkpt><trkpt lat="44.430349526197375" lon="8.847174415218333"><ele>39.0</ele><time>2026-04-22T08:14:09Z</time></trkpt><trkpt lat="44.43027516962298" lon="8.846563527570739"><ele>39.0</ele><time>2026-04-22T08:14:11Z</time></trkpt><trkpt lat="44.43028301834032" lon="8.84634706190498"><ele>39.0</ele><time>2026-04-22T08:14:12Z</time></trkpt><trkpt lat="44.43034116541735" lon="8.846134544445832"><ele>39.0</ele><time>2026-04-22T08:14:13Z</time></trkpt><trkpt lat="44.4303685694713" lon="8.845892230922997"><ele>39.0</ele><time>2026-04-22T08:14:14Z</time></trkpt><trkpt lat="44.43038831522537" lon="8.845679198040653"><ele>39.0</ele><time>2026-04-22T08:14:15Z</time></trkpt><trkpt lat="44.43040653577237" lon="8.845423594336282"><ele>39.0</ele><time>2026-04-22T08:14:16Z</time></trkpt><trkpt lat="44.43044237413333" lon="8.845187457406501"><ele>40.666666666666664</ele><time>2026-04-22T08:14:17Z</time></trkpt><trkpt lat="44.430479334569824" lon="8.844944253075157"><ele>42.33333333333333</ele><time>2026-04-22T08:14:18Z</time></trkpt><trkpt lat="44.43052018101361" lon="8.84468988724159"><ele>44.0</ele><time>2026-04-22T08:14:19Z</time></trkpt><trkpt lat="44.43055946809912" lon="8.844450486098653"><ele>45.33333333333333</ele><time>2026-04-22T08:14:20Z</time></trkpt><trkpt lat="44.43059137784011" lon="8.844228705454775"><ele>46.666666666666664</ele><time>2026-04-22T08:14:21Z</time></trkpt><trkpt lat="44.43063870999171" lon="8.844004579685206"><ele>48.0</ele><time>2026-04-22T08:14:22Z</time></trkpt><trkpt lat="44.430688355378344" lon="8.843784394847324"><ele>48.0</ele><time>2026-04-22T08:14:23Z</time></trkpt><trkpt lat="44.430730847471885" lon="8.84359350185179"><ele>48.0</ele><time>2026-04-22T08:14:24Z</time></trkpt><trkpt lat="44.43075882089739" lon="8.843381074514728"><ele>48.0</ele><time>2026-04-22T08:14:25Z</time></trkpt><trkpt lat="44.43081200142268" lon="8.843185577907104"><ele>48.0</ele><time>2026-04-22T08:14:26Z</time></trkpt><trkpt lat="44.430855024053145" lon="8.842991943118594"><ele>49.33333333333333</ele><time>2026-04-22T08:14:27Z</time></trkpt><trkpt lat="44.43088317906693" lon="8.842782477709326"><ele>50.666666666666664</ele><time>2026-04-22T08:14:28Z</time></trkpt><trkpt lat="44.430890139783045" lon="8.842567127384507"><ele>52.0</ele><time>2026-04-22T08:14:29Z</time></trkpt><trkpt lat="44.43087701667842" lon="8.842356502599806"><ele>54.0</ele><time>2026-04-22T08:14:30Z</time></trkpt><trkpt lat="44.43084568855356" lon="8.842170710390299"><ele>56.0</ele><time>2026-04-22T08:14:31Z</time></trkpt><trkpt lat="44.43080277618447" lon="8.841978987533372"><ele>58.0</ele><time>2026-04-22T08:14:32.063Z</time></trkpt><trkpt lat="44.43075784545786" lon="8.841809962958452"><ele>60.0</ele><time>2026-04-22T08:14:33.046Z</time></trkpt><trkpt lat="44.43074051675147" lon="8.84160922409938"><ele>63.5</ele><time>2026-04-22T08:14:34.041Z</time></trkpt><trkpt lat="44.43066915075954" lon="8.841427593352705"><ele>67.0</ele><time>2026-04-22T08:14:35.044Z</time></trkpt><trkpt lat="44.43023963853089" lon="8.839758417788286"><ele>60.0</ele><time>2026-04-22T08:14:41.999Z</time></trkpt><trkpt lat="44.4301704367997" lon="8.839563386372099"><ele>53.0</ele><time>2026-04-22T08:14:42.999Z</time></trkpt><trkpt lat="44.43013654230073" lon="8.839404809436799"><ele>46.0</ele><time>2026-04-22T08:14:43.999Z</time></trkpt><trkpt lat="44.43008945077419" lon="8.839187549395058"><ele>39.0</ele><time>2026-04-22T08:14:44.999Z</time></trkpt><trkpt lat="44.43005763023219" lon="8.83898760240409"><ele>39.0</ele><time>2026-04-22T08:14:45.999Z</time></trkpt><trkpt lat="44.43001065561502" lon="8.83877872984098"><ele>39.0</ele><time>2026-04-22T08:14:46.999Z</time></trkpt><trkpt lat="44.43002697938124" lon="8.83858106377208"><ele>39.0</ele><time>2026-04-22T08:14:47.999Z</time></trkpt><trkpt lat="44.43003963039581" lon="8.83835826961285"><ele>39.0</ele><time>2026-04-22T08:14:48.999Z</time></trkpt><trkpt lat="44.43006717132364" lon="8.838147856806312"><ele>39.0</ele><time>2026-04-22T08:14:49.999Z</time></trkpt><trkpt lat="44.43011019372218" lon="8.837935402541019"><ele>39.0</ele><time>2026-04-22T08:14:50.999Z</time></trkpt><trkpt lat="44.43016597644231" lon="8.837728159803309"><ele>41.0</ele><time>2026-04-22T08:14:51.999Z</time></trkpt><trkpt lat="44.43020400904823" lon="8.837524881189218"><ele>43.0</ele><time>2026-04-22T08:14:52.999Z</time></trkpt><trkpt lat="44.43022883364439" lon="8.837317129415728"><ele>45.0</ele><time>2026-04-22T08:14:53.999Z</time></trkpt><trkpt lat="44.43024616639295" lon="8.837114410402307"><ele>47.0</ele><time>2026-04-22T08:14:54.999Z</time></trkpt><trkpt lat="44.43028935028221" lon="8.836923440700126"><ele>50.0</ele><time>2026-04-22T08:14:55.999Z</time></trkpt><trkpt lat="44.430313805152394" lon="8.83623817805006"><ele>50.0</ele><time>2026-04-22T08:14:59.999Z</time></trkpt><trkpt lat="44.430303212580675" lon="8.836121537865923"><ele>50.0</ele><time>2026-04-22T08:15:00.999Z</time></trkpt><trkpt lat="44.43028789474115" lon="8.836013940972766"><ele>50.0</ele><time>2026-04-22T08:15:01.999Z</time></trkpt><trkpt lat="44.430255989250384" lon="8.835851838555811"><ele>50.0</ele><time>2026-04-22T08:15:02.999Z</time></trkpt><trkpt lat="44.43022646549797" lon="8.835707503854639"><ele>50.0</ele><time>2026-04-22T08:15:03.999Z</time></trkpt><trkpt lat="44.43018430964157" lon="8.835532483798403"><ele>50.0</ele><time>2026-04-22T08:15:04.999Z</time></trkpt><trkpt lat="44.43010681757531" lon="8.835265075937826"><ele>50.0</ele><time>2026-04-22T08:15:05.999Z</time></trkpt><trkpt lat="44.43002191122039" lon="8.834962546296278"><ele>50.0</ele><time>2026-04-22T08:15:06.999Z</time></trkpt><trkpt lat="44.429942612149745" lon="8.834663536809408"><ele>50.0</ele><time>2026-04-22T08:15:07.999Z</time></trkpt><trkpt lat="44.42986310317005" lon="8.834361925679527"><ele>50.0</ele><time>2026-04-22T08:15:08.999Z</time></trkpt><trkpt lat="44.42977874164845" lon="8.83411936373195"><ele>50.0</ele><time>2026-04-22T08:15:09.999Z</time></trkpt><trkpt lat="44.42973407409977" lon="8.8339038034914"><ele>50.333333333333336</ele><time>2026-04-22T08:15:10.999Z</time></trkpt><trkpt lat="44.42969568112223" lon="8.833679451952557"><ele>50.66666666666667</ele><time>2026-04-22T08:15:11.999Z</time></trkpt><trkpt lat="44.42965160057901" lon="8.83346567544779"><ele>51.0</ele><time>2026-04-22T08:15:12.999Z</time></trkpt><trkpt lat="44.42961891778434" lon="8.83321028760909"><ele>50.33333333333333</ele><time>2026-04-22T08:15:13.999Z</time></trkpt><trkpt lat="44.429592993784034" lon="8.832962039426707"><ele>49.666666666666664</ele><time>2026-04-22T08:15:14.999Z</time></trkpt><trkpt lat="44.42957569484806" lon="8.83272079647737"><ele>49.0</ele><time>2026-04-22T08:15:15.999Z</time></trkpt><trkpt lat="44.42956837710163" lon="8.832483679051482"><ele>49.0</ele><time>2026-04-22T08:15:16.999Z</time></trkpt><trkpt lat="44.429569418682675" lon="8.832230929936944"><ele>49.0</ele><time>2026-04-22T08:15:17.999Z</time></trkpt><trkpt lat="44.42957467626092" lon="8.83198250406226"><ele>49.0</ele><time>2026-04-22T08:15:18.999Z</time></trkpt><trkpt lat="44.429582875953805" lon="8.831734101244455"><ele>55.0</ele><time>2026-04-22T08:15:19.999Z</time></trkpt><trkpt lat="44.42959699410585" lon="8.831476962953648"><ele>61.0</ele><time>2026-04-22T08:15:20.999Z</time></trkpt><trkpt lat="44.42960909305596" lon="8.831220364353486"><ele>67.0</ele><time>2026-04-22T08:15:21.999Z</time></trkpt><trkpt lat="44.429622001434545" lon="8.83096623190094"><ele>71.33333333333333</ele><time>2026-04-22T08:15:22.999Z</time></trkpt><trkpt lat="44.42963990547736" lon="8.830706846643672"><ele>75.66666666666667</ele><time>2026-04-22T08:15:23.999Z</time></trkpt><trkpt lat="44.429642778875255" lon="8.830405695237305"><ele>80.0</ele><time>2026-04-22T08:15:25.056Z</time></trkpt><trkpt lat="44.429594230609254" lon="8.830197434322264"><ele>82.0</ele><time>2026-04-22T08:15:26.057Z</time></trkpt><trkpt lat="44.42960183529183" lon="8.829953582312204"><ele>84.0</ele><time>2026-04-22T08:15:27.055Z</time></trkpt><trkpt lat="44.42960106258628" lon="8.829701926537362"><ele>86.0</ele><time>2026-04-22T08:15:28.062Z</time></trkpt><trkpt lat="44.429609047064325" lon="8.829458295713417"><ele>85.0</ele><time>2026-04-22T08:15:29.054Z</time></trkpt><trkpt lat="44.429611785652234" lon="8.829213742611577"><ele>84.0</ele><time>2026-04-22T08:15:30.032Z</time></trkpt><trkpt lat="44.429632228731386" lon="8.828967281445088"><ele>83.0</ele><time>2026-04-22T08:15:31.024Z</time></trkpt><trkpt lat="44.4295424239769" lon="8.827594425497557"><ele>77.66666666666667</ele><time>2026-04-22T08:15:38.999Z</time></trkpt><trkpt lat="44.42952457487855" lon="8.827406887438872"><ele>72.33333333333333</ele><time>2026-04-22T08:15:39.999Z</time></trkpt><trkpt lat="44.42964148291838" lon="8.82709183330761"><ele>67.0</ele><time>2026-04-22T08:15:40.999Z</time></trkpt><trkpt lat="44.42964531408426" lon="8.826821429373654"><ele>63.33333333333333</ele><time>2026-04-22T08:15:41.999Z</time></trkpt><trkpt lat="44.42962071653129" lon="8.826562206259952"><ele>59.66666666666667</ele><time>2026-04-22T08:15:42.999Z</time></trkpt><trkpt lat="44.42957822240924" lon="8.826332012171122"><ele>56.0</ele><time>2026-04-22T08:15:43.999Z</time></trkpt><trkpt lat="44.42955961856435" lon="8.826190218661877"><ele>56.0</ele><time>2026-04-22T08:15:44.999Z</time></trkpt><trkpt lat="44.429505176657685" lon="8.825992109614647"><ele>56.0</ele><time>2026-04-22T08:15:45.999Z</time></trkpt><trkpt lat="44.429462386990195" lon="8.825809737104237"><ele>56.0</ele><time>2026-04-22T08:15:46.999Z</time></trkpt><trkpt lat="44.42940632520724" lon="8.825620233202528"><ele>56.0</ele><time>2026-04-22T08:15:47.999Z</time></trkpt><trkpt lat="44.42934593798678" lon="8.825433041655529"><ele>51.75</ele><time>2026-04-22T08:15:48.999Z</time></trkpt><trkpt lat="44.42930254982314" lon="8.825255043883283"><ele>47.5</ele><time>2026-04-22T08:15:49.999Z</time></trkpt><trkpt lat="44.42927090582551" lon="8.825079466210859"><ele>43.25</ele><time>2026-04-22T08:15:50.999Z</time></trkpt><trkpt lat="44.42924282478591" lon="8.824894760444074"><ele>39.0</ele><time>2026-04-22T08:15:51.999Z</time></trkpt><trkpt lat="44.42921213668985" lon="8.82469521334273"><ele>38.25</ele><time>2026-04-22T08:15:52.999Z</time></trkpt><trkpt lat="44.42920144951215" lon="8.824491609350744"><ele>37.5</ele><time>2026-04-22T08:15:53.999Z</time></trkpt><trkpt lat="44.42919948508356" lon="8.824282914199637"><ele>36.75</ele><time>2026-04-22T08:15:54.999Z</time></trkpt><trkpt lat="44.42920023560017" lon="8.824082506304997"><ele>36.0</ele><time>2026-04-22T08:15:55.999Z</time></trkpt><trkpt lat="44.42921245249004" lon="8.82388464390534"><ele>35.75</ele><time>2026-04-22T08:15:56.999Z</time></trkpt><trkpt lat="44.42923986367403" lon="8.823688496859827"><ele>35.5</ele><time>2026-04-22T08:15:57.999Z</time></trkpt><trkpt lat="44.429281124628446" lon="8.823488290655769"><ele>35.25</ele><time>2026-04-22T08:15:58.999Z</time></trkpt><trkpt lat="44.42934676234987" lon="8.823291437192736"><ele>35.0</ele><time>2026-04-22T08:16:00Z</time></trkpt><trkpt lat="44.429412480924235" lon="8.82307516134387"><ele>33.0</ele><time>2026-04-22T08:16:01Z</time></trkpt><trkpt lat="44.4294698526526" lon="8.822860503138488"><ele>31.0</ele><time>2026-04-22T08:16:02Z</time></trkpt><trkpt lat="44.42953427585006" lon="8.822618136283422"><ele>29.0</ele><time>2026-04-22T08:16:03Z</time></trkpt><trkpt lat="44.4296070603043" lon="8.822341625561583"><ele>28.0</ele><time>2026-04-22T08:16:04Z</time></trkpt><trkpt lat="44.42969154564123" lon="8.8220436349518"><ele>27.0</ele><time>2026-04-22T08:16:05Z</time></trkpt><trkpt lat="44.429776960479984" lon="8.821748794586826"><ele>23.5</ele><time>2026-04-22T08:16:06Z</time></trkpt><trkpt lat="44.429856031243276" lon="8.821441334659525"><ele>20.0</ele><time>2026-04-22T08:16:07Z</time></trkpt><trkpt lat="44.42995295576871" lon="8.82108909159198"><ele>18.0</ele><time>2026-04-22T08:16:08Z</time></trkpt><trkpt lat="44.43004848006787" lon="8.820750128231868"><ele>16.0</ele><time>2026-04-22T08:16:09Z</time></trkpt><trkpt lat="44.430129837829355" lon="8.820439808739993"><ele>17.0</ele><time>2026-04-22T08:16:10Z</time></trkpt><trkpt lat="44.430218658923984" lon="8.820113088449435"><ele>18.0</ele><time>2026-04-22T08:16:11Z</time></trkpt><trkpt lat="44.4303007765656" lon="8.819807090372377"><ele>18.0</ele><time>2026-04-22T08:16:12Z</time></trkpt><trkpt lat="44.43037887754548" lon="8.819521786366595"><ele>18.0</ele><time>2026-04-22T08:16:13Z</time></trkpt><trkpt lat="44.430459280184614" lon="8.819236435217416"><ele>18.0</ele><time>2026-04-22T08:16:14Z</time></trkpt><trkpt lat="44.430536515357396" lon="8.818951080606983"><ele>22.333333333333336</ele><time>2026-04-22T08:16:15Z</time></trkpt><trkpt lat="44.43061243473661" lon="8.818669529936185"><ele>26.666666666666668</ele><time>2026-04-22T08:16:16Z</time></trkpt><trkpt lat="44.43069096872128" lon="8.818394602438556"><ele>31.0</ele><time>2026-04-22T08:16:17Z</time></trkpt><trkpt lat="44.430764933198674" lon="8.818136154644684"><ele>34.333333333333336</ele><time>2026-04-22T08:16:18Z</time></trkpt><trkpt lat="44.430840628106445" lon="8.817875001837061"><ele>37.666666666666664</ele><time>2026-04-22T08:16:19Z</time></trkpt><trkpt lat="44.430914466241454" lon="8.817636649086396"><ele>41.0</ele><time>2026-04-22T08:16:20Z</time></trkpt><trkpt lat="44.43100574498609" lon="8.817410198811219"><ele>44.33333333333333</ele><time>2026-04-22T08:16:21Z</time></trkpt><trkpt lat="44.43110050603844" lon="8.817212761040242"><ele>47.666666666666664</ele><time>2026-04-22T08:16:22Z</time></trkpt><trkpt lat="44.43119876420227" lon="8.817032446705594"><ele>51.0</ele><time>2026-04-22T08:16:23Z</time></trkpt><trkpt lat="44.431298467482705" lon="8.816856126249613"><ele>63.0</ele><time>2026-04-22T08:16:24Z</time></trkpt><trkpt lat="44.43138772307471" lon="8.816656435978759"><ele>75.0</ele><time>2026-04-22T08:16:25Z</time></trkpt><trkpt lat="44.43147796939643" lon="8.816470714923987"><ele>87.0</ele><time>2026-04-22T08:16:26Z</time></trkpt><trkpt lat="44.43156848376061" lon="8.816278922149458"><ele>87.0</ele><time>2026-04-22T08:16:27.065Z</time></trkpt><trkpt lat="44.431652595476564" lon="8.81610803188375"><ele>87.0</ele><time>2026-04-22T08:16:28.056Z</time></trkpt><trkpt lat="44.43174751803278" lon="8.815934601830767"><ele>87.0</ele><time>2026-04-22T08:16:29.061Z</time></trkpt><trkpt lat="44.43248602300452" lon="8.813362373524035"><ele>72.0</ele><time>2026-04-22T08:16:32.779Z</time></trkpt><trkpt lat="44.43215351624665" lon="8.808510806515557"><ele>71.66666666666667</ele><time>2026-04-22T08:16:53Z</time></trkpt><trkpt lat="44.43213151881045" lon="8.808223917137239"><ele>71.33333333333334</ele><time>2026-04-22T08:16:54Z</time></trkpt><trkpt lat="44.43209207486391" lon="8.80789217422152"><ele>71.0</ele><time>2026-04-22T08:16:55Z</time></trkpt><trkpt lat="44.43207667423744" lon="8.807591887797878"><ele>71.0</ele><time>2026-04-22T08:16:56Z</time></trkpt><trkpt lat="44.43204304180342" lon="8.807317573257217"><ele>71.0</ele><time>2026-04-22T08:16:56.999Z</time></trkpt><trkpt lat="44.43201859648527" lon="8.807024310925193"><ele>71.0</ele><time>2026-04-22T08:16:57.999Z</time></trkpt><trkpt lat="44.43199336861032" lon="8.806714078210142"><ele>81.5</ele><time>2026-04-22T08:16:58.999Z</time></trkpt><trkpt lat="44.43196083336444" lon="8.806382793894077"><ele>92.0</ele><time>2026-04-22T08:16:59.999Z</time></trkpt><trkpt lat="44.43158521738649" lon="8.802333911728963"><ele>96.0</ele><time>2026-04-22T08:17:07.779Z</time></trkpt><trkpt lat="44.43154399501531" lon="8.800954287601847"><ele>93.0</ele><time>2026-04-22T08:17:08.779Z</time></trkpt><trkpt lat="44.43160677374872" lon="8.799576003541343"><ele>118.0</ele><time>2026-04-22T08:17:09.779Z</time></trkpt><trkpt lat="44.431780362746586" lon="8.798217637504578"><ele>102.0</ele><time>2026-04-22T08:17:10.779Z</time></trkpt><trkpt lat="44.432045349668094" lon="8.796886062294716"><ele>85.0</ele><time>2026-04-22T08:17:11.779Z</time></trkpt><trkpt lat="44.43234613856268" lon="8.795568494525318"><ele>93.0</ele><time>2026-04-22T08:17:12.78Z</time></trkpt><trkpt lat="44.43264343188807" lon="8.794252347188937"><ele>88.0</ele><time>2026-04-22T08:17:13.779Z</time></trkpt><trkpt lat="44.432913604433566" lon="8.792923789860685"><ele>48.0</ele><time>2026-04-22T08:17:14.779Z</time></trkpt><trkpt lat="44.43299943278928" lon="8.791038990202258"><ele>42.0</ele><time>2026-04-22T08:17:47.999Z</time></trkpt><trkpt lat="44.4329827232207" lon="8.790702762500299"><ele>36.0</ele><time>2026-04-22T08:17:48.999Z</time></trkpt><trkpt lat="44.43294084549931" lon="8.790315710771175"><ele>38.333333333333336</ele><time>2026-04-22T08:17:49.999Z</time></trkpt><trkpt lat="44.43288694028198" lon="8.790041821124262"><ele>40.66666666666667</ele><time>2026-04-22T08:17:50.999Z</time></trkpt><trkpt lat="44.43282923528323" lon="8.78974059438953"><ele>43.0</ele><time>2026-04-22T08:17:51.999Z</time></trkpt><trkpt lat="44.43276107818617" lon="8.789433749773247"><ele>53.0</ele><time>2026-04-22T08:17:52.999Z</time></trkpt><trkpt lat="44.432682840147095" lon="8.78912774744544"><ele>63.0</ele><time>2026-04-22T08:17:53.999Z</time></trkpt><trkpt lat="44.43260356021529" lon="8.78882211407653"><ele>63.0</ele><time>2026-04-22T08:17:54.999Z</time></trkpt><trkpt lat="44.43253319056256" lon="8.788516679538699"><ele>63.0</ele><time>2026-04-22T08:17:55.999Z</time></trkpt><trkpt lat="44.43242545155272" lon="8.788230105470012"><ele>58.5</ele><time>2026-04-22T08:17:56.999Z</time></trkpt><trkpt lat="44.432327663363225" lon="8.78793544741303"><ele>54.0</ele><time>2026-04-22T08:17:57.999Z</time></trkpt><trkpt lat="44.432229758340284" lon="8.787629134309658"><ele>40.0</ele><time>2026-04-22T08:17:58.999Z</time></trkpt><trkpt lat="44.43207105815201" lon="8.787273012051871"><ele>26.0</ele><time>2026-04-22T08:17:59.999Z</time></trkpt><trkpt lat="44.43196959746211" lon="8.787000689890382"><ele>25.666666666666664</ele><time>2026-04-22T08:18:00.999Z</time></trkpt><trkpt lat="44.43187887972913" lon="8.786719961894406"><ele>25.333333333333336</ele><time>2026-04-22T08:18:01.999Z</time></trkpt><trkpt lat="44.43179089623896" lon="8.786444711700842"><ele>25.0</ele><time>2026-04-22T08:18:02.999Z</time></trkpt><trkpt lat="44.431706990808706" lon="8.786181913883313"><ele>27.666666666666668</ele><time>2026-04-22T08:18:03.999Z</time></trkpt><trkpt lat="44.43162071902545" lon="8.785918389284479"><ele>30.333333333333336</ele><time>2026-04-22T08:18:04.999Z</time></trkpt><trkpt lat="44.43153728181596" lon="8.785659449943829"><ele>33.0</ele><time>2026-04-22T08:18:06Z</time></trkpt><trkpt lat="44.4314554576757" lon="8.785398209259437"><ele>38.33333333333333</ele><time>2026-04-22T08:18:07Z</time></trkpt><trkpt lat="44.43136283966379" lon="8.785125777094548"><ele>43.666666666666664</ele><time>2026-04-22T08:18:08Z</time></trkpt><trkpt lat="44.431264144641396" lon="8.784842479414586"><ele>49.0</ele><time>2026-04-22T08:18:09Z</time></trkpt><trkpt lat="44.43116595965865" lon="8.784552552223106"><ele>67.5</ele><time>2026-04-22T08:18:10Z</time></trkpt><trkpt lat="44.431065095353766" lon="8.784266758946206"><ele>86.0</ele><time>2026-04-22T08:18:11Z</time></trkpt><trkpt lat="44.43096968779281" lon="8.783985550792153"><ele>86.0</ele><time>2026-04-22T08:18:12Z</time></trkpt><trkpt lat="44.43086063567962" lon="8.78368395766524"><ele>86.0</ele><time>2026-04-22T08:18:13Z</time></trkpt><trkpt lat="44.430754863123575" lon="8.783393778939729"><ele>91.0</ele><time>2026-04-22T08:18:14Z</time></trkpt><trkpt lat="44.43066538299314" lon="8.783083937733966"><ele>96.0</ele><time>2026-04-22T08:18:15.059Z</time></trkpt><trkpt lat="44.430596312719366" lon="8.782783267660898"><ele>98.0</ele><time>2026-04-22T08:18:16.059Z</time></trkpt><trkpt lat="44.43053570372334" lon="8.782485033957453"><ele>100.0</ele><time>2026-04-22T08:18:17.054Z</time></trkpt><trkpt lat="44.430335432432464" lon="8.77966540090588"><ele>31.0</ele><time>2026-04-22T08:18:20.778Z</time></trkpt><trkpt lat="44.43028322072246" lon="8.778285531616755"><ele>17.0</ele><time>2026-04-22T08:18:21.778Z</time></trkpt><trkpt lat="44.430264350759806" lon="8.777342854960873"><ele>17.0</ele><time>2026-04-22T08:18:35Z</time></trkpt><trkpt lat="44.430268947280894" lon="8.777052120626319"><ele>17.0</ele><time>2026-04-22T08:18:36Z</time></trkpt><trkpt lat="44.43024617599146" lon="8.776782937845747"><ele>17.0</ele><time>2026-04-22T08:18:37Z</time></trkpt><trkpt lat="44.43024373957079" lon="8.77651778096492"><ele>16.0</ele><time>2026-04-22T08:18:38Z</time></trkpt><trkpt lat="44.43022715290146" lon="8.776251272459257"><ele>15.0</ele><time>2026-04-22T08:18:39Z</time></trkpt><trkpt lat="44.430216152424265" lon="8.775983913521456"><ele>14.0</ele><time>2026-04-22T08:18:40Z</time></trkpt><trkpt lat="44.43020711293647" lon="8.775717763430954"><ele>14.0</ele><time>2026-04-22T08:18:41Z</time></trkpt><trkpt lat="44.430196999376555" lon="8.775445040669702"><ele>14.0</ele><time>2026-04-22T08:18:42Z</time></trkpt><trkpt lat="44.430189006574494" lon="8.775166802699998"><ele>14.0</ele><time>2026-04-22T08:18:43Z</time></trkpt><trkpt lat="44.4301919900014" lon="8.774868518516"><ele>17.0</ele><time>2026-04-22T08:18:44Z</time></trkpt><trkpt lat="44.43020423379089" lon="8.774565852624098"><ele>20.0</ele><time>2026-04-22T08:18:45Z</time></trkpt><trkpt lat="44.43022119231169" lon="8.774262222462118"><ele>23.0</ele><time>2026-04-22T08:18:46Z</time></trkpt><trkpt lat="44.43023670511006" lon="8.773940112110925"><ele>25.0</ele><time>2026-04-22T08:18:47Z</time></trkpt><trkpt lat="44.43025376474223" lon="8.773600294675333"><ele>27.0</ele><time>2026-04-22T08:18:48Z</time></trkpt><trkpt lat="44.43026960595423" lon="8.773259523239263"><ele>28.0</ele><time>2026-04-22T08:18:49Z</time></trkpt><trkpt lat="44.43028414330057" lon="8.772916501477303"><ele>29.0</ele><time>2026-04-22T08:18:50Z</time></trkpt><trkpt lat="44.43029145544155" lon="8.772568551552192"><ele>30.0</ele><time>2026-04-22T08:18:51Z</time></trkpt><trkpt lat="44.430292657927225" lon="8.772229601139234"><ele>31.0</ele><time>2026-04-22T08:18:52Z</time></trkpt><trkpt lat="44.430297274183474" lon="8.771903049592401"><ele>31.5</ele><time>2026-04-22T08:18:53Z</time></trkpt><trkpt lat="44.43030251883049" lon="8.771584044486872"><ele>32.0</ele><time>2026-04-22T08:18:54Z</time></trkpt><trkpt lat="44.430312340766065" lon="8.771263970319009"><ele>30.666666666666664</ele><time>2026-04-22T08:18:55Z</time></trkpt><trkpt lat="44.43031630674011" lon="8.770950316618466"><ele>29.333333333333336</ele><time>2026-04-22T08:18:56Z</time></trkpt><trkpt lat="44.43031679956611" lon="8.770646332907644"><ele>28.0</ele><time>2026-04-22T08:18:57Z</time></trkpt><trkpt lat="44.430317838299636" lon="8.770359373573482"><ele>28.0</ele><time>2026-04-22T08:18:58Z</time></trkpt><trkpt lat="44.43030520369932" lon="8.770086031012376"><ele>28.0</ele><time>2026-04-22T08:18:59Z</time></trkpt><trkpt lat="44.43027776819368" lon="8.76980410947481"><ele>28.0</ele><time>2026-04-22T08:19:00Z</time></trkpt><trkpt lat="44.43023037038993" lon="8.769508703526695"><ele>23.0</ele><time>2026-04-22T08:19:01Z</time></trkpt><trkpt lat="44.43016744288852" lon="8.769201865572537"><ele>18.0</ele><time>2026-04-22T08:19:02Z</time></trkpt><trkpt lat="44.43010080816677" lon="8.768884719950771"><ele>18.0</ele><time>2026-04-22T08:19:03Z</time></trkpt><trkpt lat="44.430036189537475" lon="8.768561946043345"><ele>18.0</ele><time>2026-04-22T08:19:04Z</time></trkpt><trkpt lat="44.42997914875287" lon="8.768253457756426"><ele>17.666666666666668</ele><time>2026-04-22T08:19:05Z</time></trkpt><trkpt lat="44.42993343642247" lon="8.767954472495735"><ele>17.333333333333336</ele><time>2026-04-22T08:19:06Z</time></trkpt><trkpt lat="44.42990144984499" lon="8.76765693976322"><ele>17.0</ele><time>2026-04-22T08:19:06.999Z</time></trkpt><trkpt lat="44.42988851268462" lon="8.767363019576392"><ele>16.666666666666668</ele><time>2026-04-22T08:19:07.999Z</time></trkpt><trkpt lat="44.429887259442815" lon="8.7670644839441"><ele>16.333333333333332</ele><time>2026-04-22T08:19:08.999Z</time></trkpt><trkpt lat="44.429900432615604" lon="8.766771252782195"><ele>16.0</ele><time>2026-04-22T08:19:09.999Z</time></trkpt><trkpt lat="44.42992712295879" lon="8.766479352975532"><ele>16.666666666666664</ele><time>2026-04-22T08:19:10.999Z</time></trkpt><trkpt lat="44.42996075228102" lon="8.766191143548747"><ele>17.333333333333332</ele><time>2026-04-22T08:19:11.999Z</time></trkpt><trkpt lat="44.429991934045944" lon="8.765904527416874"><ele>18.0</ele><time>2026-04-22T08:19:12.999Z</time></trkpt><trkpt lat="44.43002040736477" lon="8.76562328329565"><ele>19.0</ele><time>2026-04-22T08:19:13.999Z</time></trkpt><trkpt lat="44.430051249634964" lon="8.765344162065523"><ele>20.0</ele><time>2026-04-22T08:19:14.999Z</time></trkpt><trkpt lat="44.43009425293804" lon="8.765070978248701"><ele>21.0</ele><time>2026-04-22T08:19:15.999Z</time></trkpt><trkpt lat="44.43014241764973" lon="8.764799135891534"><ele>21.0</ele><time>2026-04-22T08:19:16.999Z</time></trkpt><trkpt lat="44.43018943644992" lon="8.764528051564966"><ele>21.0</ele><time>2026-04-22T08:19:17.999Z</time></trkpt><trkpt lat="44.430239193826864" lon="8.764253959296925"><ele>21.0</ele><time>2026-04-22T08:19:18.999Z</time></trkpt><trkpt lat="44.43028971721824" lon="8.76398060057739"><ele>21.666666666666668</ele><time>2026-04-22T08:19:19.999Z</time></trkpt><trkpt lat="44.430338118446976" lon="8.763702567751164"><ele>22.333333333333336</ele><time>2026-04-22T08:19:20.999Z</time></trkpt><trkpt lat="44.43038489091832" lon="8.763427387772948"><ele>23.0</ele><time>2026-04-22T08:19:21.999Z</time></trkpt><trkpt lat="44.43043008130519" lon="8.763150996344367"><ele>21.333333333333336</ele><time>2026-04-22T08:19:22.999Z</time></trkpt><trkpt lat="44.4304681689447" lon="8.762878297488692"><ele>19.666666666666668</ele><time>2026-04-22T08:19:23.999Z</time></trkpt><trkpt lat="44.430500333351766" lon="8.762599910919304"><ele>18.0</ele><time>2026-04-22T08:19:24.999Z</time></trkpt><trkpt lat="44.43051701153148" lon="8.762315732852167"><ele>22.333333333333336</ele><time>2026-04-22T08:19:25.999Z</time></trkpt><trkpt lat="44.43052597790463" lon="8.762022857089871"><ele>26.666666666666668</ele><time>2026-04-22T08:19:26.999Z</time></trkpt><trkpt lat="44.43051805433625" lon="8.76173043394986"><ele>31.0</ele><time>2026-04-22T08:19:27.999Z</time></trkpt><trkpt lat="44.430488720154294" lon="8.761433369257555"><ele>30.333333333333336</ele><time>2026-04-22T08:19:28.999Z</time></trkpt><trkpt lat="44.43044004473348" lon="8.761147940693947"><ele>29.666666666666664</ele><time>2026-04-22T08:19:29.999Z</time></trkpt><trkpt lat="44.430398954571125" lon="8.76084173538713"><ele>29.0</ele><time>2026-04-22T08:19:30.999Z</time></trkpt><trkpt lat="44.43037468023426" lon="8.760571729174822"><ele>29.0</ele><time>2026-04-22T08:19:31.999Z</time></trkpt><trkpt lat="44.430311473431374" lon="8.760261262044606"><ele>29.0</ele><time>2026-04-22T08:19:32.999Z</time></trkpt><trkpt lat="44.430264123667406" lon="8.759968888175953"><ele>29.0</ele><time>2026-04-22T08:19:33.999Z</time></trkpt><trkpt lat="44.430228773371" lon="8.759695430591277"><ele>29.0</ele><time>2026-04-22T08:19:34.999Z</time></trkpt><trkpt lat="44.430202511438026" lon="8.759418923770022"><ele>29.0</ele><time>2026-04-22T08:19:35.999Z</time></trkpt><trkpt lat="44.430181702451186" lon="8.759126785359376"><ele>29.0</ele><time>2026-04-22T08:19:36.999Z</time></trkpt><trkpt lat="44.43019088575254" lon="8.758836679317856"><ele>29.333333333333332</ele><time>2026-04-22T08:19:37.999Z</time></trkpt><trkpt lat="44.4302067429105" lon="8.758565021556231"><ele>29.666666666666664</ele><time>2026-04-22T08:19:38.999Z</time></trkpt><trkpt lat="44.43022543430396" lon="8.758321644988948"><ele>30.0</ele><time>2026-04-22T08:19:39.999Z</time></trkpt><trkpt lat="44.430237412748696" lon="8.758076803425196"><ele>30.0</ele><time>2026-04-22T08:19:40.999Z</time></trkpt><trkpt lat="44.43024746717495" lon="8.75783628706053"><ele>30.0</ele><time>2026-04-22T08:19:41.999Z</time></trkpt><trkpt lat="44.43025428849424" lon="8.757597428270122"><ele>30.0</ele><time>2026-04-22T08:19:42.999Z</time></trkpt><trkpt lat="44.430259179338954" lon="8.757361041222762"><ele>30.0</ele><time>2026-04-22T08:19:43.999Z</time></trkpt><trkpt lat="44.430273427203495" lon="8.757123579948637"><ele>30.0</ele><time>2026-04-22T08:19:44.999Z</time></trkpt><trkpt lat="44.43028873364654" lon="8.756874808886066"><ele>30.0</ele><time>2026-04-22T08:19:45.999Z</time></trkpt><trkpt lat="44.430325943460545" lon="8.756605237337235"><ele>30.333333333333336</ele><time>2026-04-22T08:19:46.999Z</time></trkpt><trkpt lat="44.43036602511157" lon="8.756315976108803"><ele>30.666666666666668</ele><time>2026-04-22T08:19:47.999Z</time></trkpt><trkpt lat="44.43042346559447" lon="8.756022417231296"><ele>31.0</ele><time>2026-04-22T08:19:48.999Z</time></trkpt><trkpt lat="44.430509394320126" lon="8.755726413658405"><ele>36.0</ele><time>2026-04-22T08:19:49.999Z</time></trkpt><trkpt lat="44.43061862028778" lon="8.755437192852188"><ele>41.0</ele><time>2026-04-22T08:19:50.999Z</time></trkpt><trkpt lat="44.43073898772366" lon="8.755155821634633"><ele>41.0</ele><time>2026-04-22T08:19:51.999Z</time></trkpt><trkpt lat="44.4308525084113" lon="8.754867883380832"><ele>41.0</ele><time>2026-04-22T08:19:52.999Z</time></trkpt><trkpt lat="44.430958352352974" lon="8.754577856561447"><ele>37.0</ele><time>2026-04-22T08:19:53.999Z</time></trkpt><trkpt lat="44.43106100313849" lon="8.754301524835753"><ele>33.0</ele><time>2026-04-22T08:19:54.999Z</time></trkpt><trkpt lat="44.43116924407995" lon="8.754023321675264"><ele>29.0</ele><time>2026-04-22T08:19:55.999Z</time></trkpt><trkpt lat="44.431275629451726" lon="8.753749100928848"><ele>36.666666666666664</ele><time>2026-04-22T08:19:56.999Z</time></trkpt><trkpt lat="44.431374846718214" lon="8.753482208912528"><ele>44.33333333333333</ele><time>2026-04-22T08:19:57.999Z</time></trkpt><trkpt lat="44.43147469956315" lon="8.753224598962497"><ele>52.0</ele><time>2026-04-22T08:19:58.999Z</time></trkpt><trkpt lat="44.43157852583802" lon="8.75296873237832"><ele>52.0</ele><time>2026-04-22T08:19:59.999Z</time></trkpt><trkpt lat="44.431692577791765" lon="8.752712570009553"><ele>52.0</ele><time>2026-04-22T08:20:00.999Z</time></trkpt><trkpt lat="44.43182348421194" lon="8.752460979887811"><ele>52.0</ele><time>2026-04-22T08:20:01.999Z</time></trkpt><trkpt lat="44.431965549187524" lon="8.752211044132578"><ele>52.0</ele><time>2026-04-22T08:20:02.999Z</time></trkpt><trkpt lat="44.432117452649" lon="8.751964383104086"><ele>52.0</ele><time>2026-04-22T08:20:03.999Z</time></trkpt><trkpt lat="44.43228201886369" lon="8.75172914120721"><ele>52.0</ele><time>2026-04-22T08:20:04.999Z</time></trkpt><trkpt lat="44.43244853104872" lon="8.751495055734818"><ele>52.0</ele><time>2026-04-22T08:20:05.999Z</time></trkpt><trkpt lat="44.43260357004579" lon="8.751260774263775"><ele>53.666666666666664</ele><time>2026-04-22T08:20:06.999Z</time></trkpt><trkpt lat="44.43275435078627" lon="8.751035877912813"><ele>55.33333333333333</ele><time>2026-04-22T08:20:07.999Z</time></trkpt><trkpt lat="44.432900885860974" lon="8.75080455878414"><ele>57.0</ele><time>2026-04-22T08:20:08.999Z</time></trkpt><trkpt lat="44.43303813141841" lon="8.750561060568382"><ele>57.0</ele><time>2026-04-22T08:20:09.999Z</time></trkpt><trkpt lat="44.4331688063404" lon="8.750310078441482"><ele>57.0</ele><time>2026-04-22T08:20:11Z</time></trkpt><trkpt lat="44.433287518519805" lon="8.75005897164399"><ele>57.0</ele><time>2026-04-22T08:20:12Z</time></trkpt><trkpt lat="44.43339971937182" lon="8.74980884787603"><ele>53.0</ele><time>2026-04-22T08:20:13Z</time></trkpt><trkpt lat="44.433500701972704" lon="8.74955426988847"><ele>49.0</ele><time>2026-04-22T08:20:14Z</time></trkpt><trkpt lat="44.43359394482338" lon="8.74929613753531"><ele>45.0</ele><time>2026-04-22T08:20:15Z</time></trkpt><trkpt lat="44.433676660690466" lon="8.74904068062615"><ele>45.0</ele><time>2026-04-22T08:20:16Z</time></trkpt><trkpt lat="44.43375317567957" lon="8.748781329027025"><ele>45.0</ele><time>2026-04-22T08:20:17Z</time></trkpt><trkpt lat="44.43382325155623" lon="8.748518321765433"><ele>45.0</ele><time>2026-04-22T08:20:18Z</time></trkpt><trkpt lat="44.433880881616204" lon="8.748256091862586"><ele>45.0</ele><time>2026-04-22T08:20:19Z</time></trkpt><trkpt lat="44.433931667458964" lon="8.747991130748904"><ele>45.0</ele><time>2026-04-22T08:20:20Z</time></trkpt><trkpt lat="44.43396991915674" lon="8.747725464086118"><ele>45.0</ele><time>2026-04-22T08:20:21Z</time></trkpt><trkpt lat="44.43400142873071" lon="8.74745170627658"><ele>36.333333333333336</ele><time>2026-04-22T08:20:22Z</time></trkpt><trkpt lat="44.4340488202713" lon="8.747180483956742"><ele>27.666666666666664</ele><time>2026-04-22T08:20:23Z</time></trkpt><trkpt lat="44.43407011295259" lon="8.746899502418431"><ele>19.0</ele><time>2026-04-22T08:20:24Z</time></trkpt><trkpt lat="44.434086611198694" lon="8.746617179986655"><ele>19.0</ele><time>2026-04-22T08:20:25Z</time></trkpt><trkpt lat="44.434091994738544" lon="8.746323284333965"><ele>19.0</ele><time>2026-04-22T08:20:26Z</time></trkpt><trkpt lat="44.43408625214032" lon="8.746022810247014"><ele>19.0</ele><time>2026-04-22T08:20:27Z</time></trkpt><trkpt lat="44.43407044498539" lon="8.745720988012161"><ele>27.666666666666664</ele><time>2026-04-22T08:20:28Z</time></trkpt><trkpt lat="44.434050403318075" lon="8.74541932664698"><ele>36.333333333333336</ele><time>2026-04-22T08:20:29Z</time></trkpt><trkpt lat="44.43401824758964" lon="8.745129633445513"><ele>45.0</ele><time>2026-04-22T08:20:30Z</time></trkpt><trkpt lat="44.43397730431395" lon="8.744850052934645"><ele>53.33333333333333</ele><time>2026-04-22T08:20:31Z</time></trkpt><trkpt lat="44.43393341905436" lon="8.744577356017194"><ele>61.666666666666664</ele><time>2026-04-22T08:20:32Z</time></trkpt><trkpt lat="44.43389828567055" lon="8.744284683988859"><ele>70.0</ele><time>2026-04-22T08:20:33Z</time></trkpt><trkpt lat="44.433859430489264" lon="8.74399606387676"><ele>77.5</ele><time>2026-04-22T08:20:34Z</time></trkpt><trkpt lat="44.43378730820643" lon="8.743712048795983"><ele>85.0</ele><time>2026-04-22T08:20:35Z</time></trkpt><trkpt lat="44.43178055757145" lon="8.741148549835723"><ele>72.0</ele><time>2026-04-22T08:20:48Z</time></trkpt><trkpt lat="44.431607395273616" lon="8.741011268980104"><ele>59.0</ele><time>2026-04-22T08:20:49Z</time></trkpt><trkpt lat="44.43137542183875" lon="8.741066963275028"><ele>46.0</ele><time>2026-04-22T08:20:50Z</time></trkpt><trkpt lat="44.43117619502613" lon="8.741071217852388"><ele>37.66666666666667</ele><time>2026-04-22T08:20:51Z</time></trkpt><trkpt lat="44.4309755665281" lon="8.741052145788764"><ele>29.333333333333336</ele><time>2026-04-22T08:20:52Z</time></trkpt><trkpt lat="44.43077263078861" lon="8.74099573094218"><ele>21.0</ele><time>2026-04-22T08:20:53Z</time></trkpt><trkpt lat="44.4305464361231" lon="8.740935548869036"><ele>24.5</ele><time>2026-04-22T08:20:54Z</time></trkpt><trkpt lat="44.43031198351588" lon="8.740864350931188"><ele>28.0</ele><time>2026-04-22T08:20:55Z</time></trkpt><trkpt lat="44.43008454175611" lon="8.740794089106464"><ele>28.0</ele><time>2026-04-22T08:20:56Z</time></trkpt><trkpt lat="44.42985623904269" lon="8.740729016407847"><ele>28.0</ele><time>2026-04-22T08:20:57Z</time></trkpt><trkpt lat="44.42962775186522" lon="8.74066903747124"><ele>35.0</ele><time>2026-04-22T08:20:58Z</time></trkpt><trkpt lat="44.42942489386334" lon="8.7406140480191"><ele>42.0</ele><time>2026-04-22T08:20:59Z</time></trkpt><trkpt lat="44.42921571754277" lon="8.740545509758789"><ele>49.0</ele><time>2026-04-22T08:21:00Z</time></trkpt><trkpt lat="44.42902393429717" lon="8.740475433043422"><ele>49.0</ele><time>2026-04-22T08:21:01Z</time></trkpt><trkpt lat="44.42881967321786" lon="8.740395685705431"><ele>49.0</ele><time>2026-04-22T08:21:02Z</time></trkpt><trkpt lat="44.428610674529395" lon="8.740298603470528"><ele>49.0</ele><time>2026-04-22T08:21:03Z</time></trkpt><trkpt lat="44.428393176417195" lon="8.74017901189815"><ele>54.5</ele><time>2026-04-22T08:21:04Z</time></trkpt><trkpt lat="44.42818542292822" lon="8.740062333982642"><ele>60.0</ele><time>2026-04-22T08:21:05Z</time></trkpt><trkpt lat="44.42603587169699" lon="8.73701835143474"><ele>61.0</ele><time>2026-04-22T08:21:18.999Z</time></trkpt><trkpt lat="44.425937807221466" lon="8.736730859036882"><ele>62.0</ele><time>2026-04-22T08:21:19.999Z</time></trkpt><trkpt lat="44.42589109512077" lon="8.736396910157096"><ele>62.0</ele><time>2026-04-22T08:21:20.999Z</time></trkpt><trkpt lat="44.42583551497757" lon="8.73607486377829"><ele>62.0</ele><time>2026-04-22T08:21:21.999Z</time></trkpt><trkpt lat="44.4257627444422" lon="8.73574938683693"><ele>76.0</ele><time>2026-04-22T08:21:22.999Z</time></trkpt><trkpt lat="44.425687318822774" lon="8.73543530232882"><ele>90.0</ele><time>2026-04-22T08:21:23.999Z</time></trkpt><trkpt lat="44.4240147149415" lon="8.731762079367599"><ele>113.0</ele><time>2026-04-22T08:21:32.776Z</time></trkpt><trkpt lat="44.4232814212191" lon="8.730833882603585"><ele>92.0</ele><time>2026-04-22T08:21:33.776Z</time></trkpt><trkpt lat="44.42254362502829" lon="8.729913423879008"><ele>77.0</ele><time>2026-04-22T08:21:34.776Z</time></trkpt><trkpt lat="44.421744410717466" lon="8.72871817576699"><ele>86.0</ele><time>2026-04-22T08:21:51.999Z</time></trkpt><trkpt lat="44.42157467202309" lon="8.728477935335478"><ele>95.0</ele><time>2026-04-22T08:21:52.999Z</time></trkpt><trkpt lat="44.42139159666809" lon="8.728245351246475"><ele>90.0</ele><time>2026-04-22T08:21:53.999Z</time></trkpt><trkpt lat="44.42125203911966" lon="8.727967664676903"><ele>85.0</ele><time>2026-04-22T08:21:54.999Z</time></trkpt><trkpt lat="44.421112819471624" lon="8.72769651919034"><ele>85.0</ele><time>2026-04-22T08:21:55.999Z</time></trkpt><trkpt lat="44.420976003740186" lon="8.727434276670012"><ele>85.0</ele><time>2026-04-22T08:21:56.999Z</time></trkpt><trkpt lat="44.42083899766958" lon="8.727180279922692"><ele>85.0</ele><time>2026-04-22T08:21:57.999Z</time></trkpt><trkpt lat="44.42070366751812" lon="8.726927446789192"><ele>85.0</ele><time>2026-04-22T08:21:58.999Z</time></trkpt><trkpt lat="44.420576362541475" lon="8.726679467463667"><ele>85.0</ele><time>2026-04-22T08:21:59.999Z</time></trkpt><trkpt lat="44.420457495398736" lon="8.726445451051049"><ele>84.0</ele><time>2026-04-22T08:22:00.999Z</time></trkpt><trkpt lat="44.42034880520623" lon="8.726204684582802"><ele>83.0</ele><time>2026-04-22T08:22:01.999Z</time></trkpt><trkpt lat="44.42025442843536" lon="8.725953525210233"><ele>82.0</ele><time>2026-04-22T08:22:02.999Z</time></trkpt><trkpt lat="44.42016757490336" lon="8.72569353581286"><ele>88.33333333333333</ele><time>2026-04-22T08:22:03.999Z</time></trkpt><trkpt lat="44.42009252354265" lon="8.725440419947507"><ele>94.66666666666666</ele><time>2026-04-22T08:22:04.999Z</time></trkpt><trkpt lat="44.42001929375766" lon="8.725186505655461"><ele>101.0</ele><time>2026-04-22T08:22:05.999Z</time></trkpt><trkpt lat="44.419947259486406" lon="8.724937493872785"><ele>107.0</ele><time>2026-04-22T08:22:06.999Z</time></trkpt><trkpt lat="44.41987597393602" lon="8.7246954629545"><ele>113.0</ele><time>2026-04-22T08:22:07.999Z</time></trkpt><trkpt lat="44.419837566998694" lon="8.724431496741014"><ele>119.0</ele><time>2026-04-22T08:22:08.999Z</time></trkpt><trkpt lat="44.419818678069895" lon="8.724158808508264"><ele>123.33333333333333</ele><time>2026-04-22T08:22:09.999Z</time></trkpt><trkpt lat="44.41980550504015" lon="8.723897978033854"><ele>127.66666666666666</ele><time>2026-04-22T08:22:10.999Z</time></trkpt><trkpt lat="44.419797830778066" lon="8.72362655406024"><ele>132.0</ele><time>2026-04-22T08:22:12.049Z</time></trkpt><trkpt lat="44.41980175155396" lon="8.723397356445664"><ele>134.0</ele><time>2026-04-22T08:22:13.049Z</time></trkpt><trkpt lat="44.4198155197148" lon="8.723192196149586"><ele>136.0</ele><time>2026-04-22T08:22:14.046Z</time></trkpt><trkpt lat="44.419833765660556" lon="8.723012456828364"><ele>138.0</ele><time>2026-04-22T08:22:15.026Z</time></trkpt><trkpt lat="44.4198554575767" lon="8.722801603324744"><ele>140.0</ele><time>2026-04-22T08:22:16.023Z</time></trkpt><trkpt lat="44.419880530008804" lon="8.722572759028385"><ele>161.0</ele><time>2026-04-22T08:22:17.02Z</time></trkpt><trkpt lat="44.42026477767869" lon="8.719796146459382"><ele>140.0</ele><time>2026-04-22T08:22:20.775Z</time></trkpt><trkpt lat="44.42042000260491" lon="8.718432093157142"><ele>122.0</ele><time>2026-04-22T08:22:21.775Z</time></trkpt><trkpt lat="44.42047635771356" lon="8.717056262346734"><ele>98.0</ele><time>2026-04-22T08:22:22.775Z</time></trkpt><trkpt lat="44.42037375573108" lon="8.716400292210698"><ele>98.0</ele><time>2026-04-22T08:22:34.999Z</time></trkpt><trkpt lat="44.4203430425082" lon="8.716093754221225"><ele>98.0</ele><time>2026-04-22T08:22:35.999Z</time></trkpt><trkpt lat="44.42035149768298" lon="8.715785643385168"><ele>98.0</ele><time>2026-04-22T08:22:36.999Z</time></trkpt><trkpt lat="44.42029705347123" lon="8.715502206415659"><ele>96.66666666666666</ele><time>2026-04-22T08:22:37.999Z</time></trkpt><trkpt lat="44.42022717123675" lon="8.71526129632059"><ele>95.33333333333333</ele><time>2026-04-22T08:22:38.999Z</time></trkpt><trkpt lat="44.42016011676868" lon="8.71499965855791"><ele>94.0</ele><time>2026-04-22T08:22:40Z</time></trkpt><trkpt lat="44.4200678304576" lon="8.714745815275332"><ele>94.0</ele><time>2026-04-22T08:22:41Z</time></trkpt><trkpt lat="44.41996388633693" lon="8.714472718583297"><ele>94.0</ele><time>2026-04-22T08:22:42Z</time></trkpt><trkpt lat="44.41985410017232" lon="8.71420770960038"><ele>94.0</ele><time>2026-04-22T08:22:43Z</time></trkpt><trkpt lat="44.41973602853721" lon="8.713934002603358"><ele>86.5</ele><time>2026-04-22T08:22:44Z</time></trkpt><trkpt lat="44.41960324782155" lon="8.713662454960446"><ele>79.0</ele><time>2026-04-22T08:22:45Z</time></trkpt><trkpt lat="44.419451310232105" lon="8.713398401961216"><ele>79.0</ele><time>2026-04-22T08:22:46Z</time></trkpt><trkpt lat="44.419302764913574" lon="8.713132310734647"><ele>79.0</ele><time>2026-04-22T08:22:47Z</time></trkpt><trkpt lat="44.41915583923022" lon="8.71286116863482"><ele>86.5</ele><time>2026-04-22T08:22:48Z</time></trkpt><trkpt lat="44.419000494112055" lon="8.712572954006138"><ele>94.0</ele><time>2026-04-22T08:22:49Z</time></trkpt><trkpt lat="44.418849768121675" lon="8.712276310675874"><ele>89.5</ele><time>2026-04-22T08:22:50Z</time></trkpt><trkpt lat="44.4186930737998" lon="8.711964595385767"><ele>85.0</ele><time>2026-04-22T08:22:51Z</time></trkpt><trkpt lat="44.4185478750097" lon="8.711661331859249"><ele>95.0</ele><time>2026-04-22T08:22:52Z</time></trkpt><trkpt lat="44.41840270304681" lon="8.71135708062066"><ele>105.0</ele><time>2026-04-22T08:22:53Z</time></trkpt><trkpt lat="44.4182522046667" lon="8.711054588503519"><ele>108.0</ele><time>2026-04-22T08:22:54Z</time></trkpt><trkpt lat="44.418110545761806" lon="8.710751209748581"><ele>111.0</ele><time>2026-04-22T08:22:55Z</time></trkpt><trkpt lat="44.4179674361297" lon="8.710445364856483"><ele>109.0</ele><time>2026-04-22T08:22:56Z</time></trkpt><trkpt lat="44.417830635076896" lon="8.710129727217714"><ele>107.0</ele><time>2026-04-22T08:22:57Z</time></trkpt><trkpt lat="44.41769400419887" lon="8.70980754218042"><ele>107.0</ele><time>2026-04-22T08:22:58Z</time></trkpt><trkpt lat="44.41755984432003" lon="8.709490814882194"><ele>107.0</ele><time>2026-04-22T08:22:59Z</time></trkpt><trkpt lat="44.41741588988956" lon="8.709187131883262"><ele>107.5</ele><time>2026-04-22T08:23:00Z</time></trkpt><trkpt lat="44.41727724717535" lon="8.708888945098778"><ele>108.0</ele><time>2026-04-22T08:23:01Z</time></trkpt><trkpt lat="44.41714165567266" lon="8.708587061284703"><ele>103.0</ele><time>2026-04-22T08:23:02Z</time></trkpt><trkpt lat="44.41701233668603" lon="8.70829539726578"><ele>98.0</ele><time>2026-04-22T08:23:03Z</time></trkpt><trkpt lat="44.416893013498296" lon="8.70800865133212"><ele>103.0</ele><time>2026-04-22T08:23:04Z</time></trkpt><trkpt lat="44.41677496063925" lon="8.707723244421052"><ele>108.0</ele><time>2026-04-22T08:23:05Z</time></trkpt><trkpt lat="44.41666663070484" lon="8.707430020772287"><ele>108.0</ele><time>2026-04-22T08:23:06Z</time></trkpt><trkpt lat="44.4165670753137" lon="8.70712990089071"><ele>108.0</ele><time>2026-04-22T08:23:07Z</time></trkpt><trkpt lat="44.41647558137736" lon="8.706821435881682"><ele>110.5</ele><time>2026-04-22T08:23:08Z</time></trkpt><trkpt lat="44.416392624668916" lon="8.706505080153338"><ele>113.0</ele><time>2026-04-22T08:23:09Z</time></trkpt><trkpt lat="44.4163146097357" lon="8.70618720330007"><ele>92.5</ele><time>2026-04-22T08:23:10Z</time></trkpt><trkpt lat="44.41624530927183" lon="8.70585893223871"><ele>72.0</ele><time>2026-04-22T08:23:11Z</time></trkpt><trkpt lat="44.41618621160565" lon="8.705526095365403"><ele>63.5</ele><time>2026-04-22T08:23:12Z</time></trkpt><trkpt lat="44.41613493174734" lon="8.705187141856406"><ele>55.0</ele><time>2026-04-22T08:23:13Z</time></trkpt><trkpt lat="44.41609414314898" lon="8.704848991747676"><ele>55.0</ele><time>2026-04-22T08:23:14Z</time></trkpt><trkpt lat="44.4160634943994" lon="8.70450772646562"><ele>55.0</ele><time>2026-04-22T08:23:15Z</time></trkpt><trkpt lat="44.41602926171324" lon="8.704171603036274"><ele>63.5</ele><time>2026-04-22T08:23:16Z</time></trkpt><trkpt lat="44.41600061812776" lon="8.703845126891643"><ele>72.0</ele><time>2026-04-22T08:23:17Z</time></trkpt><trkpt lat="44.415972893944264" lon="8.703539165177595"><ele>81.66666666666666</ele><time>2026-04-22T08:23:18Z</time></trkpt><trkpt lat="44.41594480984554" lon="8.70324693389253"><ele>91.33333333333333</ele><time>2026-04-22T08:23:19Z</time></trkpt><trkpt lat="44.415913775328654" lon="8.702967884170693"><ele>101.0</ele><time>2026-04-22T08:23:20Z</time></trkpt><trkpt lat="44.41587814133135" lon="8.702676710607516"><ele>107.66666666666666</ele><time>2026-04-22T08:23:21Z</time></trkpt><trkpt lat="44.41584196137497" lon="8.70236602892217"><ele>114.33333333333334</ele><time>2026-04-22T08:23:22Z</time></trkpt><trkpt lat="44.415778155452685" lon="8.702070304592802"><ele>121.0</ele><time>2026-04-22T08:23:23Z</time></trkpt><trkpt lat="44.415688296618356" lon="8.701791337368055"><ele>125.66666666666667</ele><time>2026-04-22T08:23:24Z</time></trkpt><trkpt lat="44.41559109754279" lon="8.701526277492022"><ele>130.33333333333334</ele><time>2026-04-22T08:23:25Z</time></trkpt><trkpt lat="44.41549892815251" lon="8.701285720360005"><ele>135.0</ele><time>2026-04-22T08:23:26Z</time></trkpt><trkpt lat="44.41540361950362" lon="8.701058788138853"><ele>142.0</ele><time>2026-04-22T08:23:27.063Z</time></trkpt><trkpt lat="44.415302134278946" lon="8.700832569171135"><ele>149.0</ele><time>2026-04-22T08:23:28.057Z</time></trkpt><trkpt lat="44.41401518233882" lon="8.699355765014023"><ele>128.0</ele><time>2026-04-22T08:23:35Z</time></trkpt><trkpt lat="44.41381141908316" lon="8.69917613344189"><ele>107.0</ele><time>2026-04-22T08:23:36Z</time></trkpt><trkpt lat="44.41359115560218" lon="8.699009029906595"><ele>107.0</ele><time>2026-04-22T08:23:37Z</time></trkpt><trkpt lat="44.41339201268565" lon="8.698849441573156"><ele>107.0</ele><time>2026-04-22T08:23:37.999Z</time></trkpt><trkpt lat="44.41263933843233" lon="8.698238805785111"><ele>106.5</ele><time>2026-04-22T08:23:41.999Z</time></trkpt><trkpt lat="44.4124736926185" lon="8.69800293417354"><ele>106.0</ele><time>2026-04-22T08:23:42.999Z</time></trkpt><trkpt lat="44.412371170859046" lon="8.697697961897662"><ele>106.0</ele><time>2026-04-22T08:23:43.999Z</time></trkpt><trkpt lat="44.41224068661709" lon="8.697406974045286"><ele>106.0</ele><time>2026-04-22T08:23:44.999Z</time></trkpt><trkpt lat="44.41210362363705" lon="8.697149169225861"><ele>97.5</ele><time>2026-04-22T08:23:45.999Z</time></trkpt><trkpt lat="44.411977977556305" lon="8.696868539443303"><ele>89.0</ele><time>2026-04-22T08:23:46.999Z</time></trkpt><trkpt lat="44.411861449850385" lon="8.696584267144027"><ele>89.0</ele><time>2026-04-22T08:23:47.999Z</time></trkpt><trkpt lat="44.411754256951596" lon="8.696288815842903"><ele>89.0</ele><time>2026-04-22T08:23:48.999Z</time></trkpt><trkpt lat="44.41165412362058" lon="8.695984140572891"><ele>94.0</ele><time>2026-04-22T08:23:49.999Z</time></trkpt><trkpt lat="44.41156533941828" lon="8.695666559855749"><ele>99.0</ele><time>2026-04-22T08:23:50.999Z</time></trkpt><trkpt lat="44.41148208903842" lon="8.69534358856478"><ele>102.5</ele><time>2026-04-22T08:23:51.999Z</time></trkpt><trkpt lat="44.41139948257253" lon="8.695015426140142"><ele>106.0</ele><time>2026-04-22T08:23:52.999Z</time></trkpt><trkpt lat="44.41131669184763" lon="8.694685415611156"><ele>97.5</ele><time>2026-04-22T08:23:53.999Z</time></trkpt><trkpt lat="44.411232486890555" lon="8.694348489930478"><ele>89.0</ele><time>2026-04-22T08:23:54.999Z</time></trkpt><trkpt lat="44.41114961671942" lon="8.694002399235305"><ele>89.0</ele><time>2026-04-22T08:23:55.999Z</time></trkpt><trkpt lat="44.41106658183056" lon="8.693658544087965"><ele>89.0</ele><time>2026-04-22T08:23:56.999Z</time></trkpt><trkpt lat="44.41098178553844" lon="8.693304573183925"><ele>94.5</ele><time>2026-04-22T08:23:57.999Z</time></trkpt><trkpt lat="44.410907577612925" lon="8.69295881048918"><ele>100.0</ele><time>2026-04-22T08:23:58.999Z</time></trkpt><trkpt lat="44.41084018374659" lon="8.692612290327855"><ele>99.0</ele><time>2026-04-22T08:23:59.999Z</time></trkpt><trkpt lat="44.41077569357489" lon="8.692259551413274"><ele>98.0</ele><time>2026-04-22T08:24:00.999Z</time></trkpt><trkpt lat="44.41070907572533" lon="8.691894065054626"><ele>98.0</ele><time>2026-04-22T08:24:01.999Z</time></trkpt><trkpt lat="44.410634059503295" lon="8.69154099156336"><ele>98.0</ele><time>2026-04-22T08:24:02.999Z</time></trkpt><trkpt lat="44.41053918059487" lon="8.69118748182924"><ele>85.5</ele><time>2026-04-22T08:24:03.999Z</time></trkpt><trkpt lat="44.41042474372907" lon="8.69080602020606"><ele>73.0</ele><time>2026-04-22T08:24:04.999Z</time></trkpt><trkpt lat="44.41033803682866" lon="8.690389585489376"><ele>73.5</ele><time>2026-04-22T08:24:05.999Z</time></trkpt><trkpt lat="44.41025109328963" lon="8.690008744614675"><ele>74.0</ele><time>2026-04-22T08:24:06.999Z</time></trkpt><trkpt lat="44.410163754709835" lon="8.68962479352407"><ele>75.5</ele><time>2026-04-22T08:24:07.999Z</time></trkpt><trkpt lat="44.410083331473615" lon="8.689247215082679"><ele>77.0</ele><time>2026-04-22T08:24:08.999Z</time></trkpt><trkpt lat="44.410000988641144" lon="8.68886482189009"><ele>81.5</ele><time>2026-04-22T08:24:09.999Z</time></trkpt><trkpt lat="44.40991938419436" lon="8.688493626842936"><ele>86.0</ele><time>2026-04-22T08:24:10.999Z</time></trkpt><trkpt lat="44.40983854035905" lon="8.688120771645918"><ele>90.0</ele><time>2026-04-22T08:24:11.999Z</time></trkpt><trkpt lat="44.409755878179126" lon="8.68774501587461"><ele>94.0</ele><time>2026-04-22T08:24:12.999Z</time></trkpt><trkpt lat="44.4096776150731" lon="8.687370906468095"><ele>84.5</ele><time>2026-04-22T08:24:13.999Z</time></trkpt><trkpt lat="44.409597767304014" lon="8.686996551308418"><ele>75.0</ele><time>2026-04-22T08:24:14.999Z</time></trkpt><trkpt lat="44.40951702241461" lon="8.686622864307568"><ele>75.0</ele><time>2026-04-22T08:24:15.999Z</time></trkpt><trkpt lat="44.409436172605545" lon="8.686247763244083"><ele>75.0</ele><time>2026-04-22T08:24:16.999Z</time></trkpt><trkpt lat="44.409356956038316" lon="8.68586683851465"><ele>78.5</ele><time>2026-04-22T08:24:17.999Z</time></trkpt><trkpt lat="44.40927779680684" lon="8.68549675192836"><ele>82.0</ele><time>2026-04-22T08:24:18.999Z</time></trkpt><trkpt lat="44.40919774762536" lon="8.685117663669525"><ele>74.0</ele><time>2026-04-22T08:24:19.999Z</time></trkpt><trkpt lat="44.409118801580725" lon="8.684737951036762"><ele>66.0</ele><time>2026-04-22T08:24:20.999Z</time></trkpt><trkpt lat="44.40903930227064" lon="8.684369176319015"><ele>52.5</ele><time>2026-04-22T08:24:21.999Z</time></trkpt><trkpt lat="44.408961839439094" lon="8.683994436750442"><ele>39.0</ele><time>2026-04-22T08:24:22.999Z</time></trkpt><trkpt lat="44.408884002881784" lon="8.683632499286231"><ele>45.0</ele><time>2026-04-22T08:24:23.999Z</time></trkpt><trkpt lat="44.408809304319604" lon="8.683276300181133"><ele>51.0</ele><time>2026-04-22T08:24:24.999Z</time></trkpt><trkpt lat="44.40873508731423" lon="8.682923180888801"><ele>57.0</ele><time>2026-04-22T08:24:25.999Z</time></trkpt><trkpt lat="44.408662321141016" lon="8.682572268373498"><ele>63.0</ele><time>2026-04-22T08:24:26.999Z</time></trkpt><trkpt lat="44.40858900104206" lon="8.682228078831153"><ele>68.5</ele><time>2026-04-22T08:24:27.999Z</time></trkpt><trkpt lat="44.40851650524812" lon="8.681891139704817"><ele>74.0</ele><time>2026-04-22T08:24:28.999Z</time></trkpt><trkpt lat="44.40844455914174" lon="8.681549423760007"><ele>74.0</ele><time>2026-04-22T08:24:29.999Z</time></trkpt><trkpt lat="44.40836934993152" lon="8.681217940255982"><ele>74.0</ele><time>2026-04-22T08:24:30.999Z</time></trkpt><trkpt lat="44.408289030371904" lon="8.68089655329725"><ele>78.0</ele><time>2026-04-22T08:24:31.999Z</time></trkpt><trkpt lat="44.40820103192095" lon="8.68056112820527"><ele>82.0</ele><time>2026-04-22T08:24:32.999Z</time></trkpt><trkpt lat="44.40810127170374" lon="8.680233072123071"><ele>83.0</ele><time>2026-04-22T08:24:33.999Z</time></trkpt><trkpt lat="44.407990185639086" lon="8.679903687860843"><ele>84.0</ele><time>2026-04-22T08:24:34.999Z</time></trkpt><trkpt lat="44.40787939137645" lon="8.679577667913678"><ele>85.5</ele><time>2026-04-22T08:24:35.999Z</time></trkpt><trkpt lat="44.407769754979036" lon="8.679248683006916"><ele>87.0</ele><time>2026-04-22T08:24:36.999Z</time></trkpt><trkpt lat="44.407651719734254" lon="8.678895642262258"><ele>79.0</ele><time>2026-04-22T08:24:38.067Z</time></trkpt><trkpt lat="44.407542966192075" lon="8.678582845700793"><ele>71.0</ele><time>2026-04-22T08:24:39.057Z</time></trkpt><trkpt lat="44.4071364432985" lon="8.678047795934088"><ele>63.5</ele><time>2026-04-22T08:24:40.999Z</time></trkpt><trkpt lat="44.40694475215811" lon="8.677723158546595"><ele>56.0</ele><time>2026-04-22T08:24:41.999Z</time></trkpt><trkpt lat="44.406789285176096" lon="8.677405777459946"><ele>56.0</ele><time>2026-04-22T08:24:42.999Z</time></trkpt><trkpt lat="44.40663744242783" lon="8.677089879944544"><ele>56.0</ele><time>2026-04-22T08:24:43.999Z</time></trkpt><trkpt lat="44.406490169360914" lon="8.67676552317994"><ele>53.0</ele><time>2026-04-22T08:24:44.999Z</time></trkpt><trkpt lat="44.406333226522605" lon="8.676443527260846"><ele>50.0</ele><time>2026-04-22T08:24:45.999Z</time></trkpt><trkpt lat="44.4061705673599" lon="8.676118203637758"><ele>56.0</ele><time>2026-04-22T08:24:47Z</time></trkpt><trkpt lat="44.40601360685212" lon="8.675809059427438"><ele>62.0</ele><time>2026-04-22T08:24:48Z</time></trkpt><trkpt lat="44.40585839516566" lon="8.67549190066032"><ele>65.5</ele><time>2026-04-22T08:24:49Z</time></trkpt><trkpt lat="44.4057071600863" lon="8.675178754304428"><ele>69.0</ele><time>2026-04-22T08:24:50Z</time></trkpt><trkpt lat="44.40555770303802" lon="8.674868750404807"><ele>60.5</ele><time>2026-04-22T08:24:51Z</time></trkpt><trkpt lat="44.405407140917525" lon="8.674555999276167"><ele>52.0</ele><time>2026-04-22T08:24:52Z</time></trkpt><trkpt lat="44.405258538888695" lon="8.674242197810742"><ele>52.0</ele><time>2026-04-22T08:24:53Z</time></trkpt><trkpt lat="44.40511541917612" lon="8.673929737701371"><ele>52.0</ele><time>2026-04-22T08:24:54Z</time></trkpt><trkpt lat="44.40497692534988" lon="8.67361111280024"><ele>55.0</ele><time>2026-04-22T08:24:55Z</time></trkpt><trkpt lat="44.40484686753829" lon="8.673290931813666"><ele>58.0</ele><time>2026-04-22T08:24:56Z</time></trkpt><trkpt lat="44.40471865941715" lon="8.67297090855875"><ele>55.5</ele><time>2026-04-22T08:24:57Z</time></trkpt><trkpt lat="44.40459133224267" lon="8.672651137155947"><ele>53.0</ele><time>2026-04-22T08:24:58Z</time></trkpt><trkpt lat="44.40446560807239" lon="8.67232865284594"><ele>53.0</ele><time>2026-04-22T08:24:59Z</time></trkpt><trkpt lat="44.40434284298352" lon="8.672007870176344"><ele>53.0</ele><time>2026-04-22T08:25:00Z</time></trkpt><trkpt lat="44.40422198392586" lon="8.671680697229771"><ele>52.0</ele><time>2026-04-22T08:25:01Z</time></trkpt><trkpt lat="44.40410129792216" lon="8.671354278122836"><ele>51.0</ele><time>2026-04-22T08:25:02Z</time></trkpt><trkpt lat="44.40398346375423" lon="8.671034873817835"><ele>52.5</ele><time>2026-04-22T08:25:03Z</time></trkpt><trkpt lat="44.4038653573309" lon="8.670732586399879"><ele>54.0</ele><time>2026-04-22T08:25:04Z</time></trkpt><trkpt lat="44.403741380315125" lon="8.670426317946744"><ele>57.5</ele><time>2026-04-22T08:25:05Z</time></trkpt><trkpt lat="44.403612205222686" lon="8.67013456532025"><ele>61.0</ele><time>2026-04-22T08:25:06Z</time></trkpt><trkpt lat="44.40347976904661" lon="8.669842660698123"><ele>61.0</ele><time>2026-04-22T08:25:07Z</time></trkpt><trkpt lat="44.403343850583845" lon="8.669557401700231"><ele>61.0</ele><time>2026-04-22T08:25:08Z</time></trkpt><trkpt lat="44.403207394195185" lon="8.669284969549295"><ele>63.0</ele><time>2026-04-22T08:25:09Z</time></trkpt><trkpt lat="44.403081301074174" lon="8.669014868203123"><ele>65.0</ele><time>2026-04-22T08:25:10Z</time></trkpt><trkpt lat="44.40287665446677" lon="8.668723833354067"><ele>62.5</ele><time>2026-04-22T08:25:11Z</time></trkpt><trkpt lat="44.4027000857946" lon="8.66847349175145"><ele>60.0</ele><time>2026-04-22T08:25:12Z</time></trkpt><trkpt lat="44.40250614312437" lon="8.668262604237242"><ele>60.0</ele><time>2026-04-22T08:25:13Z</time></trkpt><trkpt lat="44.40232499853216" lon="8.667986122570785"><ele>60.0</ele><time>2026-04-22T08:25:14Z</time></trkpt><trkpt lat="44.402149018397154" lon="8.667744606141353"><ele>60.5</ele><time>2026-04-22T08:25:15Z</time></trkpt><trkpt lat="44.40198702631136" lon="8.667518542070013"><ele>61.0</ele><time>2026-04-22T08:25:16Z</time></trkpt><trkpt lat="44.40182275801876" lon="8.667301192357092"><ele>61.0</ele><time>2026-04-22T08:25:17Z</time></trkpt><trkpt lat="44.401660088001094" lon="8.667089950238893"><ele>61.0</ele><time>2026-04-22T08:25:18Z</time></trkpt><trkpt lat="44.401497188286314" lon="8.666880303104858"><ele>61.0</ele><time>2026-04-22T08:25:19Z</time></trkpt><trkpt lat="44.40132664506653" lon="8.666656411730287"><ele>60.0</ele><time>2026-04-22T08:25:20Z</time></trkpt><trkpt lat="44.40115870976726" lon="8.666420709938885"><ele>59.0</ele><time>2026-04-22T08:25:21Z</time></trkpt><trkpt lat="44.40098898513418" lon="8.666182327004206"><ele>60.5</ele><time>2026-04-22T08:25:22Z</time></trkpt><trkpt lat="44.40082059066992" lon="8.665931767592413"><ele>62.0</ele><time>2026-04-22T08:25:23Z</time></trkpt><trkpt lat="44.40065547069932" lon="8.665680172365946"><ele>62.5</ele><time>2026-04-22T08:25:24Z</time></trkpt><trkpt lat="44.40049137532415" lon="8.665422871458913"><ele>63.0</ele><time>2026-04-22T08:25:25Z</time></trkpt><trkpt lat="44.400330279916275" lon="8.665165127675106"><ele>64.0</ele><time>2026-04-22T08:25:26Z</time></trkpt><trkpt lat="44.40017530556809" lon="8.664904550761234"><ele>65.0</ele><time>2026-04-22T08:25:27Z</time></trkpt><trkpt lat="44.40001973816754" lon="8.664640964051793"><ele>72.5</ele><time>2026-04-22T08:25:28Z</time></trkpt><trkpt lat="44.399868756298396" lon="8.664382453266242"><ele>80.0</ele><time>2026-04-22T08:25:29Z</time></trkpt><trkpt lat="44.39972333133507" lon="8.664122425645562"><ele>81.5</ele><time>2026-04-22T08:25:30Z</time></trkpt><trkpt lat="44.39958500699251" lon="8.663860289582319"><ele>83.0</ele><time>2026-04-22T08:25:31Z</time></trkpt><trkpt lat="44.39945260578066" lon="8.663599505139958"><ele>86.33333333333334</ele><time>2026-04-22T08:25:32Z</time></trkpt><trkpt lat="44.39932765903386" lon="8.663344646494158"><ele>89.66666666666667</ele><time>2026-04-22T08:25:33Z</time></trkpt><trkpt lat="44.39921079304942" lon="8.663096203560128"><ele>93.0</ele><time>2026-04-22T08:25:34Z</time></trkpt><trkpt lat="44.399100242192674" lon="8.662850877090946"><ele>91.66666666666667</ele><time>2026-04-22T08:25:35Z</time></trkpt><trkpt lat="44.398989709467045" lon="8.662597783318486"><ele>90.33333333333334</ele><time>2026-04-22T08:25:36.068Z</time></trkpt><trkpt lat="44.398879002592246" lon="8.662378255546397"><ele>89.0</ele><time>2026-04-22T08:25:37.056Z</time></trkpt><trkpt lat="44.39864278807532" lon="8.661880382705908"><ele>70.0</ele><time>2026-04-22T08:25:39Z</time></trkpt><trkpt lat="44.398552555247136" lon="8.661641530792407"><ele>51.0</ele><time>2026-04-22T08:25:40Z</time></trkpt><trkpt lat="44.39819926040583" lon="8.661005419151309"><ele>42.0</ele><time>2026-04-22T08:25:41Z</time></trkpt><trkpt lat="44.398079496693235" lon="8.660682128596052"><ele>33.0</ele><time>2026-04-22T08:25:42Z</time></trkpt><trkpt lat="44.397956791186495" lon="8.660367672265759"><ele>24.5</ele><time>2026-04-22T08:25:43Z</time></trkpt><trkpt lat="44.39783994426223" lon="8.660053501808154"><ele>16.0</ele><time>2026-04-22T08:25:44Z</time></trkpt><trkpt lat="44.397729462064284" lon="8.659737962485512"><ele>22.0</ele><time>2026-04-22T08:25:45Z</time></trkpt><trkpt lat="44.39761874434434" lon="8.659424194150835"><ele>28.0</ele><time>2026-04-22T08:25:46Z</time></trkpt><trkpt lat="44.39751204607381" lon="8.659118385041973"><ele>28.0</ele><time>2026-04-22T08:25:46.999Z</time></trkpt><trkpt lat="44.39740135763649" lon="8.658810203425602"><ele>28.0</ele><time>2026-04-22T08:25:47.999Z</time></trkpt><trkpt lat="44.3972931123409" lon="8.658498079240662"><ele>49.5</ele><time>2026-04-22T08:25:48.999Z</time></trkpt><trkpt lat="44.39718979016124" lon="8.658189513501144"><ele>71.0</ele><time>2026-04-22T08:25:49.999Z</time></trkpt><trkpt lat="44.39707291076565" lon="8.65789378928357"><ele>90.0</ele><time>2026-04-22T08:25:50.999Z</time></trkpt><trkpt lat="44.396942362158086" lon="8.65759053958864"><ele>109.0</ele><time>2026-04-22T08:25:51.999Z</time></trkpt><trkpt lat="44.39680596935645" lon="8.65728900187645"><ele>109.0</ele><time>2026-04-22T08:25:52.999Z</time></trkpt><trkpt lat="44.39669012857845" lon="8.656977022775346"><ele>109.0</ele><time>2026-04-22T08:25:53.999Z</time></trkpt><trkpt lat="44.39657898038426" lon="8.656661703831023"><ele>101.0</ele><time>2026-04-22T08:25:54.999Z</time></trkpt><trkpt lat="44.396235632288096" lon="8.65569882998889"><ele>112.0</ele><time>2026-04-22T08:25:58.044Z</time></trkpt><trkpt lat="44.3953913760819" lon="8.653131822613911"><ele>99.0</ele><time>2026-04-22T08:26:01.772Z</time></trkpt><trkpt lat="44.39495441422367" lon="8.651893129986606"><ele>108.0</ele><time>2026-04-22T08:26:02.772Z</time></trkpt><trkpt lat="44.39418806700124" lon="8.649353123200715"><ele>108.0</ele><time>2026-04-22T08:26:04.772Z</time></trkpt><trkpt lat="44.39402900547951" lon="8.647992264065063"><ele>79.0</ele><time>2026-04-22T08:26:05.772Z</time></trkpt><trkpt lat="44.39453896435435" lon="8.650677157869179"><ele>79.0</ele><time>2026-04-22T08:26:13.999Z</time></trkpt><trkpt lat="44.394456066772996" lon="8.650378751788969"><ele>79.0</ele><time>2026-04-22T08:26:14.999Z</time></trkpt><trkpt lat="44.39438457501269" lon="8.65009577126027"><ele>79.0</ele><time>2026-04-22T08:26:15.999Z</time></trkpt><trkpt lat="44.394315420379364" lon="8.649816647108471"><ele>84.33333333333333</ele><time>2026-04-22T08:26:16.999Z</time></trkpt><trkpt lat="44.3942506919847" lon="8.649523433776185"><ele>89.66666666666667</ele><time>2026-04-22T08:26:17.999Z</time></trkpt><trkpt lat="44.394187391759885" lon="8.649228043046612"><ele>95.0</ele><time>2026-04-22T08:26:18.999Z</time></trkpt><trkpt lat="44.394122427457674" lon="8.648922550054301"><ele>99.33333333333334</ele><time>2026-04-22T08:26:19.999Z</time></trkpt><trkpt lat="44.39406443562765" lon="8.648630614103832"><ele>103.66666666666667</ele><time>2026-04-22T08:26:20.999Z</time></trkpt><trkpt lat="44.39400382083219" lon="8.648347122337759"><ele>108.0</ele><time>2026-04-22T08:26:21.999Z</time></trkpt><trkpt lat="44.393965743901376" lon="8.64804773435661"><ele>106.33333333333334</ele><time>2026-04-22T08:26:22.999Z</time></trkpt><trkpt lat="44.39395348389567" lon="8.647747071000758"><ele>104.66666666666667</ele><time>2026-04-22T08:26:23.999Z</time></trkpt><trkpt lat="44.39394862679068" lon="8.647431758020142"><ele>103.0</ele><time>2026-04-22T08:26:24.999Z</time></trkpt><trkpt lat="44.39392925727568" lon="8.646924952388616"><ele>102.0</ele><time>2026-04-22T08:26:25.999Z</time></trkpt><trkpt lat="44.39397121857345" lon="8.646583479515646"><ele>101.0</ele><time>2026-04-22T08:26:26.999Z</time></trkpt><trkpt lat="44.3939931271508" lon="8.646200214396293"><ele>95.5</ele><time>2026-04-22T08:26:27.999Z</time></trkpt><trkpt lat="44.39399464387136" lon="8.645834125970884"><ele>90.0</ele><time>2026-04-22T08:26:28.999Z</time></trkpt><trkpt lat="44.39399669484049" lon="8.645468786233725"><ele>82.0</ele><time>2026-04-22T08:26:29.999Z</time></trkpt><trkpt lat="44.39399048531648" lon="8.645103195148588"><ele>74.0</ele><time>2026-04-22T08:26:30.999Z</time></trkpt><trkpt lat="44.3939874711186" lon="8.64474785207859"><ele>77.0</ele><time>2026-04-22T08:26:31.999Z</time></trkpt><trkpt lat="44.393979453999066" lon="8.644392391855526"><ele>80.0</ele><time>2026-04-22T08:26:32.999Z</time></trkpt><trkpt lat="44.39397395734025" lon="8.644039944249059"><ele>80.0</ele><time>2026-04-22T08:26:33.999Z</time></trkpt><trkpt lat="44.39396897491885" lon="8.643707093609923"><ele>80.0</ele><time>2026-04-22T08:26:34.999Z</time></trkpt><trkpt lat="44.39396261212591" lon="8.64338551180479"><ele>89.5</ele><time>2026-04-22T08:26:35.999Z</time></trkpt><trkpt lat="44.39394572067537" lon="8.64306665100599"><ele>99.0</ele><time>2026-04-22T08:26:36.999Z</time></trkpt><trkpt lat="44.393921978793685" lon="8.642750165519146"><ele>101.0</ele><time>2026-04-22T08:26:37.999Z</time></trkpt><trkpt lat="44.39388542416721" lon="8.64242594968835"><ele>103.0</ele><time>2026-04-22T08:26:38.999Z</time></trkpt><trkpt lat="44.39384153114944" lon="8.64209412063981"><ele>88.0</ele><time>2026-04-22T08:26:39.999Z</time></trkpt><trkpt lat="44.39378118791906" lon="8.641775962193906"><ele>73.0</ele><time>2026-04-22T08:26:40.999Z</time></trkpt><trkpt lat="44.3937111468719" lon="8.641431163510847"><ele>83.5</ele><time>2026-04-22T08:26:41.999Z</time></trkpt><trkpt lat="44.3936377103567" lon="8.641089166851325"><ele>94.0</ele><time>2026-04-22T08:26:42.999Z</time></trkpt><trkpt lat="44.39356067052882" lon="8.640741162928839"><ele>94.0</ele><time>2026-04-22T08:26:43.999Z</time></trkpt><trkpt lat="44.39348349887671" lon="8.6404049714103"><ele>94.0</ele><time>2026-04-22T08:26:44.999Z</time></trkpt><trkpt lat="44.3934045592789" lon="8.640037265452722"><ele>90.5</ele><time>2026-04-22T08:26:45.999Z</time></trkpt><trkpt lat="44.39333251304121" lon="8.639681827815897"><ele>87.0</ele><time>2026-04-22T08:26:46.999Z</time></trkpt><trkpt lat="44.39326413524376" lon="8.639336964874278"><ele>87.0</ele><time>2026-04-22T08:26:47.999Z</time></trkpt><trkpt lat="44.39319564321145" lon="8.639043348102541"><ele>87.0</ele><time>2026-04-22T08:26:48.999Z</time></trkpt><trkpt lat="44.393114868339495" lon="8.638717952619098"><ele>84.0</ele><time>2026-04-22T08:26:49.999Z</time></trkpt><trkpt lat="44.39303614441322" lon="8.638377303581837"><ele>81.0</ele><time>2026-04-22T08:26:50.999Z</time></trkpt><trkpt lat="44.39296294933641" lon="8.638055564808939"><ele>87.0</ele><time>2026-04-22T08:26:51.999Z</time></trkpt><trkpt lat="44.39289259418889" lon="8.637731630382712"><ele>93.0</ele><time>2026-04-22T08:26:53Z</time></trkpt><trkpt lat="44.3928246354592" lon="8.637408254787855"><ele>93.0</ele><time>2026-04-22T08:26:54Z</time></trkpt><trkpt lat="44.39275242985272" lon="8.637086523251819"><ele>93.0</ele><time>2026-04-22T08:26:55Z</time></trkpt><trkpt lat="44.39267738590916" lon="8.63676561350424"><ele>111.5</ele><time>2026-04-22T08:26:56Z</time></trkpt><trkpt lat="44.392599004051334" lon="8.636439275037114"><ele>130.0</ele><time>2026-04-22T08:26:57Z</time></trkpt><trkpt lat="44.39252451394591" lon="8.636118220114193"><ele>142.0</ele><time>2026-04-22T08:26:58Z</time></trkpt><trkpt lat="44.39244718576749" lon="8.635797074622202"><ele>154.0</ele><time>2026-04-22T08:26:59Z</time></trkpt><trkpt lat="44.39233437592839" lon="8.635513130978069"><ele>156.33333333333334</ele><time>2026-04-22T08:27:00Z</time></trkpt><trkpt lat="44.39221104696719" lon="8.635203965973043"><ele>158.66666666666666</ele><time>2026-04-22T08:27:01.067Z</time></trkpt><trkpt lat="44.3921548" lon="8.6352539"><ele>161.0</ele><time>2026-04-22T08:27:04.771Z</time></trkpt><trkpt lat="44.390795977374154" lon="8.632681497092294"><ele>121.0</ele><time>2026-04-22T08:27:10Z</time></trkpt><trkpt lat="44.39064305089981" lon="8.632409860462493"><ele>81.0</ele><time>2026-04-22T08:27:11Z</time></trkpt><trkpt lat="44.38683667010928" lon="8.62573295019354"><ele>68.0</ele><time>2026-04-22T08:27:34Z</time></trkpt><trkpt lat="44.38666615443216" lon="8.625432459320812"><ele>55.0</ele><time>2026-04-22T08:27:35Z</time></trkpt><trkpt lat="44.3864749640004" lon="8.62512987499226"><ele>48.5</ele><time>2026-04-22T08:27:36Z</time></trkpt><trkpt lat="44.38632818277051" lon="8.624862119700806"><ele>42.0</ele><time>2026-04-22T08:27:37Z</time></trkpt><trkpt lat="44.38616382950171" lon="8.624573279765444"><ele>49.0</ele><time>2026-04-22T08:27:38Z</time></trkpt><trkpt lat="44.38599484312437" lon="8.624302709292511"><ele>56.0</ele><time>2026-04-22T08:27:39Z</time></trkpt><trkpt lat="44.385826832161605" lon="8.624034180980559"><ele>56.0</ele><time>2026-04-22T08:27:40Z</time></trkpt><trkpt lat="44.385640200418756" lon="8.623781011732772"><ele>56.0</ele><time>2026-04-22T08:27:41Z</time></trkpt><trkpt lat="44.385446997061216" lon="8.623545798587386"><ele>54.0</ele><time>2026-04-22T08:27:42Z</time></trkpt><trkpt lat="44.38525089044194" lon="8.623325829209552"><ele>52.0</ele><time>2026-04-22T08:27:43Z</time></trkpt><trkpt lat="44.38504767859313" lon="8.62311700010655"><ele>52.0</ele><time>2026-04-22T08:27:44Z</time></trkpt><trkpt lat="44.38483120317604" lon="8.622915000438441"><ele>52.0</ele><time>2026-04-22T08:27:45Z</time></trkpt><trkpt lat="44.38459438555499" lon="8.622717913817324"><ele>47.0</ele><time>2026-04-22T08:27:46Z</time></trkpt><trkpt lat="44.38435991573139" lon="8.622543275671246"><ele>42.0</ele><time>2026-04-22T08:27:47Z</time></trkpt><trkpt lat="44.384134050812285" lon="8.622375295107906"><ele>42.0</ele><time>2026-04-22T08:27:48Z</time></trkpt><trkpt lat="44.38390828281003" lon="8.62222465319374"><ele>42.0</ele><time>2026-04-22T08:27:49Z</time></trkpt><trkpt lat="44.38367425216175" lon="8.622087073939712"><ele>42.0</ele><time>2026-04-22T08:27:50Z</time></trkpt><trkpt lat="44.38343970827449" lon="8.621961112509782"><ele>42.0</ele><time>2026-04-22T08:27:51Z</time></trkpt><trkpt lat="44.38319646606717" lon="8.62185315471778"><ele>45.0</ele><time>2026-04-22T08:27:52Z</time></trkpt><trkpt lat="44.38294803965146" lon="8.621759951500854"><ele>48.0</ele><time>2026-04-22T08:27:53Z</time></trkpt><trkpt lat="44.38269880179032" lon="8.621679623983526"><ele>48.0</ele><time>2026-04-22T08:27:54Z</time></trkpt><trkpt lat="44.38244908077082" lon="8.621613933110552"><ele>48.0</ele><time>2026-04-22T08:27:55Z</time></trkpt><trkpt lat="44.38219771074482" lon="8.6215582539892"><ele>59.5</ele><time>2026-04-22T08:27:55.999Z</time></trkpt><trkpt lat="44.38194575214763" lon="8.621520120607407"><ele>71.0</ele><time>2026-04-22T08:27:56.999Z</time></trkpt><trkpt lat="44.381686449924054" lon="8.621499691581409"><ele>71.0</ele><time>2026-04-22T08:27:57.999Z</time></trkpt><trkpt lat="44.38142814234991" lon="8.621497668500325"><ele>71.0</ele><time>2026-04-22T08:27:58.999Z</time></trkpt><trkpt lat="44.3811721228823" lon="8.621501398291441"><ele>96.0</ele><time>2026-04-22T08:27:59.999Z</time></trkpt><trkpt lat="44.38091430402974" lon="8.621510388688094"><ele>121.0</ele><time>2026-04-22T08:28:00.999Z</time></trkpt><trkpt lat="44.38066276644822" lon="8.621518308151579"><ele>109.5</ele><time>2026-04-22T08:28:01.999Z</time></trkpt><trkpt lat="44.38040787309544" lon="8.621524286492999"><ele>98.0</ele><time>2026-04-22T08:28:02.999Z</time></trkpt><trkpt lat="44.380149624300145" lon="8.621530600624817"><ele>98.0</ele><time>2026-04-22T08:28:03.999Z</time></trkpt><trkpt lat="44.37987765649824" lon="8.621540090440334"><ele>98.0</ele><time>2026-04-22T08:28:05.07Z</time></trkpt><trkpt lat="44.37962787238348" lon="8.621544787537852"><ele>62.0</ele><time>2026-04-22T08:28:06.056Z</time></trkpt><trkpt lat="44.37899133610232" lon="8.621589564604232"><ele>56.5</ele><time>2026-04-22T08:28:07.999Z</time></trkpt><trkpt lat="44.37872577933541" lon="8.621608518975357"><ele>51.0</ele><time>2026-04-22T08:28:08.999Z</time></trkpt><trkpt lat="44.378473366110235" lon="8.621668848234279"><ele>51.0</ele><time>2026-04-22T08:28:09.999Z</time></trkpt><trkpt lat="44.37821258621682" lon="8.621702862407666"><ele>51.0</ele><time>2026-04-22T08:28:10.999Z</time></trkpt><trkpt lat="44.377952127596195" lon="8.621722348408316"><ele>55.5</ele><time>2026-04-22T08:28:11.999Z</time></trkpt><trkpt lat="44.37769718917197" lon="8.621736719537616"><ele>60.0</ele><time>2026-04-22T08:28:12.999Z</time></trkpt><trkpt lat="44.377440462022534" lon="8.62176182621902"><ele>60.0</ele><time>2026-04-22T08:28:13.999Z</time></trkpt><trkpt lat="44.37719020202454" lon="8.62178225902002"><ele>60.0</ele><time>2026-04-22T08:28:14.999Z</time></trkpt><trkpt lat="44.37695434761407" lon="8.621787400720173"><ele>50.5</ele><time>2026-04-22T08:28:15.999Z</time></trkpt><trkpt lat="44.37671304276435" lon="8.621802569548196"><ele>41.0</ele><time>2026-04-22T08:28:16.999Z</time></trkpt><trkpt lat="44.37647538657696" lon="8.621816084404585"><ele>46.666666666666664</ele><time>2026-04-22T08:28:17.999Z</time></trkpt><trkpt lat="44.376248250682416" lon="8.62182751968498"><ele>52.33333333333333</ele><time>2026-04-22T08:28:18.999Z</time></trkpt><trkpt lat="44.37603050717753" lon="8.621825277718411"><ele>58.0</ele><time>2026-04-22T08:28:19.999Z</time></trkpt><trkpt lat="44.37582023319331" lon="8.621804319340983"><ele>58.0</ele><time>2026-04-22T08:28:20.999Z</time></trkpt><trkpt lat="44.37561070102236" lon="8.621763226268207"><ele>58.0</ele><time>2026-04-22T08:28:21.999Z</time></trkpt><trkpt lat="44.37540288366676" lon="8.621701903469374"><ele>58.0</ele><time>2026-04-22T08:28:22.999Z</time></trkpt><trkpt lat="44.37519288551073" lon="8.621626357919041"><ele>64.0</ele><time>2026-04-22T08:28:23.999Z</time></trkpt><trkpt lat="44.37498112561425" lon="8.621535275223199"><ele>70.0</ele><time>2026-04-22T08:28:24.999Z</time></trkpt><trkpt lat="44.3747771507103" lon="8.621429071055623"><ele>76.0</ele><time>2026-04-22T08:28:25.999Z</time></trkpt><trkpt lat="44.374577662901" lon="8.62131109759907"><ele>76.0</ele><time>2026-04-22T08:28:26.999Z</time></trkpt><trkpt lat="44.37438757905216" lon="8.621176528669764"><ele>76.0</ele><time>2026-04-22T08:28:27.999Z</time></trkpt><trkpt lat="44.37419864833028" lon="8.6210231605029"><ele>76.0</ele><time>2026-04-22T08:28:28.999Z</time></trkpt><trkpt lat="44.374010964418815" lon="8.620841038598535"><ele>74.5</ele><time>2026-04-22T08:28:29.999Z</time></trkpt><trkpt lat="44.37382752789658" lon="8.620637684675879"><ele>73.0</ele><time>2026-04-22T08:28:30.999Z</time></trkpt><trkpt lat="44.373643606532376" lon="8.62040862225134"><ele>74.5</ele><time>2026-04-22T08:28:31.999Z</time></trkpt><trkpt lat="44.37346310642249" lon="8.620168358333407"><ele>76.0</ele><time>2026-04-22T08:28:32.999Z</time></trkpt><trkpt lat="44.37328549061665" lon="8.619924592083196"><ele>76.0</ele><time>2026-04-22T08:28:33.999Z</time></trkpt><trkpt lat="44.37311662682441" lon="8.61969705404392"><ele>76.0</ele><time>2026-04-22T08:28:34.999Z</time></trkpt><trkpt lat="44.37295518507083" lon="8.619469196696867"><ele>76.33333333333333</ele><time>2026-04-22T08:28:35.999Z</time></trkpt><trkpt lat="44.372803015307284" lon="8.619235843929568"><ele>76.66666666666667</ele><time>2026-04-22T08:28:36.999Z</time></trkpt><trkpt lat="44.37266008628498" lon="8.618997632318495"><ele>77.0</ele><time>2026-04-22T08:28:37.999Z</time></trkpt><trkpt lat="44.37252068225176" lon="8.618745710033695"><ele>80.0</ele><time>2026-04-22T08:28:38.999Z</time></trkpt><trkpt lat="44.37239535483401" lon="8.618476148632364"><ele>83.0</ele><time>2026-04-22T08:28:39.999Z</time></trkpt><trkpt lat="44.37227894718205" lon="8.618191431743021"><ele>79.5</ele><time>2026-04-22T08:28:40.999Z</time></trkpt><trkpt lat="44.3721690321847" lon="8.617885401039844"><ele>76.0</ele><time>2026-04-22T08:28:41.999Z</time></trkpt><trkpt lat="44.37206966895303" lon="8.617570167985438"><ele>76.0</ele><time>2026-04-22T08:28:42.999Z</time></trkpt><trkpt lat="44.371974791629455" lon="8.617245711467598"><ele>76.0</ele><time>2026-04-22T08:28:43.999Z</time></trkpt><trkpt lat="44.371873606311254" lon="8.616921042141756"><ele>77.5</ele><time>2026-04-22T08:28:44.999Z</time></trkpt><trkpt lat="44.371761350911505" lon="8.616595596121297"><ele>79.0</ele><time>2026-04-22T08:28:45.999Z</time></trkpt><trkpt lat="44.37163712433789" lon="8.616274246059671"><ele>81.5</ele><time>2026-04-22T08:28:46.999Z</time></trkpt><trkpt lat="44.37150034300991" lon="8.615949503895742"><ele>84.0</ele><time>2026-04-22T08:28:47.999Z</time></trkpt><trkpt lat="44.37135694876284" lon="8.61563184733368"><ele>81.0</ele><time>2026-04-22T08:28:48.999Z</time></trkpt><trkpt lat="44.371202743012496" lon="8.615331293615329"><ele>78.0</ele><time>2026-04-22T08:28:49.999Z</time></trkpt><trkpt lat="44.371044177008145" lon="8.615044791833261"><ele>78.0</ele><time>2026-04-22T08:28:50.999Z</time></trkpt><trkpt lat="44.37088750616109" lon="8.614776853528477"><ele>78.0</ele><time>2026-04-22T08:28:51.999Z</time></trkpt><trkpt lat="44.37072555060371" lon="8.614521833214516"><ele>77.0</ele><time>2026-04-22T08:28:52.999Z</time></trkpt><trkpt lat="44.37056370622576" lon="8.614274087239586"><ele>76.0</ele><time>2026-04-22T08:28:53.999Z</time></trkpt><trkpt lat="44.37040453529958" lon="8.614028166385003"><ele>76.0</ele><time>2026-04-22T08:28:54.999Z</time></trkpt><trkpt lat="44.37025249457892" lon="8.613783356686879"><ele>76.0</ele><time>2026-04-22T08:28:55.999Z</time></trkpt><trkpt lat="44.37011590885777" lon="8.613543231641561"><ele>78.66666666666666</ele><time>2026-04-22T08:28:56.999Z</time></trkpt><trkpt lat="44.36999129034648" lon="8.613301059964073"><ele>81.33333333333333</ele><time>2026-04-22T08:28:57.999Z</time></trkpt><trkpt lat="44.36987736646233" lon="8.613048406601791"><ele>84.0</ele><time>2026-04-22T08:28:59Z</time></trkpt><trkpt lat="44.36977441824441" lon="8.61277735875532"><ele>79.5</ele><time>2026-04-22T08:29:00Z</time></trkpt><trkpt lat="44.369679717059086" lon="8.61248749800747"><ele>75.0</ele><time>2026-04-22T08:29:01Z</time></trkpt><trkpt lat="44.36959566521779" lon="8.612175667573224"><ele>77.0</ele><time>2026-04-22T08:29:02Z</time></trkpt><trkpt lat="44.36952760609912" lon="8.611842942890267"><ele>79.0</ele><time>2026-04-22T08:29:03Z</time></trkpt><trkpt lat="44.36947375148351" lon="8.61149443332809"><ele>79.5</ele><time>2026-04-22T08:29:04Z</time></trkpt><trkpt lat="44.369434403136644" lon="8.611132099889044"><ele>80.0</ele><time>2026-04-22T08:29:05Z</time></trkpt><trkpt lat="44.36940491129823" lon="8.610757810562669"><ele>80.0</ele><time>2026-04-22T08:29:06Z</time></trkpt><trkpt lat="44.36937627063833" lon="8.610379731658625"><ele>80.0</ele><time>2026-04-22T08:29:07Z</time></trkpt><trkpt lat="44.369346563079276" lon="8.610008520691554"><ele>81.0</ele><time>2026-04-22T08:29:08Z</time></trkpt><trkpt lat="44.369315689428596" lon="8.609642814185374"><ele>82.0</ele><time>2026-04-22T08:29:09Z</time></trkpt><trkpt lat="44.36927930257501" lon="8.609276065663128"><ele>82.5</ele><time>2026-04-22T08:29:10Z</time></trkpt><trkpt lat="44.36924465310671" lon="8.608909213046482"><ele>83.0</ele><time>2026-04-22T08:29:11Z</time></trkpt><trkpt lat="44.36921409736131" lon="8.608542218320272"><ele>84.0</ele><time>2026-04-22T08:29:12Z</time></trkpt><trkpt lat="44.36917621211131" lon="8.608178071526064"><ele>85.0</ele><time>2026-04-22T08:29:13Z</time></trkpt><trkpt lat="44.36912917728534" lon="8.607818056368863"><ele>87.5</ele><time>2026-04-22T08:29:14Z</time></trkpt><trkpt lat="44.36907056160967" lon="8.607459367623333"><ele>90.0</ele><time>2026-04-22T08:29:15Z</time></trkpt><trkpt lat="44.36900125114502" lon="8.607099830017763"><ele>90.0</ele><time>2026-04-22T08:29:16Z</time></trkpt><trkpt lat="44.36892095319301" lon="8.606737580682665"><ele>90.0</ele><time>2026-04-22T08:29:17Z</time></trkpt><trkpt lat="44.36882948887018" lon="8.606376010229953"><ele>86.5</ele><time>2026-04-22T08:29:18Z</time></trkpt><trkpt lat="44.36872749711385" lon="8.606022052166336"><ele>83.0</ele><time>2026-04-22T08:29:19Z</time></trkpt><trkpt lat="44.368616979538054" lon="8.605672966373717"><ele>85.5</ele><time>2026-04-22T08:29:20Z</time></trkpt><trkpt lat="44.36849582741365" lon="8.6053283808828"><ele>88.0</ele><time>2026-04-22T08:29:21Z</time></trkpt><trkpt lat="44.3683642602967" lon="8.604990404943756"><ele>88.0</ele><time>2026-04-22T08:29:22Z</time></trkpt><trkpt lat="44.36822456635376" lon="8.604659891021244"><ele>88.0</ele><time>2026-04-22T08:29:23Z</time></trkpt><trkpt lat="44.368081838539986" lon="8.60433588597386"><ele>84.5</ele><time>2026-04-22T08:29:24Z</time></trkpt><trkpt lat="44.36793486725497" lon="8.60401310862796"><ele>81.0</ele><time>2026-04-22T08:29:25Z</time></trkpt><trkpt lat="44.367785883423" lon="8.603688096491709"><ele>84.0</ele><time>2026-04-22T08:29:26Z</time></trkpt><trkpt lat="44.36764290691954" lon="8.60337482756934"><ele>87.0</ele><time>2026-04-22T08:29:27Z</time></trkpt><trkpt lat="44.3675070755337" lon="8.603070484106263"><ele>92.0</ele><time>2026-04-22T08:29:28Z</time></trkpt><trkpt lat="44.36737838093106" lon="8.602777158792149"><ele>97.0</ele><time>2026-04-22T08:29:29Z</time></trkpt><trkpt lat="44.367253240200675" lon="8.602488611028148"><ele>91.5</ele><time>2026-04-22T08:29:30Z</time></trkpt><trkpt lat="44.367139582546116" lon="8.602205649454659"><ele>86.0</ele><time>2026-04-22T08:29:31Z</time></trkpt><trkpt lat="44.36704114350371" lon="8.601922237338647"><ele>86.0</ele><time>2026-04-22T08:29:32Z</time></trkpt><trkpt lat="44.366948540117086" lon="8.601638213976537"><ele>86.0</ele><time>2026-04-22T08:29:33Z</time></trkpt><trkpt lat="44.36686264157412" lon="8.60135507250006"><ele>86.0</ele><time>2026-04-22T08:29:34Z</time></trkpt><trkpt lat="44.366785380433065" lon="8.60107390329829"><ele>87.0</ele><time>2026-04-22T08:29:35Z</time></trkpt><trkpt lat="44.366712783079656" lon="8.600787922480176"><ele>88.0</ele><time>2026-04-22T08:29:36Z</time></trkpt><trkpt lat="44.366644311661936" lon="8.60049956299833"><ele>89.0</ele><time>2026-04-22T08:29:37Z</time></trkpt><trkpt lat="44.36657785125428" lon="8.600212978112634"><ele>90.0</ele><time>2026-04-22T08:29:38Z</time></trkpt><trkpt lat="44.366512060103204" lon="8.599930310228743"><ele>91.0</ele><time>2026-04-22T08:29:39Z</time></trkpt><trkpt lat="44.3664448997949" lon="8.599649347607553"><ele>92.0</ele><time>2026-04-22T08:29:40Z</time></trkpt><trkpt lat="44.366380249656466" lon="8.599366806881692"><ele>90.33333333333334</ele><time>2026-04-22T08:29:41Z</time></trkpt><trkpt lat="44.36631480502525" lon="8.599089312334641"><ele>88.66666666666667</ele><time>2026-04-22T08:29:42Z</time></trkpt><trkpt lat="44.366250299384134" lon="8.59881174705393"><ele>87.0</ele><time>2026-04-22T08:29:43Z</time></trkpt><trkpt lat="44.36618570653353" lon="8.59853420787307"><ele>87.0</ele><time>2026-04-22T08:29:44Z</time></trkpt><trkpt lat="44.366123101306044" lon="8.59826270793553"><ele>87.0</ele><time>2026-04-22T08:29:45Z</time></trkpt><trkpt lat="44.36605914639197" lon="8.597990893034948"><ele>87.0</ele><time>2026-04-22T08:29:46Z</time></trkpt><trkpt lat="44.36599534389012" lon="8.59771978296884"><ele>88.33333333333333</ele><time>2026-04-22T08:29:47Z</time></trkpt><trkpt lat="44.36592963331664" lon="8.59744057510064"><ele>89.66666666666666</ele><time>2026-04-22T08:29:48Z</time></trkpt><trkpt lat="44.36586314932676" lon="8.59716179485637"><ele>91.0</ele><time>2026-04-22T08:29:49Z</time></trkpt><trkpt lat="44.365794762956135" lon="8.59687964797761"><ele>95.0</ele><time>2026-04-22T08:29:50Z</time></trkpt><trkpt lat="44.365727809427625" lon="8.59659200009917"><ele>99.0</ele><time>2026-04-22T08:29:51Z</time></trkpt><trkpt lat="44.36566439205879" lon="8.596316331271101"><ele>103.0</ele><time>2026-04-22T08:29:52Z</time></trkpt><trkpt lat="44.3656045793054" lon="8.596051184933975"><ele>103.0</ele><time>2026-04-22T08:29:53Z</time></trkpt><trkpt lat="44.36554435622152" lon="8.595792915774542"><ele>103.0</ele><time>2026-04-22T08:29:54Z</time></trkpt><trkpt lat="44.3654833018639" lon="8.59553414719995"><ele>103.0</ele><time>2026-04-22T08:29:54.999Z</time></trkpt><trkpt lat="44.365423375069184" lon="8.59527518113466"><ele>103.0</ele><time>2026-04-22T08:29:55.999Z</time></trkpt><trkpt lat="44.36536064765866" lon="8.594998393192213"><ele>103.0</ele><time>2026-04-22T08:29:57.069Z</time></trkpt><trkpt lat="44.365303039974734" lon="8.594743467151005"><ele>103.0</ele><time>2026-04-22T08:29:58.056Z</time></trkpt><trkpt lat="44.36405023120045" lon="8.587471623465358"><ele>96.66666666666667</ele><time>2026-04-22T08:30:22.999Z</time></trkpt><trkpt lat="44.364124866954846" lon="8.58731153714351"><ele>90.33333333333334</ele><time>2026-04-22T08:30:23.999Z</time></trkpt><trkpt lat="44.364193954010936" lon="8.587058383859338"><ele>84.0</ele><time>2026-04-22T08:30:24.999Z</time></trkpt><trkpt lat="44.364253120227325" lon="8.586777669567786"><ele>84.0</ele><time>2026-04-22T08:30:25.999Z</time></trkpt><trkpt lat="44.3642903737261" lon="8.586491451780574"><ele>84.0</ele><time>2026-04-22T08:30:26.999Z</time></trkpt><trkpt lat="44.36431590817593" lon="8.586186918388"><ele>84.0</ele><time>2026-04-22T08:30:27.999Z</time></trkpt><trkpt lat="44.36496388053855" lon="8.583275879698704"><ele>90.0</ele><time>2026-04-22T08:30:37.999Z</time></trkpt><trkpt lat="44.36503579775898" lon="8.582989947254259"><ele>96.0</ele><time>2026-04-22T08:30:38.999Z</time></trkpt><trkpt lat="44.3655936" lon="8.5815844"><ele>55.0</ele><time>2026-04-22T08:30:47.768Z</time></trkpt><trkpt lat="44.366335988572175" lon="8.57962187138303"><ele>57.5</ele><time>2026-04-22T08:30:50.999Z</time></trkpt><trkpt lat="44.36646046419464" lon="8.57929800260696"><ele>60.0</ele><time>2026-04-22T08:30:51.999Z</time></trkpt><trkpt lat="44.366592999216685" lon="8.579023757483254"><ele>60.0</ele><time>2026-04-22T08:30:52.999Z</time></trkpt><trkpt lat="44.366733473208974" lon="8.578718545963381"><ele>60.0</ele><time>2026-04-22T08:30:53.999Z</time></trkpt><trkpt lat="44.36686012302645" lon="8.578406845579766"><ele>45.5</ele><time>2026-04-22T08:30:54.999Z</time></trkpt><trkpt lat="44.366967019656165" lon="8.57810612322861"><ele>31.0</ele><time>2026-04-22T08:30:55.999Z</time></trkpt><trkpt lat="44.36773223623346" lon="8.573673477964705"><ele>31.0</ele><time>2026-04-22T08:31:10.998Z</time></trkpt><trkpt lat="44.367704578159525" lon="8.57337214630831"><ele>31.0</ele><time>2026-04-22T08:31:11.998Z</time></trkpt><trkpt lat="44.367665426880365" lon="8.573067034949593"><ele>31.0</ele><time>2026-04-22T08:31:12.998Z</time></trkpt><trkpt lat="44.36760605806634" lon="8.572775126023636"><ele>29.0</ele><time>2026-04-22T08:31:14Z</time></trkpt><trkpt lat="44.36753580829073" lon="8.572481216239966"><ele>27.0</ele><time>2026-04-22T08:31:15Z</time></trkpt><trkpt lat="44.36745927512866" lon="8.572198833741655"><ele>25.0</ele><time>2026-04-22T08:31:16Z</time></trkpt><trkpt lat="44.36737664733756" lon="8.571914108924506"><ele>25.0</ele><time>2026-04-22T08:31:17Z</time></trkpt><trkpt lat="44.367289707971544" lon="8.571649416044359"><ele>25.0</ele><time>2026-04-22T08:31:18Z</time></trkpt><trkpt lat="44.36719198463423" lon="8.571399747051014"><ele>25.0</ele><time>2026-04-22T08:31:19Z</time></trkpt><trkpt lat="44.36708489980304" lon="8.571156901934355"><ele>26.666666666666668</ele><time>2026-04-22T08:31:20Z</time></trkpt><trkpt lat="44.36697428159301" lon="8.570914660425634"><ele>28.333333333333336</ele><time>2026-04-22T08:31:21Z</time></trkpt><trkpt lat="44.3668577222801" lon="8.570683940867688"><ele>30.0</ele><time>2026-04-22T08:31:22Z</time></trkpt><trkpt lat="44.36672856163943" lon="8.570462135576088"><ele>36.33333333333333</ele><time>2026-04-22T08:31:23Z</time></trkpt><trkpt lat="44.36658944976558" lon="8.570239160371202"><ele>42.666666666666664</ele><time>2026-04-22T08:31:24Z</time></trkpt><trkpt lat="44.36644199916753" lon="8.570022182103905"><ele>49.0</ele><time>2026-04-22T08:31:25Z</time></trkpt><trkpt lat="44.366294171081286" lon="8.569816381570275"><ele>56.0</ele><time>2026-04-22T08:31:26Z</time></trkpt><trkpt lat="44.36613910443747" lon="8.569606884337745"><ele>63.0</ele><time>2026-04-22T08:31:27Z</time></trkpt><trkpt lat="44.36598764283534" lon="8.569398404958658"><ele>70.0</ele><time>2026-04-22T08:31:28Z</time></trkpt><trkpt lat="44.36583735486908" lon="8.569191076348403"><ele>73.33333333333333</ele><time>2026-04-22T08:31:29Z</time></trkpt><trkpt lat="44.36566008097498" lon="8.569033205390944"><ele>76.66666666666667</ele><time>2026-04-22T08:31:30Z</time></trkpt><trkpt lat="44.36546274969855" lon="8.568874002711292"><ele>80.0</ele><time>2026-04-22T08:31:31Z</time></trkpt><trkpt lat="44.36526821722966" lon="8.568727798302517"><ele>93.33333333333334</ele><time>2026-04-22T08:31:32.055Z</time></trkpt><trkpt lat="44.36508397410292" lon="8.568596024013988"><ele>106.66666666666667</ele><time>2026-04-22T08:31:33.052Z</time></trkpt><trkpt lat="44.36489835076066" lon="8.568472783463262"><ele>120.0</ele><time>2026-04-22T08:31:34.051Z</time></trkpt><trkpt lat="44.36472270624814" lon="8.568355692886742"><ele>117.5</ele><time>2026-04-22T08:31:35.047Z</time></trkpt><trkpt lat="44.364532178786455" lon="8.568227734320894"><ele>115.0</ele><time>2026-04-22T08:31:36.032Z</time></trkpt><trkpt lat="44.36267638913956" lon="8.567076405523018"><ele>95.0</ele><time>2026-04-22T08:31:39.768Z</time></trkpt><trkpt lat="44.361785699833675" lon="8.566474676112882"><ele>59.0</ele><time>2026-04-22T08:31:40.768Z</time></trkpt><trkpt lat="44.360895117614355" lon="8.565872473260956"><ele>51.0</ele><time>2026-04-22T08:31:41.767Z</time></trkpt><trkpt lat="44.35914164733381" lon="8.564592102483555"><ele>42.0</ele><time>2026-04-22T08:31:43.767Z</time></trkpt><trkpt lat="44.36012603300455" lon="8.565324892165052"><ele>51.0</ele><time>2026-04-22T08:31:57Z</time></trkpt><trkpt lat="44.35968657327835" lon="8.564804702850076"><ele>51.0</ele><time>2026-04-22T08:31:57.999Z</time></trkpt><trkpt lat="44.359567544506724" lon="8.56469536548906"><ele>51.0</ele><time>2026-04-22T08:31:58.999Z</time></trkpt><trkpt lat="44.359406308956736" lon="8.564686575838694"><ele>51.0</ele><time>2026-04-22T08:31:59.999Z</time></trkpt><trkpt lat="44.359279101805505" lon="8.56459219816385"><ele>51.0</ele><time>2026-04-22T08:32:00.999Z</time></trkpt><trkpt lat="44.35914566885107" lon="8.564468000314221"><ele>52.0</ele><time>2026-04-22T08:32:01.999Z</time></trkpt><trkpt lat="44.35899230405561" lon="8.564365539308598"><ele>53.0</ele><time>2026-04-22T08:32:02.999Z</time></trkpt><trkpt lat="44.35883040442572" lon="8.564220916950916"><ele>54.0</ele><time>2026-04-22T08:32:03.999Z</time></trkpt><trkpt lat="44.358679268603204" lon="8.564119007597544"><ele>49.0</ele><time>2026-04-22T08:32:04.999Z</time></trkpt><trkpt lat="44.35851114427771" lon="8.563986465877118"><ele>44.0</ele><time>2026-04-22T08:32:05.999Z</time></trkpt><trkpt lat="44.358281074882754" lon="8.56390365141803"><ele>39.0</ele><time>2026-04-22T08:32:06.999Z</time></trkpt><trkpt lat="44.35809796730105" lon="8.563750690620648"><ele>39.666666666666664</ele><time>2026-04-22T08:32:07.999Z</time></trkpt><trkpt lat="44.35791174905888" lon="8.563599243858972"><ele>40.33333333333333</ele><time>2026-04-22T08:32:08.999Z</time></trkpt><trkpt lat="44.35772328601815" lon="8.563452276598774"><ele>41.0</ele><time>2026-04-22T08:32:09.999Z</time></trkpt><trkpt lat="44.357532017276085" lon="8.563303196430782"><ele>41.0</ele><time>2026-04-22T08:32:10.999Z</time></trkpt><trkpt lat="44.35733599161526" lon="8.56314897711412"><ele>41.0</ele><time>2026-04-22T08:32:11.999Z</time></trkpt><trkpt lat="44.3571410811732" lon="8.56300189637317"><ele>41.0</ele><time>2026-04-22T08:32:12.999Z</time></trkpt><trkpt lat="44.35694946823057" lon="8.56285244350797"><ele>40.0</ele><time>2026-04-22T08:32:13.999Z</time></trkpt><trkpt lat="44.35675854031261" lon="8.562705481619599"><ele>39.0</ele><time>2026-04-22T08:32:14.999Z</time></trkpt><trkpt lat="44.35657828636334" lon="8.562566847376901"><ele>38.0</ele><time>2026-04-22T08:32:15.999Z</time></trkpt><trkpt lat="44.356399788377615" lon="8.562426764522208"><ele>40.666666666666664</ele><time>2026-04-22T08:32:16.999Z</time></trkpt><trkpt lat="44.35622252974312" lon="8.562283860193116"><ele>43.333333333333336</ele><time>2026-04-22T08:32:17.999Z</time></trkpt><trkpt lat="44.3560378498255" lon="8.562149718854922"><ele>46.0</ele><time>2026-04-22T08:32:18.999Z</time></trkpt><trkpt lat="44.35586100449829" lon="8.562002559040607"><ele>46.333333333333336</ele><time>2026-04-22T08:32:19.999Z</time></trkpt><trkpt lat="44.35568056898869" lon="8.561855959477244"><ele>46.666666666666664</ele><time>2026-04-22T08:32:20.999Z</time></trkpt><trkpt lat="44.35549910775697" lon="8.561708985593873"><ele>47.0</ele><time>2026-04-22T08:32:21.999Z</time></trkpt><trkpt lat="44.35531191953228" lon="8.56156854563512"><ele>47.0</ele><time>2026-04-22T08:32:22.999Z</time></trkpt><trkpt lat="44.35512421190196" lon="8.561422246525204"><ele>47.0</ele><time>2026-04-22T08:32:23.999Z</time></trkpt><trkpt lat="44.354945462139504" lon="8.56127171406374"><ele>47.0</ele><time>2026-04-22T08:32:24.999Z</time></trkpt><trkpt lat="44.35476334199023" lon="8.561121107486398"><ele>49.666666666666664</ele><time>2026-04-22T08:32:25.999Z</time></trkpt><trkpt lat="44.35458084336858" lon="8.56098094178791"><ele>52.33333333333333</ele><time>2026-04-22T08:32:26.999Z</time></trkpt><trkpt lat="44.35439754280545" lon="8.560831157766861"><ele>55.0</ele><time>2026-04-22T08:32:27.999Z</time></trkpt><trkpt lat="44.354217491975135" lon="8.56069954515679"><ele>55.0</ele><time>2026-04-22T08:32:28.999Z</time></trkpt><trkpt lat="44.354032523522484" lon="8.560557599942756"><ele>55.0</ele><time>2026-04-22T08:32:29.999Z</time></trkpt><trkpt lat="44.353846977678955" lon="8.560411409383727"><ele>55.0</ele><time>2026-04-22T08:32:30.999Z</time></trkpt><trkpt lat="44.35366343306171" lon="8.56026705617802"><ele>54.0</ele><time>2026-04-22T08:32:31.999Z</time></trkpt><trkpt lat="44.35347762927287" lon="8.560123719930884"><ele>53.0</ele><time>2026-04-22T08:32:32.999Z</time></trkpt><trkpt lat="44.353286404091016" lon="8.559975759753346"><ele>52.0</ele><time>2026-04-22T08:32:33.999Z</time></trkpt><trkpt lat="44.353090967221675" lon="8.559832851124304"><ele>51.666666666666664</ele><time>2026-04-22T08:32:34.999Z</time></trkpt><trkpt lat="44.35290242259841" lon="8.559676743169614"><ele>51.33333333333333</ele><time>2026-04-22T08:32:35.999Z</time></trkpt><trkpt lat="44.35270804154108" lon="8.559527004746904"><ele>51.0</ele><time>2026-04-22T08:32:36.999Z</time></trkpt><trkpt lat="44.3525051194192" lon="8.559373430424417"><ele>51.0</ele><time>2026-04-22T08:32:37.999Z</time></trkpt><trkpt lat="44.35231471548211" lon="8.559229442256187"><ele>51.0</ele><time>2026-04-22T08:32:38.999Z</time></trkpt><trkpt lat="44.35212630948843" lon="8.559082249566753"><ele>51.0</ele><time>2026-04-22T08:32:39.999Z</time></trkpt><trkpt lat="44.351936300397604" lon="8.558926227883545"><ele>50.66666666666667</ele><time>2026-04-22T08:32:40.999Z</time></trkpt><trkpt lat="44.35174722716222" lon="8.55876968988961"><ele>50.333333333333336</ele><time>2026-04-22T08:32:41.999Z</time></trkpt><trkpt lat="44.3515659920238" lon="8.558604043863175"><ele>50.0</ele><time>2026-04-22T08:32:42.999Z</time></trkpt><trkpt lat="44.351396304961305" lon="8.558439063460728"><ele>55.66666666666667</ele><time>2026-04-22T08:32:43.999Z</time></trkpt><trkpt lat="44.351233621214" lon="8.55827337278112"><ele>61.33333333333333</ele><time>2026-04-22T08:32:44.999Z</time></trkpt><trkpt lat="44.351075406690086" lon="8.558087917907176"><ele>67.0</ele><time>2026-04-22T08:32:45.999Z</time></trkpt><trkpt lat="44.35092222926337" lon="8.557897154984639"><ele>67.0</ele><time>2026-04-22T08:32:46.999Z</time></trkpt><trkpt lat="44.35076484831796" lon="8.557698677596068"><ele>67.0</ele><time>2026-04-22T08:32:47.999Z</time></trkpt><trkpt lat="44.35061279217261" lon="8.557503525268983"><ele>67.0</ele><time>2026-04-22T08:32:48.999Z</time></trkpt><trkpt lat="44.35046053207404" lon="8.557306611347755"><ele>67.0</ele><time>2026-04-22T08:32:49.999Z</time></trkpt><trkpt lat="44.35030695909447" lon="8.557109561979392"><ele>67.0</ele><time>2026-04-22T08:32:50.999Z</time></trkpt><trkpt lat="44.35015654349288" lon="8.55691045126553"><ele>67.0</ele><time>2026-04-22T08:32:51.999Z</time></trkpt><trkpt lat="44.35004614587593" lon="8.55667654511648"><ele>70.66666666666666</ele><time>2026-04-22T08:32:52.999Z</time></trkpt><trkpt lat="44.34993817839188" lon="8.55644997306914"><ele>74.33333333333333</ele><time>2026-04-22T08:32:53.999Z</time></trkpt><trkpt lat="44.349836163894835" lon="8.55621202854812"><ele>78.0</ele><time>2026-04-22T08:32:55.067Z</time></trkpt><trkpt lat="44.34974342668328" lon="8.555985812646776"><ele>74.0</ele><time>2026-04-22T08:32:56.056Z</time></trkpt><trkpt lat="44.34965577802657" lon="8.555752717586236"><ele>70.0</ele><time>2026-04-22T08:32:57.031Z</time></trkpt><trkpt lat="44.3495659" lon="8.5552499"><ele>54.0</ele><time>2026-04-22T08:33:00.766Z</time></trkpt><trkpt lat="44.34930202302561" lon="8.554127148130123"><ele>54.0</ele><time>2026-04-22T08:33:02.999Z</time></trkpt><trkpt lat="44.34925613037486" lon="8.553856851768193"><ele>54.0</ele><time>2026-04-22T08:33:03.999Z</time></trkpt><trkpt lat="44.34922114150225" lon="8.553599254282169"><ele>54.0</ele><time>2026-04-22T08:33:04.999Z</time></trkpt><trkpt lat="44.34920384765612" lon="8.553327541774255"><ele>55.66666666666667</ele><time>2026-04-22T08:33:05.999Z</time></trkpt><trkpt lat="44.34918909423079" lon="8.553040715344403"><ele>57.333333333333336</ele><time>2026-04-22T08:33:06.999Z</time></trkpt><trkpt lat="44.349168278019654" lon="8.552768677213129"><ele>59.0</ele><time>2026-04-22T08:33:07.999Z</time></trkpt><trkpt lat="44.349149896808726" lon="8.552461321073885"><ele>59.0</ele><time>2026-04-22T08:33:08.998Z</time></trkpt><trkpt lat="44.34913952895588" lon="8.552167392817672"><ele>59.0</ele><time>2026-04-22T08:33:09.998Z</time></trkpt><trkpt lat="44.34913031590689" lon="8.551871738330373"><ele>59.0</ele><time>2026-04-22T08:33:10.998Z</time></trkpt><trkpt lat="44.34910094476308" lon="8.55159066946607"><ele>57.333333333333336</ele><time>2026-04-22T08:33:11.998Z</time></trkpt><trkpt lat="44.34908209292977" lon="8.551315903411236"><ele>55.66666666666667</ele><time>2026-04-22T08:33:12.998Z</time></trkpt><trkpt lat="44.34905990529083" lon="8.551027335296512"><ele>54.0</ele><time>2026-04-22T08:33:13.998Z</time></trkpt><trkpt lat="44.34904590747009" lon="8.550734742428677"><ele>52.66666666666667</ele><time>2026-04-22T08:33:14.998Z</time></trkpt><trkpt lat="44.349030795659786" lon="8.55043634253554"><ele>51.333333333333336</ele><time>2026-04-22T08:33:15.998Z</time></trkpt><trkpt lat="44.34901926369379" lon="8.550148787758175"><ele>50.0</ele><time>2026-04-22T08:33:16.998Z</time></trkpt><trkpt lat="44.349007842729556" lon="8.549869315917057"><ele>50.0</ele><time>2026-04-22T08:33:17.998Z</time></trkpt><trkpt lat="44.34899437286298" lon="8.549592517875926"><ele>50.0</ele><time>2026-04-22T08:33:19Z</time></trkpt><trkpt lat="44.348979346311275" lon="8.549314051193905"><ele>50.0</ele><time>2026-04-22T08:33:20Z</time></trkpt><trkpt lat="44.34896573322906" lon="8.549034906878468"><ele>50.0</ele><time>2026-04-22T08:33:21Z</time></trkpt><trkpt lat="44.34895667656228" lon="8.548755375681644"><ele>50.0</ele><time>2026-04-22T08:33:22Z</time></trkpt><trkpt lat="44.34896130653144" lon="8.548461072712882"><ele>50.0</ele><time>2026-04-22T08:33:23Z</time></trkpt><trkpt lat="44.348966866546824" lon="8.548166550032116"><ele>64.33333333333334</ele><time>2026-04-22T08:33:24Z</time></trkpt><trkpt lat="44.34896785758961" lon="8.54785828714296"><ele>78.66666666666667</ele><time>2026-04-22T08:33:25Z</time></trkpt><trkpt lat="44.34897180357138" lon="8.547561864923866"><ele>93.0</ele><time>2026-04-22T08:33:26Z</time></trkpt><trkpt lat="44.34897513240711" lon="8.547264609811872"><ele>94.66666666666666</ele><time>2026-04-22T08:33:27Z</time></trkpt><trkpt lat="44.348981099262645" lon="8.546945425917022"><ele>96.33333333333333</ele><time>2026-04-22T08:33:28.068Z</time></trkpt><trkpt lat="44.34898890543846" lon="8.546649258402203"><ele>98.0</ele><time>2026-04-22T08:33:29.063Z</time></trkpt><trkpt lat="44.34900034443213" lon="8.546354737709986"><ele>94.0</ele><time>2026-04-22T08:33:30.058Z</time></trkpt><trkpt lat="44.3490162310465" lon="8.546073514459932"><ele>90.0</ele><time>2026-04-22T08:33:31.056Z</time></trkpt><trkpt lat="44.349029058508904" lon="8.545771348722212"><ele>86.0</ele><time>2026-04-22T08:33:32.055Z</time></trkpt><trkpt lat="44.34904286532944" lon="8.545483432854653"><ele>72.5</ele><time>2026-04-22T08:33:33.029Z</time></trkpt><trkpt lat="44.34905666313859" lon="8.54518818677216"><ele>59.0</ele><time>2026-04-22T08:33:34.026Z</time></trkpt><trkpt lat="44.34854221495732" lon="8.544338178355899"><ele>51.0</ele><time>2026-04-22T08:33:37Z</time></trkpt><trkpt lat="44.348469719182475" lon="8.544072801574357"><ele>43.0</ele><time>2026-04-22T08:33:38Z</time></trkpt><trkpt lat="44.34838037960098" lon="8.543891990512106"><ele>35.0</ele><time>2026-04-22T08:33:39Z</time></trkpt><trkpt lat="44.3482900278469" lon="8.543684787993676"><ele>35.0</ele><time>2026-04-22T08:33:40Z</time></trkpt><trkpt lat="44.34819079175785" lon="8.543463464446004"><ele>35.0</ele><time>2026-04-22T08:33:41Z</time></trkpt><trkpt lat="44.348079340301716" lon="8.543235905555903"><ele>35.0</ele><time>2026-04-22T08:33:42Z</time></trkpt><trkpt lat="44.34795465143642" lon="8.543025520690287"><ele>32.0</ele><time>2026-04-22T08:33:43Z</time></trkpt><trkpt lat="44.34782316450775" lon="8.542823051240141"><ele>29.0</ele><time>2026-04-22T08:33:44Z</time></trkpt><trkpt lat="44.34769269035725" lon="8.542618562559696"><ele>26.0</ele><time>2026-04-22T08:33:45Z</time></trkpt><trkpt lat="44.347547471735105" lon="8.542428438044512"><ele>26.0</ele><time>2026-04-22T08:33:46Z</time></trkpt><trkpt lat="44.34739126416764" lon="8.542241504552617"><ele>26.0</ele><time>2026-04-22T08:33:47Z</time></trkpt><trkpt lat="44.34723942711519" lon="8.542087365148582"><ele>26.0</ele><time>2026-04-22T08:33:48Z</time></trkpt><trkpt lat="44.347072758622815" lon="8.541917965454276"><ele>32.666666666666664</ele><time>2026-04-22T08:33:49Z</time></trkpt><trkpt lat="44.34690125952903" lon="8.541760857051935"><ele>39.333333333333336</ele><time>2026-04-22T08:33:50Z</time></trkpt><trkpt lat="44.34672889208" lon="8.54161314069198"><ele>46.0</ele><time>2026-04-22T08:33:51Z</time></trkpt><trkpt lat="44.34656102758762" lon="8.541456764841437"><ele>46.0</ele><time>2026-04-22T08:33:52Z</time></trkpt><trkpt lat="44.34639309328727" lon="8.541307352523663"><ele>46.0</ele><time>2026-04-22T08:33:53Z</time></trkpt><trkpt lat="44.34622359235693" lon="8.541153232013565"><ele>46.0</ele><time>2026-04-22T08:33:54Z</time></trkpt><trkpt lat="44.346054625084534" lon="8.54099743754713"><ele>41.0</ele><time>2026-04-22T08:33:55Z</time></trkpt><trkpt lat="44.34571128870569" lon="8.540688306935056"><ele>36.0</ele><time>2026-04-22T08:33:56.999Z</time></trkpt><trkpt lat="44.345315070247054" lon="8.540141020138586"><ele>36.0</ele><time>2026-04-22T08:33:59.999Z</time></trkpt><trkpt lat="44.345055275671065" lon="8.540103159371084"><ele>36.0</ele><time>2026-04-22T08:34:00.999Z</time></trkpt><trkpt lat="44.34487157241032" lon="8.53994103332028"><ele>37.333333333333336</ele><time>2026-04-22T08:34:01.999Z</time></trkpt><trkpt lat="44.344702022165585" lon="8.53979119872199"><ele>38.66666666666667</ele><time>2026-04-22T08:34:02.999Z</time></trkpt><trkpt lat="44.34453695320137" lon="8.539645451584496"><ele>40.0</ele><time>2026-04-22T08:34:03.999Z</time></trkpt><trkpt lat="44.344366754902204" lon="8.539497446673817"><ele>40.0</ele><time>2026-04-22T08:34:04.999Z</time></trkpt><trkpt lat="44.34420328811218" lon="8.53935112367459"><ele>40.0</ele><time>2026-04-22T08:34:05.999Z</time></trkpt><trkpt lat="44.34404139644013" lon="8.53919815545782"><ele>40.0</ele><time>2026-04-22T08:34:06.999Z</time></trkpt><trkpt lat="44.34388559330158" lon="8.53905163782608"><ele>46.66666666666667</ele><time>2026-04-22T08:34:07.999Z</time></trkpt><trkpt lat="44.34372910702173" lon="8.538902166540147"><ele>53.333333333333336</ele><time>2026-04-22T08:34:08.999Z</time></trkpt><trkpt lat="44.343570181881304" lon="8.538753655104564"><ele>60.0</ele><time>2026-04-22T08:34:09.999Z</time></trkpt><trkpt lat="44.34340922243315" lon="8.538606428509668"><ele>62.66666666666667</ele><time>2026-04-22T08:34:10.999Z</time></trkpt><trkpt lat="44.343242411895545" lon="8.538444853452019"><ele>65.33333333333334</ele><time>2026-04-22T08:34:11.999Z</time></trkpt><trkpt lat="44.343081981706085" lon="8.538289578805868"><ele>68.0</ele><time>2026-04-22T08:34:12.999Z</time></trkpt><trkpt lat="44.3429269640154" lon="8.5381246655158"><ele>68.0</ele><time>2026-04-22T08:34:13.999Z</time></trkpt><trkpt lat="44.34274958891365" lon="8.537940634478009"><ele>68.0</ele><time>2026-04-22T08:34:15.069Z</time></trkpt><trkpt lat="44.34255514835594" lon="8.53776935698179"><ele>68.66666666666667</ele><time>2026-04-22T08:34:16.059Z</time></trkpt><trkpt lat="44.342381385647585" lon="8.53760973719055"><ele>69.33333333333333</ele><time>2026-04-22T08:34:17.059Z</time></trkpt><trkpt lat="44.342212054116445" lon="8.53744674029099"><ele>70.0</ele><time>2026-04-22T08:34:18.054Z</time></trkpt><trkpt lat="44.34063006232186" lon="8.535699268452689"><ele>42.0</ele><time>2026-04-22T08:34:21.765Z</time></trkpt><trkpt lat="44.33938375742357" lon="8.533560689277868"><ele>72.0</ele><time>2026-04-22T08:34:23.765Z</time></trkpt><trkpt lat="44.338435694998545" lon="8.531143194154822"><ele>79.0</ele><time>2026-04-22T08:34:25.765Z</time></trkpt><trkpt lat="44.338081263609304" lon="8.529855550965834"><ele>88.0</ele><time>2026-04-22T08:34:26.765Z</time></trkpt><trkpt lat="44.3378216926751" lon="8.528524980395083"><ele>95.0</ele><time>2026-04-22T08:34:27.765Z</time></trkpt><trkpt lat="44.337625264143405" lon="8.527173646405918"><ele>79.0</ele><time>2026-04-22T08:34:28.765Z</time></trkpt><trkpt lat="44.337443691592604" lon="8.52581645261233"><ele>24.0</ele><time>2026-04-22T08:34:29.766Z</time></trkpt><trkpt lat="44.340094081550056" lon="8.535008800384503"><ele>24.0</ele><time>2026-04-22T08:34:30.999Z</time></trkpt><trkpt lat="44.339964422377754" lon="8.534766677763507"><ele>24.0</ele><time>2026-04-22T08:34:31.999Z</time></trkpt><trkpt lat="44.339899332313394" lon="8.534534954129255"><ele>24.0</ele><time>2026-04-22T08:34:32.999Z</time></trkpt><trkpt lat="44.33977868164691" lon="8.534315813974954"><ele>29.333333333333336</ele><time>2026-04-22T08:34:33.999Z</time></trkpt><trkpt lat="44.3396647772234" lon="8.534100375832555"><ele>34.66666666666667</ele><time>2026-04-22T08:34:34.999Z</time></trkpt><trkpt lat="44.33955490076645" lon="8.533879977382878"><ele>40.0</ele><time>2026-04-22T08:34:35.999Z</time></trkpt><trkpt lat="44.3394405482563" lon="8.533670022138333"><ele>40.66666666666667</ele><time>2026-04-22T08:34:36.999Z</time></trkpt><trkpt lat="44.33931051272518" lon="8.533456891368461"><ele>41.333333333333336</ele><time>2026-04-22T08:34:37.999Z</time></trkpt><trkpt lat="44.33917659696157" lon="8.533253504332304"><ele>42.0</ele><time>2026-04-22T08:34:38.999Z</time></trkpt><trkpt lat="44.33909102061243" lon="8.532969518316964"><ele>40.666666666666664</ele><time>2026-04-22T08:34:39.999Z</time></trkpt><trkpt lat="44.33900591579702" lon="8.532727094185153"><ele>39.33333333333333</ele><time>2026-04-22T08:34:40.999Z</time></trkpt><trkpt lat="44.33891009911133" lon="8.532479165076634"><ele>38.0</ele><time>2026-04-22T08:34:41.999Z</time></trkpt><trkpt lat="44.338810680770656" lon="8.532222003200626"><ele>45.33333333333333</ele><time>2026-04-22T08:34:42.999Z</time></trkpt><trkpt lat="44.33871557945615" lon="8.531965223117984"><ele>52.666666666666664</ele><time>2026-04-22T08:34:43.999Z</time></trkpt><trkpt lat="44.33862682129033" lon="8.53170896041098"><ele>60.0</ele><time>2026-04-22T08:34:44.999Z</time></trkpt><trkpt lat="44.33854228058219" lon="8.53143659039486"><ele>64.0</ele><time>2026-04-22T08:34:45.999Z</time></trkpt><trkpt lat="44.338460278422396" lon="8.531156270566767"><ele>68.0</ele><time>2026-04-22T08:34:46.999Z</time></trkpt><trkpt lat="44.3383828875412" lon="8.53088047932681"><ele>72.0</ele><time>2026-04-22T08:34:47.999Z</time></trkpt><trkpt lat="44.33830527106036" lon="8.530596765915254"><ele>74.33333333333333</ele><time>2026-04-22T08:34:48.999Z</time></trkpt><trkpt lat="44.33822716553756" lon="8.530331508763686"><ele>76.66666666666666</ele><time>2026-04-22T08:34:49.999Z</time></trkpt><trkpt lat="44.33814384559138" lon="8.530040361979689"><ele>79.0</ele><time>2026-04-22T08:34:51.063Z</time></trkpt><trkpt lat="44.33806747953802" lon="8.529769319339099"><ele>81.0</ele><time>2026-04-22T08:34:52.055Z</time></trkpt><trkpt lat="44.33799247407979" lon="8.529492729614596"><ele>83.0</ele><time>2026-04-22T08:34:53.057Z</time></trkpt><trkpt lat="44.33791960442" lon="8.529211942175785"><ele>85.0</ele><time>2026-04-22T08:34:54.055Z</time></trkpt><trkpt lat="44.33752633331864" lon="8.526438944598864"><ele>34.0</ele><time>2026-04-22T08:34:57.765Z</time></trkpt><trkpt lat="44.33705744855891" lon="8.523306534296664"><ele>34.0</ele><time>2026-04-22T08:35:18.998Z</time></trkpt><trkpt lat="44.33724214683494" lon="8.523096905593949"><ele>34.0</ele><time>2026-04-22T08:35:19.998Z</time></trkpt><trkpt lat="44.33713719506563" lon="8.522961666585989"><ele>34.0</ele><time>2026-04-22T08:35:20.998Z</time></trkpt><trkpt lat="44.33710465016494" lon="8.522775367929954"><ele>39.66666666666667</ele><time>2026-04-22T08:35:21.998Z</time></trkpt><trkpt lat="44.33707508213427" lon="8.522529072230407"><ele>45.333333333333336</ele><time>2026-04-22T08:35:22.998Z</time></trkpt><trkpt lat="44.33704727632402" lon="8.522280985149141"><ele>51.0</ele><time>2026-04-22T08:35:23.998Z</time></trkpt><trkpt lat="44.337022633765415" lon="8.522031058844416"><ele>57.33333333333333</ele><time>2026-04-22T08:35:25Z</time></trkpt><trkpt lat="44.33699774091512" lon="8.52178383348713"><ele>63.666666666666664</ele><time>2026-04-22T08:35:26Z</time></trkpt><trkpt lat="44.33694990676395" lon="8.52155188917519"><ele>70.0</ele><time>2026-04-22T08:35:27Z</time></trkpt><trkpt lat="44.33691445847611" lon="8.521306912653237"><ele>71.0</ele><time>2026-04-22T08:35:28.057Z</time></trkpt><trkpt lat="44.336882675279725" lon="8.521089357341687"><ele>72.0</ele><time>2026-04-22T08:35:29.057Z</time></trkpt><trkpt lat="44.33684754663307" lon="8.520854169456776"><ele>73.0</ele><time>2026-04-22T08:35:30.056Z</time></trkpt><trkpt lat="44.336253566108795" lon="8.518145486565057"><ele>16.0</ele><time>2026-04-22T08:35:33.764Z</time></trkpt><trkpt lat="44.33583311183788" lon="8.516429093873159"><ele>14.0</ele><time>2026-04-22T08:35:45Z</time></trkpt><trkpt lat="44.33579432226317" lon="8.516158316647322"><ele>12.0</ele><time>2026-04-22T08:35:46Z</time></trkpt><trkpt lat="44.33572375987466" lon="8.515876957058925"><ele>10.0</ele><time>2026-04-22T08:35:47Z</time></trkpt><trkpt lat="44.335700160408905" lon="8.515615235264232"><ele>9.333333333333334</ele><time>2026-04-22T08:35:48Z</time></trkpt><trkpt lat="44.33564501543879" lon="8.515352532882062"><ele>8.666666666666666</ele><time>2026-04-22T08:35:49Z</time></trkpt><trkpt lat="44.33559133819902" lon="8.515083439756955"><ele>8.0</ele><time>2026-04-22T08:35:50Z</time></trkpt><trkpt lat="44.33554207103962" lon="8.51481477382283"><ele>9.0</ele><time>2026-04-22T08:35:50.999Z</time></trkpt><trkpt lat="44.3354936716458" lon="8.51454305405564"><ele>10.0</ele><time>2026-04-22T08:35:51.999Z</time></trkpt><trkpt lat="44.33543666615177" lon="8.514256705153976"><ele>11.0</ele><time>2026-04-22T08:35:52.999Z</time></trkpt><trkpt lat="44.335381888795865" lon="8.513966460763754"><ele>10.666666666666666</ele><time>2026-04-22T08:35:53.999Z</time></trkpt><trkpt lat="44.33533174708999" lon="8.513674466456635"><ele>10.333333333333334</ele><time>2026-04-22T08:35:54.999Z</time></trkpt><trkpt lat="44.335275532014464" lon="8.513376909392951"><ele>10.0</ele><time>2026-04-22T08:35:55.999Z</time></trkpt><trkpt lat="44.33522183703955" lon="8.513082692431674"><ele>10.333333333333334</ele><time>2026-04-22T08:35:56.999Z</time></trkpt><trkpt lat="44.3351656883271" lon="8.512779958960062"><ele>10.666666666666666</ele><time>2026-04-22T08:35:57.999Z</time></trkpt><trkpt lat="44.33511109589938" lon="8.512477643180409"><ele>11.0</ele><time>2026-04-22T08:35:58.999Z</time></trkpt><trkpt lat="44.33506072208971" lon="8.5121747805654"><ele>10.666666666666666</ele><time>2026-04-22T08:35:59.999Z</time></trkpt><trkpt lat="44.335013390296616" lon="8.51186943108522"><ele>10.333333333333334</ele><time>2026-04-22T08:36:00.999Z</time></trkpt><trkpt lat="44.33497661783664" lon="8.511564335184561"><ele>10.0</ele><time>2026-04-22T08:36:01.999Z</time></trkpt><trkpt lat="44.334946804705545" lon="8.511255820591096"><ele>9.666666666666668</ele><time>2026-04-22T08:36:02.999Z</time></trkpt><trkpt lat="44.3349244192483" lon="8.510943289232554"><ele>9.333333333333334</ele><time>2026-04-22T08:36:03.999Z</time></trkpt><trkpt lat="44.33490851564173" lon="8.510631326970845"><ele>9.0</ele><time>2026-04-22T08:36:04.999Z</time></trkpt><trkpt lat="44.33489268635902" lon="8.51030978881166"><ele>9.0</ele><time>2026-04-22T08:36:05.999Z</time></trkpt><trkpt lat="44.33488998352065" lon="8.50999653538343"><ele>9.0</ele><time>2026-04-22T08:36:06.999Z</time></trkpt><trkpt lat="44.33489100940122" lon="8.509680279126105"><ele>8.0</ele><time>2026-04-22T08:36:07.999Z</time></trkpt><trkpt lat="44.33489728128622" lon="8.50935638275407"><ele>7.0</ele><time>2026-04-22T08:36:08.999Z</time></trkpt><trkpt lat="44.33491037094057" lon="8.509036290654619"><ele>7.0</ele><time>2026-04-22T08:36:09.999Z</time></trkpt><trkpt lat="44.334924685355446" lon="8.50872688277834"><ele>7.0</ele><time>2026-04-22T08:36:10.999Z</time></trkpt><trkpt lat="44.334938742133836" lon="8.508416624533812"><ele>7.0</ele><time>2026-04-22T08:36:11.999Z</time></trkpt><trkpt lat="44.33495491012232" lon="8.50811297304862"><ele>7.0</ele><time>2026-04-22T08:36:12.999Z</time></trkpt><trkpt lat="44.33497281693729" lon="8.50780541214354"><ele>7.0</ele><time>2026-04-22T08:36:13.999Z</time></trkpt><trkpt lat="44.334987488382" lon="8.507503196266196"><ele>7.0</ele><time>2026-04-22T08:36:14.999Z</time></trkpt><trkpt lat="44.335004157545264" lon="8.507204612836668"><ele>6.666666666666667</ele><time>2026-04-22T08:36:15.999Z</time></trkpt><trkpt lat="44.335021405884135" lon="8.506903106105925"><ele>6.333333333333334</ele><time>2026-04-22T08:36:16.999Z</time></trkpt><trkpt lat="44.33503667415332" lon="8.506605420156928"><ele>6.0</ele><time>2026-04-22T08:36:17.999Z</time></trkpt><trkpt lat="44.335050838393585" lon="8.5063099014044"><ele>5.333333333333333</ele><time>2026-04-22T08:36:18.999Z</time></trkpt><trkpt lat="44.335066799781124" lon="8.506021372687645"><ele>4.666666666666666</ele><time>2026-04-22T08:36:19.999Z</time></trkpt><trkpt lat="44.33508188331802" lon="8.505734342366493"><ele>4.0</ele><time>2026-04-22T08:36:20.999Z</time></trkpt><trkpt lat="44.33509566169452" lon="8.505451963851726"><ele>4.333333333333333</ele><time>2026-04-22T08:36:21.999Z</time></trkpt><trkpt lat="44.33510273245569" lon="8.505164968875295"><ele>4.666666666666667</ele><time>2026-04-22T08:36:22.999Z</time></trkpt><trkpt lat="44.335105157846634" lon="8.504880986836811"><ele>5.0</ele><time>2026-04-22T08:36:23.999Z</time></trkpt><trkpt lat="44.33510079405813" lon="8.50460010279846"><ele>5.666666666666667</ele><time>2026-04-22T08:36:24.999Z</time></trkpt><trkpt lat="44.335086166615085" lon="8.504309641017121"><ele>6.333333333333334</ele><time>2026-04-22T08:36:25.999Z</time></trkpt><trkpt lat="44.33505927659764" lon="8.504019498418554"><ele>7.0</ele><time>2026-04-22T08:36:26.999Z</time></trkpt><trkpt lat="44.33502034675101" lon="8.503730273537071"><ele>8.0</ele><time>2026-04-22T08:36:27.999Z</time></trkpt><trkpt lat="44.334971902219955" lon="8.503445631403979"><ele>9.0</ele><time>2026-04-22T08:36:28.999Z</time></trkpt><trkpt lat="44.33491170433432" lon="8.503160368976825"><ele>10.0</ele><time>2026-04-22T08:36:29.999Z</time></trkpt><trkpt lat="44.3348381660353" lon="8.502880101557576"><ele>11.333333333333334</ele><time>2026-04-22T08:36:30.999Z</time></trkpt><trkpt lat="44.334751295673534" lon="8.502604197382581"><ele>12.666666666666668</ele><time>2026-04-22T08:36:31.999Z</time></trkpt><trkpt lat="44.33464979167686" lon="8.502329126751597"><ele>14.0</ele><time>2026-04-22T08:36:32.999Z</time></trkpt><trkpt lat="44.3345339139128" lon="8.502056473561929"><ele>17.5</ele><time>2026-04-22T08:36:33.999Z</time></trkpt><trkpt lat="44.33440701426675" lon="8.501793445834497"><ele>21.0</ele><time>2026-04-22T08:36:34.999Z</time></trkpt><trkpt lat="44.33426894230966" lon="8.5015381265352"><ele>21.0</ele><time>2026-04-22T08:36:35.999Z</time></trkpt><trkpt lat="44.334115625262356" lon="8.50129695234647"><ele>21.0</ele><time>2026-04-22T08:36:36.999Z</time></trkpt><trkpt lat="44.33395704593673" lon="8.50107141903637"><ele>27.333333333333336</ele><time>2026-04-22T08:36:37.999Z</time></trkpt><trkpt lat="44.33379759033906" lon="8.500872697449745"><ele>33.66666666666667</ele><time>2026-04-22T08:36:38.999Z</time></trkpt><trkpt lat="44.333637250289534" lon="8.500684910404061"><ele>40.0</ele><time>2026-04-22T08:36:39.999Z</time></trkpt><trkpt lat="44.33347464388281" lon="8.500509924108721"><ele>42.66666666666667</ele><time>2026-04-22T08:36:40.999Z</time></trkpt><trkpt lat="44.33330742190432" lon="8.50035996518109"><ele>45.333333333333336</ele><time>2026-04-22T08:36:41.999Z</time></trkpt><trkpt lat="44.333127870997984" lon="8.500214537858955"><ele>48.0</ele><time>2026-04-22T08:36:42.999Z</time></trkpt><trkpt lat="44.33293534559917" lon="8.500074143311693"><ele>55.5</ele><time>2026-04-22T08:36:43.999Z</time></trkpt><trkpt lat="44.33272808549194" lon="8.499935673478609"><ele>63.0</ele><time>2026-04-22T08:36:44.999Z</time></trkpt><trkpt lat="44.33250620294389" lon="8.499800605452451"><ele>63.0</ele><time>2026-04-22T08:36:45.999Z</time></trkpt><trkpt lat="44.332268127965975" lon="8.499659846899487"><ele>63.0</ele><time>2026-04-22T08:36:47.068Z</time></trkpt><trkpt lat="44.33205390770846" lon="8.499534319955686"><ele>57.0</ele><time>2026-04-22T08:36:48.054Z</time></trkpt><trkpt lat="44.33183935455228" lon="8.499406989150565"><ele>51.0</ele><time>2026-04-22T08:36:49.058Z</time></trkpt><trkpt lat="44.33162070800055" lon="8.499274345286159"><ele>36.0</ele><time>2026-04-22T08:36:50.055Z</time></trkpt><trkpt lat="44.331007183236224" lon="8.498684529994213"><ele>36.0</ele><time>2026-04-22T08:36:54.999Z</time></trkpt><trkpt lat="44.33068628765942" lon="8.498556445332818"><ele>36.0</ele><time>2026-04-22T08:36:55.999Z</time></trkpt><trkpt lat="44.33050889463081" lon="8.498372391319245"><ele>41.66666666666667</ele><time>2026-04-22T08:36:56.999Z</time></trkpt><trkpt lat="44.33033811892528" lon="8.498191839650342"><ele>47.333333333333336</ele><time>2026-04-22T08:36:57.999Z</time></trkpt><trkpt lat="44.330165452990094" lon="8.498010120151903"><ele>53.0</ele><time>2026-04-22T08:36:58.998Z</time></trkpt><trkpt lat="44.33000300842292" lon="8.497826500461404"><ele>82.0</ele><time>2026-04-22T08:36:59.998Z</time></trkpt><trkpt lat="44.32751020202406" lon="8.494707372911849"><ele>77.0</ele><time>2026-04-22T08:37:09.764Z</time></trkpt><trkpt lat="44.326775747852054" lon="8.493782229544701"><ele>74.0</ele><time>2026-04-22T08:37:10.764Z</time></trkpt><trkpt lat="44.326039127145286" lon="8.492857405451987"><ele>97.0</ele><time>2026-04-22T08:37:11.766Z</time></trkpt><trkpt lat="44.32530656819439" lon="8.491935799305486"><ele>64.0</ele><time>2026-04-22T08:37:12.763Z</time></trkpt><trkpt lat="44.32457186301965" lon="8.491011605655133"><ele>71.0</ele><time>2026-04-22T08:37:13.763Z</time></trkpt><trkpt lat="44.32392047826738" lon="8.489976699812933"><ele>66.0</ele><time>2026-04-22T08:37:14.763Z</time></trkpt><trkpt lat="44.32358610434339" lon="8.489164377509729"><ele>66.0</ele><time>2026-04-22T08:37:44.998Z</time></trkpt><trkpt lat="44.323448460337865" lon="8.489004853994802"><ele>66.0</ele><time>2026-04-22T08:37:45.998Z</time></trkpt><trkpt lat="44.32330279382363" lon="8.488824653613191"><ele>66.0</ele><time>2026-04-22T08:37:46.998Z</time></trkpt><trkpt lat="44.32333711457315" lon="8.488344812819063"><ele>67.66666666666667</ele><time>2026-04-22T08:37:47.998Z</time></trkpt><trkpt lat="44.32327284880143" lon="8.488057686687497"><ele>69.33333333333334</ele><time>2026-04-22T08:37:48.998Z</time></trkpt><trkpt lat="44.32319990244139" lon="8.48775543307164"><ele>71.0</ele><time>2026-04-22T08:37:49.998Z</time></trkpt><trkpt lat="44.323130639558336" lon="8.487446843377425"><ele>73.66666666666667</ele><time>2026-04-22T08:37:51Z</time></trkpt><trkpt lat="44.32306268052164" lon="8.487153959857169"><ele>76.33333333333333</ele><time>2026-04-22T08:37:52Z</time></trkpt><trkpt lat="44.32300047783376" lon="8.486859149921427"><ele>79.0</ele><time>2026-04-22T08:37:53Z</time></trkpt><trkpt lat="44.32294343991739" lon="8.486593051891472"><ele>79.0</ele><time>2026-04-22T08:37:54Z</time></trkpt><trkpt lat="44.32288686764505" lon="8.486350219879196"><ele>79.0</ele><time>2026-04-22T08:37:55Z</time></trkpt><trkpt lat="44.322824830529605" lon="8.486084250733072"><ele>79.0</ele><time>2026-04-22T08:37:56Z</time></trkpt><trkpt lat="44.32277003914441" lon="8.485819784300226"><ele>71.0</ele><time>2026-04-22T08:37:57Z</time></trkpt><trkpt lat="44.321516118965" lon="8.482815507788992"><ele>71.0</ele><time>2026-04-22T08:38:09Z</time></trkpt><trkpt lat="44.321371503498575" lon="8.482585563540335"><ele>71.0</ele><time>2026-04-22T08:38:10Z</time></trkpt><trkpt lat="44.321231887333" lon="8.482371033552042"><ele>71.0</ele><time>2026-04-22T08:38:11Z</time></trkpt><trkpt lat="44.321084577992885" lon="8.482181053560005"><ele>69.66666666666667</ele><time>2026-04-22T08:38:12Z</time></trkpt><trkpt lat="44.320930525133036" lon="8.481971107599431"><ele>68.33333333333333</ele><time>2026-04-22T08:38:13Z</time></trkpt><trkpt lat="44.320772410559265" lon="8.481781404632269"><ele>67.0</ele><time>2026-04-22T08:38:14Z</time></trkpt><trkpt lat="44.320633988405575" lon="8.48159429181297"><ele>66.0</ele><time>2026-04-22T08:38:15Z</time></trkpt><trkpt lat="44.32049559137476" lon="8.481416915689607"><ele>65.0</ele><time>2026-04-22T08:38:16Z</time></trkpt><trkpt lat="44.320360818776045" lon="8.481242968899087"><ele>64.0</ele><time>2026-04-22T08:38:17Z</time></trkpt><trkpt lat="44.320220818632855" lon="8.481064201889366"><ele>62.666666666666664</ele><time>2026-04-22T08:38:18Z</time></trkpt><trkpt lat="44.320089451519955" lon="8.480885605451231"><ele>61.33333333333333</ele><time>2026-04-22T08:38:19Z</time></trkpt><trkpt lat="44.31995412701127" lon="8.480699979588211"><ele>60.0</ele><time>2026-04-22T08:38:19.999Z</time></trkpt><trkpt lat="44.31982240886502" lon="8.480481897694208"><ele>58.0</ele><time>2026-04-22T08:38:20.999Z</time></trkpt><trkpt lat="44.3197088276198" lon="8.480282234503054"><ele>56.0</ele><time>2026-04-22T08:38:21.999Z</time></trkpt><trkpt lat="44.31957182447142" lon="8.48010904703484"><ele>54.0</ele><time>2026-04-22T08:38:22.999Z</time></trkpt><trkpt lat="44.31946552246064" lon="8.479886508672287"><ele>54.0</ele><time>2026-04-22T08:38:23.999Z</time></trkpt><trkpt lat="44.31937216899995" lon="8.47966554807727"><ele>54.0</ele><time>2026-04-22T08:38:24.999Z</time></trkpt><trkpt lat="44.31927643082133" lon="8.479436854431325"><ele>54.0</ele><time>2026-04-22T08:38:25.999Z</time></trkpt><trkpt lat="44.3191901841775" lon="8.479195352320724"><ele>56.33333333333333</ele><time>2026-04-22T08:38:26.999Z</time></trkpt><trkpt lat="44.319112250208995" lon="8.478949608869694"><ele>58.666666666666664</ele><time>2026-04-22T08:38:27.999Z</time></trkpt><trkpt lat="44.31904184905309" lon="8.47870395414148"><ele>61.0</ele><time>2026-04-22T08:38:28.999Z</time></trkpt><trkpt lat="44.31898578163004" lon="8.478440300143971"><ele>59.33333333333333</ele><time>2026-04-22T08:38:29.999Z</time></trkpt><trkpt lat="44.31892938803453" lon="8.478182445366704"><ele>57.66666666666667</ele><time>2026-04-22T08:38:30.999Z</time></trkpt><trkpt lat="44.31887799269539" lon="8.477909999986238"><ele>56.0</ele><time>2026-04-22T08:38:31.999Z</time></trkpt><trkpt lat="44.31882987187534" lon="8.477620216696472"><ele>56.0</ele><time>2026-04-22T08:38:32.999Z</time></trkpt><trkpt lat="44.31880250258262" lon="8.477325896678463"><ele>56.0</ele><time>2026-04-22T08:38:33.999Z</time></trkpt><trkpt lat="44.31877567444715" lon="8.477020494984123"><ele>56.0</ele><time>2026-04-22T08:38:34.999Z</time></trkpt><trkpt lat="44.3187511519504" lon="8.476702661858887"><ele>56.5</ele><time>2026-04-22T08:38:35.999Z</time></trkpt><trkpt lat="44.31874825872584" lon="8.476389959717272"><ele>57.0</ele><time>2026-04-22T08:38:36.999Z</time></trkpt><trkpt lat="44.31873587764824" lon="8.47606003498447"><ele>55.0</ele><time>2026-04-22T08:38:37.999Z</time></trkpt><trkpt lat="44.31872248881417" lon="8.475736929857643"><ele>53.0</ele><time>2026-04-22T08:38:38.999Z</time></trkpt><trkpt lat="44.31870686081281" lon="8.475432867234822"><ele>53.0</ele><time>2026-04-22T08:38:39.999Z</time></trkpt><trkpt lat="44.318690433253536" lon="8.47515529350099"><ele>53.0</ele><time>2026-04-22T08:38:40.999Z</time></trkpt><trkpt lat="44.31867681135228" lon="8.474844400969168"><ele>53.0</ele><time>2026-04-22T08:38:41.999Z</time></trkpt><trkpt lat="44.31865862210447" lon="8.474551003492163"><ele>52.66666666666667</ele><time>2026-04-22T08:38:42.999Z</time></trkpt><trkpt lat="44.31862001251383" lon="8.474264476606333"><ele>52.33333333333333</ele><time>2026-04-22T08:38:43.999Z</time></trkpt><trkpt lat="44.31859347423892" lon="8.473997292515032"><ele>52.0</ele><time>2026-04-22T08:38:44.999Z</time></trkpt><trkpt lat="44.31857034841813" lon="8.473711162331062"><ele>49.33333333333333</ele><time>2026-04-22T08:38:45.999Z</time></trkpt><trkpt lat="44.318525420143985" lon="8.47345145121396"><ele>46.666666666666664</ele><time>2026-04-22T08:38:46.999Z</time></trkpt><trkpt lat="44.318458256787586" lon="8.473199093170944"><ele>44.0</ele><time>2026-04-22T08:38:47.999Z</time></trkpt><trkpt lat="44.31839993362735" lon="8.4729411471334"><ele>39.666666666666664</ele><time>2026-04-22T08:38:48.999Z</time></trkpt><trkpt lat="44.31831646189225" lon="8.47268285686049"><ele>35.333333333333336</ele><time>2026-04-22T08:38:49.999Z</time></trkpt><trkpt lat="44.318229508535524" lon="8.47243063598368"><ele>31.0</ele><time>2026-04-22T08:38:50.999Z</time></trkpt><trkpt lat="44.31813936548157" lon="8.472190756362636"><ele>28.333333333333336</ele><time>2026-04-22T08:38:51.999Z</time></trkpt><trkpt lat="44.31804101910461" lon="8.471963996251857"><ele>25.666666666666668</ele><time>2026-04-22T08:38:52.999Z</time></trkpt><trkpt lat="44.31793410109865" lon="8.471752344458954"><ele>23.0</ele><time>2026-04-22T08:38:53.999Z</time></trkpt><trkpt lat="44.317817880018126" lon="8.471546180719256"><ele>23.0</ele><time>2026-04-22T08:38:54.999Z</time></trkpt><trkpt lat="44.317693662508766" lon="8.47134809008802"><ele>23.0</ele><time>2026-04-22T08:38:55.999Z</time></trkpt><trkpt lat="44.3175608577957" lon="8.47116185781765"><ele>23.0</ele><time>2026-04-22T08:38:56.999Z</time></trkpt><trkpt lat="44.31742281643996" lon="8.470984436154694"><ele>22.0</ele><time>2026-04-22T08:38:57.999Z</time></trkpt><trkpt lat="44.31727999025594" lon="8.470817293790779"><ele>21.0</ele><time>2026-04-22T08:38:58.999Z</time></trkpt><trkpt lat="44.31713441322411" lon="8.470662400231268"><ele>20.0</ele><time>2026-04-22T08:38:59.999Z</time></trkpt><trkpt lat="44.31697783972034" lon="8.470518653970755"><ele>21.0</ele><time>2026-04-22T08:39:00.999Z</time></trkpt><trkpt lat="44.31681302315487" lon="8.470376245282916"><ele>22.0</ele><time>2026-04-22T08:39:01.999Z</time></trkpt><trkpt lat="44.31663878417319" lon="8.47024385191038"><ele>23.0</ele><time>2026-04-22T08:39:02.999Z</time></trkpt><trkpt lat="44.316460161211005" lon="8.47013119943442"><ele>29.666666666666668</ele><time>2026-04-22T08:39:03.999Z</time></trkpt><trkpt lat="44.31627525522023" lon="8.470021901655578"><ele>36.333333333333336</ele><time>2026-04-22T08:39:04.999Z</time></trkpt><trkpt lat="44.316090392856694" lon="8.46991904055826"><ele>43.0</ele><time>2026-04-22T08:39:05.999Z</time></trkpt><trkpt lat="44.3159134572375" lon="8.469813528100671"><ele>43.0</ele><time>2026-04-22T08:39:06.999Z</time></trkpt><trkpt lat="44.31573056198705" lon="8.469708517770359"><ele>43.0</ele><time>2026-04-22T08:39:07.999Z</time></trkpt><trkpt lat="44.31554791222279" lon="8.469597278082032"><ele>43.0</ele><time>2026-04-22T08:39:08.999Z</time></trkpt><trkpt lat="44.315369527774486" lon="8.46949060939535"><ele>52.66666666666667</ele><time>2026-04-22T08:39:09.999Z</time></trkpt><trkpt lat="44.315188613158824" lon="8.469377871112233"><ele>62.333333333333336</ele><time>2026-04-22T08:39:10.999Z</time></trkpt><trkpt lat="44.31502332332945" lon="8.469269174345637"><ele>72.0</ele><time>2026-04-22T08:39:11.999Z</time></trkpt><trkpt lat="44.31485184429075" lon="8.469159260721302"><ele>70.66666666666667</ele><time>2026-04-22T08:39:12.999Z</time></trkpt><trkpt lat="44.31467915342609" lon="8.469047176837682"><ele>69.33333333333334</ele><time>2026-04-22T08:39:13.999Z</time></trkpt><trkpt lat="44.314510127978586" lon="8.468934967145016"><ele>68.0</ele><time>2026-04-22T08:39:14.999Z</time></trkpt><trkpt lat="44.314344502659566" lon="8.468828712236773"><ele>65.66666666666667</ele><time>2026-04-22T08:39:15.999Z</time></trkpt><trkpt lat="44.31417563249316" lon="8.46871695348693"><ele>63.33333333333333</ele><time>2026-04-22T08:39:17.071Z</time></trkpt><trkpt lat="44.31404313161326" lon="8.468619980476792"><ele>61.0</ele><time>2026-04-22T08:39:18.058Z</time></trkpt><trkpt lat="44.313886286101706" lon="8.468513917979703"><ele>61.0</ele><time>2026-04-22T08:39:19.056Z</time></trkpt><trkpt lat="44.31327300138974" lon="8.468354559668278"><ele>61.0</ele><time>2026-04-22T08:39:21.999Z</time></trkpt><trkpt lat="44.31313147918152" lon="8.468272762638081"><ele>61.0</ele><time>2026-04-22T08:39:22.999Z</time></trkpt><trkpt lat="44.31297332994918" lon="8.46817835784725"><ele>61.0</ele><time>2026-04-22T08:39:23.999Z</time></trkpt><trkpt lat="44.31280656459212" lon="8.4680814697704"><ele>61.33333333333333</ele><time>2026-04-22T08:39:24.999Z</time></trkpt><trkpt lat="44.31264343690695" lon="8.467983706771118"><ele>61.66666666666667</ele><time>2026-04-22T08:39:25.999Z</time></trkpt><trkpt lat="44.312479591362155" lon="8.467889032643233"><ele>62.0</ele><time>2026-04-22T08:39:26.999Z</time></trkpt><trkpt lat="44.31231445827054" lon="8.467793957021572"><ele>56.66666666666667</ele><time>2026-04-22T08:39:27.998Z</time></trkpt><trkpt lat="44.31214283769395" lon="8.467701963994433"><ele>51.333333333333336</ele><time>2026-04-22T08:39:28.998Z</time></trkpt><trkpt lat="44.31197206141693" lon="8.467609141628209"><ele>46.0</ele><time>2026-04-22T08:39:29.998Z</time></trkpt><trkpt lat="44.311797492952664" lon="8.467514798608455"><ele>46.0</ele><time>2026-04-22T08:39:30.998Z</time></trkpt><trkpt lat="44.311615761578004" lon="8.467412667477717"><ele>46.0</ele><time>2026-04-22T08:39:31.998Z</time></trkpt><trkpt lat="44.31142195513173" lon="8.467305224575195"><ele>46.0</ele><time>2026-04-22T08:39:32.998Z</time></trkpt><trkpt lat="44.311226599645934" lon="8.467196194492576"><ele>50.333333333333336</ele><time>2026-04-22T08:39:33.998Z</time></trkpt><trkpt lat="44.31104145955766" lon="8.467089277580811"><ele>54.66666666666667</ele><time>2026-04-22T08:39:34.998Z</time></trkpt><trkpt lat="44.310856184765946" lon="8.46698341966375"><ele>59.0</ele><time>2026-04-22T08:39:35.998Z</time></trkpt><trkpt lat="44.31066603295163" lon="8.466873925759046"><ele>58.66666666666667</ele><time>2026-04-22T08:39:36.998Z</time></trkpt><trkpt lat="44.31047320729229" lon="8.466766756396625"><ele>58.33333333333333</ele><time>2026-04-22T08:39:37.998Z</time></trkpt><trkpt lat="44.3102805852429" lon="8.466660542254118"><ele>58.0</ele><time>2026-04-22T08:39:38.998Z</time></trkpt><trkpt lat="44.3100935922922" lon="8.466558763950314"><ele>58.0</ele><time>2026-04-22T08:39:39.998Z</time></trkpt><trkpt lat="44.30990130443427" lon="8.466455431574254"><ele>58.0</ele><time>2026-04-22T08:39:40.998Z</time></trkpt><trkpt lat="44.30968238425024" lon="8.466335989866947"><ele>58.0</ele><time>2026-04-22T08:39:41.998Z</time></trkpt><trkpt lat="44.30951111733984" lon="8.466181361154991"><ele>59.33333333333333</ele><time>2026-04-22T08:39:42.998Z</time></trkpt><trkpt lat="44.30934542752627" lon="8.466072871522147"><ele>60.66666666666667</ele><time>2026-04-22T08:39:43.998Z</time></trkpt><trkpt lat="44.30916554337312" lon="8.465944033712152"><ele>62.0</ele><time>2026-04-22T08:39:44.998Z</time></trkpt><trkpt lat="44.308992625319306" lon="8.46580195880454"><ele>61.333333333333336</ele><time>2026-04-22T08:39:45.998Z</time></trkpt><trkpt lat="44.30881668769901" lon="8.465662184774862"><ele>60.66666666666667</ele><time>2026-04-22T08:39:46.998Z</time></trkpt><trkpt lat="44.30864687732535" lon="8.46551397420042"><ele>60.0</ele><time>2026-04-22T08:39:47.998Z</time></trkpt><trkpt lat="44.30848068049326" lon="8.465363573280213"><ele>60.0</ele><time>2026-04-22T08:39:48.998Z</time></trkpt><trkpt lat="44.30831593446197" lon="8.465209774165803"><ele>60.0</ele><time>2026-04-22T08:39:49.998Z</time></trkpt><trkpt lat="44.308157233049414" lon="8.46505340682685"><ele>60.0</ele><time>2026-04-22T08:39:50.998Z</time></trkpt><trkpt lat="44.30799962368526" lon="8.464893668481302"><ele>60.33333333333333</ele><time>2026-04-22T08:39:51.998Z</time></trkpt><trkpt lat="44.307838568441404" lon="8.464721416324581"><ele>60.666666666666664</ele><time>2026-04-22T08:39:52.998Z</time></trkpt><trkpt lat="44.30767753301764" lon="8.46454240725474"><ele>61.0</ele><time>2026-04-22T08:39:53.998Z</time></trkpt><trkpt lat="44.30752956931031" lon="8.464363224944362"><ele>61.0</ele><time>2026-04-22T08:39:54.998Z</time></trkpt><trkpt lat="44.307388330806155" lon="8.464193923040058"><ele>61.0</ele><time>2026-04-22T08:39:56Z</time></trkpt><trkpt lat="44.30725411796402" lon="8.464014779201353"><ele>61.0</ele><time>2026-04-22T08:39:57Z</time></trkpt><trkpt lat="44.30712113963417" lon="8.463835917313896"><ele>60.666666666666664</ele><time>2026-04-22T08:39:58Z</time></trkpt><trkpt lat="44.306984792890994" lon="8.463644775137364"><ele>60.33333333333333</ele><time>2026-04-22T08:39:59Z</time></trkpt><trkpt lat="44.306848598611936" lon="8.463445215781558"><ele>60.0</ele><time>2026-04-22T08:40:00Z</time></trkpt><trkpt lat="44.30671902660164" lon="8.463240349804678"><ele>60.0</ele><time>2026-04-22T08:40:01Z</time></trkpt><trkpt lat="44.30659993060634" lon="8.463047735008212"><ele>60.0</ele><time>2026-04-22T08:40:02Z</time></trkpt><trkpt lat="44.306489354173884" lon="8.462860887307578"><ele>60.0</ele><time>2026-04-22T08:40:03Z</time></trkpt><trkpt lat="44.30638417656973" lon="8.462677804068967"><ele>60.66666666666667</ele><time>2026-04-22T08:40:04Z</time></trkpt><trkpt lat="44.306281386313444" lon="8.462491105217655"><ele>61.333333333333336</ele><time>2026-04-22T08:40:05Z</time></trkpt><trkpt lat="44.306175838744785" lon="8.462290789823921"><ele>62.0</ele><time>2026-04-22T08:40:06Z</time></trkpt><trkpt lat="44.30606068066801" lon="8.462065785372785"><ele>62.0</ele><time>2026-04-22T08:40:07Z</time></trkpt><trkpt lat="44.30594760737167" lon="8.461832556532238"><ele>62.0</ele><time>2026-04-22T08:40:08Z</time></trkpt><trkpt lat="44.3058320155894" lon="8.461585097261464"><ele>62.0</ele><time>2026-04-22T08:40:09Z</time></trkpt><trkpt lat="44.30571813653441" lon="8.461322008651713"><ele>64.66666666666667</ele><time>2026-04-22T08:40:10Z</time></trkpt><trkpt lat="44.305604495445195" lon="8.461049491936105"><ele>67.33333333333333</ele><time>2026-04-22T08:40:11Z</time></trkpt><trkpt lat="44.3055029058998" lon="8.460792598930837"><ele>70.0</ele><time>2026-04-22T08:40:12Z</time></trkpt><trkpt lat="44.305409519566545" lon="8.460544314339623"><ele>66.0</ele><time>2026-04-22T08:40:13Z</time></trkpt><trkpt lat="44.305323657160024" lon="8.46030068549235"><ele>62.0</ele><time>2026-04-22T08:40:14Z</time></trkpt><trkpt lat="44.30524501178498" lon="8.460063849768746"><ele>58.0</ele><time>2026-04-22T08:40:15Z</time></trkpt><trkpt lat="44.30517209799347" lon="8.459832392930076"><ele>57.666666666666664</ele><time>2026-04-22T08:40:16Z</time></trkpt><trkpt lat="44.30510090944883" lon="8.459596704928622"><ele>57.33333333333333</ele><time>2026-04-22T08:40:16.999Z</time></trkpt><trkpt lat="44.30503314473085" lon="8.459348156889257"><ele>57.0</ele><time>2026-04-22T08:40:17.999Z</time></trkpt><trkpt lat="44.30497255286717" lon="8.459088497169855"><ele>57.0</ele><time>2026-04-22T08:40:18.999Z</time></trkpt><trkpt lat="44.30491270717718" lon="8.458819482756107"><ele>57.0</ele><time>2026-04-22T08:40:19.999Z</time></trkpt><trkpt lat="44.30485751624824" lon="8.4585510349893"><ele>57.0</ele><time>2026-04-22T08:40:20.999Z</time></trkpt><trkpt lat="44.30480207947273" lon="8.458283051163358"><ele>53.666666666666664</ele><time>2026-04-22T08:40:21.999Z</time></trkpt><trkpt lat="44.3047494547696" lon="8.458021245823751"><ele>50.33333333333333</ele><time>2026-04-22T08:40:22.999Z</time></trkpt><trkpt lat="44.30470452449619" lon="8.457747621300804"><ele>47.0</ele><time>2026-04-22T08:40:23.999Z</time></trkpt><trkpt lat="44.30466151010836" lon="8.457470556002855"><ele>46.666666666666664</ele><time>2026-04-22T08:40:24.999Z</time></trkpt><trkpt lat="44.30462248486021" lon="8.457186569100893"><ele>46.333333333333336</ele><time>2026-04-22T08:40:25.999Z</time></trkpt><trkpt lat="44.30458799161366" lon="8.456895115400076"><ele>46.0</ele><time>2026-04-22T08:40:26.999Z</time></trkpt><trkpt lat="44.304554658052524" lon="8.456606166507951"><ele>46.0</ele><time>2026-04-22T08:40:27.999Z</time></trkpt><trkpt lat="44.30452588420927" lon="8.456322433772913"><ele>46.0</ele><time>2026-04-22T08:40:28.999Z</time></trkpt><trkpt lat="44.30449777521091" lon="8.45604742436079"><ele>46.0</ele><time>2026-04-22T08:40:29.999Z</time></trkpt><trkpt lat="44.30446891976265" lon="8.455772803431186"><ele>45.0</ele><time>2026-04-22T08:40:30.999Z</time></trkpt><trkpt lat="44.30443969375119" lon="8.455496753293335"><ele>44.0</ele><time>2026-04-22T08:40:31.999Z</time></trkpt><trkpt lat="44.30440928946122" lon="8.455219419807554"><ele>43.0</ele><time>2026-04-22T08:40:32.999Z</time></trkpt><trkpt lat="44.304380566986175" lon="8.454943190045256"><ele>42.333333333333336</ele><time>2026-04-22T08:40:33.999Z</time></trkpt><trkpt lat="44.30435057932438" lon="8.45466900785653"><ele>41.666666666666664</ele><time>2026-04-22T08:40:34.999Z</time></trkpt><trkpt lat="44.3043201493233" lon="8.454390738699914"><ele>41.0</ele><time>2026-04-22T08:40:35.999Z</time></trkpt><trkpt lat="44.30429184736386" lon="8.45411368398714"><ele>40.33333333333333</ele><time>2026-04-22T08:40:36.999Z</time></trkpt><trkpt lat="44.30426230260991" lon="8.453839013057287"><ele>39.666666666666664</ele><time>2026-04-22T08:40:37.999Z</time></trkpt><trkpt lat="44.30423089345754" lon="8.453563109485218"><ele>39.0</ele><time>2026-04-22T08:40:38.999Z</time></trkpt><trkpt lat="44.3041977561297" lon="8.453290415265087"><ele>39.0</ele><time>2026-04-22T08:40:39.999Z</time></trkpt><trkpt lat="44.30416736931344" lon="8.453022381676595"><ele>39.0</ele><time>2026-04-22T08:40:40.999Z</time></trkpt><trkpt lat="44.304133142299264" lon="8.452752734472652"><ele>39.0</ele><time>2026-04-22T08:40:41.999Z</time></trkpt><trkpt lat="44.304091103020525" lon="8.452477855354307"><ele>38.0</ele><time>2026-04-22T08:40:42.999Z</time></trkpt><trkpt lat="44.30403897915262" lon="8.452196922731892"><ele>37.0</ele><time>2026-04-22T08:40:43.999Z</time></trkpt><trkpt lat="44.30397855145257" lon="8.451915655697503"><ele>36.0</ele><time>2026-04-22T08:40:44.999Z</time></trkpt><trkpt lat="44.30390874192621" lon="8.451636770926234"><ele>33.0</ele><time>2026-04-22T08:40:45.999Z</time></trkpt><trkpt lat="44.30383054858944" lon="8.45136089611191"><ele>30.0</ele><time>2026-04-22T08:40:46.999Z</time></trkpt><trkpt lat="44.30374587574599" lon="8.451085947690647"><ele>27.0</ele><time>2026-04-22T08:40:47.999Z</time></trkpt><trkpt lat="44.30365709093182" lon="8.450822969339207"><ele>27.0</ele><time>2026-04-22T08:40:48.999Z</time></trkpt><trkpt lat="44.303564119417274" lon="8.450574975355643"><ele>27.0</ele><time>2026-04-22T08:40:49.999Z</time></trkpt><trkpt lat="44.30346874409371" lon="8.450336542331337"><ele>27.0</ele><time>2026-04-22T08:40:50.999Z</time></trkpt><trkpt lat="44.303369398807305" lon="8.450095966267366"><ele>27.666666666666664</ele><time>2026-04-22T08:40:51.999Z</time></trkpt><trkpt lat="44.303264413004676" lon="8.449864693850152"><ele>28.333333333333332</ele><time>2026-04-22T08:40:52.999Z</time></trkpt><trkpt lat="44.303153778415016" lon="8.449638459898104"><ele>29.0</ele><time>2026-04-22T08:40:53.999Z</time></trkpt><trkpt lat="44.30303517776748" lon="8.449420115366634"><ele>28.333333333333332</ele><time>2026-04-22T08:40:54.999Z</time></trkpt><trkpt lat="44.302919568996884" lon="8.449207260306547"><ele>27.666666666666664</ele><time>2026-04-22T08:40:55.999Z</time></trkpt><trkpt lat="44.302806853378115" lon="8.448996796450734"><ele>27.0</ele><time>2026-04-22T08:40:56.999Z</time></trkpt><trkpt lat="44.30270486683955" lon="8.448787747597105"><ele>27.0</ele><time>2026-04-22T08:40:57.999Z</time></trkpt><trkpt lat="44.30259387923453" lon="8.44858321460202"><ele>27.0</ele><time>2026-04-22T08:40:58.999Z</time></trkpt><trkpt lat="44.30239920773464" lon="8.448417147187074"><ele>27.0</ele><time>2026-04-22T08:40:59.999Z</time></trkpt><trkpt lat="44.30225196579759" lon="8.4482449179253"><ele>29.0</ele><time>2026-04-22T08:41:00.999Z</time></trkpt><trkpt lat="44.30210731362925" lon="8.448075202665747"><ele>31.0</ele><time>2026-04-22T08:41:01.999Z</time></trkpt><trkpt lat="44.301958928805114" lon="8.447907437337571"><ele>33.0</ele><time>2026-04-22T08:41:02.999Z</time></trkpt><trkpt lat="44.30180997138235" lon="8.447744630752494"><ele>35.666666666666664</ele><time>2026-04-22T08:41:03.999Z</time></trkpt><trkpt lat="44.30165385373544" lon="8.447585872686709"><ele>38.33333333333333</ele><time>2026-04-22T08:41:04.999Z</time></trkpt><trkpt lat="44.301494256093434" lon="8.447434589072849"><ele>41.0</ele><time>2026-04-22T08:41:05.999Z</time></trkpt><trkpt lat="44.30131950228617" lon="8.447296040461607"><ele>41.0</ele><time>2026-04-22T08:41:06.999Z</time></trkpt><trkpt lat="44.30112420836954" lon="8.44717240106541"><ele>41.0</ele><time>2026-04-22T08:41:07.999Z</time></trkpt><trkpt lat="44.300909912953465" lon="8.447061724650837"><ele>41.0</ele><time>2026-04-22T08:41:08.999Z</time></trkpt><trkpt lat="44.300684591014374" lon="8.446944550690413"><ele>39.33333333333333</ele><time>2026-04-22T08:41:09.999Z</time></trkpt><trkpt lat="44.30048524472485" lon="8.446818286222102"><ele>37.666666666666664</ele><time>2026-04-22T08:41:10.999Z</time></trkpt><trkpt lat="44.30027200619697" lon="8.446737318498187"><ele>36.0</ele><time>2026-04-22T08:41:11.999Z</time></trkpt><trkpt lat="44.30007863728841" lon="8.446617893975372"><ele>36.0</ele><time>2026-04-22T08:41:12.999Z</time></trkpt><trkpt lat="44.299876586042785" lon="8.446478393592274"><ele>36.0</ele><time>2026-04-22T08:41:13.999Z</time></trkpt><trkpt lat="44.2996593118365" lon="8.446404063304513"><ele>36.0</ele><time>2026-04-22T08:41:14.999Z</time></trkpt><trkpt lat="44.2994526073724" lon="8.446342679974858"><ele>41.0</ele><time>2026-04-22T08:41:15.999Z</time></trkpt><trkpt lat="44.299244909908204" lon="8.446294531609157"><ele>46.0</ele><time>2026-04-22T08:41:16.999Z</time></trkpt><trkpt lat="44.29903817587982" lon="8.446250834832536"><ele>51.0</ele><time>2026-04-22T08:41:17.999Z</time></trkpt><trkpt lat="44.29882632306708" lon="8.446219312613055"><ele>51.0</ele><time>2026-04-22T08:41:18.999Z</time></trkpt><trkpt lat="44.2986187179276" lon="8.446193157569047"><ele>51.0</ele><time>2026-04-22T08:41:19.999Z</time></trkpt><trkpt lat="44.2984154475015" lon="8.44618187298263"><ele>51.0</ele><time>2026-04-22T08:41:20.999Z</time></trkpt><trkpt lat="44.2982157162437" lon="8.446179581753517"><ele>47.0</ele><time>2026-04-22T08:41:21.999Z</time></trkpt><trkpt lat="44.29798543088893" lon="8.44616956346804"><ele>43.0</ele><time>2026-04-22T08:41:22.999Z</time></trkpt><trkpt lat="44.297766236733665" lon="8.446163718902739"><ele>43.0</ele><time>2026-04-22T08:41:23.999Z</time></trkpt><trkpt lat="44.29737515877009" lon="8.446220762416766"><ele>43.0</ele><time>2026-04-22T08:41:25.999Z</time></trkpt><trkpt lat="44.29716082291594" lon="8.446194687150719"><ele>42.333333333333336</ele><time>2026-04-22T08:41:26.998Z</time></trkpt><trkpt lat="44.296971426299585" lon="8.446226278190954"><ele>41.666666666666664</ele><time>2026-04-22T08:41:27.998Z</time></trkpt><trkpt lat="44.296779623828506" lon="8.446241930240404"><ele>41.0</ele><time>2026-04-22T08:41:28.998Z</time></trkpt><trkpt lat="44.2965897858323" lon="8.44625023884063"><ele>39.33333333333333</ele><time>2026-04-22T08:41:29.998Z</time></trkpt><trkpt lat="44.296405155226836" lon="8.44625598395259"><ele>37.666666666666664</ele><time>2026-04-22T08:41:30.998Z</time></trkpt><trkpt lat="44.29621708820564" lon="8.446259355644541"><ele>36.0</ele><time>2026-04-22T08:41:31.998Z</time></trkpt><trkpt lat="44.296032645057636" lon="8.446263431169449"><ele>36.0</ele><time>2026-04-22T08:41:32.998Z</time></trkpt><trkpt lat="44.2958497465625" lon="8.446267416841406"><ele>36.0</ele><time>2026-04-22T08:41:33.998Z</time></trkpt><trkpt lat="44.29566560082638" lon="8.446270040513438"><ele>36.0</ele><time>2026-04-22T08:41:34.998Z</time></trkpt><trkpt lat="44.29548384407577" lon="8.44627135867249"><ele>37.666666666666664</ele><time>2026-04-22T08:41:35.998Z</time></trkpt><trkpt lat="44.295294028628085" lon="8.446275590746527"><ele>39.33333333333333</ele><time>2026-04-22T08:41:36.998Z</time></trkpt><trkpt lat="44.295095979869586" lon="8.446278753981113"><ele>41.0</ele><time>2026-04-22T08:41:37.998Z</time></trkpt><trkpt lat="44.29488157818459" lon="8.446284195526843"><ele>41.33333333333333</ele><time>2026-04-22T08:41:38.998Z</time></trkpt><trkpt lat="44.29465791084977" lon="8.44629229899"><ele>41.666666666666664</ele><time>2026-04-22T08:41:39.998Z</time></trkpt><trkpt lat="44.29443455687881" lon="8.446296854924176"><ele>42.0</ele><time>2026-04-22T08:41:40.998Z</time></trkpt><trkpt lat="44.2942128224216" lon="8.446300113698534"><ele>42.0</ele><time>2026-04-22T08:41:41.998Z</time></trkpt><trkpt lat="44.29399558372782" lon="8.446305297434861"><ele>42.0</ele><time>2026-04-22T08:41:42.998Z</time></trkpt><trkpt lat="44.293780179026406" lon="8.446309281679776"><ele>42.0</ele><time>2026-04-22T08:41:43.998Z</time></trkpt><trkpt lat="44.293570413346096" lon="8.44630895499947"><ele>42.0</ele><time>2026-04-22T08:41:44.998Z</time></trkpt><trkpt lat="44.293363835349794" lon="8.446309101232393"><ele>42.0</ele><time>2026-04-22T08:41:45.998Z</time></trkpt><trkpt lat="44.293157415594926" lon="8.44630341877829"><ele>42.0</ele><time>2026-04-22T08:41:46.998Z</time></trkpt><trkpt lat="44.2929509400847" lon="8.446289122923378"><ele>41.666666666666664</ele><time>2026-04-22T08:41:47.998Z</time></trkpt><trkpt lat="44.292744453126346" lon="8.446252297374164"><ele>41.33333333333333</ele><time>2026-04-22T08:41:48.998Z</time></trkpt><trkpt lat="44.29253766345992" lon="8.446202331617863"><ele>41.0</ele><time>2026-04-22T08:41:49.998Z</time></trkpt><trkpt lat="44.29232692876898" lon="8.446141342001527"><ele>41.33333333333333</ele><time>2026-04-22T08:41:50.998Z</time></trkpt><trkpt lat="44.292114894045575" lon="8.446065423915776"><ele>41.666666666666664</ele><time>2026-04-22T08:41:51.998Z</time></trkpt><trkpt lat="44.291911322239244" lon="8.445979906443048"><ele>42.0</ele><time>2026-04-22T08:41:52.998Z</time></trkpt><trkpt lat="44.291714053436856" lon="8.44588146429361"><ele>42.0</ele><time>2026-04-22T08:41:53.998Z</time></trkpt><trkpt lat="44.29152248384048" lon="8.445770275668746"><ele>42.0</ele><time>2026-04-22T08:41:54.998Z</time></trkpt><trkpt lat="44.29133421015745" lon="8.445646451951443"><ele>42.0</ele><time>2026-04-22T08:41:55.998Z</time></trkpt><trkpt lat="44.291158040160525" lon="8.445507543027174"><ele>42.0</ele><time>2026-04-22T08:41:56.998Z</time></trkpt><trkpt lat="44.2909907225944" lon="8.445365483629484"><ele>42.0</ele><time>2026-04-22T08:41:57.998Z</time></trkpt><trkpt lat="44.29083164306623" lon="8.445216008420829"><ele>42.0</ele><time>2026-04-22T08:41:58.998Z</time></trkpt><trkpt lat="44.29067557661341" lon="8.445052356150182"><ele>42.0</ele><time>2026-04-22T08:41:59.998Z</time></trkpt><trkpt lat="44.29052384273015" lon="8.444888969689305"><ele>42.0</ele><time>2026-04-22T08:42:00.999Z</time></trkpt><trkpt lat="44.29037737420338" lon="8.444713060291834"><ele>42.0</ele><time>2026-04-22T08:42:01.999Z</time></trkpt><trkpt lat="44.29024018065135" lon="8.444526581621687"><ele>41.666666666666664</ele><time>2026-04-22T08:42:02.999Z</time></trkpt><trkpt lat="44.290108758600674" lon="8.444335030734129"><ele>41.33333333333333</ele><time>2026-04-22T08:42:03.999Z</time></trkpt><trkpt lat="44.28999061766024" lon="8.444129111258487"><ele>41.0</ele><time>2026-04-22T08:42:04.999Z</time></trkpt><trkpt lat="44.289869113583954" lon="8.443929846459211"><ele>39.0</ele><time>2026-04-22T08:42:05.999Z</time></trkpt><trkpt lat="44.28975841305017" lon="8.44371860530751"><ele>37.0</ele><time>2026-04-22T08:42:06.999Z</time></trkpt><trkpt lat="44.289651018206015" lon="8.443498771580563"><ele>35.0</ele><time>2026-04-22T08:42:07.999Z</time></trkpt><trkpt lat="44.28954622771805" lon="8.443270536186438"><ele>35.0</ele><time>2026-04-22T08:42:08.999Z</time></trkpt><trkpt lat="44.28944387799958" lon="8.443039716567132"><ele>35.0</ele><time>2026-04-22T08:42:09.999Z</time></trkpt><trkpt lat="44.28934940803532" lon="8.442798461852508"><ele>35.0</ele><time>2026-04-22T08:42:10.999Z</time></trkpt><trkpt lat="44.28925767922367" lon="8.442566086817827"><ele>33.33333333333333</ele><time>2026-04-22T08:42:11.999Z</time></trkpt><trkpt lat="44.28916671573559" lon="8.442331515465037"><ele>31.666666666666664</ele><time>2026-04-22T08:42:12.999Z</time></trkpt><trkpt lat="44.289072068839694" lon="8.442094862135322"><ele>30.0</ele><time>2026-04-22T08:42:13.999Z</time></trkpt><trkpt lat="44.28897829201626" lon="8.44186356096932"><ele>28.0</ele><time>2026-04-22T08:42:14.999Z</time></trkpt><trkpt lat="44.28888335066242" lon="8.441630730977144"><ele>26.0</ele><time>2026-04-22T08:42:15.999Z</time></trkpt><trkpt lat="44.288785829314" lon="8.441399055938598"><ele>24.0</ele><time>2026-04-22T08:42:16.999Z</time></trkpt><trkpt lat="44.288681599121354" lon="8.441161426070156"><ele>23.666666666666668</ele><time>2026-04-22T08:42:17.999Z</time></trkpt><trkpt lat="44.288576305224005" lon="8.440919743923429"><ele>23.333333333333336</ele><time>2026-04-22T08:42:18.999Z</time></trkpt><trkpt lat="44.28847040650755" lon="8.440671904050184"><ele>23.0</ele><time>2026-04-22T08:42:19.999Z</time></trkpt><trkpt lat="44.28835160552078" lon="8.440405932924712"><ele>24.0</ele><time>2026-04-22T08:42:20.999Z</time></trkpt><trkpt lat="44.288225587214264" lon="8.440117539614741"><ele>25.0</ele><time>2026-04-22T08:42:21.999Z</time></trkpt><trkpt lat="44.2881034894257" lon="8.439824941770288"><ele>24.0</ele><time>2026-04-22T08:42:22.999Z</time></trkpt><trkpt lat="44.287978323956295" lon="8.439518621033965"><ele>23.0</ele><time>2026-04-22T08:42:23.999Z</time></trkpt><trkpt lat="44.28785804505699" lon="8.439213394327535"><ele>23.0</ele><time>2026-04-22T08:42:24.999Z</time></trkpt><trkpt lat="44.28773634058922" lon="8.438910316581879"><ele>23.0</ele><time>2026-04-22T08:42:25.999Z</time></trkpt><trkpt lat="44.28761573618839" lon="8.438599174442679"><ele>23.5</ele><time>2026-04-22T08:42:26.999Z</time></trkpt><trkpt lat="44.287494793517844" lon="8.438294111654924"><ele>24.0</ele><time>2026-04-22T08:42:27.999Z</time></trkpt><trkpt lat="44.287378952614986" lon="8.438004708897138"><ele>24.0</ele><time>2026-04-22T08:42:28.999Z</time></trkpt><trkpt lat="44.287263303608675" lon="8.43772578729984"><ele>24.0</ele><time>2026-04-22T08:42:29.999Z</time></trkpt><trkpt lat="44.28714219191012" lon="8.43745089053575"><ele>20.5</ele><time>2026-04-22T08:42:30.999Z</time></trkpt><trkpt lat="44.28701573878291" lon="8.43718006587481"><ele>17.0</ele><time>2026-04-22T08:42:31.999Z</time></trkpt><trkpt lat="44.28688142003978" lon="8.4369152377869"><ele>17.0</ele><time>2026-04-22T08:42:32.999Z</time></trkpt><trkpt lat="44.28673738979251" lon="8.436657104694289"><ele>17.0</ele><time>2026-04-22T08:42:33.999Z</time></trkpt><trkpt lat="44.28658978643858" lon="8.436401455286406"><ele>16.0</ele><time>2026-04-22T08:42:34.999Z</time></trkpt><trkpt lat="44.28643713002696" lon="8.436150297807073"><ele>15.0</ele><time>2026-04-22T08:42:35.999Z</time></trkpt><trkpt lat="44.286273038746494" lon="8.435896875568883"><ele>13.5</ele><time>2026-04-22T08:42:36.999Z</time></trkpt><trkpt lat="44.28609689942889" lon="8.435643204382782"><ele>12.0</ele><time>2026-04-22T08:42:37.999Z</time></trkpt><trkpt lat="44.285913349621865" lon="8.435394392873718"><ele>11.5</ele><time>2026-04-22T08:42:38.999Z</time></trkpt><trkpt lat="44.285728962692666" lon="8.435152585873972"><ele>11.0</ele><time>2026-04-22T08:42:39.999Z</time></trkpt><trkpt lat="44.285545694055074" lon="8.434909457244368"><ele>10.0</ele><time>2026-04-22T08:42:40.999Z</time></trkpt><trkpt lat="44.285363151361196" lon="8.434667052983643"><ele>9.0</ele><time>2026-04-22T08:42:41.999Z</time></trkpt><trkpt lat="44.28517946307877" lon="8.434425623433626"><ele>9.0</ele><time>2026-04-22T08:42:42.999Z</time></trkpt><trkpt lat="44.28499422033924" lon="8.434185291326116"><ele>9.0</ele><time>2026-04-22T08:42:43.999Z</time></trkpt><trkpt lat="44.284811388212134" lon="8.433951084236952"><ele>8.5</ele><time>2026-04-22T08:42:44.999Z</time></trkpt><trkpt lat="44.28463320903663" lon="8.43371981375868"><ele>8.0</ele><time>2026-04-22T08:42:45.999Z</time></trkpt><trkpt lat="44.28446278579189" lon="8.433497795220346"><ele>8.0</ele><time>2026-04-22T08:42:46.999Z</time></trkpt><trkpt lat="44.28429737933768" lon="8.433285223411097"><ele>8.0</ele><time>2026-04-22T08:42:47.999Z</time></trkpt><trkpt lat="44.28412859049537" lon="8.433071220896366"><ele>8.0</ele><time>2026-04-22T08:42:48.999Z</time></trkpt><trkpt lat="44.28395504449443" lon="8.43285837396915"><ele>8.0</ele><time>2026-04-22T08:42:49.999Z</time></trkpt><trkpt lat="44.28377899838998" lon="8.432635620133864"><ele>8.5</ele><time>2026-04-22T08:42:50.999Z</time></trkpt><trkpt lat="44.283609687223176" lon="8.43241581375716"><ele>9.0</ele><time>2026-04-22T08:42:51.999Z</time></trkpt><trkpt lat="44.283433148462564" lon="8.432191999300043"><ele>8.0</ele><time>2026-04-22T08:42:52.999Z</time></trkpt><trkpt lat="44.28325650115502" lon="8.431966247517462"><ele>7.0</ele><time>2026-04-22T08:42:53.999Z</time></trkpt><trkpt lat="44.283084838364736" lon="8.431742526961365"><ele>6.666666666666667</ele><time>2026-04-22T08:42:54.999Z</time></trkpt><trkpt lat="44.28291862278584" lon="8.431530464974392"><ele>6.333333333333334</ele><time>2026-04-22T08:42:55.999Z</time></trkpt><trkpt lat="44.282761937807884" lon="8.431328343063726"><ele>6.0</ele><time>2026-04-22T08:42:56.999Z</time></trkpt><trkpt lat="44.28260327520711" lon="8.431127953001765"><ele>7.0</ele><time>2026-04-22T08:42:57.999Z</time></trkpt><trkpt lat="44.282439953339946" lon="8.430931077122567"><ele>8.0</ele><time>2026-04-22T08:42:58.999Z</time></trkpt><trkpt lat="44.282274027930995" lon="8.430741867540297"><ele>9.0</ele><time>2026-04-22T08:42:59.999Z</time></trkpt><trkpt lat="44.28210138194465" lon="8.430560336384124"><ele>9.666666666666666</ele><time>2026-04-22T08:43:00.999Z</time></trkpt><trkpt lat="44.28192198323886" lon="8.430388405431861"><ele>10.333333333333332</ele><time>2026-04-22T08:43:01.999Z</time></trkpt><trkpt lat="44.28173745555281" lon="8.430226854282344"><ele>11.0</ele><time>2026-04-22T08:43:02.999Z</time></trkpt><trkpt lat="44.281548172580194" lon="8.430079786821391"><ele>10.333333333333332</ele><time>2026-04-22T08:43:03.999Z</time></trkpt><trkpt lat="44.28134929535971" lon="8.429948469847679"><ele>9.666666666666666</ele><time>2026-04-22T08:43:04.999Z</time></trkpt><trkpt lat="44.2811414320979" lon="8.429832576505536"><ele>9.0</ele><time>2026-04-22T08:43:05.999Z</time></trkpt><trkpt lat="44.280928645762344" lon="8.429725201169509"><ele>9.0</ele><time>2026-04-22T08:43:06.999Z</time></trkpt><trkpt lat="44.28070394825263" lon="8.429625123929517"><ele>9.0</ele><time>2026-04-22T08:43:07.999Z</time></trkpt><trkpt lat="44.28047910886711" lon="8.429531510785615"><ele>11.5</ele><time>2026-04-22T08:43:08.999Z</time></trkpt><trkpt lat="44.28025202101414" lon="8.429443371879572"><ele>14.0</ele><time>2026-04-22T08:43:09.999Z</time></trkpt><trkpt lat="44.28002558042116" lon="8.429359304926933"><ele>14.0</ele><time>2026-04-22T08:43:10.999Z</time></trkpt><trkpt lat="44.27980149107043" lon="8.429273596308946"><ele>14.0</ele><time>2026-04-22T08:43:11.999Z</time></trkpt><trkpt lat="44.2795777621091" lon="8.429190621660693"><ele>15.5</ele><time>2026-04-22T08:43:12.999Z</time></trkpt><trkpt lat="44.27935044044711" lon="8.429108283707643"><ele>17.0</ele><time>2026-04-22T08:43:13.999Z</time></trkpt><trkpt lat="44.279123534108564" lon="8.429020018961388"><ele>17.0</ele><time>2026-04-22T08:43:14.999Z</time></trkpt><trkpt lat="44.27890114038602" lon="8.428933016348374"><ele>17.0</ele><time>2026-04-22T08:43:15.999Z</time></trkpt><trkpt lat="44.27869096780249" lon="8.428844011649682"><ele>17.666666666666668</ele><time>2026-04-22T08:43:16.999Z</time></trkpt><trkpt lat="44.27847958662798" lon="8.428753231218286"><ele>18.333333333333332</ele><time>2026-04-22T08:43:17.999Z</time></trkpt><trkpt lat="44.27827985000127" lon="8.428653284371846"><ele>19.0</ele><time>2026-04-22T08:43:18.999Z</time></trkpt><trkpt lat="44.278080662221306" lon="8.428541045463003"><ele>19.0</ele><time>2026-04-22T08:43:19.999Z</time></trkpt><trkpt lat="44.27788535638585" lon="8.42841685889274"><ele>19.0</ele><time>2026-04-22T08:43:20.999Z</time></trkpt><trkpt lat="44.277685177342455" lon="8.428279635352851"><ele>19.0</ele><time>2026-04-22T08:43:21.999Z</time></trkpt><trkpt lat="44.2774884696126" lon="8.428126445952854"><ele>20.0</ele><time>2026-04-22T08:43:22.999Z</time></trkpt><trkpt lat="44.27729709369556" lon="8.427959426222197"><ele>21.0</ele><time>2026-04-22T08:43:23.999Z</time></trkpt><trkpt lat="44.27710683091086" lon="8.427778206230661"><ele>18.5</ele><time>2026-04-22T08:43:24.999Z</time></trkpt><trkpt lat="44.27692178173236" lon="8.427590034392377"><ele>16.0</ele><time>2026-04-22T08:43:25.999Z</time></trkpt><trkpt lat="44.27673766711506" lon="8.427388173261996"><ele>16.0</ele><time>2026-04-22T08:43:26.999Z</time></trkpt><trkpt lat="44.2765553122409" lon="8.427171155428798"><ele>16.0</ele><time>2026-04-22T08:43:27.998Z</time></trkpt><trkpt lat="44.27637892142501" lon="8.426941424217636"><ele>17.5</ele><time>2026-04-22T08:43:28.998Z</time></trkpt><trkpt lat="44.27620707633318" lon="8.426700427724326"><ele>19.0</ele><time>2026-04-22T08:43:29.998Z</time></trkpt><trkpt lat="44.27603232846825" lon="8.426446694123712"><ele>21.5</ele><time>2026-04-22T08:43:30.998Z</time></trkpt><trkpt lat="44.275854337861624" lon="8.4261864184647"><ele>24.0</ele><time>2026-04-22T08:43:31.998Z</time></trkpt><trkpt lat="44.27567899066499" lon="8.425921961142274"><ele>25.0</ele><time>2026-04-22T08:43:32.998Z</time></trkpt><trkpt lat="44.2754974974599" lon="8.425647957495341"><ele>26.0</ele><time>2026-04-22T08:43:33.998Z</time></trkpt><trkpt lat="44.275311385025816" lon="8.42536762628592"><ele>26.0</ele><time>2026-04-22T08:43:34.998Z</time></trkpt><trkpt lat="44.27512191374217" lon="8.425083467841977"><ele>26.0</ele><time>2026-04-22T08:43:35.998Z</time></trkpt><trkpt lat="44.27493402873174" lon="8.424806686082325"><ele>26.0</ele><time>2026-04-22T08:43:36.998Z</time></trkpt><trkpt lat="44.27474891605647" lon="8.424530836210566"><ele>26.0</ele><time>2026-04-22T08:43:37.998Z</time></trkpt><trkpt lat="44.27456662998307" lon="8.424259587771033"><ele>26.0</ele><time>2026-04-22T08:43:38.998Z</time></trkpt><trkpt lat="44.27438144172667" lon="8.423983164684467"><ele>26.0</ele><time>2026-04-22T08:43:39.998Z</time></trkpt><trkpt lat="44.27420073439128" lon="8.423709734598615"><ele>26.5</ele><time>2026-04-22T08:43:40.998Z</time></trkpt><trkpt lat="44.274019349090466" lon="8.423437054993467"><ele>27.0</ele><time>2026-04-22T08:43:41.998Z</time></trkpt><trkpt lat="44.273842405842174" lon="8.423166134076455"><ele>25.0</ele><time>2026-04-22T08:43:42.998Z</time></trkpt><trkpt lat="44.27366603605453" lon="8.422901489097931"><ele>23.0</ele><time>2026-04-22T08:43:43.998Z</time></trkpt><trkpt lat="44.273484008376336" lon="8.42263576421635"><ele>23.0</ele><time>2026-04-22T08:43:44.998Z</time></trkpt><trkpt lat="44.27330914886572" lon="8.42236900519175"><ele>23.0</ele><time>2026-04-22T08:43:45.998Z</time></trkpt><trkpt lat="44.27313225357765" lon="8.422104590633126"><ele>25.5</ele><time>2026-04-22T08:43:46.998Z</time></trkpt><trkpt lat="44.27296277115189" lon="8.421853941084368"><ele>28.0</ele><time>2026-04-22T08:43:47.998Z</time></trkpt><trkpt lat="44.27279148090329" lon="8.421614542313078"><ele>28.0</ele><time>2026-04-22T08:43:48.998Z</time></trkpt><trkpt lat="44.2726114068357" lon="8.421376304549337"><ele>28.0</ele><time>2026-04-22T08:43:49.998Z</time></trkpt><trkpt lat="44.27243818507271" lon="8.421153587686128"><ele>33.5</ele><time>2026-04-22T08:43:50.998Z</time></trkpt><trkpt lat="44.27225939177118" lon="8.420934079268292"><ele>39.0</ele><time>2026-04-22T08:43:51.998Z</time></trkpt><trkpt lat="44.272080765100576" lon="8.420720290565777"><ele>39.0</ele><time>2026-04-22T08:43:52.998Z</time></trkpt><trkpt lat="44.27189798410669" lon="8.420508790068267"><ele>39.0</ele><time>2026-04-22T08:43:53.998Z</time></trkpt><trkpt lat="44.271708394051544" lon="8.420304648987516"><ele>43.0</ele><time>2026-04-22T08:43:54.998Z</time></trkpt><trkpt lat="44.27151272059357" lon="8.420104607449389"><ele>47.0</ele><time>2026-04-22T08:43:55.998Z</time></trkpt><trkpt lat="44.27131454155689" lon="8.419907531932505"><ele>47.0</ele><time>2026-04-22T08:43:56.998Z</time></trkpt><trkpt lat="44.27111049909179" lon="8.419714722910705"><ele>47.0</ele><time>2026-04-22T08:43:57.998Z</time></trkpt><trkpt lat="44.27090389039172" lon="8.419522940913263"><ele>47.5</ele><time>2026-04-22T08:43:58.998Z</time></trkpt><trkpt lat="44.270695201119224" lon="8.419329991704075"><ele>48.0</ele><time>2026-04-22T08:43:59.998Z</time></trkpt><trkpt lat="44.27048504108356" lon="8.419138711946887"><ele>48.0</ele><time>2026-04-22T08:44:00.998Z</time></trkpt><trkpt lat="44.27027111618114" lon="8.418945732926531"><ele>48.0</ele><time>2026-04-22T08:44:01.998Z</time></trkpt><trkpt lat="44.270056957733765" lon="8.418750555975736"><ele>48.0</ele><time>2026-04-22T08:44:02.998Z</time></trkpt><trkpt lat="44.269841724792876" lon="8.41855570003166"><ele>48.0</ele><time>2026-04-22T08:44:03.998Z</time></trkpt><trkpt lat="44.269624591924554" lon="8.418359642419949"><ele>48.0</ele><time>2026-04-22T08:44:04.998Z</time></trkpt><trkpt lat="44.2694105441466" lon="8.41816676981667"><ele>48.0</ele><time>2026-04-22T08:44:05.998Z</time></trkpt><trkpt lat="44.269197928002455" lon="8.417974667796438"><ele>52.5</ele><time>2026-04-22T08:44:06.999Z</time></trkpt><trkpt lat="44.2689868084366" lon="8.417784589406795"><ele>57.0</ele><time>2026-04-22T08:44:07.999Z</time></trkpt><trkpt lat="44.26878126087613" lon="8.417596339722913"><ele>57.0</ele><time>2026-04-22T08:44:08.999Z</time></trkpt><trkpt lat="44.26857547801645" lon="8.417407153989293"><ele>57.0</ele><time>2026-04-22T08:44:09.999Z</time></trkpt><trkpt lat="44.26836912248563" lon="8.417221344616475"><ele>55.5</ele><time>2026-04-22T08:44:10.999Z</time></trkpt><trkpt lat="44.26816545241378" lon="8.417035975119044"><ele>54.0</ele><time>2026-04-22T08:44:11.999Z</time></trkpt><trkpt lat="44.26796368677715" lon="8.416855491716213"><ele>54.0</ele><time>2026-04-22T08:44:12.999Z</time></trkpt><trkpt lat="44.2677649297192" lon="8.416675769319438"><ele>54.0</ele><time>2026-04-22T08:44:13.999Z</time></trkpt><trkpt lat="44.26756566033682" lon="8.416498958260776"><ele>56.5</ele><time>2026-04-22T08:44:14.999Z</time></trkpt><trkpt lat="44.26736620248125" lon="8.416319725471002"><ele>59.0</ele><time>2026-04-22T08:44:15.999Z</time></trkpt><trkpt lat="44.2671698986935" lon="8.416136870156855"><ele>62.0</ele><time>2026-04-22T08:44:16.999Z</time></trkpt><trkpt lat="44.266973460035665" lon="8.415944088847189"><ele>65.0</ele><time>2026-04-22T08:44:17.999Z</time></trkpt><trkpt lat="44.266773997388334" lon="8.415748580428097"><ele>65.0</ele><time>2026-04-22T08:44:18.999Z</time></trkpt><trkpt lat="44.266574798233464" lon="8.415548067080167"><ele>65.0</ele><time>2026-04-22T08:44:19.999Z</time></trkpt><trkpt lat="44.26638431910986" lon="8.415335512549841"><ele>61.5</ele><time>2026-04-22T08:44:20.999Z</time></trkpt><trkpt lat="44.26619815825418" lon="8.415118558105696"><ele>58.0</ele><time>2026-04-22T08:44:21.999Z</time></trkpt><trkpt lat="44.266018107211885" lon="8.414894801034418"><ele>58.0</ele><time>2026-04-22T08:44:22.999Z</time></trkpt><trkpt lat="44.26584543675609" lon="8.414663264238092"><ele>58.0</ele><time>2026-04-22T08:44:23.999Z</time></trkpt><trkpt lat="44.26567722277293" lon="8.414422611302095"><ele>55.5</ele><time>2026-04-22T08:44:24.999Z</time></trkpt><trkpt lat="44.265515857843944" lon="8.414175034219053"><ele>53.0</ele><time>2026-04-22T08:44:25.999Z</time></trkpt><trkpt lat="44.26535776987791" lon="8.413918013593879"><ele>60.0</ele><time>2026-04-22T08:44:26.999Z</time></trkpt><trkpt lat="44.265207771909374" lon="8.41365519426608"><ele>67.0</ele><time>2026-04-22T08:44:27.999Z</time></trkpt><trkpt lat="44.265061288025066" lon="8.413380427144093"><ele>67.0</ele><time>2026-04-22T08:44:28.999Z</time></trkpt><trkpt lat="44.264917423231495" lon="8.413101466179462"><ele>67.0</ele><time>2026-04-22T08:44:29.999Z</time></trkpt><trkpt lat="44.26477396056747" lon="8.412813723475981"><ele>61.5</ele><time>2026-04-22T08:44:30.999Z</time></trkpt><trkpt lat="44.26462567953926" lon="8.412514873541033"><ele>56.0</ele><time>2026-04-22T08:44:31.999Z</time></trkpt><trkpt lat="44.26447426830646" lon="8.412208182148348"><ele>58.5</ele><time>2026-04-22T08:44:32.999Z</time></trkpt><trkpt lat="44.26433134144979" lon="8.411907556258342"><ele>61.0</ele><time>2026-04-22T08:44:33.999Z</time></trkpt><trkpt lat="44.2641985114355" lon="8.411627384092531"><ele>61.0</ele><time>2026-04-22T08:44:34.999Z</time></trkpt><trkpt lat="44.26406563058718" lon="8.411356929822997"><ele>61.0</ele><time>2026-04-22T08:44:35.999Z</time></trkpt><trkpt lat="44.26393449637146" lon="8.411094555975659"><ele>56.5</ele><time>2026-04-22T08:44:36.999Z</time></trkpt><trkpt lat="44.263806457159816" lon="8.410832670720046"><ele>52.0</ele><time>2026-04-22T08:44:37.999Z</time></trkpt><trkpt lat="44.26367920755379" lon="8.410575913489838"><ele>55.33333333333333</ele><time>2026-04-22T08:44:38.999Z</time></trkpt><trkpt lat="44.26355161267951" lon="8.41032673195754"><ele>58.66666666666667</ele><time>2026-04-22T08:44:39.999Z</time></trkpt><trkpt lat="44.263422130160585" lon="8.410084985373784"><ele>62.0</ele><time>2026-04-22T08:44:40.999Z</time></trkpt><trkpt lat="44.263287364151786" lon="8.40985015355478"><ele>62.0</ele><time>2026-04-22T08:44:41.999Z</time></trkpt><trkpt lat="44.26314556517604" lon="8.409618537238922"><ele>62.0</ele><time>2026-04-22T08:44:42.999Z</time></trkpt><trkpt lat="44.26299239182071" lon="8.409389948619152"><ele>62.0</ele><time>2026-04-22T08:44:43.999Z</time></trkpt><trkpt lat="44.26283657249682" lon="8.409172130604937"><ele>63.66666666666667</ele><time>2026-04-22T08:44:44.999Z</time></trkpt><trkpt lat="44.26267269864334" lon="8.408968841605635"><ele>65.33333333333333</ele><time>2026-04-22T08:44:45.999Z</time></trkpt><trkpt lat="44.26250096846616" lon="8.408767968796727"><ele>67.0</ele><time>2026-04-22T08:44:46.999Z</time></trkpt><trkpt lat="44.26232064594303" lon="8.408572418345152"><ele>65.5</ele><time>2026-04-22T08:44:47.999Z</time></trkpt><trkpt lat="44.26213580737935" lon="8.408385638269266"><ele>64.0</ele><time>2026-04-22T08:44:48.999Z</time></trkpt><trkpt lat="44.261948876673785" lon="8.408208562636803"><ele>64.0</ele><time>2026-04-22T08:44:49.999Z</time></trkpt><trkpt lat="44.26175845758142" lon="8.408045448088819"><ele>64.0</ele><time>2026-04-22T08:44:50.999Z</time></trkpt><trkpt lat="44.26156594893624" lon="8.407891695311168"><ele>64.0</ele><time>2026-04-22T08:44:51.999Z</time></trkpt><trkpt lat="44.26137060591468" lon="8.407751685029075"><ele>69.0</ele><time>2026-04-22T08:44:52.999Z</time></trkpt><trkpt lat="44.261172008691894" lon="8.407619072354054"><ele>74.0</ele><time>2026-04-22T08:44:53.999Z</time></trkpt><trkpt lat="44.26096787983816" lon="8.407494522929026"><ele>79.0</ele><time>2026-04-22T08:44:54.999Z</time></trkpt><trkpt lat="44.260757836236024" lon="8.407381595081706"><ele>80.0</ele><time>2026-04-22T08:44:55.999Z</time></trkpt><trkpt lat="44.26054818436857" lon="8.407273137573977"><ele>81.0</ele><time>2026-04-22T08:44:56.999Z</time></trkpt><trkpt lat="44.260329824093986" lon="8.407176450168837"><ele>87.5</ele><time>2026-04-22T08:44:57.999Z</time></trkpt><trkpt lat="44.26010770159157" lon="8.407090940747484"><ele>94.0</ele><time>2026-04-22T08:44:58.999Z</time></trkpt><trkpt lat="44.259884216509334" lon="8.40701958374484"><ele>92.0</ele><time>2026-04-22T08:44:59.999Z</time></trkpt><trkpt lat="44.25965886699864" lon="8.406959912612603"><ele>90.0</ele><time>2026-04-22T08:45:00.999Z</time></trkpt><trkpt lat="44.25943945315752" lon="8.406913541052056"><ele>90.0</ele><time>2026-04-22T08:45:01.999Z</time></trkpt><trkpt lat="44.25922007061809" lon="8.406881332558555"><ele>90.0</ele><time>2026-04-22T08:45:02.999Z</time></trkpt><trkpt lat="44.25899597141657" lon="8.406857412551817"><ele>90.0</ele><time>2026-04-22T08:45:03.999Z</time></trkpt><trkpt lat="44.25877520034171" lon="8.40684246265367"><ele>84.66666666666667</ele><time>2026-04-22T08:45:04.999Z</time></trkpt><trkpt lat="44.258555167833514" lon="8.406833124007385"><ele>79.33333333333334</ele><time>2026-04-22T08:45:05.999Z</time></trkpt><trkpt lat="44.25834319396855" lon="8.406831379843544"><ele>74.0</ele><time>2026-04-22T08:45:06.999Z</time></trkpt><trkpt lat="44.25813197291782" lon="8.406834153599359"><ele>66.33333333333334</ele><time>2026-04-22T08:45:07.999Z</time></trkpt><trkpt lat="44.2579232775496" lon="8.40683711816756"><ele>58.66666666666667</ele><time>2026-04-22T08:45:08.999Z</time></trkpt><trkpt lat="44.257711925556755" lon="8.40683829023444"><ele>51.0</ele><time>2026-04-22T08:45:09.999Z</time></trkpt><trkpt lat="44.257500828414955" lon="8.406835413502206"><ele>51.0</ele><time>2026-04-22T08:45:10.999Z</time></trkpt><trkpt lat="44.25728884136345" lon="8.406838173118318"><ele>51.0</ele><time>2026-04-22T08:45:11.999Z</time></trkpt><trkpt lat="44.25707131276973" lon="8.406842574758546"><ele>51.0</ele><time>2026-04-22T08:45:12.999Z</time></trkpt><trkpt lat="44.25684669314889" lon="8.406845622678093"><ele>48.0</ele><time>2026-04-22T08:45:13.999Z</time></trkpt><trkpt lat="44.256619573982164" lon="8.406848055694395"><ele>45.0</ele><time>2026-04-22T08:45:14.999Z</time></trkpt><trkpt lat="44.25639335233198" lon="8.406851474672674"><ele>49.0</ele><time>2026-04-22T08:45:15.999Z</time></trkpt><trkpt lat="44.2561703614391" lon="8.406852216547676"><ele>53.0</ele><time>2026-04-22T08:45:16.999Z</time></trkpt><trkpt lat="44.255949473387005" lon="8.406850266332647"><ele>57.0</ele><time>2026-04-22T08:45:17.999Z</time></trkpt><trkpt lat="44.25573077734836" lon="8.406851750159413"><ele>64.66666666666667</ele><time>2026-04-22T08:45:18.999Z</time></trkpt><trkpt lat="44.255512847292565" lon="8.406853696481102"><ele>72.33333333333334</ele><time>2026-04-22T08:45:19.999Z</time></trkpt><trkpt lat="44.25529781002935" lon="8.406857505003902"><ele>80.0</ele><time>2026-04-22T08:45:20.999Z</time></trkpt><trkpt lat="44.255083056429804" lon="8.40685963060909"><ele>80.0</ele><time>2026-04-22T08:45:21.999Z</time></trkpt><trkpt lat="44.25487138457923" lon="8.4068635721407"><ele>80.0</ele><time>2026-04-22T08:45:22.999Z</time></trkpt><trkpt lat="44.254661321880576" lon="8.406867205892448"><ele>80.0</ele><time>2026-04-22T08:45:23.999Z</time></trkpt><trkpt lat="44.254455596353715" lon="8.40686960526725"><ele>81.66666666666667</ele><time>2026-04-22T08:45:24.999Z</time></trkpt><trkpt lat="44.254253805626085" lon="8.40687276949774"><ele>83.33333333333333</ele><time>2026-04-22T08:45:25.999Z</time></trkpt><trkpt lat="44.25405775601073" lon="8.40687288623136"><ele>85.0</ele><time>2026-04-22T08:45:26.999Z</time></trkpt><trkpt lat="44.2538643497427" lon="8.40687218076747"><ele>85.0</ele><time>2026-04-22T08:45:27.999Z</time></trkpt><trkpt lat="44.25367181275078" lon="8.40686235669468"><ele>85.0</ele><time>2026-04-22T08:45:28.999Z</time></trkpt><trkpt lat="44.25347655878582" lon="8.406857012350196"><ele>85.0</ele><time>2026-04-22T08:45:29.998Z</time></trkpt><trkpt lat="44.25328034601485" lon="8.406837117186324"><ele>87.33333333333333</ele><time>2026-04-22T08:45:30.998Z</time></trkpt><trkpt lat="44.25308076377267" lon="8.406812580130055"><ele>89.66666666666667</ele><time>2026-04-22T08:45:31.998Z</time></trkpt><trkpt lat="44.252881153254265" lon="8.406781165724583"><ele>92.0</ele><time>2026-04-22T08:45:32.998Z</time></trkpt><trkpt lat="44.25268856979851" lon="8.406744651384676"><ele>92.0</ele><time>2026-04-22T08:45:33.998Z</time></trkpt><trkpt lat="44.252502234639856" lon="8.406695454396443"><ele>92.0</ele><time>2026-04-22T08:45:34.998Z</time></trkpt><trkpt lat="44.252321753485724" lon="8.406626799069203"><ele>92.0</ele><time>2026-04-22T08:45:35.998Z</time></trkpt><trkpt lat="44.2521318800771" lon="8.406611874977195"><ele>94.66666666666667</ele><time>2026-04-22T08:45:36.998Z</time></trkpt><trkpt lat="44.25193813777349" lon="8.40656055647305"><ele>97.33333333333334</ele><time>2026-04-22T08:45:37.998Z</time></trkpt><trkpt lat="44.251752022966706" lon="8.406500460130257"><ele>100.0</ele><time>2026-04-22T08:45:38.998Z</time></trkpt><trkpt lat="44.25156254849193" lon="8.40643043525751"><ele>105.66666666666667</ele><time>2026-04-22T08:45:39.998Z</time></trkpt><trkpt lat="44.251385431001026" lon="8.406343274006105"><ele>111.33333333333334</ele><time>2026-04-22T08:45:40.998Z</time></trkpt><trkpt lat="44.25121215211312" lon="8.406258266230633"><ele>117.0</ele><time>2026-04-22T08:45:41.998Z</time></trkpt><trkpt lat="44.251041522067595" lon="8.406175251945172"><ele>120.66666666666666</ele><time>2026-04-22T08:45:42.998Z</time></trkpt><trkpt lat="44.2508723765215" lon="8.406088321703681"><ele>124.33333333333333</ele><time>2026-04-22T08:45:43.998Z</time></trkpt><trkpt lat="44.25069635527942" lon="8.406007110729407"><ele>128.0</ele><time>2026-04-22T08:45:44.998Z</time></trkpt><trkpt lat="44.25051681992841" lon="8.405923348813493"><ele>135.66666666666666</ele><time>2026-04-22T08:45:45.998Z</time></trkpt><trkpt lat="44.25034049869043" lon="8.405842045357376"><ele>143.33333333333334</ele><time>2026-04-22T08:45:46.998Z</time></trkpt><trkpt lat="44.25020317986322" lon="8.405737392465177"><ele>151.0</ele><time>2026-04-22T08:45:47.998Z</time></trkpt><trkpt lat="44.25005112271569" lon="8.40563225778995"><ele>151.0</ele><time>2026-04-22T08:45:48.998Z</time></trkpt><trkpt lat="44.24988370872823" lon="8.405514720337669"><ele>151.0</ele><time>2026-04-22T08:45:50.071Z</time></trkpt><trkpt lat="44.24973121778083" lon="8.405406845445354"><ele>151.0</ele><time>2026-04-22T08:45:51.055Z</time></trkpt><trkpt lat="44.24797503367198" lon="8.404060660435619"><ele>320.0</ele><time>2026-04-22T08:45:54.756Z</time></trkpt><trkpt lat="44.24717265726224" lon="8.403493097122263"><ele>355.0</ele><time>2026-04-22T08:45:55.756Z</time></trkpt><trkpt lat="44.2463710768547" lon="8.402923079633789"><ele>384.0</ele><time>2026-04-22T08:45:56.756Z</time></trkpt><trkpt lat="44.24556894577363" lon="8.402356984935109"><ele>412.0</ele><time>2026-04-22T08:45:57.756Z</time></trkpt><trkpt lat="44.24476656401917" lon="8.401789970039212"><ele>408.0</ele><time>2026-04-22T08:45:58.756Z</time></trkpt><trkpt lat="44.243964955047176" lon="8.401220674238967"><ele>409.0</ele><time>2026-04-22T08:45:59.756Z</time></trkpt><trkpt lat="44.24316249647241" lon="8.400653548839404"><ele>382.0</ele><time>2026-04-22T08:46:00.756Z</time></trkpt><trkpt lat="44.242356199303714" lon="8.400098555704274"><ele>353.0</ele><time>2026-04-22T08:46:01.756Z</time></trkpt><trkpt lat="44.24152500502085" lon="8.399619939800601"><ele>312.0</ele><time>2026-04-22T08:46:02.755Z</time></trkpt><trkpt lat="44.24066691316366" lon="8.399243339420329"><ele>207.0</ele><time>2026-04-22T08:46:03.756Z</time></trkpt><trkpt lat="44.239787476176275" lon="8.398979930807588"><ele>172.0</ele><time>2026-04-22T08:46:04.756Z</time></trkpt><trkpt lat="44.23889466306389" lon="8.398826640337814"><ele>149.0</ele><time>2026-04-22T08:46:05.756Z</time></trkpt><trkpt lat="44.237995602371534" lon="8.398785214400796"><ele>110.0</ele><time>2026-04-22T08:46:06.755Z</time></trkpt><trkpt lat="44.23649926920446" lon="8.39896124101297"><ele>113.33333333333333</ele><time>2026-04-22T08:46:42.998Z</time></trkpt><trkpt lat="44.23634647889388" lon="8.399033093513927"><ele>116.66666666666666</ele><time>2026-04-22T08:46:43.998Z</time></trkpt><trkpt lat="44.23612319131457" lon="8.399077576127512"><ele>120.0</ele><time>2026-04-22T08:46:44.997Z</time></trkpt><trkpt lat="44.23588660374187" lon="8.39912477753759"><ele>120.0</ele><time>2026-04-22T08:46:45.997Z</time></trkpt><trkpt lat="44.23565153080866" lon="8.399183792854895"><ele>120.0</ele><time>2026-04-22T08:46:46.997Z</time></trkpt><trkpt lat="44.23541637706342" lon="8.399247294321846"><ele>121.5</ele><time>2026-04-22T08:46:47.999Z</time></trkpt><trkpt lat="44.2351909063498" lon="8.399302001426653"><ele>123.0</ele><time>2026-04-22T08:46:48.999Z</time></trkpt><trkpt lat="44.23496602815853" lon="8.399362019426974"><ele>120.66666666666666</ele><time>2026-04-22T08:46:49.999Z</time></trkpt><trkpt lat="44.23475599604895" lon="8.399426296773703"><ele>118.33333333333333</ele><time>2026-04-22T08:46:50.999Z</time></trkpt><trkpt lat="44.23454276392252" lon="8.39947683009471"><ele>116.0</ele><time>2026-04-22T08:46:51.999Z</time></trkpt><trkpt lat="44.2343288978134" lon="8.399525517212847"><ele>116.0</ele><time>2026-04-22T08:46:52.999Z</time></trkpt><trkpt lat="44.23411568669647" lon="8.399557265060759"><ele>116.0</ele><time>2026-04-22T08:46:53.999Z</time></trkpt><trkpt lat="44.2339028632188" lon="8.399582212614535"><ele>116.0</ele><time>2026-04-22T08:46:54.999Z</time></trkpt><trkpt lat="44.23369638446211" lon="8.399600984693304"><ele>104.33333333333333</ele><time>2026-04-22T08:46:55.999Z</time></trkpt><trkpt lat="44.23348485923368" lon="8.399615259316432"><ele>92.66666666666666</ele><time>2026-04-22T08:46:56.999Z</time></trkpt><trkpt lat="44.23326973277109" lon="8.39960956779121"><ele>81.0</ele><time>2026-04-22T08:46:57.999Z</time></trkpt><trkpt lat="44.23305814002354" lon="8.399584476892894"><ele>73.0</ele><time>2026-04-22T08:46:58.999Z</time></trkpt><trkpt lat="44.23284392760733" lon="8.399555067563451"><ele>65.0</ele><time>2026-04-22T08:46:59.999Z</time></trkpt><trkpt lat="44.23263060424492" lon="8.399508846474014"><ele>57.0</ele><time>2026-04-22T08:47:00.999Z</time></trkpt><trkpt lat="44.23241532718589" lon="8.399453456315658"><ele>65.33333333333333</ele><time>2026-04-22T08:47:01.999Z</time></trkpt><trkpt lat="44.23220704201837" lon="8.399386132931957"><ele>73.66666666666666</ele><time>2026-04-22T08:47:02.999Z</time></trkpt><trkpt lat="44.23200274295063" lon="8.39930689383774"><ele>82.0</ele><time>2026-04-22T08:47:03.999Z</time></trkpt><trkpt lat="44.231801783063105" lon="8.399215838669031"><ele>82.0</ele><time>2026-04-22T08:47:04.999Z</time></trkpt><trkpt lat="44.231605466003444" lon="8.399114170023442"><ele>82.0</ele><time>2026-04-22T08:47:05.999Z</time></trkpt><trkpt lat="44.23140649162528" lon="8.39899953067908"><ele>82.0</ele><time>2026-04-22T08:47:06.999Z</time></trkpt><trkpt lat="44.23121107837968" lon="8.398872161005034"><ele>93.66666666666666</ele><time>2026-04-22T08:47:07.999Z</time></trkpt><trkpt lat="44.23101458613759" lon="8.398731762227566"><ele>105.33333333333333</ele><time>2026-04-22T08:47:08.999Z</time></trkpt><trkpt lat="44.230828757369" lon="8.39858109832687"><ele>117.0</ele><time>2026-04-22T08:47:09.999Z</time></trkpt><trkpt lat="44.230639503095645" lon="8.398417056558168"><ele>119.66666666666666</ele><time>2026-04-22T08:47:10.999Z</time></trkpt><trkpt lat="44.23046302649804" lon="8.398243369097266"><ele>122.33333333333333</ele><time>2026-04-22T08:47:11.999Z</time></trkpt><trkpt lat="44.230283004654694" lon="8.398047673958061"><ele>125.0</ele><time>2026-04-22T08:47:12.999Z</time></trkpt><trkpt lat="44.23011096605258" lon="8.397856810857226"><ele>125.0</ele><time>2026-04-22T08:47:13.999Z</time></trkpt><trkpt lat="44.229946544580336" lon="8.397653201506008"><ele>125.0</ele><time>2026-04-22T08:47:14.999Z</time></trkpt><trkpt lat="44.229794777636975" lon="8.397450133120332"><ele>125.0</ele><time>2026-04-22T08:47:15.999Z</time></trkpt><trkpt lat="44.229648318863624" lon="8.39723230960655"><ele>128.33333333333331</ele><time>2026-04-22T08:47:16.999Z</time></trkpt><trkpt lat="44.229511536327585" lon="8.397008786360553"><ele>131.66666666666666</ele><time>2026-04-22T08:47:17.999Z</time></trkpt><trkpt lat="44.229378175877336" lon="8.396770982818516"><ele>135.0</ele><time>2026-04-22T08:47:18.999Z</time></trkpt><trkpt lat="44.22924772613216" lon="8.396523488792411"><ele>135.0</ele><time>2026-04-22T08:47:19.999Z</time></trkpt><trkpt lat="44.22913219729021" lon="8.396268075938945"><ele>135.0</ele><time>2026-04-22T08:47:20.999Z</time></trkpt><trkpt lat="44.229015765189146" lon="8.395997683507732"><ele>135.0</ele><time>2026-04-22T08:47:21.999Z</time></trkpt><trkpt lat="44.228909500871026" lon="8.395726366342853"><ele>141.5</ele><time>2026-04-22T08:47:22.999Z</time></trkpt><trkpt lat="44.228810266412765" lon="8.395447413741701"><ele>148.0</ele><time>2026-04-22T08:47:23.999Z</time></trkpt><trkpt lat="44.22871689222716" lon="8.39515880644011"><ele>148.0</ele><time>2026-04-22T08:47:24.999Z</time></trkpt><trkpt lat="44.228636490052146" lon="8.39486907845838"><ele>148.0</ele><time>2026-04-22T08:47:25.999Z</time></trkpt><trkpt lat="44.22856126135657" lon="8.394566121991717"><ele>146.5</ele><time>2026-04-22T08:47:26.999Z</time></trkpt><trkpt lat="44.22849164760395" lon="8.394270561076164"><ele>145.0</ele><time>2026-04-22T08:47:27.999Z</time></trkpt><trkpt lat="44.228443587727384" lon="8.393950252346531"><ele>146.5</ele><time>2026-04-22T08:47:28.999Z</time></trkpt><trkpt lat="44.22839041050164" lon="8.393645417498751"><ele>148.0</ele><time>2026-04-22T08:47:29.999Z</time></trkpt><trkpt lat="44.228340745826735" lon="8.393324609078864"><ele>148.0</ele><time>2026-04-22T08:47:30.999Z</time></trkpt><trkpt lat="44.228287203764395" lon="8.393019554406553"><ele>148.0</ele><time>2026-04-22T08:47:31.999Z</time></trkpt><trkpt lat="44.228237337627036" lon="8.39270023445719"><ele>146.0</ele><time>2026-04-22T08:47:32.999Z</time></trkpt><trkpt lat="44.228182636276244" lon="8.392384640156452"><ele>144.0</ele><time>2026-04-22T08:47:33.999Z</time></trkpt><trkpt lat="44.228130458447936" lon="8.392055304271397"><ele>161.5</ele><time>2026-04-22T08:47:34.999Z</time></trkpt><trkpt lat="44.22807454750961" lon="8.39172663886286"><ele>179.0</ele><time>2026-04-22T08:47:35.999Z</time></trkpt><trkpt lat="44.228018498553645" lon="8.391398661810618"><ele>175.0</ele><time>2026-04-22T08:47:36.999Z</time></trkpt><trkpt lat="44.22796404470141" lon="8.391053909141611"><ele>171.0</ele><time>2026-04-22T08:47:37.999Z</time></trkpt><trkpt lat="44.22790940948555" lon="8.390713499209904"><ele>169.0</ele><time>2026-04-22T08:47:38.999Z</time></trkpt><trkpt lat="44.22785564428528" lon="8.3903899995936"><ele>167.0</ele><time>2026-04-22T08:47:39.999Z</time></trkpt><trkpt lat="44.22780604054696" lon="8.390074598616721"><ele>167.0</ele><time>2026-04-22T08:47:40.999Z</time></trkpt><trkpt lat="44.227753106730354" lon="8.389773997635949"><ele>167.0</ele><time>2026-04-22T08:47:41.999Z</time></trkpt><trkpt lat="44.22770416807049" lon="8.389473782063849"><ele>167.0</ele><time>2026-04-22T08:47:42.999Z</time></trkpt><trkpt lat="44.227655884213085" lon="8.389177816624766"><ele>166.33333333333331</ele><time>2026-04-22T08:47:43.999Z</time></trkpt><trkpt lat="44.22760698086159" lon="8.388879769491096"><ele>165.66666666666666</ele><time>2026-04-22T08:47:44.999Z</time></trkpt><trkpt lat="44.22755149189507" lon="8.388586165903707"><ele>165.0</ele><time>2026-04-22T08:47:45.999Z</time></trkpt><trkpt lat="44.22749100380906" lon="8.388292041593317"><ele>168.0</ele><time>2026-04-22T08:47:46.999Z</time></trkpt><trkpt lat="44.227425564995585" lon="8.388005670791756"><ele>171.0</ele><time>2026-04-22T08:47:47.999Z</time></trkpt><trkpt lat="44.227350626773806" lon="8.387725180041576"><ele>174.0</ele><time>2026-04-22T08:47:48.999Z</time></trkpt><trkpt lat="44.227273453094185" lon="8.387443312598075"><ele>181.0</ele><time>2026-04-22T08:47:49.999Z</time></trkpt><trkpt lat="44.22719117244059" lon="8.38716291534786"><ele>188.0</ele><time>2026-04-22T08:47:50.999Z</time></trkpt><trkpt lat="44.2271027904865" lon="8.386882203178404"><ele>195.0</ele><time>2026-04-22T08:47:51.999Z</time></trkpt><trkpt lat="44.227012176967584" lon="8.386605368292496"><ele>192.0</ele><time>2026-04-22T08:47:52.999Z</time></trkpt><trkpt lat="44.226920245254846" lon="8.386320467971997"><ele>189.0</ele><time>2026-04-22T08:47:53.999Z</time></trkpt><trkpt lat="44.22682527492741" lon="8.386029309474461"><ele>189.0</ele><time>2026-04-22T08:47:54.999Z</time></trkpt><trkpt lat="44.22673516010364" lon="8.385747918013829"><ele>189.0</ele><time>2026-04-22T08:47:55.999Z</time></trkpt><trkpt lat="44.22663520559886" lon="8.385451196353777"><ele>188.0</ele><time>2026-04-22T08:47:57.071Z</time></trkpt><trkpt lat="44.22657115201035" lon="8.385026363210992"><ele>187.0</ele><time>2026-04-22T08:47:58.999Z</time></trkpt><trkpt lat="44.22648272079104" lon="8.384671448164985"><ele>174.0</ele><time>2026-04-22T08:47:59.999Z</time></trkpt><trkpt lat="44.22640826919298" lon="8.384354227910183"><ele>161.0</ele><time>2026-04-22T08:48:00.999Z</time></trkpt><trkpt lat="44.2263541888861" lon="8.384038362016751"><ele>165.5</ele><time>2026-04-22T08:48:01.999Z</time></trkpt><trkpt lat="44.22631450498269" lon="8.383733704418987"><ele>170.0</ele><time>2026-04-22T08:48:02.999Z</time></trkpt><trkpt lat="44.22628886924649" lon="8.38341764842189"><ele>170.0</ele><time>2026-04-22T08:48:03.999Z</time></trkpt><trkpt lat="44.22627130162057" lon="8.383095044139916"><ele>170.0</ele><time>2026-04-22T08:48:04.999Z</time></trkpt><trkpt lat="44.22626986398359" lon="8.382764903381595"><ele>168.5</ele><time>2026-04-22T08:48:05.999Z</time></trkpt><trkpt lat="44.226269757286275" lon="8.382433837869613"><ele>167.0</ele><time>2026-04-22T08:48:06.999Z</time></trkpt><trkpt lat="44.22627392005914" lon="8.382107129255466"><ele>163.0</ele><time>2026-04-22T08:48:07.999Z</time></trkpt><trkpt lat="44.226276744795776" lon="8.38179030898345"><ele>159.0</ele><time>2026-04-22T08:48:08.999Z</time></trkpt><trkpt lat="44.226278740300685" lon="8.381473505083543"><ele>162.0</ele><time>2026-04-22T08:48:09.999Z</time></trkpt><trkpt lat="44.2262840146152" lon="8.381159974653354"><ele>165.0</ele><time>2026-04-22T08:48:10.999Z</time></trkpt><trkpt lat="44.22628853781961" lon="8.380848146930813"><ele>168.0</ele><time>2026-04-22T08:48:11.999Z</time></trkpt><trkpt lat="44.22629253519813" lon="8.380540248375855"><ele>170.66666666666666</ele><time>2026-04-22T08:48:12.999Z</time></trkpt><trkpt lat="44.22629843125317" lon="8.3802374309945"><ele>173.33333333333331</ele><time>2026-04-22T08:48:13.999Z</time></trkpt><trkpt lat="44.22630286641865" lon="8.379944274257966"><ele>176.0</ele><time>2026-04-22T08:48:14.999Z</time></trkpt><trkpt lat="44.22630667245308" lon="8.379658407984442"><ele>176.0</ele><time>2026-04-22T08:48:15.999Z</time></trkpt><trkpt lat="44.22630989631916" lon="8.379373138732738"><ele>176.0</ele><time>2026-04-22T08:48:16.998Z</time></trkpt><trkpt lat="44.22631324267626" lon="8.379089615000108"><ele>176.0</ele><time>2026-04-22T08:48:17.998Z</time></trkpt><trkpt lat="44.22631998001298" lon="8.378803225442269"><ele>176.66666666666666</ele><time>2026-04-22T08:48:18.998Z</time></trkpt><trkpt lat="44.226331769410784" lon="8.37851382092472"><ele>177.33333333333334</ele><time>2026-04-22T08:48:19.998Z</time></trkpt><trkpt lat="44.22635445111522" lon="8.378222273833861"><ele>178.0</ele><time>2026-04-22T08:48:20.998Z</time></trkpt><trkpt lat="44.22638181050033" lon="8.37793611724192"><ele>175.66666666666669</ele><time>2026-04-22T08:48:21.998Z</time></trkpt><trkpt lat="44.22641461889222" lon="8.377653612229958"><ele>173.33333333333334</ele><time>2026-04-22T08:48:22.998Z</time></trkpt><trkpt lat="44.226450587509646" lon="8.377368725965045"><ele>171.0</ele><time>2026-04-22T08:48:23.998Z</time></trkpt><trkpt lat="44.22649112294026" lon="8.377090554747088"><ele>181.0</ele><time>2026-04-22T08:48:24.998Z</time></trkpt><trkpt lat="44.22654001633038" lon="8.376814722882447"><ele>191.0</ele><time>2026-04-22T08:48:25.998Z</time></trkpt><trkpt lat="44.22659212469409" lon="8.376539302961781"><ele>201.0</ele><time>2026-04-22T08:48:26.998Z</time></trkpt><trkpt lat="44.226649519178025" lon="8.376268308701015"><ele>201.0</ele><time>2026-04-22T08:48:27.998Z</time></trkpt><trkpt lat="44.22670847889432" lon="8.376012253633718"><ele>201.0</ele><time>2026-04-22T08:48:28.998Z</time></trkpt><trkpt lat="44.22676443070046" lon="8.375770170837345"><ele>201.0</ele><time>2026-04-22T08:48:29.998Z</time></trkpt><trkpt lat="44.22681528950055" lon="8.375529816385544"><ele>198.66666666666669</ele><time>2026-04-22T08:48:30.998Z</time></trkpt><trkpt lat="44.226858681111686" lon="8.375288037729586"><ele>196.33333333333334</ele><time>2026-04-22T08:48:31.998Z</time></trkpt><trkpt lat="44.22690849347468" lon="8.375028827658138"><ele>194.0</ele><time>2026-04-22T08:48:32.998Z</time></trkpt><trkpt lat="44.22701759930317" lon="8.374798312907377"><ele>190.66666666666669</ele><time>2026-04-22T08:48:33.998Z</time></trkpt><trkpt lat="44.227082136459394" lon="8.374556592859758"><ele>187.33333333333334</ele><time>2026-04-22T08:48:34.998Z</time></trkpt><trkpt lat="44.22714718553253" lon="8.374319252684808"><ele>184.0</ele><time>2026-04-22T08:48:35.998Z</time></trkpt><trkpt lat="44.22721060219384" lon="8.374077851122447"><ele>185.66666666666669</ele><time>2026-04-22T08:48:36.998Z</time></trkpt><trkpt lat="44.22727546841261" lon="8.373834301664015"><ele>187.33333333333334</ele><time>2026-04-22T08:48:37.998Z</time></trkpt><trkpt lat="44.22734144652825" lon="8.37358943782729"><ele>189.0</ele><time>2026-04-22T08:48:38.998Z</time></trkpt><trkpt lat="44.22741084296099" lon="8.37334147651377"><ele>195.33333333333331</ele><time>2026-04-22T08:48:39.998Z</time></trkpt><trkpt lat="44.2274712331328" lon="8.373082542136373"><ele>201.66666666666666</ele><time>2026-04-22T08:48:40.998Z</time></trkpt><trkpt lat="44.227537569459905" lon="8.372818874639897"><ele>208.0</ele><time>2026-04-22T08:48:41.998Z</time></trkpt><trkpt lat="44.22760455736133" lon="8.372559896795753"><ele>208.0</ele><time>2026-04-22T08:48:42.998Z</time></trkpt><trkpt lat="44.22767787234356" lon="8.372308743329137"><ele>208.0</ele><time>2026-04-22T08:48:43.998Z</time></trkpt><trkpt lat="44.22774338585421" lon="8.372055321665318"><ele>208.0</ele><time>2026-04-22T08:48:44.998Z</time></trkpt><trkpt lat="44.227807297991895" lon="8.371801813027028"><ele>208.66666666666666</ele><time>2026-04-22T08:48:45.998Z</time></trkpt><trkpt lat="44.22787192537877" lon="8.371551141299976"><ele>209.33333333333331</ele><time>2026-04-22T08:48:46.998Z</time></trkpt><trkpt lat="44.22793578444406" lon="8.371302817663615"><ele>210.0</ele><time>2026-04-22T08:48:47.998Z</time></trkpt><trkpt lat="44.22799094434535" lon="8.371048432658691"><ele>210.66666666666669</ele><time>2026-04-22T08:48:48.998Z</time></trkpt><trkpt lat="44.22804555774904" lon="8.37079318771213"><ele>211.33333333333334</ele><time>2026-04-22T08:48:49.998Z</time></trkpt><trkpt lat="44.228088200537286" lon="8.37056176771097"><ele>212.0</ele><time>2026-04-22T08:48:50.998Z</time></trkpt><trkpt lat="44.2281320517208" lon="8.370300084805068"><ele>223.5</ele><time>2026-04-22T08:48:51.998Z</time></trkpt><trkpt lat="44.22818081248804" lon="8.37003767549229"><ele>235.0</ele><time>2026-04-22T08:48:52.999Z</time></trkpt><trkpt lat="44.22824667369112" lon="8.36950066554924"><ele>235.0</ele><time>2026-04-22T08:48:54.999Z</time></trkpt><trkpt lat="44.22826053818892" lon="8.36911458051726"><ele>235.0</ele><time>2026-04-22T08:48:55.999Z</time></trkpt><trkpt lat="44.22827742634185" lon="8.368842301918363"><ele>240.66666666666666</ele><time>2026-04-22T08:48:56.999Z</time></trkpt><trkpt lat="44.228283751225426" lon="8.368576297584726"><ele>246.33333333333331</ele><time>2026-04-22T08:48:57.999Z</time></trkpt><trkpt lat="44.228288829102105" lon="8.368328522932075"><ele>252.0</ele><time>2026-04-22T08:48:58.999Z</time></trkpt><trkpt lat="44.2282909635251" lon="8.368082466960326"><ele>259.3333333333333</ele><time>2026-04-22T08:48:59.999Z</time></trkpt><trkpt lat="44.22828659038382" lon="8.367837927649173"><ele>266.66666666666663</ele><time>2026-04-22T08:49:00.999Z</time></trkpt><trkpt lat="44.228284181437196" lon="8.367599270282406"><ele>274.0</ele><time>2026-04-22T08:49:01.999Z</time></trkpt><trkpt lat="44.22828302669478" lon="8.367360990987018"><ele>280.0</ele><time>2026-04-22T08:49:02.999Z</time></trkpt><trkpt lat="44.22828124755168" lon="8.367130287080066"><ele>286.0</ele><time>2026-04-22T08:49:03.999Z</time></trkpt><trkpt lat="44.22828083381616" lon="8.366892556375031"><ele>292.0</ele><time>2026-04-22T08:49:05.056Z</time></trkpt><trkpt lat="44.22824685051707" lon="8.366662127592097"><ele>292.0</ele><time>2026-04-22T08:49:06.055Z</time></trkpt><trkpt lat="44.228212829640384" lon="8.366434281748361"><ele>292.0</ele><time>2026-04-22T08:49:07.053Z</time></trkpt><trkpt lat="44.227438455054866" lon="8.36385449447811"><ele>239.0</ele><time>2026-04-22T08:49:10.753Z</time></trkpt><trkpt lat="44.22696038345646" lon="8.362575771400142"><ele>239.0</ele><time>2026-04-22T08:49:22.999Z</time></trkpt><trkpt lat="44.2268831406811" lon="8.362396254290095"><ele>239.0</ele><time>2026-04-22T08:49:23.999Z</time></trkpt><trkpt lat="44.22683592615405" lon="8.36216501725212"><ele>239.0</ele><time>2026-04-22T08:49:24.999Z</time></trkpt><trkpt lat="44.226733817481986" lon="8.36197469664617"><ele>241.0</ele><time>2026-04-22T08:49:25.999Z</time></trkpt><trkpt lat="44.22664483198566" lon="8.361751420587984"><ele>243.0</ele><time>2026-04-22T08:49:26.999Z</time></trkpt><trkpt lat="44.226566820049534" lon="8.361521003972209"><ele>245.0</ele><time>2026-04-22T08:49:27.999Z</time></trkpt><trkpt lat="44.22648458507927" lon="8.361276567156107"><ele>241.33333333333334</ele><time>2026-04-22T08:49:28.999Z</time></trkpt><trkpt lat="44.22640824332467" lon="8.36103943963992"><ele>237.66666666666669</ele><time>2026-04-22T08:49:29.999Z</time></trkpt><trkpt lat="44.2263331535188" lon="8.360818634005913"><ele>234.0</ele><time>2026-04-22T08:49:30.999Z</time></trkpt><trkpt lat="44.22625647336757" lon="8.360606017465585"><ele>235.0</ele><time>2026-04-22T08:49:31.999Z</time></trkpt><trkpt lat="44.22618336796374" lon="8.360401789663852"><ele>236.0</ele><time>2026-04-22T08:49:32.999Z</time></trkpt><trkpt lat="44.22611607778721" lon="8.360213926047733"><ele>237.0</ele><time>2026-04-22T08:49:33.999Z</time></trkpt><trkpt lat="44.22605655070315" lon="8.360045492131837"><ele>238.0</ele><time>2026-04-22T08:49:34.999Z</time></trkpt><trkpt lat="44.22600317278899" lon="8.359876472439757"><ele>238.0</ele><time>2026-04-22T08:49:35.999Z</time></trkpt><trkpt lat="44.22596414588356" lon="8.359703101358928"><ele>238.0</ele><time>2026-04-22T08:49:36.999Z</time></trkpt><trkpt lat="44.22592867835154" lon="8.35953403580792"><ele>238.0</ele><time>2026-04-22T08:49:37.999Z</time></trkpt><trkpt lat="44.225888260095566" lon="8.359383724494103"><ele>238.0</ele><time>2026-04-22T08:49:38.999Z</time></trkpt><trkpt lat="44.22584096719071" lon="8.359246517997967"><ele>239.2</ele><time>2026-04-22T08:49:39.999Z</time></trkpt><trkpt lat="44.22579570469927" lon="8.359118915108827"><ele>240.4</ele><time>2026-04-22T08:49:40.999Z</time></trkpt><trkpt lat="44.22574887018375" lon="8.358999676541538"><ele>241.59999999999997</ele><time>2026-04-22T08:49:41.999Z</time></trkpt><trkpt lat="44.225702778020775" lon="8.35888173252693"><ele>242.79999999999998</ele><time>2026-04-22T08:49:42.999Z</time></trkpt><trkpt lat="44.22565812870826" lon="8.358766726224244"><ele>244.0</ele><time>2026-04-22T08:49:43.999Z</time></trkpt><trkpt lat="44.225616474631565" lon="8.35865345541074"><ele>240.83333333333331</ele><time>2026-04-22T08:49:44.999Z</time></trkpt><trkpt lat="44.22557884805499" lon="8.358545724147334"><ele>237.66666666666666</ele><time>2026-04-22T08:49:45.999Z</time></trkpt><trkpt lat="44.225542650449185" lon="8.358442788268997"><ele>234.5</ele><time>2026-04-22T08:49:46.999Z</time></trkpt><trkpt lat="44.225506216599946" lon="8.35834502074576"><ele>231.33333333333331</ele><time>2026-04-22T08:49:47.999Z</time></trkpt><trkpt lat="44.22546817565447" lon="8.358257501624946"><ele>228.16666666666666</ele><time>2026-04-22T08:49:48.999Z</time></trkpt><trkpt lat="44.225432396564656" lon="8.358179110303928"><ele>225.0</ele><time>2026-04-22T08:49:49.999Z</time></trkpt><trkpt lat="44.22537712418522" lon="8.358093006596688"><ele>225.0</ele><time>2026-04-22T08:49:51.999Z</time></trkpt></trkseg><trkseg><trkpt lat="44.22315672178754" lon="8.333304720231233"><ele>196.66666666666666</ele><time>2026-04-22T09:00:10Z</time></trkpt><trkpt lat="44.2230876908967" lon="8.333019469997742"><ele>191.33333333333331</ele><time>2026-04-22T09:00:11Z</time></trkpt><trkpt lat="44.223035521609155" lon="8.332722103240668"><ele>186.0</ele><time>2026-04-22T09:00:12Z</time></trkpt><trkpt lat="44.22296178629485" lon="8.33243131284119"><ele>187.0</ele><time>2026-04-22T09:00:13Z</time></trkpt><trkpt lat="44.22288577546339" lon="8.332149551222447"><ele>188.0</ele><time>2026-04-22T09:00:14Z</time></trkpt><trkpt lat="44.22281168234364" lon="8.331862939249763"><ele>189.0</ele><time>2026-04-22T09:00:15Z</time></trkpt><trkpt lat="44.22273631533369" lon="8.331576172679254"><ele>188.66666666666666</ele><time>2026-04-22T09:00:16Z</time></trkpt><trkpt lat="44.222661735757335" lon="8.331286577570221"><ele>188.33333333333331</ele><time>2026-04-22T09:00:17Z</time></trkpt><trkpt lat="44.222586147837845" lon="8.33100163028593"><ele>188.0</ele><time>2026-04-22T09:00:18Z</time></trkpt><trkpt lat="44.22250423896158" lon="8.330722629074303"><ele>188.33333333333331</ele><time>2026-04-22T09:00:19Z</time></trkpt><trkpt lat="44.222424550494274" lon="8.330452632382475"><ele>188.66666666666666</ele><time>2026-04-22T09:00:20Z</time></trkpt><trkpt lat="44.222337270354146" lon="8.33019695755292"><ele>189.0</ele><time>2026-04-22T09:00:21Z</time></trkpt><trkpt lat="44.22225869263775" lon="8.329922932798906"><ele>183.66666666666666</ele><time>2026-04-22T09:00:22Z</time></trkpt><trkpt lat="44.222175400459015" lon="8.329655297453105"><ele>178.33333333333331</ele><time>2026-04-22T09:00:23Z</time></trkpt><trkpt lat="44.22208698881473" lon="8.329382805452893"><ele>173.0</ele><time>2026-04-22T09:00:24Z</time></trkpt><trkpt lat="44.22198751714366" lon="8.329117529872564"><ele>172.0</ele><time>2026-04-22T09:00:25Z</time></trkpt><trkpt lat="44.22187946657605" lon="8.328851552495163"><ele>171.0</ele><time>2026-04-22T09:00:26Z</time></trkpt><trkpt lat="44.221762382628135" lon="8.328590984373458"><ele>170.0</ele><time>2026-04-22T09:00:27Z</time></trkpt><trkpt lat="44.221642726306044" lon="8.328331738891256"><ele>170.0</ele><time>2026-04-22T09:00:28Z</time></trkpt><trkpt lat="44.221513147549494" lon="8.3280783005375"><ele>170.0</ele><time>2026-04-22T09:00:29Z</time></trkpt><trkpt lat="44.22137556708488" lon="8.327835757756647"><ele>170.0</ele><time>2026-04-22T09:00:30Z</time></trkpt><trkpt lat="44.221227985435355" lon="8.327598804232588"><ele>171.66666666666666</ele><time>2026-04-22T09:00:31Z</time></trkpt><trkpt lat="44.22107562822727" lon="8.327372711847186"><ele>173.33333333333334</ele><time>2026-04-22T09:00:32Z</time></trkpt><trkpt lat="44.220920891701304" lon="8.32715245070906"><ele>175.0</ele><time>2026-04-22T09:00:33Z</time></trkpt><trkpt lat="44.22076017858528" lon="8.326939589056158"><ele>173.66666666666669</ele><time>2026-04-22T09:00:33.999Z</time></trkpt><trkpt lat="44.22059494737663" lon="8.32673447748224"><ele>172.33333333333334</ele><time>2026-04-22T09:00:34.999Z</time></trkpt><trkpt lat="44.22042190128295" lon="8.326544644249479"><ele>171.0</ele><time>2026-04-22T09:00:35.999Z</time></trkpt><trkpt lat="44.22024703986727" lon="8.326363246923835"><ele>164.0</ele><time>2026-04-22T09:00:36.999Z</time></trkpt><trkpt lat="44.22006823495778" lon="8.32618299277412"><ele>157.0</ele><time>2026-04-22T09:00:37.999Z</time></trkpt><trkpt lat="44.21988600277264" lon="8.32600922853897"><ele>150.0</ele><time>2026-04-22T09:00:38.999Z</time></trkpt><trkpt lat="44.21969602189448" lon="8.325843948752782"><ele>149.0</ele><time>2026-04-22T09:00:39.999Z</time></trkpt><trkpt lat="44.21950625554224" lon="8.32568775541037"><ele>148.0</ele><time>2026-04-22T09:00:40.999Z</time></trkpt><trkpt lat="44.219310889478535" lon="8.325539171190407"><ele>147.0</ele><time>2026-04-22T09:00:41.999Z</time></trkpt><trkpt lat="44.21910831401646" lon="8.325398655514848"><ele>143.5</ele><time>2026-04-22T09:00:42.999Z</time></trkpt><trkpt lat="44.218900345238836" lon="8.325262905722182"><ele>140.0</ele><time>2026-04-22T09:00:43.999Z</time></trkpt><trkpt lat="44.218697944229284" lon="8.325114154398854"><ele>140.0</ele><time>2026-04-22T09:00:44.999Z</time></trkpt><trkpt lat="44.218486637100945" lon="8.324977270034772"><ele>140.0</ele><time>2026-04-22T09:00:45.999Z</time></trkpt><trkpt lat="44.2182807898248" lon="8.324836716197439"><ele>140.5</ele><time>2026-04-22T09:00:46.999Z</time></trkpt><trkpt lat="44.218076561810975" lon="8.324693983152473"><ele>141.0</ele><time>2026-04-22T09:00:47.999Z</time></trkpt><trkpt lat="44.21787140531604" lon="8.324554268398893"><ele>141.0</ele><time>2026-04-22T09:00:48.999Z</time></trkpt><trkpt lat="44.21766259426985" lon="8.324421768589655"><ele>141.0</ele><time>2026-04-22T09:00:49.999Z</time></trkpt><trkpt lat="44.217453574248324" lon="8.324285342421781"><ele>140.0</ele><time>2026-04-22T09:00:50.999Z</time></trkpt><trkpt lat="44.21724919004245" lon="8.32414955626125"><ele>139.0</ele><time>2026-04-22T09:00:51.999Z</time></trkpt><trkpt lat="44.217043686465175" lon="8.324018138043883"><ele>142.5</ele><time>2026-04-22T09:00:52.999Z</time></trkpt><trkpt lat="44.21683818493699" lon="8.32388610555802"><ele>146.0</ele><time>2026-04-22T09:00:53.999Z</time></trkpt><trkpt lat="44.2166352806237" lon="8.32375509316869"><ele>146.33333333333331</ele><time>2026-04-22T09:00:54.999Z</time></trkpt><trkpt lat="44.216435940766786" lon="8.323625112903276"><ele>146.66666666666666</ele><time>2026-04-22T09:00:55.999Z</time></trkpt><trkpt lat="44.21623523784333" lon="8.323492052484417"><ele>147.0</ele><time>2026-04-22T09:00:56.999Z</time></trkpt><trkpt lat="44.21603447988233" lon="8.323361027473641"><ele>147.0</ele><time>2026-04-22T09:00:57.999Z</time></trkpt><trkpt lat="44.215835092293496" lon="8.32322895824572"><ele>147.0</ele><time>2026-04-22T09:00:58.999Z</time></trkpt><trkpt lat="44.21563743200682" lon="8.323100281132657"><ele>147.0</ele><time>2026-04-22T09:00:59.999Z</time></trkpt><trkpt lat="44.215442102540386" lon="8.32297055506931"><ele>152.0</ele><time>2026-04-22T09:01:00.999Z</time></trkpt><trkpt lat="44.21525019957905" lon="8.322842217152047"><ele>157.0</ele><time>2026-04-22T09:01:01.999Z</time></trkpt><trkpt lat="44.215066324928145" lon="8.32271520945076"><ele>162.0</ele><time>2026-04-22T09:01:02.999Z</time></trkpt><trkpt lat="44.21489292676798" lon="8.32258584699917"><ele>157.66666666666666</ele><time>2026-04-22T09:01:03.999Z</time></trkpt><trkpt lat="44.21472266369718" lon="8.322473981945405"><ele>153.33333333333331</ele><time>2026-04-22T09:01:04.999Z</time></trkpt><trkpt lat="44.21455428314333" lon="8.322371922589104"><ele>149.0</ele><time>2026-04-22T09:01:05.999Z</time></trkpt><trkpt lat="44.21439199658287" lon="8.322262224313729"><ele>151.0</ele><time>2026-04-22T09:01:06.999Z</time></trkpt><trkpt lat="44.21422834149529" lon="8.322152081752336"><ele>153.0</ele><time>2026-04-22T09:01:07.999Z</time></trkpt><trkpt lat="44.21406620234764" lon="8.322043320822221"><ele>155.0</ele><time>2026-04-22T09:01:08.999Z</time></trkpt><trkpt lat="44.2139092937144" lon="8.321931677787399"><ele>155.0</ele><time>2026-04-22T09:01:09.999Z</time></trkpt><trkpt lat="44.2137536144021" lon="8.321836755311113"><ele>155.0</ele><time>2026-04-22T09:01:10.999Z</time></trkpt><trkpt lat="44.21360194999142" lon="8.321739635131975"><ele>155.0</ele><time>2026-04-22T09:01:11.999Z</time></trkpt><trkpt lat="44.213454998772924" lon="8.321638685814076"><ele>155.0</ele><time>2026-04-22T09:01:12.999Z</time></trkpt><trkpt lat="44.21331793441966" lon="8.321543604666003"><ele>155.0</ele><time>2026-04-22T09:01:13.999Z</time></trkpt><trkpt lat="44.2131872927164" lon="8.321451071420167"><ele>155.0</ele><time>2026-04-22T09:01:14.999Z</time></trkpt><trkpt lat="44.213061979473224" lon="8.321365319952712"><ele>155.0</ele><time>2026-04-22T09:01:15.999Z</time></trkpt><trkpt lat="44.21294177448483" lon="8.321283162095465"><ele>157.0</ele><time>2026-04-22T09:01:16.999Z</time></trkpt><trkpt lat="44.21282407821059" lon="8.32119634594231"><ele>159.0</ele><time>2026-04-22T09:01:17.999Z</time></trkpt><trkpt lat="44.212706509418126" lon="8.321112486902798"><ele>161.0</ele><time>2026-04-22T09:01:18.999Z</time></trkpt><trkpt lat="44.212590703681514" lon="8.32102319451975"><ele>163.0</ele><time>2026-04-22T09:01:19.999Z</time></trkpt><trkpt lat="44.212478245948" lon="8.320933869480145"><ele>163.0</ele><time>2026-04-22T09:01:20.999Z</time></trkpt><trkpt lat="44.21236743867134" lon="8.320844056727443"><ele>163.0</ele><time>2026-04-22T09:01:21.999Z</time></trkpt><trkpt lat="44.21225924956666" lon="8.320749455883215"><ele>163.0</ele><time>2026-04-22T09:01:22.999Z</time></trkpt><trkpt lat="44.21214908888895" lon="8.32065218672683"><ele>163.0</ele><time>2026-04-22T09:01:23.999Z</time></trkpt><trkpt lat="44.212034772149146" lon="8.320555174796974"><ele>165.66666666666669</ele><time>2026-04-22T09:01:24.999Z</time></trkpt><trkpt lat="44.211914685750074" lon="8.320455409951618"><ele>168.33333333333334</ele><time>2026-04-22T09:01:25.999Z</time></trkpt><trkpt lat="44.21178423209821" lon="8.320344689191352"><ele>171.0</ele><time>2026-04-22T09:01:26.999Z</time></trkpt><trkpt lat="44.21165440646601" lon="8.320204216089678"><ele>171.0</ele><time>2026-04-22T09:01:28Z</time></trkpt><trkpt lat="44.21152302207186" lon="8.320041653185628"><ele>171.0</ele><time>2026-04-22T09:01:29Z</time></trkpt><trkpt lat="44.21135814021017" lon="8.319918664070732"><ele>171.0</ele><time>2026-04-22T09:01:30Z</time></trkpt><trkpt lat="44.21121791065524" lon="8.319749603659305"><ele>172.66666666666666</ele><time>2026-04-22T09:01:31Z</time></trkpt><trkpt lat="44.21107715044722" lon="8.319595831705419"><ele>174.33333333333331</ele><time>2026-04-22T09:01:32Z</time></trkpt><trkpt lat="44.21094105487701" lon="8.319435521460296"><ele>176.0</ele><time>2026-04-22T09:01:33Z</time></trkpt><trkpt lat="44.21080454032833" lon="8.31927381189289"><ele>176.0</ele><time>2026-04-22T09:01:34Z</time></trkpt><trkpt lat="44.210673664972724" lon="8.31910897860768"><ele>176.0</ele><time>2026-04-22T09:01:35Z</time></trkpt><trkpt lat="44.21054235311759" lon="8.318939013025453"><ele>176.0</ele><time>2026-04-22T09:01:36Z</time></trkpt><trkpt lat="44.21041260679528" lon="8.318762523460329"><ele>189.33333333333331</ele><time>2026-04-22T09:01:37Z</time></trkpt><trkpt lat="44.21028267218722" lon="8.318591573917697"><ele>202.66666666666666</ele><time>2026-04-22T09:01:38Z</time></trkpt><trkpt lat="44.210158992236174" lon="8.318422732847257"><ele>216.0</ele><time>2026-04-22T09:01:39Z</time></trkpt><trkpt lat="44.21004034054124" lon="8.318256242459784"><ele>216.0</ele><time>2026-04-22T09:01:40Z</time></trkpt><trkpt lat="44.20992781117264" lon="8.318090025321277"><ele>216.0</ele><time>2026-04-22T09:01:41Z</time></trkpt><trkpt lat="44.209818862768984" lon="8.317930508290738"><ele>216.0</ele><time>2026-04-22T09:01:42Z</time></trkpt><trkpt lat="44.20970588221307" lon="8.317765288120391"><ele>222.75</ele><time>2026-04-22T09:01:43.075Z</time></trkpt><trkpt lat="44.20960298970946" lon="8.317623725542179"><ele>229.5</ele><time>2026-04-22T09:01:44.05Z</time></trkpt><trkpt lat="44.20950196908859" lon="8.317484108801318"><ele>236.25</ele><time>2026-04-22T09:01:45.047Z</time></trkpt><trkpt lat="44.20940129283245" lon="8.31735416290536"><ele>243.0</ele><time>2026-04-22T09:01:46.048Z</time></trkpt><trkpt lat="44.2093059472655" lon="8.317225174886419"><ele>129.0</ele><time>2026-04-22T09:01:47.047Z</time></trkpt><trkpt lat="44.19774932259625" lon="8.304890630211805"><ele>129.0</ele><time>2026-04-22T09:03:08Z</time></trkpt><trkpt lat="44.197559978299665" lon="8.304907049223498"><ele>129.0</ele><time>2026-04-22T09:03:09Z</time></trkpt><trkpt lat="44.1973730670826" lon="8.30494451532594"><ele>129.0</ele><time>2026-04-22T09:03:10Z</time></trkpt><trkpt lat="44.19718023689503" lon="8.304983933080191"><ele>126.66666666666666</ele><time>2026-04-22T09:03:11Z</time></trkpt><trkpt lat="44.19698801502481" lon="8.305025082933462"><ele>124.33333333333333</ele><time>2026-04-22T09:03:12Z</time></trkpt><trkpt lat="44.19679254165758" lon="8.305060343661813"><ele>122.0</ele><time>2026-04-22T09:03:13Z</time></trkpt><trkpt lat="44.19659289858663" lon="8.305093224601439"><ele>117.33333333333333</ele><time>2026-04-22T09:03:14Z</time></trkpt><trkpt lat="44.1963990576679" lon="8.3051363694498"><ele>112.66666666666666</ele><time>2026-04-22T09:03:15Z</time></trkpt><trkpt lat="44.19619965283996" lon="8.305181136767164"><ele>108.0</ele><time>2026-04-22T09:03:16Z</time></trkpt><trkpt lat="44.19599776190359" lon="8.305230414484463"><ele>108.0</ele><time>2026-04-22T09:03:17Z</time></trkpt><trkpt lat="44.19579521240633" lon="8.305271845871816"><ele>108.0</ele><time>2026-04-22T09:03:17.999Z</time></trkpt><trkpt lat="44.195589274456545" lon="8.30531657838235"><ele>108.0</ele><time>2026-04-22T09:03:18.999Z</time></trkpt><trkpt lat="44.195385793264634" lon="8.305368497050877"><ele>104.66666666666666</ele><time>2026-04-22T09:03:19.999Z</time></trkpt><trkpt lat="44.19517712123543" lon="8.305415895932637"><ele>101.33333333333333</ele><time>2026-04-22T09:03:20.999Z</time></trkpt><trkpt lat="44.19496130758423" lon="8.305458964576538"><ele>98.0</ele><time>2026-04-22T09:03:21.999Z</time></trkpt><trkpt lat="44.19474903487955" lon="8.305501251526243"><ele>95.33333333333333</ele><time>2026-04-22T09:03:22.999Z</time></trkpt><trkpt lat="44.194543805575364" lon="8.305547891262805"><ele>92.66666666666666</ele><time>2026-04-22T09:03:23.999Z</time></trkpt><trkpt lat="44.19433462213724" lon="8.305596033596723"><ele>90.0</ele><time>2026-04-22T09:03:24.999Z</time></trkpt><trkpt lat="44.19412274203272" lon="8.305639794223767"><ele>94.0</ele><time>2026-04-22T09:03:25.999Z</time></trkpt><trkpt lat="44.19390726263312" lon="8.305688290357367"><ele>98.0</ele><time>2026-04-22T09:03:26.999Z</time></trkpt><trkpt lat="44.19368461698404" lon="8.305732342184527"><ele>102.0</ele><time>2026-04-22T09:03:27.999Z</time></trkpt><trkpt lat="44.193465186175914" lon="8.305778053067943"><ele>102.0</ele><time>2026-04-22T09:03:28.999Z</time></trkpt><trkpt lat="44.19324647719292" lon="8.305824217094475"><ele>102.0</ele><time>2026-04-22T09:03:29.999Z</time></trkpt><trkpt lat="44.19302021080533" lon="8.30587430011709"><ele>100.5</ele><time>2026-04-22T09:03:30.999Z</time></trkpt><trkpt lat="44.1927998191829" lon="8.30592657579412"><ele>99.0</ele><time>2026-04-22T09:03:31.999Z</time></trkpt><trkpt lat="44.19257080610074" lon="8.305977365194455"><ele>99.0</ele><time>2026-04-22T09:03:32.999Z</time></trkpt><trkpt lat="44.192341507834115" lon="8.306036727081388"><ele>99.0</ele><time>2026-04-22T09:03:34.001Z</time></trkpt><trkpt lat="44.19211064817094" lon="8.30607031626451"><ele>97.0</ele><time>2026-04-22T09:03:35.001Z</time></trkpt><trkpt lat="44.19186994554575" lon="8.30610402062401"><ele>95.0</ele><time>2026-04-22T09:03:36.001Z</time></trkpt><trkpt lat="44.19164016930116" lon="8.306131077425032"><ele>86.5</ele><time>2026-04-22T09:03:37.001Z</time></trkpt><trkpt lat="44.19141472580202" lon="8.30614743822532"><ele>78.0</ele><time>2026-04-22T09:03:38.001Z</time></trkpt><trkpt lat="44.1911885551673" lon="8.306172453414137"><ele>78.0</ele><time>2026-04-22T09:03:39.001Z</time></trkpt><trkpt lat="44.19096465734079" lon="8.306176002668995"><ele>78.0</ele><time>2026-04-22T09:03:40.001Z</time></trkpt><trkpt lat="44.190734996555044" lon="8.30616951993226"><ele>72.0</ele><time>2026-04-22T09:03:41.001Z</time></trkpt><trkpt lat="44.19050794271292" lon="8.306158559656938"><ele>66.0</ele><time>2026-04-22T09:03:42.001Z</time></trkpt><trkpt lat="44.1902844894406" lon="8.306140018936286"><ele>66.0</ele><time>2026-04-22T09:03:43.001Z</time></trkpt><trkpt lat="44.19006263903427" lon="8.306119743659915"><ele>66.0</ele><time>2026-04-22T09:03:44.001Z</time></trkpt><trkpt lat="44.18983741271373" lon="8.306090716862151"><ele>66.0</ele><time>2026-04-22T09:03:45.001Z</time></trkpt><trkpt lat="44.18961480749142" lon="8.30605526432037"><ele>60.0</ele><time>2026-04-22T09:03:46.001Z</time></trkpt><trkpt lat="44.18939359474937" lon="8.306015309003577"><ele>54.0</ele><time>2026-04-22T09:03:47.001Z</time></trkpt><trkpt lat="44.18916968044039" lon="8.305953555831168"><ele>47.5</ele><time>2026-04-22T09:03:48.001Z</time></trkpt><trkpt lat="44.18894588487297" lon="8.305890930179018"><ele>41.0</ele><time>2026-04-22T09:03:49.001Z</time></trkpt><trkpt lat="44.188725898004044" lon="8.305831126745426"><ele>41.0</ele><time>2026-04-22T09:03:50.001Z</time></trkpt><trkpt lat="44.18850196894554" lon="8.305758191092512"><ele>41.0</ele><time>2026-04-22T09:03:51.001Z</time></trkpt><trkpt lat="44.18828314293341" lon="8.305672526036407"><ele>37.5</ele><time>2026-04-22T09:03:52.001Z</time></trkpt><trkpt lat="44.18806137130224" lon="8.30558307702379"><ele>34.0</ele><time>2026-04-22T09:03:53.001Z</time></trkpt><trkpt lat="44.18784487842357" lon="8.30548146313027"><ele>33.5</ele><time>2026-04-22T09:03:54.001Z</time></trkpt><trkpt lat="44.18762432038314" lon="8.305374631233143"><ele>33.0</ele><time>2026-04-22T09:03:55.001Z</time></trkpt><trkpt lat="44.187405629726975" lon="8.305266817555587"><ele>35.0</ele><time>2026-04-22T09:03:56.001Z</time></trkpt><trkpt lat="44.18718662929553" lon="8.305149675685719"><ele>37.0</ele><time>2026-04-22T09:03:57.001Z</time></trkpt><trkpt lat="44.18697856567316" lon="8.305028183429899"><ele>37.0</ele><time>2026-04-22T09:03:58Z</time></trkpt><trkpt lat="44.186771383467025" lon="8.304887075058595"><ele>37.0</ele><time>2026-04-22T09:03:59Z</time></trkpt><trkpt lat="44.186568746479864" lon="8.30474839525841"><ele>47.66666666666667</ele><time>2026-04-22T09:04:00Z</time></trkpt><trkpt lat="44.18636651597752" lon="8.304615060818177"><ele>58.333333333333336</ele><time>2026-04-22T09:04:01Z</time></trkpt><trkpt lat="44.186171082094056" lon="8.30446589247019"><ele>69.0</ele><time>2026-04-22T09:04:02Z</time></trkpt><trkpt lat="44.18597163103243" lon="8.304314841139021"><ele>69.0</ele><time>2026-04-22T09:04:03Z</time></trkpt><trkpt lat="44.185776839944815" lon="8.30414846958304"><ele>69.0</ele><time>2026-04-22T09:04:04Z</time></trkpt><trkpt lat="44.18557976227083" lon="8.303972811789817"><ele>78.0</ele><time>2026-04-22T09:04:05Z</time></trkpt><trkpt lat="44.18538479535882" lon="8.303789640757113"><ele>87.0</ele><time>2026-04-22T09:04:06Z</time></trkpt><trkpt lat="44.18518818773277" lon="8.303612643974686"><ele>87.0</ele><time>2026-04-22T09:04:07Z</time></trkpt><trkpt lat="44.18499890381226" lon="8.30340707530038"><ele>87.0</ele><time>2026-04-22T09:04:08Z</time></trkpt><trkpt lat="44.1848025767891" lon="8.303206806115215"><ele>95.5</ele><time>2026-04-22T09:04:09Z</time></trkpt><trkpt lat="44.18461770329672" lon="8.30299884273227"><ele>104.0</ele><time>2026-04-22T09:04:10Z</time></trkpt><trkpt lat="44.18443908511038" lon="8.302784088921715"><ele>104.0</ele><time>2026-04-22T09:04:11Z</time></trkpt><trkpt lat="44.184263923126444" lon="8.302558059631565"><ele>104.0</ele><time>2026-04-22T09:04:12Z</time></trkpt><trkpt lat="44.18408076174903" lon="8.302350102575929"><ele>121.0</ele><time>2026-04-22T09:04:13Z</time></trkpt><trkpt lat="44.18389859898694" lon="8.302153049654414"><ele>138.0</ele><time>2026-04-22T09:04:14Z</time></trkpt><trkpt lat="44.18372079347452" lon="8.301943900922478"><ele>138.0</ele><time>2026-04-22T09:04:15Z</time></trkpt><trkpt lat="44.18354144358305" lon="8.301732488349204"><ele>138.0</ele><time>2026-04-22T09:04:16Z</time></trkpt><trkpt lat="44.18336182650064" lon="8.301524075825897"><ele>142.0</ele><time>2026-04-22T09:04:17Z</time></trkpt><trkpt lat="44.183181145818644" lon="8.301315743681867"><ele>146.0</ele><time>2026-04-22T09:04:18Z</time></trkpt><trkpt lat="44.182986697057565" lon="8.301093468920874"><ele>157.0</ele><time>2026-04-22T09:04:19.074Z</time></trkpt><trkpt lat="44.1828096661625" lon="8.300888758231219"><ele>168.0</ele><time>2026-04-22T09:04:20.059Z</time></trkpt><trkpt lat="44.18263036774488" lon="8.300681644916331"><ele>78.0</ele><time>2026-04-22T09:04:21.054Z</time></trkpt><trkpt lat="44.17719491691229" lon="8.295511800218115"><ele>78.0</ele><time>2026-04-22T09:04:50Z</time></trkpt><trkpt lat="44.177006059828685" lon="8.295399466139669"><ele>78.0</ele><time>2026-04-22T09:04:51Z</time></trkpt><trkpt lat="44.176838639554866" lon="8.295266666862267"><ele>78.0</ele><time>2026-04-22T09:04:52Z</time></trkpt><trkpt lat="44.17665125515325" lon="8.295143294614089"><ele>78.66666666666667</ele><time>2026-04-22T09:04:53Z</time></trkpt><trkpt lat="44.17646107807311" lon="8.295025940789285"><ele>79.33333333333334</ele><time>2026-04-22T09:04:54Z</time></trkpt><trkpt lat="44.176269998761214" lon="8.294910829698063"><ele>80.0</ele><time>2026-04-22T09:04:55Z</time></trkpt><trkpt lat="44.17608159087445" lon="8.294788067232021"><ele>73.66666666666667</ele><time>2026-04-22T09:04:56Z</time></trkpt><trkpt lat="44.17590255642817" lon="8.294663084974397"><ele>67.33333333333333</ele><time>2026-04-22T09:04:57Z</time></trkpt><trkpt lat="44.17571455489429" lon="8.294547364534033"><ele>61.0</ele><time>2026-04-22T09:04:58Z</time></trkpt><trkpt lat="44.17552210622609" lon="8.294415035234852"><ele>60.666666666666664</ele><time>2026-04-22T09:04:59Z</time></trkpt><trkpt lat="44.17532963277548" lon="8.294287779465913"><ele>60.33333333333333</ele><time>2026-04-22T09:05:00Z</time></trkpt><trkpt lat="44.175139911527616" lon="8.294154309161096"><ele>60.0</ele><time>2026-04-22T09:05:01Z</time></trkpt><trkpt lat="44.17494653563845" lon="8.294013480277826"><ele>67.0</ele><time>2026-04-22T09:05:02Z</time></trkpt><trkpt lat="44.17476208216312" lon="8.293875215258556"><ele>74.0</ele><time>2026-04-22T09:05:03Z</time></trkpt><trkpt lat="44.174593805180216" lon="8.293726578736033"><ele>81.0</ele><time>2026-04-22T09:05:04Z</time></trkpt><trkpt lat="44.17442000107527" lon="8.293575723047757"><ele>81.0</ele><time>2026-04-22T09:05:05Z</time></trkpt><trkpt lat="44.17424638476695" lon="8.293413884102492"><ele>81.0</ele><time>2026-04-22T09:05:06Z</time></trkpt><trkpt lat="44.17407782832092" lon="8.293248562339498"><ele>81.0</ele><time>2026-04-22T09:05:07Z</time></trkpt><trkpt lat="44.17391521580064" lon="8.293077036118184"><ele>86.33333333333334</ele><time>2026-04-22T09:05:08Z</time></trkpt><trkpt lat="44.173753911971055" lon="8.292897159666644"><ele>91.66666666666667</ele><time>2026-04-22T09:05:09Z</time></trkpt><trkpt lat="44.17359656056547" lon="8.29271225768678"><ele>97.0</ele><time>2026-04-22T09:05:10Z</time></trkpt><trkpt lat="44.17344163333442" lon="8.292517246139482"><ele>97.0</ele><time>2026-04-22T09:05:11Z</time></trkpt><trkpt lat="44.173294242072046" lon="8.292323238513823"><ele>97.0</ele><time>2026-04-22T09:05:12Z</time></trkpt><trkpt lat="44.173123236596126" lon="8.292091759314811"><ele>97.0</ele><time>2026-04-22T09:05:13Z</time></trkpt><trkpt lat="44.17295501246117" lon="8.291866686047527"><ele>121.5</ele><time>2026-04-22T09:05:14Z</time></trkpt><trkpt lat="44.17278550540913" lon="8.291641082619998"><ele>146.0</ele><time>2026-04-22T09:05:15Z</time></trkpt><trkpt lat="44.17261296230891" lon="8.29141457658907"><ele>147.5</ele><time>2026-04-22T09:05:16Z</time></trkpt><trkpt lat="44.172448203988644" lon="8.291196184076794"><ele>149.0</ele><time>2026-04-22T09:05:17Z</time></trkpt><trkpt lat="44.17227796118787" lon="8.290970497746743"><ele>162.0</ele><time>2026-04-22T09:05:18Z</time></trkpt><trkpt lat="44.17209671488492" lon="8.290723323507477"><ele>175.0</ele><time>2026-04-22T09:05:19.072Z</time></trkpt><trkpt lat="44.17192923677447" lon="8.290498208280859"><ele>182.0</ele><time>2026-04-22T09:05:20.056Z</time></trkpt><trkpt lat="44.17175911025809" lon="8.290268636466267"><ele>189.0</ele><time>2026-04-22T09:05:21.049Z</time></trkpt><trkpt lat="44.16746407335074" lon="8.277951504285895"><ele>147.33333333333334</ele><time>2026-04-22T09:06:12.999Z</time></trkpt><trkpt lat="44.16733599181339" lon="8.277868405811528"><ele>105.66666666666666</ele><time>2026-04-22T09:06:13.999Z</time></trkpt><trkpt lat="44.16721300595767" lon="8.277552532398909"><ele>64.0</ele><time>2026-04-22T09:06:14.999Z</time></trkpt><trkpt lat="44.16700553319972" lon="8.277252559920568"><ele>55.0</ele><time>2026-04-22T09:06:15.999Z</time></trkpt><trkpt lat="44.16684292543551" lon="8.277107178985652"><ele>46.0</ele><time>2026-04-22T09:06:16.999Z</time></trkpt><trkpt lat="44.16666291223675" lon="8.276963230361584"><ele>37.0</ele><time>2026-04-22T09:06:17.999Z</time></trkpt><trkpt lat="44.1664710538883" lon="8.276822387469972"><ele>34.66666666666667</ele><time>2026-04-22T09:06:19.001Z</time></trkpt><trkpt lat="44.16627269269845" lon="8.27669505889604"><ele>32.333333333333336</ele><time>2026-04-22T09:06:20.001Z</time></trkpt><trkpt lat="44.16607298999397" lon="8.276569391910423"><ele>30.0</ele><time>2026-04-22T09:06:21.001Z</time></trkpt><trkpt lat="44.165871702071065" lon="8.276454119800167"><ele>40.66666666666667</ele><time>2026-04-22T09:06:22.001Z</time></trkpt><trkpt lat="44.16566678204733" lon="8.276346096801687"><ele>51.333333333333336</ele><time>2026-04-22T09:06:23.001Z</time></trkpt><trkpt lat="44.165458817523785" lon="8.27624454396014"><ele>62.0</ele><time>2026-04-22T09:06:24.001Z</time></trkpt><trkpt lat="44.16524746863737" lon="8.276144307897262"><ele>62.0</ele><time>2026-04-22T09:06:25.001Z</time></trkpt><trkpt lat="44.16503850449811" lon="8.27604502299108"><ele>62.0</ele><time>2026-04-22T09:06:26.001Z</time></trkpt><trkpt lat="44.1648285957531" lon="8.275944955414342"><ele>62.0</ele><time>2026-04-22T09:06:27.001Z</time></trkpt><trkpt lat="44.16461831839382" lon="8.275843908381992"><ele>70.0</ele><time>2026-04-22T09:06:28.001Z</time></trkpt><trkpt lat="44.16440333970401" lon="8.275742415733298"><ele>78.0</ele><time>2026-04-22T09:06:29.001Z</time></trkpt><trkpt lat="44.16418978705295" lon="8.275639362955262"><ele>80.33333333333333</ele><time>2026-04-22T09:06:30.001Z</time></trkpt><trkpt lat="44.16397676635622" lon="8.275537727034616"><ele>82.66666666666666</ele><time>2026-04-22T09:06:31.001Z</time></trkpt><trkpt lat="44.1637644924276" lon="8.275437512611855"><ele>85.0</ele><time>2026-04-22T09:06:32.001Z</time></trkpt><trkpt lat="44.16355403390715" lon="8.27533686811391"><ele>85.0</ele><time>2026-04-22T09:06:33.001Z</time></trkpt><trkpt lat="44.16334304534577" lon="8.275235837610012"><ele>85.0</ele><time>2026-04-22T09:06:34.001Z</time></trkpt><trkpt lat="44.16313052400812" lon="8.275135891741623"><ele>85.0</ele><time>2026-04-22T09:06:35.001Z</time></trkpt><trkpt lat="44.16291828342083" lon="8.275034229028833"><ele>63.5</ele><time>2026-04-22T09:06:36.001Z</time></trkpt><trkpt lat="44.162703320148964" lon="8.274928164516414"><ele>42.0</ele><time>2026-04-22T09:06:37.001Z</time></trkpt><trkpt lat="44.162487551558335" lon="8.274825023562862"><ele>39.666666666666664</ele><time>2026-04-22T09:06:38.001Z</time></trkpt><trkpt lat="44.16227430955235" lon="8.274729053916959"><ele>37.33333333333333</ele><time>2026-04-22T09:06:39.001Z</time></trkpt><trkpt lat="44.16206145709228" lon="8.274629649703112"><ele>35.0</ele><time>2026-04-22T09:06:40.001Z</time></trkpt><trkpt lat="44.16184859919219" lon="8.274525308583216"><ele>35.0</ele><time>2026-04-22T09:06:41.001Z</time></trkpt><trkpt lat="44.16163269462571" lon="8.274422749559974"><ele>35.0</ele><time>2026-04-22T09:06:42.001Z</time></trkpt><trkpt lat="44.161418027447645" lon="8.27431882266168"><ele>51.0</ele><time>2026-04-22T09:06:43.001Z</time></trkpt><trkpt lat="44.161205993569176" lon="8.27421883497394"><ele>67.0</ele><time>2026-04-22T09:06:44.001Z</time></trkpt><trkpt lat="44.16099297411236" lon="8.274113687564116"><ele>67.0</ele><time>2026-04-22T09:06:45.001Z</time></trkpt><trkpt lat="44.160779720493494" lon="8.274003973907307"><ele>67.0</ele><time>2026-04-22T09:06:46.001Z</time></trkpt><trkpt lat="44.160568845336186" lon="8.27389203228957"><ele>72.33333333333333</ele><time>2026-04-22T09:06:47.001Z</time></trkpt><trkpt lat="44.16036011816488" lon="8.27377585482206"><ele>77.66666666666667</ele><time>2026-04-22T09:06:48.001Z</time></trkpt><trkpt lat="44.160155120798606" lon="8.273652095353777"><ele>83.0</ele><time>2026-04-22T09:06:49.001Z</time></trkpt><trkpt lat="44.15995480883135" lon="8.273523863220884"><ele>88.0</ele><time>2026-04-22T09:06:50Z</time></trkpt><trkpt lat="44.15975544388792" lon="8.273387999898555"><ele>93.0</ele><time>2026-04-22T09:06:51Z</time></trkpt><trkpt lat="44.15955787474222" lon="8.273246376133416"><ele>98.0</ele><time>2026-04-22T09:06:52Z</time></trkpt><trkpt lat="44.15935963750765" lon="8.273100590804988"><ele>98.0</ele><time>2026-04-22T09:06:53Z</time></trkpt><trkpt lat="44.15916078183568" lon="8.272947589656006"><ele>98.0</ele><time>2026-04-22T09:06:54Z</time></trkpt><trkpt lat="44.158962975923735" lon="8.27278980758697"><ele>105.0</ele><time>2026-04-22T09:06:55Z</time></trkpt><trkpt lat="44.15876678770701" lon="8.272624480935075"><ele>112.0</ele><time>2026-04-22T09:06:56Z</time></trkpt><trkpt lat="44.1585749538294" lon="8.272452555506659"><ele>112.0</ele><time>2026-04-22T09:06:57Z</time></trkpt><trkpt lat="44.158383142575545" lon="8.272275768627004"><ele>112.0</ele><time>2026-04-22T09:06:58Z</time></trkpt><trkpt lat="44.15819571825013" lon="8.272093239863644"><ele>112.5</ele><time>2026-04-22T09:06:59Z</time></trkpt><trkpt lat="44.15801157881945" lon="8.271905296421298"><ele>113.0</ele><time>2026-04-22T09:07:00Z</time></trkpt><trkpt lat="44.157828749563244" lon="8.271707859782811"><ele>113.0</ele><time>2026-04-22T09:07:01Z</time></trkpt><trkpt lat="44.15764464007776" lon="8.271499914366485"><ele>113.0</ele><time>2026-04-22T09:07:02Z</time></trkpt><trkpt lat="44.157460231737694" lon="8.27128598091146"><ele>111.0</ele><time>2026-04-22T09:07:03Z</time></trkpt><trkpt lat="44.15727807716316" lon="8.271066953646889"><ele>109.0</ele><time>2026-04-22T09:07:04Z</time></trkpt><trkpt lat="44.15710033095701" lon="8.27084268649639"><ele>109.0</ele><time>2026-04-22T09:07:05Z</time></trkpt><trkpt lat="44.1569247385627" lon="8.270609630329616"><ele>109.0</ele><time>2026-04-22T09:07:06Z</time></trkpt><trkpt lat="44.15675199419885" lon="8.270364235269424"><ele>114.0</ele><time>2026-04-22T09:07:07Z</time></trkpt><trkpt lat="44.15658029553501" lon="8.27011117042222"><ele>119.0</ele><time>2026-04-22T09:07:08Z</time></trkpt><trkpt lat="44.156411804632626" lon="8.269852728468154"><ele>114.0</ele><time>2026-04-22T09:07:09Z</time></trkpt><trkpt lat="44.15624998838724" lon="8.269591460330055"><ele>109.0</ele><time>2026-04-22T09:07:10Z</time></trkpt><trkpt lat="44.156091886664754" lon="8.269324183069527"><ele>109.0</ele><time>2026-04-22T09:07:11Z</time></trkpt><trkpt lat="44.15593711009407" lon="8.269052758697194"><ele>109.0</ele><time>2026-04-22T09:07:12Z</time></trkpt><trkpt lat="44.15578919333103" lon="8.268779001781823"><ele>102.5</ele><time>2026-04-22T09:07:13Z</time></trkpt><trkpt lat="44.155648074719785" lon="8.268499836130198"><ele>96.0</ele><time>2026-04-22T09:07:14Z</time></trkpt><trkpt lat="44.15551375720283" lon="8.268220935607763"><ele>99.0</ele><time>2026-04-22T09:07:15Z</time></trkpt><trkpt lat="44.15538054107011" lon="8.267939430154986"><ele>102.0</ele><time>2026-04-22T09:07:16Z</time></trkpt><trkpt lat="44.15525042311926" lon="8.267661920545619"><ele>102.0</ele><time>2026-04-22T09:07:17Z</time></trkpt><trkpt lat="44.155123651560814" lon="8.267386460211133"><ele>102.0</ele><time>2026-04-22T09:07:18Z</time></trkpt><trkpt lat="44.1549977546719" lon="8.267111460018095"><ele>105.5</ele><time>2026-04-22T09:07:19Z</time></trkpt><trkpt lat="44.15487135572502" lon="8.266840162158863"><ele>109.0</ele><time>2026-04-22T09:07:20Z</time></trkpt><trkpt lat="44.15474201256438" lon="8.266565909000573"><ele>105.0</ele><time>2026-04-22T09:07:21Z</time></trkpt><trkpt lat="44.154614942390545" lon="8.266292310576066"><ele>101.0</ele><time>2026-04-22T09:07:22Z</time></trkpt><trkpt lat="44.154489703780655" lon="8.26601908320958"><ele>101.0</ele><time>2026-04-22T09:07:23Z</time></trkpt><trkpt lat="44.15436308516055" lon="8.26574914383465"><ele>101.0</ele><time>2026-04-22T09:07:24Z</time></trkpt><trkpt lat="44.15423626618984" lon="8.265478538990013"><ele>100.5</ele><time>2026-04-22T09:07:25Z</time></trkpt><trkpt lat="44.154107854903806" lon="8.265207824799477"><ele>100.0</ele><time>2026-04-22T09:07:26Z</time></trkpt><trkpt lat="44.153980891089944" lon="8.26493331333805"><ele>105.5</ele><time>2026-04-22T09:07:27Z</time></trkpt><trkpt lat="44.15385663393734" lon="8.264663200497129"><ele>111.0</ele><time>2026-04-22T09:07:28Z</time></trkpt><trkpt lat="44.15372972774866" lon="8.264389971758412"><ele>111.0</ele><time>2026-04-22T09:07:29Z</time></trkpt><trkpt lat="44.1536028719072" lon="8.264115728448077"><ele>111.0</ele><time>2026-04-22T09:07:30Z</time></trkpt><trkpt lat="44.153475724150034" lon="8.26383838698392"><ele>118.0</ele><time>2026-04-22T09:07:31Z</time></trkpt><trkpt lat="44.15335112320566" lon="8.26356646108079"><ele>125.0</ele><time>2026-04-22T09:07:32Z</time></trkpt><trkpt lat="44.15322639338102" lon="8.26329582642504"><ele>121.33333333333333</ele><time>2026-04-22T09:07:33Z</time></trkpt><trkpt lat="44.15310361785462" lon="8.263032554357492"><ele>117.66666666666666</ele><time>2026-04-22T09:07:34Z</time></trkpt><trkpt lat="44.15298492249258" lon="8.262781070414142"><ele>114.0</ele><time>2026-04-22T09:07:35Z</time></trkpt><trkpt lat="44.15286853586622" lon="8.262532419409471"><ele>114.0</ele><time>2026-04-22T09:07:36Z</time></trkpt><trkpt lat="44.152753355428835" lon="8.262287531400338"><ele>114.0</ele><time>2026-04-22T09:07:37Z</time></trkpt><trkpt lat="44.152637539298624" lon="8.262044875503236"><ele>114.0</ele><time>2026-04-22T09:07:38Z</time></trkpt><trkpt lat="44.152517300789405" lon="8.26180457691816"><ele>112.66666666666666</ele><time>2026-04-22T09:07:39Z</time></trkpt><trkpt lat="44.15239498127367" lon="8.261562087802504"><ele>111.33333333333333</ele><time>2026-04-22T09:07:40Z</time></trkpt><trkpt lat="44.152275248623944" lon="8.261322170432262"><ele>110.0</ele><time>2026-04-22T09:07:41Z</time></trkpt><trkpt lat="44.15215456394759" lon="8.26108553661835"><ele>110.0</ele><time>2026-04-22T09:07:42Z</time></trkpt><trkpt lat="44.152035137890316" lon="8.2608490994233"><ele>110.0</ele><time>2026-04-22T09:07:43Z</time></trkpt><trkpt lat="44.151916081368206" lon="8.260613055441175"><ele>110.0</ele><time>2026-04-22T09:07:44Z</time></trkpt><trkpt lat="44.15179798962907" lon="8.260379578577501"><ele>111.33333333333333</ele><time>2026-04-22T09:07:45Z</time></trkpt><trkpt lat="44.15167952564732" lon="8.260146498323587"><ele>112.66666666666666</ele><time>2026-04-22T09:07:46Z</time></trkpt><trkpt lat="44.151560032218896" lon="8.259908770662861"><ele>114.0</ele><time>2026-04-22T09:07:47Z</time></trkpt><trkpt lat="44.15143952779754" lon="8.259671753208153"><ele>117.0</ele><time>2026-04-22T09:07:48Z</time></trkpt><trkpt lat="44.15131619827137" lon="8.25943190610328"><ele>120.0</ele><time>2026-04-22T09:07:49Z</time></trkpt><trkpt lat="44.151187652959855" lon="8.259185384459103"><ele>123.0</ele><time>2026-04-22T09:07:50Z</time></trkpt><trkpt lat="44.151057535525275" lon="8.258935097742807"><ele>123.0</ele><time>2026-04-22T09:07:51Z</time></trkpt><trkpt lat="44.150925199799865" lon="8.258683887549953"><ele>123.0</ele><time>2026-04-22T09:07:52Z</time></trkpt><trkpt lat="44.150788945849555" lon="8.2584326949021"><ele>134.0</ele><time>2026-04-22T09:07:53Z</time></trkpt><trkpt lat="44.15065175557735" lon="8.258177174780789"><ele>145.0</ele><time>2026-04-22T09:07:54Z</time></trkpt><trkpt lat="44.150508866813226" lon="8.25791710665763"><ele>150.0</ele><time>2026-04-22T09:07:55Z</time></trkpt><trkpt lat="44.150356164821446" lon="8.257644736377726"><ele>155.0</ele><time>2026-04-22T09:07:56Z</time></trkpt><trkpt lat="44.15019363840891" lon="8.257360346507433"><ele>159.5</ele><time>2026-04-22T09:07:57Z</time></trkpt><trkpt lat="44.15002078467777" lon="8.257064190783657"><ele>164.0</ele><time>2026-04-22T09:07:58Z</time></trkpt><trkpt lat="44.149839258164086" lon="8.256757985601972"><ele>155.5</ele><time>2026-04-22T09:07:59Z</time></trkpt><trkpt lat="44.14965272139945" lon="8.256445863001046"><ele>147.0</ele><time>2026-04-22T09:08:00Z</time></trkpt><trkpt lat="44.14946938485451" lon="8.256137175011903"><ele>147.0</ele><time>2026-04-22T09:08:01Z</time></trkpt><trkpt lat="44.149275536388366" lon="8.255812846642572"><ele>147.0</ele><time>2026-04-22T09:08:02.072Z</time></trkpt><trkpt lat="44.1490950063092" lon="8.255520741809978"><ele>135.5</ele><time>2026-04-22T09:08:03.054Z</time></trkpt><trkpt lat="44.148908827926434" lon="8.255231382216833"><ele>124.0</ele><time>2026-04-22T09:08:04.05Z</time></trkpt><trkpt lat="44.14872366578622" lon="8.254946927722086"><ele>123.0</ele><time>2026-04-22T09:08:05.049Z</time></trkpt><trkpt lat="44.14831250260964" lon="8.25407406240948"><ele>116.0</ele><time>2026-04-22T09:08:09Z</time></trkpt><trkpt lat="44.14816055452671" lon="8.253837293982677"><ele>109.0</ele><time>2026-04-22T09:08:10Z</time></trkpt><trkpt lat="44.14798519860634" lon="8.25361749027331"><ele>109.0</ele><time>2026-04-22T09:08:11Z</time></trkpt><trkpt lat="44.14783046810921" lon="8.253376630963452"><ele>109.0</ele><time>2026-04-22T09:08:12Z</time></trkpt><trkpt lat="44.14767188771871" lon="8.253138372667793"><ele>115.5</ele><time>2026-04-22T09:08:13Z</time></trkpt><trkpt lat="44.147525690603445" lon="8.252898143092196"><ele>122.0</ele><time>2026-04-22T09:08:14Z</time></trkpt><trkpt lat="44.14738063269527" lon="8.252639561414178"><ele>116.5</ele><time>2026-04-22T09:08:15Z</time></trkpt><trkpt lat="44.14723016457577" lon="8.25240092772706"><ele>111.0</ele><time>2026-04-22T09:08:16Z</time></trkpt><trkpt lat="44.14708296881947" lon="8.252160231739166"><ele>111.0</ele><time>2026-04-22T09:08:17Z</time></trkpt><trkpt lat="44.1469312158129" lon="8.251917373076664"><ele>111.0</ele><time>2026-04-22T09:08:18Z</time></trkpt><trkpt lat="44.14677549136378" lon="8.251680155946016"><ele>108.0</ele><time>2026-04-22T09:08:19Z</time></trkpt><trkpt lat="44.14661267193414" lon="8.251439913117116"><ele>105.0</ele><time>2026-04-22T09:08:19.999Z</time></trkpt><trkpt lat="44.146451102991044" lon="8.251199282428626"><ele>105.0</ele><time>2026-04-22T09:08:20.999Z</time></trkpt><trkpt lat="44.146288980499314" lon="8.25096224694013"><ele>105.0</ele><time>2026-04-22T09:08:21.999Z</time></trkpt><trkpt lat="44.14612323864376" lon="8.250725366301456"><ele>112.0</ele><time>2026-04-22T09:08:22.999Z</time></trkpt><trkpt lat="44.14595332841991" lon="8.250489042891633"><ele>119.0</ele><time>2026-04-22T09:08:24.001Z</time></trkpt><trkpt lat="44.14577875453843" lon="8.250250799311052"><ele>110.0</ele><time>2026-04-22T09:08:25.001Z</time></trkpt><trkpt lat="44.145604113283326" lon="8.250014055579662"><ele>101.0</ele><time>2026-04-22T09:08:26.001Z</time></trkpt><trkpt lat="44.14542831747106" lon="8.249781212673787"><ele>101.0</ele><time>2026-04-22T09:08:27.001Z</time></trkpt><trkpt lat="44.14524960870457" lon="8.24955111898112"><ele>101.0</ele><time>2026-04-22T09:08:28.001Z</time></trkpt><trkpt lat="44.14507097049631" lon="8.249326747009405"><ele>101.0</ele><time>2026-04-22T09:08:29.001Z</time></trkpt><trkpt lat="44.1448920780566" lon="8.249106753592399"><ele>101.0</ele><time>2026-04-22T09:08:30.001Z</time></trkpt><trkpt lat="44.144712514016454" lon="8.248885743445626"><ele>97.0</ele><time>2026-04-22T09:08:31.001Z</time></trkpt><trkpt lat="44.14453515187464" lon="8.248669429195784"><ele>93.0</ele><time>2026-04-22T09:08:32.001Z</time></trkpt><trkpt lat="44.14435282702574" lon="8.248455363433488"><ele>93.0</ele><time>2026-04-22T09:08:33.001Z</time></trkpt><trkpt lat="44.1441690187629" lon="8.248244989136504"><ele>93.0</ele><time>2026-04-22T09:08:34.001Z</time></trkpt><trkpt lat="44.14398310930323" lon="8.248039965153225"><ele>100.0</ele><time>2026-04-22T09:08:35.001Z</time></trkpt><trkpt lat="44.14379817381091" lon="8.247835551083474"><ele>107.0</ele><time>2026-04-22T09:08:36.001Z</time></trkpt><trkpt lat="44.14360923980746" lon="8.247632888288587"><ele>107.0</ele><time>2026-04-22T09:08:37.001Z</time></trkpt><trkpt lat="44.1434171889734" lon="8.247430955828602"><ele>107.0</ele><time>2026-04-22T09:08:38.001Z</time></trkpt><trkpt lat="44.143223852532984" lon="8.247229182144904"><ele>106.5</ele><time>2026-04-22T09:08:39.001Z</time></trkpt><trkpt lat="44.1430292775476" lon="8.247028272218559"><ele>106.0</ele><time>2026-04-22T09:08:40.001Z</time></trkpt><trkpt lat="44.14283562539584" lon="8.246832362867629"><ele>106.0</ele><time>2026-04-22T09:08:41.001Z</time></trkpt><trkpt lat="44.14264061065374" lon="8.24664082446773"><ele>106.0</ele><time>2026-04-22T09:08:42.001Z</time></trkpt><trkpt lat="44.142430745959736" lon="8.246437044622233"><ele>93.5</ele><time>2026-04-22T09:08:43.069Z</time></trkpt><trkpt lat="44.14223299492993" lon="8.246247665777714"><ele>81.0</ele><time>2026-04-22T09:08:44.064Z</time></trkpt><trkpt lat="44.142051506078076" lon="8.24606944591648"><ele>81.0</ele><time>2026-04-22T09:08:45.001Z</time></trkpt><trkpt lat="44.14184251299636" lon="8.24590781399657"><ele>81.0</ele><time>2026-04-22T09:08:46.001Z</time></trkpt><trkpt lat="44.14163594231909" lon="8.24575277654348"><ele>76.0</ele><time>2026-04-22T09:08:47.001Z</time></trkpt><trkpt lat="44.1414352089883" lon="8.24558134147776"><ele>71.0</ele><time>2026-04-22T09:08:48.001Z</time></trkpt><trkpt lat="44.14123216974036" lon="8.245413099388951"><ele>71.0</ele><time>2026-04-22T09:08:49.001Z</time></trkpt><trkpt lat="44.14102904215551" lon="8.245248239896105"><ele>71.0</ele><time>2026-04-22T09:08:50.001Z</time></trkpt><trkpt lat="44.140825908585974" lon="8.24507961069097"><ele>69.5</ele><time>2026-04-22T09:08:51.001Z</time></trkpt><trkpt lat="44.14062304088466" lon="8.244910510914695"><ele>68.0</ele><time>2026-04-22T09:08:52.001Z</time></trkpt><trkpt lat="44.140425899241585" lon="8.244739156774708"><ele>67.5</ele><time>2026-04-22T09:08:53Z</time></trkpt><trkpt lat="44.14022489255683" lon="8.244564845932109"><ele>67.0</ele><time>2026-04-22T09:08:54Z</time></trkpt><trkpt lat="44.14002237802231" lon="8.24439112094254"><ele>64.5</ele><time>2026-04-22T09:08:55Z</time></trkpt><trkpt lat="44.139818010069334" lon="8.244213980713063"><ele>62.0</ele><time>2026-04-22T09:08:56Z</time></trkpt><trkpt lat="44.13961465819345" lon="8.244035150019137"><ele>62.0</ele><time>2026-04-22T09:08:57Z</time></trkpt><trkpt lat="44.139409605208485" lon="8.24385504323263"><ele>62.0</ele><time>2026-04-22T09:08:58Z</time></trkpt><trkpt lat="44.139207347332906" lon="8.243675541884066"><ele>60.0</ele><time>2026-04-22T09:08:59Z</time></trkpt><trkpt lat="44.13900609501966" lon="8.243494454609737"><ele>58.0</ele><time>2026-04-22T09:09:00Z</time></trkpt><trkpt lat="44.13880540366872" lon="8.243312017052197"><ele>55.5</ele><time>2026-04-22T09:09:01Z</time></trkpt><trkpt lat="44.13860679732554" lon="8.243127312264722"><ele>53.0</ele><time>2026-04-22T09:09:02Z</time></trkpt><trkpt lat="44.13840640301822" lon="8.242939948551697"><ele>52.0</ele><time>2026-04-22T09:09:03Z</time></trkpt><trkpt lat="44.13820787778131" lon="8.242752062594283"><ele>51.0</ele><time>2026-04-22T09:09:04Z</time></trkpt><trkpt lat="44.13800697774565" lon="8.24256452709677"><ele>51.0</ele><time>2026-04-22T09:09:05Z</time></trkpt><trkpt lat="44.137802954738326" lon="8.242375108662841"><ele>51.0</ele><time>2026-04-22T09:09:06Z</time></trkpt><trkpt lat="44.13760412178573" lon="8.24219031829766"><ele>55.0</ele><time>2026-04-22T09:09:07Z</time></trkpt><trkpt lat="44.13740541690863" lon="8.242006423236507"><ele>59.0</ele><time>2026-04-22T09:09:08Z</time></trkpt><trkpt lat="44.13720948904981" lon="8.241820848822886"><ele>65.0</ele><time>2026-04-22T09:09:09Z</time></trkpt><trkpt lat="44.137011862016365" lon="8.241633398474209"><ele>71.0</ele><time>2026-04-22T09:09:10Z</time></trkpt><trkpt lat="44.13681286231658" lon="8.241442094934587"><ele>75.0</ele><time>2026-04-22T09:09:11Z</time></trkpt><trkpt lat="44.13660818728276" lon="8.241250938142423"><ele>79.0</ele><time>2026-04-22T09:09:12Z</time></trkpt><trkpt lat="44.136402123823586" lon="8.241059419195349"><ele>79.0</ele><time>2026-04-22T09:09:13Z</time></trkpt><trkpt lat="44.136197356047596" lon="8.240868869778293"><ele>79.0</ele><time>2026-04-22T09:09:14Z</time></trkpt><trkpt lat="44.135994163415255" lon="8.240678421320515"><ele>80.0</ele><time>2026-04-22T09:09:15Z</time></trkpt><trkpt lat="44.13579396811181" lon="8.240490878061172"><ele>81.0</ele><time>2026-04-22T09:09:16Z</time></trkpt><trkpt lat="44.13558281751922" lon="8.24029342802748"><ele>78.5</ele><time>2026-04-22T09:09:17.071Z</time></trkpt><trkpt lat="44.13538616937568" lon="8.240112136427935"><ele>76.0</ele><time>2026-04-22T09:09:18.072Z</time></trkpt><trkpt lat="44.13519151871873" lon="8.239932811659475"><ele>72.5</ele><time>2026-04-22T09:09:19.069Z</time></trkpt><trkpt lat="44.134999848824066" lon="8.239755452832775"><ele>69.0</ele><time>2026-04-22T09:09:20.065Z</time></trkpt><trkpt lat="44.13481508557498" lon="8.23958089212574"><ele>65.66666666666667</ele><time>2026-04-22T09:09:21.055Z</time></trkpt><trkpt lat="44.13462904362708" lon="8.239402798346356"><ele>62.333333333333336</ele><time>2026-04-22T09:09:22.047Z</time></trkpt><trkpt lat="44.13446849335842" lon="8.239210970610001"><ele>59.0</ele><time>2026-04-22T09:09:23Z</time></trkpt><trkpt lat="44.134291946208" lon="8.239038804170947"><ele>59.5</ele><time>2026-04-22T09:09:24Z</time></trkpt><trkpt lat="44.134107088160754" lon="8.23886011476533"><ele>60.0</ele><time>2026-04-22T09:09:25Z</time></trkpt><trkpt lat="44.13392729895175" lon="8.238663744096868"><ele>60.0</ele><time>2026-04-22T09:09:26Z</time></trkpt><trkpt lat="44.13375572013592" lon="8.238465079568845"><ele>60.0</ele><time>2026-04-22T09:09:27Z</time></trkpt><trkpt lat="44.13359032384593" lon="8.238261448792892"><ele>60.0</ele><time>2026-04-22T09:09:28Z</time></trkpt><trkpt lat="44.1334280800957" lon="8.238052142237803"><ele>58.66666666666667</ele><time>2026-04-22T09:09:29Z</time></trkpt><trkpt lat="44.133270209493176" lon="8.237836996836148"><ele>57.333333333333336</ele><time>2026-04-22T09:09:30Z</time></trkpt><trkpt lat="44.13311839307608" lon="8.237619435451679"><ele>56.0</ele><time>2026-04-22T09:09:31Z</time></trkpt><trkpt lat="44.132971605137875" lon="8.2374003147078"><ele>56.333333333333336</ele><time>2026-04-22T09:09:32Z</time></trkpt><trkpt lat="44.13282854635503" lon="8.237176285016297"><ele>56.66666666666667</ele><time>2026-04-22T09:09:33Z</time></trkpt><trkpt lat="44.13268774553334" lon="8.236949967536825"><ele>57.0</ele><time>2026-04-22T09:09:34Z</time></trkpt><trkpt lat="44.13255227062149" lon="8.236718070852687"><ele>57.0</ele><time>2026-04-22T09:09:35Z</time></trkpt><trkpt lat="44.132419627075016" lon="8.236477701608313"><ele>57.0</ele><time>2026-04-22T09:09:36Z</time></trkpt><trkpt lat="44.13229401592685" lon="8.236230510730916"><ele>57.0</ele><time>2026-04-22T09:09:37Z</time></trkpt><trkpt lat="44.132172201050935" lon="8.235979995921717"><ele>58.33333333333333</ele><time>2026-04-22T09:09:38Z</time></trkpt><trkpt lat="44.13205239745112" lon="8.235727746377576"><ele>59.666666666666664</ele><time>2026-04-22T09:09:39Z</time></trkpt><trkpt lat="44.131940644585306" lon="8.235464905331721"><ele>61.0</ele><time>2026-04-22T09:09:40Z</time></trkpt><trkpt lat="44.13183368336436" lon="8.23520424483934"><ele>65.66666666666666</ele><time>2026-04-22T09:09:41Z</time></trkpt><trkpt lat="44.13172987274007" lon="8.234939421593872"><ele>70.33333333333333</ele><time>2026-04-22T09:09:42Z</time></trkpt><trkpt lat="44.13162904719003" lon="8.234671950081525"><ele>75.0</ele><time>2026-04-22T09:09:43Z</time></trkpt><trkpt lat="44.13152863348644" lon="8.234409844037565"><ele>77.66666666666667</ele><time>2026-04-22T09:09:44Z</time></trkpt><trkpt lat="44.13143062335575" lon="8.234160406658507"><ele>80.33333333333334</ele><time>2026-04-22T09:09:45Z</time></trkpt><trkpt lat="44.13133304704606" lon="8.233917791853182"><ele>83.0</ele><time>2026-04-22T09:09:46Z</time></trkpt><trkpt lat="44.13123534031315" lon="8.233683244717298"><ele>83.0</ele><time>2026-04-22T09:09:47Z</time></trkpt><trkpt lat="44.131133021237964" lon="8.233438986689688"><ele>83.0</ele><time>2026-04-22T09:09:48.067Z</time></trkpt><trkpt lat="44.13103520593545" lon="8.233218044121136"><ele>83.0</ele><time>2026-04-22T09:09:49.068Z</time></trkpt><trkpt lat="44.130939323000334" lon="8.233005189745835"><ele>75.0</ele><time>2026-04-22T09:09:50.064Z</time></trkpt><trkpt lat="44.130844900214534" lon="8.23279482758732"><ele>67.0</ele><time>2026-04-22T09:09:51.066Z</time></trkpt><trkpt lat="44.13067768896264" lon="8.232237498664597"><ele>60.0</ele><time>2026-04-22T09:09:53Z</time></trkpt><trkpt lat="44.130561540054345" lon="8.23193229585589"><ele>53.0</ele><time>2026-04-22T09:09:54Z</time></trkpt><trkpt lat="44.1304585121789" lon="8.231669387995895"><ele>53.0</ele><time>2026-04-22T09:09:55Z</time></trkpt><trkpt lat="44.13035218953638" lon="8.231409043969128"><ele>53.0</ele><time>2026-04-22T09:09:56Z</time></trkpt><trkpt lat="44.130238436496725" lon="8.231148614812843"><ele>53.0</ele><time>2026-04-22T09:09:57Z</time></trkpt><trkpt lat="44.13011584971623" lon="8.230888053780493"><ele>58.0</ele><time>2026-04-22T09:09:58Z</time></trkpt><trkpt lat="44.12998906861574" lon="8.230629506677628"><ele>63.0</ele><time>2026-04-22T09:09:59Z</time></trkpt><trkpt lat="44.129857357306626" lon="8.23037353780804"><ele>63.0</ele><time>2026-04-22T09:10:00Z</time></trkpt><trkpt lat="44.1297238835929" lon="8.230129035408257"><ele>63.0</ele><time>2026-04-22T09:10:01Z</time></trkpt><trkpt lat="44.12958352987795" lon="8.22989335622428"><ele>63.0</ele><time>2026-04-22T09:10:02Z</time></trkpt><trkpt lat="44.129441129152056" lon="8.229657620646059"><ele>67.33333333333333</ele><time>2026-04-22T09:10:03Z</time></trkpt><trkpt lat="44.1292931196151" lon="8.229425025737433"><ele>71.66666666666666</ele><time>2026-04-22T09:10:04Z</time></trkpt><trkpt lat="44.12914425931094" lon="8.22919264689001"><ele>76.0</ele><time>2026-04-22T09:10:05Z</time></trkpt><trkpt lat="44.128989750507984" lon="8.228964657474906"><ele>79.0</ele><time>2026-04-22T09:10:06Z</time></trkpt><trkpt lat="44.12883274005357" lon="8.228737538114855"><ele>82.0</ele><time>2026-04-22T09:10:07Z</time></trkpt><trkpt lat="44.12867389985052" lon="8.228512688067454"><ele>82.0</ele><time>2026-04-22T09:10:08Z</time></trkpt><trkpt lat="44.128514700436455" lon="8.228291881289275"><ele>82.0</ele><time>2026-04-22T09:10:09Z</time></trkpt><trkpt lat="44.12834410173012" lon="8.228064184943836"><ele>75.0</ele><time>2026-04-22T09:10:10.067Z</time></trkpt><trkpt lat="44.12818807394339" lon="8.227860823701485"><ele>68.0</ele><time>2026-04-22T09:10:11.063Z</time></trkpt><trkpt lat="44.12803252713622" lon="8.227657783071832"><ele>61.0</ele><time>2026-04-22T09:10:12.062Z</time></trkpt><trkpt lat="44.127856259147784" lon="8.22749972366115"><ele>61.0</ele><time>2026-04-22T09:10:13.06Z</time></trkpt><trkpt lat="44.12768770930373" lon="8.227328507280877"><ele>61.0</ele><time>2026-04-22T09:10:14.061Z</time></trkpt><trkpt lat="44.127275984469584" lon="8.227038782570292"><ele>57.33333333333333</ele><time>2026-04-22T09:10:15.999Z</time></trkpt><trkpt lat="44.127096380963486" lon="8.22686438900128"><ele>53.66666666666667</ele><time>2026-04-22T09:10:16.999Z</time></trkpt><trkpt lat="44.12689871818046" lon="8.226722223723188"><ele>50.0</ele><time>2026-04-22T09:10:17.999Z</time></trkpt><trkpt lat="44.12669630765348" lon="8.226569894272416"><ele>44.0</ele><time>2026-04-22T09:10:18.999Z</time></trkpt><trkpt lat="44.12648837820311" lon="8.226427613068838"><ele>38.0</ele><time>2026-04-22T09:10:19.999Z</time></trkpt><trkpt lat="44.12628070935268" lon="8.226284844691667"><ele>38.0</ele><time>2026-04-22T09:10:20.999Z</time></trkpt><trkpt lat="44.126066872642575" lon="8.226142421176945"><ele>38.0</ele><time>2026-04-22T09:10:21.999Z</time></trkpt><trkpt lat="44.125853750589116" lon="8.226013988345434"><ele>37.0</ele><time>2026-04-22T09:10:22.999Z</time></trkpt><trkpt lat="44.125642249222736" lon="8.225900943535901"><ele>36.0</ele><time>2026-04-22T09:10:23.999Z</time></trkpt><trkpt lat="44.12543068044347" lon="8.225785955787185"><ele>36.0</ele><time>2026-04-22T09:10:24.999Z</time></trkpt><trkpt lat="44.125217794519365" lon="8.225681428316763"><ele>36.0</ele><time>2026-04-22T09:10:25.999Z</time></trkpt><trkpt lat="44.12499874966444" lon="8.22558735273989"><ele>37.0</ele><time>2026-04-22T09:10:26.999Z</time></trkpt><trkpt lat="44.124779931232425" lon="8.225500937547999"><ele>38.0</ele><time>2026-04-22T09:10:27.999Z</time></trkpt><trkpt lat="44.12455619085543" lon="8.22541363918958"><ele>38.0</ele><time>2026-04-22T09:10:28.999Z</time></trkpt><trkpt lat="44.12433579905152" lon="8.225335027369574"><ele>38.0</ele><time>2026-04-22T09:10:30.001Z</time></trkpt><trkpt lat="44.12410940412609" lon="8.225278290780132"><ele>34.5</ele><time>2026-04-22T09:10:31.001Z</time></trkpt><trkpt lat="44.12387753371219" lon="8.22523205842479"><ele>31.0</ele><time>2026-04-22T09:10:32.001Z</time></trkpt><trkpt lat="44.12363099379734" lon="8.225171929885303"><ele>31.0</ele><time>2026-04-22T09:10:33.001Z</time></trkpt><trkpt lat="44.12337855497884" lon="8.22512459281911"><ele>31.0</ele><time>2026-04-22T09:10:34.001Z</time></trkpt><trkpt lat="44.123118616673864" lon="8.225083168896235"><ele>28.0</ele><time>2026-04-22T09:10:35.001Z</time></trkpt><trkpt lat="44.1228562677409" lon="8.225046064671586"><ele>25.0</ele><time>2026-04-22T09:10:36.001Z</time></trkpt><trkpt lat="44.12259661861692" lon="8.225017811645175"><ele>23.5</ele><time>2026-04-22T09:10:37.001Z</time></trkpt><trkpt lat="44.12234397266669" lon="8.224998775247954"><ele>22.0</ele><time>2026-04-22T09:10:38.001Z</time></trkpt><trkpt lat="44.1220922680818" lon="8.224990649373353"><ele>22.0</ele><time>2026-04-22T09:10:39.001Z</time></trkpt><trkpt lat="44.121839389661574" lon="8.224991144954894"><ele>22.0</ele><time>2026-04-22T09:10:40.001Z</time></trkpt><trkpt lat="44.121586354190335" lon="8.224993855380344"><ele>21.5</ele><time>2026-04-22T09:10:41.001Z</time></trkpt><trkpt lat="44.12133381641426" lon="8.225006317668793"><ele>21.0</ele><time>2026-04-22T09:10:42.001Z</time></trkpt><trkpt lat="44.12108249773117" lon="8.225033031829081"><ele>21.0</ele><time>2026-04-22T09:10:43.001Z</time></trkpt><trkpt lat="44.12083080338195" lon="8.22506955400724"><ele>21.0</ele><time>2026-04-22T09:10:44.001Z</time></trkpt><trkpt lat="44.120579482891614" lon="8.225113692367055"><ele>21.0</ele><time>2026-04-22T09:10:45.001Z</time></trkpt><trkpt lat="44.12033132583857" lon="8.225167301572913"><ele>21.0</ele><time>2026-04-22T09:10:46.001Z</time></trkpt><trkpt lat="44.120083294540265" lon="8.225231368427757"><ele>21.5</ele><time>2026-04-22T09:10:47.001Z</time></trkpt><trkpt lat="44.11983759285938" lon="8.225306547573568"><ele>22.0</ele><time>2026-04-22T09:10:48.001Z</time></trkpt><trkpt lat="44.119601962463165" lon="8.225387538668024"><ele>22.0</ele><time>2026-04-22T09:10:49.001Z</time></trkpt><trkpt lat="44.11937290664774" lon="8.225467538355815"><ele>22.0</ele><time>2026-04-22T09:10:50.001Z</time></trkpt><trkpt lat="44.119147499272316" lon="8.225551909937977"><ele>21.5</ele><time>2026-04-22T09:10:51.001Z</time></trkpt><trkpt lat="44.11892454633472" lon="8.225644636415238"><ele>21.0</ele><time>2026-04-22T09:10:52.001Z</time></trkpt><trkpt lat="44.11870152051697" lon="8.225747163668983"><ele>21.0</ele><time>2026-04-22T09:10:53.001Z</time></trkpt><trkpt lat="44.11848128113372" lon="8.225860410805485"><ele>21.0</ele><time>2026-04-22T09:10:54.001Z</time></trkpt><trkpt lat="44.11826826348666" lon="8.225979818206346"><ele>26.0</ele><time>2026-04-22T09:10:55.001Z</time></trkpt><trkpt lat="44.118062307222736" lon="8.226103076035237"><ele>31.0</ele><time>2026-04-22T09:10:56.001Z</time></trkpt><trkpt lat="44.117862308667625" lon="8.22623269627376"><ele>36.0</ele><time>2026-04-22T09:10:57.001Z</time></trkpt><trkpt lat="44.11766527587692" lon="8.226366093331347"><ele>38.0</ele><time>2026-04-22T09:10:58.001Z</time></trkpt><trkpt lat="44.11747021251882" lon="8.226502150433351"><ele>40.0</ele><time>2026-04-22T09:10:59.001Z</time></trkpt><trkpt lat="44.117274698017845" lon="8.226641291324787"><ele>42.0</ele><time>2026-04-22T09:11:00.001Z</time></trkpt><trkpt lat="44.11707924256245" lon="8.226780674364473"><ele>42.0</ele><time>2026-04-22T09:11:01Z</time></trkpt><trkpt lat="44.116882632378406" lon="8.226917161346266"><ele>42.0</ele><time>2026-04-22T09:11:02Z</time></trkpt><trkpt lat="44.11668567624728" lon="8.227054050468428"><ele>42.0</ele><time>2026-04-22T09:11:03Z</time></trkpt><trkpt lat="44.11649179392367" lon="8.22718990164607"><ele>44.66666666666667</ele><time>2026-04-22T09:11:04Z</time></trkpt><trkpt lat="44.116297283316364" lon="8.227327021612107"><ele>47.333333333333336</ele><time>2026-04-22T09:11:05Z</time></trkpt><trkpt lat="44.11610380823117" lon="8.22746573763798"><ele>50.0</ele><time>2026-04-22T09:11:06Z</time></trkpt><trkpt lat="44.1159112414184" lon="8.227602487388928"><ele>59.0</ele><time>2026-04-22T09:11:07Z</time></trkpt><trkpt lat="44.11571881814151" lon="8.227740445144338"><ele>68.0</ele><time>2026-04-22T09:11:08Z</time></trkpt><trkpt lat="44.115528219291015" lon="8.227880348764106"><ele>77.0</ele><time>2026-04-22T09:11:09Z</time></trkpt><trkpt lat="44.1153334643108" lon="8.228020710890414"><ele>70.0</ele><time>2026-04-22T09:11:10Z</time></trkpt><trkpt lat="44.11513817315422" lon="8.228157240829821"><ele>63.0</ele><time>2026-04-22T09:11:11Z</time></trkpt><trkpt lat="44.114941995295936" lon="8.228295004888134"><ele>56.0</ele><time>2026-04-22T09:11:12Z</time></trkpt><trkpt lat="44.114746782409966" lon="8.228430867750719"><ele>56.0</ele><time>2026-04-22T09:11:13Z</time></trkpt><trkpt lat="44.114553660243814" lon="8.22856494048392"><ele>56.0</ele><time>2026-04-22T09:11:14Z</time></trkpt><trkpt lat="44.114359103876424" lon="8.228700680762016"><ele>56.0</ele><time>2026-04-22T09:11:15Z</time></trkpt><trkpt lat="44.11416759948767" lon="8.228834678662398"><ele>55.0</ele><time>2026-04-22T09:11:16Z</time></trkpt><trkpt lat="44.11397881361886" lon="8.228966721999935"><ele>54.0</ele><time>2026-04-22T09:11:17Z</time></trkpt><trkpt lat="44.11379051091446" lon="8.22910238146696"><ele>53.0</ele><time>2026-04-22T09:11:18Z</time></trkpt><trkpt lat="44.113601412486595" lon="8.229237851504255"><ele>53.0</ele><time>2026-04-22T09:11:19Z</time></trkpt><trkpt lat="44.11341072209029" lon="8.229371844486323"><ele>53.0</ele><time>2026-04-22T09:11:20Z</time></trkpt><trkpt lat="44.11322397029109" lon="8.229503357412533"><ele>53.0</ele><time>2026-04-22T09:11:21Z</time></trkpt><trkpt lat="44.11303476549418" lon="8.229635308932028"><ele>55.66666666666667</ele><time>2026-04-22T09:11:22Z</time></trkpt><trkpt lat="44.11284839282253" lon="8.229767952444845"><ele>58.33333333333333</ele><time>2026-04-22T09:11:23Z</time></trkpt><trkpt lat="44.11266208835629" lon="8.229901742424948"><ele>61.0</ele><time>2026-04-22T09:11:24Z</time></trkpt><trkpt lat="44.11247892557064" lon="8.230033563617416"><ele>60.33333333333333</ele><time>2026-04-22T09:11:25Z</time></trkpt><trkpt lat="44.112298858611815" lon="8.230162383029823"><ele>59.66666666666667</ele><time>2026-04-22T09:11:26Z</time></trkpt><trkpt lat="44.11212070519907" lon="8.230285936034363"><ele>59.0</ele><time>2026-04-22T09:11:27Z</time></trkpt><trkpt lat="44.111943612508256" lon="8.230406248108903"><ele>59.0</ele><time>2026-04-22T09:11:28Z</time></trkpt><trkpt lat="44.111766644276855" lon="8.230523451506045"><ele>59.0</ele><time>2026-04-22T09:11:29Z</time></trkpt><trkpt lat="44.11158432494542" lon="8.230637795154708"><ele>59.0</ele><time>2026-04-22T09:11:30Z</time></trkpt><trkpt lat="44.111401407572046" lon="8.230745815153872"><ele>62.66666666666667</ele><time>2026-04-22T09:11:31Z</time></trkpt><trkpt lat="44.11121688887347" lon="8.23084964112088"><ele>66.33333333333333</ele><time>2026-04-22T09:11:32Z</time></trkpt><trkpt lat="44.111034138650325" lon="8.230945040170846"><ele>70.0</ele><time>2026-04-22T09:11:33Z</time></trkpt><trkpt lat="44.11084617460463" lon="8.231038076204946"><ele>77.0</ele><time>2026-04-22T09:11:34Z</time></trkpt><trkpt lat="44.11065402676046" lon="8.231126223462823"><ele>84.0</ele><time>2026-04-22T09:11:35Z</time></trkpt><trkpt lat="44.11046037870182" lon="8.231207120477043"><ele>91.0</ele><time>2026-04-22T09:11:36Z</time></trkpt><trkpt lat="44.11026483110485" lon="8.231280317003673"><ele>91.0</ele><time>2026-04-22T09:11:37Z</time></trkpt><trkpt lat="44.110069984848025" lon="8.231348427971861"><ele>91.0</ele><time>2026-04-22T09:11:38Z</time></trkpt><trkpt lat="44.10987509771777" lon="8.231412782602531"><ele>91.0</ele><time>2026-04-22T09:11:39Z</time></trkpt><trkpt lat="44.10967767580359" lon="8.231469032893733"><ele>95.33333333333333</ele><time>2026-04-22T09:11:40Z</time></trkpt><trkpt lat="44.10947888262617" lon="8.231516712822007"><ele>99.66666666666666</ele><time>2026-04-22T09:11:41Z</time></trkpt><trkpt lat="44.109278072020125" lon="8.231554889027596"><ele>104.0</ele><time>2026-04-22T09:11:42Z</time></trkpt><trkpt lat="44.10907363760436" lon="8.23158420850849"><ele>118.33333333333333</ele><time>2026-04-22T09:11:43Z</time></trkpt><trkpt lat="44.10886316608471" lon="8.231605580970644"><ele>132.66666666666666</ele><time>2026-04-22T09:11:44Z</time></trkpt><trkpt lat="44.10865182298751" lon="8.231622144817313"><ele>147.0</ele><time>2026-04-22T09:11:45Z</time></trkpt><trkpt lat="44.10844401600191" lon="8.23163697553164"><ele>163.0</ele><time>2026-04-22T09:11:46Z</time></trkpt><trkpt lat="44.10824260364314" lon="8.231650007461942"><ele>179.0</ele><time>2026-04-22T09:11:47Z</time></trkpt><trkpt lat="44.10803941537124" lon="8.231660657762024"><ele>195.0</ele><time>2026-04-22T09:11:48.065Z</time></trkpt><trkpt lat="44.10785186957677" lon="8.231669353318692"><ele>262.0</ele><time>2026-04-22T09:11:49.054Z</time></trkpt><trkpt lat="44.10599980778099" lon="8.231365384237376"><ele>96.0</ele><time>2026-04-22T09:12:00.12Z</time></trkpt><trkpt lat="44.10269052550365" lon="8.228824354162388"><ele>96.0</ele><time>2026-04-22T09:12:17Z</time></trkpt><trkpt lat="44.1025225514874" lon="8.228621740575978"><ele>96.0</ele><time>2026-04-22T09:12:18Z</time></trkpt><trkpt lat="44.10238539666094" lon="8.228402445664248"><ele>96.0</ele><time>2026-04-22T09:12:19Z</time></trkpt><trkpt lat="44.102250529166334" lon="8.228187066736542"><ele>92.0</ele><time>2026-04-22T09:12:20Z</time></trkpt><trkpt lat="44.10209995048527" lon="8.227963528318767"><ele>88.0</ele><time>2026-04-22T09:12:21Z</time></trkpt><trkpt lat="44.10196086045437" lon="8.227737914481173"><ele>84.0</ele><time>2026-04-22T09:12:22Z</time></trkpt><trkpt lat="44.101824278271216" lon="8.227507269103317"><ele>85.33333333333333</ele><time>2026-04-22T09:12:22.999Z</time></trkpt><trkpt lat="44.10168934979635" lon="8.227278017840238"><ele>86.66666666666666</ele><time>2026-04-22T09:12:23.999Z</time></trkpt><trkpt lat="44.10156073258332" lon="8.227045069496306"><ele>88.0</ele><time>2026-04-22T09:12:24.999Z</time></trkpt><trkpt lat="44.10143367872491" lon="8.226799981972034"><ele>83.0</ele><time>2026-04-22T09:12:25.999Z</time></trkpt><trkpt lat="44.10130742403469" lon="8.226561813380238"><ele>78.0</ele><time>2026-04-22T09:12:26.999Z</time></trkpt><trkpt lat="44.10118557303695" lon="8.226314673241381"><ele>73.0</ele><time>2026-04-22T09:12:27.999Z</time></trkpt><trkpt lat="44.10106955644368" lon="8.226055200284542"><ele>73.0</ele><time>2026-04-22T09:12:28.999Z</time></trkpt><trkpt lat="44.10096615356828" lon="8.225797601424027"><ele>73.0</ele><time>2026-04-22T09:12:29.999Z</time></trkpt><trkpt lat="44.10086728685732" lon="8.225529914906149"><ele>73.0</ele><time>2026-04-22T09:12:30.999Z</time></trkpt><trkpt lat="44.100769523328715" lon="8.22526178399957"><ele>72.33333333333333</ele><time>2026-04-22T09:12:31.999Z</time></trkpt><trkpt lat="44.10067019125071" lon="8.224996610943895"><ele>71.66666666666667</ele><time>2026-04-22T09:12:32.999Z</time></trkpt><trkpt lat="44.100567615666286" lon="8.224726211917082"><ele>71.0</ele><time>2026-04-22T09:12:33.999Z</time></trkpt><trkpt lat="44.10046423302753" lon="8.224466372302787"><ele>71.0</ele><time>2026-04-22T09:12:34.999Z</time></trkpt><trkpt lat="44.100364164999036" lon="8.22419957549009"><ele>71.0</ele><time>2026-04-22T09:12:36.001Z</time></trkpt><trkpt lat="44.10026594107089" lon="8.223959130740216"><ele>71.0</ele><time>2026-04-22T09:12:37.001Z</time></trkpt><trkpt lat="44.10016144002595" lon="8.223706072029088"><ele>71.66666666666667</ele><time>2026-04-22T09:12:38.001Z</time></trkpt><trkpt lat="44.10004985127548" lon="8.223452361327755"><ele>72.33333333333333</ele><time>2026-04-22T09:12:39.001Z</time></trkpt><trkpt lat="44.0999345619416" lon="8.223196762362365"><ele>73.0</ele><time>2026-04-22T09:12:40.001Z</time></trkpt><trkpt lat="44.099817418699146" lon="8.222933413993113"><ele>73.0</ele><time>2026-04-22T09:12:41.001Z</time></trkpt><trkpt lat="44.09969137185543" lon="8.222664608792732"><ele>73.0</ele><time>2026-04-22T09:12:42.001Z</time></trkpt><trkpt lat="44.09956300922699" lon="8.222406511435214"><ele>78.0</ele><time>2026-04-22T09:12:43.001Z</time></trkpt><trkpt lat="44.09943125903655" lon="8.2221469058414"><ele>83.0</ele><time>2026-04-22T09:12:44.001Z</time></trkpt><trkpt lat="44.09929255367449" lon="8.221890232898835"><ele>83.0</ele><time>2026-04-22T09:12:45.001Z</time></trkpt><trkpt lat="44.099150129523125" lon="8.221634851460305"><ele>83.0</ele><time>2026-04-22T09:12:46.001Z</time></trkpt><trkpt lat="44.0990047879817" lon="8.221382365800476"><ele>77.0</ele><time>2026-04-22T09:12:47.001Z</time></trkpt><trkpt lat="44.098857146852986" lon="8.22113097530853"><ele>71.0</ele><time>2026-04-22T09:12:48.001Z</time></trkpt><trkpt lat="44.098706054387435" lon="8.220879839548681"><ele>73.5</ele><time>2026-04-22T09:12:49.001Z</time></trkpt><trkpt lat="44.098550177710784" lon="8.220631875590074"><ele>76.0</ele><time>2026-04-22T09:12:50.001Z</time></trkpt><trkpt lat="44.09838997604833" lon="8.22038759812131"><ele>65.5</ele><time>2026-04-22T09:12:51.001Z</time></trkpt><trkpt lat="44.09822587175049" lon="8.220145151777812"><ele>55.0</ele><time>2026-04-22T09:12:52.001Z</time></trkpt><trkpt lat="44.09806583015354" lon="8.219910629887279"><ele>55.33333333333333</ele><time>2026-04-22T09:12:53.001Z</time></trkpt><trkpt lat="44.0979102988263" lon="8.21968793997227"><ele>55.66666666666667</ele><time>2026-04-22T09:12:54.001Z</time></trkpt><trkpt lat="44.097757721519294" lon="8.219471294623071"><ele>56.0</ele><time>2026-04-22T09:12:55Z</time></trkpt><trkpt lat="44.0976085729443" lon="8.219257570226194"><ele>56.0</ele><time>2026-04-22T09:12:56Z</time></trkpt><trkpt lat="44.097457148850495" lon="8.219046780327032"><ele>56.0</ele><time>2026-04-22T09:12:57Z</time></trkpt><trkpt lat="44.097306864936215" lon="8.218835611647831"><ele>56.0</ele><time>2026-04-22T09:12:58Z</time></trkpt><trkpt lat="44.09715494906439" lon="8.218628126629952"><ele>54.66666666666667</ele><time>2026-04-22T09:12:59Z</time></trkpt><trkpt lat="44.09700260164942" lon="8.218419039811598"><ele>53.33333333333333</ele><time>2026-04-22T09:13:00Z</time></trkpt><trkpt lat="44.096850690791044" lon="8.218209053963239"><ele>52.0</ele><time>2026-04-22T09:13:01Z</time></trkpt><trkpt lat="44.09669881796754" lon="8.217999835653897"><ele>53.666666666666664</ele><time>2026-04-22T09:13:02Z</time></trkpt><trkpt lat="44.09654683008308" lon="8.217786035566528"><ele>55.33333333333333</ele><time>2026-04-22T09:13:03Z</time></trkpt><trkpt lat="44.0963964061047" lon="8.217573421394686"><ele>57.0</ele><time>2026-04-22T09:13:04Z</time></trkpt><trkpt lat="44.09624563337064" lon="8.21736096521177"><ele>58.66666666666667</ele><time>2026-04-22T09:13:05Z</time></trkpt><trkpt lat="44.09609402185809" lon="8.217146196891356"><ele>60.333333333333336</ele><time>2026-04-22T09:13:06Z</time></trkpt><trkpt lat="44.09594107679367" lon="8.216930917811476"><ele>62.0</ele><time>2026-04-22T09:13:07Z</time></trkpt><trkpt lat="44.095782568856755" lon="8.216710868925375"><ele>61.0</ele><time>2026-04-22T09:13:08Z</time></trkpt><trkpt lat="44.09562247504618" lon="8.216487692217582"><ele>60.0</ele><time>2026-04-22T09:13:09Z</time></trkpt><trkpt lat="44.095458569835465" lon="8.216263822943104"><ele>60.0</ele><time>2026-04-22T09:13:10Z</time></trkpt><trkpt lat="44.095298279446844" lon="8.216041877565786"><ele>60.0</ele><time>2026-04-22T09:13:11Z</time></trkpt><trkpt lat="44.09513668656069" lon="8.21581750261852"><ele>62.5</ele><time>2026-04-22T09:13:12Z</time></trkpt><trkpt lat="44.09498035392466" lon="8.215595432817013"><ele>65.0</ele><time>2026-04-22T09:13:13Z</time></trkpt><trkpt lat="44.094818789634644" lon="8.215374673578479"><ele>65.0</ele><time>2026-04-22T09:13:14Z</time></trkpt><trkpt lat="44.09466384943161" lon="8.215152578547277"><ele>65.0</ele><time>2026-04-22T09:13:15Z</time></trkpt><trkpt lat="44.094510975876524" lon="8.21493208642694"><ele>65.0</ele><time>2026-04-22T09:13:16Z</time></trkpt><trkpt lat="44.094353090605374" lon="8.214712303323841"><ele>64.66666666666667</ele><time>2026-04-22T09:13:17Z</time></trkpt><trkpt lat="44.09419872977865" lon="8.214497087564217"><ele>64.33333333333333</ele><time>2026-04-22T09:13:18Z</time></trkpt><trkpt lat="44.094048612457975" lon="8.214272040585174"><ele>64.0</ele><time>2026-04-22T09:13:19Z</time></trkpt><trkpt lat="44.09389266969801" lon="8.214066984512732"><ele>65.0</ele><time>2026-04-22T09:13:20Z</time></trkpt><trkpt lat="44.09373871033843" lon="8.213848815848989"><ele>66.0</ele><time>2026-04-22T09:13:21Z</time></trkpt><trkpt lat="44.093585348291164" lon="8.213629654605343"><ele>67.0</ele><time>2026-04-22T09:13:22Z</time></trkpt><trkpt lat="44.09343335442076" lon="8.213415450545927"><ele>67.0</ele><time>2026-04-22T09:13:23Z</time></trkpt><trkpt lat="44.09327983635477" lon="8.213202637872577"><ele>67.0</ele><time>2026-04-22T09:13:24Z</time></trkpt><trkpt lat="44.093127556071245" lon="8.212988093094054"><ele>67.0</ele><time>2026-04-22T09:13:25Z</time></trkpt><trkpt lat="44.092977289906166" lon="8.212777485871817"><ele>67.0</ele><time>2026-04-22T09:13:26Z</time></trkpt><trkpt lat="44.09282267271111" lon="8.212565449988357"><ele>67.0</ele><time>2026-04-22T09:13:27Z</time></trkpt><trkpt lat="44.09267270110237" lon="8.212353043609305"><ele>67.0</ele><time>2026-04-22T09:13:28Z</time></trkpt><trkpt lat="44.09252141256241" lon="8.212141554437954"><ele>66.66666666666666</ele><time>2026-04-22T09:13:29Z</time></trkpt><trkpt lat="44.09237042915945" lon="8.211930504866089"><ele>66.33333333333333</ele><time>2026-04-22T09:13:30Z</time></trkpt><trkpt lat="44.092220564391994" lon="8.211723825037517"><ele>66.0</ele><time>2026-04-22T09:13:31Z</time></trkpt><trkpt lat="44.09207436250016" lon="8.211517826149219"><ele>67.0</ele><time>2026-04-22T09:13:32Z</time></trkpt><trkpt lat="44.09192947336113" lon="8.211315770322459"><ele>68.0</ele><time>2026-04-22T09:13:33Z</time></trkpt><trkpt lat="44.09178929458543" lon="8.211117954275"><ele>69.0</ele><time>2026-04-22T09:13:34Z</time></trkpt><trkpt lat="44.091648710206385" lon="8.210921533598492"><ele>69.33333333333333</ele><time>2026-04-22T09:13:35Z</time></trkpt><trkpt lat="44.09151061817932" lon="8.2107271235027"><ele>69.66666666666666</ele><time>2026-04-22T09:13:36Z</time></trkpt><trkpt lat="44.09137786155131" lon="8.210532617215735"><ele>70.0</ele><time>2026-04-22T09:13:37Z</time></trkpt><trkpt lat="44.09124095756136" lon="8.210344609009777"><ele>71.0</ele><time>2026-04-22T09:13:38Z</time></trkpt><trkpt lat="44.09109694886311" lon="8.210153906593296"><ele>72.0</ele><time>2026-04-22T09:13:39Z</time></trkpt><trkpt lat="44.090952300747176" lon="8.209944015244451"><ele>73.0</ele><time>2026-04-22T09:13:40Z</time></trkpt><trkpt lat="44.09079806219842" lon="8.209729849229571"><ele>72.5</ele><time>2026-04-22T09:13:41Z</time></trkpt><trkpt lat="44.090636690283496" lon="8.209508591185381"><ele>72.0</ele><time>2026-04-22T09:13:42Z</time></trkpt><trkpt lat="44.090471959076496" lon="8.209278662830588"><ele>72.0</ele><time>2026-04-22T09:13:43Z</time></trkpt><trkpt lat="44.09030678512051" lon="8.209050405383902"><ele>72.0</ele><time>2026-04-22T09:13:44Z</time></trkpt><trkpt lat="44.090140468336365" lon="8.208817283158904"><ele>72.0</ele><time>2026-04-22T09:13:45Z</time></trkpt><trkpt lat="44.08997237200954" lon="8.2085804750113"><ele>72.0</ele><time>2026-04-22T09:13:46Z</time></trkpt><trkpt lat="44.089797634250665" lon="8.208323039253127"><ele>70.5</ele><time>2026-04-22T09:13:47Z</time></trkpt><trkpt lat="44.08962415278646" lon="8.208107575262714"><ele>69.0</ele><time>2026-04-22T09:13:48Z</time></trkpt><trkpt lat="44.089455904336525" lon="8.20786384148522"><ele>69.0</ele><time>2026-04-22T09:13:49Z</time></trkpt><trkpt lat="44.08928858202835" lon="8.207630765313372"><ele>69.0</ele><time>2026-04-22T09:13:50Z</time></trkpt><trkpt lat="44.08912523025616" lon="8.20740582602923"><ele>68.5</ele><time>2026-04-22T09:13:51Z</time></trkpt><trkpt lat="44.088964163666404" lon="8.207180886652889"><ele>68.0</ele><time>2026-04-22T09:13:52Z</time></trkpt><trkpt lat="44.08880460372303" lon="8.206957459295513"><ele>68.0</ele><time>2026-04-22T09:13:53Z</time></trkpt><trkpt lat="44.088646101218295" lon="8.206733215057147"><ele>68.0</ele><time>2026-04-22T09:13:54Z</time></trkpt><trkpt lat="44.08848897661229" lon="8.206513311293106"><ele>68.0</ele><time>2026-04-22T09:13:55Z</time></trkpt><trkpt lat="44.08833238844521" lon="8.206297272288818"><ele>67.0</ele><time>2026-04-22T09:13:56Z</time></trkpt><trkpt lat="44.08817608544632" lon="8.206075935014677"><ele>66.0</ele><time>2026-04-22T09:13:57Z</time></trkpt><trkpt lat="44.08802349773806" lon="8.205863754600825"><ele>65.0</ele><time>2026-04-22T09:13:58Z</time></trkpt><trkpt lat="44.08786697250774" lon="8.20564641699048"><ele>64.66666666666667</ele><time>2026-04-22T09:13:59Z</time></trkpt><trkpt lat="44.0877145098631" lon="8.205433331881007"><ele>64.33333333333333</ele><time>2026-04-22T09:14:00Z</time></trkpt><trkpt lat="44.08755391379052" lon="8.205213697986972"><ele>64.0</ele><time>2026-04-22T09:14:01Z</time></trkpt><trkpt lat="44.08740059182041" lon="8.204999333284805"><ele>63.0</ele><time>2026-04-22T09:14:02Z</time></trkpt><trkpt lat="44.087245231788096" lon="8.20478035992248"><ele>62.0</ele><time>2026-04-22T09:14:03Z</time></trkpt><trkpt lat="44.0870883245882" lon="8.20455950396898"><ele>61.0</ele><time>2026-04-22T09:14:04Z</time></trkpt><trkpt lat="44.0869292879951" lon="8.204339792484035"><ele>61.0</ele><time>2026-04-22T09:14:05Z</time></trkpt><trkpt lat="44.086770548517904" lon="8.20412113146569"><ele>61.0</ele><time>2026-04-22T09:14:06Z</time></trkpt><trkpt lat="44.086609679267596" lon="8.203895107778868"><ele>58.5</ele><time>2026-04-22T09:14:07Z</time></trkpt><trkpt lat="44.08645305631579" lon="8.20366987071789"><ele>56.0</ele><time>2026-04-22T09:14:08Z</time></trkpt><trkpt lat="44.08629248274132" lon="8.203441344036047"><ele>56.0</ele><time>2026-04-22T09:14:08.999Z</time></trkpt><trkpt lat="44.08613365757931" lon="8.203213926051447"><ele>56.0</ele><time>2026-04-22T09:14:09.999Z</time></trkpt><trkpt lat="44.08597494556517" lon="8.2029857688319"><ele>56.5</ele><time>2026-04-22T09:14:10.999Z</time></trkpt><trkpt lat="44.08581520751131" lon="8.202756547436122"><ele>57.0</ele><time>2026-04-22T09:14:11.999Z</time></trkpt><trkpt lat="44.08565578711618" lon="8.202527942517952"><ele>55.0</ele><time>2026-04-22T09:14:12.999Z</time></trkpt><trkpt lat="44.085493560069274" lon="8.202291986110616"><ele>53.0</ele><time>2026-04-22T09:14:13.999Z</time></trkpt><trkpt lat="44.08533598216929" lon="8.202058446061999"><ele>53.0</ele><time>2026-04-22T09:14:14.999Z</time></trkpt><trkpt lat="44.08517784285844" lon="8.20182703245321"><ele>53.0</ele><time>2026-04-22T09:14:15.999Z</time></trkpt><trkpt lat="44.08501839036925" lon="8.201596562386959"><ele>49.0</ele><time>2026-04-22T09:14:16.999Z</time></trkpt><trkpt lat="44.08485929109996" lon="8.201368917383135"><ele>45.0</ele><time>2026-04-22T09:14:17.999Z</time></trkpt><trkpt lat="44.08470063393967" lon="8.20113890680382"><ele>45.0</ele><time>2026-04-22T09:14:18.999Z</time></trkpt><trkpt lat="44.084543575348604" lon="8.200910722625222"><ele>45.0</ele><time>2026-04-22T09:14:19.999Z</time></trkpt><trkpt lat="44.08438556633784" lon="8.20067932809153"><ele>44.5</ele><time>2026-04-22T09:14:20.999Z</time></trkpt><trkpt lat="44.08422789022786" lon="8.200446764298562"><ele>44.0</ele><time>2026-04-22T09:14:21.999Z</time></trkpt><trkpt lat="44.08406709565064" lon="8.20021302214066"><ele>44.0</ele><time>2026-04-22T09:14:22.999Z</time></trkpt><trkpt lat="44.08390642401582" lon="8.199976615677123"><ele>44.0</ele><time>2026-04-22T09:14:23.999Z</time></trkpt><trkpt lat="44.08374635589856" lon="8.199738726194553"><ele>44.0</ele><time>2026-04-22T09:14:24.999Z</time></trkpt><trkpt lat="44.08358477608705" lon="8.199501600961574"><ele>44.0</ele><time>2026-04-22T09:14:25.999Z</time></trkpt><trkpt lat="44.08342489099199" lon="8.19926911181882"><ele>44.0</ele><time>2026-04-22T09:14:26.999Z</time></trkpt><trkpt lat="44.08326389589474" lon="8.19903544974843"><ele>44.0</ele><time>2026-04-22T09:14:27.999Z</time></trkpt><trkpt lat="44.08310309868068" lon="8.198800870575104"><ele>41.5</ele><time>2026-04-22T09:14:28.999Z</time></trkpt><trkpt lat="44.0829441260549" lon="8.198565582455275"><ele>39.0</ele><time>2026-04-22T09:14:29.999Z</time></trkpt><trkpt lat="44.08278417350175" lon="8.198329751105222"><ele>36.5</ele><time>2026-04-22T09:14:30.999Z</time></trkpt><trkpt lat="44.08262207193978" lon="8.19809203395131"><ele>34.0</ele><time>2026-04-22T09:14:31.999Z</time></trkpt><trkpt lat="44.082458083065" lon="8.197854350797277"><ele>32.0</ele><time>2026-04-22T09:14:32.999Z</time></trkpt><trkpt lat="44.08229402163883" lon="8.197614803876654"><ele>30.0</ele><time>2026-04-22T09:14:33.999Z</time></trkpt><trkpt lat="44.08212900352075" lon="8.197372690454477"><ele>32.0</ele><time>2026-04-22T09:14:34.999Z</time></trkpt><trkpt lat="44.08196400850225" lon="8.197128431598976"><ele>34.0</ele><time>2026-04-22T09:14:35.999Z</time></trkpt><trkpt lat="44.08179899296634" lon="8.196885723841831"><ele>34.0</ele><time>2026-04-22T09:14:36.999Z</time></trkpt><trkpt lat="44.08163197625765" lon="8.196643828268888"><ele>34.0</ele><time>2026-04-22T09:14:37.999Z</time></trkpt><trkpt lat="44.08146497674052" lon="8.196399076571739"><ele>33.5</ele><time>2026-04-22T09:14:38.999Z</time></trkpt><trkpt lat="44.08129819457605" lon="8.196155450496109"><ele>33.0</ele><time>2026-04-22T09:14:39.999Z</time></trkpt><trkpt lat="44.08112761239542" lon="8.19590804352003"><ele>34.0</ele><time>2026-04-22T09:14:41Z</time></trkpt><trkpt lat="44.08096073010598" lon="8.195662116997973"><ele>35.0</ele><time>2026-04-22T09:14:42Z</time></trkpt><trkpt lat="44.08078928976005" lon="8.195414129807265"><ele>31.5</ele><time>2026-04-22T09:14:43Z</time></trkpt><trkpt lat="44.08062091112531" lon="8.195166291192976"><ele>28.0</ele><time>2026-04-22T09:14:44Z</time></trkpt><trkpt lat="44.08044915656581" lon="8.194915064095618"><ele>30.5</ele><time>2026-04-22T09:14:45Z</time></trkpt><trkpt lat="44.08028300705277" lon="8.194670158973638"><ele>33.0</ele><time>2026-04-22T09:14:46Z</time></trkpt><trkpt lat="44.08012022836547" lon="8.194435947683951"><ele>33.0</ele><time>2026-04-22T09:14:47Z</time></trkpt><trkpt lat="44.07995655142817" lon="8.19419908448962"><ele>33.0</ele><time>2026-04-22T09:14:48Z</time></trkpt><trkpt lat="44.07979098347758" lon="8.193965065344408"><ele>34.0</ele><time>2026-04-22T09:14:49Z</time></trkpt><trkpt lat="44.07962019002925" lon="8.193727844310203"><ele>35.0</ele><time>2026-04-22T09:14:50Z</time></trkpt><trkpt lat="44.07944455833985" lon="8.193482005212788"><ele>35.0</ele><time>2026-04-22T09:14:51Z</time></trkpt><trkpt lat="44.0792659663619" lon="8.19322541791183"><ele>35.0</ele><time>2026-04-22T09:14:52Z</time></trkpt><trkpt lat="44.079080823311195" lon="8.192959740826515"><ele>34.5</ele><time>2026-04-22T09:14:53Z</time></trkpt><trkpt lat="44.078887922450924" lon="8.19268345757027"><ele>34.0</ele><time>2026-04-22T09:14:54Z</time></trkpt><trkpt lat="44.078692598716884" lon="8.192399963819529"><ele>35.5</ele><time>2026-04-22T09:14:55Z</time></trkpt><trkpt lat="44.078494619775874" lon="8.192105404560987"><ele>37.0</ele><time>2026-04-22T09:14:56Z</time></trkpt><trkpt lat="44.078294689230894" lon="8.191807103161155"><ele>37.0</ele><time>2026-04-22T09:14:57Z</time></trkpt><trkpt lat="44.078100492965504" lon="8.191506962090237"><ele>37.0</ele><time>2026-04-22T09:14:58Z</time></trkpt><trkpt lat="44.07790642025746" lon="8.191208205052945"><ele>37.0</ele><time>2026-04-22T09:14:59Z</time></trkpt><trkpt lat="44.07771467825293" lon="8.190917109887458"><ele>37.0</ele><time>2026-04-22T09:15:00Z</time></trkpt><trkpt lat="44.07752149529313" lon="8.19062581517442"><ele>36.5</ele><time>2026-04-22T09:15:01Z</time></trkpt><trkpt lat="44.07732720170335" lon="8.190334546511444"><ele>36.0</ele><time>2026-04-22T09:15:02Z</time></trkpt><trkpt lat="44.077130932453315" lon="8.19004464851708"><ele>35.0</ele><time>2026-04-22T09:15:03Z</time></trkpt><trkpt lat="44.0769336355179" lon="8.189758029222101"><ele>34.0</ele><time>2026-04-22T09:15:04Z</time></trkpt><trkpt lat="44.076735975329925" lon="8.189476577120447"><ele>32.5</ele><time>2026-04-22T09:15:05Z</time></trkpt><trkpt lat="44.076540179862484" lon="8.18919583917119"><ele>31.0</ele><time>2026-04-22T09:15:06Z</time></trkpt><trkpt lat="44.07634193036846" lon="8.188915189400229"><ele>30.5</ele><time>2026-04-22T09:15:07Z</time></trkpt><trkpt lat="44.07614387924635" lon="8.188635844442938"><ele>30.0</ele><time>2026-04-22T09:15:08Z</time></trkpt><trkpt lat="44.07594577347752" lon="8.188360476708203"><ele>29.0</ele><time>2026-04-22T09:15:09Z</time></trkpt><trkpt lat="44.075750192928425" lon="8.188084807479685"><ele>28.0</ele><time>2026-04-22T09:15:10Z</time></trkpt><trkpt lat="44.07555268711211" lon="8.187809085490278"><ele>28.0</ele><time>2026-04-22T09:15:11Z</time></trkpt><trkpt lat="44.07535354651235" lon="8.18753329813328"><ele>28.0</ele><time>2026-04-22T09:15:12Z</time></trkpt><trkpt lat="44.07515507955599" lon="8.187259845039886"><ele>28.0</ele><time>2026-04-22T09:15:13Z</time></trkpt><trkpt lat="44.07495800238082" lon="8.18699225802663"><ele>28.0</ele><time>2026-04-22T09:15:14Z</time></trkpt><trkpt lat="44.07475979971796" lon="8.186726121349086"><ele>27.5</ele><time>2026-04-22T09:15:15Z</time></trkpt><trkpt lat="44.07456406952324" lon="8.186459969229901"><ele>27.0</ele><time>2026-04-22T09:15:16Z</time></trkpt><trkpt lat="44.074367813656664" lon="8.186194670686303"><ele>27.0</ele><time>2026-04-22T09:15:17Z</time></trkpt><trkpt lat="44.074173297778785" lon="8.185924979769629"><ele>27.0</ele><time>2026-04-22T09:15:18Z</time></trkpt><trkpt lat="44.07398088508108" lon="8.18566475528338"><ele>27.5</ele><time>2026-04-22T09:15:19Z</time></trkpt><trkpt lat="44.07378430922079" lon="8.185401979116891"><ele>28.0</ele><time>2026-04-22T09:15:20Z</time></trkpt><trkpt lat="44.0735903730179" lon="8.185141805588668"><ele>28.0</ele><time>2026-04-22T09:15:21Z</time></trkpt><trkpt lat="44.07339752303676" lon="8.184882174149347"><ele>28.0</ele><time>2026-04-22T09:15:22Z</time></trkpt><trkpt lat="44.07320454948275" lon="8.184621388370878"><ele>28.5</ele><time>2026-04-22T09:15:23Z</time></trkpt><trkpt lat="44.073011022858985" lon="8.184358527633462"><ele>29.0</ele><time>2026-04-22T09:15:24Z</time></trkpt><trkpt lat="44.07282122454432" lon="8.184098769826173"><ele>30.5</ele><time>2026-04-22T09:15:25Z</time></trkpt><trkpt lat="44.072632718233145" lon="8.183841550833224"><ele>32.0</ele><time>2026-04-22T09:15:26Z</time></trkpt><trkpt lat="44.07244416857207" lon="8.183583617090477"><ele>32.0</ele><time>2026-04-22T09:15:27Z</time></trkpt><trkpt lat="44.07225589919448" lon="8.183325844636162"><ele>32.0</ele><time>2026-04-22T09:15:28Z</time></trkpt><trkpt lat="44.072064430567835" lon="8.183066089597839"><ele>32.5</ele><time>2026-04-22T09:15:29Z</time></trkpt><trkpt lat="44.071872040526856" lon="8.182803955676826"><ele>33.0</ele><time>2026-04-22T09:15:30Z</time></trkpt><trkpt lat="44.071677063746506" lon="8.18253854692485"><ele>34.0</ele><time>2026-04-22T09:15:31Z</time></trkpt><trkpt lat="44.071478338424704" lon="8.182272598818686"><ele>35.0</ele><time>2026-04-22T09:15:32Z</time></trkpt><trkpt lat="44.07127931890967" lon="8.182004421359302"><ele>35.0</ele><time>2026-04-22T09:15:33Z</time></trkpt><trkpt lat="44.07108250551851" lon="8.181735369086137"><ele>35.0</ele><time>2026-04-22T09:15:34Z</time></trkpt><trkpt lat="44.07088225864142" lon="8.181463644442111"><ele>35.5</ele><time>2026-04-22T09:15:35Z</time></trkpt><trkpt lat="44.07068311324798" lon="8.18119238109503"><ele>36.0</ele><time>2026-04-22T09:15:36Z</time></trkpt><trkpt lat="44.070484492054824" lon="8.180919215055134"><ele>35.0</ele><time>2026-04-22T09:15:37Z</time></trkpt><trkpt lat="44.070285812815435" lon="8.180649120551777"><ele>34.0</ele><time>2026-04-22T09:15:38Z</time></trkpt><trkpt lat="44.07008596280942" lon="8.18037645257913"><ele>36.0</ele><time>2026-04-22T09:15:39Z</time></trkpt><trkpt lat="44.069885419762926" lon="8.180103554859159"><ele>38.0</ele><time>2026-04-22T09:15:40Z</time></trkpt><trkpt lat="44.06968511565171" lon="8.179831163309377"><ele>38.5</ele><time>2026-04-22T09:15:41Z</time></trkpt><trkpt lat="44.069482108915615" lon="8.179556173380746"><ele>39.0</ele><time>2026-04-22T09:15:42Z</time></trkpt><trkpt lat="44.06928008660243" lon="8.179280714802044"><ele>34.5</ele><time>2026-04-22T09:15:43Z</time></trkpt><trkpt lat="44.06907600613349" lon="8.179004409171144"><ele>30.0</ele><time>2026-04-22T09:15:44Z</time></trkpt><trkpt lat="44.06887390946662" lon="8.178729706026049"><ele>30.0</ele><time>2026-04-22T09:15:45Z</time></trkpt><trkpt lat="44.068671580133845" lon="8.178455822321668"><ele>30.0</ele><time>2026-04-22T09:15:46Z</time></trkpt><trkpt lat="44.06847106549023" lon="8.178183989841962"><ele>27.0</ele><time>2026-04-22T09:15:47Z</time></trkpt><trkpt lat="44.06827132822863" lon="8.177913177894858"><ele>24.0</ele><time>2026-04-22T09:15:48Z</time></trkpt><trkpt lat="44.0680733868254" lon="8.177644003899841"><ele>24.0</ele><time>2026-04-22T09:15:49Z</time></trkpt><trkpt lat="44.06787784548978" lon="8.17737456187549"><ele>24.0</ele><time>2026-04-22T09:15:50Z</time></trkpt><trkpt lat="44.06768508262725" lon="8.177107809406381"><ele>24.5</ele><time>2026-04-22T09:15:51Z</time></trkpt><trkpt lat="44.06749248075035" lon="8.17684249573408"><ele>25.0</ele><time>2026-04-22T09:15:52Z</time></trkpt><trkpt lat="44.06730286318852" lon="8.176581832426615"><ele>23.5</ele><time>2026-04-22T09:15:53Z</time></trkpt><trkpt lat="44.067113090543145" lon="8.176322005775747"><ele>22.0</ele><time>2026-04-22T09:15:54Z</time></trkpt><trkpt lat="44.06692228479764" lon="8.17606490336345"><ele>22.0</ele><time>2026-04-22T09:15:55Z</time></trkpt><trkpt lat="44.06673281303003" lon="8.1758092252191"><ele>22.0</ele><time>2026-04-22T09:15:56Z</time></trkpt><trkpt lat="44.066544201974196" lon="8.175555553331948"><ele>23.0</ele><time>2026-04-22T09:15:56.999Z</time></trkpt><trkpt lat="44.06635776934075" lon="8.17530359712974"><ele>24.0</ele><time>2026-04-22T09:15:57.999Z</time></trkpt><trkpt lat="44.066169366870575" lon="8.175052902222818"><ele>23.5</ele><time>2026-04-22T09:15:58.999Z</time></trkpt><trkpt lat="44.0659798633489" lon="8.174810260334374"><ele>23.0</ele><time>2026-04-22T09:15:59.999Z</time></trkpt><trkpt lat="44.065788454899376" lon="8.17457487735801"><ele>21.0</ele><time>2026-04-22T09:16:00.999Z</time></trkpt><trkpt lat="44.06559669555125" lon="8.174342513786415"><ele>19.0</ele><time>2026-04-22T09:16:01.999Z</time></trkpt><trkpt lat="44.065401024889525" lon="8.174107726717963"><ele>18.0</ele><time>2026-04-22T09:16:02.999Z</time></trkpt><trkpt lat="44.065201987974866" lon="8.173879367834989"><ele>17.0</ele><time>2026-04-22T09:16:03.999Z</time></trkpt><trkpt lat="44.06500100739142" lon="8.173657561796935"><ele>15.5</ele><time>2026-04-22T09:16:04.999Z</time></trkpt><trkpt lat="44.064791951485425" lon="8.173434981680273"><ele>14.0</ele><time>2026-04-22T09:16:05.999Z</time></trkpt><trkpt lat="44.06458442106165" lon="8.173220924065479"><ele>14.5</ele><time>2026-04-22T09:16:06.999Z</time></trkpt><trkpt lat="44.06437684991404" lon="8.173009002758038"><ele>15.0</ele><time>2026-04-22T09:16:07.999Z</time></trkpt><trkpt lat="44.06417156342062" lon="8.172804089536694"><ele>14.5</ele><time>2026-04-22T09:16:08.999Z</time></trkpt><trkpt lat="44.063963617716865" lon="8.172606707702688"><ele>14.0</ele><time>2026-04-22T09:16:09.999Z</time></trkpt><trkpt lat="44.063754460956964" lon="8.172414105292201"><ele>15.5</ele><time>2026-04-22T09:16:10.999Z</time></trkpt><trkpt lat="44.063543395675424" lon="8.17222845822593"><ele>17.0</ele><time>2026-04-22T09:16:11.999Z</time></trkpt><trkpt lat="44.063327725884555" lon="8.172044589876462"><ele>17.5</ele><time>2026-04-22T09:16:12.999Z</time></trkpt><trkpt lat="44.06311292053396" lon="8.171862686021013"><ele>18.0</ele><time>2026-04-22T09:16:13.999Z</time></trkpt><trkpt lat="44.06289351090396" lon="8.171678922712841"><ele>17.5</ele><time>2026-04-22T09:16:14.999Z</time></trkpt><trkpt lat="44.062672788038476" lon="8.171498600561014"><ele>17.0</ele><time>2026-04-22T09:16:15.999Z</time></trkpt><trkpt lat="44.0624508327648" lon="8.17131759017082"><ele>18.0</ele><time>2026-04-22T09:16:16.999Z</time></trkpt><trkpt lat="44.062232356649886" lon="8.171137247875722"><ele>19.0</ele><time>2026-04-22T09:16:17.999Z</time></trkpt><trkpt lat="44.06201192232949" lon="8.17095372820218"><ele>19.0</ele><time>2026-04-22T09:16:18.999Z</time></trkpt><trkpt lat="44.06179184573295" lon="8.170772127912729"><ele>19.0</ele><time>2026-04-22T09:16:19.999Z</time></trkpt><trkpt lat="44.06157054768904" lon="8.170592106765946"><ele>22.0</ele><time>2026-04-22T09:16:20.999Z</time></trkpt><trkpt lat="44.06135271645028" lon="8.17041170110424"><ele>25.0</ele><time>2026-04-22T09:16:21.999Z</time></trkpt><trkpt lat="44.06113369072111" lon="8.17023111739834"><ele>25.0</ele><time>2026-04-22T09:16:22.999Z</time></trkpt><trkpt lat="44.06091561748408" lon="8.170049202715731"><ele>25.0</ele><time>2026-04-22T09:16:23.999Z</time></trkpt><trkpt lat="44.060696973822026" lon="8.169864922588827"><ele>31.5</ele><time>2026-04-22T09:16:24.999Z</time></trkpt><trkpt lat="44.06047930161915" lon="8.169680426656637"><ele>38.0</ele><time>2026-04-22T09:16:25.999Z</time></trkpt><trkpt lat="44.06025705034056" lon="8.16949624260802"><ele>38.0</ele><time>2026-04-22T09:16:26.999Z</time></trkpt><trkpt lat="44.06003914115854" lon="8.169319142357125"><ele>38.0</ele><time>2026-04-22T09:16:27.999Z</time></trkpt><trkpt lat="44.059826210300706" lon="8.169147205858355"><ele>32.5</ele><time>2026-04-22T09:16:28.999Z</time></trkpt><trkpt lat="44.059620165911525" lon="8.168979656451937"><ele>27.0</ele><time>2026-04-22T09:16:29.999Z</time></trkpt><trkpt lat="44.05942652759987" lon="8.168821210113936"><ele>27.0</ele><time>2026-04-22T09:16:30.999Z</time></trkpt><trkpt lat="44.05922194269879" lon="8.168640677803118"><ele>27.0</ele><time>2026-04-22T09:16:31.999Z</time></trkpt><trkpt lat="44.05903066229168" lon="8.16846039569355"><ele>31.0</ele><time>2026-04-22T09:16:32.999Z</time></trkpt><trkpt lat="44.05884758696568" lon="8.168292943511977"><ele>35.0</ele><time>2026-04-22T09:16:33.999Z</time></trkpt><trkpt lat="44.05866642101347" lon="8.16812330493916"><ele>39.0</ele><time>2026-04-22T09:16:34.999Z</time></trkpt><trkpt lat="44.05848944627427" lon="8.16795018799579"><ele>41.333333333333336</ele><time>2026-04-22T09:16:35.999Z</time></trkpt><trkpt lat="44.05831562473154" lon="8.167773203580436"><ele>43.66666666666667</ele><time>2026-04-22T09:16:36.999Z</time></trkpt><trkpt lat="44.05814234446732" lon="8.167594159567754"><ele>46.0</ele><time>2026-04-22T09:16:37.999Z</time></trkpt><trkpt lat="44.0579701054574" lon="8.16741161686355"><ele>39.66666666666667</ele><time>2026-04-22T09:16:38.999Z</time></trkpt><trkpt lat="44.05779909003222" lon="8.167224337817444"><ele>33.333333333333336</ele><time>2026-04-22T09:16:39.999Z</time></trkpt><trkpt lat="44.057630383414875" lon="8.167029734449269"><ele>27.0</ele><time>2026-04-22T09:16:40.999Z</time></trkpt><trkpt lat="44.05747821395404" lon="8.166837892824853"><ele>25.333333333333332</ele><time>2026-04-22T09:16:41.999Z</time></trkpt><trkpt lat="44.05730875355959" lon="8.166663583999254"><ele>23.666666666666664</ele><time>2026-04-22T09:16:42.999Z</time></trkpt><trkpt lat="44.05715008809724" lon="8.16647036351015"><ele>22.0</ele><time>2026-04-22T09:16:43.999Z</time></trkpt><trkpt lat="44.056990843439735" lon="8.166272991210576"><ele>21.333333333333332</ele><time>2026-04-22T09:16:44.999Z</time></trkpt><trkpt lat="44.05683123513763" lon="8.16607139720723"><ele>20.666666666666668</ele><time>2026-04-22T09:16:45.999Z</time></trkpt><trkpt lat="44.05667174236394" lon="8.165865354687131"><ele>20.0</ele><time>2026-04-22T09:16:47Z</time></trkpt><trkpt lat="44.05651247949339" lon="8.165651528516275"><ele>20.0</ele><time>2026-04-22T09:16:48Z</time></trkpt><trkpt lat="44.05635535442008" lon="8.165430164863203"><ele>20.0</ele><time>2026-04-22T09:16:49Z</time></trkpt><trkpt lat="44.05620106218817" lon="8.165202491063521"><ele>20.0</ele><time>2026-04-22T09:16:50Z</time></trkpt><trkpt lat="44.05604630453091" lon="8.16497191925351"><ele>19.5</ele><time>2026-04-22T09:16:51Z</time></trkpt><trkpt lat="44.05589098519831" lon="8.164739544995214"><ele>19.0</ele><time>2026-04-22T09:16:52Z</time></trkpt><trkpt lat="44.05573235144612" lon="8.164496463559576"><ele>18.5</ele><time>2026-04-22T09:16:53Z</time></trkpt><trkpt lat="44.0555744118675" lon="8.16424755444911"><ele>18.0</ele><time>2026-04-22T09:16:54Z</time></trkpt><trkpt lat="44.05541918203247" lon="8.163992077885931"><ele>17.5</ele><time>2026-04-22T09:16:55Z</time></trkpt><trkpt lat="44.05526805334216" lon="8.163733616804809"><ele>17.0</ele><time>2026-04-22T09:16:56Z</time></trkpt><trkpt lat="44.05512176082212" lon="8.163474321831165"><ele>17.0</ele><time>2026-04-22T09:16:57Z</time></trkpt><trkpt lat="44.05497729133084" lon="8.163216280145733"><ele>17.0</ele><time>2026-04-22T09:16:58Z</time></trkpt><trkpt lat="44.05483513880094" lon="8.162953354512817"><ele>18.0</ele><time>2026-04-22T09:16:59Z</time></trkpt><trkpt lat="44.05469633695268" lon="8.162689258159626"><ele>19.0</ele><time>2026-04-22T09:17:00Z</time></trkpt><trkpt lat="44.054559083938955" lon="8.162424680527629"><ele>20.0</ele><time>2026-04-22T09:17:01Z</time></trkpt><trkpt lat="44.0544244229466" lon="8.162154602543259"><ele>21.0</ele><time>2026-04-22T09:17:02Z</time></trkpt><trkpt lat="44.05428841688799" lon="8.161875866618088"><ele>21.0</ele><time>2026-04-22T09:17:03Z</time></trkpt><trkpt lat="44.054150425645474" lon="8.161585794147186"><ele>21.0</ele><time>2026-04-22T09:17:04Z</time></trkpt><trkpt lat="44.05401644341354" lon="8.16128869225803"><ele>20.0</ele><time>2026-04-22T09:17:05Z</time></trkpt><trkpt lat="44.05388520805221" lon="8.160984847727116"><ele>19.0</ele><time>2026-04-22T09:17:06Z</time></trkpt><trkpt lat="44.05375717831311" lon="8.160677561870859"><ele>18.5</ele><time>2026-04-22T09:17:07Z</time></trkpt><trkpt lat="44.05362618666377" lon="8.160356552562325"><ele>18.0</ele><time>2026-04-22T09:17:08Z</time></trkpt><trkpt lat="44.05349503119736" lon="8.160023787077474"><ele>17.5</ele><time>2026-04-22T09:17:09Z</time></trkpt><trkpt lat="44.05336471972338" lon="8.159685032892554"><ele>17.0</ele><time>2026-04-22T09:17:10Z</time></trkpt><trkpt lat="44.053239688672726" lon="8.159350141995693"><ele>18.5</ele><time>2026-04-22T09:17:11Z</time></trkpt><trkpt lat="44.05312072955397" lon="8.159021338669692"><ele>20.0</ele><time>2026-04-22T09:17:12Z</time></trkpt><trkpt lat="44.05300271312872" lon="8.158699112036194"><ele>20.0</ele><time>2026-04-22T09:17:13Z</time></trkpt><trkpt lat="44.052885557510564" lon="8.158381402998321"><ele>20.0</ele><time>2026-04-22T09:17:14Z</time></trkpt><trkpt lat="44.052772240640586" lon="8.158068242589536"><ele>20.5</ele><time>2026-04-22T09:17:15Z</time></trkpt><trkpt lat="44.05266017856453" lon="8.157762026364251"><ele>21.0</ele><time>2026-04-22T09:17:16Z</time></trkpt><trkpt lat="44.052547197479896" lon="8.157462076508482"><ele>21.5</ele><time>2026-04-22T09:17:17Z</time></trkpt><trkpt lat="44.052431976488286" lon="8.157161727889518"><ele>22.0</ele><time>2026-04-22T09:17:18Z</time></trkpt><trkpt lat="44.05230958931514" lon="8.1568546666436"><ele>22.0</ele><time>2026-04-22T09:17:19Z</time></trkpt><trkpt lat="44.05217864644736" lon="8.156536425220292"><ele>22.0</ele><time>2026-04-22T09:17:20Z</time></trkpt><trkpt lat="44.05204018875858" lon="8.156208318195853"><ele>22.0</ele><time>2026-04-22T09:17:21Z</time></trkpt><trkpt lat="44.05189817742934" lon="8.155875992777803"><ele>22.0</ele><time>2026-04-22T09:17:22Z</time></trkpt><trkpt lat="44.05175060678811" lon="8.155536600099554"><ele>22.0</ele><time>2026-04-22T09:17:23Z</time></trkpt><trkpt lat="44.05159881509464" lon="8.155185056913023"><ele>22.0</ele><time>2026-04-22T09:17:24Z</time></trkpt><trkpt lat="44.051440948424734" lon="8.154829061445295"><ele>22.5</ele><time>2026-04-22T09:17:25Z</time></trkpt><trkpt lat="44.05127686066521" lon="8.154468805397478"><ele>23.0</ele><time>2026-04-22T09:17:26Z</time></trkpt><trkpt lat="44.051108521932235" lon="8.154108106995102"><ele>22.5</ele><time>2026-04-22T09:17:27Z</time></trkpt><trkpt lat="44.05093374116065" lon="8.15374874967989"><ele>22.0</ele><time>2026-04-22T09:17:28Z</time></trkpt><trkpt lat="44.05075459898515" lon="8.153394839884939"><ele>22.0</ele><time>2026-04-22T09:17:29Z</time></trkpt><trkpt lat="44.050569443384205" lon="8.153039656149756"><ele>22.0</ele><time>2026-04-22T09:17:30Z</time></trkpt><trkpt lat="44.05038373063499" lon="8.152689996324673"><ele>23.0</ele><time>2026-04-22T09:17:31Z</time></trkpt><trkpt lat="44.05019703422617" lon="8.152345265522987"><ele>24.0</ele><time>2026-04-22T09:17:32Z</time></trkpt><trkpt lat="44.050010390188326" lon="8.152007460385079"><ele>24.0</ele><time>2026-04-22T09:17:33Z</time></trkpt><trkpt lat="44.04981935643706" lon="8.151674772615134"><ele>24.0</ele><time>2026-04-22T09:17:34Z</time></trkpt><trkpt lat="44.04962573807157" lon="8.15134953863812"><ele>24.5</ele><time>2026-04-22T09:17:35Z</time></trkpt><trkpt lat="44.04943088705871" lon="8.151034152547165"><ele>25.0</ele><time>2026-04-22T09:17:36Z</time></trkpt><trkpt lat="44.04923753778578" lon="8.150730004135754"><ele>25.0</ele><time>2026-04-22T09:17:37Z</time></trkpt><trkpt lat="44.049049976834326" lon="8.150439526569"><ele>25.0</ele><time>2026-04-22T09:17:38Z</time></trkpt><trkpt lat="44.048864718025065" lon="8.150157145424524"><ele>25.0</ele><time>2026-04-22T09:17:39Z</time></trkpt><trkpt lat="44.04868218674107" lon="8.149881598243795"><ele>25.0</ele><time>2026-04-22T09:17:40Z</time></trkpt><trkpt lat="44.048500735852286" lon="8.149611298872738"><ele>25.5</ele><time>2026-04-22T09:17:41Z</time></trkpt><trkpt lat="44.04832061950135" lon="8.149347191862594"><ele>26.0</ele><time>2026-04-22T09:17:42Z</time></trkpt><trkpt lat="44.04813982161286" lon="8.149087395265992"><ele>26.0</ele><time>2026-04-22T09:17:43Z</time></trkpt><trkpt lat="44.047961509330044" lon="8.148830085146013"><ele>26.0</ele><time>2026-04-22T09:17:44Z</time></trkpt><trkpt lat="44.04778734428102" lon="8.148573770134393"><ele>26.0</ele><time>2026-04-22T09:17:45Z</time></trkpt><trkpt lat="44.04761185757197" lon="8.148314509639896"><ele>26.0</ele><time>2026-04-22T09:17:46Z</time></trkpt><trkpt lat="44.047435879112115" lon="8.148056933066645"><ele>31.0</ele><time>2026-04-22T09:17:47Z</time></trkpt><trkpt lat="44.0472607225862" lon="8.147800985076053"><ele>36.0</ele><time>2026-04-22T09:17:48Z</time></trkpt><trkpt lat="44.04708592259428" lon="8.147546066120501"><ele>34.0</ele><time>2026-04-22T09:17:48.999Z</time></trkpt><trkpt lat="44.04690961218601" lon="8.147289774774412"><ele>32.0</ele><time>2026-04-22T09:17:49.999Z</time></trkpt><trkpt lat="44.04673281823673" lon="8.147031093790206"><ele>37.5</ele><time>2026-04-22T09:17:50.999Z</time></trkpt><trkpt lat="44.0465553373945" lon="8.146772058715527"><ele>43.0</ele><time>2026-04-22T09:17:51.999Z</time></trkpt><trkpt lat="44.04637276710188" lon="8.146510876030806"><ele>43.0</ele><time>2026-04-22T09:17:52.999Z</time></trkpt><trkpt lat="44.04618824910328" lon="8.146245981861131"><ele>43.0</ele><time>2026-04-22T09:17:53.999Z</time></trkpt><trkpt lat="44.045999012367126" lon="8.145974999798703"><ele>46.0</ele><time>2026-04-22T09:17:54.999Z</time></trkpt><trkpt lat="44.04581090117082" lon="8.145703846197444"><ele>49.0</ele><time>2026-04-22T09:17:55.999Z</time></trkpt><trkpt lat="44.04562594547687" lon="8.145435429463026"><ele>49.0</ele><time>2026-04-22T09:17:56.999Z</time></trkpt><trkpt lat="44.04544788498543" lon="8.145175739835567"><ele>49.0</ele><time>2026-04-22T09:17:57.999Z</time></trkpt><trkpt lat="44.04527112483084" lon="8.144917980365749"><ele>49.5</ele><time>2026-04-22T09:17:58.999Z</time></trkpt><trkpt lat="44.045096166451444" lon="8.14466090728647"><ele>50.0</ele><time>2026-04-22T09:17:59.999Z</time></trkpt><trkpt lat="44.04492051539483" lon="8.144397716913852"><ele>50.0</ele><time>2026-04-22T09:18:00.999Z</time></trkpt><trkpt lat="44.04474770285328" lon="8.14412626063395"><ele>50.0</ele><time>2026-04-22T09:18:01.999Z</time></trkpt><trkpt lat="44.04457786290678" lon="8.143847006238655"><ele>45.5</ele><time>2026-04-22T09:18:02.999Z</time></trkpt><trkpt lat="44.04440878051374" lon="8.143559087390374"><ele>41.0</ele><time>2026-04-22T09:18:03.999Z</time></trkpt><trkpt lat="44.0443343471148" lon="8.143174067283363"><ele>38.0</ele><time>2026-04-22T09:18:04.999Z</time></trkpt><trkpt lat="44.04417603829605" lon="8.142878623467716"><ele>35.0</ele><time>2026-04-22T09:18:05.999Z</time></trkpt><trkpt lat="44.04402317664695" lon="8.142577338639537"><ele>41.5</ele><time>2026-04-22T09:18:06.999Z</time></trkpt><trkpt lat="44.043874228804064" lon="8.142271288266736"><ele>48.0</ele><time>2026-04-22T09:18:07.999Z</time></trkpt><trkpt lat="44.04373221835317" lon="8.141964705150036"><ele>48.0</ele><time>2026-04-22T09:18:08.999Z</time></trkpt><trkpt lat="44.04359209167354" lon="8.141650803544152"><ele>48.0</ele><time>2026-04-22T09:18:09.999Z</time></trkpt><trkpt lat="44.04345310222154" lon="8.141339448129301"><ele>44.0</ele><time>2026-04-22T09:18:10.999Z</time></trkpt><trkpt lat="44.043310436514886" lon="8.141038817150102"><ele>40.0</ele><time>2026-04-22T09:18:11.999Z</time></trkpt><trkpt lat="44.04305746245543" lon="8.140845924912893"><ele>51.5</ele><time>2026-04-22T09:18:12.999Z</time></trkpt><trkpt lat="44.04292231870945" lon="8.140556566892617"><ele>63.0</ele><time>2026-04-22T09:18:13.999Z</time></trkpt><trkpt lat="44.04279085910599" lon="8.140273640209484"><ele>63.0</ele><time>2026-04-22T09:18:14.999Z</time></trkpt><trkpt lat="44.04265797570371" lon="8.139990284781602"><ele>63.0</ele><time>2026-04-22T09:18:15.999Z</time></trkpt><trkpt lat="44.042524909555354" lon="8.139710587988068"><ele>75.0</ele><time>2026-04-22T09:18:16.999Z</time></trkpt><trkpt lat="44.0423948909952" lon="8.139433928471593"><ele>87.0</ele><time>2026-04-22T09:18:17.999Z</time></trkpt><trkpt lat="44.04226532690724" lon="8.13915591275335"><ele>77.5</ele><time>2026-04-22T09:18:18.999Z</time></trkpt><trkpt lat="44.04213655668851" lon="8.13888074498079"><ele>68.0</ele><time>2026-04-22T09:18:19.999Z</time></trkpt><trkpt lat="44.04200687244675" lon="8.13860562285327"><ele>68.0</ele><time>2026-04-22T09:18:20.999Z</time></trkpt><trkpt lat="44.04187399266526" lon="8.138324584288554"><ele>68.0</ele><time>2026-04-22T09:18:21.999Z</time></trkpt><trkpt lat="44.04173850436077" lon="8.138036075871817"><ele>77.5</ele><time>2026-04-22T09:18:22.999Z</time></trkpt><trkpt lat="44.041604237725885" lon="8.137747323961731"><ele>87.0</ele><time>2026-04-22T09:18:23.999Z</time></trkpt><trkpt lat="44.04146998487781" lon="8.137459688437447"><ele>81.5</ele><time>2026-04-22T09:18:24.999Z</time></trkpt><trkpt lat="44.04133678137718" lon="8.137175295684628"><ele>76.0</ele><time>2026-04-22T09:18:25.999Z</time></trkpt><trkpt lat="44.04120721987123" lon="8.136901280656584"><ele>76.0</ele><time>2026-04-22T09:18:26.999Z</time></trkpt><trkpt lat="44.04107960841751" lon="8.136640263343995"><ele>76.0</ele><time>2026-04-22T09:18:27.999Z</time></trkpt><trkpt lat="44.0409495975717" lon="8.13639074345602"><ele>76.0</ele><time>2026-04-22T09:18:28.999Z</time></trkpt><trkpt lat="44.04081629182457" lon="8.136148364031232"><ele>76.33333333333333</ele><time>2026-04-22T09:18:29.999Z</time></trkpt><trkpt lat="44.0406750469414" lon="8.13591576021206"><ele>76.66666666666667</ele><time>2026-04-22T09:18:30.999Z</time></trkpt><trkpt lat="44.04052962188347" lon="8.135692981125105"><ele>77.0</ele><time>2026-04-22T09:18:31.999Z</time></trkpt><trkpt lat="44.04037941854876" lon="8.135476971500706"><ele>77.0</ele><time>2026-04-22T09:18:32.999Z</time></trkpt><trkpt lat="44.04022331153009" lon="8.135270347188474"><ele>77.0</ele><time>2026-04-22T09:18:33.999Z</time></trkpt><trkpt lat="44.04006442974322" lon="8.135070893354522"><ele>77.0</ele><time>2026-04-22T09:18:34.999Z</time></trkpt><trkpt lat="44.039898612018" lon="8.13488003639458"><ele>76.0</ele><time>2026-04-22T09:18:35.999Z</time></trkpt><trkpt lat="44.03973103453315" lon="8.13470459333255"><ele>75.0</ele><time>2026-04-22T09:18:36.999Z</time></trkpt><trkpt lat="44.03956514751338" lon="8.134547641282031"><ele>74.0</ele><time>2026-04-22T09:18:37.999Z</time></trkpt><trkpt lat="44.03939305862084" lon="8.134394692644063"><ele>74.0</ele><time>2026-04-22T09:18:38.999Z</time></trkpt><trkpt lat="44.03921910321781" lon="8.134252267465309"><ele>74.0</ele><time>2026-04-22T09:18:39.999Z</time></trkpt><trkpt lat="44.03904373713494" lon="8.13412037315222"><ele>74.0</ele><time>2026-04-22T09:18:40.999Z</time></trkpt><trkpt lat="44.03886623986047" lon="8.133996740868474"><ele>73.0</ele><time>2026-04-22T09:18:41.999Z</time></trkpt><trkpt lat="44.03868507283807" lon="8.133882219450506"><ele>72.0</ele><time>2026-04-22T09:18:42.999Z</time></trkpt><trkpt lat="44.03850438718353" lon="8.133775307596897"><ele>71.0</ele><time>2026-04-22T09:18:43.999Z</time></trkpt><trkpt lat="44.03832197211254" lon="8.133684392155722"><ele>74.0</ele><time>2026-04-22T09:18:44.999Z</time></trkpt><trkpt lat="44.03814029250855" lon="8.133593576099967"><ele>77.0</ele><time>2026-04-22T09:18:45.999Z</time></trkpt><trkpt lat="44.03794794448167" lon="8.133531740544752"><ele>80.0</ele><time>2026-04-22T09:18:46.999Z</time></trkpt><trkpt lat="44.03776470315024" lon="8.133448746324763"><ele>80.0</ele><time>2026-04-22T09:18:47.999Z</time></trkpt><trkpt lat="44.037575886789384" lon="8.13335562987192"><ele>80.0</ele><time>2026-04-22T09:18:48.999Z</time></trkpt><trkpt lat="44.03738697749612" lon="8.133260578233491"><ele>80.0</ele><time>2026-04-22T09:18:49.999Z</time></trkpt><trkpt lat="44.037177296821476" lon="8.13330020813395"><ele>79.66666666666667</ele><time>2026-04-22T09:18:50.999Z</time></trkpt><trkpt lat="44.036974976773045" lon="8.133269339726269"><ele>79.33333333333333</ele><time>2026-04-22T09:18:51.999Z</time></trkpt><trkpt lat="44.036774659893105" lon="8.133259229999585"><ele>79.0</ele><time>2026-04-22T09:18:52.999Z</time></trkpt><trkpt lat="44.0365761353759" lon="8.133251501013568"><ele>78.33333333333333</ele><time>2026-04-22T09:18:53.999Z</time></trkpt><trkpt lat="44.03637526142443" lon="8.133258463993897"><ele>77.66666666666667</ele><time>2026-04-22T09:18:54.999Z</time></trkpt><trkpt lat="44.036176055632936" lon="8.133272350792167"><ele>77.0</ele><time>2026-04-22T09:18:55.999Z</time></trkpt><trkpt lat="44.035973578621146" lon="8.133288601971314"><ele>80.0</ele><time>2026-04-22T09:18:56.999Z</time></trkpt><trkpt lat="44.03577010179295" lon="8.133320305035674"><ele>83.0</ele><time>2026-04-22T09:18:57.999Z</time></trkpt><trkpt lat="44.03555172538196" lon="8.13336194227132"><ele>86.0</ele><time>2026-04-22T09:18:58.999Z</time></trkpt><trkpt lat="44.035328552265966" lon="8.13341107356688"><ele>86.0</ele><time>2026-04-22T09:18:59.999Z</time></trkpt><trkpt lat="44.035098548991236" lon="8.133466836765479"><ele>86.0</ele><time>2026-04-22T09:19:00.999Z</time></trkpt><trkpt lat="44.0348661116942" lon="8.133518966517107"><ele>89.5</ele><time>2026-04-22T09:19:01.999Z</time></trkpt><trkpt lat="44.03462520867624" lon="8.133566693473433"><ele>93.0</ele><time>2026-04-22T09:19:02.999Z</time></trkpt><trkpt lat="44.03438186215198" lon="8.133607288940418"><ele>93.0</ele><time>2026-04-22T09:19:03.999Z</time></trkpt><trkpt lat="44.03414499766193" lon="8.133658639546763"><ele>93.0</ele><time>2026-04-22T09:19:04.999Z</time></trkpt><trkpt lat="44.03389578428586" lon="8.133711488429837"><ele>88.0</ele><time>2026-04-22T09:19:06Z</time></trkpt><trkpt lat="44.03364759064848" lon="8.133746040693582"><ele>83.0</ele><time>2026-04-22T09:19:07Z</time></trkpt><trkpt lat="44.03339541775487" lon="8.133773756786667"><ele>79.5</ele><time>2026-04-22T09:19:08Z</time></trkpt><trkpt lat="44.03313705054382" lon="8.133791126721555"><ele>76.0</ele><time>2026-04-22T09:19:09Z</time></trkpt><trkpt lat="44.03287642293495" lon="8.133780803094709"><ele>76.0</ele><time>2026-04-22T09:19:10Z</time></trkpt><trkpt lat="44.03261527600865" lon="8.133753449777071"><ele>76.0</ele><time>2026-04-22T09:19:11Z</time></trkpt><trkpt lat="44.032362890002894" lon="8.133717161229567"><ele>84.0</ele><time>2026-04-22T09:19:12Z</time></trkpt><trkpt lat="44.03210810409054" lon="8.1336522075449"><ele>92.0</ele><time>2026-04-22T09:19:13Z</time></trkpt><trkpt lat="44.031857228898296" lon="8.13358616022854"><ele>100.0</ele><time>2026-04-22T09:19:14Z</time></trkpt><trkpt lat="44.031612565086014" lon="8.133505702931354"><ele>108.0</ele><time>2026-04-22T09:19:15Z</time></trkpt><trkpt lat="44.03136741396109" lon="8.1334165301346"><ele>108.0</ele><time>2026-04-22T09:19:16Z</time></trkpt><trkpt lat="44.031123291123095" lon="8.133318020725087"><ele>108.0</ele><time>2026-04-22T09:19:17Z</time></trkpt><trkpt lat="44.0308803015172" lon="8.133209848039483"><ele>107.5</ele><time>2026-04-22T09:19:18Z</time></trkpt><trkpt lat="44.03063252071248" lon="8.13309494274614"><ele>107.0</ele><time>2026-04-22T09:19:19Z</time></trkpt><trkpt lat="44.03038202835506" lon="8.132970103971534"><ele>107.0</ele><time>2026-04-22T09:19:20Z</time></trkpt><trkpt lat="44.03012987978856" lon="8.132839761978062"><ele>107.0</ele><time>2026-04-22T09:19:21Z</time></trkpt><trkpt lat="44.029876919362096" lon="8.132706647105016"><ele>110.5</ele><time>2026-04-22T09:19:22Z</time></trkpt><trkpt lat="44.02962220170432" lon="8.132571479685542"><ele>114.0</ele><time>2026-04-22T09:19:23Z</time></trkpt><trkpt lat="44.029362856536785" lon="8.132435317133949"><ele>112.0</ele><time>2026-04-22T09:19:24Z</time></trkpt><trkpt lat="44.029109496517684" lon="8.1323037238426"><ele>110.0</ele><time>2026-04-22T09:19:25Z</time></trkpt><trkpt lat="44.028857639897154" lon="8.132171615009103"><ele>110.0</ele><time>2026-04-22T09:19:26Z</time></trkpt><trkpt lat="44.02860413874951" lon="8.132029508906887"><ele>110.0</ele><time>2026-04-22T09:19:27Z</time></trkpt><trkpt lat="44.028355112908976" lon="8.131891283745663"><ele>117.5</ele><time>2026-04-22T09:19:28Z</time></trkpt><trkpt lat="44.02810287579833" lon="8.13175707642142"><ele>125.0</ele><time>2026-04-22T09:19:29Z</time></trkpt><trkpt lat="44.027843120880696" lon="8.131624587550522"><ele>118.5</ele><time>2026-04-22T09:19:30Z</time></trkpt><trkpt lat="44.02757340974211" lon="8.131495580949077"><ele>112.0</ele><time>2026-04-22T09:19:30.999Z</time></trkpt><trkpt lat="44.027306109028906" lon="8.131380251317628"><ele>112.0</ele><time>2026-04-22T09:19:31.999Z</time></trkpt><trkpt lat="44.02705972365449" lon="8.131281450947597"><ele>112.0</ele><time>2026-04-22T09:19:32.999Z</time></trkpt><trkpt lat="44.02681629021033" lon="8.131189692518516"><ele>113.5</ele><time>2026-04-22T09:19:33.999Z</time></trkpt><trkpt lat="44.026577646803354" lon="8.131112999296388"><ele>115.0</ele><time>2026-04-22T09:19:34.999Z</time></trkpt><trkpt lat="44.02634268604019" lon="8.131050434192439"><ele>115.0</ele><time>2026-04-22T09:19:35.999Z</time></trkpt><trkpt lat="44.02610830364168" lon="8.130992947875772"><ele>115.0</ele><time>2026-04-22T09:19:36.999Z</time></trkpt><trkpt lat="44.02587152776693" lon="8.130944703722394"><ele>123.5</ele><time>2026-04-22T09:19:37.999Z</time></trkpt><trkpt lat="44.02563264715865" lon="8.130902941713305"><ele>132.0</ele><time>2026-04-22T09:19:38.999Z</time></trkpt><trkpt lat="44.02539471545171" lon="8.130872234153895"><ele>132.0</ele><time>2026-04-22T09:19:39.999Z</time></trkpt><trkpt lat="44.025158520187325" lon="8.130854477215426"><ele>132.0</ele><time>2026-04-22T09:19:40.999Z</time></trkpt><trkpt lat="44.024926470093206" lon="8.130845225146551"><ele>132.0</ele><time>2026-04-22T09:19:41.999Z</time></trkpt><trkpt lat="44.024690116660715" lon="8.130846787583236"><ele>132.0</ele><time>2026-04-22T09:19:42.999Z</time></trkpt><trkpt lat="44.02445085238916" lon="8.130861653164368"><ele>132.0</ele><time>2026-04-22T09:19:43.999Z</time></trkpt><trkpt lat="44.02420512797275" lon="8.130883427556002"><ele>132.0</ele><time>2026-04-22T09:19:44.999Z</time></trkpt><trkpt lat="44.02395429970716" lon="8.130907857179334"><ele>133.0</ele><time>2026-04-22T09:19:45.999Z</time></trkpt><trkpt lat="44.02369746113687" lon="8.130947559545607"><ele>134.0</ele><time>2026-04-22T09:19:46.999Z</time></trkpt><trkpt lat="44.02343498476938" lon="8.131004159495816"><ele>133.0</ele><time>2026-04-22T09:19:47.999Z</time></trkpt><trkpt lat="44.02316768371263" lon="8.131059731586932"><ele>132.0</ele><time>2026-04-22T09:19:48.999Z</time></trkpt><trkpt lat="44.02289156148826" lon="8.131118413076342"><ele>132.0</ele><time>2026-04-22T09:19:49.999Z</time></trkpt><trkpt lat="44.022612333619726" lon="8.131180041811103"><ele>132.0</ele><time>2026-04-22T09:19:50.999Z</time></trkpt><trkpt lat="44.02233901164781" lon="8.131238387640094"><ele>137.5</ele><time>2026-04-22T09:19:51.999Z</time></trkpt><trkpt lat="44.02207316711963" lon="8.131298727562173"><ele>143.0</ele><time>2026-04-22T09:19:52.999Z</time></trkpt><trkpt lat="44.021822535808504" lon="8.131348581931226"><ele>141.5</ele><time>2026-04-22T09:19:53.999Z</time></trkpt><trkpt lat="44.0215898649511" lon="8.131390791128052"><ele>140.0</ele><time>2026-04-22T09:19:54.999Z</time></trkpt><trkpt lat="44.02135982027383" lon="8.13143488163645"><ele>140.0</ele><time>2026-04-22T09:19:55.999Z</time></trkpt><trkpt lat="44.02113732665561" lon="8.131476012112238"><ele>140.0</ele><time>2026-04-22T09:19:56.999Z</time></trkpt><trkpt lat="44.02091746399784" lon="8.131510531293904"><ele>140.0</ele><time>2026-04-22T09:19:57.999Z</time></trkpt><trkpt lat="44.02069417584017" lon="8.131543471024674"><ele>144.5</ele><time>2026-04-22T09:19:58.999Z</time></trkpt><trkpt lat="44.02046470657931" lon="8.131574546146505"><ele>149.0</ele><time>2026-04-22T09:19:59.999Z</time></trkpt><trkpt lat="44.02023192723405" lon="8.131603261198489"><ele>149.0</ele><time>2026-04-22T09:20:00.999Z</time></trkpt><trkpt lat="44.01999478584273" lon="8.131626543236278"><ele>149.0</ele><time>2026-04-22T09:20:01.999Z</time></trkpt><trkpt lat="44.01975352931569" lon="8.131647687600756"><ele>146.5</ele><time>2026-04-22T09:20:02.999Z</time></trkpt><trkpt lat="44.01950993618313" lon="8.131666832157025"><ele>144.0</ele><time>2026-04-22T09:20:03.999Z</time></trkpt><trkpt lat="44.01926545333764" lon="8.1316810346551"><ele>157.5</ele><time>2026-04-22T09:20:04.999Z</time></trkpt><trkpt lat="44.01902372819935" lon="8.13169397995655"><ele>171.0</ele><time>2026-04-22T09:20:05.999Z</time></trkpt><trkpt lat="44.01878498686468" lon="8.131704563327704"><ele>171.0</ele><time>2026-04-22T09:20:06.999Z</time></trkpt><trkpt lat="44.018541012978226" lon="8.131711480552058"><ele>171.0</ele><time>2026-04-22T09:20:07.999Z</time></trkpt><trkpt lat="44.018294147729556" lon="8.13171405530335"><ele>192.5</ele><time>2026-04-22T09:20:08.999Z</time></trkpt><trkpt lat="44.01803516368724" lon="8.131714215226062"><ele>214.0</ele><time>2026-04-22T09:20:09.999Z</time></trkpt><trkpt lat="44.01778521675598" lon="8.131701340043655"><ele>214.0</ele><time>2026-04-22T09:20:10.999Z</time></trkpt><trkpt lat="44.01753228725834" lon="8.131685761421345"><ele>214.0</ele><time>2026-04-22T09:20:11.999Z</time></trkpt><trkpt lat="44.017278332654826" lon="8.13166651154493"><ele>231.5</ele><time>2026-04-22T09:20:12.999Z</time></trkpt><trkpt lat="44.01702626551908" lon="8.131649347975886"><ele>249.0</ele><time>2026-04-22T09:20:13.999Z</time></trkpt><trkpt lat="44.01677526077804" lon="8.131631727765821"><ele>254.0</ele><time>2026-04-22T09:20:14.999Z</time></trkpt><trkpt lat="44.01650939027579" lon="8.131612686009273"><ele>259.0</ele><time>2026-04-22T09:20:16.058Z</time></trkpt><trkpt lat="44.016260367699985" lon="8.13160021405802"><ele>259.0</ele><time>2026-04-22T09:20:17.059Z</time></trkpt><trkpt lat="44.01600653708477" lon="8.131586982525187"><ele>259.0</ele><time>2026-04-22T09:20:18.056Z</time></trkpt><trkpt lat="44.01574839407011" lon="8.131565378759664"><ele>259.0</ele><time>2026-04-22T09:20:19.055Z</time></trkpt><trkpt lat="44.0165213" lon="8.1316224"><ele>175.0</ele><time>2026-04-22T09:20:22.733Z</time></trkpt><trkpt lat="44.00327474761566" lon="8.131037418888035"><ele>175.0</ele><time>2026-04-22T09:21:09.998Z</time></trkpt><trkpt lat="44.00306271256871" lon="8.131033857122036"><ele>175.0</ele><time>2026-04-22T09:21:10.998Z</time></trkpt><trkpt lat="44.002835585806196" lon="8.131037363930528"><ele>175.0</ele><time>2026-04-22T09:21:11.998Z</time></trkpt><trkpt lat="44.002622247453566" lon="8.131058438269235"><ele>171.66666666666669</ele><time>2026-04-22T09:21:12.998Z</time></trkpt><trkpt lat="44.00240990150713" lon="8.13108503425488"><ele>168.33333333333334</ele><time>2026-04-22T09:21:13.998Z</time></trkpt><trkpt lat="44.00219556586793" lon="8.131117307989275"><ele>165.0</ele><time>2026-04-22T09:21:14.998Z</time></trkpt><trkpt lat="44.00198430710288" lon="8.131151013904567"><ele>165.0</ele><time>2026-04-22T09:21:16Z</time></trkpt><trkpt lat="44.00177634454752" lon="8.131191941870924"><ele>165.0</ele><time>2026-04-22T09:21:17Z</time></trkpt><trkpt lat="44.00156998165706" lon="8.131233428599927"><ele>165.0</ele><time>2026-04-22T09:21:18Z</time></trkpt><trkpt lat="44.00136375400549" lon="8.131280111465726"><ele>164.33333333333334</ele><time>2026-04-22T09:21:19Z</time></trkpt><trkpt lat="44.00115636898622" lon="8.13133245365729"><ele>163.66666666666669</ele><time>2026-04-22T09:21:20Z</time></trkpt><trkpt lat="44.0009551823427" lon="8.131405002119235"><ele>163.0</ele><time>2026-04-22T09:21:21Z</time></trkpt><trkpt lat="44.00075923499785" lon="8.131469319725568"><ele>164.33333333333334</ele><time>2026-04-22T09:21:22Z</time></trkpt><trkpt lat="44.000560499757704" lon="8.131556600507974"><ele>165.66666666666666</ele><time>2026-04-22T09:21:23Z</time></trkpt><trkpt lat="44.000386947369506" lon="8.131654537677804"><ele>167.0</ele><time>2026-04-22T09:21:24Z</time></trkpt><trkpt lat="44.000215678477396" lon="8.131761705725776"><ele>177.33333333333331</ele><time>2026-04-22T09:21:25Z</time></trkpt><trkpt lat="44.00005545693729" lon="8.131885849825684"><ele>187.66666666666666</ele><time>2026-04-22T09:21:26Z</time></trkpt><trkpt lat="43.99988931965011" lon="8.13204064921113"><ele>198.0</ele><time>2026-04-22T09:21:27Z</time></trkpt><trkpt lat="43.99976237002044" lon="8.132178630480974"><ele>198.0</ele><time>2026-04-22T09:21:28Z</time></trkpt><trkpt lat="43.99963025357237" lon="8.132329341876641"><ele>198.0</ele><time>2026-04-22T09:21:29Z</time></trkpt><trkpt lat="43.9994954570696" lon="8.132494798549201"><ele>198.0</ele><time>2026-04-22T09:21:30.058Z</time></trkpt><trkpt lat="43.99698186813595" lon="8.134223434578614"><ele>189.66666666666666</ele><time>2026-04-22T09:21:42Z</time></trkpt><trkpt lat="43.99680826771693" lon="8.134400900389732"><ele>181.33333333333331</ele><time>2026-04-22T09:21:43Z</time></trkpt><trkpt lat="43.996653896899566" lon="8.134583279425515"><ele>173.0</ele><time>2026-04-22T09:21:44Z</time></trkpt><trkpt lat="43.996476709961954" lon="8.134769430528642"><ele>170.0</ele><time>2026-04-22T09:21:45Z</time></trkpt><trkpt lat="43.99629799620601" lon="8.134946988629988"><ele>167.0</ele><time>2026-04-22T09:21:46Z</time></trkpt><trkpt lat="43.9961148918752" lon="8.135112604016392"><ele>164.0</ele><time>2026-04-22T09:21:47Z</time></trkpt><trkpt lat="43.99593114507007" lon="8.13527264731054"><ele>156.33333333333331</ele><time>2026-04-22T09:21:48Z</time></trkpt><trkpt lat="43.995749464384595" lon="8.135427752717414"><ele>148.66666666666666</ele><time>2026-04-22T09:21:49Z</time></trkpt><trkpt lat="43.99555764406538" lon="8.135578291438302"><ele>141.0</ele><time>2026-04-22T09:21:50Z</time></trkpt><trkpt lat="43.99536447373438" lon="8.13571787903463"><ele>142.0</ele><time>2026-04-22T09:21:51Z</time></trkpt><trkpt lat="43.99516830731681" lon="8.135854316189405"><ele>143.0</ele><time>2026-04-22T09:21:52Z</time></trkpt><trkpt lat="43.99495772812363" lon="8.13598306040837"><ele>144.0</ele><time>2026-04-22T09:21:53Z</time></trkpt><trkpt lat="43.994751447365715" lon="8.136111753572433"><ele>144.0</ele><time>2026-04-22T09:21:54Z</time></trkpt><trkpt lat="43.994542487079976" lon="8.136227243483985"><ele>144.0</ele><time>2026-04-22T09:21:55Z</time></trkpt><trkpt lat="43.99432455705094" lon="8.13633742599933"><ele>129.5</ele><time>2026-04-22T09:21:56Z</time></trkpt><trkpt lat="43.99410266072624" lon="8.136439565691845"><ele>115.0</ele><time>2026-04-22T09:21:57Z</time></trkpt><trkpt lat="43.99387909824944" lon="8.136531776211564"><ele>121.5</ele><time>2026-04-22T09:21:58Z</time></trkpt><trkpt lat="43.99365547086278" lon="8.136616696987668"><ele>128.0</ele><time>2026-04-22T09:21:59Z</time></trkpt><trkpt lat="43.99343245971275" lon="8.136693843125718"><ele>111.5</ele><time>2026-04-22T09:22:00Z</time></trkpt><trkpt lat="43.99320780302257" lon="8.136762396228562"><ele>95.0</ele><time>2026-04-22T09:22:01Z</time></trkpt><trkpt lat="43.99298307087436" lon="8.136821588587981"><ele>95.0</ele><time>2026-04-22T09:22:02Z</time></trkpt><trkpt lat="43.992759280156946" lon="8.136869965819558"><ele>95.0</ele><time>2026-04-22T09:22:03Z</time></trkpt><trkpt lat="43.99253255377796" lon="8.136914065378107"><ele>90.0</ele><time>2026-04-22T09:22:04Z</time></trkpt><trkpt lat="43.99230690252896" lon="8.136950844078502"><ele>85.0</ele><time>2026-04-22T09:22:05Z</time></trkpt><trkpt lat="43.99208057020907" lon="8.136978142439354"><ele>85.0</ele><time>2026-04-22T09:22:05.999Z</time></trkpt><trkpt lat="43.99185692114591" lon="8.136993668506138"><ele>85.0</ele><time>2026-04-22T09:22:06.999Z</time></trkpt><trkpt lat="43.99162941138678" lon="8.13700131804382"><ele>94.5</ele><time>2026-04-22T09:22:07.999Z</time></trkpt><trkpt lat="43.991401307971316" lon="8.136999966237015"><ele>104.0</ele><time>2026-04-22T09:22:08.999Z</time></trkpt><trkpt lat="43.99117165225008" lon="8.136991958100626"><ele>104.0</ele><time>2026-04-22T09:22:10Z</time></trkpt><trkpt lat="43.990937841361905" lon="8.136980028939435"><ele>104.0</ele><time>2026-04-22T09:22:10.999Z</time></trkpt><trkpt lat="43.99070300196916" lon="8.136958629591174"><ele>107.5</ele><time>2026-04-22T09:22:11.999Z</time></trkpt><trkpt lat="43.990468686847464" lon="8.136934578658323"><ele>111.0</ele><time>2026-04-22T09:22:12.999Z</time></trkpt><trkpt lat="43.99023518410615" lon="8.136905980758467"><ele>116.5</ele><time>2026-04-22T09:22:13.999Z</time></trkpt><trkpt lat="43.990000937976156" lon="8.136878009724619"><ele>122.0</ele><time>2026-04-22T09:22:14.999Z</time></trkpt><trkpt lat="43.98976884996443" lon="8.13685124388543"><ele>122.0</ele><time>2026-04-22T09:22:15.999Z</time></trkpt><trkpt lat="43.989537784166934" lon="8.136823615693002"><ele>122.0</ele><time>2026-04-22T09:22:16.999Z</time></trkpt><trkpt lat="43.989306680364336" lon="8.136797086645078"><ele>124.0</ele><time>2026-04-22T09:22:17.999Z</time></trkpt><trkpt lat="43.989081741161414" lon="8.136769549300219"><ele>126.0</ele><time>2026-04-22T09:22:18.999Z</time></trkpt><trkpt lat="43.98885957344859" lon="8.136742146084869"><ele>128.0</ele><time>2026-04-22T09:22:19.999Z</time></trkpt><trkpt lat="43.9886407862251" lon="8.13671339739675"><ele>128.0</ele><time>2026-04-22T09:22:20.999Z</time></trkpt><trkpt lat="43.98842220231795" lon="8.136684243875859"><ele>128.0</ele><time>2026-04-22T09:22:21.999Z</time></trkpt><trkpt lat="43.98820697627032" lon="8.136657284079973"><ele>128.0</ele><time>2026-04-22T09:22:22.999Z</time></trkpt><trkpt lat="43.98799107098689" lon="8.136628639307768"><ele>123.0</ele><time>2026-04-22T09:22:23.999Z</time></trkpt><trkpt lat="43.98777321285495" lon="8.13659950971552"><ele>118.0</ele><time>2026-04-22T09:22:24.999Z</time></trkpt><trkpt lat="43.98754915577873" lon="8.136569294842644"><ele>113.0</ele><time>2026-04-22T09:22:25.999Z</time></trkpt><trkpt lat="43.98732685322178" lon="8.13653813743624"><ele>103.0</ele><time>2026-04-22T09:22:26.999Z</time></trkpt><trkpt lat="43.98711041162191" lon="8.136508495906376"><ele>93.0</ele><time>2026-04-22T09:22:27.999Z</time></trkpt><trkpt lat="43.98689410805418" lon="8.136483725591267"><ele>83.0</ele><time>2026-04-22T09:22:28.999Z</time></trkpt><trkpt lat="43.98668267468592" lon="8.136459537683724"><ele>75.0</ele><time>2026-04-22T09:22:29.999Z</time></trkpt><trkpt lat="43.98648219044187" lon="8.136433125872063"><ele>67.0</ele><time>2026-04-22T09:22:30.999Z</time></trkpt><trkpt lat="43.98628351108074" lon="8.136409872156005"><ele>59.0</ele><time>2026-04-22T09:22:31.999Z</time></trkpt><trkpt lat="43.986083528970504" lon="8.136384503771264"><ele>59.0</ele><time>2026-04-22T09:22:32.999Z</time></trkpt><trkpt lat="43.98587911428772" lon="8.136359726495927"><ele>59.0</ele><time>2026-04-22T09:22:33.999Z</time></trkpt><trkpt lat="43.985676570095904" lon="8.136334781630037"><ele>59.0</ele><time>2026-04-22T09:22:34.999Z</time></trkpt><trkpt lat="43.98547609785929" lon="8.136313020554004"><ele>60.66666666666667</ele><time>2026-04-22T09:22:35.999Z</time></trkpt><trkpt lat="43.98527534967718" lon="8.136297119962679"><ele>62.33333333333333</ele><time>2026-04-22T09:22:36.999Z</time></trkpt><trkpt lat="43.98507345234893" lon="8.136286862215984"><ele>64.0</ele><time>2026-04-22T09:22:37.999Z</time></trkpt><trkpt lat="43.98487004723375" lon="8.136282747577866"><ele>69.66666666666666</ele><time>2026-04-22T09:22:38.999Z</time></trkpt><trkpt lat="43.984669498441704" lon="8.136288567638813"><ele>75.33333333333333</ele><time>2026-04-22T09:22:39.999Z</time></trkpt><trkpt lat="43.9844701923955" lon="8.136308923742668"><ele>81.0</ele><time>2026-04-22T09:22:40.999Z</time></trkpt><trkpt lat="43.984268592311686" lon="8.136333583059551"><ele>83.33333333333333</ele><time>2026-04-22T09:22:41.999Z</time></trkpt><trkpt lat="43.984074591371034" lon="8.136363385403124"><ele>85.66666666666666</ele><time>2026-04-22T09:22:42.999Z</time></trkpt><trkpt lat="43.98387947623243" lon="8.136402349251444"><ele>88.0</ele><time>2026-04-22T09:22:43.999Z</time></trkpt><trkpt lat="43.98368198309572" lon="8.136454905367335"><ele>88.0</ele><time>2026-04-22T09:22:44.999Z</time></trkpt><trkpt lat="43.983489495798686" lon="8.136515586297056"><ele>88.0</ele><time>2026-04-22T09:22:45.999Z</time></trkpt><trkpt lat="43.98329926865008" lon="8.136578515437717"><ele>88.0</ele><time>2026-04-22T09:22:46.999Z</time></trkpt><trkpt lat="43.98301556934847" lon="8.136745472606162"><ele>85.0</ele><time>2026-04-22T09:22:47.999Z</time></trkpt><trkpt lat="43.98280548607917" lon="8.136850880585804"><ele>82.0</ele><time>2026-04-22T09:22:48.999Z</time></trkpt><trkpt lat="43.982602269969995" lon="8.13697533574968"><ele>79.0</ele><time>2026-04-22T09:22:49.999Z</time></trkpt><trkpt lat="43.98239471118429" lon="8.137114893866908"><ele>79.0</ele><time>2026-04-22T09:22:50.999Z</time></trkpt><trkpt lat="43.98219202719894" lon="8.137265426052338"><ele>79.0</ele><time>2026-04-22T09:22:51.999Z</time></trkpt><trkpt lat="43.98199505291855" lon="8.137431520596664"><ele>80.0</ele><time>2026-04-22T09:22:52.999Z</time></trkpt><trkpt lat="43.98179783759103" lon="8.137600157851361"><ele>81.0</ele><time>2026-04-22T09:22:53.999Z</time></trkpt><trkpt lat="43.98159859635991" lon="8.137769099700847"><ele>78.5</ele><time>2026-04-22T09:22:54.999Z</time></trkpt><trkpt lat="43.981403670875736" lon="8.137934058460623"><ele>76.0</ele><time>2026-04-22T09:22:55.999Z</time></trkpt><trkpt lat="43.981213126229605" lon="8.138095947997224"><ele>75.66666666666666</ele><time>2026-04-22T09:22:56.999Z</time></trkpt><trkpt lat="43.981024630964335" lon="8.138253383759173"><ele>75.33333333333333</ele><time>2026-04-22T09:22:57.999Z</time></trkpt><trkpt lat="43.98083082704731" lon="8.138413249158148"><ele>75.0</ele><time>2026-04-22T09:22:58.999Z</time></trkpt><trkpt lat="43.98063068396807" lon="8.138565874701516"><ele>75.0</ele><time>2026-04-22T09:22:59.999Z</time></trkpt><trkpt lat="43.980428303285315" lon="8.138714959011157"><ele>75.0</ele><time>2026-04-22T09:23:00.999Z</time></trkpt><trkpt lat="43.98021940812498" lon="8.138859906588515"><ele>78.0</ele><time>2026-04-22T09:23:01.999Z</time></trkpt><trkpt lat="43.980006434753186" lon="8.138999728380622"><ele>81.0</ele><time>2026-04-22T09:23:02.999Z</time></trkpt><trkpt lat="43.97979085485236" lon="8.139132082416523"><ele>81.0</ele><time>2026-04-22T09:23:03.999Z</time></trkpt><trkpt lat="43.979578641545736" lon="8.139253074039566"><ele>81.0</ele><time>2026-04-22T09:23:04.999Z</time></trkpt><trkpt lat="43.97936412810409" lon="8.139375099213694"><ele>80.5</ele><time>2026-04-22T09:23:05.999Z</time></trkpt><trkpt lat="43.9791463726552" lon="8.139491454809061"><ele>80.0</ele><time>2026-04-22T09:23:06.999Z</time></trkpt><trkpt lat="43.97892453451654" lon="8.139599722890575"><ele>80.0</ele><time>2026-04-22T09:23:07.999Z</time></trkpt><trkpt lat="43.97869981161375" lon="8.139706074268371"><ele>80.0</ele><time>2026-04-22T09:23:08.999Z</time></trkpt><trkpt lat="43.97844107892838" lon="8.139810473223191"><ele>94.5</ele><time>2026-04-22T09:23:09.999Z</time></trkpt><trkpt lat="43.97820036166559" lon="8.139916729747734"><ele>109.0</ele><time>2026-04-22T09:23:10.999Z</time></trkpt><trkpt lat="43.977953993603265" lon="8.140027848665762"><ele>109.0</ele><time>2026-04-22T09:23:11.999Z</time></trkpt><trkpt lat="43.977697248741244" lon="8.140135811389506"><ele>109.0</ele><time>2026-04-22T09:23:12.999Z</time></trkpt><trkpt lat="43.97744300758369" lon="8.14024154706105"><ele>104.33333333333334</ele><time>2026-04-22T09:23:13.999Z</time></trkpt><trkpt lat="43.97718888324187" lon="8.140346467640454"><ele>99.66666666666667</ele><time>2026-04-22T09:23:14.999Z</time></trkpt><trkpt lat="43.977013616318125" lon="8.140380340670392"><ele>95.0</ele><time>2026-04-22T09:23:15.999Z</time></trkpt><trkpt lat="43.976751340382826" lon="8.14047463588461"><ele>79.0</ele><time>2026-04-22T09:23:16.999Z</time></trkpt><trkpt lat="43.97651627387325" lon="8.140559871754256"><ele>63.0</ele><time>2026-04-22T09:23:17.999Z</time></trkpt><trkpt lat="43.976281527614454" lon="8.140650828886496"><ele>62.5</ele><time>2026-04-22T09:23:18.999Z</time></trkpt><trkpt lat="43.97604754948035" lon="8.140737201497057"><ele>62.0</ele><time>2026-04-22T09:23:19.999Z</time></trkpt><trkpt lat="43.97581004696021" lon="8.140827285054119"><ele>62.0</ele><time>2026-04-22T09:23:21Z</time></trkpt><trkpt lat="43.975579399176986" lon="8.140917439763582"><ele>62.0</ele><time>2026-04-22T09:23:22Z</time></trkpt><trkpt lat="43.97535278237003" lon="8.14101346965858"><ele>62.0</ele><time>2026-04-22T09:23:23Z</time></trkpt><trkpt lat="43.97513039225107" lon="8.141106756663541"><ele>62.0</ele><time>2026-04-22T09:23:24Z</time></trkpt><trkpt lat="43.97490997905754" lon="8.141208382234739"><ele>61.0</ele><time>2026-04-22T09:23:25Z</time></trkpt><trkpt lat="43.974689962283165" lon="8.141320332692002"><ele>60.0</ele><time>2026-04-22T09:23:25.999Z</time></trkpt><trkpt lat="43.97446114078259" lon="8.1414376617176"><ele>62.0</ele><time>2026-04-22T09:23:26.999Z</time></trkpt><trkpt lat="43.97422462470143" lon="8.141563232243122"><ele>64.0</ele><time>2026-04-22T09:23:27.999Z</time></trkpt><trkpt lat="43.97399798677724" lon="8.141702312516125"><ele>64.0</ele><time>2026-04-22T09:23:28.999Z</time></trkpt><trkpt lat="43.97376271140904" lon="8.141843883074014"><ele>64.0</ele><time>2026-04-22T09:23:29.999Z</time></trkpt><trkpt lat="43.97353214946294" lon="8.14199338517361"><ele>56.5</ele><time>2026-04-22T09:23:30.999Z</time></trkpt><trkpt lat="43.973303998188" lon="8.142147207848291"><ele>49.0</ele><time>2026-04-22T09:23:31.999Z</time></trkpt><trkpt lat="43.97307877944295" lon="8.14230450943698"><ele>57.0</ele><time>2026-04-22T09:23:33Z</time></trkpt><trkpt lat="43.97285484846791" lon="8.14246251231817"><ele>65.0</ele><time>2026-04-22T09:23:34Z</time></trkpt><trkpt lat="43.97263550899297" lon="8.14261764729453"><ele>56.5</ele><time>2026-04-22T09:23:35Z</time></trkpt><trkpt lat="43.97241526993235" lon="8.14277210309994"><ele>48.0</ele><time>2026-04-22T09:23:36Z</time></trkpt><trkpt lat="43.9721991292741" lon="8.142922956269532"><ele>48.0</ele><time>2026-04-22T09:23:37Z</time></trkpt><trkpt lat="43.971982474229634" lon="8.143069193151334"><ele>48.0</ele><time>2026-04-22T09:23:38Z</time></trkpt><trkpt lat="43.971765048689235" lon="8.14320603223555"><ele>48.5</ele><time>2026-04-22T09:23:39Z</time></trkpt><trkpt lat="43.9715447054207" lon="8.143336925947118"><ele>49.0</ele><time>2026-04-22T09:23:40Z</time></trkpt><trkpt lat="43.97132758536364" lon="8.143452509108354"><ele>49.0</ele><time>2026-04-22T09:23:41Z</time></trkpt><trkpt lat="43.97110884873673" lon="8.14355410408469"><ele>49.0</ele><time>2026-04-22T09:23:42Z</time></trkpt><trkpt lat="43.97088789405708" lon="8.143645202221416"><ele>45.5</ele><time>2026-04-22T09:23:43Z</time></trkpt><trkpt lat="43.970668524509264" lon="8.143721272957675"><ele>42.0</ele><time>2026-04-22T09:23:44Z</time></trkpt><trkpt lat="43.970440790176056" lon="8.143789353689053"><ele>42.0</ele><time>2026-04-22T09:23:45Z</time></trkpt><trkpt lat="43.970212162020694" lon="8.143850828142678"><ele>42.0</ele><time>2026-04-22T09:23:46Z</time></trkpt><trkpt lat="43.969977267329845" lon="8.143900076355296"><ele>41.0</ele><time>2026-04-22T09:23:47Z</time></trkpt><trkpt lat="43.969743390944295" lon="8.143933977083979"><ele>40.0</ele><time>2026-04-22T09:23:48Z</time></trkpt><trkpt lat="43.969508388503854" lon="8.143954083312677"><ele>40.0</ele><time>2026-04-22T09:23:49Z</time></trkpt><trkpt lat="43.96927183457258" lon="8.143965524563363"><ele>40.0</ele><time>2026-04-22T09:23:50Z</time></trkpt><trkpt lat="43.96902902182566" lon="8.143961059228696"><ele>40.5</ele><time>2026-04-22T09:23:51Z</time></trkpt><trkpt lat="43.96878220516791" lon="8.143947814748195"><ele>41.0</ele><time>2026-04-22T09:23:52Z</time></trkpt><trkpt lat="43.96853351388399" lon="8.143921532324041"><ele>37.5</ele><time>2026-04-22T09:23:53Z</time></trkpt><trkpt lat="43.968290816153456" lon="8.143877359662419"><ele>34.0</ele><time>2026-04-22T09:23:54Z</time></trkpt><trkpt lat="43.968048617836246" lon="8.143819350561158"><ele>34.0</ele><time>2026-04-22T09:23:55Z</time></trkpt><trkpt lat="43.967813396172" lon="8.14375247294482"><ele>34.0</ele><time>2026-04-22T09:23:56Z</time></trkpt><trkpt lat="43.967586232125015" lon="8.143675411690785"><ele>31.0</ele><time>2026-04-22T09:23:57Z</time></trkpt><trkpt lat="43.96735962376743" lon="8.1435867569873"><ele>28.0</ele><time>2026-04-22T09:23:58Z</time></trkpt><trkpt lat="43.96713774807571" lon="8.143487719755006"><ele>28.0</ele><time>2026-04-22T09:23:59Z</time></trkpt><trkpt lat="43.966926827969345" lon="8.14337714448678"><ele>28.0</ele><time>2026-04-22T09:24:00Z</time></trkpt><trkpt lat="43.966714214953726" lon="8.14325717988216"><ele>25.666666666666668</ele><time>2026-04-22T09:24:01Z</time></trkpt><trkpt lat="43.96651441800989" lon="8.143130530061086"><ele>23.333333333333336</ele><time>2026-04-22T09:24:02Z</time></trkpt><trkpt lat="43.96631821142013" lon="8.14299545328902"><ele>21.0</ele><time>2026-04-22T09:24:03Z</time></trkpt><trkpt lat="43.96612973259452" lon="8.142849698274896"><ele>21.0</ele><time>2026-04-22T09:24:04Z</time></trkpt><trkpt lat="43.96594356309599" lon="8.14269969163449"><ele>21.0</ele><time>2026-04-22T09:24:05Z</time></trkpt><trkpt lat="43.965757127784435" lon="8.142539803043"><ele>21.0</ele><time>2026-04-22T09:24:06Z</time></trkpt><trkpt lat="43.96558104427669" lon="8.142373993314076"><ele>19.0</ele><time>2026-04-22T09:24:07Z</time></trkpt><trkpt lat="43.965410226793615" lon="8.142201592268643"><ele>17.0</ele><time>2026-04-22T09:24:08Z</time></trkpt><trkpt lat="43.96524519085818" lon="8.142019048279785"><ele>15.0</ele><time>2026-04-22T09:24:09Z</time></trkpt><trkpt lat="43.965078120962055" lon="8.141826014984076"><ele>14.666666666666668</ele><time>2026-04-22T09:24:10Z</time></trkpt><trkpt lat="43.964921571196925" lon="8.141624257076444"><ele>14.333333333333334</ele><time>2026-04-22T09:24:11Z</time></trkpt><trkpt lat="43.96476613301909" lon="8.141418466318623"><ele>14.0</ele><time>2026-04-22T09:24:12Z</time></trkpt><trkpt lat="43.96461440272674" lon="8.141202498232"><ele>13.333333333333334</ele><time>2026-04-22T09:24:13Z</time></trkpt><trkpt lat="43.964465878867436" lon="8.140974777205065"><ele>12.666666666666668</ele><time>2026-04-22T09:24:14Z</time></trkpt><trkpt lat="43.964322396648626" lon="8.14075062057282"><ele>12.0</ele><time>2026-04-22T09:24:15Z</time></trkpt><trkpt lat="43.96418193685487" lon="8.140529772451364"><ele>12.0</ele><time>2026-04-22T09:24:16Z</time></trkpt><trkpt lat="43.96403935358185" lon="8.140310988170112"><ele>12.0</ele><time>2026-04-22T09:24:17Z</time></trkpt><trkpt lat="43.96390199121126" lon="8.140093602642652"><ele>12.0</ele><time>2026-04-22T09:24:18Z</time></trkpt><trkpt lat="43.96376292532772" lon="8.139876657779757"><ele>12.0</ele><time>2026-04-22T09:24:19Z</time></trkpt><trkpt lat="43.96362416202587" lon="8.139657575098715"><ele>12.0</ele><time>2026-04-22T09:24:20Z</time></trkpt><trkpt lat="43.9634801939763" lon="8.13943295594659"><ele>12.0</ele><time>2026-04-22T09:24:21Z</time></trkpt><trkpt lat="43.963340191961464" lon="8.139210415263975"><ele>10.666666666666666</ele><time>2026-04-22T09:24:22Z</time></trkpt><trkpt lat="43.96318855228131" lon="8.13897928986086"><ele>9.333333333333332</ele><time>2026-04-22T09:24:23Z</time></trkpt><trkpt lat="43.96304174251673" lon="8.138746212042637"><ele>8.0</ele><time>2026-04-22T09:24:24Z</time></trkpt><trkpt lat="43.96289205779078" lon="8.138513175953339"><ele>8.0</ele><time>2026-04-22T09:24:25Z</time></trkpt><trkpt lat="43.96274258952654" lon="8.138280548162365"><ele>8.0</ele><time>2026-04-22T09:24:26Z</time></trkpt><trkpt lat="43.962599019092664" lon="8.138051434526426"><ele>8.0</ele><time>2026-04-22T09:24:27Z</time></trkpt><trkpt lat="43.96244892916118" lon="8.137817229960161"><ele>8.666666666666666</ele><time>2026-04-22T09:24:28Z</time></trkpt><trkpt lat="43.96230397734071" lon="8.137588754407926"><ele>9.333333333333334</ele><time>2026-04-22T09:24:29Z</time></trkpt><trkpt lat="43.96215883320761" lon="8.137361683106988"><ele>10.0</ele><time>2026-04-22T09:24:30Z</time></trkpt><trkpt lat="43.96201311315115" lon="8.13714002094963"><ele>10.333333333333334</ele><time>2026-04-22T09:24:31Z</time></trkpt><trkpt lat="43.961864135653386" lon="8.136926026796903"><ele>10.666666666666666</ele><time>2026-04-22T09:24:32Z</time></trkpt><trkpt lat="43.96171992492828" lon="8.136723206023575"><ele>11.0</ele><time>2026-04-22T09:24:32.999Z</time></trkpt><trkpt lat="43.96157042868481" lon="8.136527849914547"><ele>16.333333333333332</ele><time>2026-04-22T09:24:33.999Z</time></trkpt><trkpt lat="43.96141039042179" lon="8.136336610378592"><ele>21.666666666666668</ele><time>2026-04-22T09:24:34.999Z</time></trkpt><trkpt lat="43.961249277824365" lon="8.136156066422462"><ele>27.0</ele><time>2026-04-22T09:24:35.999Z</time></trkpt><trkpt lat="43.96108705074761" lon="8.135984673641198"><ele>27.0</ele><time>2026-04-22T09:24:36.999Z</time></trkpt><trkpt lat="43.960919117932534" lon="8.135825217825262"><ele>27.0</ele><time>2026-04-22T09:24:37.999Z</time></trkpt><trkpt lat="43.96075129851915" lon="8.135677244097899"><ele>27.0</ele><time>2026-04-22T09:24:38.999Z</time></trkpt><trkpt lat="43.960579095226784" lon="8.135537871502198"><ele>39.33333333333333</ele><time>2026-04-22T09:24:39.999Z</time></trkpt><trkpt lat="43.96040917014374" lon="8.135404333172144"><ele>51.666666666666664</ele><time>2026-04-22T09:24:40.999Z</time></trkpt><trkpt lat="43.96023883143496" lon="8.135265124372399"><ele>64.0</ele><time>2026-04-22T09:24:41.999Z</time></trkpt><trkpt lat="43.96006759375273" lon="8.135142373050748"><ele>65.0</ele><time>2026-04-22T09:24:42.999Z</time></trkpt><trkpt lat="43.95990500273995" lon="8.135041489078095"><ele>66.0</ele><time>2026-04-22T09:24:43.999Z</time></trkpt><trkpt lat="43.95975374534427" lon="8.13495619247485"><ele>67.0</ele><time>2026-04-22T09:24:44.999Z</time></trkpt><trkpt lat="43.95961147897742" lon="8.134877620833542"><ele>69.5</ele><time>2026-04-22T09:24:45.999Z</time></trkpt><trkpt lat="43.959480682084425" lon="8.13479371607957"><ele>72.0</ele><time>2026-04-22T09:24:46.999Z</time></trkpt><trkpt lat="43.959370933775496" lon="8.134692363799605"><ele>74.5</ele><time>2026-04-22T09:24:47.999Z</time></trkpt><trkpt lat="43.95927409565321" lon="8.13456219376298"><ele>77.0</ele><time>2026-04-22T09:24:48.999Z</time></trkpt><trkpt lat="43.95918125215057" lon="8.134429267367901"><ele>77.2</ele><time>2026-04-22T09:24:49.999Z</time></trkpt><trkpt lat="43.959098817853274" lon="8.13434813133763"><ele>77.4</ele><time>2026-04-22T09:24:50.999Z</time></trkpt><trkpt lat="43.959008579839065" lon="8.13431853218791"><ele>77.6</ele><time>2026-04-22T09:24:51.999Z</time></trkpt><trkpt lat="43.958919729828885" lon="8.134318057663233"><ele>77.8</ele><time>2026-04-22T09:24:52.999Z</time></trkpt><trkpt lat="43.95883167481219" lon="8.134318467527748"><ele>78.0</ele><time>2026-04-22T09:24:53.999Z</time></trkpt><trkpt lat="43.9587488141929" lon="8.134317446316059"><ele>78.0</ele><time>2026-04-22T09:24:54.999Z</time></trkpt><trkpt lat="43.958675907063935" lon="8.134319774970864"><ele>78.0</ele><time>2026-04-22T09:24:55.999Z</time></trkpt><trkpt lat="43.95857751621046" lon="8.134252785124554"><ele>78.0</ele><time>2026-04-22T09:24:57.999Z</time></trkpt><trkpt lat="43.95853304364126" lon="8.134164697601106"><ele>78.0</ele><time>2026-04-22T09:24:59.999Z</time></trkpt><trkpt lat="43.95857339076789" lon="8.134256862756347"><ele>78.0</ele><time>2026-04-22T09:25:49Z</time></trkpt><trkpt lat="43.95856985798138" lon="8.134120586303498"><ele>78.0</ele><time>2026-04-22T09:26:35Z</time></trkpt><trkpt lat="43.958649363955615" lon="8.13409270999771"><ele>78.0</ele><time>2026-04-22T09:26:41.999Z</time></trkpt><trkpt lat="43.95871409754101" lon="8.134085510062613"><ele>78.0</ele><time>2026-04-22T09:26:51.999Z</time></trkpt><trkpt lat="43.95873091990365" lon="8.133963473025268"><ele>78.0</ele><time>2026-04-22T09:26:54.999Z</time></trkpt><trkpt lat="43.95856125543278" lon="8.134000210241291"><ele>78.0</ele><time>2026-04-22T09:29:03.017Z</time></trkpt><trkpt lat="43.95870560591825" lon="8.134156702780206"><ele>78.0</ele><time>2026-04-22T09:29:20.055Z</time></trkpt><trkpt lat="43.95870415864315" lon="8.134046570970726"><ele>78.0</ele><time>2026-04-22T09:29:57.03Z</time></trkpt><trkpt lat="43.958707343206996" lon="8.133885231113524"><ele>78.0</ele><time>2026-04-22T09:29:59Z</time></trkpt><trkpt lat="43.95868495899113" lon="8.133996454886987"><ele>78.0</ele><time>2026-04-22T09:30:04Z</time></trkpt><trkpt lat="43.95867862509066" lon="8.134112905931884"><ele>78.0</ele><time>2026-04-22T09:30:06Z</time></trkpt><trkpt lat="43.95874447777336" lon="8.134070930476897"><ele>78.0</ele><time>2026-04-22T09:30:17Z</time></trkpt><trkpt lat="43.958746812259356" lon="8.134160917528217"><ele>78.0</ele><time>2026-04-22T09:30:31Z</time></trkpt><trkpt lat="43.9587357985835" lon="8.134057513189507"><ele>78.0</ele><time>2026-04-22T09:30:40Z</time></trkpt><trkpt lat="43.95880190979887" lon="8.13400654205655"><ele>78.0</ele><time>2026-04-22T09:31:00.999Z</time></trkpt><trkpt lat="43.958854579202146" lon="8.133943954043025"><ele>78.0</ele><time>2026-04-22T09:31:01.999Z</time></trkpt><trkpt lat="43.95890479412312" lon="8.133869929453097"><ele>78.0</ele><time>2026-04-22T09:31:04.999Z</time></trkpt><trkpt lat="43.95882765099964" lon="8.133937773272175"><ele>78.0</ele><time>2026-04-22T09:31:09.999Z</time></trkpt><trkpt lat="43.95885359271274" lon="8.13402539512381"><ele>78.0</ele><time>2026-04-22T09:31:15.001Z</time></trkpt><trkpt lat="43.95886584052883" lon="8.133931011999135"><ele>78.0</ele><time>2026-04-22T09:31:23.001Z</time></trkpt><trkpt lat="43.95885547294942" lon="8.13403390156212"><ele>78.0</ele><time>2026-04-22T09:31:38.054Z</time></trkpt><trkpt lat="43.95879642747092" lon="8.134109421276507"><ele>78.0</ele><time>2026-04-22T09:31:42.055Z</time></trkpt><trkpt lat="43.95873101816164" lon="8.13410789998454"><ele>78.0</ele><time>2026-04-22T09:31:46.056Z</time></trkpt><trkpt lat="43.95866322689872" lon="8.134053670710406"><ele>78.0</ele><time>2026-04-22T09:31:53Z</time></trkpt><trkpt lat="43.95859977225884" lon="8.134091688830608"><ele>78.0</ele><time>2026-04-22T09:31:57Z</time></trkpt><trkpt lat="43.95851113551504" lon="8.134057445017703"><ele>78.0</ele><time>2026-04-22T09:31:59Z</time></trkpt><trkpt lat="43.95845512543253" lon="8.13401223992596"><ele>78.0</ele><time>2026-04-22T09:32:00Z</time></trkpt><trkpt lat="43.958375292873136" lon="8.133961510792671"><ele>78.0</ele><time>2026-04-22T09:32:01.032Z</time></trkpt><trkpt lat="43.958305157625766" lon="8.13397426164817"><ele>78.0</ele><time>2026-04-22T09:32:03.031Z</time></trkpt><trkpt lat="43.958748817192294" lon="8.13413437720384"><ele>78.0</ele><time>2026-04-22T09:32:19.843Z</time></trkpt><trkpt lat="43.95869441734507" lon="8.134069588757784"><ele>78.0</ele><time>2026-04-22T09:36:47.016Z</time></trkpt><trkpt lat="43.95856169402499" lon="8.134195497318368"><ele>78.0</ele><time>2026-04-22T09:36:51.015Z</time></trkpt><trkpt lat="43.95851450623206" lon="8.134262845926674"><ele>78.0</ele><time>2026-04-22T09:46:08.999Z</time></trkpt><trkpt lat="43.958389769640846" lon="8.13433600747843"><ele>78.0</ele><time>2026-04-22T09:46:10.999Z</time></trkpt><trkpt lat="43.95829320013521" lon="8.134351590786622"><ele>77.83333333333333</ele><time>2026-04-22T09:46:11.999Z</time></trkpt><trkpt lat="43.95820202897964" lon="8.134354504582092"><ele>77.66666666666667</ele><time>2026-04-22T09:46:12.999Z</time></trkpt><trkpt lat="43.95811436283811" lon="8.134347264180406"><ele>77.5</ele><time>2026-04-22T09:46:13.999Z</time></trkpt><trkpt lat="43.95802784896671" lon="8.134346918981946"><ele>77.33333333333334</ele><time>2026-04-22T09:46:14.999Z</time></trkpt><trkpt lat="43.95795726733752" lon="8.134354878939561"><ele>77.16666666666667</ele><time>2026-04-22T09:46:15.999Z</time></trkpt><trkpt lat="43.95784678266788" lon="8.134366586702276"><ele>77.0</ele><time>2026-04-22T09:46:17.999Z</time></trkpt><trkpt lat="43.95778368082514" lon="8.134370560382449"><ele>77.0</ele><time>2026-04-22T09:46:18.999Z</time></trkpt><trkpt lat="43.957716508000026" lon="8.1343782608418"><ele>77.0</ele><time>2026-04-22T09:46:19.999Z</time></trkpt><trkpt lat="43.95764097913674" lon="8.13439540538548"><ele>77.0</ele><time>2026-04-22T09:46:20.999Z</time></trkpt><trkpt lat="43.9575599965326" lon="8.134434778405222"><ele>77.0</ele><time>2026-04-22T09:46:21.999Z</time></trkpt><trkpt lat="43.95746600859652" lon="8.134491681582563"><ele>77.0</ele><time>2026-04-22T09:46:22.999Z</time></trkpt><trkpt lat="43.957372187799784" lon="8.134517226445311"><ele>77.0</ele><time>2026-04-22T09:46:23.999Z</time></trkpt><trkpt lat="43.957268043476866" lon="8.134539752876508"><ele>78.4</ele><time>2026-04-22T09:46:24.999Z</time></trkpt><trkpt lat="43.95716477029121" lon="8.13455278760775"><ele>79.80000000000001</ele><time>2026-04-22T09:46:25.999Z</time></trkpt><trkpt lat="43.95707540965638" lon="8.134559225395002"><ele>81.2</ele><time>2026-04-22T09:46:26.999Z</time></trkpt><trkpt lat="43.95699194681153" lon="8.134572707886695"><ele>82.60000000000001</ele><time>2026-04-22T09:46:27.999Z</time></trkpt><trkpt lat="43.95689435408134" lon="8.134596414687547"><ele>84.0</ele><time>2026-04-22T09:46:28.999Z</time></trkpt><trkpt lat="43.95678829205533" lon="8.134623386637436"><ele>86.75</ele><time>2026-04-22T09:46:29.999Z</time></trkpt><trkpt lat="43.95667308520892" lon="8.134648408965697"><ele>89.5</ele><time>2026-04-22T09:46:30.999Z</time></trkpt><trkpt lat="43.956543786927156" lon="8.134672155534542"><ele>92.25</ele><time>2026-04-22T09:46:31.999Z</time></trkpt><trkpt lat="43.956391151422565" lon="8.13469350928508"><ele>95.0</ele><time>2026-04-22T09:46:32.999Z</time></trkpt><trkpt lat="43.95624824694195" lon="8.134716866144567"><ele>95.0</ele><time>2026-04-22T09:46:33.999Z</time></trkpt><trkpt lat="43.95611954483172" lon="8.134747283818854"><ele>95.0</ele><time>2026-04-22T09:46:34.999Z</time></trkpt><trkpt lat="43.95598332051763" lon="8.134769136161292"><ele>95.0</ele><time>2026-04-22T09:46:35.999Z</time></trkpt><trkpt lat="43.9558484989517" lon="8.13478533508837"><ele>95.0</ele><time>2026-04-22T09:46:36.999Z</time></trkpt><trkpt lat="43.95570975866273" lon="8.134801334217189"><ele>95.66666666666667</ele><time>2026-04-22T09:46:37.999Z</time></trkpt><trkpt lat="43.95556550415029" lon="8.134825089574072"><ele>96.33333333333334</ele><time>2026-04-22T09:46:38.999Z</time></trkpt><trkpt lat="43.95541308579042" lon="8.134851836598385"><ele>97.0</ele><time>2026-04-22T09:46:39.999Z</time></trkpt><trkpt lat="43.95525307450952" lon="8.134885670111416"><ele>97.0</ele><time>2026-04-22T09:46:40.999Z</time></trkpt><trkpt lat="43.95508467312107" lon="8.134861040952227"><ele>97.0</ele><time>2026-04-22T09:46:41.999Z</time></trkpt><trkpt lat="43.95492310627903" lon="8.134847983435566"><ele>97.0</ele><time>2026-04-22T09:46:42.999Z</time></trkpt><trkpt lat="43.954726583431736" lon="8.134766882646492"><ele>101.66666666666667</ele><time>2026-04-22T09:46:43.999Z</time></trkpt><trkpt lat="43.954558900970305" lon="8.134740367147995"><ele>106.33333333333334</ele><time>2026-04-22T09:46:44.999Z</time></trkpt><trkpt lat="43.95439297956695" lon="8.134703947756849"><ele>111.0</ele><time>2026-04-22T09:46:45.999Z</time></trkpt><trkpt lat="43.95422688722828" lon="8.134665549591483"><ele>110.66666666666666</ele><time>2026-04-22T09:46:46.999Z</time></trkpt><trkpt lat="43.95406116849526" lon="8.13462645825407"><ele>110.33333333333333</ele><time>2026-04-22T09:46:47.999Z</time></trkpt><trkpt lat="43.95390254829886" lon="8.134573616311323"><ele>110.0</ele><time>2026-04-22T09:46:48.999Z</time></trkpt><trkpt lat="43.95374026398505" lon="8.134508995366165"><ele>110.0</ele><time>2026-04-22T09:46:49.999Z</time></trkpt><trkpt lat="43.95358197555219" lon="8.13444248030022"><ele>110.0</ele><time>2026-04-22T09:46:50.999Z</time></trkpt><trkpt lat="43.953421200176194" lon="8.13437598994785"><ele>110.0</ele><time>2026-04-22T09:46:51.999Z</time></trkpt><trkpt lat="43.953268494727006" lon="8.134301268631901"><ele>108.0</ele><time>2026-04-22T09:46:52.999Z</time></trkpt><trkpt lat="43.953112051698135" lon="8.134229908732122"><ele>106.0</ele><time>2026-04-22T09:46:53.999Z</time></trkpt><trkpt lat="43.952959885190396" lon="8.134147471592431"><ele>104.0</ele><time>2026-04-22T09:46:54.999Z</time></trkpt><trkpt lat="43.95280585633084" lon="8.13404809749959"><ele>104.0</ele><time>2026-04-22T09:46:55.999Z</time></trkpt><trkpt lat="43.95265596785903" lon="8.133947201014637"><ele>104.0</ele><time>2026-04-22T09:46:56.999Z</time></trkpt><trkpt lat="43.952510235898934" lon="8.13383806572431"><ele>104.0</ele><time>2026-04-22T09:46:57.999Z</time></trkpt><trkpt lat="43.95236932395282" lon="8.13372981848166"><ele>99.0</ele><time>2026-04-22T09:46:58.999Z</time></trkpt><trkpt lat="43.952226788876345" lon="8.133623848440603"><ele>94.0</ele><time>2026-04-22T09:46:59.999Z</time></trkpt><trkpt lat="43.95209130173108" lon="8.133509257468715"><ele>89.0</ele><time>2026-04-22T09:47:00.999Z</time></trkpt><trkpt lat="43.95195314455586" lon="8.133380421471028"><ele>89.0</ele><time>2026-04-22T09:47:01.999Z</time></trkpt><trkpt lat="43.95181165406998" lon="8.133253442523365"><ele>89.0</ele><time>2026-04-22T09:47:02.999Z</time></trkpt><trkpt lat="43.95167772664289" lon="8.133121273096393"><ele>89.0</ele><time>2026-04-22T09:47:03.999Z</time></trkpt><trkpt lat="43.95155300115287" lon="8.132983799689066"><ele>91.25</ele><time>2026-04-22T09:47:04.999Z</time></trkpt><trkpt lat="43.95142968336743" lon="8.132847681212683"><ele>93.5</ele><time>2026-04-22T09:47:05.999Z</time></trkpt><trkpt lat="43.95131886360832" lon="8.132715879495361"><ele>95.75</ele><time>2026-04-22T09:47:06.999Z</time></trkpt><trkpt lat="43.951214062782206" lon="8.132592580216357"><ele>98.0</ele><time>2026-04-22T09:47:07.999Z</time></trkpt><trkpt lat="43.95111609772408" lon="8.132466720227583"><ele>103.25</ele><time>2026-04-22T09:47:08.999Z</time></trkpt><trkpt lat="43.951021539630474" lon="8.132338997937538"><ele>108.5</ele><time>2026-04-22T09:47:09.999Z</time></trkpt><trkpt lat="43.950931376108024" lon="8.132215936832992"><ele>113.75</ele><time>2026-04-22T09:47:10.999Z</time></trkpt><trkpt lat="43.95084855752885" lon="8.132096534248083"><ele>119.0</ele><time>2026-04-22T09:47:11.999Z</time></trkpt><trkpt lat="43.95076871142247" lon="8.131972834215006"><ele>119.80000000000001</ele><time>2026-04-22T09:47:12.999Z</time></trkpt><trkpt lat="43.95069081355311" lon="8.131849368719946"><ele>120.60000000000001</ele><time>2026-04-22T09:47:13.998Z</time></trkpt><trkpt lat="43.95063048678837" lon="8.131731527000003"><ele>121.4</ele><time>2026-04-22T09:47:14.998Z</time></trkpt><trkpt lat="43.95057485891342" lon="8.131605957080883"><ele>122.2</ele><time>2026-04-22T09:47:15.998Z</time></trkpt><trkpt lat="43.950528464297044" lon="8.131489307409545"><ele>123.0</ele><time>2026-04-22T09:47:16.998Z</time></trkpt><trkpt lat="43.9504696626574" lon="8.131362178392555"><ele>127.60000000000001</ele><time>2026-04-22T09:47:17.998Z</time></trkpt><trkpt lat="43.95041581641941" lon="8.131228710513136"><ele>132.20000000000002</ele><time>2026-04-22T09:47:18.998Z</time></trkpt><trkpt lat="43.95035145939019" lon="8.13109537811503"><ele>136.8</ele><time>2026-04-22T09:47:20.058Z</time></trkpt><trkpt lat="43.950306110234926" lon="8.130967216129111"><ele>141.4</ele><time>2026-04-22T09:47:21.059Z</time></trkpt><trkpt lat="43.95025222594461" lon="8.130843921147669"><ele>146.0</ele><time>2026-04-22T09:47:22.062Z</time></trkpt><trkpt lat="43.9501416747343" lon="8.130797597877237"><ele>154.66666666666666</ele><time>2026-04-22T09:47:23.062Z</time></trkpt><trkpt lat="43.95008018924038" lon="8.130678102706153"><ele>163.33333333333334</ele><time>2026-04-22T09:47:24.057Z</time></trkpt><trkpt lat="43.95001504350269" lon="8.130564383393137"><ele>172.0</ele><time>2026-04-22T09:47:25.045Z</time></trkpt><trkpt lat="43.94907485898878" lon="8.128080022250606"><ele>276.0</ele><time>2026-04-22T09:47:28.714Z</time></trkpt><trkpt lat="43.94865921998268" lon="8.12697529497841"><ele>307.0</ele><time>2026-04-22T09:47:29.714Z</time></trkpt><trkpt lat="43.94824345687048" lon="8.125870706572746"><ele>363.0</ele><time>2026-04-22T09:47:30.714Z</time></trkpt><trkpt lat="43.94782537723077" lon="8.12476731746839"><ele>360.0</ele><time>2026-04-22T09:47:31.714Z</time></trkpt><trkpt lat="43.947407819689246" lon="8.123664074040613"><ele>348.0</ele><time>2026-04-22T09:47:32.714Z</time></trkpt><trkpt lat="43.94699069044046" lon="8.122560250433018"><ele>299.0</ele><time>2026-04-22T09:47:33.714Z</time></trkpt><trkpt lat="43.946573431469716" lon="8.121456533613676"><ele>280.0</ele><time>2026-04-22T09:47:34.714Z</time></trkpt><trkpt lat="43.94615712658509" lon="8.12035220881187"><ele>238.0</ele><time>2026-04-22T09:47:35.714Z</time></trkpt><trkpt lat="43.94574054357611" lon="8.119247691551848"><ele>210.0</ele><time>2026-04-22T09:47:36.714Z</time></trkpt><trkpt lat="43.9453242698331" lon="8.11814386323625"><ele>186.0</ele><time>2026-04-22T09:47:37.714Z</time></trkpt><trkpt lat="43.94490776588325" lon="8.117039333173762"><ele>160.0</ele><time>2026-04-22T09:47:38.714Z</time></trkpt><trkpt lat="43.944491410158946" lon="8.115935196191748"><ele>130.0</ele><time>2026-04-22T09:47:39.714Z</time></trkpt><trkpt lat="43.94407409172674" lon="8.11483103333479"><ele>123.0</ele><time>2026-04-22T09:47:40.714Z</time></trkpt><trkpt lat="43.943568522580115" lon="8.113514020203299"><ele>122.0</ele><time>2026-04-22T09:48:21.998Z</time></trkpt><trkpt lat="43.94344838643906" lon="8.11319585833054"><ele>121.0</ele><time>2026-04-22T09:48:22.998Z</time></trkpt><trkpt lat="43.943325562389525" lon="8.112917032474943"><ele>116.0</ele><time>2026-04-22T09:48:23.998Z</time></trkpt><trkpt lat="43.94319684147657" lon="8.112653094616745"><ele>111.0</ele><time>2026-04-22T09:48:24.998Z</time></trkpt><trkpt lat="43.94306219572455" lon="8.11238961377147"><ele>105.5</ele><time>2026-04-22T09:48:25.998Z</time></trkpt><trkpt lat="43.942921961893795" lon="8.112134463903807"><ele>100.0</ele><time>2026-04-22T09:48:26.998Z</time></trkpt><trkpt lat="43.942776319746095" lon="8.111885285144377"><ele>100.0</ele><time>2026-04-22T09:48:27.998Z</time></trkpt><trkpt lat="43.942622455810074" lon="8.111639695207739"><ele>100.0</ele><time>2026-04-22T09:48:28.998Z</time></trkpt><trkpt lat="43.94246254420664" lon="8.111401807504622"><ele>98.5</ele><time>2026-04-22T09:48:29.998Z</time></trkpt><trkpt lat="43.94230061377142" lon="8.111177150546617"><ele>97.0</ele><time>2026-04-22T09:48:30.998Z</time></trkpt><trkpt lat="43.94213417378382" lon="8.110952332050074"><ele>84.5</ele><time>2026-04-22T09:48:31.998Z</time></trkpt><trkpt lat="43.94196431087757" lon="8.11073547404141"><ele>72.0</ele><time>2026-04-22T09:48:32.998Z</time></trkpt><trkpt lat="43.941790392396484" lon="8.110521972413064"><ele>85.0</ele><time>2026-04-22T09:48:33.998Z</time></trkpt><trkpt lat="43.941611969926306" lon="8.110314774516702"><ele>98.0</ele><time>2026-04-22T09:48:34.998Z</time></trkpt><trkpt lat="43.94142758486514" lon="8.110115533450923"><ele>98.0</ele><time>2026-04-22T09:48:35.998Z</time></trkpt><trkpt lat="43.94123918185449" lon="8.109922675571749"><ele>98.0</ele><time>2026-04-22T09:48:36.998Z</time></trkpt><trkpt lat="43.941045787574474" lon="8.109736892528536"><ele>98.0</ele><time>2026-04-22T09:48:37.998Z</time></trkpt><trkpt lat="43.94084747800188" lon="8.109561079747419"><ele>98.0</ele><time>2026-04-22T09:48:38.998Z</time></trkpt><trkpt lat="43.94064679676366" lon="8.109394023319647"><ele>98.0</ele><time>2026-04-22T09:48:39.998Z</time></trkpt><trkpt lat="43.94044865414001" lon="8.109240879901954"><ele>98.0</ele><time>2026-04-22T09:48:40.998Z</time></trkpt><trkpt lat="43.94025515186352" lon="8.109095456791941"><ele>98.0</ele><time>2026-04-22T09:48:41.998Z</time></trkpt><trkpt lat="43.94005519932235" lon="8.108956552280151"><ele>92.0</ele><time>2026-04-22T09:48:42.998Z</time></trkpt><trkpt lat="43.93985753159261" lon="8.108829749802695"><ele>86.0</ele><time>2026-04-22T09:48:43.999Z</time></trkpt><trkpt lat="43.93965720246058" lon="8.108705822060866"><ele>80.0</ele><time>2026-04-22T09:48:44.999Z</time></trkpt><trkpt lat="43.93944875540478" lon="8.108581773989986"><ele>80.0</ele><time>2026-04-22T09:48:45.999Z</time></trkpt><trkpt lat="43.93923951100041" lon="8.108459674895697"><ele>80.0</ele><time>2026-04-22T09:48:46.999Z</time></trkpt><trkpt lat="43.939028835320265" lon="8.108337060641787"><ele>74.0</ele><time>2026-04-22T09:48:47.999Z</time></trkpt><trkpt lat="43.938817575585276" lon="8.108212623186276"><ele>68.0</ele><time>2026-04-22T09:48:48.999Z</time></trkpt><trkpt lat="43.938606489522655" lon="8.108094619414977"><ele>68.0</ele><time>2026-04-22T09:48:49.999Z</time></trkpt><trkpt lat="43.938391764187315" lon="8.10797345814321"><ele>68.0</ele><time>2026-04-22T09:48:50.999Z</time></trkpt><trkpt lat="43.93817537113179" lon="8.107851154046354"><ele>74.5</ele><time>2026-04-22T09:48:51.999Z</time></trkpt><trkpt lat="43.93795972619297" lon="8.107728052931442"><ele>81.0</ele><time>2026-04-22T09:48:52.999Z</time></trkpt><trkpt lat="43.9377404407989" lon="8.107601435514622"><ele>74.5</ele><time>2026-04-22T09:48:53.999Z</time></trkpt><trkpt lat="43.93752772234532" lon="8.10747406187432"><ele>68.0</ele><time>2026-04-22T09:48:54.999Z</time></trkpt><trkpt lat="43.93732228437953" lon="8.107348497394202"><ele>68.0</ele><time>2026-04-22T09:48:55.999Z</time></trkpt><trkpt lat="43.93711883091632" lon="8.10721279257337"><ele>68.0</ele><time>2026-04-22T09:48:56.999Z</time></trkpt><trkpt lat="43.93691782671991" lon="8.107074354957506"><ele>68.0</ele><time>2026-04-22T09:48:57.999Z</time></trkpt><trkpt lat="43.936721070620564" lon="8.106926598839012"><ele>68.0</ele><time>2026-04-22T09:48:58.999Z</time></trkpt><trkpt lat="43.93652559829976" lon="8.106772788793226"><ele>68.0</ele><time>2026-04-22T09:48:59.999Z</time></trkpt><trkpt lat="43.936337552793916" lon="8.106608555434255"><ele>65.0</ele><time>2026-04-22T09:49:00.999Z</time></trkpt><trkpt lat="43.936151133885424" lon="8.106435423216432"><ele>62.0</ele><time>2026-04-22T09:49:01.999Z</time></trkpt><trkpt lat="43.935971551872164" lon="8.106252973459256"><ele>59.0</ele><time>2026-04-22T09:49:02.999Z</time></trkpt><trkpt lat="43.93578880007346" lon="8.106065264225435"><ele>58.0</ele><time>2026-04-22T09:49:03.999Z</time></trkpt><trkpt lat="43.935609396208775" lon="8.105870760839327"><ele>57.0</ele><time>2026-04-22T09:49:04.999Z</time></trkpt><trkpt lat="43.935428212089185" lon="8.105664701418656"><ele>45.0</ele><time>2026-04-22T09:49:05.999Z</time></trkpt><trkpt lat="43.935242049617365" lon="8.105449979489158"><ele>33.0</ele><time>2026-04-22T09:49:06.999Z</time></trkpt><trkpt lat="43.93505671125058" lon="8.105227652634502"><ele>31.0</ele><time>2026-04-22T09:49:07.999Z</time></trkpt><trkpt lat="43.93487051944391" lon="8.105002584908537"><ele>29.0</ele><time>2026-04-22T09:49:08.999Z</time></trkpt><trkpt lat="43.93467987162565" lon="8.104773715114586"><ele>29.0</ele><time>2026-04-22T09:49:09.999Z</time></trkpt><trkpt lat="43.934495677694734" lon="8.104549915294175"><ele>29.0</ele><time>2026-04-22T09:49:10.999Z</time></trkpt><trkpt lat="43.9343095863519" lon="8.104323863381406"><ele>31.0</ele><time>2026-04-22T09:49:11.999Z</time></trkpt><trkpt lat="43.934119593698625" lon="8.104096213631708"><ele>33.0</ele><time>2026-04-22T09:49:12.999Z</time></trkpt><trkpt lat="43.93393496952307" lon="8.103869904257033"><ele>38.5</ele><time>2026-04-22T09:49:13.999Z</time></trkpt><trkpt lat="43.93374463397964" lon="8.103641503360928"><ele>44.0</ele><time>2026-04-22T09:49:14.999Z</time></trkpt><trkpt lat="43.933557928120635" lon="8.103417556617831"><ele>55.0</ele><time>2026-04-22T09:49:15.999Z</time></trkpt><trkpt lat="43.93337190156224" lon="8.10319236899809"><ele>66.0</ele><time>2026-04-22T09:49:16.999Z</time></trkpt><trkpt lat="43.93318781271617" lon="8.102966877246251"><ele>66.0</ele><time>2026-04-22T09:49:17.999Z</time></trkpt><trkpt lat="43.933001261236555" lon="8.10273912396267"><ele>66.0</ele><time>2026-04-22T09:49:18.999Z</time></trkpt><trkpt lat="43.93281616568791" lon="8.102516622710214"><ele>70.5</ele><time>2026-04-22T09:49:19.999Z</time></trkpt><trkpt lat="43.932633538870746" lon="8.102294074645087"><ele>75.0</ele><time>2026-04-22T09:49:20.999Z</time></trkpt><trkpt lat="43.9324521895473" lon="8.102069772795444"><ele>75.0</ele><time>2026-04-22T09:49:21.999Z</time></trkpt><trkpt lat="43.93226785180218" lon="8.101846052671837"><ele>75.0</ele><time>2026-04-22T09:49:22.999Z</time></trkpt><trkpt lat="43.932085684086694" lon="8.101621318786771"><ele>73.0</ele><time>2026-04-22T09:49:23.999Z</time></trkpt><trkpt lat="43.931903545223925" lon="8.101399262948588"><ele>71.0</ele><time>2026-04-22T09:49:24.999Z</time></trkpt><trkpt lat="43.931720022471666" lon="8.101179269474672"><ele>64.0</ele><time>2026-04-22T09:49:25.999Z</time></trkpt><trkpt lat="43.93154009800653" lon="8.100957039807103"><ele>57.0</ele><time>2026-04-22T09:49:26.999Z</time></trkpt><trkpt lat="43.93136205603097" lon="8.100737648813759"><ele>48.0</ele><time>2026-04-22T09:49:27.999Z</time></trkpt><trkpt lat="43.931183258348014" lon="8.100518693094275"><ele>39.0</ele><time>2026-04-22T09:49:28.999Z</time></trkpt><trkpt lat="43.93100265456615" lon="8.100302090076646"><ele>38.5</ele><time>2026-04-22T09:49:29.999Z</time></trkpt><trkpt lat="43.930821276395804" lon="8.100091594613618"><ele>38.0</ele><time>2026-04-22T09:49:30.999Z</time></trkpt><trkpt lat="43.930641218842545" lon="8.099886881984864"><ele>38.0</ele><time>2026-04-22T09:49:31.999Z</time></trkpt><trkpt lat="43.93045901680194" lon="8.099684188568864"><ele>38.0</ele><time>2026-04-22T09:49:32.999Z</time></trkpt><trkpt lat="43.93027479429361" lon="8.099485631276673"><ele>38.0</ele><time>2026-04-22T09:49:33.999Z</time></trkpt><trkpt lat="43.930090381892406" lon="8.099293070158325"><ele>38.0</ele><time>2026-04-22T09:49:34.999Z</time></trkpt><trkpt lat="43.9299048991451" lon="8.099098878603673"><ele>51.0</ele><time>2026-04-22T09:49:35.999Z</time></trkpt><trkpt lat="43.92971545542962" lon="8.098904874947465"><ele>64.0</ele><time>2026-04-22T09:49:36.999Z</time></trkpt><trkpt lat="43.92952476518561" lon="8.098716311065141"><ele>64.0</ele><time>2026-04-22T09:49:37.999Z</time></trkpt><trkpt lat="43.92933339714384" lon="8.098533134316092"><ele>64.0</ele><time>2026-04-22T09:49:38.999Z</time></trkpt><trkpt lat="43.92914348183284" lon="8.09835395946121"><ele>75.5</ele><time>2026-04-22T09:49:39.999Z</time></trkpt><trkpt lat="43.928954471704806" lon="8.098177163575215"><ele>87.0</ele><time>2026-04-22T09:49:40.999Z</time></trkpt><trkpt lat="43.92876668286236" lon="8.098003836111712"><ele>87.0</ele><time>2026-04-22T09:49:41.999Z</time></trkpt><trkpt lat="43.92857963223896" lon="8.097827849395463"><ele>87.0</ele><time>2026-04-22T09:49:42.999Z</time></trkpt><trkpt lat="43.92839271152387" lon="8.097649060679988"><ele>86.0</ele><time>2026-04-22T09:49:43.999Z</time></trkpt><trkpt lat="43.92820288679885" lon="8.097471673990542"><ele>85.0</ele><time>2026-04-22T09:49:44.999Z</time></trkpt><trkpt lat="43.928012517446135" lon="8.09729528332033"><ele>85.0</ele><time>2026-04-22T09:49:45.999Z</time></trkpt><trkpt lat="43.927821689024654" lon="8.097116911078068"><ele>85.0</ele><time>2026-04-22T09:49:46.999Z</time></trkpt><trkpt lat="43.9276292037989" lon="8.096937604174983"><ele>86.5</ele><time>2026-04-22T09:49:47.999Z</time></trkpt><trkpt lat="43.92744069108839" lon="8.09675742815486"><ele>88.0</ele><time>2026-04-22T09:49:48.999Z</time></trkpt><trkpt lat="43.92725271622245" lon="8.096577426318413"><ele>88.0</ele><time>2026-04-22T09:49:49.999Z</time></trkpt><trkpt lat="43.92706050184001" lon="8.0964016939054"><ele>88.0</ele><time>2026-04-22T09:49:50.999Z</time></trkpt><trkpt lat="43.926868420989024" lon="8.09622283228742"><ele>87.5</ele><time>2026-04-22T09:49:51.999Z</time></trkpt><trkpt lat="43.92667526805841" lon="8.096045534179815"><ele>87.0</ele><time>2026-04-22T09:49:52.999Z</time></trkpt><trkpt lat="43.92648299870811" lon="8.095867409811353"><ele>89.33333333333333</ele><time>2026-04-22T09:49:53.999Z</time></trkpt><trkpt lat="43.92629715740763" lon="8.095690318642509"><ele>91.66666666666666</ele><time>2026-04-22T09:49:54.999Z</time></trkpt><trkpt lat="43.92611572145289" lon="8.095521403386117"><ele>94.0</ele><time>2026-04-22T09:49:55.999Z</time></trkpt><trkpt lat="43.92593432948684" lon="8.095352044643212"><ele>90.0</ele><time>2026-04-22T09:49:56.999Z</time></trkpt><trkpt lat="43.92575137295403" lon="8.095181427520382"><ele>86.0</ele><time>2026-04-22T09:49:57.999Z</time></trkpt><trkpt lat="43.92556982047744" lon="8.09500913266129"><ele>82.0</ele><time>2026-04-22T09:49:58.999Z</time></trkpt><trkpt lat="43.925394608049025" lon="8.094838718763704"><ele>76.33333333333333</ele><time>2026-04-22T09:49:59.999Z</time></trkpt><trkpt lat="43.925220724594254" lon="8.094666640028057"><ele>70.66666666666667</ele><time>2026-04-22T09:50:00.999Z</time></trkpt><trkpt lat="43.92505319522693" lon="8.094493674909733"><ele>65.0</ele><time>2026-04-22T09:50:01.999Z</time></trkpt><trkpt lat="43.92488864259439" lon="8.094312769203777"><ele>64.0</ele><time>2026-04-22T09:50:02.999Z</time></trkpt><trkpt lat="43.924728799055586" lon="8.094123542457762"><ele>63.0</ele><time>2026-04-22T09:50:03.998Z</time></trkpt><trkpt lat="43.92457221810553" lon="8.09393016508359"><ele>62.0</ele><time>2026-04-22T09:50:04.998Z</time></trkpt><trkpt lat="43.92442418410846" lon="8.09372916909663"><ele>62.0</ele><time>2026-04-22T09:50:05.998Z</time></trkpt><trkpt lat="43.92427979177561" lon="8.09351793512135"><ele>62.0</ele><time>2026-04-22T09:50:06.998Z</time></trkpt><trkpt lat="43.92414201387288" lon="8.093298896532403"><ele>62.0</ele><time>2026-04-22T09:50:07.998Z</time></trkpt><trkpt lat="43.92401153351307" lon="8.093071167130553"><ele>72.33333333333334</ele><time>2026-04-22T09:50:08.998Z</time></trkpt><trkpt lat="43.92388726530829" lon="8.092835783150965"><ele>82.66666666666667</ele><time>2026-04-22T09:50:09.998Z</time></trkpt><trkpt lat="43.92376466799689" lon="8.092588052447416"><ele>93.0</ele><time>2026-04-22T09:50:10.998Z</time></trkpt><trkpt lat="43.92364662171921" lon="8.092327157431829"><ele>94.0</ele><time>2026-04-22T09:50:11.998Z</time></trkpt><trkpt lat="43.923535243263096" lon="8.092055691593245"><ele>95.0</ele><time>2026-04-22T09:50:12.998Z</time></trkpt><trkpt lat="43.923431251106685" lon="8.091777577108214"><ele>89.33333333333334</ele><time>2026-04-22T09:50:13.998Z</time></trkpt><trkpt lat="43.92333790045919" lon="8.091495204400157"><ele>83.66666666666667</ele><time>2026-04-22T09:50:14.998Z</time></trkpt><trkpt lat="43.923251748080965" lon="8.091206413634549"><ele>78.0</ele><time>2026-04-22T09:50:15.998Z</time></trkpt><trkpt lat="43.9231752531087" lon="8.090910094348995"><ele>81.5</ele><time>2026-04-22T09:50:16.998Z</time></trkpt><trkpt lat="43.92310760826277" lon="8.090605072695098"><ele>85.0</ele><time>2026-04-22T09:50:17.998Z</time></trkpt><trkpt lat="43.923049798457846" lon="8.090292201106413"><ele>85.0</ele><time>2026-04-22T09:50:18.998Z</time></trkpt><trkpt lat="43.92300041566643" lon="8.089974586745294"><ele>85.0</ele><time>2026-04-22T09:50:19.998Z</time></trkpt><trkpt lat="43.92295959539301" lon="8.08964981345485"><ele>85.5</ele><time>2026-04-22T09:50:20.998Z</time></trkpt><trkpt lat="43.922926882507895" lon="8.089307053317446"><ele>86.0</ele><time>2026-04-22T09:50:21.998Z</time></trkpt><trkpt lat="43.92290547137686" lon="8.088948713250018"><ele>84.5</ele><time>2026-04-22T09:50:22.998Z</time></trkpt><trkpt lat="43.92288579287063" lon="8.088586660956024"><ele>83.0</ele><time>2026-04-22T09:50:23.998Z</time></trkpt><trkpt lat="43.922869740481104" lon="8.08822700275741"><ele>77.5</ele><time>2026-04-22T09:50:24.998Z</time></trkpt><trkpt lat="43.922854110864016" lon="8.087879028147766"><ele>72.0</ele><time>2026-04-22T09:50:25.998Z</time></trkpt><trkpt lat="43.92284171132492" lon="8.087533924701889"><ele>62.5</ele><time>2026-04-22T09:50:26.998Z</time></trkpt><trkpt lat="43.92282734068018" lon="8.087189345206426"><ele>53.0</ele><time>2026-04-22T09:50:27.998Z</time></trkpt><trkpt lat="43.92281573645397" lon="8.086848679514153"><ele>46.5</ele><time>2026-04-22T09:50:28.998Z</time></trkpt><trkpt lat="43.922807629062994" lon="8.08651527387842"><ele>40.0</ele><time>2026-04-22T09:50:29.998Z</time></trkpt><trkpt lat="43.92280232930542" lon="8.086180843464726"><ele>40.0</ele><time>2026-04-22T09:50:30.998Z</time></trkpt><trkpt lat="43.922800262760994" lon="8.08584671917259"><ele>40.0</ele><time>2026-04-22T09:50:31.998Z</time></trkpt><trkpt lat="43.92280068588351" lon="8.08551521684703"><ele>38.0</ele><time>2026-04-22T09:50:32.998Z</time></trkpt><trkpt lat="43.92280114877129" lon="8.085186053831"><ele>36.0</ele><time>2026-04-22T09:50:33.998Z</time></trkpt><trkpt lat="43.922798862162786" lon="8.084857143249423"><ele>40.5</ele><time>2026-04-22T09:50:34.998Z</time></trkpt><trkpt lat="43.922793129142846" lon="8.084533989363734"><ele>45.0</ele><time>2026-04-22T09:50:35.998Z</time></trkpt><trkpt lat="43.92278561584952" lon="8.084214161448367"><ele>55.5</ele><time>2026-04-22T09:50:36.999Z</time></trkpt><trkpt lat="43.9227764739322" lon="8.083894534016185"><ele>66.0</ele><time>2026-04-22T09:50:37.999Z</time></trkpt><trkpt lat="43.92276283758597" lon="8.083572112384582"><ele>77.0</ele><time>2026-04-22T09:50:38.999Z</time></trkpt><trkpt lat="43.92275129071941" lon="8.083247120517102"><ele>88.0</ele><time>2026-04-22T09:50:39.999Z</time></trkpt><trkpt lat="43.922739113979034" lon="8.082921313406498"><ele>88.0</ele><time>2026-04-22T09:50:40.999Z</time></trkpt><trkpt lat="43.922727374037734" lon="8.082594654362683"><ele>88.0</ele><time>2026-04-22T09:50:41.999Z</time></trkpt><trkpt lat="43.922716756385604" lon="8.082268645551673"><ele>93.5</ele><time>2026-04-22T09:50:42.999Z</time></trkpt><trkpt lat="43.92270752110515" lon="8.081942324104435"><ele>99.0</ele><time>2026-04-22T09:50:43.999Z</time></trkpt><trkpt lat="43.92269783440957" lon="8.08161877718083"><ele>96.5</ele><time>2026-04-22T09:50:44.999Z</time></trkpt><trkpt lat="43.92268769482681" lon="8.081276382358046"><ele>94.0</ele><time>2026-04-22T09:50:46.067Z</time></trkpt><trkpt lat="43.9226783929547" lon="8.080958308932578"><ele>55.0</ele><time>2026-04-22T09:50:47.061Z</time></trkpt><trkpt lat="43.92258554995787" lon="8.078412392213284"><ele>51.666666666666664</ele><time>2026-04-22T09:50:54.999Z</time></trkpt><trkpt lat="43.92257854899659" lon="8.07810190732346"><ele>48.33333333333333</ele><time>2026-04-22T09:50:55.999Z</time></trkpt><trkpt lat="43.922584827631496" lon="8.07780705563786"><ele>45.0</ele><time>2026-04-22T09:50:56.999Z</time></trkpt><trkpt lat="43.92256226165872" lon="8.077515001994602"><ele>41.0</ele><time>2026-04-22T09:50:57.999Z</time></trkpt><trkpt lat="43.922551435922536" lon="8.077221027460235"><ele>37.0</ele><time>2026-04-22T09:50:58.999Z</time></trkpt><trkpt lat="43.92254619144957" lon="8.076940260856952"><ele>33.0</ele><time>2026-04-22T09:50:59.999Z</time></trkpt><trkpt lat="43.92251966575954" lon="8.07665722280874"><ele>30.666666666666664</ele><time>2026-04-22T09:51:00.999Z</time></trkpt><trkpt lat="43.922497330246046" lon="8.076372100628229"><ele>28.333333333333332</ele><time>2026-04-22T09:51:01.999Z</time></trkpt><trkpt lat="43.92247025874432" lon="8.076094204830074"><ele>26.0</ele><time>2026-04-22T09:51:02.999Z</time></trkpt><trkpt lat="43.92243568371534" lon="8.07582047241222"><ele>25.0</ele><time>2026-04-22T09:51:03.999Z</time></trkpt><trkpt lat="43.922396752966755" lon="8.075558114181701"><ele>24.0</ele><time>2026-04-22T09:51:04.999Z</time></trkpt><trkpt lat="43.92234886571172" lon="8.075298291384456"><ele>23.0</ele><time>2026-04-22T09:51:05.999Z</time></trkpt><trkpt lat="43.92229870539897" lon="8.075040603195818"><ele>23.666666666666668</ele><time>2026-04-22T09:51:06.999Z</time></trkpt><trkpt lat="43.922243359130015" lon="8.074789209897796"><ele>24.333333333333336</ele><time>2026-04-22T09:51:07.999Z</time></trkpt><trkpt lat="43.92218151516518" lon="8.074546825896514"><ele>25.0</ele><time>2026-04-22T09:51:08.999Z</time></trkpt><trkpt lat="43.922114500298214" lon="8.07431197635401"><ele>26.0</ele><time>2026-04-22T09:51:09.999Z</time></trkpt><trkpt lat="43.92204385241765" lon="8.074086047303654"><ele>27.0</ele><time>2026-04-22T09:51:10.999Z</time></trkpt><trkpt lat="43.92196793242614" lon="8.073861831799766"><ele>28.0</ele><time>2026-04-22T09:51:11.999Z</time></trkpt><trkpt lat="43.92188745967163" lon="8.073642404757791"><ele>28.0</ele><time>2026-04-22T09:51:12.999Z</time></trkpt><trkpt lat="43.92180052173895" lon="8.073429577805479"><ele>28.0</ele><time>2026-04-22T09:51:13.999Z</time></trkpt><trkpt lat="43.921709198721224" lon="8.073223318529216"><ele>28.0</ele><time>2026-04-22T09:51:14.999Z</time></trkpt><trkpt lat="43.9216165543725" lon="8.073021776428892"><ele>29.666666666666668</ele><time>2026-04-22T09:51:15.999Z</time></trkpt><trkpt lat="43.92151937682906" lon="8.072820961645718"><ele>31.333333333333336</ele><time>2026-04-22T09:51:16.999Z</time></trkpt><trkpt lat="43.92141514996299" lon="8.07262433354226"><ele>33.0</ele><time>2026-04-22T09:51:17.999Z</time></trkpt><trkpt lat="43.92130403986684" lon="8.072429319746972"><ele>35.0</ele><time>2026-04-22T09:51:18.999Z</time></trkpt><trkpt lat="43.921187939969364" lon="8.07223612328818"><ele>37.0</ele><time>2026-04-22T09:51:19.999Z</time></trkpt><trkpt lat="43.921063417713064" lon="8.072046512489297"><ele>39.0</ele><time>2026-04-22T09:51:20.999Z</time></trkpt><trkpt lat="43.92093255224461" lon="8.071862085542211"><ele>37.0</ele><time>2026-04-22T09:51:21.999Z</time></trkpt><trkpt lat="43.9207982677435" lon="8.071685053691223"><ele>35.0</ele><time>2026-04-22T09:51:22.999Z</time></trkpt><trkpt lat="43.92065908595039" lon="8.071517757731383"><ele>33.0</ele><time>2026-04-22T09:51:23.999Z</time></trkpt><trkpt lat="43.92051654328143" lon="8.071349458179096"><ele>37.666666666666664</ele><time>2026-04-22T09:51:24.999Z</time></trkpt><trkpt lat="43.920366898271205" lon="8.071183447877795"><ele>42.33333333333333</ele><time>2026-04-22T09:51:25.999Z</time></trkpt><trkpt lat="43.92020953048179" lon="8.071025007904543"><ele>47.0</ele><time>2026-04-22T09:51:26.999Z</time></trkpt><trkpt lat="43.92004769845542" lon="8.07086747992725"><ele>50.33333333333333</ele><time>2026-04-22T09:51:27.999Z</time></trkpt><trkpt lat="43.919882348103236" lon="8.070701747484007"><ele>53.666666666666664</ele><time>2026-04-22T09:51:28.999Z</time></trkpt><trkpt lat="43.91971691353173" lon="8.070518922097868"><ele>57.0</ele><time>2026-04-22T09:51:29.999Z</time></trkpt><trkpt lat="43.9195216549756" lon="8.070365251306143"><ele>57.0</ele><time>2026-04-22T09:51:31.061Z</time></trkpt><trkpt lat="43.91933298612605" lon="8.070243547766001"><ele>57.0</ele><time>2026-04-22T09:51:32.059Z</time></trkpt><trkpt lat="43.91914171775988" lon="8.070130225774367"><ele>57.0</ele><time>2026-04-22T09:51:33.061Z</time></trkpt><trkpt lat="43.918958070644976" lon="8.070033877577874"><ele>28.0</ele><time>2026-04-22T09:51:34.055Z</time></trkpt><trkpt lat="43.91713325041382" lon="8.069588123135102"><ele>28.0</ele><time>2026-04-22T09:51:42.999Z</time></trkpt><trkpt lat="43.91690753477698" lon="8.069515336199244"><ele>28.0</ele><time>2026-04-22T09:51:43.999Z</time></trkpt><trkpt lat="43.91666790836479" lon="8.06946916854528"><ele>24.5</ele><time>2026-04-22T09:51:44.999Z</time></trkpt><trkpt lat="43.916433937887476" lon="8.069394486475021"><ele>21.0</ele><time>2026-04-22T09:51:45.999Z</time></trkpt><trkpt lat="43.91620722687718" lon="8.069337812960612"><ele>21.0</ele><time>2026-04-22T09:51:46.999Z</time></trkpt><trkpt lat="43.91597372777906" lon="8.069278542215336"><ele>21.0</ele><time>2026-04-22T09:51:47.999Z</time></trkpt><trkpt lat="43.91574474051304" lon="8.06922827762019"><ele>20.5</ele><time>2026-04-22T09:51:48.999Z</time></trkpt><trkpt lat="43.91550771267748" lon="8.069181001783074"><ele>20.0</ele><time>2026-04-22T09:51:49.999Z</time></trkpt><trkpt lat="43.91527169756711" lon="8.069121620089229"><ele>27.5</ele><time>2026-04-22T09:51:50.999Z</time></trkpt><trkpt lat="43.915039296106976" lon="8.069055519813038"><ele>35.0</ele><time>2026-04-22T09:51:51.999Z</time></trkpt><trkpt lat="43.914809853907585" lon="8.069001700268595"><ele>35.0</ele><time>2026-04-22T09:51:52.999Z</time></trkpt><trkpt lat="43.91458553599302" lon="8.0689493909491"><ele>35.0</ele><time>2026-04-22T09:51:53.999Z</time></trkpt><trkpt lat="43.91435479623561" lon="8.068909447621913"><ele>43.0</ele><time>2026-04-22T09:51:54.999Z</time></trkpt><trkpt lat="43.914126663714235" lon="8.068859622449155"><ele>51.0</ele><time>2026-04-22T09:51:55.999Z</time></trkpt><trkpt lat="43.913899936851124" lon="8.068804565256173"><ele>51.0</ele><time>2026-04-22T09:51:56.999Z</time></trkpt><trkpt lat="43.91367287663156" lon="8.068746378124553"><ele>51.0</ele><time>2026-04-22T09:51:57.999Z</time></trkpt><trkpt lat="43.913440913774494" lon="8.068696052680947"><ele>55.0</ele><time>2026-04-22T09:51:58.999Z</time></trkpt><trkpt lat="43.913213349799726" lon="8.068641457114955"><ele>59.0</ele><time>2026-04-22T09:51:59.999Z</time></trkpt><trkpt lat="43.912987622968686" lon="8.068587096744922"><ele>59.0</ele><time>2026-04-22T09:52:00.999Z</time></trkpt><trkpt lat="43.912761715907926" lon="8.068541997834238"><ele>59.0</ele><time>2026-04-22T09:52:01.999Z</time></trkpt><trkpt lat="43.912537996167494" lon="8.068488596528356"><ele>60.5</ele><time>2026-04-22T09:52:02.999Z</time></trkpt><trkpt lat="43.91230364412904" lon="8.068438577529534"><ele>62.0</ele><time>2026-04-22T09:52:03.999Z</time></trkpt><trkpt lat="43.9113775828195" lon="8.068248860817103"><ele>66.5</ele><time>2026-04-22T09:52:07.999Z</time></trkpt><trkpt lat="43.91116843860785" lon="8.068208292235013"><ele>71.0</ele><time>2026-04-22T09:52:08.999Z</time></trkpt><trkpt lat="43.910930737947446" lon="8.06816508715603"><ele>66.0</ele><time>2026-04-22T09:52:10.059Z</time></trkpt><trkpt lat="43.91069473569695" lon="8.068118132667394"><ele>61.0</ele><time>2026-04-22T09:52:11.06Z</time></trkpt><trkpt lat="43.91046307149723" lon="8.068071756603283"><ele>61.0</ele><time>2026-04-22T09:52:12.054Z</time></trkpt><trkpt lat="43.910283588837395" lon="8.067940967134259"><ele>61.0</ele><time>2026-04-22T09:52:12.999Z</time></trkpt><trkpt lat="43.91002809270327" lon="8.067796704060342"><ele>56.666666666666664</ele><time>2026-04-22T09:52:13.999Z</time></trkpt><trkpt lat="43.90983979402743" lon="8.067689535536795"><ele>52.33333333333333</ele><time>2026-04-22T09:52:14.999Z</time></trkpt><trkpt lat="43.90964372755407" lon="8.067584777021374"><ele>48.0</ele><time>2026-04-22T09:52:15.999Z</time></trkpt><trkpt lat="43.909447972412096" lon="8.067470543281768"><ele>50.0</ele><time>2026-04-22T09:52:16.999Z</time></trkpt><trkpt lat="43.909260407974045" lon="8.067352121864905"><ele>52.0</ele><time>2026-04-22T09:52:17.999Z</time></trkpt><trkpt lat="43.90907433379191" lon="8.067232824852246"><ele>54.0</ele><time>2026-04-22T09:52:18.999Z</time></trkpt><trkpt lat="43.90889154949257" lon="8.067111950247291"><ele>52.0</ele><time>2026-04-22T09:52:19.999Z</time></trkpt><trkpt lat="43.908709599339524" lon="8.066987846800572"><ele>50.0</ele><time>2026-04-22T09:52:20.999Z</time></trkpt><trkpt lat="43.9085316310691" lon="8.066857427404107"><ele>48.0</ele><time>2026-04-22T09:52:21.999Z</time></trkpt><trkpt lat="43.90835580690296" lon="8.066720861762517"><ele>47.0</ele><time>2026-04-22T09:52:22.999Z</time></trkpt><trkpt lat="43.908185509310364" lon="8.066579014094586"><ele>46.0</ele><time>2026-04-22T09:52:23.999Z</time></trkpt><trkpt lat="43.90801844951616" lon="8.066434177041286"><ele>45.0</ele><time>2026-04-22T09:52:24.999Z</time></trkpt><trkpt lat="43.907856310225505" lon="8.066284971770363"><ele>45.0</ele><time>2026-04-22T09:52:25.999Z</time></trkpt><trkpt lat="43.90770211128081" lon="8.066122949778741"><ele>45.0</ele><time>2026-04-22T09:52:26.999Z</time></trkpt><trkpt lat="43.907544930779835" lon="8.065976933653626"><ele>45.0</ele><time>2026-04-22T09:52:27.999Z</time></trkpt><trkpt lat="43.90738872317406" lon="8.06581728115193"><ele>53.66666666666667</ele><time>2026-04-22T09:52:28.999Z</time></trkpt><trkpt lat="43.907242227288656" lon="8.06565027062817"><ele>62.333333333333336</ele><time>2026-04-22T09:52:29.999Z</time></trkpt><trkpt lat="43.907097841212355" lon="8.065483323814552"><ele>71.0</ele><time>2026-04-22T09:52:30.999Z</time></trkpt><trkpt lat="43.90696657551668" lon="8.065329280809438"><ele>71.0</ele><time>2026-04-22T09:52:31.999Z</time></trkpt><trkpt lat="43.906844863306425" lon="8.065180857355532"><ele>71.0</ele><time>2026-04-22T09:52:32.999Z</time></trkpt><trkpt lat="43.90671860673516" lon="8.06502121759778"><ele>71.0</ele><time>2026-04-22T09:52:33.999Z</time></trkpt><trkpt lat="43.90659455109662" lon="8.06485462209901"><ele>78.0</ele><time>2026-04-22T09:52:34.998Z</time></trkpt><trkpt lat="43.906468159500776" lon="8.064680784474842"><ele>85.0</ele><time>2026-04-22T09:52:35.998Z</time></trkpt><trkpt lat="43.906339772500836" lon="8.064494619427336"><ele>92.0</ele><time>2026-04-22T09:52:36.998Z</time></trkpt><trkpt lat="43.9062072346376" lon="8.064298577592718"><ele>90.66666666666667</ele><time>2026-04-22T09:52:37.998Z</time></trkpt><trkpt lat="43.90608076674264" lon="8.064097280702144"><ele>89.33333333333333</ele><time>2026-04-22T09:52:38.998Z</time></trkpt><trkpt lat="43.905953844647506" lon="8.063894622335445"><ele>88.0</ele><time>2026-04-22T09:52:39.998Z</time></trkpt><trkpt lat="43.90583550622678" lon="8.06368461115054"><ele>88.0</ele><time>2026-04-22T09:52:40.998Z</time></trkpt><trkpt lat="43.90571520729884" lon="8.063471596602643"><ele>88.0</ele><time>2026-04-22T09:52:41.999Z</time></trkpt><trkpt lat="43.90560120957084" lon="8.063260067817867"><ele>88.0</ele><time>2026-04-22T09:52:42.999Z</time></trkpt><trkpt lat="43.905487396452564" lon="8.063051783283099"><ele>91.0</ele><time>2026-04-22T09:52:43.999Z</time></trkpt><trkpt lat="43.90537385511839" lon="8.06284258868202"><ele>94.0</ele><time>2026-04-22T09:52:44.999Z</time></trkpt><trkpt lat="43.90526215695497" lon="8.06263487902925"><ele>97.0</ele><time>2026-04-22T09:52:45.999Z</time></trkpt><trkpt lat="43.90515044468897" lon="8.062430762071337"><ele>95.66666666666667</ele><time>2026-04-22T09:52:46.999Z</time></trkpt><trkpt lat="43.90504273368593" lon="8.062229068808547"><ele>94.33333333333334</ele><time>2026-04-22T09:52:48Z</time></trkpt><trkpt lat="43.90493381644455" lon="8.062031104546945"><ele>93.0</ele><time>2026-04-22T09:52:49Z</time></trkpt><trkpt lat="43.90482537663743" lon="8.061835238569774"><ele>93.0</ele><time>2026-04-22T09:52:50Z</time></trkpt><trkpt lat="43.90471620017182" lon="8.061633839986671"><ele>93.0</ele><time>2026-04-22T09:52:51Z</time></trkpt><trkpt lat="43.904609115794635" lon="8.061432100874521"><ele>93.0</ele><time>2026-04-22T09:52:52Z</time></trkpt><trkpt lat="43.90450305341064" lon="8.06123234967536"><ele>98.33333333333334</ele><time>2026-04-22T09:52:53Z</time></trkpt><trkpt lat="43.90439313025806" lon="8.061029460172405"><ele>103.66666666666667</ele><time>2026-04-22T09:52:54Z</time></trkpt><trkpt lat="43.90428028713828" lon="8.060822625358327"><ele>109.0</ele><time>2026-04-22T09:52:55Z</time></trkpt><trkpt lat="43.90417146119618" lon="8.060625663712234"><ele>110.66666666666667</ele><time>2026-04-22T09:52:56Z</time></trkpt><trkpt lat="43.90405972779278" lon="8.060427848959764"><ele>112.33333333333334</ele><time>2026-04-22T09:52:57Z</time></trkpt><trkpt lat="43.903931385442185" lon="8.06022117936781"><ele>114.0</ele><time>2026-04-22T09:52:58Z</time></trkpt><trkpt lat="43.90380334095641" lon="8.060006979192172"><ele>117.66666666666666</ele><time>2026-04-22T09:52:59Z</time></trkpt><trkpt lat="43.90367572815321" lon="8.059800337818249"><ele>121.33333333333333</ele><time>2026-04-22T09:53:00Z</time></trkpt><trkpt lat="43.903552698150804" lon="8.05959393875953"><ele>125.0</ele><time>2026-04-22T09:53:01Z</time></trkpt><trkpt lat="43.9034250826852" lon="8.059383282159784"><ele>130.0</ele><time>2026-04-22T09:53:02Z</time></trkpt><trkpt lat="43.90329429718136" lon="8.059185440691108"><ele>135.0</ele><time>2026-04-22T09:53:03Z</time></trkpt><trkpt lat="43.903145957179134" lon="8.0589442336687"><ele>140.0</ele><time>2026-04-22T09:53:04.067Z</time></trkpt><trkpt lat="43.90300946966627" lon="8.05872064630746"><ele>107.0</ele><time>2026-04-22T09:53:05.058Z</time></trkpt><trkpt lat="43.89933326088659" lon="8.04959904356049"><ele>106.0</ele><time>2026-04-22T09:53:39.999Z</time></trkpt><trkpt lat="43.89911931788776" lon="8.049183287283386"><ele>105.0</ele><time>2026-04-22T09:53:40.999Z</time></trkpt><trkpt lat="43.89911589877745" lon="8.048919192212884"><ele>105.0</ele><time>2026-04-22T09:53:41.999Z</time></trkpt><trkpt lat="43.899138968239605" lon="8.048660630084044"><ele>105.0</ele><time>2026-04-22T09:53:42.999Z</time></trkpt><trkpt lat="43.899159803240735" lon="8.04838342844684"><ele>105.0</ele><time>2026-04-22T09:53:43.999Z</time></trkpt><trkpt lat="43.89917993788127" lon="8.048110574651409"><ele>110.0</ele><time>2026-04-22T09:53:44.999Z</time></trkpt><trkpt lat="43.89922088503303" lon="8.047846521043036"><ele>115.0</ele><time>2026-04-22T09:53:45.999Z</time></trkpt><trkpt lat="43.89926510528682" lon="8.047575404537174"><ele>120.0</ele><time>2026-04-22T09:53:46.999Z</time></trkpt><trkpt lat="43.89931483163604" lon="8.04733439754908"><ele>133.33333333333334</ele><time>2026-04-22T09:53:47.999Z</time></trkpt><trkpt lat="43.899366849780385" lon="8.047097068978802"><ele>146.66666666666669</ele><time>2026-04-22T09:53:48.999Z</time></trkpt><trkpt lat="43.89942060229837" lon="8.046870847687263"><ele>160.0</ele><time>2026-04-22T09:53:49.999Z</time></trkpt><trkpt lat="43.8994714455428" lon="8.046641627096173"><ele>160.66666666666669</ele><time>2026-04-22T09:53:50.999Z</time></trkpt><trkpt lat="43.89952289135358" lon="8.04640716891638"><ele>161.33333333333334</ele><time>2026-04-22T09:53:51.999Z</time></trkpt><trkpt lat="43.89957678158284" lon="8.046177601409166"><ele>162.0</ele><time>2026-04-22T09:53:52.999Z</time></trkpt><trkpt lat="43.899651164586096" lon="8.04596024387471"><ele>156.33333333333334</ele><time>2026-04-22T09:53:54.057Z</time></trkpt><trkpt lat="43.89972657956797" lon="8.045776755553346"><ele>150.66666666666669</ele><time>2026-04-22T09:53:55.054Z</time></trkpt><trkpt lat="43.899808357074996" lon="8.045593833025526"><ele>145.0</ele><time>2026-04-22T09:53:56.055Z</time></trkpt><trkpt lat="43.89989411540544" lon="8.04541813578314"><ele>111.0</ele><time>2026-04-22T09:53:57.051Z</time></trkpt><trkpt lat="43.90116736368334" lon="8.043758589374415"><ele>111.0</ele><time>2026-04-22T09:54:04.999Z</time></trkpt><trkpt lat="43.90133567268922" lon="8.04357684776135"><ele>111.0</ele><time>2026-04-22T09:54:05.999Z</time></trkpt><trkpt lat="43.90151886847033" lon="8.043395903465642"><ele>111.0</ele><time>2026-04-22T09:54:06.999Z</time></trkpt><trkpt lat="43.90170827044062" lon="8.043211760027926"><ele>105.5</ele><time>2026-04-22T09:54:07.999Z</time></trkpt><trkpt lat="43.90191100562546" lon="8.043020336550008"><ele>100.0</ele><time>2026-04-22T09:54:08.999Z</time></trkpt><trkpt lat="43.90212393013799" lon="8.04282832945344"><ele>100.0</ele><time>2026-04-22T09:54:09.999Z</time></trkpt><trkpt lat="43.9023451230954" lon="8.042636544606477"><ele>100.0</ele><time>2026-04-22T09:54:10.999Z</time></trkpt><trkpt lat="43.90255922127585" lon="8.042445386205237"><ele>94.5</ele><time>2026-04-22T09:54:11.999Z</time></trkpt><trkpt lat="43.90276927701985" lon="8.042255847508837"><ele>89.0</ele><time>2026-04-22T09:54:12.999Z</time></trkpt><trkpt lat="43.902979942865485" lon="8.042068490768784"><ele>89.0</ele><time>2026-04-22T09:54:13.999Z</time></trkpt><trkpt lat="43.903188658122204" lon="8.041882765513389"><ele>89.0</ele><time>2026-04-22T09:54:14.999Z</time></trkpt><trkpt lat="43.90339447680877" lon="8.041698310554331"><ele>102.0</ele><time>2026-04-22T09:54:15.999Z</time></trkpt><trkpt lat="43.90359615797624" lon="8.041512498631157"><ele>115.0</ele><time>2026-04-22T09:54:16.999Z</time></trkpt><trkpt lat="43.90379743402092" lon="8.041324966431214"><ele>115.0</ele><time>2026-04-22T09:54:17.999Z</time></trkpt><trkpt lat="43.90399148106537" lon="8.041137307918053"><ele>115.0</ele><time>2026-04-22T09:54:18.999Z</time></trkpt><trkpt lat="43.90418930591712" lon="8.04094614227208"><ele>110.5</ele><time>2026-04-22T09:54:19.999Z</time></trkpt><trkpt lat="43.90437720118876" lon="8.040751884978873"><ele>106.0</ele><time>2026-04-22T09:54:20.999Z</time></trkpt><trkpt lat="43.9045649561413" lon="8.04055251687791"><ele>106.0</ele><time>2026-04-22T09:54:21.999Z</time></trkpt><trkpt lat="43.9047430069214" lon="8.040351118018313"><ele>106.0</ele><time>2026-04-22T09:54:22.999Z</time></trkpt><trkpt lat="43.90491510583517" lon="8.040149090329754"><ele>107.5</ele><time>2026-04-22T09:54:23.999Z</time></trkpt><trkpt lat="43.90508818835587" lon="8.03994089328958"><ele>109.0</ele><time>2026-04-22T09:54:24.999Z</time></trkpt><trkpt lat="43.90525396787051" lon="8.039725013099517"><ele>109.0</ele><time>2026-04-22T09:54:25.999Z</time></trkpt><trkpt lat="43.90541620969313" lon="8.039496808228908"><ele>109.0</ele><time>2026-04-22T09:54:26.999Z</time></trkpt><trkpt lat="43.905572440696155" lon="8.039262877341768"><ele>96.0</ele><time>2026-04-22T09:54:27.999Z</time></trkpt><trkpt lat="43.90572095210944" lon="8.039023887319983"><ele>83.0</ele><time>2026-04-22T09:54:28.999Z</time></trkpt><trkpt lat="43.90586410070285" lon="8.038781103960549"><ele>81.66666666666667</ele><time>2026-04-22T09:54:29.999Z</time></trkpt><trkpt lat="43.90599931658831" lon="8.03853248918041"><ele>80.33333333333333</ele><time>2026-04-22T09:54:30.999Z</time></trkpt><trkpt lat="43.90612772244487" lon="8.038278768794049"><ele>79.0</ele><time>2026-04-22T09:54:31.999Z</time></trkpt><trkpt lat="43.906246346523254" lon="8.038017222089882"><ele>79.0</ele><time>2026-04-22T09:54:32.999Z</time></trkpt><trkpt lat="43.90635772002226" lon="8.03775260150674"><ele>79.0</ele><time>2026-04-22T09:54:33.999Z</time></trkpt><trkpt lat="43.90645612039919" lon="8.037480047555052"><ele>79.0</ele><time>2026-04-22T09:54:34.999Z</time></trkpt><trkpt lat="43.90654676407815" lon="8.037205459397061"><ele>77.66666666666666</ele><time>2026-04-22T09:54:35.999Z</time></trkpt><trkpt lat="43.906631816931494" lon="8.03692226951273"><ele>76.33333333333333</ele><time>2026-04-22T09:54:36.999Z</time></trkpt><trkpt lat="43.90670955994683" lon="8.036636340382563"><ele>75.0</ele><time>2026-04-22T09:54:37.999Z</time></trkpt><trkpt lat="43.90677767797838" lon="8.036341619058922"><ele>75.0</ele><time>2026-04-22T09:54:38.999Z</time></trkpt><trkpt lat="43.90683739744159" lon="8.036041264218161"><ele>75.0</ele><time>2026-04-22T09:54:39.999Z</time></trkpt><trkpt lat="43.90688876877964" lon="8.035733812062794"><ele>93.5</ele><time>2026-04-22T09:54:40.999Z</time></trkpt><trkpt lat="43.906929327809266" lon="8.035418063454232"><ele>112.0</ele><time>2026-04-22T09:54:41.999Z</time></trkpt><trkpt lat="43.90695994366921" lon="8.03509720155692"><ele>117.5</ele><time>2026-04-22T09:54:42.999Z</time></trkpt><trkpt lat="43.90697988809859" lon="8.034771912160918"><ele>123.0</ele><time>2026-04-22T09:54:43.999Z</time></trkpt><trkpt lat="43.90698846016425" lon="8.034445774556174"><ele>114.5</ele><time>2026-04-22T09:54:44.999Z</time></trkpt><trkpt lat="43.90698424860931" lon="8.034116231230646"><ele>106.0</ele><time>2026-04-22T09:54:45.999Z</time></trkpt><trkpt lat="43.906967530123836" lon="8.033783194085526"><ele>106.0</ele><time>2026-04-22T09:54:46.999Z</time></trkpt><trkpt lat="43.90695572057381" lon="8.033448921151537"><ele>106.0</ele><time>2026-04-22T09:54:48Z</time></trkpt><trkpt lat="43.90689636448285" lon="8.033116381288353"><ele>96.0</ele><time>2026-04-22T09:54:49Z</time></trkpt><trkpt lat="43.90685714295374" lon="8.03278562631472"><ele>86.0</ele><time>2026-04-22T09:54:50Z</time></trkpt><trkpt lat="43.90679383427656" lon="8.03244980247304"><ele>82.0</ele><time>2026-04-22T09:54:51Z</time></trkpt><trkpt lat="43.90672753893414" lon="8.032129540834381"><ele>78.0</ele><time>2026-04-22T09:54:52Z</time></trkpt><trkpt lat="43.90668790388944" lon="8.03193059742154"><ele>74.0</ele><time>2026-04-22T09:54:53Z</time></trkpt><trkpt lat="43.90668822661516" lon="8.031697390539321"><ele>75.66666666666667</ele><time>2026-04-22T09:54:54Z</time></trkpt><trkpt lat="43.90662060235732" lon="8.031421840203938"><ele>77.33333333333333</ele><time>2026-04-22T09:54:55Z</time></trkpt><trkpt lat="43.90654134035492" lon="8.031148351436201"><ele>79.0</ele><time>2026-04-22T09:54:56Z</time></trkpt><trkpt lat="43.90645086015721" lon="8.030882810621137"><ele>77.33333333333333</ele><time>2026-04-22T09:54:57Z</time></trkpt><trkpt lat="43.90635253021839" lon="8.030620255145314"><ele>75.66666666666667</ele><time>2026-04-22T09:54:58Z</time></trkpt><trkpt lat="43.90625077785797" lon="8.030361225235072"><ele>74.0</ele><time>2026-04-22T09:54:59Z</time></trkpt><trkpt lat="43.906140944748444" lon="8.030106845751613"><ele>75.33333333333334</ele><time>2026-04-22T09:55:00Z</time></trkpt><trkpt lat="43.90604902386039" lon="8.029863198751412"><ele>76.66666666666667</ele><time>2026-04-22T09:55:01Z</time></trkpt><trkpt lat="43.90592493387589" lon="8.029625479812605"><ele>78.0</ele><time>2026-04-22T09:55:02Z</time></trkpt><trkpt lat="43.905790834394466" lon="8.029403194614725"><ele>79.33333333333333</ele><time>2026-04-22T09:55:03Z</time></trkpt><trkpt lat="43.905652308343875" lon="8.029183771392239"><ele>80.66666666666666</ele><time>2026-04-22T09:55:04Z</time></trkpt><trkpt lat="43.90550684825473" lon="8.028981138985525"><ele>82.0</ele><time>2026-04-22T09:55:05Z</time></trkpt><trkpt lat="43.90535019218602" lon="8.028744243691593"><ele>82.66666666666666</ele><time>2026-04-22T09:55:06Z</time></trkpt><trkpt lat="43.90521666499237" lon="8.028527409797274"><ele>83.33333333333333</ele><time>2026-04-22T09:55:07Z</time></trkpt><trkpt lat="43.90506759085359" lon="8.028307697036007"><ele>84.0</ele><time>2026-04-22T09:55:08Z</time></trkpt><trkpt lat="43.90492207071" lon="8.028084941494292"><ele>66.5</ele><time>2026-04-22T09:55:09Z</time></trkpt><trkpt lat="43.90477436699665" lon="8.027857326551766"><ele>49.0</ele><time>2026-04-22T09:55:10Z</time></trkpt><trkpt lat="43.904602674711086" lon="8.027601843168195"><ele>49.0</ele><time>2026-04-22T09:55:11.062Z</time></trkpt><trkpt lat="43.90431854186658" lon="8.027629591484766"><ele>49.0</ele><time>2026-04-22T09:55:13Z</time></trkpt><trkpt lat="43.90416031921149" lon="8.027482809308559"><ele>38.666666666666664</ele><time>2026-04-22T09:55:14Z</time></trkpt><trkpt lat="43.90394974969223" lon="8.027383696162458"><ele>28.333333333333332</ele><time>2026-04-22T09:55:15Z</time></trkpt><trkpt lat="43.903760526025955" lon="8.027273408027629"><ele>18.0</ele><time>2026-04-22T09:55:16Z</time></trkpt><trkpt lat="43.90359387599705" lon="8.027157719589491"><ele>18.0</ele><time>2026-04-22T09:55:17Z</time></trkpt><trkpt lat="43.90341526779788" lon="8.027060991324824"><ele>18.0</ele><time>2026-04-22T09:55:18Z</time></trkpt><trkpt lat="43.903238525627145" lon="8.026981200571441"><ele>18.0</ele><time>2026-04-22T09:55:19Z</time></trkpt><trkpt lat="43.903059708149456" lon="8.026908553900975"><ele>17.666666666666668</ele><time>2026-04-22T09:55:20Z</time></trkpt><trkpt lat="43.902871104847826" lon="8.0268520880739"><ele>17.333333333333336</ele><time>2026-04-22T09:55:21Z</time></trkpt><trkpt lat="43.902685522913686" lon="8.026798537726034"><ele>17.0</ele><time>2026-04-22T09:55:22Z</time></trkpt><trkpt lat="43.90249907853146" lon="8.026746642230302"><ele>16.666666666666668</ele><time>2026-04-22T09:55:23Z</time></trkpt><trkpt lat="43.90231496141572" lon="8.026709760772706"><ele>16.333333333333332</ele><time>2026-04-22T09:55:24Z</time></trkpt><trkpt lat="43.902128017208845" lon="8.026686889916359"><ele>16.0</ele><time>2026-04-22T09:55:25Z</time></trkpt><trkpt lat="43.90193732502594" lon="8.026662405778618"><ele>19.0</ele><time>2026-04-22T09:55:26Z</time></trkpt><trkpt lat="43.901743176852996" lon="8.026643830020134"><ele>22.0</ele><time>2026-04-22T09:55:27Z</time></trkpt><trkpt lat="43.90154651093127" lon="8.026638720783403"><ele>25.0</ele><time>2026-04-22T09:55:28Z</time></trkpt><trkpt lat="43.90135532472569" lon="8.026637042896756"><ele>24.333333333333336</ele><time>2026-04-22T09:55:29Z</time></trkpt><trkpt lat="43.901158221454665" lon="8.026649078693094"><ele>23.666666666666668</ele><time>2026-04-22T09:55:30Z</time></trkpt><trkpt lat="43.90095079093664" lon="8.026668790879432"><ele>23.0</ele><time>2026-04-22T09:55:31Z</time></trkpt><trkpt lat="43.90073327925029" lon="8.026695938412393"><ele>23.0</ele><time>2026-04-22T09:55:32Z</time></trkpt><trkpt lat="43.900509995082736" lon="8.026740043003453"><ele>23.0</ele><time>2026-04-22T09:55:33Z</time></trkpt><trkpt lat="43.90028112100268" lon="8.026789951898952"><ele>42.0</ele><time>2026-04-22T09:55:34Z</time></trkpt><trkpt lat="43.90004813633089" lon="8.026853308433544"><ele>61.0</ele><time>2026-04-22T09:55:35Z</time></trkpt><trkpt lat="43.89980766025792" lon="8.026911255837044"><ele>61.0</ele><time>2026-04-22T09:55:36Z</time></trkpt><trkpt lat="43.89956035157247" lon="8.02698975219651"><ele>61.0</ele><time>2026-04-22T09:55:37Z</time></trkpt><trkpt lat="43.89931098038144" lon="8.027071568397963"><ele>75.0</ele><time>2026-04-22T09:55:38Z</time></trkpt><trkpt lat="43.89905557313053" lon="8.027152928932775"><ele>89.0</ele><time>2026-04-22T09:55:39Z</time></trkpt><trkpt lat="43.898793979100475" lon="8.02723712091038"><ele>89.0</ele><time>2026-04-22T09:55:40Z</time></trkpt><trkpt lat="43.89852758464121" lon="8.027325023002986"><ele>89.0</ele><time>2026-04-22T09:55:41Z</time></trkpt><trkpt lat="43.89826007088496" lon="8.027411948727938"><ele>89.0</ele><time>2026-04-22T09:55:42Z</time></trkpt><trkpt lat="43.89799932988712" lon="8.02749112939672"><ele>89.0</ele><time>2026-04-22T09:55:43Z</time></trkpt><trkpt lat="43.897748410260775" lon="8.027564881629381"><ele>89.5</ele><time>2026-04-22T09:55:44Z</time></trkpt><trkpt lat="43.89750894985032" lon="8.027629886669855"><ele>90.0</ele><time>2026-04-22T09:55:45Z</time></trkpt><trkpt lat="43.897281215738104" lon="8.027689975244837"><ele>90.0</ele><time>2026-04-22T09:55:46Z</time></trkpt><trkpt lat="43.89706175243637" lon="8.027744205451578"><ele>90.0</ele><time>2026-04-22T09:55:47Z</time></trkpt><trkpt lat="43.8968438956534" lon="8.027797292256018"><ele>90.0</ele><time>2026-04-22T09:55:48Z</time></trkpt><trkpt lat="43.89662682375419" lon="8.027848074032505"><ele>93.66666666666666</ele><time>2026-04-22T09:55:49Z</time></trkpt><trkpt lat="43.896410553500345" lon="8.027901635651158"><ele>97.33333333333333</ele><time>2026-04-22T09:55:50Z</time></trkpt><trkpt lat="43.896196571302966" lon="8.02795122064197"><ele>101.0</ele><time>2026-04-22T09:55:51Z</time></trkpt><trkpt lat="43.89598893790984" lon="8.027997750086161"><ele>104.0</ele><time>2026-04-22T09:55:52Z</time></trkpt><trkpt lat="43.895783184789956" lon="8.02803971691065"><ele>107.0</ele><time>2026-04-22T09:55:53Z</time></trkpt><trkpt lat="43.89558021736908" lon="8.028075881481497"><ele>110.0</ele><time>2026-04-22T09:55:54Z</time></trkpt><trkpt lat="43.895375501725596" lon="8.028114090840514"><ele>110.0</ele><time>2026-04-22T09:55:55Z</time></trkpt><trkpt lat="43.89517157474652" lon="8.028138110199205"><ele>110.0</ele><time>2026-04-22T09:55:56Z</time></trkpt><trkpt lat="43.894963745190395" lon="8.028153253420832"><ele>110.0</ele><time>2026-04-22T09:55:57Z</time></trkpt><trkpt lat="43.89475690645967" lon="8.028158055368168"><ele>117.0</ele><time>2026-04-22T09:55:58Z</time></trkpt><trkpt lat="43.89452019286661" lon="8.028198707822009"><ele>124.0</ele><time>2026-04-22T09:55:59Z</time></trkpt><trkpt lat="43.89433739281007" lon="8.028231897413562"><ele>131.0</ele><time>2026-04-22T09:56:00Z</time></trkpt><trkpt lat="43.89410909835506" lon="8.028202162350238"><ele>133.33333333333331</ele><time>2026-04-22T09:56:01Z</time></trkpt><trkpt lat="43.89391422951751" lon="8.028181527167897"><ele>135.66666666666666</ele><time>2026-04-22T09:56:02Z</time></trkpt><trkpt lat="43.89371783485047" lon="8.02816956575926"><ele>138.0</ele><time>2026-04-22T09:56:03Z</time></trkpt><trkpt lat="43.89351928817727" lon="8.028139472182152"><ele>137.33333333333334</ele><time>2026-04-22T09:56:04Z</time></trkpt><trkpt lat="43.89331869820187" lon="8.028127344148276"><ele>136.66666666666669</ele><time>2026-04-22T09:56:05Z</time></trkpt><trkpt lat="43.89312608322572" lon="8.028115864901308"><ele>136.0</ele><time>2026-04-22T09:56:06Z</time></trkpt><trkpt lat="43.89293331102925" lon="8.028056452130144"><ele>113.0</ele><time>2026-04-22T09:56:07.056Z</time></trkpt><trkpt lat="43.89223260679711" lon="8.02766422451132"><ele>113.0</ele><time>2026-04-22T09:56:11Z</time></trkpt><trkpt lat="43.89206215647272" lon="8.02755877211848"><ele>113.0</ele><time>2026-04-22T09:56:12Z</time></trkpt><trkpt lat="43.89191420689293" lon="8.027363399315963"><ele>113.0</ele><time>2026-04-22T09:56:13Z</time></trkpt><trkpt lat="43.8917510060031" lon="8.027212685787093"><ele>113.66666666666666</ele><time>2026-04-22T09:56:14Z</time></trkpt><trkpt lat="43.8915841517124" lon="8.027059037513785"><ele>114.33333333333334</ele><time>2026-04-22T09:56:15Z</time></trkpt><trkpt lat="43.89142583261411" lon="8.026890012295091"><ele>115.0</ele><time>2026-04-22T09:56:16Z</time></trkpt><trkpt lat="43.89125814005542" lon="8.026720257948158"><ele>121.66666666666667</ele><time>2026-04-22T09:56:17Z</time></trkpt><trkpt lat="43.891112998418976" lon="8.02654258965482"><ele>128.33333333333334</ele><time>2026-04-22T09:56:18Z</time></trkpt><trkpt lat="43.89097570649447" lon="8.026329236449856"><ele>135.0</ele><time>2026-04-22T09:56:19Z</time></trkpt><trkpt lat="43.89085112086164" lon="8.02609331273626"><ele>135.0</ele><time>2026-04-22T09:56:20Z</time></trkpt><trkpt lat="43.890734078087476" lon="8.02585138960452"><ele>135.0</ele><time>2026-04-22T09:56:21Z</time></trkpt><trkpt lat="43.89061845374733" lon="8.025622941203626"><ele>135.0</ele><time>2026-04-22T09:56:22Z</time></trkpt><trkpt lat="43.890494720249684" lon="8.025392438933826"><ele>135.0</ele><time>2026-04-22T09:56:23Z</time></trkpt><trkpt lat="43.890374465950295" lon="8.025165621220296"><ele>135.0</ele><time>2026-04-22T09:56:24Z</time></trkpt><trkpt lat="43.890269637918244" lon="8.02492472174151"><ele>135.0</ele><time>2026-04-22T09:56:25Z</time></trkpt><trkpt lat="43.890133375519795" lon="8.024508974908771"><ele>121.5</ele><time>2026-04-22T09:56:26Z</time></trkpt><trkpt lat="43.89006979943804" lon="8.024144095248607"><ele>108.0</ele><time>2026-04-22T09:56:27Z</time></trkpt><trkpt lat="43.88999065064403" lon="8.023808847246183"><ele>108.0</ele><time>2026-04-22T09:56:28Z</time></trkpt><trkpt lat="43.88990768286231" lon="8.02349318431299"><ele>108.0</ele><time>2026-04-22T09:56:29Z</time></trkpt><trkpt lat="43.88983583789579" lon="8.023156797357965"><ele>112.0</ele><time>2026-04-22T09:56:30Z</time></trkpt><trkpt lat="43.88976768947776" lon="8.022818928245249"><ele>116.0</ele><time>2026-04-22T09:56:31Z</time></trkpt><trkpt lat="43.88970246876198" lon="8.022486022809277"><ele>121.5</ele><time>2026-04-22T09:56:32Z</time></trkpt><trkpt lat="43.889636603358326" lon="8.022152320826914"><ele>127.0</ele><time>2026-04-22T09:56:33Z</time></trkpt><trkpt lat="43.88956943574761" lon="8.021818172973338"><ele>129.0</ele><time>2026-04-22T09:56:34Z</time></trkpt><trkpt lat="43.88950499263586" lon="8.021481199927184"><ele>131.0</ele><time>2026-04-22T09:56:35Z</time></trkpt><trkpt lat="43.88944170281508" lon="8.021140654836087"><ele>124.5</ele><time>2026-04-22T09:56:35.999Z</time></trkpt><trkpt lat="43.88937720796175" lon="8.020798674472411"><ele>118.0</ele><time>2026-04-22T09:56:36.999Z</time></trkpt><trkpt lat="43.889313540112404" lon="8.020454702462285"><ele>107.0</ele><time>2026-04-22T09:56:37.999Z</time></trkpt><trkpt lat="43.889252329489466" lon="8.020108615720087"><ele>96.0</ele><time>2026-04-22T09:56:38.999Z</time></trkpt><trkpt lat="43.88919441960226" lon="8.019756731625323"><ele>91.0</ele><time>2026-04-22T09:56:39.999Z</time></trkpt><trkpt lat="43.88913816928546" lon="8.01941484114591"><ele>86.0</ele><time>2026-04-22T09:56:40.999Z</time></trkpt><trkpt lat="43.88908466950173" lon="8.019081266111444"><ele>86.0</ele><time>2026-04-22T09:56:41.999Z</time></trkpt><trkpt lat="43.889029649927586" lon="8.018748860838102"><ele>86.0</ele><time>2026-04-22T09:56:42.999Z</time></trkpt><trkpt lat="43.88897207461071" lon="8.018421906844354"><ele>94.0</ele><time>2026-04-22T09:56:43.999Z</time></trkpt><trkpt lat="43.888912171160314" lon="8.018097839956484"><ele>102.0</ele><time>2026-04-22T09:56:44.999Z</time></trkpt><trkpt lat="43.88884972014267" lon="8.017776564531328"><ele>108.5</ele><time>2026-04-22T09:56:45.999Z</time></trkpt><trkpt lat="43.88878483722914" lon="8.017456919797574"><ele>115.0</ele><time>2026-04-22T09:56:46.999Z</time></trkpt><trkpt lat="43.88871557739469" lon="8.017139137881744"><ele>115.0</ele><time>2026-04-22T09:56:47.999Z</time></trkpt><trkpt lat="43.88863914940814" lon="8.016812746555427"><ele>115.0</ele><time>2026-04-22T09:56:48.999Z</time></trkpt><trkpt lat="43.88856009904495" lon="8.016486635779401"><ele>118.0</ele><time>2026-04-22T09:56:49.999Z</time></trkpt><trkpt lat="43.88847606048169" lon="8.016193201773145"><ele>121.0</ele><time>2026-04-22T09:56:50.999Z</time></trkpt><trkpt lat="43.88838785396048" lon="8.015888136358688"><ele>121.0</ele><time>2026-04-22T09:56:51.999Z</time></trkpt><trkpt lat="43.88829632158812" lon="8.01557944867421"><ele>121.0</ele><time>2026-04-22T09:56:52.999Z</time></trkpt><trkpt lat="43.88820492856523" lon="8.015256771263184"><ele>117.0</ele><time>2026-04-22T09:56:54.001Z</time></trkpt><trkpt lat="43.888113162671104" lon="8.014965385781382"><ele>113.0</ele><time>2026-04-22T09:56:55.001Z</time></trkpt><trkpt lat="43.88802132512647" lon="8.014668100105439"><ele>113.0</ele><time>2026-04-22T09:56:56.001Z</time></trkpt><trkpt lat="43.88792974820111" lon="8.014354054640725"><ele>113.0</ele><time>2026-04-22T09:56:57.001Z</time></trkpt><trkpt lat="43.88783021462039" lon="8.01403506358521"><ele>85.0</ele><time>2026-04-22T09:56:58.065Z</time></trkpt><trkpt lat="43.88747259335791" lon="8.013166581026379"><ele>85.0</ele><time>2026-04-22T09:57:00.001Z</time></trkpt><trkpt lat="43.88738123196532" lon="8.01282314159402"><ele>85.0</ele><time>2026-04-22T09:57:01.001Z</time></trkpt><trkpt lat="43.887255906830646" lon="8.012500653694817"><ele>82.5</ele><time>2026-04-22T09:57:02.001Z</time></trkpt><trkpt lat="43.88712184786146" lon="8.012179611573409"><ele>80.0</ele><time>2026-04-22T09:57:03.001Z</time></trkpt><trkpt lat="43.886987489084994" lon="8.011873854328513"><ele>71.0</ele><time>2026-04-22T09:57:04.001Z</time></trkpt><trkpt lat="43.886846065611856" lon="8.011569685012683"><ele>62.0</ele><time>2026-04-22T09:57:05Z</time></trkpt><trkpt lat="43.88670439801536" lon="8.011272403837511"><ele>60.5</ele><time>2026-04-22T09:57:06Z</time></trkpt><trkpt lat="43.88655683541978" lon="8.010976709970386"><ele>59.0</ele><time>2026-04-22T09:57:07Z</time></trkpt><trkpt lat="43.88640606493335" lon="8.010686325817009"><ele>57.0</ele><time>2026-04-22T09:57:08Z</time></trkpt><trkpt lat="43.8862536935526" lon="8.010394993863855"><ele>55.0</ele><time>2026-04-22T09:57:09Z</time></trkpt><trkpt lat="43.88609464260992" lon="8.010104124933596"><ele>64.5</ele><time>2026-04-22T09:57:10Z</time></trkpt><trkpt lat="43.88593434743562" lon="8.00981939877342"><ele>74.0</ele><time>2026-04-22T09:57:11Z</time></trkpt><trkpt lat="43.88576897229861" lon="8.009533023826304"><ele>77.0</ele><time>2026-04-22T09:57:12Z</time></trkpt><trkpt lat="43.885605555822984" lon="8.009256877334462"><ele>80.0</ele><time>2026-04-22T09:57:13Z</time></trkpt><trkpt lat="43.88543912419073" lon="8.008976838965216"><ele>95.5</ele><time>2026-04-22T09:57:14Z</time></trkpt><trkpt lat="43.88526752272044" lon="8.008678822378208"><ele>111.0</ele><time>2026-04-22T09:57:15Z</time></trkpt><trkpt lat="43.88509742348494" lon="8.008382225536444"><ele>110.0</ele><time>2026-04-22T09:57:16Z</time></trkpt><trkpt lat="43.884929354128" lon="8.008067630499314"><ele>109.0</ele><time>2026-04-22T09:57:17Z</time></trkpt><trkpt lat="43.88476009202367" lon="8.00775984217178"><ele>106.0</ele><time>2026-04-22T09:57:18Z</time></trkpt><trkpt lat="43.88459239672747" lon="8.007466423687035"><ele>103.0</ele><time>2026-04-22T09:57:19Z</time></trkpt><trkpt lat="43.88441062710561" lon="8.007177800781077"><ele>95.5</ele><time>2026-04-22T09:57:20Z</time></trkpt><trkpt lat="43.88422149765199" lon="8.00686852865231"><ele>88.0</ele><time>2026-04-22T09:57:21.068Z</time></trkpt><trkpt lat="43.883616193845356" lon="8.006034198118709"><ele>87.5</ele><time>2026-04-22T09:57:25Z</time></trkpt><trkpt lat="43.88343774827997" lon="8.005763847612123"><ele>87.0</ele><time>2026-04-22T09:57:26Z</time></trkpt><trkpt lat="43.88324854973092" lon="8.005488886616725"><ele>81.5</ele><time>2026-04-22T09:57:27Z</time></trkpt><trkpt lat="43.88306791233246" lon="8.005205320544729"><ele>76.0</ele><time>2026-04-22T09:57:28Z</time></trkpt><trkpt lat="43.88288072590679" lon="8.004905959695638"><ele>76.0</ele><time>2026-04-22T09:57:29Z</time></trkpt><trkpt lat="43.88269938855976" lon="8.004613719395527"><ele>76.0</ele><time>2026-04-22T09:57:30Z</time></trkpt><trkpt lat="43.88251733266561" lon="8.004317200868323"><ele>70.5</ele><time>2026-04-22T09:57:31Z</time></trkpt><trkpt lat="43.8823406223438" lon="8.004025430944514"><ele>65.0</ele><time>2026-04-22T09:57:32Z</time></trkpt><trkpt lat="43.88216125029598" lon="8.003737868151559"><ele>65.0</ele><time>2026-04-22T09:57:33Z</time></trkpt><trkpt lat="43.8819868344464" lon="8.003456094263703"><ele>65.0</ele><time>2026-04-22T09:57:34Z</time></trkpt><trkpt lat="43.881811365344106" lon="8.003174614615846"><ele>52.0</ele><time>2026-04-22T09:57:35Z</time></trkpt><trkpt lat="43.881640617429014" lon="8.002900630273594"><ele>39.0</ele><time>2026-04-22T09:57:36Z</time></trkpt><trkpt lat="43.88147108991506" lon="8.002620087063606"><ele>36.5</ele><time>2026-04-22T09:57:37Z</time></trkpt><trkpt lat="43.88130817517414" lon="8.00235108759517"><ele>34.0</ele><time>2026-04-22T09:57:38Z</time></trkpt><trkpt lat="43.88114412370811" lon="8.002080157997193"><ele>34.0</ele><time>2026-04-22T09:57:39Z</time></trkpt><trkpt lat="43.88097983312953" lon="8.00181063748975"><ele>34.0</ele><time>2026-04-22T09:57:40Z</time></trkpt><trkpt lat="43.88081650164901" lon="8.001543893410025"><ele>27.0</ele><time>2026-04-22T09:57:41Z</time></trkpt><trkpt lat="43.88065154279941" lon="8.001275069820068"><ele>20.0</ele><time>2026-04-22T09:57:42Z</time></trkpt><trkpt lat="43.88048843948307" lon="8.001008967946493"><ele>19.0</ele><time>2026-04-22T09:57:43Z</time></trkpt><trkpt lat="43.880323437455665" lon="8.000738079283837"><ele>18.0</ele><time>2026-04-22T09:57:44Z</time></trkpt><trkpt lat="43.88015815090059" lon="8.0004690776748"><ele>17.0</ele><time>2026-04-22T09:57:45Z</time></trkpt><trkpt lat="43.879992265370944" lon="8.00019874771413"><ele>16.0</ele><time>2026-04-22T09:57:46Z</time></trkpt><trkpt lat="43.87982604671292" lon="7.999924591822618"><ele>16.0</ele><time>2026-04-22T09:57:47Z</time></trkpt><trkpt lat="43.879656578916304" lon="7.999643233902281"><ele>16.0</ele><time>2026-04-22T09:57:48Z</time></trkpt><trkpt lat="43.879489103468494" lon="7.999370242737269"><ele>16.0</ele><time>2026-04-22T09:57:49Z</time></trkpt><trkpt lat="43.87931782946726" lon="7.999085777489111"><ele>16.0</ele><time>2026-04-22T09:57:50Z</time></trkpt><trkpt lat="43.879144968058554" lon="7.998800517461902"><ele>19.5</ele><time>2026-04-22T09:57:51Z</time></trkpt><trkpt lat="43.87897382808786" lon="7.998524184780255"><ele>23.0</ele><time>2026-04-22T09:57:52Z</time></trkpt><trkpt lat="43.878804310720206" lon="7.998253396560823"><ele>23.0</ele><time>2026-04-22T09:57:53Z</time></trkpt><trkpt lat="43.878632382792404" lon="7.9979883530840405"><ele>23.0</ele><time>2026-04-22T09:57:54Z</time></trkpt><trkpt lat="43.87845608575787" lon="7.9977354471751845"><ele>35.0</ele><time>2026-04-22T09:57:55Z</time></trkpt><trkpt lat="43.87827659223621" lon="7.997493178655207"><ele>47.0</ele><time>2026-04-22T09:57:56Z</time></trkpt><trkpt lat="43.87809648798173" lon="7.997258937644696"><ele>47.0</ele><time>2026-04-22T09:57:57Z</time></trkpt><trkpt lat="43.87791813046965" lon="7.997030373473538"><ele>47.0</ele><time>2026-04-22T09:57:58Z</time></trkpt><trkpt lat="43.877729478680536" lon="7.996808900220462"><ele>47.5</ele><time>2026-04-22T09:57:59Z</time></trkpt><trkpt lat="43.87753391777949" lon="7.996605029782108"><ele>48.0</ele><time>2026-04-22T09:58:00Z</time></trkpt><trkpt lat="43.87732799778912" lon="7.996398460326956"><ele>48.0</ele><time>2026-04-22T09:58:01Z</time></trkpt><trkpt lat="43.87712103646856" lon="7.9961935666137345"><ele>48.0</ele><time>2026-04-22T09:58:02Z</time></trkpt><trkpt lat="43.87691919314055" lon="7.995994336489868"><ele>40.5</ele><time>2026-04-22T09:58:03Z</time></trkpt><trkpt lat="43.87671605220149" lon="7.995804745225434"><ele>33.0</ele><time>2026-04-22T09:58:04Z</time></trkpt><trkpt lat="43.876508386019786" lon="7.995624076979041"><ele>33.0</ele><time>2026-04-22T09:58:05Z</time></trkpt><trkpt lat="43.87629760937006" lon="7.995447689411616"><ele>33.0</ele><time>2026-04-22T09:58:06Z</time></trkpt><trkpt lat="43.8760810846943" lon="7.995266979156814"><ele>28.5</ele><time>2026-04-22T09:58:07Z</time></trkpt><trkpt lat="43.875863988280294" lon="7.995084989856765"><ele>24.0</ele><time>2026-04-22T09:58:08Z</time></trkpt><trkpt lat="43.87564469946683" lon="7.9949007169954545"><ele>22.0</ele><time>2026-04-22T09:58:09Z</time></trkpt><trkpt lat="43.87541844141104" lon="7.994712494979351"><ele>20.0</ele><time>2026-04-22T09:58:10Z</time></trkpt><trkpt lat="43.87519096453047" lon="7.994523131692046"><ele>16.0</ele><time>2026-04-22T09:58:11Z</time></trkpt><trkpt lat="43.87496261072106" lon="7.994331534558728"><ele>12.0</ele><time>2026-04-22T09:58:12Z</time></trkpt><trkpt lat="43.874737327898124" lon="7.994143076880488"><ele>11.5</ele><time>2026-04-22T09:58:13Z</time></trkpt><trkpt lat="43.87451395749332" lon="7.993957272004314"><ele>11.0</ele><time>2026-04-22T09:58:14Z</time></trkpt><trkpt lat="43.87429008592935" lon="7.993772465200276"><ele>9.5</ele><time>2026-04-22T09:58:15Z</time></trkpt><trkpt lat="43.87406360732886" lon="7.993585017909554"><ele>8.0</ele><time>2026-04-22T09:58:16Z</time></trkpt><trkpt lat="43.87383612559997" lon="7.993395357103139"><ele>8.0</ele><time>2026-04-22T09:58:17Z</time></trkpt><trkpt lat="43.8736130811104" lon="7.993208260861144"><ele>8.0</ele><time>2026-04-22T09:58:17.999Z</time></trkpt><trkpt lat="43.87339378937235" lon="7.99302486457867"><ele>10.5</ele><time>2026-04-22T09:58:18.999Z</time></trkpt><trkpt lat="43.873181037328706" lon="7.992844516448476"><ele>13.0</ele><time>2026-04-22T09:58:19.999Z</time></trkpt><trkpt lat="43.87297205166805" lon="7.992667607990141"><ele>15.5</ele><time>2026-04-22T09:58:20.999Z</time></trkpt><trkpt lat="43.872771338675975" lon="7.992497018284428"><ele>18.0</ele><time>2026-04-22T09:58:21.999Z</time></trkpt><trkpt lat="43.87257501633313" lon="7.99232330544816"><ele>27.0</ele><time>2026-04-22T09:58:22.999Z</time></trkpt><trkpt lat="43.87238152627342" lon="7.992148146293137"><ele>36.0</ele><time>2026-04-22T09:58:23.999Z</time></trkpt><trkpt lat="43.8721871536131" lon="7.991975454722425"><ele>36.0</ele><time>2026-04-22T09:58:24.999Z</time></trkpt><trkpt lat="43.87199664441274" lon="7.9918080633188175"><ele>36.0</ele><time>2026-04-22T09:58:25.999Z</time></trkpt><trkpt lat="43.871807871739314" lon="7.9916431044018275"><ele>36.0</ele><time>2026-04-22T09:58:26.999Z</time></trkpt><trkpt lat="43.87162550395013" lon="7.991477503600287"><ele>40.0</ele><time>2026-04-22T09:58:27.999Z</time></trkpt><trkpt lat="43.87144746649305" lon="7.991303257054023"><ele>44.0</ele><time>2026-04-22T09:58:28.999Z</time></trkpt><trkpt lat="43.87126651834112" lon="7.991124707710723"><ele>48.0</ele><time>2026-04-22T09:58:29.999Z</time></trkpt><trkpt lat="43.87109012485401" lon="7.990936757007631"><ele>54.66666666666667</ele><time>2026-04-22T09:58:30.999Z</time></trkpt><trkpt lat="43.870917010020584" lon="7.990745174637471"><ele>61.333333333333336</ele><time>2026-04-22T09:58:31.999Z</time></trkpt><trkpt lat="43.87074339808694" lon="7.990548943140338"><ele>68.0</ele><time>2026-04-22T09:58:32.999Z</time></trkpt><trkpt lat="43.870571888006005" lon="7.990348948187634"><ele>68.0</ele><time>2026-04-22T09:58:33.999Z</time></trkpt><trkpt lat="43.87040622530406" lon="7.990146898814393"><ele>68.0</ele><time>2026-04-22T09:58:34.999Z</time></trkpt><trkpt lat="43.87024683660576" lon="7.989943131671355"><ele>68.0</ele><time>2026-04-22T09:58:35.999Z</time></trkpt><trkpt lat="43.87009304739819" lon="7.989735631758474"><ele>74.0</ele><time>2026-04-22T09:58:36.999Z</time></trkpt><trkpt lat="43.869946034555895" lon="7.9895252848062634"><ele>80.0</ele><time>2026-04-22T09:58:37.999Z</time></trkpt><trkpt lat="43.86980213104994" lon="7.989303540216407"><ele>86.0</ele><time>2026-04-22T09:58:38.999Z</time></trkpt><trkpt lat="43.86965737715847" lon="7.98907704604627"><ele>86.66666666666667</ele><time>2026-04-22T09:58:39.999Z</time></trkpt><trkpt lat="43.86951573360101" lon="7.988844349471173"><ele>87.33333333333333</ele><time>2026-04-22T09:58:40.999Z</time></trkpt><trkpt lat="43.86937646160869" lon="7.9886075388367646"><ele>88.0</ele><time>2026-04-22T09:58:41.999Z</time></trkpt><trkpt lat="43.86923806956541" lon="7.988366188941161"><ele>109.0</ele><time>2026-04-22T09:58:42.999Z</time></trkpt><trkpt lat="43.86910201882182" lon="7.988119122234417"><ele>130.0</ele><time>2026-04-22T09:58:43.999Z</time></trkpt><trkpt lat="43.86895884791669" lon="7.987846283214661"><ele>130.0</ele><time>2026-04-22T09:58:45.067Z</time></trkpt><trkpt lat="43.86882608633124" lon="7.987588965669431"><ele>130.0</ele><time>2026-04-22T09:58:46.061Z</time></trkpt><trkpt lat="43.86747878031112" lon="7.983780713759513"><ele>110.5</ele><time>2026-04-22T09:58:59.999Z</time></trkpt><trkpt lat="43.86736660061898" lon="7.983469562858616"><ele>91.0</ele><time>2026-04-22T09:59:00.999Z</time></trkpt><trkpt lat="43.86723044814559" lon="7.9832188086679166"><ele>90.33333333333333</ele><time>2026-04-22T09:59:01.999Z</time></trkpt><trkpt lat="43.867129638095875" lon="7.982942791222041"><ele>89.66666666666667</ele><time>2026-04-22T09:59:02.999Z</time></trkpt><trkpt lat="43.86703578984057" lon="7.982670974174686"><ele>89.0</ele><time>2026-04-22T09:59:03.999Z</time></trkpt><trkpt lat="43.866939919078504" lon="7.982403613883697"><ele>89.0</ele><time>2026-04-22T09:59:04.999Z</time></trkpt><trkpt lat="43.866840848888174" lon="7.9821297498388"><ele>89.0</ele><time>2026-04-22T09:59:06Z</time></trkpt><trkpt lat="43.86674264354889" lon="7.981855120081688"><ele>89.0</ele><time>2026-04-22T09:59:07Z</time></trkpt><trkpt lat="43.86664902577532" lon="7.981581035787043"><ele>92.33333333333334</ele><time>2026-04-22T09:59:08Z</time></trkpt><trkpt lat="43.86655369536302" lon="7.981299888140172"><ele>95.66666666666667</ele><time>2026-04-22T09:59:09Z</time></trkpt><trkpt lat="43.866457636965286" lon="7.981019094621617"><ele>99.0</ele><time>2026-04-22T09:59:10Z</time></trkpt><trkpt lat="43.86636257515142" lon="7.980735863845783"><ele>106.33333333333334</ele><time>2026-04-22T09:59:11Z</time></trkpt><trkpt lat="43.86626997583793" lon="7.980452338916527"><ele>113.66666666666667</ele><time>2026-04-22T09:59:12Z</time></trkpt><trkpt lat="43.866178750505426" lon="7.9801672743439"><ele>121.0</ele><time>2026-04-22T09:59:13Z</time></trkpt><trkpt lat="43.86608957647595" lon="7.979879905015612"><ele>131.0</ele><time>2026-04-22T09:59:14Z</time></trkpt><trkpt lat="43.86600121066854" lon="7.9795841791226305"><ele>141.0</ele><time>2026-04-22T09:59:15Z</time></trkpt><trkpt lat="43.86590788362251" lon="7.979265597506557"><ele>147.5</ele><time>2026-04-22T09:59:16.055Z</time></trkpt><trkpt lat="43.86579411797291" lon="7.9789908043168065"><ele>154.0</ele><time>2026-04-22T09:59:17.055Z</time></trkpt><trkpt lat="43.86569532946753" lon="7.978711775552877"><ele>154.0</ele><time>2026-04-22T09:59:18.06Z</time></trkpt><trkpt lat="43.865598869028325" lon="7.97843932241888"><ele>154.0</ele><time>2026-04-22T09:59:19.046Z</time></trkpt><trkpt lat="43.86444707139543" lon="7.975638190504913"><ele>132.66666666666669</ele><time>2026-04-22T09:59:30Z</time></trkpt><trkpt lat="43.86434888158274" lon="7.9753846420071595"><ele>111.33333333333334</ele><time>2026-04-22T09:59:31Z</time></trkpt><trkpt lat="43.86425911487559" lon="7.975146018587111"><ele>90.0</ele><time>2026-04-22T09:59:32Z</time></trkpt><trkpt lat="43.864171079470644" lon="7.9748920038319415"><ele>91.33333333333333</ele><time>2026-04-22T09:59:33Z</time></trkpt><trkpt lat="43.86408539513299" lon="7.974638767742622"><ele>92.66666666666666</ele><time>2026-04-22T09:59:34Z</time></trkpt><trkpt lat="43.86400279993132" lon="7.974378194644846"><ele>94.0</ele><time>2026-04-22T09:59:35Z</time></trkpt><trkpt lat="43.86393287285905" lon="7.974120753098415"><ele>94.0</ele><time>2026-04-22T09:59:36Z</time></trkpt><trkpt lat="43.8638651360193" lon="7.973854504615023"><ele>94.0</ele><time>2026-04-22T09:59:37Z</time></trkpt><trkpt lat="43.86380156984893" lon="7.9735895009743025"><ele>94.0</ele><time>2026-04-22T09:59:38Z</time></trkpt><trkpt lat="43.86374153075005" lon="7.973322583812449"><ele>96.33333333333333</ele><time>2026-04-22T09:59:39Z</time></trkpt><trkpt lat="43.863688154810156" lon="7.973056207747628"><ele>98.66666666666666</ele><time>2026-04-22T09:59:40Z</time></trkpt><trkpt lat="43.86363672608981" lon="7.972788263223399"><ele>101.0</ele><time>2026-04-22T09:59:41Z</time></trkpt><trkpt lat="43.86358845205638" lon="7.972517453722385"><ele>101.66666666666666</ele><time>2026-04-22T09:59:42Z</time></trkpt><trkpt lat="43.86354473292021" lon="7.972246536352896"><ele>102.33333333333334</ele><time>2026-04-22T09:59:43Z</time></trkpt><trkpt lat="43.86350543330808" lon="7.971974147887023"><ele>103.0</ele><time>2026-04-22T09:59:44Z</time></trkpt><trkpt lat="43.86347040689286" lon="7.971702609360666"><ele>94.0</ele><time>2026-04-22T09:59:45Z</time></trkpt><trkpt lat="43.86343953080529" lon="7.971429529275248"><ele>85.0</ele><time>2026-04-22T09:59:46Z</time></trkpt><trkpt lat="43.863414482608306" lon="7.9711612184516145"><ele>76.0</ele><time>2026-04-22T09:59:47Z</time></trkpt><trkpt lat="43.863395386527465" lon="7.970890742652774"><ele>72.33333333333333</ele><time>2026-04-22T09:59:48Z</time></trkpt><trkpt lat="43.86338756915228" lon="7.970622078639654"><ele>68.66666666666667</ele><time>2026-04-22T09:59:49Z</time></trkpt><trkpt lat="43.863395685821686" lon="7.970359305935032"><ele>65.0</ele><time>2026-04-22T09:59:50Z</time></trkpt><trkpt lat="43.86335953724842" lon="7.97008974889572"><ele>62.333333333333336</ele><time>2026-04-22T09:59:51Z</time></trkpt><trkpt lat="43.863356608050374" lon="7.969827336199529"><ele>59.66666666666667</ele><time>2026-04-22T09:59:52Z</time></trkpt><trkpt lat="43.863351336274185" lon="7.9695636152606"><ele>57.0</ele><time>2026-04-22T09:59:53Z</time></trkpt><trkpt lat="43.863345125855645" lon="7.969304389296904"><ele>53.333333333333336</ele><time>2026-04-22T09:59:54Z</time></trkpt><trkpt lat="43.86334091550732" lon="7.969039369595946"><ele>49.66666666666667</ele><time>2026-04-22T09:59:55Z</time></trkpt><trkpt lat="43.863340233506584" lon="7.96877791963974"><ele>46.0</ele><time>2026-04-22T09:59:56Z</time></trkpt><trkpt lat="43.8633357515836" lon="7.96851551572509"><ele>40.0</ele><time>2026-04-22T09:59:57Z</time></trkpt><trkpt lat="43.86333300990974" lon="7.968253311913888"><ele>34.0</ele><time>2026-04-22T09:59:58Z</time></trkpt><trkpt lat="43.86333204134562" lon="7.967979750143047"><ele>28.0</ele><time>2026-04-22T09:59:59Z</time></trkpt><trkpt lat="43.86332972865338" lon="7.967700165422549"><ele>28.0</ele><time>2026-04-22T10:00:00Z</time></trkpt><trkpt lat="43.86332248960457" lon="7.96741746500371"><ele>28.0</ele><time>2026-04-22T10:00:01Z</time></trkpt><trkpt lat="43.86331913849159" lon="7.967132921188491"><ele>28.0</ele><time>2026-04-22T10:00:02Z</time></trkpt><trkpt lat="43.86331299255687" lon="7.966843897651781"><ele>32.66666666666667</ele><time>2026-04-22T10:00:03Z</time></trkpt><trkpt lat="43.86331029682983" lon="7.966552068537452"><ele>37.333333333333336</ele><time>2026-04-22T10:00:04Z</time></trkpt><trkpt lat="43.86330877882963" lon="7.966263064101675"><ele>42.0</ele><time>2026-04-22T10:00:05Z</time></trkpt><trkpt lat="43.86330151787418" lon="7.965969131078754"><ele>47.0</ele><time>2026-04-22T10:00:06Z</time></trkpt><trkpt lat="43.863300334029084" lon="7.96568152798458"><ele>52.0</ele><time>2026-04-22T10:00:07Z</time></trkpt><trkpt lat="43.86329743016461" lon="7.965394652108594"><ele>57.0</ele><time>2026-04-22T10:00:08Z</time></trkpt><trkpt lat="43.8632954456301" lon="7.965108941041871"><ele>63.33333333333333</ele><time>2026-04-22T10:00:09Z</time></trkpt><trkpt lat="43.86329147460467" lon="7.96482355364767"><ele>69.66666666666666</ele><time>2026-04-22T10:00:10Z</time></trkpt><trkpt lat="43.86328725576622" lon="7.964537405681269"><ele>76.0</ele><time>2026-04-22T10:00:11Z</time></trkpt><trkpt lat="43.86327480671966" lon="7.964251612316391"><ele>88.33333333333333</ele><time>2026-04-22T10:00:12Z</time></trkpt><trkpt lat="43.86327239101675" lon="7.963965785487198"><ele>100.66666666666666</ele><time>2026-04-22T10:00:13Z</time></trkpt><trkpt lat="43.86331437063128" lon="7.963698716967214"><ele>113.0</ele><time>2026-04-22T10:00:14Z</time></trkpt><trkpt lat="43.863320239240046" lon="7.963398294756102"><ele>121.33333333333333</ele><time>2026-04-22T10:00:15Z</time></trkpt><trkpt lat="43.863318611196384" lon="7.963098189231591"><ele>129.66666666666666</ele><time>2026-04-22T10:00:16Z</time></trkpt><trkpt lat="43.863331217026975" lon="7.962804802417382"><ele>138.0</ele><time>2026-04-22T10:00:17Z</time></trkpt><trkpt lat="43.863319858279155" lon="7.962498815760041"><ele>140.0</ele><time>2026-04-22T10:00:18.063Z</time></trkpt><trkpt lat="43.863316117202075" lon="7.9622144770857775"><ele>142.0</ele><time>2026-04-22T10:00:19.059Z</time></trkpt><trkpt lat="43.86331233260468" lon="7.961926830445587"><ele>144.0</ele><time>2026-04-22T10:00:20.06Z</time></trkpt><trkpt lat="43.8631134761608" lon="7.959300875231676"><ele>127.66666666666667</ele><time>2026-04-22T10:00:26.999Z</time></trkpt><trkpt lat="43.86309653168794" lon="7.959010759238691"><ele>111.33333333333334</ele><time>2026-04-22T10:00:27.999Z</time></trkpt><trkpt lat="43.863079361442644" lon="7.9587355755279745"><ele>95.0</ele><time>2026-04-22T10:00:28.999Z</time></trkpt><trkpt lat="43.86305976164417" lon="7.958440641704186"><ele>92.33333333333334</ele><time>2026-04-22T10:00:29.999Z</time></trkpt><trkpt lat="43.86304264071879" lon="7.9581539389352915"><ele>89.66666666666667</ele><time>2026-04-22T10:00:30.999Z</time></trkpt><trkpt lat="43.86301629477107" lon="7.957862279408096"><ele>87.0</ele><time>2026-04-22T10:00:31.999Z</time></trkpt><trkpt lat="43.862992323826084" lon="7.957556073013618"><ele>81.5</ele><time>2026-04-22T10:00:32.999Z</time></trkpt><trkpt lat="43.86296595462242" lon="7.957249078987448"><ele>76.0</ele><time>2026-04-22T10:00:33.999Z</time></trkpt><trkpt lat="43.8629143406501" lon="7.956935174218358"><ele>70.33333333333333</ele><time>2026-04-22T10:00:34.999Z</time></trkpt><trkpt lat="43.8628673370896" lon="7.956633732325669"><ele>64.66666666666667</ele><time>2026-04-22T10:00:35.999Z</time></trkpt><trkpt lat="43.86281393717501" lon="7.956330553406129"><ele>59.0</ele><time>2026-04-22T10:00:36.999Z</time></trkpt><trkpt lat="43.86275477012676" lon="7.956025234985959"><ele>52.0</ele><time>2026-04-22T10:00:37.999Z</time></trkpt><trkpt lat="43.86268896600203" lon="7.955706544721049"><ele>45.0</ele><time>2026-04-22T10:00:38.999Z</time></trkpt><trkpt lat="43.86261847670888" lon="7.955387367581669"><ele>37.0</ele><time>2026-04-22T10:00:39.999Z</time></trkpt><trkpt lat="43.86253866429123" lon="7.95506377608893"><ele>29.0</ele><time>2026-04-22T10:00:40.999Z</time></trkpt><trkpt lat="43.86245507018573" lon="7.95474452094028"><ele>28.5</ele><time>2026-04-22T10:00:41.999Z</time></trkpt><trkpt lat="43.86236283997265" lon="7.954426964494267"><ele>28.0</ele><time>2026-04-22T10:00:42.999Z</time></trkpt><trkpt lat="43.862266773343976" lon="7.954114984156915"><ele>28.0</ele><time>2026-04-22T10:00:43.999Z</time></trkpt><trkpt lat="43.86216666248327" lon="7.9538046869030365"><ele>28.0</ele><time>2026-04-22T10:00:44.999Z</time></trkpt><trkpt lat="43.8620622862215" lon="7.953502143892391"><ele>30.5</ele><time>2026-04-22T10:00:45.999Z</time></trkpt><trkpt lat="43.8619489722416" lon="7.953207473097757"><ele>33.0</ele><time>2026-04-22T10:00:46.999Z</time></trkpt><trkpt lat="43.86183164033137" lon="7.952920864930133"><ele>38.0</ele><time>2026-04-22T10:00:47.999Z</time></trkpt><trkpt lat="43.861703854998304" lon="7.952635301513962"><ele>43.0</ele><time>2026-04-22T10:00:48.999Z</time></trkpt><trkpt lat="43.86157587232306" lon="7.952357096695005"><ele>43.0</ele><time>2026-04-22T10:00:49.999Z</time></trkpt><trkpt lat="43.86144010805105" lon="7.952082772495999"><ele>43.0</ele><time>2026-04-22T10:00:50.999Z</time></trkpt><trkpt lat="43.861301422578244" lon="7.951818594849962"><ele>42.5</ele><time>2026-04-22T10:00:51.999Z</time></trkpt><trkpt lat="43.861152588939255" lon="7.951562648050595"><ele>42.0</ele><time>2026-04-22T10:00:52.999Z</time></trkpt><trkpt lat="43.86099934001604" lon="7.951306202874512"><ele>56.0</ele><time>2026-04-22T10:00:53.999Z</time></trkpt><trkpt lat="43.860846019419064" lon="7.95105682302459"><ele>70.0</ele><time>2026-04-22T10:00:54.999Z</time></trkpt><trkpt lat="43.86068241434493" lon="7.950808428715267"><ele>78.5</ele><time>2026-04-22T10:00:55.999Z</time></trkpt><trkpt lat="43.86051375132353" lon="7.950564185148992"><ele>87.0</ele><time>2026-04-22T10:00:56.999Z</time></trkpt><trkpt lat="43.86034376226242" lon="7.950325709168611"><ele>87.0</ele><time>2026-04-22T10:00:57.999Z</time></trkpt><trkpt lat="43.8601651725986" lon="7.95008619275441"><ele>87.0</ele><time>2026-04-22T10:00:58.999Z</time></trkpt><trkpt lat="43.859982395333255" lon="7.949856413572409"><ele>96.0</ele><time>2026-04-22T10:00:59.999Z</time></trkpt><trkpt lat="43.85978834101901" lon="7.94963349829315"><ele>105.0</ele><time>2026-04-22T10:01:00.999Z</time></trkpt><trkpt lat="43.85958982558107" lon="7.949419759585294"><ele>110.5</ele><time>2026-04-22T10:01:01.999Z</time></trkpt><trkpt lat="43.859378852504136" lon="7.949205285034031"><ele>116.0</ele><time>2026-04-22T10:01:02.999Z</time></trkpt><trkpt lat="43.859169045848574" lon="7.9490069696220775"><ele>116.0</ele><time>2026-04-22T10:01:03.999Z</time></trkpt><trkpt lat="43.85895027693678" lon="7.948805055366044"><ele>116.0</ele><time>2026-04-22T10:01:04.999Z</time></trkpt><trkpt lat="43.858724734957114" lon="7.948609196975098"><ele>116.0</ele><time>2026-04-22T10:01:05.999Z</time></trkpt><trkpt lat="43.8584903799368" lon="7.948417936194884"><ele>116.0</ele><time>2026-04-22T10:01:06.999Z</time></trkpt><trkpt lat="43.85825306762261" lon="7.94824231174564"><ele>116.5</ele><time>2026-04-22T10:01:07.999Z</time></trkpt><trkpt lat="43.85800565154718" lon="7.9480649648906345"><ele>117.0</ele><time>2026-04-22T10:01:08.999Z</time></trkpt><trkpt lat="43.85775673518359" lon="7.947883534439521"><ele>115.5</ele><time>2026-04-22T10:01:09.999Z</time></trkpt><trkpt lat="43.85751524443674" lon="7.947703356290721"><ele>114.0</ele><time>2026-04-22T10:01:11.001Z</time></trkpt><trkpt lat="43.85727685120804" lon="7.947526346597979"><ele>118.5</ele><time>2026-04-22T10:01:12.001Z</time></trkpt><trkpt lat="43.857043505493884" lon="7.947355481273134"><ele>123.0</ele><time>2026-04-22T10:01:13.001Z</time></trkpt><trkpt lat="43.856815186224246" lon="7.9471949854285"><ele>126.0</ele><time>2026-04-22T10:01:14.001Z</time></trkpt><trkpt lat="43.85659271147736" lon="7.947036114031118"><ele>129.0</ele><time>2026-04-22T10:01:15Z</time></trkpt><trkpt lat="43.85637958243244" lon="7.946881594597346"><ele>129.0</ele><time>2026-04-22T10:01:16Z</time></trkpt><trkpt lat="43.85617389590466" lon="7.946732702353174"><ele>129.0</ele><time>2026-04-22T10:01:17Z</time></trkpt><trkpt lat="43.85596904288134" lon="7.946582097717714"><ele>135.5</ele><time>2026-04-22T10:01:18Z</time></trkpt><trkpt lat="43.855760702829556" lon="7.946435080913825"><ele>142.0</ele><time>2026-04-22T10:01:19Z</time></trkpt><trkpt lat="43.85555599391991" lon="7.946283230050004"><ele>142.0</ele><time>2026-04-22T10:01:20Z</time></trkpt><trkpt lat="43.85534463211309" lon="7.946133643548767"><ele>142.0</ele><time>2026-04-22T10:01:21Z</time></trkpt><trkpt lat="43.85514116139714" lon="7.9459856890115965"><ele>155.5</ele><time>2026-04-22T10:01:22Z</time></trkpt><trkpt lat="43.85493151168673" lon="7.945832516213319"><ele>169.0</ele><time>2026-04-22T10:01:23Z</time></trkpt><trkpt lat="43.85472968965333" lon="7.945689013715342"><ele>169.0</ele><time>2026-04-22T10:01:24Z</time></trkpt><trkpt lat="43.85451309608662" lon="7.945538752460855"><ele>169.0</ele><time>2026-04-22T10:01:25.061Z</time></trkpt><trkpt lat="43.854310048432474" lon="7.945399652619824"><ele>164.5</ele><time>2026-04-22T10:01:26.065Z</time></trkpt><trkpt lat="43.85411010137778" lon="7.945264467247462"><ele>160.0</ele><time>2026-04-22T10:01:27.058Z</time></trkpt><trkpt lat="43.85390831631503" lon="7.94511205686042"><ele>163.0</ele><time>2026-04-22T10:01:28.058Z</time></trkpt><trkpt lat="43.85370701220638" lon="7.944963700739239"><ele>166.0</ele><time>2026-04-22T10:01:29.059Z</time></trkpt><trkpt lat="43.85351003483925" lon="7.944818981282"><ele>138.0</ele><time>2026-04-22T10:01:30.041Z</time></trkpt><trkpt lat="43.85259826370363" lon="7.942987645241304"><ele>138.0</ele><time>2026-04-22T10:01:39Z</time></trkpt><trkpt lat="43.85250569395785" lon="7.942777939212335"><ele>138.0</ele><time>2026-04-22T10:01:40Z</time></trkpt><trkpt lat="43.852420781313576" lon="7.9425650677229305"><ele>138.0</ele><time>2026-04-22T10:01:41Z</time></trkpt><trkpt lat="43.85234248369931" lon="7.942321991266039"><ele>139.33333333333334</ele><time>2026-04-22T10:01:42Z</time></trkpt><trkpt lat="43.85226091727632" lon="7.942086654056079"><ele>140.66666666666669</ele><time>2026-04-22T10:01:43Z</time></trkpt><trkpt lat="43.852180425417174" lon="7.941856178634444"><ele>142.0</ele><time>2026-04-22T10:01:44Z</time></trkpt><trkpt lat="43.852104611512935" lon="7.941621495978768"><ele>143.0</ele><time>2026-04-22T10:01:45Z</time></trkpt><trkpt lat="43.85202928862753" lon="7.941383796279971"><ele>144.0</ele><time>2026-04-22T10:01:46Z</time></trkpt><trkpt lat="43.8519536802419" lon="7.9411491038706155"><ele>145.0</ele><time>2026-04-22T10:01:47Z</time></trkpt><trkpt lat="43.85187730196068" lon="7.940914298311477"><ele>143.33333333333334</ele><time>2026-04-22T10:01:48Z</time></trkpt><trkpt lat="43.85179969659331" lon="7.940681036810948"><ele>141.66666666666666</ele><time>2026-04-22T10:01:49Z</time></trkpt><trkpt lat="43.851719529529696" lon="7.940441585401531"><ele>140.0</ele><time>2026-04-22T10:01:50Z</time></trkpt><trkpt lat="43.85162984820217" lon="7.940181629617323"><ele>144.66666666666666</ele><time>2026-04-22T10:01:51Z</time></trkpt><trkpt lat="43.85153561563589" lon="7.939911921746373"><ele>149.33333333333334</ele><time>2026-04-22T10:01:52Z</time></trkpt><trkpt lat="43.851439811020306" lon="7.9396259880956075"><ele>154.0</ele><time>2026-04-22T10:01:53Z</time></trkpt><trkpt lat="43.85134148627902" lon="7.93932711649098"><ele>162.0</ele><time>2026-04-22T10:01:54Z</time></trkpt><trkpt lat="43.85123996516179" lon="7.939010479284517"><ele>170.0</ele><time>2026-04-22T10:01:55Z</time></trkpt><trkpt lat="43.851136656450855" lon="7.938691327070387"><ele>170.0</ele><time>2026-04-22T10:01:56Z</time></trkpt><trkpt lat="43.85105056655163" lon="7.938391571285425"><ele>170.0</ele><time>2026-04-22T10:01:57Z</time></trkpt><trkpt lat="43.85095762583549" lon="7.938093158599714"><ele>168.0</ele><time>2026-04-22T10:01:58Z</time></trkpt><trkpt lat="43.850865382153806" lon="7.937794381992619"><ele>166.0</ele><time>2026-04-22T10:01:59Z</time></trkpt><trkpt lat="43.85077183219789" lon="7.937496959678717"><ele>173.0</ele><time>2026-04-22T10:02:00Z</time></trkpt><trkpt lat="43.85067605716696" lon="7.93719822681601"><ele>180.0</ele><time>2026-04-22T10:02:01Z</time></trkpt><trkpt lat="43.85058311677447" lon="7.936899456958895"><ele>182.5</ele><time>2026-04-22T10:02:02Z</time></trkpt><trkpt lat="43.850491745885215" lon="7.936605427422418"><ele>185.0</ele><time>2026-04-22T10:02:03Z</time></trkpt><trkpt lat="43.85040157900996" lon="7.936311985494545"><ele>185.0</ele><time>2026-04-22T10:02:04Z</time></trkpt><trkpt lat="43.85031312290998" lon="7.936022986619882"><ele>185.0</ele><time>2026-04-22T10:02:05Z</time></trkpt><trkpt lat="43.8502372335307" lon="7.935736598372595"><ele>185.0</ele><time>2026-04-22T10:02:06Z</time></trkpt><trkpt lat="43.85016430633251" lon="7.935436245333335"><ele>179.5</ele><time>2026-04-22T10:02:07Z</time></trkpt><trkpt lat="43.85010424310653" lon="7.935135608154174"><ele>174.0</ele><time>2026-04-22T10:02:08Z</time></trkpt><trkpt lat="43.85004598741991" lon="7.9348326973164065"><ele>174.0</ele><time>2026-04-22T10:02:09Z</time></trkpt><trkpt lat="43.84999174092389" lon="7.934536249021763"><ele>174.0</ele><time>2026-04-22T10:02:10Z</time></trkpt><trkpt lat="43.849938324547026" lon="7.934235367979499"><ele>174.0</ele><time>2026-04-22T10:02:11Z</time></trkpt><trkpt lat="43.849890042252035" lon="7.933938492660456"><ele>177.66666666666666</ele><time>2026-04-22T10:02:12Z</time></trkpt><trkpt lat="43.84984419314617" lon="7.933646765931645"><ele>181.33333333333331</ele><time>2026-04-22T10:02:13Z</time></trkpt><trkpt lat="43.84979848282482" lon="7.933352880668073"><ele>185.0</ele><time>2026-04-22T10:02:14Z</time></trkpt><trkpt lat="43.8497527892566" lon="7.933057253180926"><ele>190.0</ele><time>2026-04-22T10:02:15Z</time></trkpt><trkpt lat="43.84970450668836" lon="7.932755381259806"><ele>195.0</ele><time>2026-04-22T10:02:16Z</time></trkpt><trkpt lat="43.84965772836269" lon="7.932454737772356"><ele>200.0</ele><time>2026-04-22T10:02:16.999Z</time></trkpt><trkpt lat="43.84961185486404" lon="7.932163516732682"><ele>206.5</ele><time>2026-04-22T10:02:17.999Z</time></trkpt><trkpt lat="43.849564088027556" lon="7.9318424198297315"><ele>213.0</ele><time>2026-04-22T10:02:19.063Z</time></trkpt><trkpt lat="43.84952129090197" lon="7.931538510441748"><ele>212.0</ele><time>2026-04-22T10:02:20.067Z</time></trkpt><trkpt lat="43.84947873071137" lon="7.931238345337145"><ele>211.0</ele><time>2026-04-22T10:02:21.054Z</time></trkpt><trkpt lat="43.84947236325917" lon="7.930199330330238"><ele>211.5</ele><time>2026-04-22T10:02:23.999Z</time></trkpt><trkpt lat="43.849485234054505" lon="7.929867935937476"><ele>212.0</ele><time>2026-04-22T10:02:24.999Z</time></trkpt><trkpt lat="43.84949543673873" lon="7.929520718583315"><ele>212.0</ele><time>2026-04-22T10:02:25.999Z</time></trkpt><trkpt lat="43.84950070149179" lon="7.929168761235545"><ele>212.0</ele><time>2026-04-22T10:02:26.999Z</time></trkpt><trkpt lat="43.8495061991658" lon="7.928806622195662"><ele>212.0</ele><time>2026-04-22T10:02:27.999Z</time></trkpt><trkpt lat="43.84951427666112" lon="7.928435098114671"><ele>212.0</ele><time>2026-04-22T10:02:28.999Z</time></trkpt><trkpt lat="43.849523632065456" lon="7.928051440949471"><ele>214.0</ele><time>2026-04-22T10:02:29.999Z</time></trkpt><trkpt lat="43.849533417010676" lon="7.927661933714536"><ele>216.0</ele><time>2026-04-22T10:02:30.999Z</time></trkpt><trkpt lat="43.849542513506066" lon="7.92728478523192"><ele>218.0</ele><time>2026-04-22T10:02:31.999Z</time></trkpt><trkpt lat="43.84955312149473" lon="7.926926399166886"><ele>220.0</ele><time>2026-04-22T10:02:32.999Z</time></trkpt><trkpt lat="43.84956284317537" lon="7.926561968734064"><ele>214.5</ele><time>2026-04-22T10:02:33.999Z</time></trkpt><trkpt lat="43.849572078984345" lon="7.926199028525063"><ele>209.0</ele><time>2026-04-22T10:02:34.999Z</time></trkpt><trkpt lat="43.8495818701078" lon="7.925835881135718"><ele>205.5</ele><time>2026-04-22T10:02:35.999Z</time></trkpt><trkpt lat="43.84959262341931" lon="7.92547138037719"><ele>202.0</ele><time>2026-04-22T10:02:36.999Z</time></trkpt><trkpt lat="43.849606424952974" lon="7.9251156911044935"><ele>200.5</ele><time>2026-04-22T10:02:37.999Z</time></trkpt><trkpt lat="43.84962087328136" lon="7.924755002629512"><ele>199.0</ele><time>2026-04-22T10:02:38.999Z</time></trkpt><trkpt lat="43.84963222084967" lon="7.924392990287021"><ele>205.5</ele><time>2026-04-22T10:02:39.999Z</time></trkpt><trkpt lat="43.84964346704987" lon="7.924038023918668"><ele>212.0</ele><time>2026-04-22T10:02:40.999Z</time></trkpt><trkpt lat="43.8496552959071" lon="7.923691985967393"><ele>217.5</ele><time>2026-04-22T10:02:41.999Z</time></trkpt><trkpt lat="43.849666539599546" lon="7.923351014481164"><ele>223.0</ele><time>2026-04-22T10:02:42.999Z</time></trkpt><trkpt lat="43.84967565033667" lon="7.92301065991571"><ele>223.0</ele><time>2026-04-22T10:02:43.999Z</time></trkpt><trkpt lat="43.84968776935385" lon="7.922660645708462"><ele>223.0</ele><time>2026-04-22T10:02:44.999Z</time></trkpt><trkpt lat="43.8497008888204" lon="7.922308052511962"><ele>222.0</ele><time>2026-04-22T10:02:45.999Z</time></trkpt><trkpt lat="43.84971583143694" lon="7.921953631872757"><ele>221.0</ele><time>2026-04-22T10:02:46.999Z</time></trkpt><trkpt lat="43.84973485949369" lon="7.921599971592869"><ele>210.5</ele><time>2026-04-22T10:02:47.999Z</time></trkpt><trkpt lat="43.849758944136724" lon="7.921240484717847"><ele>200.0</ele><time>2026-04-22T10:02:48.999Z</time></trkpt><trkpt lat="43.84978813269785" lon="7.920876954467435"><ele>185.5</ele><time>2026-04-22T10:02:49.999Z</time></trkpt><trkpt lat="43.84981733714051" lon="7.920506175874861"><ele>171.0</ele><time>2026-04-22T10:02:50.999Z</time></trkpt><trkpt lat="43.84985187167181" lon="7.92012998240665"><ele>172.0</ele><time>2026-04-22T10:02:51.999Z</time></trkpt><trkpt lat="43.8498913753414" lon="7.919751927352215"><ele>173.0</ele><time>2026-04-22T10:02:52.999Z</time></trkpt><trkpt lat="43.849929010489745" lon="7.91937187876171"><ele>186.0</ele><time>2026-04-22T10:02:53.999Z</time></trkpt><trkpt lat="43.84998070760549" lon="7.919067720711149"><ele>199.0</ele><time>2026-04-22T10:02:54.999Z</time></trkpt><trkpt lat="43.85002906719553" lon="7.918718944232781"><ele>207.5</ele><time>2026-04-22T10:02:55.999Z</time></trkpt><trkpt lat="43.85007452689807" lon="7.918389880016929"><ele>216.0</ele><time>2026-04-22T10:02:56.999Z</time></trkpt><trkpt lat="43.85012322315804" lon="7.918067211969557"><ele>226.5</ele><time>2026-04-22T10:02:57.999Z</time></trkpt><trkpt lat="43.850175337190365" lon="7.9177408507119535"><ele>237.0</ele><time>2026-04-22T10:02:58.999Z</time></trkpt><trkpt lat="43.850230281221144" lon="7.917429441470957"><ele>237.0</ele><time>2026-04-22T10:02:59.999Z</time></trkpt><trkpt lat="43.85028296928958" lon="7.917109831517051"><ele>237.0</ele><time>2026-04-22T10:03:00.999Z</time></trkpt><trkpt lat="43.85032728365814" lon="7.91679042404389"><ele>222.5</ele><time>2026-04-22T10:03:01.999Z</time></trkpt><trkpt lat="43.85041857271868" lon="7.91647192077869"><ele>208.0</ele><time>2026-04-22T10:03:02.999Z</time></trkpt><trkpt lat="43.85046060689039" lon="7.916088873356464"><ele>188.5</ele><time>2026-04-22T10:03:03.999Z</time></trkpt><trkpt lat="43.850508947635426" lon="7.915766565184051"><ele>169.0</ele><time>2026-04-22T10:03:04.999Z</time></trkpt><trkpt lat="43.85055339146566" lon="7.915425157717438"><ele>169.0</ele><time>2026-04-22T10:03:05.999Z</time></trkpt><trkpt lat="43.85060711606203" lon="7.915080672042299"><ele>169.0</ele><time>2026-04-22T10:03:06.999Z</time></trkpt><trkpt lat="43.850665589070246" lon="7.914719606347534"><ele>165.5</ele><time>2026-04-22T10:03:07.999Z</time></trkpt><trkpt lat="43.850732533990055" lon="7.914363208961683"><ele>162.0</ele><time>2026-04-22T10:03:08.999Z</time></trkpt><trkpt lat="43.85079532756859" lon="7.9139855898172895"><ele>174.0</ele><time>2026-04-22T10:03:09.999Z</time></trkpt><trkpt lat="43.850857009351124" lon="7.91359557058909"><ele>186.0</ele><time>2026-04-22T10:03:10.999Z</time></trkpt><trkpt lat="43.85092545302129" lon="7.91320166563873"><ele>203.5</ele><time>2026-04-22T10:03:11.999Z</time></trkpt><trkpt lat="43.8510053362318" lon="7.912814286331462"><ele>221.0</ele><time>2026-04-22T10:03:12.999Z</time></trkpt><trkpt lat="43.85107056599519" lon="7.9124287752914935"><ele>224.0</ele><time>2026-04-22T10:03:13.999Z</time></trkpt><trkpt lat="43.85113832534105" lon="7.912038372491154"><ele>227.0</ele><time>2026-04-22T10:03:14.999Z</time></trkpt><trkpt lat="43.85119141491421" lon="7.911639935740875"><ele>218.0</ele><time>2026-04-22T10:03:15.999Z</time></trkpt><trkpt lat="43.85127525504482" lon="7.911276001996002"><ele>209.0</ele><time>2026-04-22T10:03:17Z</time></trkpt><trkpt lat="43.851308842232385" lon="7.9109679556878385"><ele>208.5</ele><time>2026-04-22T10:03:18Z</time></trkpt><trkpt lat="43.85136603591503" lon="7.910635964547698"><ele>208.0</ele><time>2026-04-22T10:03:19Z</time></trkpt><trkpt lat="43.851416784795745" lon="7.9102983495871975"><ele>210.5</ele><time>2026-04-22T10:03:20Z</time></trkpt><trkpt lat="43.85147159071043" lon="7.909966910284836"><ele>213.0</ele><time>2026-04-22T10:03:21Z</time></trkpt><trkpt lat="43.85152451681694" lon="7.909633620331669"><ele>213.0</ele><time>2026-04-22T10:03:22Z</time></trkpt><trkpt lat="43.85157664568886" lon="7.90929522855183"><ele>213.0</ele><time>2026-04-22T10:03:23Z</time></trkpt><trkpt lat="43.851630835147354" lon="7.908958817259884"><ele>208.0</ele><time>2026-04-22T10:03:24Z</time></trkpt><trkpt lat="43.8516852042479" lon="7.908621236131149"><ele>203.0</ele><time>2026-04-22T10:03:25Z</time></trkpt><trkpt lat="43.851739139607865" lon="7.908282363111628"><ele>191.0</ele><time>2026-04-22T10:03:26Z</time></trkpt><trkpt lat="43.85179576159007" lon="7.907940203944357"><ele>179.0</ele><time>2026-04-22T10:03:27Z</time></trkpt><trkpt lat="43.85185267012575" lon="7.907597419453035"><ele>173.0</ele><time>2026-04-22T10:03:28Z</time></trkpt><trkpt lat="43.851911681818706" lon="7.907256340459572"><ele>167.0</ele><time>2026-04-22T10:03:29Z</time></trkpt><trkpt lat="43.851971672797625" lon="7.906919779578241"><ele>175.5</ele><time>2026-04-22T10:03:30Z</time></trkpt><trkpt lat="43.85203910981207" lon="7.906584185466003"><ele>184.0</ele><time>2026-04-22T10:03:31Z</time></trkpt><trkpt lat="43.85211185953449" lon="7.90625056669821"><ele>184.0</ele><time>2026-04-22T10:03:32Z</time></trkpt><trkpt lat="43.85218970444174" lon="7.905916960563353"><ele>184.0</ele><time>2026-04-22T10:03:33Z</time></trkpt><trkpt lat="43.85227225912668" lon="7.905578429894503"><ele>193.5</ele><time>2026-04-22T10:03:34Z</time></trkpt><trkpt lat="43.85235965813566" lon="7.905237844640305"><ele>203.0</ele><time>2026-04-22T10:03:35Z</time></trkpt><trkpt lat="43.852452012633634" lon="7.904891346956446"><ele>204.0</ele><time>2026-04-22T10:03:36Z</time></trkpt><trkpt lat="43.85255060607563" lon="7.904547261067505"><ele>205.0</ele><time>2026-04-22T10:03:37Z</time></trkpt><trkpt lat="43.85265635518835" lon="7.904206141214627"><ele>208.0</ele><time>2026-04-22T10:03:38Z</time></trkpt><trkpt lat="43.85276668720667" lon="7.903864713966225"><ele>211.0</ele><time>2026-04-22T10:03:39Z</time></trkpt><trkpt lat="43.85287941830787" lon="7.903524673123581"><ele>213.5</ele><time>2026-04-22T10:03:40Z</time></trkpt><trkpt lat="43.85299716675573" lon="7.90318748360021"><ele>216.0</ele><time>2026-04-22T10:03:41Z</time></trkpt><trkpt lat="43.85312201885901" lon="7.902856163985686"><ele>228.5</ele><time>2026-04-22T10:03:42Z</time></trkpt><trkpt lat="43.853258197104395" lon="7.9025292204959525"><ele>241.0</ele><time>2026-04-22T10:03:43Z</time></trkpt><trkpt lat="43.8533976429414" lon="7.902192209049733"><ele>251.5</ele><time>2026-04-22T10:03:44Z</time></trkpt><trkpt lat="43.85353486338037" lon="7.901855502573193"><ele>262.0</ele><time>2026-04-22T10:03:45Z</time></trkpt><trkpt lat="43.853665611935455" lon="7.901520323461861"><ele>265.5</ele><time>2026-04-22T10:03:46Z</time></trkpt><trkpt lat="43.85380309620628" lon="7.901180173254675"><ele>269.0</ele><time>2026-04-22T10:03:47Z</time></trkpt><trkpt lat="43.85394852985399" lon="7.900815850422605"><ele>269.0</ele><time>2026-04-22T10:03:48.067Z</time></trkpt><trkpt lat="43.85408475445444" lon="7.900477178638715"><ele>269.0</ele><time>2026-04-22T10:03:49.062Z</time></trkpt><trkpt lat="43.85422388032181" lon="7.900138467925694"><ele>260.0</ele><time>2026-04-22T10:03:50.062Z</time></trkpt><trkpt lat="43.85436152249424" lon="7.899802598998832"><ele>251.0</ele><time>2026-04-22T10:03:51.06Z</time></trkpt><trkpt lat="43.85449933711907" lon="7.899464946105523"><ele>215.0</ele><time>2026-04-22T10:03:52.061Z</time></trkpt><trkpt lat="43.85484052133478" lon="7.898619694040755"><ele>183.0</ele><time>2026-04-22T10:03:56Z</time></trkpt><trkpt lat="43.855244724579045" lon="7.898240805597871"><ele>183.0</ele><time>2026-04-22T10:03:57Z</time></trkpt><trkpt lat="43.85531453294485" lon="7.897989580007771"><ele>183.0</ele><time>2026-04-22T10:03:58Z</time></trkpt><trkpt lat="43.85534370723975" lon="7.897736487448216"><ele>183.0</ele><time>2026-04-22T10:03:59Z</time></trkpt><trkpt lat="43.85541477990835" lon="7.897451733417401"><ele>177.0</ele><time>2026-04-22T10:04:00Z</time></trkpt><trkpt lat="43.855479737777934" lon="7.897181413106615"><ele>171.0</ele><time>2026-04-22T10:04:01Z</time></trkpt><trkpt lat="43.855525778378755" lon="7.896908282760255"><ele>165.0</ele><time>2026-04-22T10:04:02Z</time></trkpt><trkpt lat="43.85561393261434" lon="7.896626675551986"><ele>165.0</ele><time>2026-04-22T10:04:03Z</time></trkpt><trkpt lat="43.855704033724585" lon="7.896342211808207"><ele>165.0</ele><time>2026-04-22T10:04:04Z</time></trkpt><trkpt lat="43.85579671097802" lon="7.896050814533163"><ele>178.0</ele><time>2026-04-22T10:04:05Z</time></trkpt><trkpt lat="43.8558846440263" lon="7.895749161329864"><ele>191.0</ele><time>2026-04-22T10:04:06Z</time></trkpt><trkpt lat="43.85596993717125" lon="7.895440015172091"><ele>203.0</ele><time>2026-04-22T10:04:07Z</time></trkpt><trkpt lat="43.856061845645854" lon="7.89512122542743"><ele>215.0</ele><time>2026-04-22T10:04:08Z</time></trkpt><trkpt lat="43.85614674441251" lon="7.894805417310784"><ele>218.5</ele><time>2026-04-22T10:04:08.999Z</time></trkpt><trkpt lat="43.85623965433075" lon="7.894474885926984"><ele>222.0</ele><time>2026-04-22T10:04:09.999Z</time></trkpt><trkpt lat="43.85632986140359" lon="7.894142937840903"><ele>233.0</ele><time>2026-04-22T10:04:10.999Z</time></trkpt><trkpt lat="43.856414543110596" lon="7.893812506496567"><ele>244.0</ele><time>2026-04-22T10:04:11.999Z</time></trkpt><trkpt lat="43.85650210343988" lon="7.893479104868593"><ele>253.5</ele><time>2026-04-22T10:04:12.999Z</time></trkpt><trkpt lat="43.85659064571871" lon="7.893143763068713"><ele>263.0</ele><time>2026-04-22T10:04:13.999Z</time></trkpt><trkpt lat="43.85667621601812" lon="7.892811161004146"><ele>263.0</ele><time>2026-04-22T10:04:14.999Z</time></trkpt><trkpt lat="43.85677148475222" lon="7.892452634963807"><ele>263.0</ele><time>2026-04-22T10:04:16.064Z</time></trkpt><trkpt lat="43.85685619988673" lon="7.8921197980701665"><ele>274.5</ele><time>2026-04-22T10:04:17.06Z</time></trkpt><trkpt lat="43.85693832640875" lon="7.891786007295151"><ele>286.0</ele><time>2026-04-22T10:04:18.06Z</time></trkpt><trkpt lat="43.85702118909634" lon="7.891452433733889"><ele>286.0</ele><time>2026-04-22T10:04:19.059Z</time></trkpt><trkpt lat="43.85710901564596" lon="7.891118981170809"><ele>286.0</ele><time>2026-04-22T10:04:20.059Z</time></trkpt><trkpt lat="43.85838909491812" lon="7.88489350849811"><ele>232.5</ele><time>2026-04-22T10:04:37.999Z</time></trkpt><trkpt lat="43.85869815445459" lon="7.884731275540483"><ele>179.0</ele><time>2026-04-22T10:04:38.999Z</time></trkpt><trkpt lat="43.85863922733098" lon="7.884278213438375"><ele>171.0</ele><time>2026-04-22T10:04:39.999Z</time></trkpt><trkpt lat="43.85867450702143" lon="7.883904224784901"><ele>163.0</ele><time>2026-04-22T10:04:40.999Z</time></trkpt><trkpt lat="43.858735889786985" lon="7.883558446053942"><ele>158.0</ele><time>2026-04-22T10:04:41.999Z</time></trkpt><trkpt lat="43.85881208846786" lon="7.883216397396685"><ele>153.0</ele><time>2026-04-22T10:04:42.999Z</time></trkpt><trkpt lat="43.858887620698546" lon="7.88286858107214"><ele>163.5</ele><time>2026-04-22T10:04:43.999Z</time></trkpt><trkpt lat="43.8589640057928" lon="7.882516466192263"><ele>174.0</ele><time>2026-04-22T10:04:44.999Z</time></trkpt><trkpt lat="43.85904099811583" lon="7.882165521855926"><ele>174.0</ele><time>2026-04-22T10:04:45.999Z</time></trkpt><trkpt lat="43.859118245505535" lon="7.8818152114465425"><ele>174.0</ele><time>2026-04-22T10:04:46.999Z</time></trkpt><trkpt lat="43.8591974303955" lon="7.881459913650404"><ele>182.0</ele><time>2026-04-22T10:04:47.999Z</time></trkpt><trkpt lat="43.85927311136579" lon="7.881108834504737"><ele>190.0</ele><time>2026-04-22T10:04:48.999Z</time></trkpt><trkpt lat="43.859343632388" lon="7.880763648790017"><ele>203.5</ele><time>2026-04-22T10:04:49.999Z</time></trkpt><trkpt lat="43.859409229615764" lon="7.8804249640965525"><ele>217.0</ele><time>2026-04-22T10:04:50.999Z</time></trkpt><trkpt lat="43.85947184956381" lon="7.880081600156103"><ele>217.0</ele><time>2026-04-22T10:04:51.999Z</time></trkpt><trkpt lat="43.85953153901275" lon="7.879734470625583"><ele>217.0</ele><time>2026-04-22T10:04:52.999Z</time></trkpt><trkpt lat="43.85958876018378" lon="7.879380553394246"><ele>210.5</ele><time>2026-04-22T10:04:53.999Z</time></trkpt><trkpt lat="43.85964126469135" lon="7.879032751373117"><ele>204.0</ele><time>2026-04-22T10:04:54.999Z</time></trkpt><trkpt lat="43.85968978753512" lon="7.878672107127123"><ele>198.5</ele><time>2026-04-22T10:04:55.999Z</time></trkpt><trkpt lat="43.85973308869776" lon="7.87831502155031"><ele>193.0</ele><time>2026-04-22T10:04:56.999Z</time></trkpt><trkpt lat="43.85977366702203" lon="7.877958520443969"><ele>193.0</ele><time>2026-04-22T10:04:57.999Z</time></trkpt><trkpt lat="43.859810261795644" lon="7.877604496034681"><ele>193.0</ele><time>2026-04-22T10:04:58.999Z</time></trkpt><trkpt lat="43.859846125004786" lon="7.877252752826128"><ele>190.5</ele><time>2026-04-22T10:04:59.999Z</time></trkpt><trkpt lat="43.859880248152884" lon="7.876901913080343"><ele>188.0</ele><time>2026-04-22T10:05:00.999Z</time></trkpt><trkpt lat="43.85991098602989" lon="7.876552272893404"><ele>185.5</ele><time>2026-04-22T10:05:01.999Z</time></trkpt><trkpt lat="43.85994175255686" lon="7.876221250250862"><ele>183.0</ele><time>2026-04-22T10:05:02.999Z</time></trkpt><trkpt lat="43.85997043767615" lon="7.875892288027565"><ele>182.0</ele><time>2026-04-22T10:05:03.999Z</time></trkpt><trkpt lat="43.859997020921114" lon="7.875578186474267"><ele>181.0</ele><time>2026-04-22T10:05:04.999Z</time></trkpt><trkpt lat="43.860024949465874" lon="7.875256262011818"><ele>176.5</ele><time>2026-04-22T10:05:05.999Z</time></trkpt><trkpt lat="43.860052608886285" lon="7.874927450506779"><ele>172.0</ele><time>2026-04-22T10:05:06.999Z</time></trkpt><trkpt lat="43.86007919538385" lon="7.874588392637339"><ele>172.0</ele><time>2026-04-22T10:05:07.999Z</time></trkpt><trkpt lat="43.860104972851396" lon="7.874248187675965"><ele>172.0</ele><time>2026-04-22T10:05:08.999Z</time></trkpt><trkpt lat="43.86013250800831" lon="7.873897435849114"><ele>172.0</ele><time>2026-04-22T10:05:09.999Z</time></trkpt><trkpt lat="43.860161733723494" lon="7.873546562619748"><ele>172.0</ele><time>2026-04-22T10:05:10.999Z</time></trkpt><trkpt lat="43.86018847909138" lon="7.873200598164891"><ele>167.0</ele><time>2026-04-22T10:05:11.999Z</time></trkpt><trkpt lat="43.8602154861755" lon="7.872858557159921"><ele>162.0</ele><time>2026-04-22T10:05:12.999Z</time></trkpt><trkpt lat="43.860241632139655" lon="7.872513055253301"><ele>162.0</ele><time>2026-04-22T10:05:13.999Z</time></trkpt><trkpt lat="43.86026952005789" lon="7.872171929768489"><ele>162.0</ele><time>2026-04-22T10:05:14.999Z</time></trkpt><trkpt lat="43.86029627897419" lon="7.871837050281144"><ele>169.5</ele><time>2026-04-22T10:05:15.999Z</time></trkpt><trkpt lat="43.86032469293773" lon="7.8715108351299365"><ele>177.0</ele><time>2026-04-22T10:05:16.999Z</time></trkpt><trkpt lat="43.86035468683429" lon="7.871186960137635"><ele>191.5</ele><time>2026-04-22T10:05:17.999Z</time></trkpt><trkpt lat="43.860387425306" lon="7.870865300214407"><ele>206.0</ele><time>2026-04-22T10:05:18.999Z</time></trkpt><trkpt lat="43.86041730921166" lon="7.8705284253202725"><ele>206.0</ele><time>2026-04-22T10:05:19.999Z</time></trkpt><trkpt lat="43.86044454623384" lon="7.870210563792464"><ele>206.0</ele><time>2026-04-22T10:05:20.999Z</time></trkpt><trkpt lat="43.86047537977394" lon="7.869881689264822"><ele>211.0</ele><time>2026-04-22T10:05:21.999Z</time></trkpt><trkpt lat="43.8605568893198" lon="7.869565523186077"><ele>216.0</ele><time>2026-04-22T10:05:23Z</time></trkpt><trkpt lat="43.86064123169577" lon="7.869238376118531"><ele>216.0</ele><time>2026-04-22T10:05:24.064Z</time></trkpt><trkpt lat="43.860725945777375" lon="7.868945692616162"><ele>216.0</ele><time>2026-04-22T10:05:25.057Z</time></trkpt><trkpt lat="43.86081541691854" lon="7.868665668818773"><ele>216.0</ele><time>2026-04-22T10:05:26.056Z</time></trkpt><trkpt lat="43.8609094443151" lon="7.868385942900549"><ele>212.5</ele><time>2026-04-22T10:05:27.057Z</time></trkpt><trkpt lat="43.861006717709294" lon="7.8681189536486285"><ele>209.0</ele><time>2026-04-22T10:05:28.035Z</time></trkpt><trkpt lat="43.86142085310249" lon="7.867388965654806"><ele>196.5</ele><time>2026-04-22T10:05:30Z</time></trkpt><trkpt lat="43.86154841246723" lon="7.867108234742668"><ele>184.0</ele><time>2026-04-22T10:05:31Z</time></trkpt><trkpt lat="43.86169036521943" lon="7.866850201237197"><ele>184.0</ele><time>2026-04-22T10:05:32Z</time></trkpt><trkpt lat="43.86184353564415" lon="7.86659819195267"><ele>184.0</ele><time>2026-04-22T10:05:33Z</time></trkpt><trkpt lat="43.86200401616977" lon="7.866345578220147"><ele>184.0</ele><time>2026-04-22T10:05:34Z</time></trkpt><trkpt lat="43.862169463672444" lon="7.866099597667747"><ele>184.0</ele><time>2026-04-22T10:05:35Z</time></trkpt><trkpt lat="43.86234603248566" lon="7.865868655169268"><ele>175.0</ele><time>2026-04-22T10:05:36Z</time></trkpt><trkpt lat="43.86252204106531" lon="7.865641739076911"><ele>166.0</ele><time>2026-04-22T10:05:37Z</time></trkpt><trkpt lat="43.8627027145426" lon="7.8654232536098085"><ele>161.5</ele><time>2026-04-22T10:05:38Z</time></trkpt><trkpt lat="43.86289282602472" lon="7.865216892812213"><ele>157.0</ele><time>2026-04-22T10:05:39Z</time></trkpt><trkpt lat="43.86308642797634" lon="7.86501016988462"><ele>153.5</ele><time>2026-04-22T10:05:40Z</time></trkpt><trkpt lat="43.86329905143765" lon="7.864797184470747"><ele>150.0</ele><time>2026-04-22T10:05:41Z</time></trkpt><trkpt lat="43.86352009034957" lon="7.86459986462522"><ele>150.0</ele><time>2026-04-22T10:05:42Z</time></trkpt><trkpt lat="43.863751313404926" lon="7.864412308195211"><ele>150.0</ele><time>2026-04-22T10:05:43Z</time></trkpt><trkpt lat="43.86399593019341" lon="7.864235797706136"><ele>146.0</ele><time>2026-04-22T10:05:44Z</time></trkpt><trkpt lat="43.86424968328061" lon="7.8640586637259755"><ele>142.0</ele><time>2026-04-22T10:05:45Z</time></trkpt><trkpt lat="43.86450479892503" lon="7.863884859332053"><ele>154.5</ele><time>2026-04-22T10:05:46Z</time></trkpt><trkpt lat="43.86475230806911" lon="7.863719840426087"><ele>167.0</ele><time>2026-04-22T10:05:47Z</time></trkpt><trkpt lat="43.864997736950635" lon="7.863556796547306"><ele>163.0</ele><time>2026-04-22T10:05:48Z</time></trkpt><trkpt lat="43.86524085445724" lon="7.863392015120084"><ele>159.0</ele><time>2026-04-22T10:05:49Z</time></trkpt><trkpt lat="43.865483094036335" lon="7.863227920039881"><ele>159.0</ele><time>2026-04-22T10:05:50Z</time></trkpt><trkpt lat="43.865725561794186" lon="7.863062690922604"><ele>159.0</ele><time>2026-04-22T10:05:51Z</time></trkpt><trkpt lat="43.865967010281395" lon="7.862900066230064"><ele>160.5</ele><time>2026-04-22T10:05:52Z</time></trkpt><trkpt lat="43.86621050956492" lon="7.862737435704284"><ele>162.0</ele><time>2026-04-22T10:05:53Z</time></trkpt><trkpt lat="43.86645270488977" lon="7.862575462893195"><ele>156.0</ele><time>2026-04-22T10:05:54Z</time></trkpt><trkpt lat="43.86669965291559" lon="7.862412646923535"><ele>150.0</ele><time>2026-04-22T10:05:55Z</time></trkpt><trkpt lat="43.8669404341491" lon="7.862254369892504"><ele>150.0</ele><time>2026-04-22T10:05:56Z</time></trkpt><trkpt lat="43.867182101078726" lon="7.862093283558637"><ele>150.0</ele><time>2026-04-22T10:05:57Z</time></trkpt><trkpt lat="43.867419040649224" lon="7.8619343545841"><ele>148.5</ele><time>2026-04-22T10:05:58Z</time></trkpt><trkpt lat="43.86764697324685" lon="7.86178266461952"><ele>147.0</ele><time>2026-04-22T10:05:59Z</time></trkpt><trkpt lat="43.867870631163704" lon="7.861633795515143"><ele>147.0</ele><time>2026-04-22T10:06:00Z</time></trkpt><trkpt lat="43.86808814062276" lon="7.861483801015341"><ele>147.0</ele><time>2026-04-22T10:06:01Z</time></trkpt><trkpt lat="43.86829309735321" lon="7.861331939715794"><ele>151.0</ele><time>2026-04-22T10:06:02Z</time></trkpt><trkpt lat="43.868490945115795" lon="7.861179275080424"><ele>155.0</ele><time>2026-04-22T10:06:03Z</time></trkpt><trkpt lat="43.86867942158694" lon="7.861019995621461"><ele>159.0</ele><time>2026-04-22T10:06:04Z</time></trkpt><trkpt lat="43.868858060552384" lon="7.860849759660297"><ele>152.33333333333334</ele><time>2026-04-22T10:06:05Z</time></trkpt><trkpt lat="43.86903076612155" lon="7.86066797440502"><ele>145.66666666666669</ele><time>2026-04-22T10:06:06Z</time></trkpt><trkpt lat="43.86918980025435" lon="7.860482992976646"><ele>139.0</ele><time>2026-04-22T10:06:07Z</time></trkpt><trkpt lat="43.86934339527583" lon="7.860289253955318"><ele>131.0</ele><time>2026-04-22T10:06:08Z</time></trkpt><trkpt lat="43.86948950140515" lon="7.860080560228815"><ele>123.0</ele><time>2026-04-22T10:06:09Z</time></trkpt><trkpt lat="43.86962561333011" lon="7.85986141398072"><ele>115.0</ele><time>2026-04-22T10:06:09.999Z</time></trkpt><trkpt lat="43.86975138426335" lon="7.8596343082067355"><ele>115.0</ele><time>2026-04-22T10:06:10.999Z</time></trkpt><trkpt lat="43.86986992316405" lon="7.859401830846704"><ele>115.0</ele><time>2026-04-22T10:06:11.999Z</time></trkpt><trkpt lat="43.86998120401413" lon="7.859153621474804"><ele>115.0</ele><time>2026-04-22T10:06:12.999Z</time></trkpt><trkpt lat="43.870085425609766" lon="7.858896005334887"><ele>110.33333333333334</ele><time>2026-04-22T10:06:13.999Z</time></trkpt><trkpt lat="43.870177384412514" lon="7.858632495626199"><ele>105.66666666666666</ele><time>2026-04-22T10:06:14.999Z</time></trkpt><trkpt lat="43.87025943580839" lon="7.8583528220158145"><ele>101.0</ele><time>2026-04-22T10:06:15.999Z</time></trkpt><trkpt lat="43.87033066242863" lon="7.8580662867383895"><ele>92.66666666666666</ele><time>2026-04-22T10:06:16.999Z</time></trkpt><trkpt lat="43.87038934218381" lon="7.857775357855842"><ele>84.33333333333333</ele><time>2026-04-22T10:06:17.999Z</time></trkpt><trkpt lat="43.87044499952473" lon="7.857480281220407"><ele>76.0</ele><time>2026-04-22T10:06:18.999Z</time></trkpt><trkpt lat="43.87048522035237" lon="7.857189824648544"><ele>69.0</ele><time>2026-04-22T10:06:19.999Z</time></trkpt><trkpt lat="43.87052582631545" lon="7.856898824278416"><ele>62.0</ele><time>2026-04-22T10:06:20.999Z</time></trkpt><trkpt lat="43.87054444842638" lon="7.856598589640157"><ele>55.0</ele><time>2026-04-22T10:06:21.999Z</time></trkpt><trkpt lat="43.87055058861118" lon="7.856301014660284"><ele>52.0</ele><time>2026-04-22T10:06:22.999Z</time></trkpt><trkpt lat="43.87054529680075" lon="7.856005277075277"><ele>49.0</ele><time>2026-04-22T10:06:23.999Z</time></trkpt><trkpt lat="43.87052935721552" lon="7.855710314879451"><ele>46.0</ele><time>2026-04-22T10:06:24.999Z</time></trkpt><trkpt lat="43.870503121423866" lon="7.8554110470070935"><ele>55.333333333333336</ele><time>2026-04-22T10:06:25.999Z</time></trkpt><trkpt lat="43.87046248114639" lon="7.855115287844635"><ele>64.66666666666667</ele><time>2026-04-22T10:06:26.999Z</time></trkpt><trkpt lat="43.87041074289283" lon="7.854808838948656"><ele>74.0</ele><time>2026-04-22T10:06:27.999Z</time></trkpt><trkpt lat="43.870345184794694" lon="7.854511810660962"><ele>88.0</ele><time>2026-04-22T10:06:28.999Z</time></trkpt><trkpt lat="43.8702675400688" lon="7.854216729875103"><ele>102.0</ele><time>2026-04-22T10:06:29.999Z</time></trkpt><trkpt lat="43.87017825950943" lon="7.853929460520813"><ele>102.5</ele><time>2026-04-22T10:06:30.999Z</time></trkpt><trkpt lat="43.87007042830802" lon="7.853633522599701"><ele>103.0</ele><time>2026-04-22T10:06:31.999Z</time></trkpt><trkpt lat="43.86995064258301" lon="7.8533431390921145"><ele>114.0</ele><time>2026-04-22T10:06:32.999Z</time></trkpt><trkpt lat="43.869819994980055" lon="7.853076451082115"><ele>125.0</ele><time>2026-04-22T10:06:33.999Z</time></trkpt><trkpt lat="43.86967858597807" lon="7.852833173510832"><ele>122.33333333333333</ele><time>2026-04-22T10:06:34.999Z</time></trkpt><trkpt lat="43.8695299084949" lon="7.852608798128156"><ele>119.66666666666666</ele><time>2026-04-22T10:06:35.999Z</time></trkpt><trkpt lat="43.869373617657956" lon="7.852391159897397"><ele>117.0</ele><time>2026-04-22T10:06:36.999Z</time></trkpt><trkpt lat="43.86921235871428" lon="7.8521723643006895"><ele>117.0</ele><time>2026-04-22T10:06:37.999Z</time></trkpt><trkpt lat="43.869048546625386" lon="7.851952518139223"><ele>117.0</ele><time>2026-04-22T10:06:38.999Z</time></trkpt><trkpt lat="43.86887225262852" lon="7.85173309111109"><ele>124.0</ele><time>2026-04-22T10:06:39.999Z</time></trkpt><trkpt lat="43.86868023383144" lon="7.851527225867604"><ele>131.0</ele><time>2026-04-22T10:06:40.999Z</time></trkpt><trkpt lat="43.86848531445165" lon="7.851327747558777"><ele>123.5</ele><time>2026-04-22T10:06:41.999Z</time></trkpt><trkpt lat="43.86829128033606" lon="7.851135180791142"><ele>116.0</ele><time>2026-04-22T10:06:42.999Z</time></trkpt><trkpt lat="43.868089352057865" lon="7.850954096354534"><ele>116.0</ele><time>2026-04-22T10:06:43.999Z</time></trkpt><trkpt lat="43.86787931359241" lon="7.850758680012184"><ele>116.0</ele><time>2026-04-22T10:06:44.999Z</time></trkpt><trkpt lat="43.867674247524086" lon="7.850571881944048"><ele>126.0</ele><time>2026-04-22T10:06:45.999Z</time></trkpt><trkpt lat="43.867400648962736" lon="7.850322473200254"><ele>136.0</ele><time>2026-04-22T10:06:46.999Z</time></trkpt><trkpt lat="43.86718555818794" lon="7.850060676362685"><ele>144.5</ele><time>2026-04-22T10:06:47.999Z</time></trkpt><trkpt lat="43.86696856303379" lon="7.8498193540168275"><ele>153.0</ele><time>2026-04-22T10:06:48.999Z</time></trkpt><trkpt lat="43.86673851704977" lon="7.849604578847742"><ele>164.0</ele><time>2026-04-22T10:06:49.999Z</time></trkpt><trkpt lat="43.86650810634207" lon="7.849390749012079"><ele>175.0</ele><time>2026-04-22T10:06:50.999Z</time></trkpt><trkpt lat="43.866273464481644" lon="7.849181075152161"><ele>180.5</ele><time>2026-04-22T10:06:51.999Z</time></trkpt><trkpt lat="43.866026794290676" lon="7.848963399623609"><ele>186.0</ele><time>2026-04-22T10:06:53.06Z</time></trkpt><trkpt lat="43.8657920730198" lon="7.848757759392974"><ele>186.0</ele><time>2026-04-22T10:06:54.059Z</time></trkpt><trkpt lat="43.865559106197615" lon="7.848559060247948"><ele>186.0</ele><time>2026-04-22T10:06:55.059Z</time></trkpt><trkpt lat="43.86532472145756" lon="7.848364888401769"><ele>181.5</ele><time>2026-04-22T10:06:56.056Z</time></trkpt><trkpt lat="43.86508849689358" lon="7.84817786354604"><ele>177.0</ele><time>2026-04-22T10:06:57.057Z</time></trkpt><trkpt lat="43.86346131946604" lon="7.847038052084367"><ele>174.0</ele><time>2026-04-22T10:07:04.999Z</time></trkpt><trkpt lat="43.86326253405261" lon="7.846887619432556"><ele>171.0</ele><time>2026-04-22T10:07:05.999Z</time></trkpt><trkpt lat="43.863089158840765" lon="7.846753494844574"><ele>168.0</ele><time>2026-04-22T10:07:06.999Z</time></trkpt><trkpt lat="43.86289075002227" lon="7.8466059954367635"><ele>168.0</ele><time>2026-04-22T10:07:07.999Z</time></trkpt><trkpt lat="43.862693646368015" lon="7.846444545173892"><ele>168.0</ele><time>2026-04-22T10:07:08.999Z</time></trkpt><trkpt lat="43.86249161077255" lon="7.846292351499919"><ele>163.0</ele><time>2026-04-22T10:07:09.999Z</time></trkpt><trkpt lat="43.862283142043445" lon="7.846101148626515"><ele>158.0</ele><time>2026-04-22T10:07:10.999Z</time></trkpt><trkpt lat="43.86207112258807" lon="7.84592317527846"><ele>158.0</ele><time>2026-04-22T10:07:11.999Z</time></trkpt><trkpt lat="43.8618637259961" lon="7.845744012702564"><ele>158.0</ele><time>2026-04-22T10:07:12.999Z</time></trkpt><trkpt lat="43.86165289617686" lon="7.845570545250121"><ele>144.5</ele><time>2026-04-22T10:07:13.999Z</time></trkpt><trkpt lat="43.86145048494809" lon="7.845396795141593"><ele>131.0</ele><time>2026-04-22T10:07:14.999Z</time></trkpt><trkpt lat="43.861245813486185" lon="7.845218769251263"><ele>132.5</ele><time>2026-04-22T10:07:15.999Z</time></trkpt><trkpt lat="43.86104570718313" lon="7.845035128387595"><ele>134.0</ele><time>2026-04-22T10:07:16.999Z</time></trkpt><trkpt lat="43.86084819495651" lon="7.844847900531668"><ele>141.5</ele><time>2026-04-22T10:07:17.999Z</time></trkpt><trkpt lat="43.8606513995004" lon="7.844659700926321"><ele>149.0</ele><time>2026-04-22T10:07:18.999Z</time></trkpt><trkpt lat="43.86045101351254" lon="7.844474697775722"><ele>153.0</ele><time>2026-04-22T10:07:19.999Z</time></trkpt><trkpt lat="43.86024711090653" lon="7.8442921858383245"><ele>157.0</ele><time>2026-04-22T10:07:20.999Z</time></trkpt><trkpt lat="43.860044492778016" lon="7.844116859868588"><ele>157.0</ele><time>2026-04-22T10:07:21.999Z</time></trkpt><trkpt lat="43.859837789653" lon="7.843939338930086"><ele>157.0</ele><time>2026-04-22T10:07:22.999Z</time></trkpt><trkpt lat="43.85961626517557" lon="7.843751270136817"><ele>157.0</ele><time>2026-04-22T10:07:23.999Z</time></trkpt><trkpt lat="43.85939737467361" lon="7.843565373817486"><ele>157.0</ele><time>2026-04-22T10:07:24.999Z</time></trkpt><trkpt lat="43.859174993531" lon="7.843375602785164"><ele>170.0</ele><time>2026-04-22T10:07:25.999Z</time></trkpt><trkpt lat="43.85895307168135" lon="7.843187624713869"><ele>183.0</ele><time>2026-04-22T10:07:26.999Z</time></trkpt><trkpt lat="43.85873768674159" lon="7.842994926150146"><ele>183.0</ele><time>2026-04-22T10:07:27.999Z</time></trkpt><trkpt lat="43.85850511163713" lon="7.842792307005328"><ele>183.0</ele><time>2026-04-22T10:07:29.063Z</time></trkpt><trkpt lat="43.85815994077611" lon="7.842540900073012"><ele>164.0</ele><time>2026-04-22T10:07:31Z</time></trkpt><trkpt lat="43.857953269095184" lon="7.842362019940571"><ele>145.0</ele><time>2026-04-22T10:07:32Z</time></trkpt><trkpt lat="43.85774480186031" lon="7.842202402819637"><ele>121.5</ele><time>2026-04-22T10:07:33Z</time></trkpt><trkpt lat="43.8575349042152" lon="7.842045824982161"><ele>98.0</ele><time>2026-04-22T10:07:34Z</time></trkpt><trkpt lat="43.85733009955714" lon="7.841887667616155"><ele>98.0</ele><time>2026-04-22T10:07:35Z</time></trkpt><trkpt lat="43.857125338799676" lon="7.841727076993289"><ele>98.0</ele><time>2026-04-22T10:07:36Z</time></trkpt><trkpt lat="43.85692191592935" lon="7.841561917624388"><ele>112.0</ele><time>2026-04-22T10:07:37Z</time></trkpt><trkpt lat="43.85671677959811" lon="7.841388587476972"><ele>126.0</ele><time>2026-04-22T10:07:38Z</time></trkpt><trkpt lat="43.85652167323178" lon="7.841223211586512"><ele>126.0</ele><time>2026-04-22T10:07:39Z</time></trkpt><trkpt lat="43.85633673320578" lon="7.841065017180587"><ele>126.0</ele><time>2026-04-22T10:07:40Z</time></trkpt><trkpt lat="43.85616161901671" lon="7.8409171412486085"><ele>126.0</ele><time>2026-04-22T10:07:41Z</time></trkpt><trkpt lat="43.8559878288641" lon="7.840772949325061"><ele>134.66666666666666</ele><time>2026-04-22T10:07:42Z</time></trkpt><trkpt lat="43.85581977619295" lon="7.840634541933944"><ele>143.33333333333331</ele><time>2026-04-22T10:07:43Z</time></trkpt><trkpt lat="43.855648304537034" lon="7.840505846724254"><ele>152.0</ele><time>2026-04-22T10:07:44Z</time></trkpt><trkpt lat="43.855473175547175" lon="7.840389863369767"><ele>152.0</ele><time>2026-04-22T10:07:45Z</time></trkpt><trkpt lat="43.85529766924204" lon="7.840266376027743"><ele>152.0</ele><time>2026-04-22T10:07:46Z</time></trkpt><trkpt lat="43.855111418125105" lon="7.840153289082146"><ele>152.0</ele><time>2026-04-22T10:07:47Z</time></trkpt><trkpt lat="43.85492847255512" lon="7.840052091597759"><ele>147.33333333333331</ele><time>2026-04-22T10:07:48Z</time></trkpt><trkpt lat="43.85474365549576" lon="7.839960879975178"><ele>142.66666666666666</ele><time>2026-04-22T10:07:49Z</time></trkpt><trkpt lat="43.854551028439424" lon="7.839876122676263"><ele>138.0</ele><time>2026-04-22T10:07:50Z</time></trkpt><trkpt lat="43.85435328439798" lon="7.839799096922985"><ele>142.0</ele><time>2026-04-22T10:07:51Z</time></trkpt><trkpt lat="43.854154778168684" lon="7.839731960616662"><ele>146.0</ele><time>2026-04-22T10:07:52Z</time></trkpt><trkpt lat="43.853959384243176" lon="7.839673342313055"><ele>150.0</ele><time>2026-04-22T10:07:53Z</time></trkpt><trkpt lat="43.85375335253517" lon="7.839625745486624"><ele>150.0</ele><time>2026-04-22T10:07:54Z</time></trkpt><trkpt lat="43.85354594190817" lon="7.839583734599979"><ele>150.0</ele><time>2026-04-22T10:07:55Z</time></trkpt><trkpt lat="43.85333529778371" lon="7.839551281117729"><ele>150.0</ele><time>2026-04-22T10:07:56Z</time></trkpt><trkpt lat="43.853125392685506" lon="7.839519514593882"><ele>149.66666666666666</ele><time>2026-04-22T10:07:57Z</time></trkpt><trkpt lat="43.852924018206394" lon="7.839491187336011"><ele>149.33333333333331</ele><time>2026-04-22T10:07:58Z</time></trkpt><trkpt lat="43.85271834081571" lon="7.83946256016259"><ele>149.0</ele><time>2026-04-22T10:07:59Z</time></trkpt><trkpt lat="43.852523336810805" lon="7.839431692084974"><ele>150.0</ele><time>2026-04-22T10:08:00Z</time></trkpt><trkpt lat="43.85231536253335" lon="7.83940226248549"><ele>151.0</ele><time>2026-04-22T10:08:01Z</time></trkpt><trkpt lat="43.85210807459405" lon="7.839376444654992"><ele>152.0</ele><time>2026-04-22T10:08:02Z</time></trkpt><trkpt lat="43.85189257004923" lon="7.839355344487634"><ele>152.66666666666666</ele><time>2026-04-22T10:08:02.999Z</time></trkpt><trkpt lat="43.851674786349314" lon="7.839332748734459"><ele>153.33333333333334</ele><time>2026-04-22T10:08:03.999Z</time></trkpt><trkpt lat="43.851448436252326" lon="7.839305313142207"><ele>154.0</ele><time>2026-04-22T10:08:04.999Z</time></trkpt><trkpt lat="43.85121629093348" lon="7.839274922743999"><ele>160.0</ele><time>2026-04-22T10:08:05.999Z</time></trkpt><trkpt lat="43.850978600115944" lon="7.8392329476653995"><ele>166.0</ele><time>2026-04-22T10:08:06.999Z</time></trkpt><trkpt lat="43.85074127853122" lon="7.839179432461039"><ele>166.0</ele><time>2026-04-22T10:08:07.999Z</time></trkpt><trkpt lat="43.8504969794844" lon="7.839110630357781"><ele>166.0</ele><time>2026-04-22T10:08:08.999Z</time></trkpt><trkpt lat="43.850257551576654" lon="7.839030792386913"><ele>160.0</ele><time>2026-04-22T10:08:09.999Z</time></trkpt><trkpt lat="43.85002198048029" lon="7.838945241283677"><ele>154.0</ele><time>2026-04-22T10:08:10.999Z</time></trkpt><trkpt lat="43.8497904829364" lon="7.838862310019727"><ele>154.0</ele><time>2026-04-22T10:08:11.999Z</time></trkpt><trkpt lat="43.84957812110433" lon="7.838774151175413"><ele>154.0</ele><time>2026-04-22T10:08:12.999Z</time></trkpt><trkpt lat="43.84937278360227" lon="7.838686657482558"><ele>154.0</ele><time>2026-04-22T10:08:13.999Z</time></trkpt><trkpt lat="43.84916442402354" lon="7.838591012163686"><ele>157.66666666666669</ele><time>2026-04-22T10:08:14.999Z</time></trkpt><trkpt lat="43.84896127487758" lon="7.838481663809593"><ele>161.33333333333334</ele><time>2026-04-22T10:08:15.999Z</time></trkpt><trkpt lat="43.848761908095334" lon="7.838356858050795"><ele>165.0</ele><time>2026-04-22T10:08:16.999Z</time></trkpt><trkpt lat="43.84856787645386" lon="7.8382213873830615"><ele>168.66666666666666</ele><time>2026-04-22T10:08:17.999Z</time></trkpt><trkpt lat="43.848373062251994" lon="7.8380770960470825"><ele>172.33333333333331</ele><time>2026-04-22T10:08:18.999Z</time></trkpt><trkpt lat="43.848177809662744" lon="7.837927060197554"><ele>176.0</ele><time>2026-04-22T10:08:19.999Z</time></trkpt><trkpt lat="43.84798373241674" lon="7.837768394249707"><ele>185.0</ele><time>2026-04-22T10:08:20.999Z</time></trkpt><trkpt lat="43.84778893285156" lon="7.837601907226741"><ele>194.0</ele><time>2026-04-22T10:08:21.999Z</time></trkpt><trkpt lat="43.84759221916434" lon="7.83742701960995"><ele>195.0</ele><time>2026-04-22T10:08:22.999Z</time></trkpt><trkpt lat="43.847397303289135" lon="7.837229690425419"><ele>196.0</ele><time>2026-04-22T10:08:23.999Z</time></trkpt><trkpt lat="43.84719715193621" lon="7.836999973108005"><ele>209.5</ele><time>2026-04-22T10:08:24.999Z</time></trkpt><trkpt lat="43.84699364172206" lon="7.836753739329864"><ele>223.0</ele><time>2026-04-22T10:08:25.999Z</time></trkpt><trkpt lat="43.84679187595424" lon="7.836509086320538"><ele>238.5</ele><time>2026-04-22T10:08:26.999Z</time></trkpt><trkpt lat="43.846594037566376" lon="7.836285834423512"><ele>254.0</ele><time>2026-04-22T10:08:27.999Z</time></trkpt><trkpt lat="43.84639238597783" lon="7.836046840817749"><ele>270.0</ele><time>2026-04-22T10:08:28.999Z</time></trkpt><trkpt lat="43.846201164585196" lon="7.8357636405991595"><ele>286.0</ele><time>2026-04-22T10:08:30.061Z</time></trkpt><trkpt lat="43.846038242476496" lon="7.835481041055528"><ele>285.0</ele><time>2026-04-22T10:08:31.055Z</time></trkpt><trkpt lat="43.84588120997702" lon="7.835188084140717"><ele>284.0</ele><time>2026-04-22T10:08:32.059Z</time></trkpt><trkpt lat="43.845736769496504" lon="7.834896620519378"><ele>288.0</ele><time>2026-04-22T10:08:33.06Z</time></trkpt><trkpt lat="43.84559926751242" lon="7.834601241657065"><ele>292.0</ele><time>2026-04-22T10:08:34.056Z</time></trkpt><trkpt lat="43.8454776984938" lon="7.834308957764753"><ele>287.5</ele><time>2026-04-22T10:08:35.051Z</time></trkpt><trkpt lat="43.84536538229963" lon="7.8340205536439615"><ele>283.0</ele><time>2026-04-22T10:08:36.029Z</time></trkpt><trkpt lat="43.8448415" lon="7.8318396"><ele>199.0</ele><time>2026-04-22T10:08:39.701Z</time></trkpt><trkpt lat="43.844728270849615" lon="7.83096057323661"><ele>199.0</ele><time>2026-04-22T10:08:44.999Z</time></trkpt><trkpt lat="43.84468969087421" lon="7.830618075214403"><ele>199.0</ele><time>2026-04-22T10:08:45.999Z</time></trkpt><trkpt lat="43.84465401723298" lon="7.830258626631321"><ele>199.0</ele><time>2026-04-22T10:08:46.999Z</time></trkpt><trkpt lat="43.84464428333465" lon="7.829902426637169"><ele>199.0</ele><time>2026-04-22T10:08:47.999Z</time></trkpt><trkpt lat="43.844631679258946" lon="7.829546905295563"><ele>195.0</ele><time>2026-04-22T10:08:48.999Z</time></trkpt><trkpt lat="43.844627330894056" lon="7.8291948820882284"><ele>191.0</ele><time>2026-04-22T10:08:49.999Z</time></trkpt><trkpt lat="43.844627661303015" lon="7.828842951260997"><ele>191.0</ele><time>2026-04-22T10:08:50.999Z</time></trkpt><trkpt lat="43.84462816298827" lon="7.828480705220227"><ele>191.0</ele><time>2026-04-22T10:08:51.999Z</time></trkpt><trkpt lat="43.844630281461164" lon="7.828125463218253"><ele>190.0</ele><time>2026-04-22T10:08:52.999Z</time></trkpt><trkpt lat="43.84463620647287" lon="7.82777578124366"><ele>189.0</ele><time>2026-04-22T10:08:53.999Z</time></trkpt><trkpt lat="43.84464183344357" lon="7.827419915788237"><ele>188.0</ele><time>2026-04-22T10:08:54.999Z</time></trkpt><trkpt lat="43.84463702175693" lon="7.827066295347568"><ele>187.0</ele><time>2026-04-22T10:08:55.999Z</time></trkpt><trkpt lat="43.84464345739351" lon="7.826713806632883"><ele>180.5</ele><time>2026-04-22T10:08:56.999Z</time></trkpt><trkpt lat="43.84464508203293" lon="7.826360785979967"><ele>174.0</ele><time>2026-04-22T10:08:57.999Z</time></trkpt><trkpt lat="43.84464892326734" lon="7.826005063149332"><ele>174.0</ele><time>2026-04-22T10:08:58.999Z</time></trkpt><trkpt lat="43.84465354000869" lon="7.825656667439101"><ele>174.0</ele><time>2026-04-22T10:08:59.999Z</time></trkpt><trkpt lat="43.84465942273209" lon="7.825304073444104"><ele>176.0</ele><time>2026-04-22T10:09:00.999Z</time></trkpt><trkpt lat="43.84466488115108" lon="7.824951187346685"><ele>178.0</ele><time>2026-04-22T10:09:01.999Z</time></trkpt><trkpt lat="43.844668245669865" lon="7.824600381619129"><ele>177.0</ele><time>2026-04-22T10:09:02.999Z</time></trkpt><trkpt lat="43.84467262607251" lon="7.824247927595678"><ele>176.0</ele><time>2026-04-22T10:09:03.999Z</time></trkpt><trkpt lat="43.84467370655339" lon="7.8239072458529195"><ele>176.0</ele><time>2026-04-22T10:09:04.999Z</time></trkpt><trkpt lat="43.84468085219225" lon="7.823562217450175"><ele>176.0</ele><time>2026-04-22T10:09:05.999Z</time></trkpt><trkpt lat="43.84468533442975" lon="7.82323799349769"><ele>173.0</ele><time>2026-04-22T10:09:06.999Z</time></trkpt><trkpt lat="43.84468502978004" lon="7.8229199714595685"><ele>170.0</ele><time>2026-04-22T10:09:07.999Z</time></trkpt><trkpt lat="43.84467919948714" lon="7.822598598131432"><ele>167.5</ele><time>2026-04-22T10:09:08.999Z</time></trkpt><trkpt lat="43.8446687049914" lon="7.822283198943935"><ele>165.0</ele><time>2026-04-22T10:09:09.999Z</time></trkpt><trkpt lat="43.84465175399618" lon="7.821959891264223"><ele>153.5</ele><time>2026-04-22T10:09:10.999Z</time></trkpt><trkpt lat="43.8446283422684" lon="7.821642070800664"><ele>142.0</ele><time>2026-04-22T10:09:11.999Z</time></trkpt><trkpt lat="43.84459972959139" lon="7.821311758442955"><ele>142.0</ele><time>2026-04-22T10:09:12.999Z</time></trkpt><trkpt lat="43.84456626619962" lon="7.820985803141807"><ele>142.0</ele><time>2026-04-22T10:09:13.999Z</time></trkpt><trkpt lat="43.84452553180502" lon="7.8206651107536835"><ele>140.5</ele><time>2026-04-22T10:09:14.999Z</time></trkpt><trkpt lat="43.84447793280157" lon="7.820346087715149"><ele>139.0</ele><time>2026-04-22T10:09:15.999Z</time></trkpt><trkpt lat="43.8444247055184" lon="7.820025059717314"><ele>139.0</ele><time>2026-04-22T10:09:16.999Z</time></trkpt><trkpt lat="43.84436563866684" lon="7.819715450153708"><ele>139.0</ele><time>2026-04-22T10:09:17.999Z</time></trkpt><trkpt lat="43.84429848487625" lon="7.819403951813127"><ele>136.5</ele><time>2026-04-22T10:09:18.998Z</time></trkpt><trkpt lat="43.844228075545175" lon="7.819101870902324"><ele>134.0</ele><time>2026-04-22T10:09:19.998Z</time></trkpt><trkpt lat="43.844151186090976" lon="7.818798200282131"><ele>134.0</ele><time>2026-04-22T10:09:20.998Z</time></trkpt><trkpt lat="43.84406701024857" lon="7.818500355255984"><ele>134.0</ele><time>2026-04-22T10:09:21.998Z</time></trkpt><trkpt lat="43.84397912727225" lon="7.8182077297305685"><ele>143.5</ele><time>2026-04-22T10:09:22.998Z</time></trkpt><trkpt lat="43.84388446230149" lon="7.817913373514767"><ele>153.0</ele><time>2026-04-22T10:09:23.998Z</time></trkpt><trkpt lat="43.843784263339025" lon="7.8176167650599195"><ele>159.0</ele><time>2026-04-22T10:09:24.998Z</time></trkpt><trkpt lat="43.84367640441656" lon="7.817322904423762"><ele>165.0</ele><time>2026-04-22T10:09:25.998Z</time></trkpt><trkpt lat="43.843561188794055" lon="7.817032669759502"><ele>149.0</ele><time>2026-04-22T10:09:26.998Z</time></trkpt><trkpt lat="43.84343734770062" lon="7.81674337818813"><ele>133.0</ele><time>2026-04-22T10:09:27.998Z</time></trkpt><trkpt lat="43.84330633634948" lon="7.816452091961709"><ele>133.0</ele><time>2026-04-22T10:09:28.998Z</time></trkpt><trkpt lat="43.84316994857841" lon="7.816166188427599"><ele>133.0</ele><time>2026-04-22T10:09:29.998Z</time></trkpt><trkpt lat="43.84302930734017" lon="7.8158971389550445"><ele>117.5</ele><time>2026-04-22T10:09:30.998Z</time></trkpt><trkpt lat="43.84288837204008" lon="7.815641301713049"><ele>102.0</ele><time>2026-04-22T10:09:31.998Z</time></trkpt><trkpt lat="43.842745159437676" lon="7.815391186064448"><ele>85.0</ele><time>2026-04-22T10:09:32.998Z</time></trkpt><trkpt lat="43.842600511200125" lon="7.815146453508006"><ele>68.0</ele><time>2026-04-22T10:09:34Z</time></trkpt><trkpt lat="43.84244999189466" lon="7.814908344478798"><ele>68.0</ele><time>2026-04-22T10:09:35Z</time></trkpt><trkpt lat="43.84229296852258" lon="7.814673475767611"><ele>68.0</ele><time>2026-04-22T10:09:36Z</time></trkpt><trkpt lat="43.84212745666812" lon="7.814445670881073"><ele>66.0</ele><time>2026-04-22T10:09:37Z</time></trkpt><trkpt lat="43.84195616759975" lon="7.814220463385594"><ele>64.0</ele><time>2026-04-22T10:09:38Z</time></trkpt><trkpt lat="43.84178068157257" lon="7.813995606727448"><ele>63.0</ele><time>2026-04-22T10:09:39Z</time></trkpt><trkpt lat="43.84159757003609" lon="7.813770060436445"><ele>62.0</ele><time>2026-04-22T10:09:40Z</time></trkpt><trkpt lat="43.841404700223784" lon="7.813541583344045"><ele>62.5</ele><time>2026-04-22T10:09:41Z</time></trkpt><trkpt lat="43.84120316655545" lon="7.813315046539835"><ele>63.0</ele><time>2026-04-22T10:09:42Z</time></trkpt><trkpt lat="43.84099893918787" lon="7.813092314070935"><ele>68.5</ele><time>2026-04-22T10:09:43Z</time></trkpt><trkpt lat="43.840795471094786" lon="7.812867497436099"><ele>74.0</ele><time>2026-04-22T10:09:44Z</time></trkpt><trkpt lat="43.84059314991267" lon="7.812641016894188"><ele>80.0</ele><time>2026-04-22T10:09:45Z</time></trkpt><trkpt lat="43.840393370525874" lon="7.812413528260282"><ele>86.0</ele><time>2026-04-22T10:09:46Z</time></trkpt><trkpt lat="43.840196965451256" lon="7.812187065528536"><ele>92.5</ele><time>2026-04-22T10:09:47Z</time></trkpt><trkpt lat="43.84000820891648" lon="7.811963007543246"><ele>99.0</ele><time>2026-04-22T10:09:48Z</time></trkpt><trkpt lat="43.839820835663005" lon="7.811735280839043"><ele>104.5</ele><time>2026-04-22T10:09:49Z</time></trkpt><trkpt lat="43.83963476063938" lon="7.811510607916911"><ele>110.0</ele><time>2026-04-22T10:09:50Z</time></trkpt><trkpt lat="43.83945046521053" lon="7.8112871064493286"><ele>115.0</ele><time>2026-04-22T10:09:51Z</time></trkpt><trkpt lat="43.839268297544706" lon="7.811066313232799"><ele>120.0</ele><time>2026-04-22T10:09:52Z</time></trkpt><trkpt lat="43.839086811942686" lon="7.810839218726718"><ele>130.5</ele><time>2026-04-22T10:09:52.999Z</time></trkpt><trkpt lat="43.83891275495232" lon="7.810608163578426"><ele>141.0</ele><time>2026-04-22T10:09:53.999Z</time></trkpt><trkpt lat="43.83874773071888" lon="7.81036899516622"><ele>145.0</ele><time>2026-04-22T10:09:54.999Z</time></trkpt><trkpt lat="43.8385935882196" lon="7.810122581916433"><ele>149.0</ele><time>2026-04-22T10:09:55.999Z</time></trkpt><trkpt lat="43.838448453429365" lon="7.809871695967766"><ele>149.0</ele><time>2026-04-22T10:09:56.999Z</time></trkpt><trkpt lat="43.83830259904948" lon="7.8095970848856995"><ele>149.0</ele><time>2026-04-22T10:09:58.063Z</time></trkpt><trkpt lat="43.838159344543335" lon="7.809341264266183"><ele>145.0</ele><time>2026-04-22T10:09:59.06Z</time></trkpt><trkpt lat="43.83801741565056" lon="7.809078844796981"><ele>141.0</ele><time>2026-04-22T10:10:00.059Z</time></trkpt><trkpt lat="43.836838143546764" lon="7.806591372095029"><ele>136.33333333333334</ele><time>2026-04-22T10:10:07.999Z</time></trkpt><trkpt lat="43.83674428294201" lon="7.806284793925283"><ele>131.66666666666669</ele><time>2026-04-22T10:10:08.999Z</time></trkpt><trkpt lat="43.83673444725662" lon="7.805999640246614"><ele>127.0</ele><time>2026-04-22T10:10:09.999Z</time></trkpt><trkpt lat="43.83667184135068" lon="7.8056824835833565"><ele>123.0</ele><time>2026-04-22T10:10:10.999Z</time></trkpt><trkpt lat="43.83661934703131" lon="7.805337981495468"><ele>119.0</ele><time>2026-04-22T10:10:11.999Z</time></trkpt><trkpt lat="43.83655283955536" lon="7.8049965685715295"><ele>120.0</ele><time>2026-04-22T10:10:12.999Z</time></trkpt><trkpt lat="43.83647957903284" lon="7.804655164692076"><ele>121.0</ele><time>2026-04-22T10:10:13.999Z</time></trkpt><trkpt lat="43.83639262194539" lon="7.804315828055615"><ele>121.0</ele><time>2026-04-22T10:10:14.999Z</time></trkpt><trkpt lat="43.836306015859265" lon="7.803979469731066"><ele>121.0</ele><time>2026-04-22T10:10:15.999Z</time></trkpt><trkpt lat="43.83621614681733" lon="7.803635427904514"><ele>133.0</ele><time>2026-04-22T10:10:16.999Z</time></trkpt><trkpt lat="43.83612872827152" lon="7.803292554583482"><ele>145.0</ele><time>2026-04-22T10:10:17.999Z</time></trkpt><trkpt lat="43.83603873244451" lon="7.802942894073265"><ele>155.5</ele><time>2026-04-22T10:10:18.999Z</time></trkpt><trkpt lat="43.83594804414398" lon="7.802586774228167"><ele>166.0</ele><time>2026-04-22T10:10:19.999Z</time></trkpt><trkpt lat="43.83585651073616" lon="7.802223881593973"><ele>166.0</ele><time>2026-04-22T10:10:20.999Z</time></trkpt><trkpt lat="43.835764673212644" lon="7.80185604352447"><ele>166.0</ele><time>2026-04-22T10:10:21.999Z</time></trkpt><trkpt lat="43.835672547887" lon="7.801486484369607"><ele>177.0</ele><time>2026-04-22T10:10:22.999Z</time></trkpt><trkpt lat="43.83557923231428" lon="7.801113783908764"><ele>188.0</ele><time>2026-04-22T10:10:23.999Z</time></trkpt><trkpt lat="43.835478372931235" lon="7.800713313625176"><ele>133.0</ele><time>2026-04-22T10:10:25.067Z</time></trkpt><trkpt lat="43.83483250488615" lon="7.798319777472569"><ele>133.0</ele><time>2026-04-22T10:10:31.999Z</time></trkpt><trkpt lat="43.83472981803826" lon="7.797963702637551"><ele>133.0</ele><time>2026-04-22T10:10:32.999Z</time></trkpt><trkpt lat="43.83460430143145" lon="7.797573113710324"><ele>117.5</ele><time>2026-04-22T10:10:33.999Z</time></trkpt><trkpt lat="43.834485469216354" lon="7.797198419680171"><ele>102.0</ele><time>2026-04-22T10:10:34.999Z</time></trkpt><trkpt lat="43.83437928676524" lon="7.796832703070117"><ele>86.5</ele><time>2026-04-22T10:10:35.999Z</time></trkpt><trkpt lat="43.83428409460347" lon="7.796481705417119"><ele>71.0</ele><time>2026-04-22T10:10:36.999Z</time></trkpt><trkpt lat="43.83419571078704" lon="7.796145306419428"><ele>76.0</ele><time>2026-04-22T10:10:37.999Z</time></trkpt><trkpt lat="43.8341068213855" lon="7.795803370092178"><ele>81.0</ele><time>2026-04-22T10:10:38.999Z</time></trkpt><trkpt lat="43.834020018425896" lon="7.795466430185168"><ele>87.0</ele><time>2026-04-22T10:10:39.999Z</time></trkpt><trkpt lat="43.8339339051391" lon="7.795131593191464"><ele>93.0</ele><time>2026-04-22T10:10:40.999Z</time></trkpt><trkpt lat="43.83384904704862" lon="7.7948003192637785"><ele>93.0</ele><time>2026-04-22T10:10:41.999Z</time></trkpt><trkpt lat="43.83376236504836" lon="7.794468213950124"><ele>93.0</ele><time>2026-04-22T10:10:42.999Z</time></trkpt><trkpt lat="43.833676368703685" lon="7.7941407630894926"><ele>102.5</ele><time>2026-04-22T10:10:43.999Z</time></trkpt><trkpt lat="43.83358949047542" lon="7.793808886056381"><ele>112.0</ele><time>2026-04-22T10:10:44.999Z</time></trkpt><trkpt lat="43.833503542292966" lon="7.793478977655467"><ele>125.5</ele><time>2026-04-22T10:10:45.999Z</time></trkpt><trkpt lat="43.83341906347539" lon="7.7931506098824865"><ele>139.0</ele><time>2026-04-22T10:10:46.999Z</time></trkpt><trkpt lat="43.83333328933236" lon="7.792823447773973"><ele>150.0</ele><time>2026-04-22T10:10:47.999Z</time></trkpt><trkpt lat="43.83324913652565" lon="7.792501813151934"><ele>161.0</ele><time>2026-04-22T10:10:48.999Z</time></trkpt><trkpt lat="43.833165963959864" lon="7.792188376932647"><ele>161.0</ele><time>2026-04-22T10:10:49.999Z</time></trkpt><trkpt lat="43.8330883073317" lon="7.791892941449043"><ele>161.0</ele><time>2026-04-22T10:10:50.999Z</time></trkpt><trkpt lat="43.83301567575848" lon="7.791608964722828"><ele>161.0</ele><time>2026-04-22T10:10:51.999Z</time></trkpt><trkpt lat="43.83294553262681" lon="7.791326687114562"><ele>165.33333333333331</ele><time>2026-04-22T10:10:52.999Z</time></trkpt><trkpt lat="43.832880614098045" lon="7.791050669160353"><ele>169.66666666666666</ele><time>2026-04-22T10:10:53.999Z</time></trkpt><trkpt lat="43.832821934985034" lon="7.790775826630353"><ele>174.0</ele><time>2026-04-22T10:10:54.999Z</time></trkpt><trkpt lat="43.832764835446355" lon="7.790505324743184"><ele>174.33333333333334</ele><time>2026-04-22T10:10:55.999Z</time></trkpt><trkpt lat="43.83270896627129" lon="7.790233131909332"><ele>174.66666666666669</ele><time>2026-04-22T10:10:56.999Z</time></trkpt><trkpt lat="43.832664997316705" lon="7.789968663791895"><ele>175.0</ele><time>2026-04-22T10:10:57.999Z</time></trkpt><trkpt lat="43.83262419654536" lon="7.789705386530789"><ele>176.0</ele><time>2026-04-22T10:10:58.999Z</time></trkpt><trkpt lat="43.8325873516378" lon="7.789434774820374"><ele>177.0</ele><time>2026-04-22T10:10:59.999Z</time></trkpt><trkpt lat="43.83255324380096" lon="7.789148096538985"><ele>178.0</ele><time>2026-04-22T10:11:00.999Z</time></trkpt><trkpt lat="43.832522745427724" lon="7.788850282452859"><ele>178.0</ele><time>2026-04-22T10:11:01.999Z</time></trkpt><trkpt lat="43.83249716572011" lon="7.788547368425705"><ele>178.0</ele><time>2026-04-22T10:11:02.999Z</time></trkpt><trkpt lat="43.83248171775267" lon="7.788248383863845"><ele>178.0</ele><time>2026-04-22T10:11:03.999Z</time></trkpt><trkpt lat="43.8324712665743" lon="7.7879530811161235"><ele>186.33333333333334</ele><time>2026-04-22T10:11:04.999Z</time></trkpt><trkpt lat="43.83246344491787" lon="7.787659774753177"><ele>194.66666666666669</ele><time>2026-04-22T10:11:05.999Z</time></trkpt><trkpt lat="43.83246172631174" lon="7.787368505952115"><ele>203.0</ele><time>2026-04-22T10:11:06.999Z</time></trkpt><trkpt lat="43.83247001672132" lon="7.787082249213832"><ele>209.66666666666669</ele><time>2026-04-22T10:11:07.999Z</time></trkpt><trkpt lat="43.83248640051116" lon="7.786802014703558"><ele>216.33333333333331</ele><time>2026-04-22T10:11:08.999Z</time></trkpt><trkpt lat="43.83250938149745" lon="7.786528034734374"><ele>223.0</ele><time>2026-04-22T10:11:09.999Z</time></trkpt><trkpt lat="43.8325421552669" lon="7.786245882040611"><ele>231.0</ele><time>2026-04-22T10:11:11.064Z</time></trkpt><trkpt lat="43.832578049835654" lon="7.7859886137003915"><ele>239.0</ele><time>2026-04-22T10:11:12.059Z</time></trkpt><trkpt lat="43.83322063144579" lon="7.781160871142335"><ele>245.0</ele><time>2026-04-22T10:11:27.998Z</time></trkpt><trkpt lat="43.83363670897682" lon="7.781781780030213"><ele>245.0</ele><time>2026-04-22T10:11:28.998Z</time></trkpt><trkpt lat="43.83371152914883" lon="7.7815018480994445"><ele>245.0</ele><time>2026-04-22T10:11:29.998Z</time></trkpt><trkpt lat="43.833384343678055" lon="7.780121747552235"><ele>225.0</ele><time>2026-04-22T10:11:30.998Z</time></trkpt><trkpt lat="43.83343517038416" lon="7.779795064569856"><ele>205.0</ele><time>2026-04-22T10:11:31.998Z</time></trkpt><trkpt lat="43.833481999157165" lon="7.779471233671474"><ele>191.5</ele><time>2026-04-22T10:11:32.998Z</time></trkpt><trkpt lat="43.833533369101175" lon="7.779151473127932"><ele>178.0</ele><time>2026-04-22T10:11:33.998Z</time></trkpt><trkpt lat="43.83358456559103" lon="7.778833626267932"><ele>171.0</ele><time>2026-04-22T10:11:34.998Z</time></trkpt><trkpt lat="43.83363084127897" lon="7.778506457756097"><ele>164.0</ele><time>2026-04-22T10:11:35.998Z</time></trkpt><trkpt lat="43.833685437227395" lon="7.778185228435139"><ele>164.0</ele><time>2026-04-22T10:11:36.998Z</time></trkpt><trkpt lat="43.833736179570174" lon="7.777856905272361"><ele>164.0</ele><time>2026-04-22T10:11:37.998Z</time></trkpt><trkpt lat="43.83378568756356" lon="7.777510322422699"><ele>159.5</ele><time>2026-04-22T10:11:38.998Z</time></trkpt><trkpt lat="43.83384047030999" lon="7.777154408457715"><ele>155.0</ele><time>2026-04-22T10:11:40Z</time></trkpt><trkpt lat="43.83389461779322" lon="7.776807522317922"><ele>155.0</ele><time>2026-04-22T10:11:41Z</time></trkpt><trkpt lat="43.8339504708531" lon="7.776439940579251"><ele>155.0</ele><time>2026-04-22T10:11:42Z</time></trkpt><trkpt lat="43.834007083231235" lon="7.776076396489816"><ele>170.0</ele><time>2026-04-22T10:11:43Z</time></trkpt><trkpt lat="43.83406101127946" lon="7.775739481304982"><ele>185.0</ele><time>2026-04-22T10:11:44Z</time></trkpt><trkpt lat="43.83411522270876" lon="7.775400151070848"><ele>199.5</ele><time>2026-04-22T10:11:45Z</time></trkpt><trkpt lat="43.83416453556796" lon="7.775056745831198"><ele>214.0</ele><time>2026-04-22T10:11:46Z</time></trkpt><trkpt lat="43.83421289225596" lon="7.774715141340904"><ele>214.0</ele><time>2026-04-22T10:11:47Z</time></trkpt><trkpt lat="43.8342729961757" lon="7.774413531289809"><ele>214.0</ele><time>2026-04-22T10:11:48Z</time></trkpt><trkpt lat="43.83432738837602" lon="7.774084203120719"><ele>237.5</ele><time>2026-04-22T10:11:49Z</time></trkpt><trkpt lat="43.83438897544991" lon="7.773755941502815"><ele>261.0</ele><time>2026-04-22T10:11:50Z</time></trkpt><trkpt lat="43.83444643969736" lon="7.773434276856448"><ele>264.0</ele><time>2026-04-22T10:11:51Z</time></trkpt><trkpt lat="43.83449387988203" lon="7.7730932889247555"><ele>267.0</ele><time>2026-04-22T10:11:52Z</time></trkpt><trkpt lat="43.834552413406044" lon="7.772743257262589"><ele>248.5</ele><time>2026-04-22T10:11:53.063Z</time></trkpt><trkpt lat="43.8345508149866" lon="7.772315541622997"><ele>230.0</ele><time>2026-04-22T10:11:54.06Z</time></trkpt><trkpt lat="43.8346941612609" lon="7.771481128953994"><ele>210.0</ele><time>2026-04-22T10:11:56Z</time></trkpt><trkpt lat="43.83476293282156" lon="7.7711302380089275"><ele>190.0</ele><time>2026-04-22T10:11:57Z</time></trkpt><trkpt lat="43.83481562413334" lon="7.77078048610071"><ele>185.0</ele><time>2026-04-22T10:11:57.999Z</time></trkpt><trkpt lat="43.83486411028881" lon="7.770450026145322"><ele>180.0</ele><time>2026-04-22T10:11:58.999Z</time></trkpt><trkpt lat="43.83490774485521" lon="7.770126952506416"><ele>194.5</ele><time>2026-04-22T10:11:59.999Z</time></trkpt><trkpt lat="43.83496505950975" lon="7.769803573191105"><ele>209.0</ele><time>2026-04-22T10:12:00.999Z</time></trkpt><trkpt lat="43.8350162183966" lon="7.76947791693139"><ele>228.5</ele><time>2026-04-22T10:12:01.999Z</time></trkpt><trkpt lat="43.83508641710485" lon="7.769108796330799"><ele>248.0</ele><time>2026-04-22T10:12:02.999Z</time></trkpt><trkpt lat="43.83516267126453" lon="7.768749306164403"><ele>261.5</ele><time>2026-04-22T10:12:03.999Z</time></trkpt><trkpt lat="43.83524184238203" lon="7.768398080995837"><ele>275.0</ele><time>2026-04-22T10:12:04.999Z</time></trkpt><trkpt lat="43.835324705120854" lon="7.768032204342799"><ele>273.5</ele><time>2026-04-22T10:12:05.999Z</time></trkpt><trkpt lat="43.835378026308504" lon="7.76768250357206"><ele>272.0</ele><time>2026-04-22T10:12:06.999Z</time></trkpt><trkpt lat="43.83545615792174" lon="7.76730282729858"><ele>272.0</ele><time>2026-04-22T10:12:08.059Z</time></trkpt><trkpt lat="43.835533406991615" lon="7.7669413279255775"><ele>272.0</ele><time>2026-04-22T10:12:09.051Z</time></trkpt><trkpt lat="43.835615227753564" lon="7.766573262146104"><ele>276.0</ele><time>2026-04-22T10:12:10.053Z</time></trkpt><trkpt lat="43.83570058830863" lon="7.766210356887097"><ele>280.0</ele><time>2026-04-22T10:12:11.054Z</time></trkpt><trkpt lat="43.83603695405978" lon="7.764591623787903"><ele>252.0</ele><time>2026-04-22T10:12:15.999Z</time></trkpt><trkpt lat="43.83612137370577" lon="7.764253866967544"><ele>224.0</ele><time>2026-04-22T10:12:16.999Z</time></trkpt><trkpt lat="43.836265684342294" lon="7.7639467895123175"><ele>224.0</ele><time>2026-04-22T10:12:17.999Z</time></trkpt><trkpt lat="43.83635982134555" lon="7.763663443037581"><ele>224.0</ele><time>2026-04-22T10:12:18.999Z</time></trkpt><trkpt lat="43.83645576511323" lon="7.7633683475009985"><ele>216.5</ele><time>2026-04-22T10:12:19.999Z</time></trkpt><trkpt lat="43.836555704159565" lon="7.763076083350154"><ele>209.0</ele><time>2026-04-22T10:12:20.999Z</time></trkpt><trkpt lat="43.83665993155594" lon="7.762778002617192"><ele>209.0</ele><time>2026-04-22T10:12:21.999Z</time></trkpt><trkpt lat="43.83676985536168" lon="7.762487122838004"><ele>209.0</ele><time>2026-04-22T10:12:22.999Z</time></trkpt><trkpt lat="43.836878462468135" lon="7.762196446869158"><ele>209.0</ele><time>2026-04-22T10:12:23.999Z</time></trkpt><trkpt lat="43.836992452096204" lon="7.761902504747239"><ele>209.0</ele><time>2026-04-22T10:12:24.999Z</time></trkpt><trkpt lat="43.83710902021864" lon="7.761606198466612"><ele>213.5</ele><time>2026-04-22T10:12:25.999Z</time></trkpt><trkpt lat="43.83722833345259" lon="7.7613092174854685"><ele>218.0</ele><time>2026-04-22T10:12:26.999Z</time></trkpt><trkpt lat="43.83734872038216" lon="7.761015125124728"><ele>223.5</ele><time>2026-04-22T10:12:27.999Z</time></trkpt><trkpt lat="43.83746908035142" lon="7.760726415097654"><ele>229.0</ele><time>2026-04-22T10:12:28.999Z</time></trkpt><trkpt lat="43.837592018422015" lon="7.760436788774941"><ele>249.0</ele><time>2026-04-22T10:12:29.999Z</time></trkpt><trkpt lat="43.83771464089943" lon="7.760141658327887"><ele>269.0</ele><time>2026-04-22T10:12:30.999Z</time></trkpt><trkpt lat="43.8378367595221" lon="7.759859704180262"><ele>269.0</ele><time>2026-04-22T10:12:31.999Z</time></trkpt><trkpt lat="43.837963620103515" lon="7.7595606508374555"><ele>269.0</ele><time>2026-04-22T10:12:32.999Z</time></trkpt><trkpt lat="43.83808581565234" lon="7.75926983836117"><ele>263.0</ele><time>2026-04-22T10:12:33.999Z</time></trkpt><trkpt lat="43.83821360687094" lon="7.758971869351517"><ele>257.0</ele><time>2026-04-22T10:12:34.999Z</time></trkpt><trkpt lat="43.83833731420809" lon="7.758676060258246"><ele>249.5</ele><time>2026-04-22T10:12:35.999Z</time></trkpt><trkpt lat="43.83845596372861" lon="7.758393936134675"><ele>242.0</ele><time>2026-04-22T10:12:36.999Z</time></trkpt><trkpt lat="43.838573708391344" lon="7.758112060419382"><ele>252.0</ele><time>2026-04-22T10:12:37.999Z</time></trkpt><trkpt lat="43.83869334941471" lon="7.757833388888023"><ele>262.0</ele><time>2026-04-22T10:12:38.999Z</time></trkpt><trkpt lat="43.83880799234387" lon="7.757563714510472"><ele>262.0</ele><time>2026-04-22T10:12:39.999Z</time></trkpt><trkpt lat="43.83892263440573" lon="7.757289959066097"><ele>262.0</ele><time>2026-04-22T10:12:40.999Z</time></trkpt><trkpt lat="43.83904026194882" lon="7.757014590095271"><ele>256.5</ele><time>2026-04-22T10:12:41.999Z</time></trkpt><trkpt lat="43.83915841907177" lon="7.7567336133644735"><ele>251.0</ele><time>2026-04-22T10:12:42.999Z</time></trkpt><trkpt lat="43.83927610879018" lon="7.756453647013402"><ele>261.0</ele><time>2026-04-22T10:12:43.999Z</time></trkpt><trkpt lat="43.83939298378704" lon="7.756177657715223"><ele>271.0</ele><time>2026-04-22T10:12:44.999Z</time></trkpt><trkpt lat="43.839501004255204" lon="7.755912994679382"><ele>271.0</ele><time>2026-04-22T10:12:45.999Z</time></trkpt><trkpt lat="43.83960263073648" lon="7.755655843443054"><ele>271.0</ele><time>2026-04-22T10:12:46.999Z</time></trkpt><trkpt lat="43.8396976571542" lon="7.755397039098676"><ele>271.0</ele><time>2026-04-22T10:12:47.999Z</time></trkpt><trkpt lat="43.83978542058828" lon="7.75513437049875"><ele>272.3333333333333</ele><time>2026-04-22T10:12:48.999Z</time></trkpt><trkpt lat="43.83986917229965" lon="7.754859661955113"><ele>273.6666666666667</ele><time>2026-04-22T10:12:49.999Z</time></trkpt><trkpt lat="43.83994768940962" lon="7.7545749445587395"><ele>275.0</ele><time>2026-04-22T10:12:50.999Z</time></trkpt><trkpt lat="43.840036310806" lon="7.754275884090056"><ele>275.0</ele><time>2026-04-22T10:12:51.999Z</time></trkpt><trkpt lat="43.840111704527715" lon="7.753999186631008"><ele>275.0</ele><time>2026-04-22T10:12:52.999Z</time></trkpt><trkpt lat="43.84018606878229" lon="7.753734750414011"><ele>275.0</ele><time>2026-04-22T10:12:53.999Z</time></trkpt><trkpt lat="43.84026449320772" lon="7.753458942287556"><ele>279.6666666666667</ele><time>2026-04-22T10:12:54.999Z</time></trkpt><trkpt lat="43.840342443789275" lon="7.753189266691016"><ele>284.3333333333333</ele><time>2026-04-22T10:12:55.999Z</time></trkpt><trkpt lat="43.84041154886828" lon="7.752924492526193"><ele>289.0</ele><time>2026-04-22T10:12:56.999Z</time></trkpt><trkpt lat="43.84048012383007" lon="7.752631753277634"><ele>289.0</ele><time>2026-04-22T10:12:57.999Z</time></trkpt><trkpt lat="43.840343544132224" lon="7.752270562575122"><ele>289.0</ele><time>2026-04-22T10:12:58.999Z</time></trkpt><trkpt lat="43.840254245996526" lon="7.751963309515871"><ele>288.66666666666663</ele><time>2026-04-22T10:12:59.999Z</time></trkpt><trkpt lat="43.840234660786756" lon="7.751673715350628"><ele>288.3333333333333</ele><time>2026-04-22T10:13:00.999Z</time></trkpt><trkpt lat="43.840218817179135" lon="7.751388760253911"><ele>288.0</ele><time>2026-04-22T10:13:01.999Z</time></trkpt><trkpt lat="43.84020433598042" lon="7.751104060373296"><ele>296.6666666666667</ele><time>2026-04-22T10:13:02.999Z</time></trkpt><trkpt lat="43.84019038293331" lon="7.750819872768258"><ele>305.33333333333337</ele><time>2026-04-22T10:13:03.999Z</time></trkpt><trkpt lat="43.84017347356714" lon="7.750536855281645"><ele>314.0</ele><time>2026-04-22T10:13:04.999Z</time></trkpt><trkpt lat="43.840156446164514" lon="7.750237090643097"><ele>311.6666666666667</ele><time>2026-04-22T10:13:06.064Z</time></trkpt><trkpt lat="43.8401418638918" lon="7.74996479124058"><ele>309.3333333333333</ele><time>2026-04-22T10:13:07.052Z</time></trkpt><trkpt lat="43.84012480513987" lon="7.749692822433249"><ele>307.0</ele><time>2026-04-22T10:13:08.052Z</time></trkpt><trkpt lat="43.84010743863637" lon="7.749411651515406"><ele>269.0</ele><time>2026-04-22T10:13:09.052Z</time></trkpt><trkpt lat="43.83918715072532" lon="7.748132562260223"><ele>270.5</ele><time>2026-04-22T10:13:13.999Z</time></trkpt><trkpt lat="43.83916183848675" lon="7.7476987204719405"><ele>272.0</ele><time>2026-04-22T10:13:14.999Z</time></trkpt><trkpt lat="43.838924929617896" lon="7.747533488548972"><ele>272.0</ele><time>2026-04-22T10:13:15.999Z</time></trkpt><trkpt lat="43.8387809767286" lon="7.747315049608307"><ele>272.0</ele><time>2026-04-22T10:13:16.998Z</time></trkpt><trkpt lat="43.838629979025704" lon="7.747094945799991"><ele>272.0</ele><time>2026-04-22T10:13:17.998Z</time></trkpt><trkpt lat="43.83846550496203" lon="7.746905692087128"><ele>265.6666666666667</ele><time>2026-04-22T10:13:18.998Z</time></trkpt><trkpt lat="43.83830397417073" lon="7.746703968059065"><ele>259.3333333333333</ele><time>2026-04-22T10:13:19.998Z</time></trkpt><trkpt lat="43.83812802911802" lon="7.746526902720613"><ele>253.0</ele><time>2026-04-22T10:13:20.998Z</time></trkpt><trkpt lat="43.83794482356483" lon="7.746354927600709"><ele>253.0</ele><time>2026-04-22T10:13:21.998Z</time></trkpt><trkpt lat="43.8377527590361" lon="7.746178480159171"><ele>253.0</ele><time>2026-04-22T10:13:22.998Z</time></trkpt><trkpt lat="43.83756334218025" lon="7.746011485857786"><ele>243.0</ele><time>2026-04-22T10:13:23.998Z</time></trkpt><trkpt lat="43.837378589126274" lon="7.745861492820324"><ele>233.0</ele><time>2026-04-22T10:13:24.998Z</time></trkpt><trkpt lat="43.83718995661624" lon="7.745715443351858"><ele>223.0</ele><time>2026-04-22T10:13:25.998Z</time></trkpt><trkpt lat="43.837001996275966" lon="7.745585173859942"><ele>223.0</ele><time>2026-04-22T10:13:26.998Z</time></trkpt><trkpt lat="43.83681279202925" lon="7.74547177696504"><ele>223.0</ele><time>2026-04-22T10:13:27.998Z</time></trkpt><trkpt lat="43.836616135510454" lon="7.7453690290375885"><ele>223.0</ele><time>2026-04-22T10:13:28.998Z</time></trkpt><trkpt lat="43.83641769659189" lon="7.745274976814897"><ele>219.66666666666666</ele><time>2026-04-22T10:13:29.998Z</time></trkpt><trkpt lat="43.83621584335916" lon="7.745193226745046"><ele>216.33333333333331</ele><time>2026-04-22T10:13:30.998Z</time></trkpt><trkpt lat="43.83601433060141" lon="7.745124307944495"><ele>213.0</ele><time>2026-04-22T10:13:31.998Z</time></trkpt><trkpt lat="43.83580911325624" lon="7.74506768210358"><ele>213.0</ele><time>2026-04-22T10:13:32.998Z</time></trkpt><trkpt lat="43.835603998176644" lon="7.745017454943724"><ele>213.0</ele><time>2026-04-22T10:13:33.998Z</time></trkpt><trkpt lat="43.83539329446853" lon="7.744979662574706"><ele>213.0</ele><time>2026-04-22T10:13:34.998Z</time></trkpt><trkpt lat="43.83518031728691" lon="7.744957025855361"><ele>219.33333333333331</ele><time>2026-04-22T10:13:35.998Z</time></trkpt><trkpt lat="43.83496355093325" lon="7.744945318726167"><ele>225.66666666666666</ele><time>2026-04-22T10:13:36.998Z</time></trkpt><trkpt lat="43.834752268541315" lon="7.744947691441055"><ele>232.0</ele><time>2026-04-22T10:13:37.998Z</time></trkpt><trkpt lat="43.8345403911427" lon="7.744958400837755"><ele>232.0</ele><time>2026-04-22T10:13:38.998Z</time></trkpt><trkpt lat="43.83432908860142" lon="7.744982146218696"><ele>232.0</ele><time>2026-04-22T10:13:39.998Z</time></trkpt><trkpt lat="43.83411722445435" lon="7.745007811549323"><ele>232.0</ele><time>2026-04-22T10:13:40.998Z</time></trkpt><trkpt lat="43.83389969728502" lon="7.745047412538977"><ele>238.5</ele><time>2026-04-22T10:13:41.998Z</time></trkpt><trkpt lat="43.83367538542164" lon="7.745085530251384"><ele>245.0</ele><time>2026-04-22T10:13:42.998Z</time></trkpt><trkpt lat="43.83344156123465" lon="7.745121521896603"><ele>249.0</ele><time>2026-04-22T10:13:43.998Z</time></trkpt><trkpt lat="43.83320419946991" lon="7.745156916291977"><ele>253.0</ele><time>2026-04-22T10:13:44.999Z</time></trkpt><trkpt lat="43.83298264750285" lon="7.745185733618543"><ele>243.0</ele><time>2026-04-22T10:13:45.999Z</time></trkpt><trkpt lat="43.832756235656255" lon="7.745215527932079"><ele>233.0</ele><time>2026-04-22T10:13:46.999Z</time></trkpt><trkpt lat="43.83253429171382" lon="7.745242221751287"><ele>230.5</ele><time>2026-04-22T10:13:47.999Z</time></trkpt><trkpt lat="43.83230694598294" lon="7.745273308441904"><ele>228.0</ele><time>2026-04-22T10:13:48.999Z</time></trkpt><trkpt lat="43.83208045281515" lon="7.745310530103532"><ele>228.0</ele><time>2026-04-22T10:13:49.999Z</time></trkpt><trkpt lat="43.83185005755768" lon="7.745350979252889"><ele>228.0</ele><time>2026-04-22T10:13:50.999Z</time></trkpt><trkpt lat="43.83161069937551" lon="7.745395608658184"><ele>240.0</ele><time>2026-04-22T10:13:52Z</time></trkpt><trkpt lat="43.83137136570149" lon="7.745442705297768"><ele>252.0</ele><time>2026-04-22T10:13:52.999Z</time></trkpt><trkpt lat="43.831128474913875" lon="7.74548875364041"><ele>264.0</ele><time>2026-04-22T10:13:54Z</time></trkpt><trkpt lat="43.83088731939012" lon="7.745535151673295"><ele>276.0</ele><time>2026-04-22T10:13:55Z</time></trkpt><trkpt lat="43.83064556337945" lon="7.745581730804205"><ele>276.0</ele><time>2026-04-22T10:13:56Z</time></trkpt><trkpt lat="43.83040450530899" lon="7.745629890854879"><ele>276.0</ele><time>2026-04-22T10:13:56.999Z</time></trkpt><trkpt lat="43.830148246362235" lon="7.745682204167062"><ele>236.0</ele><time>2026-04-22T10:13:58.066Z</time></trkpt><trkpt lat="43.828150633307565" lon="7.745405656318775"><ele>236.0</ele><time>2026-04-22T10:14:06.999Z</time></trkpt><trkpt lat="43.82793527268154" lon="7.745340245609609"><ele>236.0</ele><time>2026-04-22T10:14:07.999Z</time></trkpt><trkpt lat="43.82771902975584" lon="7.74528067437005"><ele>236.0</ele><time>2026-04-22T10:14:08.999Z</time></trkpt><trkpt lat="43.82751153999648" lon="7.745179131709199"><ele>219.5</ele><time>2026-04-22T10:14:09.999Z</time></trkpt><trkpt lat="43.82729914279442" lon="7.7450740279352415"><ele>203.0</ele><time>2026-04-22T10:14:10.999Z</time></trkpt><trkpt lat="43.827088408576856" lon="7.744957721608987"><ele>203.0</ele><time>2026-04-22T10:14:11.999Z</time></trkpt><trkpt lat="43.82688064072675" lon="7.7448255051077854"><ele>203.0</ele><time>2026-04-22T10:14:12.999Z</time></trkpt><trkpt lat="43.8266818364238" lon="7.744688329842611"><ele>196.66666666666669</ele><time>2026-04-22T10:14:13.999Z</time></trkpt><trkpt lat="43.82648789162133" lon="7.74453958239171"><ele>190.33333333333334</ele><time>2026-04-22T10:14:14.999Z</time></trkpt><trkpt lat="43.82629980634788" lon="7.74438338956317"><ele>184.0</ele><time>2026-04-22T10:14:15.999Z</time></trkpt><trkpt lat="43.82611764046922" lon="7.744217891793622"><ele>188.66666666666669</ele><time>2026-04-22T10:14:16.999Z</time></trkpt><trkpt lat="43.82593656844403" lon="7.7440444015641345"><ele>193.33333333333334</ele><time>2026-04-22T10:14:17.999Z</time></trkpt><trkpt lat="43.8257610253619" lon="7.743862823299492"><ele>198.0</ele><time>2026-04-22T10:14:18.999Z</time></trkpt><trkpt lat="43.825591887121185" lon="7.7436691743284936"><ele>207.5</ele><time>2026-04-22T10:14:19.999Z</time></trkpt><trkpt lat="43.82542284464374" lon="7.743461297661345"><ele>217.0</ele><time>2026-04-22T10:14:20.999Z</time></trkpt><trkpt lat="43.82525823068952" lon="7.743239641979916"><ele>221.0</ele><time>2026-04-22T10:14:21.999Z</time></trkpt><trkpt lat="43.82509315834835" lon="7.743003444409349"><ele>225.0</ele><time>2026-04-22T10:14:22.999Z</time></trkpt><trkpt lat="43.82493727468148" lon="7.742756796039727"><ele>234.5</ele><time>2026-04-22T10:14:23.999Z</time></trkpt><trkpt lat="43.824789856728245" lon="7.742506608543084"><ele>244.0</ele><time>2026-04-22T10:14:24.999Z</time></trkpt><trkpt lat="43.824648035582705" lon="7.742257177921398"><ele>244.0</ele><time>2026-04-22T10:14:25.999Z</time></trkpt><trkpt lat="43.824516049874596" lon="7.74200171186757"><ele>244.0</ele><time>2026-04-22T10:14:26.999Z</time></trkpt><trkpt lat="43.82439307230917" lon="7.741745813862166"><ele>244.0</ele><time>2026-04-22T10:14:27.999Z</time></trkpt><trkpt lat="43.82427700123581" lon="7.741487888362292"><ele>243.66666666666666</ele><time>2026-04-22T10:14:28.999Z</time></trkpt><trkpt lat="43.82417131751511" lon="7.741228820347472"><ele>243.33333333333331</ele><time>2026-04-22T10:14:29.999Z</time></trkpt><trkpt lat="43.82407383095308" lon="7.74096777840902"><ele>243.0</ele><time>2026-04-22T10:14:30.999Z</time></trkpt><trkpt lat="43.82398288820768" lon="7.740705660056771"><ele>243.0</ele><time>2026-04-22T10:14:31.999Z</time></trkpt><trkpt lat="43.82389418635283" lon="7.740448451709041"><ele>243.0</ele><time>2026-04-22T10:14:32.999Z</time></trkpt><trkpt lat="43.82380973046228" lon="7.740184969415528"><ele>243.0</ele><time>2026-04-22T10:14:33.999Z</time></trkpt><trkpt lat="43.82372852618323" lon="7.739927450764478"><ele>244.66666666666669</ele><time>2026-04-22T10:14:34.999Z</time></trkpt><trkpt lat="43.823646067883914" lon="7.73967221753478"><ele>246.33333333333334</ele><time>2026-04-22T10:14:35.999Z</time></trkpt><trkpt lat="43.823566710107734" lon="7.739420238726072"><ele>248.0</ele><time>2026-04-22T10:14:36.999Z</time></trkpt><trkpt lat="43.823485349852696" lon="7.739162108337041"><ele>239.33333333333334</ele><time>2026-04-22T10:14:37.999Z</time></trkpt><trkpt lat="43.823403373147535" lon="7.738895928759548"><ele>230.66666666666669</ele><time>2026-04-22T10:14:38.999Z</time></trkpt><trkpt lat="43.82331880200409" lon="7.7386169957386475"><ele>222.0</ele><time>2026-04-22T10:14:39.999Z</time></trkpt><trkpt lat="43.82323520897278" lon="7.738328305356811"><ele>222.0</ele><time>2026-04-22T10:14:40.999Z</time></trkpt><trkpt lat="43.82315426891937" lon="7.73803654118595"><ele>222.0</ele><time>2026-04-22T10:14:41.999Z</time></trkpt><trkpt lat="43.823076730320956" lon="7.737745307120398"><ele>222.0</ele><time>2026-04-22T10:14:42.999Z</time></trkpt><trkpt lat="43.82299863054609" lon="7.737457251746376"><ele>223.33333333333331</ele><time>2026-04-22T10:14:43.999Z</time></trkpt><trkpt lat="43.822917097636" lon="7.737177664148158"><ele>224.66666666666666</ele><time>2026-04-22T10:14:44.999Z</time></trkpt><trkpt lat="43.82283144250058" lon="7.736897184548074"><ele>226.0</ele><time>2026-04-22T10:14:45.999Z</time></trkpt><trkpt lat="43.8227458198708" lon="7.736617721957688"><ele>231.5</ele><time>2026-04-22T10:14:46.999Z</time></trkpt><trkpt lat="43.82265554423023" lon="7.736330651304769"><ele>237.0</ele><time>2026-04-22T10:14:47.999Z</time></trkpt><trkpt lat="43.82256520179311" lon="7.736043777887227"><ele>253.33333333333331</ele><time>2026-04-22T10:14:48.999Z</time></trkpt><trkpt lat="43.822479922469384" lon="7.735773064624308"><ele>269.66666666666663</ele><time>2026-04-22T10:14:49.999Z</time></trkpt><trkpt lat="43.822398074124415" lon="7.735521735149635"><ele>286.0</ele><time>2026-04-22T10:14:50.999Z</time></trkpt><trkpt lat="43.82232082920648" lon="7.735289579039901"><ele>290.66666666666663</ele><time>2026-04-22T10:14:51.999Z</time></trkpt><trkpt lat="43.82224683472005" lon="7.735070718484875"><ele>295.3333333333333</ele><time>2026-04-22T10:14:52.999Z</time></trkpt><trkpt lat="43.8221694426763" lon="7.734862626338446"><ele>300.0</ele><time>2026-04-22T10:14:53.999Z</time></trkpt><trkpt lat="43.822085254071155" lon="7.734665317288176"><ele>300.0</ele><time>2026-04-22T10:14:54.999Z</time></trkpt><trkpt lat="43.82199339815191" lon="7.734473511142926"><ele>300.0</ele><time>2026-04-22T10:14:55.999Z</time></trkpt><trkpt lat="43.82188527376046" lon="7.734269060091907"><ele>300.0</ele><time>2026-04-22T10:14:57.065Z</time></trkpt><trkpt lat="43.821773642156955" lon="7.734076434324736"><ele>293.6666666666667</ele><time>2026-04-22T10:14:58.06Z</time></trkpt><trkpt lat="43.82166723215402" lon="7.7339012999329375"><ele>287.33333333333337</ele><time>2026-04-22T10:14:59.031Z</time></trkpt><trkpt lat="43.82155457903583" lon="7.733727946650223"><ele>281.0</ele><time>2026-04-22T10:15:00.026Z</time></trkpt><trkpt lat="43.820287263096674" lon="7.732393040336736"><ele>270.0</ele><time>2026-04-22T10:15:06.999Z</time></trkpt><trkpt lat="43.82010708771429" lon="7.732268555225969"><ele>259.0</ele><time>2026-04-22T10:15:07.999Z</time></trkpt><trkpt lat="43.81995202935306" lon="7.732182459404439"><ele>248.0</ele><time>2026-04-22T10:15:08.999Z</time></trkpt><trkpt lat="43.81977341157886" lon="7.732061848703283"><ele>248.0</ele><time>2026-04-22T10:15:09.999Z</time></trkpt><trkpt lat="43.81958390342566" lon="7.731972099608583"><ele>248.0</ele><time>2026-04-22T10:15:10.999Z</time></trkpt><trkpt lat="43.81939091996117" lon="7.7318917915730685"><ele>248.0</ele><time>2026-04-22T10:15:11.999Z</time></trkpt><trkpt lat="43.81916513950748" lon="7.731835362157346"><ele>252.66666666666669</ele><time>2026-04-22T10:15:12.999Z</time></trkpt><trkpt lat="43.818950122662955" lon="7.731783597848736"><ele>257.3333333333333</ele><time>2026-04-22T10:15:13.999Z</time></trkpt><trkpt lat="43.81873733963098" lon="7.731730207772362"><ele>262.0</ele><time>2026-04-22T10:15:14.999Z</time></trkpt><trkpt lat="43.81852224347267" lon="7.7316703173244"><ele>261.0</ele><time>2026-04-22T10:15:15.999Z</time></trkpt><trkpt lat="43.818305790100126" lon="7.731606152101537"><ele>260.0</ele><time>2026-04-22T10:15:16.999Z</time></trkpt><trkpt lat="43.81808827078365" lon="7.731558347299564"><ele>259.0</ele><time>2026-04-22T10:15:17.999Z</time></trkpt><trkpt lat="43.817884645611" lon="7.731510383205001"><ele>259.0</ele><time>2026-04-22T10:15:18.999Z</time></trkpt><trkpt lat="43.817683895873394" lon="7.731463898903175"><ele>259.0</ele><time>2026-04-22T10:15:19.999Z</time></trkpt><trkpt lat="43.81748689100125" lon="7.731410668985056"><ele>259.0</ele><time>2026-04-22T10:15:20.999Z</time></trkpt><trkpt lat="43.8172885651617" lon="7.731348437290156"><ele>258.0</ele><time>2026-04-22T10:15:21.999Z</time></trkpt><trkpt lat="43.817090276739975" lon="7.731279550955691"><ele>257.0</ele><time>2026-04-22T10:15:22.999Z</time></trkpt><trkpt lat="43.81689029951732" lon="7.731203301917133"><ele>256.0</ele><time>2026-04-22T10:15:23.999Z</time></trkpt><trkpt lat="43.816693066559935" lon="7.731120622532619"><ele>263.66666666666663</ele><time>2026-04-22T10:15:24.999Z</time></trkpt><trkpt lat="43.816493975751115" lon="7.7310291283691415"><ele>271.3333333333333</ele><time>2026-04-22T10:15:25.999Z</time></trkpt><trkpt lat="43.81630175803755" lon="7.730926319689626"><ele>279.0</ele><time>2026-04-22T10:15:26.999Z</time></trkpt><trkpt lat="43.81611936872382" lon="7.730817084032605"><ele>276.0</ele><time>2026-04-22T10:15:27.999Z</time></trkpt><trkpt lat="43.815947241322874" lon="7.7307000028785104"><ele>273.0</ele><time>2026-04-22T10:15:28.999Z</time></trkpt><trkpt lat="43.81577748693459" lon="7.730568170886836"><ele>270.0</ele><time>2026-04-22T10:15:29.999Z</time></trkpt><trkpt lat="43.81560833689157" lon="7.730421143178265"><ele>270.0</ele><time>2026-04-22T10:15:30.998Z</time></trkpt><trkpt lat="43.81544054111066" lon="7.73026608971772"><ele>270.0</ele><time>2026-04-22T10:15:31.998Z</time></trkpt><trkpt lat="43.81528034429943" lon="7.730107509324832"><ele>270.0</ele><time>2026-04-22T10:15:32.998Z</time></trkpt><trkpt lat="43.815129046241196" lon="7.72994757257911"><ele>273.3333333333333</ele><time>2026-04-22T10:15:33.998Z</time></trkpt><trkpt lat="43.814987083997224" lon="7.729788163438153"><ele>276.66666666666663</ele><time>2026-04-22T10:15:34.998Z</time></trkpt><trkpt lat="43.81485224591047" lon="7.729628995919988"><ele>280.0</ele><time>2026-04-22T10:15:35.998Z</time></trkpt><trkpt lat="43.81472511756484" lon="7.7294609949737625"><ele>279.0</ele><time>2026-04-22T10:15:36.998Z</time></trkpt><trkpt lat="43.81460533835896" lon="7.729285705184566"><ele>278.0</ele><time>2026-04-22T10:15:37.998Z</time></trkpt><trkpt lat="43.81449244931656" lon="7.729111419073713"><ele>277.0</ele><time>2026-04-22T10:15:38.998Z</time></trkpt><trkpt lat="43.81434952454195" lon="7.728491627009142"><ele>267.5</ele><time>2026-04-22T10:15:39.998Z</time></trkpt><trkpt lat="43.81427913762498" lon="7.7281742945628045"><ele>258.0</ele><time>2026-04-22T10:15:40.998Z</time></trkpt><trkpt lat="43.81420764870694" lon="7.7278688646138125"><ele>262.0</ele><time>2026-04-22T10:15:41.998Z</time></trkpt><trkpt lat="43.81413087455469" lon="7.727557981160757"><ele>266.0</ele><time>2026-04-22T10:15:42.998Z</time></trkpt><trkpt lat="43.81405310106028" lon="7.727238503884155"><ele>266.0</ele><time>2026-04-22T10:15:43.998Z</time></trkpt><trkpt lat="43.813977796306034" lon="7.726919514906601"><ele>266.0</ele><time>2026-04-22T10:15:44.998Z</time></trkpt><trkpt lat="43.813903644752045" lon="7.726576279073794"><ele>268.5</ele><time>2026-04-22T10:15:45.998Z</time></trkpt><trkpt lat="43.81383152782563" lon="7.726232532411108"><ele>271.0</ele><time>2026-04-22T10:15:46.998Z</time></trkpt><trkpt lat="43.81376274689305" lon="7.725912393593992"><ele>272.5</ele><time>2026-04-22T10:15:47.998Z</time></trkpt><trkpt lat="43.81369599140859" lon="7.725593690029937"><ele>274.0</ele><time>2026-04-22T10:15:48.998Z</time></trkpt><trkpt lat="43.81364504374645" lon="7.725287987647907"><ele>275.5</ele><time>2026-04-22T10:15:49.998Z</time></trkpt><trkpt lat="43.81358083981737" lon="7.724988523603695"><ele>277.0</ele><time>2026-04-22T10:15:51Z</time></trkpt><trkpt lat="43.81351912285959" lon="7.724685706619862"><ele>266.5</ele><time>2026-04-22T10:15:52Z</time></trkpt><trkpt lat="43.813454820521684" lon="7.724373779961763"><ele>256.0</ele><time>2026-04-22T10:15:53Z</time></trkpt><trkpt lat="43.813391040651844" lon="7.724065816593828"><ele>256.0</ele><time>2026-04-22T10:15:54Z</time></trkpt><trkpt lat="43.813329842950225" lon="7.723754314037871"><ele>256.0</ele><time>2026-04-22T10:15:55Z</time></trkpt><trkpt lat="43.813270849958634" lon="7.723443541460993"><ele>260.0</ele><time>2026-04-22T10:15:56Z</time></trkpt><trkpt lat="43.813209721499945" lon="7.723134564449097"><ele>264.0</ele><time>2026-04-22T10:15:57Z</time></trkpt><trkpt lat="43.813145679038044" lon="7.722824632612526"><ele>266.5</ele><time>2026-04-22T10:15:58Z</time></trkpt><trkpt lat="43.813078766758316" lon="7.722514507965357"><ele>269.0</ele><time>2026-04-22T10:15:59Z</time></trkpt><trkpt lat="43.81301985982692" lon="7.722220301917117"><ele>269.0</ele><time>2026-04-22T10:16:00Z</time></trkpt><trkpt lat="43.812954979532726" lon="7.721923586921106"><ele>269.0</ele><time>2026-04-22T10:16:01Z</time></trkpt><trkpt lat="43.81289429694856" lon="7.721630277401096"><ele>269.0</ele><time>2026-04-22T10:16:02Z</time></trkpt><trkpt lat="43.812833603633806" lon="7.721333943783871"><ele>258.0</ele><time>2026-04-22T10:16:03Z</time></trkpt><trkpt lat="43.812768822523225" lon="7.721035501727944"><ele>247.0</ele><time>2026-04-22T10:16:04Z</time></trkpt><trkpt lat="43.81269977663476" lon="7.720734351834897"><ele>224.0</ele><time>2026-04-22T10:16:05Z</time></trkpt><trkpt lat="43.812628015330795" lon="7.720435366128969"><ele>201.0</ele><time>2026-04-22T10:16:06Z</time></trkpt><trkpt lat="43.81255302902015" lon="7.720139364550707"><ele>191.0</ele><time>2026-04-22T10:16:07Z</time></trkpt><trkpt lat="43.81247463003158" lon="7.719838016361017"><ele>181.0</ele><time>2026-04-22T10:16:08Z</time></trkpt><trkpt lat="43.81239244036005" lon="7.719543171251185"><ele>191.0</ele><time>2026-04-22T10:16:09Z</time></trkpt><trkpt lat="43.81230932289863" lon="7.7192557792215535"><ele>201.0</ele><time>2026-04-22T10:16:10Z</time></trkpt><trkpt lat="43.81222171511255" lon="7.718957768911037"><ele>201.0</ele><time>2026-04-22T10:16:11Z</time></trkpt><trkpt lat="43.81213178633515" lon="7.718667997710311"><ele>201.0</ele><time>2026-04-22T10:16:12Z</time></trkpt><trkpt lat="43.81203955869783" lon="7.718375425646871"><ele>208.66666666666669</ele><time>2026-04-22T10:16:12.999Z</time></trkpt><trkpt lat="43.81194405822579" lon="7.718093614308565"><ele>216.33333333333334</ele><time>2026-04-22T10:16:13.999Z</time></trkpt><trkpt lat="43.811849488211735" lon="7.717812711961694"><ele>224.0</ele><time>2026-04-22T10:16:14.999Z</time></trkpt><trkpt lat="43.81175685124664" lon="7.717545022116642"><ele>225.66666666666669</ele><time>2026-04-22T10:16:15.999Z</time></trkpt><trkpt lat="43.811660407404005" lon="7.717273432437047"><ele>227.33333333333331</ele><time>2026-04-22T10:16:16.999Z</time></trkpt><trkpt lat="43.811564358746395" lon="7.717004246662706"><ele>229.0</ele><time>2026-04-22T10:16:17.999Z</time></trkpt><trkpt lat="43.81146896902876" lon="7.716737878358151"><ele>233.33333333333331</ele><time>2026-04-22T10:16:18.999Z</time></trkpt><trkpt lat="43.811373967266086" lon="7.716469617282523"><ele>237.66666666666669</ele><time>2026-04-22T10:16:19.999Z</time></trkpt><trkpt lat="43.811276015834245" lon="7.716194749986121"><ele>242.0</ele><time>2026-04-22T10:16:20.999Z</time></trkpt><trkpt lat="43.81117837095001" lon="7.7159182109216475"><ele>237.66666666666669</ele><time>2026-04-22T10:16:21.999Z</time></trkpt><trkpt lat="43.811079894696334" lon="7.715640132547336"><ele>233.33333333333331</ele><time>2026-04-22T10:16:22.999Z</time></trkpt><trkpt lat="43.810982610912305" lon="7.715366160027912"><ele>229.0</ele><time>2026-04-22T10:16:23.999Z</time></trkpt><trkpt lat="43.81088293370174" lon="7.715084925096427"><ele>229.0</ele><time>2026-04-22T10:16:24.999Z</time></trkpt><trkpt lat="43.81078659065623" lon="7.714806926031764"><ele>229.0</ele><time>2026-04-22T10:16:25.999Z</time></trkpt><trkpt lat="43.810688606259" lon="7.714528521767359"><ele>229.0</ele><time>2026-04-22T10:16:26.999Z</time></trkpt><trkpt lat="43.81059096189379" lon="7.714248747138468"><ele>229.33333333333331</ele><time>2026-04-22T10:16:27.999Z</time></trkpt><trkpt lat="43.810494927173124" lon="7.713963090544399"><ele>229.66666666666669</ele><time>2026-04-22T10:16:28.999Z</time></trkpt><trkpt lat="43.81040610178392" lon="7.713684695422189"><ele>230.0</ele><time>2026-04-22T10:16:29.999Z</time></trkpt><trkpt lat="43.81031529307201" lon="7.713395400697459"><ele>232.0</ele><time>2026-04-22T10:16:30.999Z</time></trkpt><trkpt lat="43.81022575736889" lon="7.713112504263817"><ele>234.0</ele><time>2026-04-22T10:16:31.999Z</time></trkpt><trkpt lat="43.81013460296831" lon="7.712834828684437"><ele>236.0</ele><time>2026-04-22T10:16:32.999Z</time></trkpt><trkpt lat="43.81003982068273" lon="7.712561656903484"><ele>236.0</ele><time>2026-04-22T10:16:33.999Z</time></trkpt><trkpt lat="43.809943582476286" lon="7.712287735277283"><ele>236.0</ele><time>2026-04-22T10:16:34.999Z</time></trkpt><trkpt lat="43.80984571482372" lon="7.712021876700151"><ele>236.0</ele><time>2026-04-22T10:16:35.999Z</time></trkpt><trkpt lat="43.809746878642976" lon="7.711761570971427"><ele>243.0</ele><time>2026-04-22T10:16:36.999Z</time></trkpt><trkpt lat="43.80964780684768" lon="7.711502760794222"><ele>250.0</ele><time>2026-04-22T10:16:37.999Z</time></trkpt><trkpt lat="43.809550071616336" lon="7.711239940781222"><ele>257.0</ele><time>2026-04-22T10:16:38.999Z</time></trkpt><trkpt lat="43.80945190796443" lon="7.710984654258957"><ele>257.0</ele><time>2026-04-22T10:16:39.999Z</time></trkpt><trkpt lat="43.80935564013255" lon="7.710734585757998"><ele>257.0</ele><time>2026-04-22T10:16:40.999Z</time></trkpt><trkpt lat="43.80925911748731" lon="7.710477374525992"><ele>257.0</ele><time>2026-04-22T10:16:41.999Z</time></trkpt><trkpt lat="43.80916119312967" lon="7.710224948885404"><ele>256.33333333333337</ele><time>2026-04-22T10:16:42.999Z</time></trkpt><trkpt lat="43.809056739001306" lon="7.709958135092955"><ele>255.66666666666669</ele><time>2026-04-22T10:16:44.063Z</time></trkpt><trkpt lat="43.8089581606088" lon="7.709706832295558"><ele>255.0</ele><time>2026-04-22T10:16:45.058Z</time></trkpt><trkpt lat="43.80885629104262" lon="7.709458610228689"><ele>237.5</ele><time>2026-04-22T10:16:46.054Z</time></trkpt><trkpt lat="43.80870707813779" lon="7.708949206440522"><ele>220.0</ele><time>2026-04-22T10:16:47.999Z</time></trkpt><trkpt lat="43.80864908472545" lon="7.708688918519146"><ele>211.66666666666666</ele><time>2026-04-22T10:16:48.999Z</time></trkpt><trkpt lat="43.808572924582684" lon="7.708460288528333"><ele>203.33333333333331</ele><time>2026-04-22T10:16:49.999Z</time></trkpt><trkpt lat="43.808491927827646" lon="7.708226751904717"><ele>195.0</ele><time>2026-04-22T10:16:50.999Z</time></trkpt><trkpt lat="43.80841041126054" lon="7.707997263439712"><ele>196.33333333333331</ele><time>2026-04-22T10:16:51.999Z</time></trkpt><trkpt lat="43.808323521750935" lon="7.707774063470228"><ele>197.66666666666666</ele><time>2026-04-22T10:16:52.999Z</time></trkpt><trkpt lat="43.80823549391331" lon="7.707557375512587"><ele>199.0</ele><time>2026-04-22T10:16:53.999Z</time></trkpt><trkpt lat="43.8081574946125" lon="7.707354061372826"><ele>199.0</ele><time>2026-04-22T10:16:54.999Z</time></trkpt><trkpt lat="43.808073809761844" lon="7.7071549857925"><ele>199.0</ele><time>2026-04-22T10:16:55.999Z</time></trkpt><trkpt lat="43.80798315291054" lon="7.7069513096770645"><ele>199.0</ele><time>2026-04-22T10:16:56.999Z</time></trkpt><trkpt lat="43.807887936192564" lon="7.706745432285157"><ele>198.66666666666666</ele><time>2026-04-22T10:16:57.999Z</time></trkpt><trkpt lat="43.807786527894265" lon="7.706529508947588"><ele>198.33333333333331</ele><time>2026-04-22T10:16:58.999Z</time></trkpt><trkpt lat="43.80768389554984" lon="7.7063169391748305"><ele>198.0</ele><time>2026-04-22T10:16:59.999Z</time></trkpt><trkpt lat="43.807571632918474" lon="7.706098395762315"><ele>197.0</ele><time>2026-04-22T10:17:00.999Z</time></trkpt><trkpt lat="43.807460757401905" lon="7.705882698063486"><ele>196.0</ele><time>2026-04-22T10:17:01.999Z</time></trkpt><trkpt lat="43.80734368354715" lon="7.705659332460667"><ele>195.0</ele><time>2026-04-22T10:17:02.999Z</time></trkpt><trkpt lat="43.8072219444042" lon="7.705428377091101"><ele>196.0</ele><time>2026-04-22T10:17:03.999Z</time></trkpt><trkpt lat="43.80710051269555" lon="7.705201576563077"><ele>197.0</ele><time>2026-04-22T10:17:04.999Z</time></trkpt><trkpt lat="43.806980361845106" lon="7.704982689862297"><ele>198.0</ele><time>2026-04-22T10:17:05.999Z</time></trkpt><trkpt lat="43.80686111374323" lon="7.70475975512971"><ele>195.0</ele><time>2026-04-22T10:17:06.999Z</time></trkpt><trkpt lat="43.8067447387682" lon="7.704539609190372"><ele>192.0</ele><time>2026-04-22T10:17:07.999Z</time></trkpt><trkpt lat="43.806626523738565" lon="7.704314232923364"><ele>189.0</ele><time>2026-04-22T10:17:08.999Z</time></trkpt><trkpt lat="43.80650650532317" lon="7.704089218616507"><ele>196.66666666666669</ele><time>2026-04-22T10:17:09.999Z</time></trkpt><trkpt lat="43.80638500287239" lon="7.703860684580752"><ele>204.33333333333334</ele><time>2026-04-22T10:17:10.999Z</time></trkpt><trkpt lat="43.8062659679922" lon="7.70363492353807"><ele>212.0</ele><time>2026-04-22T10:17:11.999Z</time></trkpt><trkpt lat="43.806141336787945" lon="7.703405738698365"><ele>215.0</ele><time>2026-04-22T10:17:12.999Z</time></trkpt><trkpt lat="43.806018256343336" lon="7.703176016548024"><ele>218.0</ele><time>2026-04-22T10:17:13.999Z</time></trkpt><trkpt lat="43.805893768369366" lon="7.702944837231033"><ele>221.0</ele><time>2026-04-22T10:17:14.999Z</time></trkpt><trkpt lat="43.80576968533361" lon="7.7027155946720525"><ele>221.0</ele><time>2026-04-22T10:17:15.999Z</time></trkpt><trkpt lat="43.805640986175774" lon="7.702477302953187"><ele>221.0</ele><time>2026-04-22T10:17:16.999Z</time></trkpt><trkpt lat="43.80551233345684" lon="7.702242165658572"><ele>221.0</ele><time>2026-04-22T10:17:17.999Z</time></trkpt><trkpt lat="43.80538356655335" lon="7.702000789137862"><ele>227.0</ele><time>2026-04-22T10:17:18.999Z</time></trkpt><trkpt lat="43.805250432047536" lon="7.701749574823477"><ele>233.0</ele><time>2026-04-22T10:17:19.999Z</time></trkpt><trkpt lat="43.805120958795456" lon="7.701504555050684"><ele>239.0</ele><time>2026-04-22T10:17:20.999Z</time></trkpt><trkpt lat="43.804991863067116" lon="7.701257483617002"><ele>222.0</ele><time>2026-04-22T10:17:21.999Z</time></trkpt><trkpt lat="43.8048630382257" lon="7.701009788226361"><ele>205.0</ele><time>2026-04-22T10:17:22.999Z</time></trkpt><trkpt lat="43.80473371249033" lon="7.700757163969804"><ele>188.0</ele><time>2026-04-22T10:17:23.999Z</time></trkpt><trkpt lat="43.804613599225654" lon="7.700502643028394"><ele>190.0</ele><time>2026-04-22T10:17:24.999Z</time></trkpt><trkpt lat="43.804493629976044" lon="7.7002451941682"><ele>192.0</ele><time>2026-04-22T10:17:25.999Z</time></trkpt><trkpt lat="43.804380715628106" lon="7.6999948291082285"><ele>194.0</ele><time>2026-04-22T10:17:26.998Z</time></trkpt><trkpt lat="43.804262861247615" lon="7.699741035596898"><ele>192.66666666666669</ele><time>2026-04-22T10:17:27.998Z</time></trkpt><trkpt lat="43.804147870330716" lon="7.699483361834273"><ele>191.33333333333334</ele><time>2026-04-22T10:17:28.998Z</time></trkpt><trkpt lat="43.80403364272804" lon="7.699230892545084"><ele>190.0</ele><time>2026-04-22T10:17:29.998Z</time></trkpt><trkpt lat="43.803919114164295" lon="7.698973638038058"><ele>190.0</ele><time>2026-04-22T10:17:30.998Z</time></trkpt><trkpt lat="43.80380392478985" lon="7.698716398885029"><ele>190.0</ele><time>2026-04-22T10:17:31.998Z</time></trkpt><trkpt lat="43.80368845772435" lon="7.698460029323099"><ele>190.0</ele><time>2026-04-22T10:17:32.998Z</time></trkpt><trkpt lat="43.803576678513934" lon="7.698212317419572"><ele>194.0</ele><time>2026-04-22T10:17:33.998Z</time></trkpt><trkpt lat="43.80346914279496" lon="7.697974412962512"><ele>198.0</ele><time>2026-04-22T10:17:34.998Z</time></trkpt><trkpt lat="43.80336278327392" lon="7.697737780986107"><ele>202.0</ele><time>2026-04-22T10:17:35.998Z</time></trkpt><trkpt lat="43.80325213906064" lon="7.69750015684286"><ele>204.0</ele><time>2026-04-22T10:17:36.998Z</time></trkpt><trkpt lat="43.8031459072935" lon="7.697265148222693"><ele>206.0</ele><time>2026-04-22T10:17:37.998Z</time></trkpt><trkpt lat="43.80303494122941" lon="7.697032873896405"><ele>208.0</ele><time>2026-04-22T10:17:38.998Z</time></trkpt><trkpt lat="43.80292577230005" lon="7.6968115883258275"><ele>211.0</ele><time>2026-04-22T10:17:39.998Z</time></trkpt><trkpt lat="43.80281274809785" lon="7.6965883100460415"><ele>214.0</ele><time>2026-04-22T10:17:40.998Z</time></trkpt><trkpt lat="43.802694550269365" lon="7.6963581434710475"><ele>217.0</ele><time>2026-04-22T10:17:41.998Z</time></trkpt><trkpt lat="43.802573786241055" lon="7.696126639999131"><ele>214.0</ele><time>2026-04-22T10:17:42.998Z</time></trkpt><trkpt lat="43.80245315512958" lon="7.695902615363703"><ele>211.0</ele><time>2026-04-22T10:17:43.998Z</time></trkpt><trkpt lat="43.80232957149357" lon="7.695678872925191"><ele>208.0</ele><time>2026-04-22T10:17:44.998Z</time></trkpt><trkpt lat="43.80220310082793" lon="7.695455253701903"><ele>213.0</ele><time>2026-04-22T10:17:45.998Z</time></trkpt><trkpt lat="43.80207906612633" lon="7.695240856493458"><ele>218.0</ele><time>2026-04-22T10:17:46.998Z</time></trkpt><trkpt lat="43.801962015935565" lon="7.695033935086553"><ele>223.0</ele><time>2026-04-22T10:17:47.998Z</time></trkpt><trkpt lat="43.80183865786229" lon="7.69483231198175"><ele>219.0</ele><time>2026-04-22T10:17:48.998Z</time></trkpt><trkpt lat="43.80170682862689" lon="7.69463207559848"><ele>215.0</ele><time>2026-04-22T10:17:49.998Z</time></trkpt><trkpt lat="43.80158550701838" lon="7.694440834459148"><ele>211.0</ele><time>2026-04-22T10:17:50.998Z</time></trkpt><trkpt lat="43.801456470776074" lon="7.694262543826298"><ele>211.0</ele><time>2026-04-22T10:17:51.998Z</time></trkpt><trkpt lat="43.801328155448935" lon="7.694071152552958"><ele>211.0</ele><time>2026-04-22T10:17:52.998Z</time></trkpt><trkpt lat="43.801199142894006" lon="7.693882785358209"><ele>211.0</ele><time>2026-04-22T10:17:53.998Z</time></trkpt><trkpt lat="43.801061534229284" lon="7.693697289584248"><ele>212.33333333333331</ele><time>2026-04-22T10:17:54.998Z</time></trkpt><trkpt lat="43.80091447489705" lon="7.693511210645229"><ele>213.66666666666669</ele><time>2026-04-22T10:17:55.998Z</time></trkpt><trkpt lat="43.800761261609765" lon="7.693320308881528"><ele>215.0</ele><time>2026-04-22T10:17:57Z</time></trkpt><trkpt lat="43.800605198003474" lon="7.693131641530543"><ele>215.0</ele><time>2026-04-22T10:17:58Z</time></trkpt><trkpt lat="43.80043902900573" lon="7.6929408573923705"><ele>215.0</ele><time>2026-04-22T10:17:59Z</time></trkpt><trkpt lat="43.800267904871085" lon="7.6927466547308985"><ele>215.0</ele><time>2026-04-22T10:18:00Z</time></trkpt><trkpt lat="43.800081583596096" lon="7.692544714314216"><ele>215.5</ele><time>2026-04-22T10:18:00.999Z</time></trkpt><trkpt lat="43.79988775894486" lon="7.6923368334787305"><ele>216.0</ele><time>2026-04-22T10:18:01.999Z</time></trkpt><trkpt lat="43.799687961479854" lon="7.692131526901628"><ele>216.0</ele><time>2026-04-22T10:18:02.999Z</time></trkpt><trkpt lat="43.7994939284012" lon="7.691939925209746"><ele>216.0</ele><time>2026-04-22T10:18:03.999Z</time></trkpt><trkpt lat="43.799296550624746" lon="7.6917485882646535"><ele>212.5</ele><time>2026-04-22T10:18:04.999Z</time></trkpt><trkpt lat="43.79909794529507" lon="7.691564176950274"><ele>209.0</ele><time>2026-04-22T10:18:05.999Z</time></trkpt><trkpt lat="43.79889314703624" lon="7.691381508763076"><ele>209.0</ele><time>2026-04-22T10:18:06.999Z</time></trkpt><trkpt lat="43.798694255466316" lon="7.6912108055170325"><ele>209.0</ele><time>2026-04-22T10:18:07.999Z</time></trkpt><trkpt lat="43.79849273353535" lon="7.691045962092043"><ele>213.0</ele><time>2026-04-22T10:18:08.999Z</time></trkpt><trkpt lat="43.79829107399279" lon="7.690885899726985"><ele>217.0</ele><time>2026-04-22T10:18:09.999Z</time></trkpt><trkpt lat="43.79808953469113" lon="7.6907334758711094"><ele>217.0</ele><time>2026-04-22T10:18:11Z</time></trkpt><trkpt lat="43.79788347804067" lon="7.690587731318309"><ele>217.0</ele><time>2026-04-22T10:18:12Z</time></trkpt><trkpt lat="43.797672880873534" lon="7.690443877996098"><ele>214.5</ele><time>2026-04-22T10:18:13Z</time></trkpt><trkpt lat="43.7974597876111" lon="7.690302719215411"><ele>212.0</ele><time>2026-04-22T10:18:14Z</time></trkpt><trkpt lat="43.79723237309177" lon="7.690161884696464"><ele>212.0</ele><time>2026-04-22T10:18:15Z</time></trkpt><trkpt lat="43.79699711969945" lon="7.690019170695949"><ele>212.0</ele><time>2026-04-22T10:18:16Z</time></trkpt><trkpt lat="43.79675321183868" lon="7.689871006319645"><ele>212.0</ele><time>2026-04-22T10:18:17Z</time></trkpt><trkpt lat="43.796511190166015" lon="7.6897232091431675"><ele>212.0</ele><time>2026-04-22T10:18:18Z</time></trkpt><trkpt lat="43.79628472429911" lon="7.6895749969893945"><ele>212.0</ele><time>2026-04-22T10:18:19Z</time></trkpt><trkpt lat="43.79606552176969" lon="7.6894303455484865"><ele>212.0</ele><time>2026-04-22T10:18:20Z</time></trkpt><trkpt lat="43.79585791729199" lon="7.689277192700994"><ele>213.5</ele><time>2026-04-22T10:18:21Z</time></trkpt><trkpt lat="43.79565250986783" lon="7.689126855866175"><ele>215.0</ele><time>2026-04-22T10:18:22Z</time></trkpt><trkpt lat="43.79545722420197" lon="7.688974969059996"><ele>215.0</ele><time>2026-04-22T10:18:23Z</time></trkpt><trkpt lat="43.795274722244095" lon="7.688822881297165"><ele>215.0</ele><time>2026-04-22T10:18:24Z</time></trkpt><trkpt lat="43.79509816168036" lon="7.6886637061518375"><ele>215.0</ele><time>2026-04-22T10:18:25Z</time></trkpt><trkpt lat="43.79492282184945" lon="7.688493038737913"><ele>220.66666666666669</ele><time>2026-04-22T10:18:26Z</time></trkpt><trkpt lat="43.79475560238479" lon="7.688303235797827"><ele>226.33333333333331</ele><time>2026-04-22T10:18:27Z</time></trkpt><trkpt lat="43.794595377376794" lon="7.688090240433911"><ele>232.0</ele><time>2026-04-22T10:18:28Z</time></trkpt><trkpt lat="43.7944426990384" lon="7.6878625376512195"><ele>231.33333333333331</ele><time>2026-04-22T10:18:29Z</time></trkpt><trkpt lat="43.794303834789204" lon="7.687629962389854"><ele>230.66666666666669</ele><time>2026-04-22T10:18:30Z</time></trkpt><trkpt lat="43.79418108538619" lon="7.6873867254172765"><ele>230.0</ele><time>2026-04-22T10:18:31Z</time></trkpt><trkpt lat="43.79406825888056" lon="7.687111136138731"><ele>236.0</ele><time>2026-04-22T10:18:32.066Z</time></trkpt><trkpt lat="43.793975274035205" lon="7.686849234194949"><ele>242.0</ele><time>2026-04-22T10:18:33.058Z</time></trkpt><trkpt lat="43.79389451578136" lon="7.6865834500992865"><ele>248.0</ele><time>2026-04-22T10:18:34.059Z</time></trkpt><trkpt lat="43.7932946125209" lon="7.6816299157774"><ele>235.0</ele><time>2026-04-22T10:18:51Z</time></trkpt><trkpt lat="43.793357959857474" lon="7.681352817987796"><ele>222.0</ele><time>2026-04-22T10:18:52Z</time></trkpt><trkpt lat="43.793431688188264" lon="7.681070314068188"><ele>209.0</ele><time>2026-04-22T10:18:53Z</time></trkpt><trkpt lat="43.794022233704254" lon="7.680934047920187"><ele>209.0</ele><time>2026-04-22T10:18:54Z</time></trkpt><trkpt lat="43.79384948911506" lon="7.680622018342711"><ele>209.0</ele><time>2026-04-22T10:18:55Z</time></trkpt><trkpt lat="43.793746341213115" lon="7.680281882698739"><ele>204.33333333333334</ele><time>2026-04-22T10:18:56Z</time></trkpt><trkpt lat="43.79385497403638" lon="7.680019004295174"><ele>199.66666666666669</ele><time>2026-04-22T10:18:57Z</time></trkpt><trkpt lat="43.79397374538809" lon="7.679759988119939"><ele>195.0</ele><time>2026-04-22T10:18:58Z</time></trkpt><trkpt lat="43.794107871254525" lon="7.679505165521997"><ele>190.5</ele><time>2026-04-22T10:18:59Z</time></trkpt><trkpt lat="43.79424166774704" lon="7.679247353763756"><ele>186.0</ele><time>2026-04-22T10:19:00Z</time></trkpt><trkpt lat="43.79437638886759" lon="7.678990403953204"><ele>196.5</ele><time>2026-04-22T10:19:01Z</time></trkpt><trkpt lat="43.79451948839397" lon="7.678725740150407"><ele>207.0</ele><time>2026-04-22T10:19:02Z</time></trkpt><trkpt lat="43.79466780946175" lon="7.678452410530771"><ele>210.0</ele><time>2026-04-22T10:19:03Z</time></trkpt><trkpt lat="43.794816655731275" lon="7.678175777331615"><ele>213.0</ele><time>2026-04-22T10:19:04Z</time></trkpt><trkpt lat="43.79496933003645" lon="7.6778956771087135"><ele>218.5</ele><time>2026-04-22T10:19:05Z</time></trkpt><trkpt lat="43.7951168674128" lon="7.677619488129699"><ele>224.0</ele><time>2026-04-22T10:19:06Z</time></trkpt><trkpt lat="43.795257308721354" lon="7.677347977000375"><ele>220.0</ele><time>2026-04-22T10:19:07Z</time></trkpt><trkpt lat="43.795393249569734" lon="7.677077016497707"><ele>216.0</ele><time>2026-04-22T10:19:08Z</time></trkpt><trkpt lat="43.7955263960931" lon="7.676806864365217"><ele>216.0</ele><time>2026-04-22T10:19:09Z</time></trkpt><trkpt lat="43.795663057192044" lon="7.6765227060183925"><ele>216.0</ele><time>2026-04-22T10:19:10.053Z</time></trkpt><trkpt lat="43.795790103821716" lon="7.676253044142566"><ele>180.0</ele><time>2026-04-22T10:19:11.049Z</time></trkpt><trkpt lat="43.796542882982365" lon="7.674740547223354"><ele>180.0</ele><time>2026-04-22T10:19:17Z</time></trkpt><trkpt lat="43.79675101181583" lon="7.674595933353706"><ele>180.0</ele><time>2026-04-22T10:19:18Z</time></trkpt><trkpt lat="43.79689882959113" lon="7.674333852452794"><ele>176.66666666666666</ele><time>2026-04-22T10:19:19Z</time></trkpt><trkpt lat="43.79703141698455" lon="7.674096125437045"><ele>173.33333333333331</ele><time>2026-04-22T10:19:20Z</time></trkpt><trkpt lat="43.797164401676206" lon="7.67384773953212"><ele>170.0</ele><time>2026-04-22T10:19:21Z</time></trkpt><trkpt lat="43.79730108718386" lon="7.673600304507743"><ele>159.5</ele><time>2026-04-22T10:19:22Z</time></trkpt><trkpt lat="43.79743714852203" lon="7.673349882179523"><ele>149.0</ele><time>2026-04-22T10:19:23Z</time></trkpt><trkpt lat="43.79757309998245" lon="7.6730933232353085"><ele>151.0</ele><time>2026-04-22T10:19:24Z</time></trkpt><trkpt lat="43.79771460193919" lon="7.67283424662807"><ele>153.0</ele><time>2026-04-22T10:19:25Z</time></trkpt><trkpt lat="43.79786036489408" lon="7.672570130213127"><ele>136.0</ele><time>2026-04-22T10:19:26Z</time></trkpt><trkpt lat="43.79801030148169" lon="7.672298748226098"><ele>119.0</ele><time>2026-04-22T10:19:27Z</time></trkpt><trkpt lat="43.79815727953443" lon="7.672030225906766"><ele>110.5</ele><time>2026-04-22T10:19:28Z</time></trkpt><trkpt lat="43.79830012640833" lon="7.671766618886753"><ele>102.0</ele><time>2026-04-22T10:19:29Z</time></trkpt><trkpt lat="43.79844187881912" lon="7.671510311506533"><ele>102.0</ele><time>2026-04-22T10:19:30Z</time></trkpt><trkpt lat="43.79857964345938" lon="7.671251950845326"><ele>102.0</ele><time>2026-04-22T10:19:30.999Z</time></trkpt><trkpt lat="43.79871173784255" lon="7.670991155252029"><ele>106.33333333333334</ele><time>2026-04-22T10:19:31.999Z</time></trkpt><trkpt lat="43.798835713244145" lon="7.6707324913720205"><ele>110.66666666666667</ele><time>2026-04-22T10:19:32.999Z</time></trkpt><trkpt lat="43.79895399902187" lon="7.6704669617183905"><ele>115.0</ele><time>2026-04-22T10:19:33.999Z</time></trkpt><trkpt lat="43.799067012422256" lon="7.67019467806852"><ele>123.33333333333334</ele><time>2026-04-22T10:19:34.999Z</time></trkpt><trkpt lat="43.79916888922742" lon="7.669926543132081"><ele>131.66666666666666</ele><time>2026-04-22T10:19:35.999Z</time></trkpt><trkpt lat="43.79926503552456" lon="7.669652103048024"><ele>140.0</ele><time>2026-04-22T10:19:36.999Z</time></trkpt><trkpt lat="43.799352756138305" lon="7.669370677307617"><ele>147.0</ele><time>2026-04-22T10:19:37.999Z</time></trkpt><trkpt lat="43.799432730357225" lon="7.669090346068667"><ele>154.0</ele><time>2026-04-22T10:19:38.999Z</time></trkpt><trkpt lat="43.79950533940784" lon="7.668800641825829"><ele>161.0</ele><time>2026-04-22T10:19:39.999Z</time></trkpt><trkpt lat="43.79957230353692" lon="7.668509036483309"><ele>161.0</ele><time>2026-04-22T10:19:40.999Z</time></trkpt><trkpt lat="43.799629639398674" lon="7.668211060274856"><ele>161.0</ele><time>2026-04-22T10:19:41.999Z</time></trkpt><trkpt lat="43.799680988169754" lon="7.667899252992014"><ele>152.5</ele><time>2026-04-22T10:19:42.999Z</time></trkpt><trkpt lat="43.79972816820324" lon="7.667580699706167"><ele>144.0</ele><time>2026-04-22T10:19:43.999Z</time></trkpt><trkpt lat="43.79977338642496" lon="7.667257358428392"><ele>139.0</ele><time>2026-04-22T10:19:44.999Z</time></trkpt><trkpt lat="43.79981682232028" lon="7.6669267089255895"><ele>134.0</ele><time>2026-04-22T10:19:45.999Z</time></trkpt><trkpt lat="43.799856787629764" lon="7.666594618168739"><ele>134.0</ele><time>2026-04-22T10:19:46.999Z</time></trkpt><trkpt lat="43.79989894167036" lon="7.666259665368713"><ele>134.0</ele><time>2026-04-22T10:19:47.999Z</time></trkpt><trkpt lat="43.799940703705445" lon="7.665930690892873"><ele>125.0</ele><time>2026-04-22T10:19:48.999Z</time></trkpt><trkpt lat="43.799979781149695" lon="7.665603829019431"><ele>116.0</ele><time>2026-04-22T10:19:49.999Z</time></trkpt><trkpt lat="43.800017542117985" lon="7.6652794866153195"><ele>107.0</ele><time>2026-04-22T10:19:50.999Z</time></trkpt><trkpt lat="43.800056861211786" lon="7.664955600581201"><ele>98.0</ele><time>2026-04-22T10:19:51.999Z</time></trkpt><trkpt lat="43.80009687014426" lon="7.664629646661394"><ele>84.5</ele><time>2026-04-22T10:19:52.999Z</time></trkpt><trkpt lat="43.800137572301786" lon="7.664304432154882"><ele>71.0</ele><time>2026-04-22T10:19:53.999Z</time></trkpt><trkpt lat="43.80017790575214" lon="7.663975712303259"><ele>68.5</ele><time>2026-04-22T10:19:54.999Z</time></trkpt><trkpt lat="43.800218457374704" lon="7.663645850029049"><ele>66.0</ele><time>2026-04-22T10:19:55.999Z</time></trkpt><trkpt lat="43.800257823089524" lon="7.663318609383901"><ele>59.5</ele><time>2026-04-22T10:19:56.999Z</time></trkpt><trkpt lat="43.8002972782858" lon="7.6629942618124245"><ele>53.0</ele><time>2026-04-22T10:19:57.999Z</time></trkpt><trkpt lat="43.80033640602616" lon="7.662669868578573"><ele>53.0</ele><time>2026-04-22T10:19:58.999Z</time></trkpt><trkpt lat="43.800375878077006" lon="7.662343356537041"><ele>53.0</ele><time>2026-04-22T10:19:59.999Z</time></trkpt><trkpt lat="43.8004156613973" lon="7.662020095518094"><ele>60.0</ele><time>2026-04-22T10:20:00.999Z</time></trkpt><trkpt lat="43.80045718033073" lon="7.661697625686895"><ele>67.0</ele><time>2026-04-22T10:20:01.999Z</time></trkpt><trkpt lat="43.800498608703286" lon="7.661374023028504"><ele>74.0</ele><time>2026-04-22T10:20:03.001Z</time></trkpt><trkpt lat="43.80053838831323" lon="7.661052712480089"><ele>81.0</ele><time>2026-04-22T10:20:04.001Z</time></trkpt><trkpt lat="43.80057791052592" lon="7.660729029577825"><ele>81.0</ele><time>2026-04-22T10:20:05.001Z</time></trkpt><trkpt lat="43.80061902009251" lon="7.6604050013452705"><ele>81.0</ele><time>2026-04-22T10:20:06.001Z</time></trkpt><trkpt lat="43.800658458789634" lon="7.660087599254256"><ele>86.5</ele><time>2026-04-22T10:20:07.001Z</time></trkpt><trkpt lat="43.80069746631375" lon="7.659764484080053"><ele>92.0</ele><time>2026-04-22T10:20:08.001Z</time></trkpt><trkpt lat="43.800737651377084" lon="7.6594402024408375"><ele>99.0</ele><time>2026-04-22T10:20:09.001Z</time></trkpt><trkpt lat="43.80077688479776" lon="7.65912115577707"><ele>106.0</ele><time>2026-04-22T10:20:10.001Z</time></trkpt><trkpt lat="43.80081508449934" lon="7.658810837270796"><ele>113.5</ele><time>2026-04-22T10:20:11.001Z</time></trkpt><trkpt lat="43.80085503048659" lon="7.658503636540612"><ele>121.0</ele><time>2026-04-22T10:20:12.001Z</time></trkpt><trkpt lat="43.80089581745555" lon="7.658196426617516"><ele>121.0</ele><time>2026-04-22T10:20:13.001Z</time></trkpt><trkpt lat="43.80093674626378" lon="7.657888760366368"><ele>121.0</ele><time>2026-04-22T10:20:14.001Z</time></trkpt><trkpt lat="43.80097782049295" lon="7.657579969620083"><ele>133.5</ele><time>2026-04-22T10:20:15.001Z</time></trkpt><trkpt lat="43.80102058171537" lon="7.657269152312497"><ele>146.0</ele><time>2026-04-22T10:20:16.001Z</time></trkpt><trkpt lat="43.801061110849595" lon="7.656954350384535"><ele>156.5</ele><time>2026-04-22T10:20:17.001Z</time></trkpt><trkpt lat="43.80110248861977" lon="7.656633613604468"><ele>167.0</ele><time>2026-04-22T10:20:18.001Z</time></trkpt><trkpt lat="43.80114428909673" lon="7.656309164572968"><ele>175.0</ele><time>2026-04-22T10:20:19Z</time></trkpt><trkpt lat="43.80118713692616" lon="7.6559798875217915"><ele>183.0</ele><time>2026-04-22T10:20:20Z</time></trkpt><trkpt lat="43.80123236978297" lon="7.655647498713258"><ele>183.0</ele><time>2026-04-22T10:20:21Z</time></trkpt><trkpt lat="43.801275361334135" lon="7.655292670969613"><ele>183.0</ele><time>2026-04-22T10:20:22.066Z</time></trkpt><trkpt lat="43.8013109313098" lon="7.654956079216813"><ele>175.5</ele><time>2026-04-22T10:20:23.064Z</time></trkpt><trkpt lat="43.80134304386465" lon="7.654619373455857"><ele>168.0</ele><time>2026-04-22T10:20:24.059Z</time></trkpt><trkpt lat="43.80137286481158" lon="7.6542932094570455"><ele>160.5</ele><time>2026-04-22T10:20:25.058Z</time></trkpt><trkpt lat="43.80139578593233" lon="7.653976168133006"><ele>153.0</ele><time>2026-04-22T10:20:26.043Z</time></trkpt><trkpt lat="43.801427746059474" lon="7.653665722106431"><ele>148.5</ele><time>2026-04-22T10:20:27.026Z</time></trkpt><trkpt lat="43.80145269458579" lon="7.653352723040542"><ele>144.0</ele><time>2026-04-22T10:20:28.024Z</time></trkpt><trkpt lat="43.80128541924118" lon="7.651505881279535"><ele>118.5</ele><time>2026-04-22T10:20:34Z</time></trkpt><trkpt lat="43.80125696270144" lon="7.651164386154585"><ele>93.0</ele><time>2026-04-22T10:20:35Z</time></trkpt><trkpt lat="43.801235708379" lon="7.650847406777489"><ele>81.0</ele><time>2026-04-22T10:20:36Z</time></trkpt><trkpt lat="43.80120962987366" lon="7.650519653630709"><ele>69.0</ele><time>2026-04-22T10:20:37Z</time></trkpt><trkpt lat="43.801171768222616" lon="7.6501941788595245"><ele>58.5</ele><time>2026-04-22T10:20:38Z</time></trkpt><trkpt lat="43.801131443826975" lon="7.649872224581225"><ele>48.0</ele><time>2026-04-22T10:20:39Z</time></trkpt><trkpt lat="43.80108804848691" lon="7.649561808848053"><ele>41.5</ele><time>2026-04-22T10:20:40Z</time></trkpt><trkpt lat="43.801040080387395" lon="7.649256124146831"><ele>35.0</ele><time>2026-04-22T10:20:41Z</time></trkpt><trkpt lat="43.800988479745335" lon="7.648948241985113"><ele>35.0</ele><time>2026-04-22T10:20:42Z</time></trkpt><trkpt lat="43.800934985887295" lon="7.648640509921153"><ele>35.0</ele><time>2026-04-22T10:20:43Z</time></trkpt><trkpt lat="43.800878753795956" lon="7.6483280792468555"><ele>37.0</ele><time>2026-04-22T10:20:44Z</time></trkpt><trkpt lat="43.80082219538538" lon="7.648018161650286"><ele>39.0</ele><time>2026-04-22T10:20:45Z</time></trkpt><trkpt lat="43.80076767805291" lon="7.647706516009353"><ele>39.0</ele><time>2026-04-22T10:20:46Z</time></trkpt><trkpt lat="43.800714909416186" lon="7.647398624274216"><ele>39.0</ele><time>2026-04-22T10:20:47Z</time></trkpt><trkpt lat="43.80066005762624" lon="7.647089775751892"><ele>48.33333333333333</ele><time>2026-04-22T10:20:48Z</time></trkpt><trkpt lat="43.80060528168666" lon="7.64678621716608"><ele>57.666666666666664</ele><time>2026-04-22T10:20:49Z</time></trkpt><trkpt lat="43.800551136263174" lon="7.646486955609648"><ele>67.0</ele><time>2026-04-22T10:20:50Z</time></trkpt><trkpt lat="43.80050087645973" lon="7.646194824335847"><ele>77.33333333333333</ele><time>2026-04-22T10:20:51Z</time></trkpt><trkpt lat="43.80045069066693" lon="7.645910377441468"><ele>87.66666666666666</ele><time>2026-04-22T10:20:52Z</time></trkpt><trkpt lat="43.800400380443534" lon="7.6456295607895095"><ele>98.0</ele><time>2026-04-22T10:20:53Z</time></trkpt><trkpt lat="43.80035101427963" lon="7.645347930279861"><ele>109.0</ele><time>2026-04-22T10:20:54Z</time></trkpt><trkpt lat="43.80029781581765" lon="7.645064988130174"><ele>120.0</ele><time>2026-04-22T10:20:55Z</time></trkpt><trkpt lat="43.800244626346924" lon="7.644776649128004"><ele>131.0</ele><time>2026-04-22T10:20:56Z</time></trkpt><trkpt lat="43.800191870535144" lon="7.644475394338629"><ele>149.0</ele><time>2026-04-22T10:20:57Z</time></trkpt><trkpt lat="43.80014166251653" lon="7.64416472628202"><ele>167.0</ele><time>2026-04-22T10:20:58Z</time></trkpt><trkpt lat="43.80009564671028" lon="7.643846687270754"><ele>193.0</ele><time>2026-04-22T10:20:59Z</time></trkpt><trkpt lat="43.80005246669333" lon="7.643522467268416"><ele>219.0</ele><time>2026-04-22T10:21:00Z</time></trkpt><trkpt lat="43.80000718039378" lon="7.643173743517872"><ele>219.0</ele><time>2026-04-22T10:21:01.065Z</time></trkpt><trkpt lat="43.79996664572814" lon="7.642847780319227"><ele>219.0</ele><time>2026-04-22T10:21:02.053Z</time></trkpt><trkpt lat="43.7999259634688" lon="7.642512496433819"><ele>221.5</ele><time>2026-04-22T10:21:03.055Z</time></trkpt><trkpt lat="43.79988670651466" lon="7.64216605751621"><ele>224.0</ele><time>2026-04-22T10:21:04.058Z</time></trkpt><trkpt lat="43.799846476215805" lon="7.641824020284347"><ele>213.0</ele><time>2026-04-22T10:21:05.057Z</time></trkpt><trkpt lat="43.79981009056867" lon="7.641484384396333"><ele>202.0</ele><time>2026-04-22T10:21:06.033Z</time></trkpt><trkpt lat="43.79977467220182" lon="7.641135103276356"><ele>76.0</ele><time>2026-04-22T10:21:07.03Z</time></trkpt><trkpt lat="43.80090901906556" lon="7.6345890710612485"><ele>70.0</ele><time>2026-04-22T10:21:29Z</time></trkpt><trkpt lat="43.800945474146026" lon="7.634267442034302"><ele>64.0</ele><time>2026-04-22T10:21:30Z</time></trkpt><trkpt lat="43.80099926727577" lon="7.633957286113199"><ele>53.5</ele><time>2026-04-22T10:21:31Z</time></trkpt><trkpt lat="43.80103803188457" lon="7.633631834499802"><ele>43.0</ele><time>2026-04-22T10:21:32Z</time></trkpt><trkpt lat="43.80108141801761" lon="7.633293583136483"><ele>43.0</ele><time>2026-04-22T10:21:33Z</time></trkpt><trkpt lat="43.801120128777214" lon="7.632948110738728"><ele>43.0</ele><time>2026-04-22T10:21:34Z</time></trkpt><trkpt lat="43.80116052518673" lon="7.632606281687974"><ele>33.0</ele><time>2026-04-22T10:21:34.999Z</time></trkpt><trkpt lat="43.80119554747437" lon="7.632270097097046"><ele>23.0</ele><time>2026-04-22T10:21:35.999Z</time></trkpt><trkpt lat="43.801239276218844" lon="7.631945606858125"><ele>20.333333333333336</ele><time>2026-04-22T10:21:36.999Z</time></trkpt><trkpt lat="43.80127769265754" lon="7.631643671855645"><ele>17.666666666666668</ele><time>2026-04-22T10:21:37.999Z</time></trkpt><trkpt lat="43.801313104533975" lon="7.631341073981721"><ele>15.0</ele><time>2026-04-22T10:21:38.999Z</time></trkpt><trkpt lat="43.80134886824894" lon="7.631054674417287"><ele>14.666666666666668</ele><time>2026-04-22T10:21:39.999Z</time></trkpt><trkpt lat="43.8013858689068" lon="7.630756470153487"><ele>14.333333333333334</ele><time>2026-04-22T10:21:40.999Z</time></trkpt><trkpt lat="43.8014254534694" lon="7.630457136334051"><ele>14.0</ele><time>2026-04-22T10:21:41.999Z</time></trkpt><trkpt lat="43.801468403116395" lon="7.630149181459914"><ele>13.0</ele><time>2026-04-22T10:21:42.999Z</time></trkpt><trkpt lat="43.80150749830295" lon="7.629837539503005"><ele>12.0</ele><time>2026-04-22T10:21:43.999Z</time></trkpt><trkpt lat="43.80154710686485" lon="7.629516619897913"><ele>12.666666666666668</ele><time>2026-04-22T10:21:44.999Z</time></trkpt><trkpt lat="43.80158415668746" lon="7.629205199012815"><ele>13.333333333333334</ele><time>2026-04-22T10:21:45.999Z</time></trkpt><trkpt lat="43.80162066580434" lon="7.628909754156857"><ele>14.0</ele><time>2026-04-22T10:21:46.999Z</time></trkpt><trkpt lat="43.80165483893244" lon="7.628617861915963"><ele>14.0</ele><time>2026-04-22T10:21:47.999Z</time></trkpt><trkpt lat="43.801689952475805" lon="7.628332334790967"><ele>14.0</ele><time>2026-04-22T10:21:48.999Z</time></trkpt><trkpt lat="43.80172323929782" lon="7.628048254248581"><ele>14.0</ele><time>2026-04-22T10:21:49.999Z</time></trkpt><trkpt lat="43.801753589437205" lon="7.627767489814498"><ele>14.0</ele><time>2026-04-22T10:21:50.999Z</time></trkpt><trkpt lat="43.80178598204746" lon="7.627485871555393"><ele>14.0</ele><time>2026-04-22T10:21:51.999Z</time></trkpt><trkpt lat="43.80182208248289" lon="7.6271946971326"><ele>14.0</ele><time>2026-04-22T10:21:52.999Z</time></trkpt><trkpt lat="43.801862342314344" lon="7.626900376863493"><ele>13.666666666666668</ele><time>2026-04-22T10:21:53.999Z</time></trkpt><trkpt lat="43.80190255354166" lon="7.6266000222249595"><ele>13.333333333333332</ele><time>2026-04-22T10:21:54.999Z</time></trkpt><trkpt lat="43.80194107861003" lon="7.626305344851418"><ele>13.0</ele><time>2026-04-22T10:21:55.999Z</time></trkpt><trkpt lat="43.80197106361016" lon="7.626015655238348"><ele>12.666666666666666</ele><time>2026-04-22T10:21:56.999Z</time></trkpt><trkpt lat="43.80200919381938" lon="7.625719542649015"><ele>12.333333333333332</ele><time>2026-04-22T10:21:57.999Z</time></trkpt><trkpt lat="43.80204623256774" lon="7.625424900741039"><ele>12.0</ele><time>2026-04-22T10:21:58.999Z</time></trkpt><trkpt lat="43.80208241223636" lon="7.62513695860394"><ele>15.666666666666668</ele><time>2026-04-22T10:21:59.999Z</time></trkpt><trkpt lat="43.80211730948106" lon="7.624849417608311"><ele>19.333333333333336</ele><time>2026-04-22T10:22:00.999Z</time></trkpt><trkpt lat="43.80215215008844" lon="7.624557831457616"><ele>23.0</ele><time>2026-04-22T10:22:01.999Z</time></trkpt><trkpt lat="43.802193875884385" lon="7.624283747194322"><ele>28.0</ele><time>2026-04-22T10:22:02.999Z</time></trkpt><trkpt lat="43.80223870540648" lon="7.6240084063231"><ele>33.0</ele><time>2026-04-22T10:22:03.999Z</time></trkpt><trkpt lat="43.80228364562761" lon="7.6237318153595455"><ele>38.0</ele><time>2026-04-22T10:22:04.999Z</time></trkpt><trkpt lat="43.80232686349859" lon="7.623450517966071"><ele>39.666666666666664</ele><time>2026-04-22T10:22:05.999Z</time></trkpt><trkpt lat="43.80236405620309" lon="7.623164027552497"><ele>41.333333333333336</ele><time>2026-04-22T10:22:06.999Z</time></trkpt><trkpt lat="43.80240534114108" lon="7.622865267105452"><ele>43.0</ele><time>2026-04-22T10:22:07.999Z</time></trkpt><trkpt lat="43.80244500906454" lon="7.622561884633752"><ele>51.0</ele><time>2026-04-22T10:22:09.001Z</time></trkpt><trkpt lat="43.802483316932324" lon="7.622248954630219"><ele>59.0</ele><time>2026-04-22T10:22:10.001Z</time></trkpt><trkpt lat="43.802527699955476" lon="7.621940547437782"><ele>77.5</ele><time>2026-04-22T10:22:11.001Z</time></trkpt><trkpt lat="43.80257205581022" lon="7.621625529684582"><ele>96.0</ele><time>2026-04-22T10:22:12.001Z</time></trkpt><trkpt lat="43.802617234603495" lon="7.621310653823132"><ele>112.0</ele><time>2026-04-22T10:22:13.001Z</time></trkpt><trkpt lat="43.80265752459979" lon="7.621001486548338"><ele>128.0</ele><time>2026-04-22T10:22:14.001Z</time></trkpt><trkpt lat="43.80269671714249" lon="7.6206949995698965"><ele>128.0</ele><time>2026-04-22T10:22:15.001Z</time></trkpt><trkpt lat="43.802737233671714" lon="7.6203852056140775"><ele>128.0</ele><time>2026-04-22T10:22:16.001Z</time></trkpt><trkpt lat="43.8027833532076" lon="7.620050951429647"><ele>131.66666666666666</ele><time>2026-04-22T10:22:17.069Z</time></trkpt><trkpt lat="43.80282007816771" lon="7.6197452771291125"><ele>135.33333333333334</ele><time>2026-04-22T10:22:18.055Z</time></trkpt><trkpt lat="43.80286030021357" lon="7.619438164403651"><ele>139.0</ele><time>2026-04-22T10:22:19.056Z</time></trkpt><trkpt lat="43.80290182974491" lon="7.619131777577526"><ele>220.0</ele><time>2026-04-22T10:22:20.054Z</time></trkpt><trkpt lat="43.803195289108075" lon="7.616365249619998"><ele>16.0</ele><time>2026-04-22T10:22:23.691Z</time></trkpt><trkpt lat="43.801656903810894" lon="7.59915081329158"><ele>14.0</ele><time>2026-04-22T10:23:27Z</time></trkpt><trkpt lat="43.801295603520856" lon="7.598083918831173"><ele>14.0</ele><time>2026-04-22T10:23:28Z</time></trkpt><trkpt lat="43.8013932222514" lon="7.598216814526126"><ele>14.0</ele><time>2026-04-22T10:23:30Z</time></trkpt><trkpt lat="43.80136072703416" lon="7.597969230575477"><ele>14.0</ele><time>2026-04-22T10:23:32Z</time></trkpt><trkpt lat="43.80130861645488" lon="7.597743286023254"><ele>13.333333333333334</ele><time>2026-04-22T10:23:33Z</time></trkpt><trkpt lat="43.8012588927479" lon="7.5975157723148925"><ele>12.666666666666668</ele><time>2026-04-22T10:23:34Z</time></trkpt><trkpt lat="43.80121005819997" lon="7.597299860406625"><ele>12.0</ele><time>2026-04-22T10:23:35Z</time></trkpt><trkpt lat="43.801159153523514" lon="7.597086038657283"><ele>11.5</ele><time>2026-04-22T10:23:36Z</time></trkpt><trkpt lat="43.801112394363784" lon="7.59687969257431"><ele>11.0</ele><time>2026-04-22T10:23:37Z</time></trkpt><trkpt lat="43.80106995840012" lon="7.5966813597536"><ele>10.5</ele><time>2026-04-22T10:23:38Z</time></trkpt><trkpt lat="43.80101348164832" lon="7.596506326027262"><ele>10.0</ele><time>2026-04-22T10:23:38.999Z</time></trkpt><trkpt lat="43.800993826914585" lon="7.596328520791005"><ele>10.8</ele><time>2026-04-22T10:23:39.999Z</time></trkpt><trkpt lat="43.800959937430584" lon="7.596164882861171"><ele>11.6</ele><time>2026-04-22T10:23:40.999Z</time></trkpt><trkpt lat="43.80093869077003" lon="7.59600884556738"><ele>12.399999999999999</ele><time>2026-04-22T10:23:41.999Z</time></trkpt><trkpt lat="43.80093345239243" lon="7.595863291937742"><ele>13.2</ele><time>2026-04-22T10:23:42.999Z</time></trkpt><trkpt lat="43.800949933616266" lon="7.595722524711954"><ele>14.0</ele><time>2026-04-22T10:23:43.999Z</time></trkpt><trkpt lat="43.80099186945368" lon="7.595584478682717"><ele>13.0</ele><time>2026-04-22T10:23:44.999Z</time></trkpt><trkpt lat="43.80104904117937" lon="7.595445877498978"><ele>12.0</ele><time>2026-04-22T10:23:45.999Z</time></trkpt><trkpt lat="43.80111855730537" lon="7.595312161847653"><ele>11.0</ele><time>2026-04-22T10:23:46.999Z</time></trkpt><trkpt lat="43.80119648060575" lon="7.5951940050829485"><ele>10.0</ele><time>2026-04-22T10:23:47.999Z</time></trkpt><trkpt lat="43.80125988339262" lon="7.595083950264995"><ele>10.0</ele><time>2026-04-22T10:23:48.999Z</time></trkpt><trkpt lat="43.80131257119311" lon="7.594979115595474"><ele>10.0</ele><time>2026-04-22T10:23:49.999Z</time></trkpt><trkpt lat="43.80136164113672" lon="7.59487659953493"><ele>10.0</ele><time>2026-04-22T10:23:50.999Z</time></trkpt><trkpt lat="43.80140030942498" lon="7.594775676405879"><ele>10.0</ele><time>2026-04-22T10:23:51.999Z</time></trkpt><trkpt lat="43.80142306036514" lon="7.594664766747974"><ele>10.0</ele><time>2026-04-22T10:23:52.999Z</time></trkpt><trkpt lat="43.8014276713699" lon="7.594546464354926"><ele>10.0</ele><time>2026-04-22T10:23:53.999Z</time></trkpt><trkpt lat="43.80141668746928" lon="7.594430725936422"><ele>11.166666666666668</ele><time>2026-04-22T10:23:54.999Z</time></trkpt><trkpt lat="43.80139616261859" lon="7.594329661235756"><ele>12.333333333333334</ele><time>2026-04-22T10:23:55.999Z</time></trkpt><trkpt lat="43.801368862541054" lon="7.594247454182712"><ele>13.5</ele><time>2026-04-22T10:23:56.999Z</time></trkpt><trkpt lat="43.801331619790865" lon="7.594172968781676"><ele>14.666666666666668</ele><time>2026-04-22T10:23:57.999Z</time></trkpt><trkpt lat="43.80126120101644" lon="7.594066887352608"><ele>15.833333333333334</ele><time>2026-04-22T10:23:59.999Z</time></trkpt><trkpt lat="43.80119107009041" lon="7.594022266607668"><ele>17.0</ele><time>2026-04-22T10:24:21.001Z</time></trkpt><trkpt lat="43.80108659820168" lon="7.593962884782857"><ele>18.2</ele><time>2026-04-22T10:24:23.001Z</time></trkpt><trkpt lat="43.80098288888145" lon="7.5939200256268515"><ele>19.4</ele><time>2026-04-22T10:24:25.001Z</time></trkpt><trkpt lat="43.800892404057564" lon="7.593816518651002"><ele>20.599999999999998</ele><time>2026-04-22T10:24:27.001Z</time></trkpt><trkpt lat="43.80085116306698" lon="7.593689152737644"><ele>21.799999999999997</ele><time>2026-04-22T10:24:29.001Z</time></trkpt><trkpt lat="43.80081201795506" lon="7.593560711549024"><ele>23.0</ele><time>2026-04-22T10:24:31Z</time></trkpt><trkpt lat="43.80077287410999" lon="7.593420861272303"><ele>23.0</ele><time>2026-04-22T10:24:33Z</time></trkpt><trkpt lat="43.8007439331246" lon="7.593311940534964"><ele>23.0</ele><time>2026-04-22T10:24:35Z</time></trkpt><trkpt lat="43.80069399620796" lon="7.593112733609276"><ele>23.0</ele><time>2026-04-22T10:27:26Z</time></trkpt><trkpt lat="43.800662951737046" lon="7.592986950720453"><ele>23.0</ele><time>2026-04-22T10:27:27Z</time></trkpt><trkpt lat="43.80063192974692" lon="7.592861877117004"><ele>23.0</ele><time>2026-04-22T10:27:28Z</time></trkpt><trkpt lat="43.800603512330234" lon="7.592741207481469"><ele>22.4</ele><time>2026-04-22T10:27:29Z</time></trkpt><trkpt lat="43.80057361398076" lon="7.592589014209333"><ele>21.799999999999997</ele><time>2026-04-22T10:27:30Z</time></trkpt><trkpt lat="43.80055170177127" lon="7.592444808812413"><ele>21.2</ele><time>2026-04-22T10:27:31Z</time></trkpt><trkpt lat="43.80054160961028" lon="7.592300067989822"><ele>20.6</ele><time>2026-04-22T10:27:32Z</time></trkpt><trkpt lat="43.80055811190131" lon="7.592146707252201"><ele>20.0</ele><time>2026-04-22T10:27:33Z</time></trkpt><trkpt lat="43.80059908029901" lon="7.592007472288986"><ele>19.5</ele><time>2026-04-22T10:27:34Z</time></trkpt><trkpt lat="43.800656325376444" lon="7.591879630248451"><ele>19.0</ele><time>2026-04-22T10:27:35Z</time></trkpt><trkpt lat="43.800709280464645" lon="7.591768140008429"><ele>18.5</ele><time>2026-04-22T10:27:36Z</time></trkpt><trkpt lat="43.80081309855912" lon="7.591649838901307"><ele>18.0</ele><time>2026-04-22T10:27:37Z</time></trkpt><trkpt lat="43.800967163266755" lon="7.59167252075324"><ele>18.0</ele><time>2026-04-22T10:27:38Z</time></trkpt><trkpt lat="43.80111723982393" lon="7.591621728990884"><ele>18.0</ele><time>2026-04-22T10:27:39Z</time></trkpt><trkpt lat="43.80129071144081" lon="7.591581064236556"><ele>18.0</ele><time>2026-04-22T10:27:40Z</time></trkpt><trkpt lat="43.80145082488011" lon="7.591549868460643"><ele>18.0</ele><time>2026-04-22T10:27:41Z</time></trkpt><trkpt lat="43.801605686470566" lon="7.591520894409622"><ele>18.0</ele><time>2026-04-22T10:27:42Z</time></trkpt><trkpt lat="43.80167707367226" lon="7.59144087281378"><ele>18.0</ele><time>2026-04-22T10:27:43Z</time></trkpt><trkpt lat="43.80179241222143" lon="7.591416415201751"><ele>18.0</ele><time>2026-04-22T10:27:44Z</time></trkpt><trkpt lat="43.8018900529259" lon="7.591419254647003"><ele>18.0</ele><time>2026-04-22T10:27:45Z</time></trkpt><trkpt lat="43.80198790140859" lon="7.591470603089004"><ele>18.0</ele><time>2026-04-22T10:27:45.999Z</time></trkpt><trkpt lat="43.8020592873085" lon="7.5915630165182"><ele>18.0</ele><time>2026-04-22T10:27:46.999Z</time></trkpt><trkpt lat="43.80210852351102" lon="7.591688881268742"><ele>18.0</ele><time>2026-04-22T10:27:47.999Z</time></trkpt><trkpt lat="43.80214328766825" lon="7.591827995911156"><ele>18.0</ele><time>2026-04-22T10:27:48.999Z</time></trkpt><trkpt lat="43.80213118888273" lon="7.591972739964034"><ele>17.666666666666668</ele><time>2026-04-22T10:27:49.999Z</time></trkpt><trkpt lat="43.80211168781746" lon="7.59209989650805"><ele>17.333333333333332</ele><time>2026-04-22T10:27:50.999Z</time></trkpt><trkpt lat="43.8020660524711" lon="7.592208153795189"><ele>17.0</ele><time>2026-04-22T10:27:51.999Z</time></trkpt><trkpt lat="43.802022317783226" lon="7.592295843865802"><ele>16.666666666666664</ele><time>2026-04-22T10:27:52.999Z</time></trkpt><trkpt lat="43.80196491296503" lon="7.592344077922097"><ele>16.333333333333332</ele><time>2026-04-22T10:27:53.999Z</time></trkpt><trkpt lat="43.80190765877421" lon="7.59238357006125"><ele>16.0</ele><time>2026-04-22T10:27:54.999Z</time></trkpt><trkpt lat="43.80184917468285" lon="7.592428107229338"><ele>16.2</ele><time>2026-04-22T10:27:55.999Z</time></trkpt><trkpt lat="43.80179326624768" lon="7.592577025643081"><ele>16.400000000000002</ele><time>2026-04-22T10:27:57.999Z</time></trkpt><trkpt lat="43.80180154011421" lon="7.59266846880213"><ele>16.6</ele><time>2026-04-22T10:27:58.999Z</time></trkpt><trkpt lat="43.80181690925436" lon="7.592767036477718"><ele>16.8</ele><time>2026-04-22T10:27:59.999Z</time></trkpt><trkpt lat="43.801830310411496" lon="7.592887371597068"><ele>17.0</ele><time>2026-04-22T10:28:00.999Z</time></trkpt><trkpt lat="43.80182925754713" lon="7.593033015634188"><ele>17.0</ele><time>2026-04-22T10:28:01.999Z</time></trkpt><trkpt lat="43.80180307050566" lon="7.593197270305356"><ele>17.0</ele><time>2026-04-22T10:28:02.999Z</time></trkpt><trkpt lat="43.80177803023758" lon="7.593362873798473"><ele>17.0</ele><time>2026-04-22T10:28:03.999Z</time></trkpt><trkpt lat="43.8017665932388" lon="7.5935158603334285"><ele>17.0</ele><time>2026-04-22T10:28:04.999Z</time></trkpt><trkpt lat="43.801780281238514" lon="7.593638281883954"><ele>17.0</ele><time>2026-04-22T10:28:05.999Z</time></trkpt><trkpt lat="43.80181478724199" lon="7.593756174147412"><ele>16.4</ele><time>2026-04-22T10:28:06.999Z</time></trkpt><trkpt lat="43.80187470371173" lon="7.5938538907614666"><ele>15.799999999999999</ele><time>2026-04-22T10:28:07.999Z</time></trkpt><trkpt lat="43.80194983272201" lon="7.593938176317211"><ele>15.2</ele><time>2026-04-22T10:28:08.999Z</time></trkpt><trkpt lat="43.80203292117489" lon="7.59399791931864"><ele>14.6</ele><time>2026-04-22T10:28:09.999Z</time></trkpt><trkpt lat="43.80212741801353" lon="7.594019490931278"><ele>14.0</ele><time>2026-04-22T10:28:10.999Z</time></trkpt><trkpt lat="43.802233344411384" lon="7.594005598133928"><ele>14.0</ele><time>2026-04-22T10:28:11.999Z</time></trkpt><trkpt lat="43.80234224319574" lon="7.593959674297613"><ele>14.0</ele><time>2026-04-22T10:28:12.999Z</time></trkpt><trkpt lat="43.80245220046209" lon="7.593873326657289"><ele>14.0</ele><time>2026-04-22T10:28:13.999Z</time></trkpt><trkpt lat="43.80257419048473" lon="7.593758560177371"><ele>14.0</ele><time>2026-04-22T10:28:14.999Z</time></trkpt><trkpt lat="43.802714992311515" lon="7.593621989697725"><ele>13.666666666666668</ele><time>2026-04-22T10:28:15.999Z</time></trkpt><trkpt lat="43.802858615495644" lon="7.59348314092407"><ele>13.333333333333332</ele><time>2026-04-22T10:28:16.999Z</time></trkpt><trkpt lat="43.80299130330221" lon="7.593359657463165"><ele>13.0</ele><time>2026-04-22T10:28:17.999Z</time></trkpt><trkpt lat="43.80311850013938" lon="7.593241531616381"><ele>13.0</ele><time>2026-04-22T10:28:18.999Z</time></trkpt><trkpt lat="43.803238950674874" lon="7.593128654561768"><ele>13.0</ele><time>2026-04-22T10:28:19.999Z</time></trkpt><trkpt lat="43.8033555935068" lon="7.593021166158453"><ele>13.0</ele><time>2026-04-22T10:28:20.999Z</time></trkpt><trkpt lat="43.80347502936676" lon="7.592916721850649"><ele>13.0</ele><time>2026-04-22T10:28:21.999Z</time></trkpt><trkpt lat="43.80359418918443" lon="7.592814989656091"><ele>13.75</ele><time>2026-04-22T10:28:22.999Z</time></trkpt><trkpt lat="43.80371512122867" lon="7.592718510219676"><ele>14.5</ele><time>2026-04-22T10:28:23.999Z</time></trkpt><trkpt lat="43.80383819082845" lon="7.592634788092707"><ele>15.25</ele><time>2026-04-22T10:28:24.999Z</time></trkpt><trkpt lat="43.80396681409901" lon="7.5925666887153085"><ele>16.0</ele><time>2026-04-22T10:28:25.999Z</time></trkpt><trkpt lat="43.80410151193675" lon="7.592516776784446"><ele>16.0</ele><time>2026-04-22T10:28:27Z</time></trkpt><trkpt lat="43.80424483686924" lon="7.592482512716665"><ele>16.0</ele><time>2026-04-22T10:28:28Z</time></trkpt><trkpt lat="43.80439002211677" lon="7.592457228127626"><ele>16.0</ele><time>2026-04-22T10:28:29Z</time></trkpt><trkpt lat="43.80453302578038" lon="7.592454990860688"><ele>16.0</ele><time>2026-04-22T10:28:30Z</time></trkpt><trkpt lat="43.80468531946861" lon="7.5924677106448595"><ele>14.333333333333332</ele><time>2026-04-22T10:28:31Z</time></trkpt><trkpt lat="43.804841939508655" lon="7.592497313306205"><ele>12.666666666666666</ele><time>2026-04-22T10:28:32Z</time></trkpt><trkpt lat="43.8049960180607" lon="7.592544640087463"><ele>11.0</ele><time>2026-04-22T10:28:33Z</time></trkpt><trkpt lat="43.80514474812819" lon="7.59261327880438"><ele>10.666666666666666</ele><time>2026-04-22T10:28:34Z</time></trkpt><trkpt lat="43.80529204235582" lon="7.592701753489771"><ele>10.333333333333334</ele><time>2026-04-22T10:28:35Z</time></trkpt><trkpt lat="43.80544500986277" lon="7.592814113046098"><ele>10.0</ele><time>2026-04-22T10:28:36Z</time></trkpt><trkpt lat="43.80560452726912" lon="7.592951180324032"><ele>10.666666666666668</ele><time>2026-04-22T10:28:37Z</time></trkpt><trkpt lat="43.805774240695634" lon="7.59311677760912"><ele>11.333333333333334</ele><time>2026-04-22T10:28:38Z</time></trkpt><trkpt lat="43.805934943090975" lon="7.593273081421242"><ele>12.0</ele><time>2026-04-22T10:28:39Z</time></trkpt><trkpt lat="43.80607151436441" lon="7.593403182952659"><ele>13.0</ele><time>2026-04-22T10:28:40Z</time></trkpt><trkpt lat="43.80618429252853" lon="7.593510613351851"><ele>14.0</ele><time>2026-04-22T10:28:41Z</time></trkpt><trkpt lat="43.80628872118319" lon="7.593609284696116"><ele>15.0</ele><time>2026-04-22T10:28:42Z</time></trkpt><trkpt lat="43.80637922865315" lon="7.593693816302576"><ele>16.0</ele><time>2026-04-22T10:28:43Z</time></trkpt><trkpt lat="43.80645206287332" lon="7.593774268552127"><ele>16.333333333333332</ele><time>2026-04-22T10:28:44Z</time></trkpt><trkpt lat="43.80653806555254" lon="7.593853953410773"><ele>16.666666666666664</ele><time>2026-04-22T10:28:45Z</time></trkpt><trkpt lat="43.806607124899045" lon="7.593918936527858"><ele>17.0</ele><time>2026-04-22T10:28:46Z</time></trkpt><trkpt lat="43.80667297006774" lon="7.593980107541167"><ele>17.333333333333332</ele><time>2026-04-22T10:28:47Z</time></trkpt><trkpt lat="43.80673023958867" lon="7.594045043521493"><ele>17.666666666666668</ele><time>2026-04-22T10:28:48Z</time></trkpt><trkpt lat="43.80677628076395" lon="7.594126222035419"><ele>18.0</ele><time>2026-04-22T10:28:49Z</time></trkpt><trkpt lat="43.80680882942241" lon="7.5942212550585175"><ele>18.0</ele><time>2026-04-22T10:28:50Z</time></trkpt><trkpt lat="43.806822304400995" lon="7.594327973152332"><ele>18.0</ele><time>2026-04-22T10:28:51Z</time></trkpt><trkpt lat="43.80681880503497" lon="7.594443730199575"><ele>18.0</ele><time>2026-04-22T10:28:52Z</time></trkpt><trkpt lat="43.80680314259498" lon="7.594541023413536"><ele>18.0</ele><time>2026-04-22T10:28:53Z</time></trkpt><trkpt lat="43.806750582135116" lon="7.5946726085041005"><ele>18.0</ele><time>2026-04-22T10:28:55Z</time></trkpt><trkpt lat="43.80670249948443" lon="7.594737001649456"><ele>18.0</ele><time>2026-04-22T10:28:56Z</time></trkpt><trkpt lat="43.806641072287036" lon="7.594805923547238"><ele>18.4</ele><time>2026-04-22T10:28:57Z</time></trkpt><trkpt lat="43.80655367811507" lon="7.594868232038897"><ele>18.8</ele><time>2026-04-22T10:28:58Z</time></trkpt><trkpt lat="43.80647010411701" lon="7.594973618812381"><ele>19.2</ele><time>2026-04-22T10:28:59Z</time></trkpt><trkpt lat="43.8063760477016" lon="7.595054881518598"><ele>19.6</ele><time>2026-04-22T10:29:00Z</time></trkpt><trkpt lat="43.8062939187583" lon="7.595129000036534"><ele>20.0</ele><time>2026-04-22T10:29:01Z</time></trkpt><trkpt lat="43.80621010726744" lon="7.595207029536857"><ele>20.0</ele><time>2026-04-22T10:29:02Z</time></trkpt><trkpt lat="43.80612777777653" lon="7.59529647651707"><ele>20.0</ele><time>2026-04-22T10:29:03Z</time></trkpt><trkpt lat="43.806039964127315" lon="7.595384415098725"><ele>20.0</ele><time>2026-04-22T10:29:04Z</time></trkpt><trkpt lat="43.805953198135704" lon="7.595471911116352"><ele>20.0</ele><time>2026-04-22T10:29:05Z</time></trkpt><trkpt lat="43.805870718298564" lon="7.59555314878651"><ele>20.0</ele><time>2026-04-22T10:29:06Z</time></trkpt><trkpt lat="43.80579311615283" lon="7.595616195550819"><ele>19.833333333333336</ele><time>2026-04-22T10:29:07Z</time></trkpt><trkpt lat="43.80572531949654" lon="7.595684636992412"><ele>19.666666666666668</ele><time>2026-04-22T10:29:08Z</time></trkpt><trkpt lat="43.80565632311961" lon="7.595750472370717"><ele>19.5</ele><time>2026-04-22T10:29:09Z</time></trkpt><trkpt lat="43.805581356370055" lon="7.595820637105276"><ele>19.333333333333332</ele><time>2026-04-22T10:29:10Z</time></trkpt><trkpt lat="43.805511301511594" lon="7.595887482990103"><ele>19.166666666666664</ele><time>2026-04-22T10:29:11Z</time></trkpt><trkpt lat="43.80544193289758" lon="7.595959266162661"><ele>19.0</ele><time>2026-04-22T10:29:12Z</time></trkpt><trkpt lat="43.80537126001644" lon="7.596032099705958"><ele>19.0</ele><time>2026-04-22T10:29:13Z</time></trkpt><trkpt lat="43.80529616192476" lon="7.596099396271388"><ele>19.0</ele><time>2026-04-22T10:29:14Z</time></trkpt><trkpt lat="43.805228281486116" lon="7.596167546787732"><ele>19.0</ele><time>2026-04-22T10:29:15Z</time></trkpt><trkpt lat="43.80516697988787" lon="7.596222132548711"><ele>19.0</ele><time>2026-04-22T10:29:16Z</time></trkpt><trkpt lat="43.80510846076546" lon="7.596277266428441"><ele>19.0</ele><time>2026-04-22T10:29:17Z</time></trkpt><trkpt lat="43.8050573369376" lon="7.596329724533613"><ele>19.0</ele><time>2026-04-22T10:29:18Z</time></trkpt><trkpt lat="43.80500205472573" lon="7.596374682915652"><ele>19.0</ele><time>2026-04-22T10:29:19Z</time></trkpt><trkpt lat="43.80495263042672" lon="7.5964329996605855"><ele>18.5</ele><time>2026-04-22T10:29:20Z</time></trkpt><trkpt lat="43.804880290478735" lon="7.596474494606206"><ele>18.0</ele><time>2026-04-22T10:29:21Z</time></trkpt><trkpt lat="43.80480643641341" lon="7.596541257689369"><ele>17.5</ele><time>2026-04-22T10:29:22Z</time></trkpt><trkpt lat="43.80472951450443" lon="7.5966107935614575"><ele>17.0</ele><time>2026-04-22T10:29:23Z</time></trkpt><trkpt lat="43.804659014202116" lon="7.596677730732678"><ele>16.5</ele><time>2026-04-22T10:29:24Z</time></trkpt><trkpt lat="43.804601852140394" lon="7.5967580462340125"><ele>16.0</ele><time>2026-04-22T10:29:25Z</time></trkpt><trkpt lat="43.80452930754239" lon="7.596801176384498"><ele>16.0</ele><time>2026-04-22T10:29:26Z</time></trkpt><trkpt lat="43.80447400388593" lon="7.596854507717967"><ele>16.0</ele><time>2026-04-22T10:29:27Z</time></trkpt><trkpt lat="43.80440772927363" lon="7.596944723494769"><ele>16.0</ele><time>2026-04-22T10:29:29Z</time></trkpt><trkpt lat="43.80434270705883" lon="7.597003638449278"><ele>16.0</ele><time>2026-04-22T10:29:33Z</time></trkpt><trkpt lat="43.80427777461046" lon="7.597061175992174"><ele>16.0</ele><time>2026-04-22T10:29:47.999Z</time></trkpt><trkpt lat="43.804164050050204" lon="7.597173972009045"><ele>16.166666666666664</ele><time>2026-04-22T10:29:49.999Z</time></trkpt><trkpt lat="43.804095047964005" lon="7.597238370619609"><ele>16.333333333333332</ele><time>2026-04-22T10:29:50.999Z</time></trkpt><trkpt lat="43.80403108320901" lon="7.5972986737728645"><ele>16.5</ele><time>2026-04-22T10:29:51.999Z</time></trkpt><trkpt lat="43.80396321396494" lon="7.597366093309898"><ele>16.666666666666668</ele><time>2026-04-22T10:29:52.999Z</time></trkpt><trkpt lat="43.8038941377396" lon="7.5974444051021965"><ele>16.833333333333336</ele><time>2026-04-22T10:29:53.999Z</time></trkpt><trkpt lat="43.80381063348503" lon="7.597497613092759"><ele>17.0</ele><time>2026-04-22T10:29:54.999Z</time></trkpt><trkpt lat="43.80373559370312" lon="7.597567754742647"><ele>17.0</ele><time>2026-04-22T10:29:55.999Z</time></trkpt><trkpt lat="43.80365079225949" lon="7.597646611787936"><ele>17.0</ele><time>2026-04-22T10:29:56.999Z</time></trkpt><trkpt lat="43.80356722809054" lon="7.597720784714299"><ele>17.0</ele><time>2026-04-22T10:29:57.999Z</time></trkpt><trkpt lat="43.803486355015" lon="7.597783578937897"><ele>17.0</ele><time>2026-04-22T10:29:58.999Z</time></trkpt><trkpt lat="43.80340886540212" lon="7.597833369504779"><ele>17.0</ele><time>2026-04-22T10:29:59.999Z</time></trkpt><trkpt lat="43.803323919835705" lon="7.597873030348429"><ele>17.0</ele><time>2026-04-22T10:30:00.999Z</time></trkpt><trkpt lat="43.80323702294189" lon="7.597907801762884"><ele>17.0</ele><time>2026-04-22T10:30:01.999Z</time></trkpt><trkpt lat="43.803162553330175" lon="7.5979506319015"><ele>17.0</ele><time>2026-04-22T10:30:02.999Z</time></trkpt><trkpt lat="43.80306838691637" lon="7.597973567275146"><ele>17.0</ele><time>2026-04-22T10:30:03.999Z</time></trkpt><trkpt lat="43.802988910794234" lon="7.597982414721339"><ele>17.0</ele><time>2026-04-22T10:30:04.999Z</time></trkpt><trkpt lat="43.802909488174386" lon="7.59801030446094"><ele>17.0</ele><time>2026-04-22T10:30:05.999Z</time></trkpt><trkpt lat="43.80282347629013" lon="7.598041192633912"><ele>17.0</ele><time>2026-04-22T10:30:06.999Z</time></trkpt><trkpt lat="43.80272585189647" lon="7.598074070019678"><ele>17.0</ele><time>2026-04-22T10:30:07.999Z</time></trkpt><trkpt lat="43.802636857653305" lon="7.598106517751286"><ele>17.0</ele><time>2026-04-22T10:30:08.999Z</time></trkpt><trkpt lat="43.80255445618775" lon="7.59813067237197"><ele>17.0</ele><time>2026-04-22T10:30:09.999Z</time></trkpt><trkpt lat="43.80247989375149" lon="7.598154879565807"><ele>17.0</ele><time>2026-04-22T10:30:10.999Z</time></trkpt><trkpt lat="43.80241119817964" lon="7.598190964132733"><ele>17.0</ele><time>2026-04-22T10:30:11.999Z</time></trkpt><trkpt lat="43.80234639733489" lon="7.598231579868438"><ele>16.857142857142854</ele><time>2026-04-22T10:30:12.999Z</time></trkpt><trkpt lat="43.802285535890675" lon="7.598278278098182"><ele>16.714285714285715</ele><time>2026-04-22T10:30:13.999Z</time></trkpt><trkpt lat="43.80222234802979" lon="7.598334656859136"><ele>16.57142857142857</ele><time>2026-04-22T10:30:14.999Z</time></trkpt><trkpt lat="43.80216196874164" lon="7.5983903408574935"><ele>16.428571428571427</ele><time>2026-04-22T10:30:15.999Z</time></trkpt><trkpt lat="43.80210445655371" lon="7.5984540948439"><ele>16.285714285714285</ele><time>2026-04-22T10:30:16.999Z</time></trkpt><trkpt lat="43.802043038612034" lon="7.598519557075858"><ele>16.142857142857142</ele><time>2026-04-22T10:30:17.999Z</time></trkpt><trkpt lat="43.801978825022566" lon="7.598587009528898"><ele>16.0</ele><time>2026-04-22T10:30:18.999Z</time></trkpt><trkpt lat="43.801908454841275" lon="7.598660035929567"><ele>16.0</ele><time>2026-04-22T10:30:19.999Z</time></trkpt><trkpt lat="43.801830808403636" lon="7.598744140663673"><ele>16.0</ele><time>2026-04-22T10:30:20.999Z</time></trkpt><trkpt lat="43.80175058143918" lon="7.59882850268488"><ele>16.0</ele><time>2026-04-22T10:30:21.999Z</time></trkpt><trkpt lat="43.80167119842051" lon="7.5989158482976915"><ele>16.0</ele><time>2026-04-22T10:30:22.999Z</time></trkpt><trkpt lat="43.801594420018546" lon="7.599006576570856"><ele>16.0</ele><time>2026-04-22T10:30:23.999Z</time></trkpt><trkpt lat="43.801526807255705" lon="7.599090272598547"><ele>16.0</ele><time>2026-04-22T10:30:24.999Z</time></trkpt><trkpt lat="43.80144970266176" lon="7.59916543695394"><ele>16.0</ele><time>2026-04-22T10:30:25.999Z</time></trkpt><trkpt lat="43.80137183039405" lon="7.599242675402879"><ele>16.0</ele><time>2026-04-22T10:30:26.999Z</time></trkpt><trkpt lat="43.80129607492647" lon="7.599316479401461"><ele>16.0</ele><time>2026-04-22T10:30:27.999Z</time></trkpt><trkpt lat="43.801219660563085" lon="7.5993762066673165"><ele>16.0</ele><time>2026-04-22T10:30:28.999Z</time></trkpt><trkpt lat="43.801145685501176" lon="7.599443245674695"><ele>17.333333333333332</ele><time>2026-04-22T10:30:29.999Z</time></trkpt><trkpt lat="43.80107889074308" lon="7.599502582290589"><ele>18.666666666666664</ele><time>2026-04-22T10:30:30.999Z</time></trkpt><trkpt lat="43.80101218506041" lon="7.599560610091474"><ele>20.0</ele><time>2026-04-22T10:30:31.999Z</time></trkpt><trkpt lat="43.800949719627" lon="7.5996128636844045"><ele>21.333333333333332</ele><time>2026-04-22T10:30:33Z</time></trkpt><trkpt lat="43.8008839411853" lon="7.599663842596021"><ele>22.666666666666668</ele><time>2026-04-22T10:30:34Z</time></trkpt><trkpt lat="43.80081915955504" lon="7.599694707051573"><ele>24.0</ele><time>2026-04-22T10:30:35Z</time></trkpt><trkpt lat="43.800732870295775" lon="7.599763549054427"><ele>24.0</ele><time>2026-04-22T10:30:37Z</time></trkpt><trkpt lat="43.80066535303445" lon="7.599671700376819"><ele>24.0</ele><time>2026-04-22T10:30:38Z</time></trkpt><trkpt lat="43.80058074065584" lon="7.599552842583308"><ele>24.0</ele><time>2026-04-22T10:30:40Z</time></trkpt><trkpt lat="43.80054709059754" lon="7.599445630130092"><ele>24.0</ele><time>2026-04-22T10:30:41Z</time></trkpt><trkpt lat="43.80050997169045" lon="7.599323303197132"><ele>24.0</ele><time>2026-04-22T10:30:42Z</time></trkpt><trkpt lat="43.80047711328411" lon="7.59921385043043"><ele>21.833333333333332</ele><time>2026-04-22T10:30:43Z</time></trkpt><trkpt lat="43.800445522665136" lon="7.599106713314402"><ele>19.666666666666668</ele><time>2026-04-22T10:30:44Z</time></trkpt><trkpt lat="43.80041654894532" lon="7.599001694589494"><ele>17.5</ele><time>2026-04-22T10:30:45Z</time></trkpt><trkpt lat="43.80039201040402" lon="7.598901562599138"><ele>15.333333333333332</ele><time>2026-04-22T10:30:46Z</time></trkpt><trkpt lat="43.800366409688436" lon="7.598802598554947"><ele>13.166666666666666</ele><time>2026-04-22T10:30:47Z</time></trkpt><trkpt lat="43.80026561399892" lon="7.598736781050688"><ele>11.0</ele><time>2026-04-22T10:30:48Z</time></trkpt><trkpt lat="43.8001870705141" lon="7.598682066040307"><ele>10.8</ele><time>2026-04-22T10:30:49Z</time></trkpt><trkpt lat="43.80009903791892" lon="7.598662824121335"><ele>10.600000000000001</ele><time>2026-04-22T10:30:50Z</time></trkpt><trkpt lat="43.80002177821446" lon="7.598671281650534"><ele>10.4</ele><time>2026-04-22T10:30:51Z</time></trkpt><trkpt lat="43.79992762607113" lon="7.598698030705003"><ele>10.2</ele><time>2026-04-22T10:30:52Z</time></trkpt><trkpt lat="43.799844197881605" lon="7.598745361951798"><ele>10.0</ele><time>2026-04-22T10:30:53Z</time></trkpt><trkpt lat="43.7997590574687" lon="7.598840497123097"><ele>10.25</ele><time>2026-04-22T10:30:54Z</time></trkpt><trkpt lat="43.799664960814894" lon="7.59894433577747"><ele>10.5</ele><time>2026-04-22T10:30:55Z</time></trkpt><trkpt lat="43.799546106731775" lon="7.5990630307551"><ele>10.75</ele><time>2026-04-22T10:30:56Z</time></trkpt><trkpt lat="43.79941317151655" lon="7.5992018992508426"><ele>11.0</ele><time>2026-04-22T10:30:57Z</time></trkpt><trkpt lat="43.79929325039638" lon="7.599319115748245"><ele>11.0</ele><time>2026-04-22T10:30:58Z</time></trkpt><trkpt lat="43.79916160772039" lon="7.599443237911857"><ele>11.0</ele><time>2026-04-22T10:30:59Z</time></trkpt><trkpt lat="43.799015139315735" lon="7.599592043317096"><ele>11.0</ele><time>2026-04-22T10:31:00Z</time></trkpt><trkpt lat="43.79885506804242" lon="7.599751667074688"><ele>10.333333333333332</ele><time>2026-04-22T10:31:01Z</time></trkpt><trkpt lat="43.798685539617296" lon="7.599926773256702"><ele>9.666666666666666</ele><time>2026-04-22T10:31:02Z</time></trkpt><trkpt lat="43.798529272323826" lon="7.600089612926596"><ele>9.0</ele><time>2026-04-22T10:31:03Z</time></trkpt><trkpt lat="43.798369305368404" lon="7.600250977953618"><ele>10.0</ele><time>2026-04-22T10:31:04Z</time></trkpt><trkpt lat="43.79819970316935" lon="7.600419343997725"><ele>11.0</ele><time>2026-04-22T10:31:05Z</time></trkpt><trkpt lat="43.798018313303345" lon="7.600595119605955"><ele>12.0</ele><time>2026-04-22T10:31:06Z</time></trkpt><trkpt lat="43.79782786742156" lon="7.600776361803335"><ele>9.5</ele><time>2026-04-22T10:31:07Z</time></trkpt><trkpt lat="43.79762142652411" lon="7.60095845216492"><ele>7.0</ele><time>2026-04-22T10:31:08Z</time></trkpt><trkpt lat="43.7974282063712" lon="7.60112602732476"><ele>8.333333333333334</ele><time>2026-04-22T10:31:09Z</time></trkpt><trkpt lat="43.79724586200641" lon="7.6012874910638"><ele>9.666666666666666</ele><time>2026-04-22T10:31:10Z</time></trkpt><trkpt lat="43.79707245380801" lon="7.60144113034271"><ele>11.0</ele><time>2026-04-22T10:31:11Z</time></trkpt><trkpt lat="43.79690640578437" lon="7.601589758415863"><ele>10.0</ele><time>2026-04-22T10:31:12Z</time></trkpt><trkpt lat="43.79674623072599" lon="7.601732621624593"><ele>9.0</ele><time>2026-04-22T10:31:13Z</time></trkpt><trkpt lat="43.79659258326406" lon="7.601867117702421"><ele>8.0</ele><time>2026-04-22T10:31:14Z</time></trkpt><trkpt lat="43.79644437254991" lon="7.601995713811224"><ele>10.0</ele><time>2026-04-22T10:31:15Z</time></trkpt><trkpt lat="43.79630186811262" lon="7.6021229343941945"><ele>12.0</ele><time>2026-04-22T10:31:16Z</time></trkpt><trkpt lat="43.79616234794035" lon="7.602248814981512"><ele>14.0</ele><time>2026-04-22T10:31:17Z</time></trkpt><trkpt lat="43.796022912243195" lon="7.602374575968507"><ele>12.333333333333334</ele><time>2026-04-22T10:31:18Z</time></trkpt><trkpt lat="43.79588333245014" lon="7.6024980245648255"><ele>10.666666666666668</ele><time>2026-04-22T10:31:19Z</time></trkpt><trkpt lat="43.79574446753677" lon="7.602623113502849"><ele>9.0</ele><time>2026-04-22T10:31:20Z</time></trkpt><trkpt lat="43.79561083715629" lon="7.602741379179447"><ele>10.666666666666668</ele><time>2026-04-22T10:31:21Z</time></trkpt><trkpt lat="43.795474848472495" lon="7.602861159870974"><ele>12.333333333333334</ele><time>2026-04-22T10:31:22Z</time></trkpt><trkpt lat="43.795336646843204" lon="7.602981753147373"><ele>14.0</ele><time>2026-04-22T10:31:23Z</time></trkpt><trkpt lat="43.79519893565206" lon="7.60309988618503"><ele>13.0</ele><time>2026-04-22T10:31:24Z</time></trkpt><trkpt lat="43.79506613168345" lon="7.603217040324712"><ele>12.0</ele><time>2026-04-22T10:31:25Z</time></trkpt><trkpt lat="43.79494161151188" lon="7.60332916002048"><ele>11.0</ele><time>2026-04-22T10:31:26Z</time></trkpt><trkpt lat="43.794817179056515" lon="7.603440924723384"><ele>11.0</ele><time>2026-04-22T10:31:27Z</time></trkpt><trkpt lat="43.79469536839717" lon="7.60354668909939"><ele>11.0</ele><time>2026-04-22T10:31:28Z</time></trkpt><trkpt lat="43.794572652956184" lon="7.603653520689466"><ele>11.0</ele><time>2026-04-22T10:31:29Z</time></trkpt><trkpt lat="43.79445087663659" lon="7.603759210897214"><ele>11.0</ele><time>2026-04-22T10:31:30Z</time></trkpt><trkpt lat="43.79432949405783" lon="7.60386445308342"><ele>10.5</ele><time>2026-04-22T10:31:31Z</time></trkpt><trkpt lat="43.794213663253814" lon="7.603968268416737"><ele>10.0</ele><time>2026-04-22T10:31:32Z</time></trkpt><trkpt lat="43.79409880080873" lon="7.604071320414492"><ele>9.5</ele><time>2026-04-22T10:31:33Z</time></trkpt><trkpt lat="43.79398521337533" lon="7.604169430478085"><ele>9.0</ele><time>2026-04-22T10:31:34Z</time></trkpt><trkpt lat="43.79387600602362" lon="7.604265915869009"><ele>9.0</ele><time>2026-04-22T10:31:35Z</time></trkpt><trkpt lat="43.79376809506559" lon="7.604362529524836"><ele>9.0</ele><time>2026-04-22T10:31:36Z</time></trkpt><trkpt lat="43.79366164301808" lon="7.604455745575416"><ele>9.0</ele><time>2026-04-22T10:31:37Z</time></trkpt><trkpt lat="43.79356114387059" lon="7.604543821002817"><ele>9.0</ele><time>2026-04-22T10:31:38Z</time></trkpt><trkpt lat="43.79347001900692" lon="7.6046190899527915"><ele>9.5</ele><time>2026-04-22T10:31:39Z</time></trkpt><trkpt lat="43.793392218005515" lon="7.60468669550328"><ele>10.0</ele><time>2026-04-22T10:31:40Z</time></trkpt><trkpt lat="43.7933242542498" lon="7.604742058642455"><ele>10.5</ele><time>2026-04-22T10:31:41Z</time></trkpt><trkpt lat="43.79325643645218" lon="7.604773523967123"><ele>11.0</ele><time>2026-04-22T10:31:41.999Z</time></trkpt><trkpt lat="43.793184465391946" lon="7.604768169565035"><ele>11.5</ele><time>2026-04-22T10:31:42.999Z</time></trkpt><trkpt lat="43.7931174882207" lon="7.604740442657165"><ele>12.0</ele><time>2026-04-22T10:31:43.999Z</time></trkpt><trkpt lat="43.793053746777026" lon="7.604665176177324"><ele>12.0</ele><time>2026-04-22T10:31:44.999Z</time></trkpt><trkpt lat="43.79300509501628" lon="7.604574088271929"><ele>12.0</ele><time>2026-04-22T10:31:45.999Z</time></trkpt><trkpt lat="43.792972174662076" lon="7.6044942333864585"><ele>12.0</ele><time>2026-04-22T10:31:46.999Z</time></trkpt><trkpt lat="43.79290602510067" lon="7.604368545220606"><ele>12.0</ele><time>2026-04-22T10:31:48.999Z</time></trkpt><trkpt lat="43.79284604177181" lon="7.604249606879161"><ele>12.0</ele><time>2026-04-22T10:31:50.999Z</time></trkpt><trkpt lat="43.79278356377895" lon="7.604130258468456"><ele>11.5</ele><time>2026-04-22T10:31:52.999Z</time></trkpt><trkpt lat="43.79274385184695" lon="7.604054901803084"><ele>11.0</ele><time>2026-04-22T10:31:53.999Z</time></trkpt><trkpt lat="43.79270125474585" lon="7.603980841747167"><ele>10.5</ele><time>2026-04-22T10:31:54.999Z</time></trkpt><trkpt lat="43.79264757005857" lon="7.603889619279931"><ele>10.0</ele><time>2026-04-22T10:31:55.999Z</time></trkpt><trkpt lat="43.792581223668975" lon="7.6037753522786335"><ele>9.5</ele><time>2026-04-22T10:31:56.999Z</time></trkpt><trkpt lat="43.79252526440893" lon="7.603665573614823"><ele>9.0</ele><time>2026-04-22T10:31:57.999Z</time></trkpt><trkpt lat="43.79247645260539" lon="7.6035758893965975"><ele>9.0</ele><time>2026-04-22T10:31:58.999Z</time></trkpt><trkpt lat="43.792418948787265" lon="7.603517668095587"><ele>9.0</ele><time>2026-04-22T10:31:59.999Z</time></trkpt><trkpt lat="43.79235389174757" lon="7.60350451928145"><ele>9.0</ele><time>2026-04-22T10:32:00.999Z</time></trkpt><trkpt lat="43.79224719000252" lon="7.603583243623355"><ele>9.0</ele><time>2026-04-22T10:32:02.999Z</time></trkpt><trkpt lat="43.792156762466696" lon="7.603634523219548"><ele>9.0</ele><time>2026-04-22T10:32:04.999Z</time></trkpt><trkpt lat="43.79207035068186" lon="7.603638071676002"><ele>9.0</ele><time>2026-04-22T10:32:06.999Z</time></trkpt><trkpt lat="43.79201740806561" lon="7.603583448388344"><ele>9.0</ele><time>2026-04-22T10:32:08.999Z</time></trkpt><trkpt lat="43.79195732153689" lon="7.603518682723125"><ele>9.0</ele><time>2026-04-22T10:32:10.999Z</time></trkpt><trkpt lat="43.7918903130507" lon="7.603419055096835"><ele>9.0</ele><time>2026-04-22T10:32:12.999Z</time></trkpt><trkpt lat="43.791825479149956" lon="7.603437892130568"><ele>9.0</ele><time>2026-04-22T10:32:28.999Z</time></trkpt><trkpt lat="43.7917727896892" lon="7.603328303718735"><ele>9.0</ele><time>2026-04-22T10:32:29.999Z</time></trkpt><trkpt lat="43.79170270126781" lon="7.603308493532943"><ele>9.0</ele><time>2026-04-22T10:32:30.999Z</time></trkpt><trkpt lat="43.79161514078065" lon="7.6033398955027875"><ele>9.2</ele><time>2026-04-22T10:32:31.999Z</time></trkpt><trkpt lat="43.79152507569196" lon="7.603409025649394"><ele>9.4</ele><time>2026-04-22T10:32:32.999Z</time></trkpt><trkpt lat="43.791451629879965" lon="7.603483094806106"><ele>9.6</ele><time>2026-04-22T10:32:33.999Z</time></trkpt><trkpt lat="43.79137535939412" lon="7.603562412580152"><ele>9.8</ele><time>2026-04-22T10:32:34.999Z</time></trkpt><trkpt lat="43.79128200143087" lon="7.6036478170147"><ele>10.0</ele><time>2026-04-22T10:32:35.999Z</time></trkpt><trkpt lat="43.79117482823084" lon="7.603731257246544"><ele>10.0</ele><time>2026-04-22T10:32:36.999Z</time></trkpt><trkpt lat="43.79107657592931" lon="7.6038116528104265"><ele>10.0</ele><time>2026-04-22T10:32:37.999Z</time></trkpt><trkpt lat="43.79098648064775" lon="7.603890248039486"><ele>10.0</ele><time>2026-04-22T10:32:39Z</time></trkpt><trkpt lat="43.79089771581553" lon="7.603968680609319"><ele>10.0</ele><time>2026-04-22T10:32:40Z</time></trkpt><trkpt lat="43.79079905056173" lon="7.604042642790266"><ele>10.0</ele><time>2026-04-22T10:32:41Z</time></trkpt><trkpt lat="43.79068752596207" lon="7.604125524125001"><ele>14.25</ele><time>2026-04-22T10:32:42Z</time></trkpt><trkpt lat="43.790565455450626" lon="7.604214651396342"><ele>18.5</ele><time>2026-04-22T10:32:43Z</time></trkpt><trkpt lat="43.79044119627641" lon="7.604293495611539"><ele>22.75</ele><time>2026-04-22T10:32:44Z</time></trkpt><trkpt lat="43.79031803540019" lon="7.604387322774397"><ele>27.0</ele><time>2026-04-22T10:32:45Z</time></trkpt><trkpt lat="43.7902178716008" lon="7.604458261237796"><ele>27.833333333333332</ele><time>2026-04-22T10:32:46Z</time></trkpt><trkpt lat="43.79012517846894" lon="7.604529960896217"><ele>28.666666666666664</ele><time>2026-04-22T10:32:47Z</time></trkpt><trkpt lat="43.79004096727859" lon="7.6045912907146676"><ele>29.5</ele><time>2026-04-22T10:32:48Z</time></trkpt><trkpt lat="43.78995927794588" lon="7.604579910372657"><ele>30.333333333333332</ele><time>2026-04-22T10:32:49Z</time></trkpt><trkpt lat="43.789889567016296" lon="7.604552626436104"><ele>31.166666666666664</ele><time>2026-04-22T10:32:50Z</time></trkpt><trkpt lat="43.78981548828247" lon="7.604500744967687"><ele>32.0</ele><time>2026-04-22T10:32:51Z</time></trkpt><trkpt lat="43.78975239748341" lon="7.604416158940913"><ele>32.0</ele><time>2026-04-22T10:32:52Z</time></trkpt><trkpt lat="43.78971174339132" lon="7.6043121247536085"><ele>32.0</ele><time>2026-04-22T10:32:53Z</time></trkpt><trkpt lat="43.7896761135395" lon="7.604206410010848"><ele>32.0</ele><time>2026-04-22T10:32:54Z</time></trkpt><trkpt lat="43.789686114568745" lon="7.604079031392103"><ele>32.0</ele><time>2026-04-22T10:32:55Z</time></trkpt><trkpt lat="43.78970945623641" lon="7.603937583788855"><ele>32.0</ele><time>2026-04-22T10:32:56Z</time></trkpt><trkpt lat="43.78974654559219" lon="7.603758084043765"><ele>33.5</ele><time>2026-04-22T10:32:57Z</time></trkpt><trkpt lat="43.78978611244588" lon="7.6035589596937205"><ele>35.0</ele><time>2026-04-22T10:32:58Z</time></trkpt><trkpt lat="43.789824987002355" lon="7.603372007220963"><ele>36.5</ele><time>2026-04-22T10:32:59Z</time></trkpt><trkpt lat="43.78985383615985" lon="7.60321154628061"><ele>38.0</ele><time>2026-04-22T10:33:00Z</time></trkpt><trkpt lat="43.78988121669982" lon="7.603061313696081"><ele>38.0</ele><time>2026-04-22T10:33:01Z</time></trkpt><trkpt lat="43.78990604272592" lon="7.602912659917638"><ele>38.0</ele><time>2026-04-22T10:33:02Z</time></trkpt><trkpt lat="43.78993773627769" lon="7.602763822112919"><ele>38.0</ele><time>2026-04-22T10:33:03Z</time></trkpt><trkpt lat="43.78998858551559" lon="7.602630847349611"><ele>38.0</ele><time>2026-04-22T10:33:04Z</time></trkpt><trkpt lat="43.7900541028975" lon="7.602508891470432"><ele>38.0</ele><time>2026-04-22T10:33:05Z</time></trkpt><trkpt lat="43.79012259720803" lon="7.602412279841334"><ele>42.0</ele><time>2026-04-22T10:33:06Z</time></trkpt><trkpt lat="43.7902077509569" lon="7.602329462632203"><ele>46.0</ele><time>2026-04-22T10:33:07Z</time></trkpt><trkpt lat="43.79031098547712" lon="7.602242730999837"><ele>50.0</ele><time>2026-04-22T10:33:08Z</time></trkpt><trkpt lat="43.79041723789214" lon="7.602132185312642"><ele>54.0</ele><time>2026-04-22T10:33:09Z</time></trkpt><trkpt lat="43.79051346578101" lon="7.601998833027318"><ele>51.0</ele><time>2026-04-22T10:33:10Z</time></trkpt><trkpt lat="43.79060132651674" lon="7.601846318229015"><ele>48.0</ele><time>2026-04-22T10:33:11Z</time></trkpt><trkpt lat="43.7906902815812" lon="7.601668747121854"><ele>45.0</ele><time>2026-04-22T10:33:12Z</time></trkpt><trkpt lat="43.790780979829044" lon="7.601468745433205"><ele>45.0</ele><time>2026-04-22T10:33:13Z</time></trkpt><trkpt lat="43.79087885451626" lon="7.601253214591958"><ele>45.0</ele><time>2026-04-22T10:33:14Z</time></trkpt><trkpt lat="43.79097804400848" lon="7.601044531932214"><ele>45.0</ele><time>2026-04-22T10:33:15Z</time></trkpt><trkpt lat="43.79107573277237" lon="7.600840309582291"><ele>49.0</ele><time>2026-04-22T10:33:16Z</time></trkpt><trkpt lat="43.791162736980596" lon="7.600657536711956"><ele>53.0</ele><time>2026-04-22T10:33:17Z</time></trkpt><trkpt lat="43.79124023077571" lon="7.600483626390184"><ele>57.0</ele><time>2026-04-22T10:33:18Z</time></trkpt><trkpt lat="43.79131608106236" lon="7.600301899624896"><ele>57.0</ele><time>2026-04-22T10:33:19Z</time></trkpt><trkpt lat="43.79139723448388" lon="7.600119589831597"><ele>57.0</ele><time>2026-04-22T10:33:20Z</time></trkpt><trkpt lat="43.79147380449081" lon="7.59994252226141"><ele>57.0</ele><time>2026-04-22T10:33:21Z</time></trkpt><trkpt lat="43.7915446246388" lon="7.599792723571057"><ele>57.0</ele><time>2026-04-22T10:33:22Z</time></trkpt><trkpt lat="43.79160843922161" lon="7.599645976437158"><ele>57.0</ele><time>2026-04-22T10:33:23Z</time></trkpt><trkpt lat="43.79165523255372" lon="7.599508399920164"><ele>57.0</ele><time>2026-04-22T10:33:24Z</time></trkpt><trkpt lat="43.791679108674046" lon="7.599359125405011"><ele>57.0</ele><time>2026-04-22T10:33:25Z</time></trkpt><trkpt lat="43.79167605882728" lon="7.599200503453322"><ele>57.0</ele><time>2026-04-22T10:33:26Z</time></trkpt><trkpt lat="43.79165140175278" lon="7.599061791178423"><ele>57.0</ele><time>2026-04-22T10:33:27Z</time></trkpt><trkpt lat="43.7915852266766" lon="7.598946351095921"><ele>57.0</ele><time>2026-04-22T10:33:28Z</time></trkpt><trkpt lat="43.791514129643566" lon="7.598804575628286"><ele>57.0</ele><time>2026-04-22T10:33:29Z</time></trkpt><trkpt lat="43.79142025726514" lon="7.598647311212599"><ele>57.0</ele><time>2026-04-22T10:33:30Z</time></trkpt><trkpt lat="43.791314125017074" lon="7.598470229339286"><ele>57.0</ele><time>2026-04-22T10:33:31Z</time></trkpt><trkpt lat="43.79121631231978" lon="7.598279203509343"><ele>56.25</ele><time>2026-04-22T10:33:32Z</time></trkpt><trkpt lat="43.79113599206567" lon="7.598097228898796"><ele>55.5</ele><time>2026-04-22T10:33:33Z</time></trkpt><trkpt lat="43.79106683794013" lon="7.59791516801379"><ele>54.75</ele><time>2026-04-22T10:33:34Z</time></trkpt><trkpt lat="43.790998761862944" lon="7.597737162431031"><ele>54.0</ele><time>2026-04-22T10:33:35Z</time></trkpt><trkpt lat="43.790928936986774" lon="7.597566191888469"><ele>54.0</ele><time>2026-04-22T10:33:36Z</time></trkpt><trkpt lat="43.79086500986141" lon="7.597410220373829"><ele>54.0</ele><time>2026-04-22T10:33:37Z</time></trkpt><trkpt lat="43.79081198706304" lon="7.597257715127148"><ele>54.0</ele><time>2026-04-22T10:33:38Z</time></trkpt><trkpt lat="43.790770515553" lon="7.597101304086879"><ele>54.0</ele><time>2026-04-22T10:33:39Z</time></trkpt><trkpt lat="43.79073880223575" lon="7.596930984145518"><ele>57.5</ele><time>2026-04-22T10:33:40Z</time></trkpt><trkpt lat="43.790712158279526" lon="7.596742415816985"><ele>61.0</ele><time>2026-04-22T10:33:41Z</time></trkpt><trkpt lat="43.79069128478288" lon="7.5965460118348895"><ele>64.5</ele><time>2026-04-22T10:33:42Z</time></trkpt><trkpt lat="43.79067520005076" lon="7.596347647661539"><ele>68.0</ele><time>2026-04-22T10:33:42.999Z</time></trkpt><trkpt lat="43.790669845661554" lon="7.596153820070114"><ele>69.25</ele><time>2026-04-22T10:33:43.999Z</time></trkpt><trkpt lat="43.79067154689239" lon="7.595959131178761"><ele>70.5</ele><time>2026-04-22T10:33:44.999Z</time></trkpt><trkpt lat="43.790665999180455" lon="7.595751603470302"><ele>71.75</ele><time>2026-04-22T10:33:45.999Z</time></trkpt><trkpt lat="43.79066832785223" lon="7.595573517136195"><ele>73.0</ele><time>2026-04-22T10:33:46.999Z</time></trkpt><trkpt lat="43.79068714260662" lon="7.595395686143135"><ele>71.25</ele><time>2026-04-22T10:33:47.999Z</time></trkpt><trkpt lat="43.79071670967465" lon="7.5952292407472095"><ele>69.5</ele><time>2026-04-22T10:33:48.999Z</time></trkpt><trkpt lat="43.790764272271915" lon="7.595086915693241"><ele>67.75</ele><time>2026-04-22T10:33:49.999Z</time></trkpt><trkpt lat="43.790818849770645" lon="7.594968631569908"><ele>66.0</ele><time>2026-04-22T10:33:50.999Z</time></trkpt><trkpt lat="43.7908954486038" lon="7.594856675118428"><ele>66.0</ele><time>2026-04-22T10:33:51.999Z</time></trkpt><trkpt lat="43.79099366775526" lon="7.594741811222206"><ele>66.0</ele><time>2026-04-22T10:33:52.999Z</time></trkpt><trkpt lat="43.79109062726072" lon="7.59460671243999"><ele>66.0</ele><time>2026-04-22T10:33:53.999Z</time></trkpt><trkpt lat="43.79119061583795" lon="7.594464430405772"><ele>66.0</ele><time>2026-04-22T10:33:54.999Z</time></trkpt><trkpt lat="43.79129746012836" lon="7.594316901894722"><ele>72.25</ele><time>2026-04-22T10:33:55.999Z</time></trkpt><trkpt lat="43.79140210878064" lon="7.594173046643664"><ele>78.5</ele><time>2026-04-22T10:33:56.999Z</time></trkpt><trkpt lat="43.791493754586256" lon="7.594040183846941"><ele>84.75</ele><time>2026-04-22T10:33:57.999Z</time></trkpt><trkpt lat="43.791575175560766" lon="7.593906898776243"><ele>91.0</ele><time>2026-04-22T10:33:58.999Z</time></trkpt><trkpt lat="43.791642556701554" lon="7.593766099847242"><ele>95.25</ele><time>2026-04-22T10:33:59.999Z</time></trkpt><trkpt lat="43.79170407525274" lon="7.593610829963258"><ele>99.5</ele><time>2026-04-22T10:34:00.999Z</time></trkpt><trkpt lat="43.791776136067114" lon="7.593461052217869"><ele>103.75</ele><time>2026-04-22T10:34:01.999Z</time></trkpt><trkpt lat="43.791854968424616" lon="7.593318444098091"><ele>108.0</ele><time>2026-04-22T10:34:02.999Z</time></trkpt><trkpt lat="43.79194363278181" lon="7.593171695233385"><ele>108.0</ele><time>2026-04-22T10:34:03.999Z</time></trkpt><trkpt lat="43.792043027664896" lon="7.593022987663241"><ele>108.0</ele><time>2026-04-22T10:34:04.999Z</time></trkpt><trkpt lat="43.792146840948746" lon="7.5929002581709835"><ele>108.0</ele><time>2026-04-22T10:34:05.999Z</time></trkpt><trkpt lat="43.792244605010914" lon="7.592782013916314"><ele>108.0</ele><time>2026-04-22T10:34:06.999Z</time></trkpt><trkpt lat="43.79226680085996" lon="7.5926304070395485"><ele>102.0</ele><time>2026-04-22T10:34:07.999Z</time></trkpt><trkpt lat="43.792300388761554" lon="7.592490388425497"><ele>96.0</ele><time>2026-04-22T10:34:08.999Z</time></trkpt><trkpt lat="43.79232755641484" lon="7.592327064852631"><ele>90.0</ele><time>2026-04-22T10:34:09.999Z</time></trkpt><trkpt lat="43.79234282943182" lon="7.5921461150868685"><ele>84.0</ele><time>2026-04-22T10:34:10.999Z</time></trkpt><trkpt lat="43.79236256696586" lon="7.591956178224515"><ele>81.5</ele><time>2026-04-22T10:34:11.999Z</time></trkpt><trkpt lat="43.79239051986433" lon="7.591764838976758"><ele>79.0</ele><time>2026-04-22T10:34:12.999Z</time></trkpt><trkpt lat="43.79241960469956" lon="7.5915761434318805"><ele>76.5</ele><time>2026-04-22T10:34:13.999Z</time></trkpt><trkpt lat="43.79245286981175" lon="7.591375743735686"><ele>74.0</ele><time>2026-04-22T10:34:14.999Z</time></trkpt><trkpt lat="43.7924976966673" lon="7.59118125100919"><ele>70.33333333333334</ele><time>2026-04-22T10:34:15.999Z</time></trkpt><trkpt lat="43.79253943144878" lon="7.590983523054124"><ele>66.66666666666667</ele><time>2026-04-22T10:34:16.999Z</time></trkpt><trkpt lat="43.79258539453752" lon="7.590781451915303"><ele>63.0</ele><time>2026-04-22T10:34:17.999Z</time></trkpt><trkpt lat="43.79262219207479" lon="7.590582006228577"><ele>63.0</ele><time>2026-04-22T10:34:18.999Z</time></trkpt><trkpt lat="43.792659166851294" lon="7.5903810396054885"><ele>63.0</ele><time>2026-04-22T10:34:19.999Z</time></trkpt><trkpt lat="43.79269568203353" lon="7.590172528529342"><ele>63.0</ele><time>2026-04-22T10:34:20.999Z</time></trkpt><trkpt lat="43.792731358293835" lon="7.589959125160859"><ele>74.0</ele><time>2026-04-22T10:34:21.999Z</time></trkpt><trkpt lat="43.79276386982752" lon="7.589750724606248"><ele>85.0</ele><time>2026-04-22T10:34:22.999Z</time></trkpt><trkpt lat="43.79279135560823" lon="7.589554063907383"><ele>96.0</ele><time>2026-04-22T10:34:23.999Z</time></trkpt><trkpt lat="43.792816443680806" lon="7.589363677507931"><ele>107.0</ele><time>2026-04-22T10:34:24.999Z</time></trkpt><trkpt lat="43.792845487908345" lon="7.5891867553826025"><ele>107.0</ele><time>2026-04-22T10:34:25.999Z</time></trkpt><trkpt lat="43.79289222019427" lon="7.589017349007871"><ele>107.0</ele><time>2026-04-22T10:34:26.999Z</time></trkpt><trkpt lat="43.79298601020946" lon="7.588860647015643"><ele>107.0</ele><time>2026-04-22T10:34:27.999Z</time></trkpt><trkpt lat="43.793049205603715" lon="7.588680118545665"><ele>107.0</ele><time>2026-04-22T10:34:28.999Z</time></trkpt><trkpt lat="43.79313244487765" lon="7.588425425647819"><ele>102.5</ele><time>2026-04-22T10:34:29.999Z</time></trkpt><trkpt lat="43.79316769569725" lon="7.588288246635393"><ele>98.0</ele><time>2026-04-22T10:34:30.999Z</time></trkpt><trkpt lat="43.79321722593703" lon="7.588125248349797"><ele>93.5</ele><time>2026-04-22T10:34:31.999Z</time></trkpt><trkpt lat="43.793280006022925" lon="7.587938762542127"><ele>89.0</ele><time>2026-04-22T10:34:32.999Z</time></trkpt><trkpt lat="43.79335583257212" lon="7.587788166751195"><ele>84.75</ele><time>2026-04-22T10:34:33.999Z</time></trkpt><trkpt lat="43.79342488095892" lon="7.5876430737708915"><ele>80.5</ele><time>2026-04-22T10:34:34.999Z</time></trkpt><trkpt lat="43.793483573339344" lon="7.587499561490726"><ele>76.25</ele><time>2026-04-22T10:34:35.999Z</time></trkpt><trkpt lat="43.79352722981974" lon="7.5873531079492995"><ele>72.0</ele><time>2026-04-22T10:34:36.999Z</time></trkpt><trkpt lat="43.793543909963965" lon="7.587190430933851"><ele>71.0</ele><time>2026-04-22T10:34:37.999Z</time></trkpt><trkpt lat="43.793536267688665" lon="7.5870048271493"><ele>70.0</ele><time>2026-04-22T10:34:38.999Z</time></trkpt><trkpt lat="43.793515866087496" lon="7.586809543817025"><ele>69.0</ele><time>2026-04-22T10:34:39.999Z</time></trkpt><trkpt lat="43.79350279089826" lon="7.58660711978262"><ele>68.0</ele><time>2026-04-22T10:34:40.999Z</time></trkpt><trkpt lat="43.79350936177169" lon="7.586399798246752"><ele>78.5</ele><time>2026-04-22T10:34:41.999Z</time></trkpt><trkpt lat="43.79352990023955" lon="7.5861927024622755"><ele>89.0</ele><time>2026-04-22T10:34:42.999Z</time></trkpt><trkpt lat="43.79355234499813" lon="7.585984908130164"><ele>99.5</ele><time>2026-04-22T10:34:43.999Z</time></trkpt><trkpt lat="43.79356899502941" lon="7.585791886305662"><ele>110.0</ele><time>2026-04-22T10:34:45Z</time></trkpt><trkpt lat="43.79357209285483" lon="7.585631111624905"><ele>109.99999999999999</ele><time>2026-04-22T10:34:46Z</time></trkpt><trkpt lat="43.79356238394971" lon="7.585490430695336"><ele>110.0</ele><time>2026-04-22T10:34:47Z</time></trkpt><trkpt lat="43.793539846603444" lon="7.585361305235214"><ele>110.0</ele><time>2026-04-22T10:34:48Z</time></trkpt><trkpt lat="43.79351447697168" lon="7.585258981821059"><ele>110.0</ele><time>2026-04-22T10:34:49Z</time></trkpt><trkpt lat="43.79348697207768" lon="7.585177123652556"><ele>109.99999999999999</ele><time>2026-04-22T10:34:50Z</time></trkpt><trkpt lat="43.79346618370014" lon="7.585041777159431"><ele>110.0</ele><time>2026-04-22T10:34:52Z</time></trkpt><trkpt lat="43.793419916303094" lon="7.584977914232362"><ele>102.4</ele><time>2026-04-22T10:35:12Z</time></trkpt><trkpt lat="43.79336831392271" lon="7.584822283833477"><ele>94.8</ele><time>2026-04-22T10:35:14Z</time></trkpt><trkpt lat="43.79332156786948" lon="7.584689955104719"><ele>87.2</ele><time>2026-04-22T10:35:15Z</time></trkpt><trkpt lat="43.793268634403056" lon="7.584554883093579"><ele>79.6</ele><time>2026-04-22T10:35:16Z</time></trkpt><trkpt lat="43.79324076515723" lon="7.584433283268839"><ele>72.0</ele><time>2026-04-22T10:35:17Z</time></trkpt><trkpt lat="43.79320373952831" lon="7.584313345371945"><ele>72.0</ele><time>2026-04-22T10:35:18Z</time></trkpt><trkpt lat="43.79317001102614" lon="7.584193451292699"><ele>72.0</ele><time>2026-04-22T10:35:19Z</time></trkpt><trkpt lat="43.79318242206358" lon="7.584064940098517"><ele>72.0</ele><time>2026-04-22T10:35:20Z</time></trkpt><trkpt lat="43.793224800915425" lon="7.583938597753541"><ele>72.0</ele><time>2026-04-22T10:35:21Z</time></trkpt><trkpt lat="43.793282127991745" lon="7.583813721392225"><ele>72.0</ele><time>2026-04-22T10:35:22Z</time></trkpt><trkpt lat="43.793329216963045" lon="7.58368759658718"><ele>72.16666666666667</ele><time>2026-04-22T10:35:23Z</time></trkpt><trkpt lat="43.793349330035106" lon="7.583568399643252"><ele>72.33333333333333</ele><time>2026-04-22T10:35:24Z</time></trkpt><trkpt lat="43.793349028748175" lon="7.583441749195255"><ele>72.5</ele><time>2026-04-22T10:35:25Z</time></trkpt><trkpt lat="43.79332830277279" lon="7.583315542061672"><ele>72.66666666666666</ele><time>2026-04-22T10:35:26Z</time></trkpt><trkpt lat="43.79329996232255" lon="7.583195134054622"><ele>72.83333333333333</ele><time>2026-04-22T10:35:27Z</time></trkpt><trkpt lat="43.79328159304558" lon="7.58310060650603"><ele>73.0</ele><time>2026-04-22T10:35:28Z</time></trkpt><trkpt lat="43.793293587204026" lon="7.58301233799888"><ele>73.0</ele><time>2026-04-22T10:35:34Z</time></trkpt><trkpt lat="43.79330913680302" lon="7.582927667263759"><ele>73.0</ele><time>2026-04-22T10:35:36Z</time></trkpt><trkpt lat="43.793319873109894" lon="7.58282416094811"><ele>73.0</ele><time>2026-04-22T10:35:37Z</time></trkpt><trkpt lat="43.79331025052692" lon="7.582682318372718"><ele>73.0</ele><time>2026-04-22T10:35:38Z</time></trkpt><trkpt lat="43.79329175589202" lon="7.582529393368229"><ele>73.0</ele><time>2026-04-22T10:35:39Z</time></trkpt><trkpt lat="43.79327123473594" lon="7.5823898722391885"><ele>73.0</ele><time>2026-04-22T10:35:40Z</time></trkpt><trkpt lat="43.79325234705371" lon="7.58223404639696"><ele>73.0</ele><time>2026-04-22T10:35:41Z</time></trkpt><trkpt lat="43.79325422702401" lon="7.5820655485373445"><ele>73.0</ele><time>2026-04-22T10:35:42Z</time></trkpt><trkpt lat="43.79326918877052" lon="7.58190963171946"><ele>73.0</ele><time>2026-04-22T10:35:43Z</time></trkpt><trkpt lat="43.79327353112164" lon="7.581758173070495"><ele>73.0</ele><time>2026-04-22T10:35:44Z</time></trkpt><trkpt lat="43.79325526150162" lon="7.581612787721648"><ele>73.0</ele><time>2026-04-22T10:35:45Z</time></trkpt><trkpt lat="43.793232553975" lon="7.581476871593965"><ele>73.0</ele><time>2026-04-22T10:35:46Z</time></trkpt><trkpt lat="43.79322527340865" lon="7.581341689515706"><ele>73.0</ele><time>2026-04-22T10:35:47Z</time></trkpt><trkpt lat="43.79322916842564" lon="7.581207299996496"><ele>73.0</ele><time>2026-04-22T10:35:48Z</time></trkpt><trkpt lat="43.793273141316206" lon="7.581072706980973"><ele>71.25</ele><time>2026-04-22T10:35:49Z</time></trkpt><trkpt lat="43.79330381416391" lon="7.5809158906927845"><ele>69.5</ele><time>2026-04-22T10:35:49.999Z</time></trkpt><trkpt lat="43.793356728266104" lon="7.580767226916005"><ele>67.75</ele><time>2026-04-22T10:35:50.999Z</time></trkpt><trkpt lat="43.79340807848993" lon="7.580625619367735"><ele>66.0</ele><time>2026-04-22T10:35:51.999Z</time></trkpt><trkpt lat="43.79345237317983" lon="7.5804909969619665"><ele>66.0</ele><time>2026-04-22T10:35:52.999Z</time></trkpt><trkpt lat="43.79349282483648" lon="7.5803593047872075"><ele>66.0</ele><time>2026-04-22T10:35:53.999Z</time></trkpt><trkpt lat="43.79352680460257" lon="7.5802294433900235"><ele>66.0</ele><time>2026-04-22T10:35:54.999Z</time></trkpt><trkpt lat="43.79355276301638" lon="7.580100476644376"><ele>66.0</ele><time>2026-04-22T10:35:55.999Z</time></trkpt><trkpt lat="43.79356876873619" lon="7.579974423871827"><ele>66.0</ele><time>2026-04-22T10:35:56.999Z</time></trkpt><trkpt lat="43.79357489379462" lon="7.579846121471275"><ele>63.599999999999994</ele><time>2026-04-22T10:35:57.999Z</time></trkpt><trkpt lat="43.79355440530477" lon="7.579713811328004"><ele>61.199999999999996</ele><time>2026-04-22T10:35:58.999Z</time></trkpt><trkpt lat="43.79350209352226" lon="7.579586612743871"><ele>58.800000000000004</ele><time>2026-04-22T10:35:59.999Z</time></trkpt><trkpt lat="43.79342406562812" lon="7.579475779306498"><ele>56.400000000000006</ele><time>2026-04-22T10:36:00.999Z</time></trkpt><trkpt lat="43.7933327270479" lon="7.579376005391095"><ele>54.0</ele><time>2026-04-22T10:36:01.999Z</time></trkpt><trkpt lat="43.79324489255117" lon="7.57928050707308"><ele>53.800000000000004</ele><time>2026-04-22T10:36:02.999Z</time></trkpt><trkpt lat="43.793175939515585" lon="7.579191135131015"><ele>53.60000000000001</ele><time>2026-04-22T10:36:03.999Z</time></trkpt><trkpt lat="43.79313264685916" lon="7.579093494894368"><ele>53.4</ele><time>2026-04-22T10:36:04.999Z</time></trkpt><trkpt lat="43.79311916961746" lon="7.578976973728701"><ele>53.2</ele><time>2026-04-22T10:36:05.999Z</time></trkpt><trkpt lat="43.79313780170703" lon="7.578852679862154"><ele>53.0</ele><time>2026-04-22T10:36:06.999Z</time></trkpt><trkpt lat="43.79318743407175" lon="7.578730715118306"><ele>51.8</ele><time>2026-04-22T10:36:07.999Z</time></trkpt><trkpt lat="43.79325507501619" lon="7.578608132400813"><ele>50.599999999999994</ele><time>2026-04-22T10:36:08.999Z</time></trkpt><trkpt lat="43.79331523040958" lon="7.578488795117861"><ele>49.400000000000006</ele><time>2026-04-22T10:36:09.999Z</time></trkpt><trkpt lat="43.79335307119879" lon="7.578348678719724"><ele>48.2</ele><time>2026-04-22T10:36:10.999Z</time></trkpt><trkpt lat="43.79337522647605" lon="7.578193200719842"><ele>47.0</ele><time>2026-04-22T10:36:11.999Z</time></trkpt><trkpt lat="43.79339662117447" lon="7.5780229607255345"><ele>44.0</ele><time>2026-04-22T10:36:12.999Z</time></trkpt><trkpt lat="43.79342053299956" lon="7.57784936732478"><ele>41.0</ele><time>2026-04-22T10:36:13.999Z</time></trkpt><trkpt lat="43.793446918860624" lon="7.5776759078855545"><ele>38.0</ele><time>2026-04-22T10:36:14.999Z</time></trkpt><trkpt lat="43.79347219424658" lon="7.577508002445701"><ele>35.0</ele><time>2026-04-22T10:36:15.999Z</time></trkpt><trkpt lat="43.79349333191884" lon="7.57734975213646"><ele>41.6</ele><time>2026-04-22T10:36:16.999Z</time></trkpt><trkpt lat="43.79351539389051" lon="7.577197544773328"><ele>48.2</ele><time>2026-04-22T10:36:17.999Z</time></trkpt><trkpt lat="43.79354091359069" lon="7.5770511313683935"><ele>54.8</ele><time>2026-04-22T10:36:18.999Z</time></trkpt><trkpt lat="43.79357476987854" lon="7.576904993191111"><ele>61.4</ele><time>2026-04-22T10:36:19.999Z</time></trkpt><trkpt lat="43.7936156256177" lon="7.576761350716978"><ele>68.0</ele><time>2026-04-22T10:36:20.999Z</time></trkpt><trkpt lat="43.793653561241946" lon="7.576616669218015"><ele>68.0</ele><time>2026-04-22T10:36:21.999Z</time></trkpt><trkpt lat="43.79369485878317" lon="7.576477002428854"><ele>68.0</ele><time>2026-04-22T10:36:22.999Z</time></trkpt><trkpt lat="43.79373117448874" lon="7.576338269908454"><ele>68.0</ele><time>2026-04-22T10:36:23.999Z</time></trkpt><trkpt lat="43.793767024325035" lon="7.576197733704477"><ele>68.0</ele><time>2026-04-22T10:36:24.999Z</time></trkpt><trkpt lat="43.79380314809852" lon="7.576058990504837"><ele>68.0</ele><time>2026-04-22T10:36:25.999Z</time></trkpt><trkpt lat="43.793843229608655" lon="7.575920909088708"><ele>65.25</ele><time>2026-04-22T10:36:26.999Z</time></trkpt><trkpt lat="43.79388717404313" lon="7.575781975739954"><ele>62.5</ele><time>2026-04-22T10:36:27.999Z</time></trkpt><trkpt lat="43.793934462307384" lon="7.575634217722317"><ele>59.75</ele><time>2026-04-22T10:36:28.999Z</time></trkpt><trkpt lat="43.7939833130897" lon="7.575477372788048"><ele>57.0</ele><time>2026-04-22T10:36:29.999Z</time></trkpt><trkpt lat="43.794026003507724" lon="7.575319932501633"><ele>54.6</ele><time>2026-04-22T10:36:30.999Z</time></trkpt><trkpt lat="43.794060954686074" lon="7.575168232856667"><ele>52.2</ele><time>2026-04-22T10:36:31.999Z</time></trkpt><trkpt lat="43.794092531832774" lon="7.5750221068139565"><ele>49.8</ele><time>2026-04-22T10:36:32.999Z</time></trkpt><trkpt lat="43.794127307933245" lon="7.574881714893255"><ele>47.4</ele><time>2026-04-22T10:36:33.999Z</time></trkpt><trkpt lat="43.794171852264725" lon="7.574749438923128"><ele>45.0</ele><time>2026-04-22T10:36:34.999Z</time></trkpt><trkpt lat="43.79422246067379" lon="7.57462422352285"><ele>42.6</ele><time>2026-04-22T10:36:35.999Z</time></trkpt><trkpt lat="43.79427297977775" lon="7.574505517991874"><ele>40.2</ele><time>2026-04-22T10:36:36.999Z</time></trkpt><trkpt lat="43.7943273168792" lon="7.574383483971017"><ele>37.8</ele><time>2026-04-22T10:36:37.999Z</time></trkpt><trkpt lat="43.79437892783243" lon="7.574250563824479"><ele>35.4</ele><time>2026-04-22T10:36:38.999Z</time></trkpt><trkpt lat="43.79441555843675" lon="7.5741023447695754"><ele>33.0</ele><time>2026-04-22T10:36:39.999Z</time></trkpt><trkpt lat="43.794436790819404" lon="7.573953739289426"><ele>35.599999999999994</ele><time>2026-04-22T10:36:40.999Z</time></trkpt><trkpt lat="43.794455260647396" lon="7.573807573719946"><ele>38.199999999999996</ele><time>2026-04-22T10:36:41.999Z</time></trkpt><trkpt lat="43.7944562484773" lon="7.5736586159815795"><ele>40.8</ele><time>2026-04-22T10:36:42.999Z</time></trkpt><trkpt lat="43.79444227251559" lon="7.573509574199252"><ele>43.4</ele><time>2026-04-22T10:36:43.999Z</time></trkpt><trkpt lat="43.79440823827794" lon="7.573368932086394"><ele>46.0</ele><time>2026-04-22T10:36:44.999Z</time></trkpt><trkpt lat="43.79434984799911" lon="7.57325221252788"><ele>41.25</ele><time>2026-04-22T10:36:45.999Z</time></trkpt><trkpt lat="43.79428386594257" lon="7.573159635714563"><ele>36.5</ele><time>2026-04-22T10:36:46.999Z</time></trkpt><trkpt lat="43.794220926081735" lon="7.573072971459553"><ele>31.75</ele><time>2026-04-22T10:36:47.999Z</time></trkpt><trkpt lat="43.79415682913593" lon="7.572989767276527"><ele>27.0</ele><time>2026-04-22T10:36:48.999Z</time></trkpt><trkpt lat="43.794262850359836" lon="7.572749843543834"><ele>26.6</ele><time>2026-04-22T10:36:49.999Z</time></trkpt><trkpt lat="43.7942857656003" lon="7.572637961062536"><ele>26.200000000000003</ele><time>2026-04-22T10:36:51Z</time></trkpt><trkpt lat="43.794330955022" lon="7.5725348759965145"><ele>25.8</ele><time>2026-04-22T10:36:52Z</time></trkpt><trkpt lat="43.79439296156598" lon="7.572441468144319"><ele>25.4</ele><time>2026-04-22T10:36:53Z</time></trkpt><trkpt lat="43.794471614563065" lon="7.572359765968281"><ele>25.0</ele><time>2026-04-22T10:36:54Z</time></trkpt><trkpt lat="43.79456537838176" lon="7.5723161911276815"><ele>28.75</ele><time>2026-04-22T10:36:55Z</time></trkpt><trkpt lat="43.79468134336984" lon="7.572263488498458"><ele>32.5</ele><time>2026-04-22T10:36:56Z</time></trkpt><trkpt lat="43.794796579419" lon="7.572214759584377"><ele>36.25</ele><time>2026-04-22T10:36:57Z</time></trkpt><trkpt lat="43.79489879721981" lon="7.572147119526934"><ele>40.0</ele><time>2026-04-22T10:36:58Z</time></trkpt><trkpt lat="43.79499332942571" lon="7.572102501031565"><ele>40.0</ele><time>2026-04-22T10:36:59Z</time></trkpt><trkpt lat="43.79507425216229" lon="7.5720393731101705"><ele>40.0</ele><time>2026-04-22T10:37:00Z</time></trkpt><trkpt lat="43.79515395098133" lon="7.57197654281633"><ele>40.0</ele><time>2026-04-22T10:37:01Z</time></trkpt><trkpt lat="43.79521896693895" lon="7.5719028055649495"><ele>40.0</ele><time>2026-04-22T10:37:02Z</time></trkpt><trkpt lat="43.79526511978786" lon="7.571808482049626"><ele>40.0</ele><time>2026-04-22T10:37:03Z</time></trkpt><trkpt lat="43.79528415264769" lon="7.571697848316039"><ele>40.0</ele><time>2026-04-22T10:37:04Z</time></trkpt><trkpt lat="43.795271345473736" lon="7.571575193406419"><ele>41.2</ele><time>2026-04-22T10:37:05Z</time></trkpt><trkpt lat="43.795238560934926" lon="7.5714561524713355"><ele>42.4</ele><time>2026-04-22T10:37:06Z</time></trkpt><trkpt lat="43.79519698586849" lon="7.571342189640356"><ele>43.599999999999994</ele><time>2026-04-22T10:37:07Z</time></trkpt><trkpt lat="43.79513174325511" lon="7.5712567768100385"><ele>44.8</ele><time>2026-04-22T10:37:08Z</time></trkpt><trkpt lat="43.795039729617045" lon="7.571193646531174"><ele>46.0</ele><time>2026-04-22T10:37:09Z</time></trkpt><trkpt lat="43.79494127449005" lon="7.571141650935915"><ele>46.0</ele><time>2026-04-22T10:37:10Z</time></trkpt><trkpt lat="43.79484296836837" lon="7.571093100844272"><ele>46.0</ele><time>2026-04-22T10:37:11Z</time></trkpt><trkpt lat="43.79473449234835" lon="7.5710289426802415"><ele>46.0</ele><time>2026-04-22T10:37:12Z</time></trkpt><trkpt lat="43.79463168280535" lon="7.570972720264133"><ele>46.0</ele><time>2026-04-22T10:37:13Z</time></trkpt><trkpt lat="43.794533312005655" lon="7.570920054769353"><ele>46.0</ele><time>2026-04-22T10:37:14Z</time></trkpt><trkpt lat="43.794432712736736" lon="7.570869090117691"><ele>42.4</ele><time>2026-04-22T10:37:15Z</time></trkpt><trkpt lat="43.79433113073654" lon="7.570818471966529"><ele>38.8</ele><time>2026-04-22T10:37:16Z</time></trkpt><trkpt lat="43.79424778166029" lon="7.570734665134433"><ele>35.199999999999996</ele><time>2026-04-22T10:37:17Z</time></trkpt><trkpt lat="43.794170037978375" lon="7.570654512715476"><ele>31.599999999999998</ele><time>2026-04-22T10:37:18Z</time></trkpt><trkpt lat="43.794089336948474" lon="7.5705747696757095"><ele>28.0</ele><time>2026-04-22T10:37:19Z</time></trkpt><trkpt lat="43.79403667729135" lon="7.570472221974291"><ele>28.0</ele><time>2026-04-22T10:37:20Z</time></trkpt><trkpt lat="43.79399902111972" lon="7.570363517606311"><ele>27.999999999999996</ele><time>2026-04-22T10:37:21Z</time></trkpt><trkpt lat="43.79397115728273" lon="7.570248225645922"><ele>27.999999999999996</ele><time>2026-04-22T10:37:22Z</time></trkpt><trkpt lat="43.793951569055096" lon="7.5701220204054165"><ele>28.0</ele><time>2026-04-22T10:37:23Z</time></trkpt><trkpt lat="43.79393749659587" lon="7.569988483128583"><ele>28.0</ele><time>2026-04-22T10:37:24Z</time></trkpt><trkpt lat="43.793924105326866" lon="7.569849673940615"><ele>29.599999999999998</ele><time>2026-04-22T10:37:25Z</time></trkpt><trkpt lat="43.793908382902046" lon="7.56970666135947"><ele>31.199999999999996</ele><time>2026-04-22T10:37:26Z</time></trkpt><trkpt lat="43.79388955713784" lon="7.569560416285318"><ele>32.8</ele><time>2026-04-22T10:37:27Z</time></trkpt><trkpt lat="43.79387009131898" lon="7.5694100180170345"><ele>34.4</ele><time>2026-04-22T10:37:28Z</time></trkpt><trkpt lat="43.79385436529939" lon="7.5692556337718955"><ele>36.0</ele><time>2026-04-22T10:37:29Z</time></trkpt><trkpt lat="43.793836730735606" lon="7.569097448412458"><ele>38.25</ele><time>2026-04-22T10:37:30Z</time></trkpt><trkpt lat="43.79381786971441" lon="7.568936997606955"><ele>40.5</ele><time>2026-04-22T10:37:31Z</time></trkpt><trkpt lat="43.79379902624859" lon="7.568779455810325"><ele>42.75</ele><time>2026-04-22T10:37:32Z</time></trkpt><trkpt lat="43.79378132111696" lon="7.568625921103416"><ele>45.0</ele><time>2026-04-22T10:37:33Z</time></trkpt><trkpt lat="43.79376208398739" lon="7.568475937308183"><ele>46.5</ele><time>2026-04-22T10:37:34Z</time></trkpt><trkpt lat="43.793744425938236" lon="7.568322849902671"><ele>48.0</ele><time>2026-04-22T10:37:35Z</time></trkpt><trkpt lat="43.7937256139491" lon="7.568168205010698"><ele>49.5</ele><time>2026-04-22T10:37:36Z</time></trkpt><trkpt lat="43.79370936638551" lon="7.568010714035329"><ele>51.0</ele><time>2026-04-22T10:37:37Z</time></trkpt><trkpt lat="43.79368622284191" lon="7.567851575103082"><ele>51.199999999999996</ele><time>2026-04-22T10:37:38Z</time></trkpt><trkpt lat="43.79367983128383" lon="7.567713879204593"><ele>51.4</ele><time>2026-04-22T10:37:39Z</time></trkpt><trkpt lat="43.79366488776948" lon="7.567577473835101"><ele>51.6</ele><time>2026-04-22T10:37:40Z</time></trkpt><trkpt lat="43.793647267831744" lon="7.5674518100049335"><ele>51.8</ele><time>2026-04-22T10:37:41Z</time></trkpt><trkpt lat="43.793632865084476" lon="7.5673309643693045"><ele>52.0</ele><time>2026-04-22T10:37:42Z</time></trkpt><trkpt lat="43.79361969629418" lon="7.567213201692741"><ele>52.0</ele><time>2026-04-22T10:37:43Z</time></trkpt><trkpt lat="43.793604646900675" lon="7.567094704557877"><ele>52.0</ele><time>2026-04-22T10:37:44Z</time></trkpt><trkpt lat="43.793589831823795" lon="7.566968556450432"><ele>52.0</ele><time>2026-04-22T10:37:45Z</time></trkpt><trkpt lat="43.793574413955085" lon="7.566841456546592"><ele>52.0</ele><time>2026-04-22T10:37:46Z</time></trkpt><trkpt lat="43.793560880816166" lon="7.566708173092562"><ele>52.0</ele><time>2026-04-22T10:37:47Z</time></trkpt><trkpt lat="43.793548373983185" lon="7.5665680830097"><ele>51.400000000000006</ele><time>2026-04-22T10:37:48Z</time></trkpt><trkpt lat="43.79353886457136" lon="7.56642397098254"><ele>50.800000000000004</ele><time>2026-04-22T10:37:49Z</time></trkpt><trkpt lat="43.79353178160477" lon="7.566286676581374"><ele>50.2</ele><time>2026-04-22T10:37:50Z</time></trkpt><trkpt lat="43.79352988673671" lon="7.566153219885838"><ele>49.6</ele><time>2026-04-22T10:37:51Z</time></trkpt><trkpt lat="43.793533282784715" lon="7.566019863801728"><ele>49.0</ele><time>2026-04-22T10:37:52Z</time></trkpt><trkpt lat="43.79354506664635" lon="7.56588854677646"><ele>48.99999999999999</ele><time>2026-04-22T10:37:53Z</time></trkpt><trkpt lat="43.79356318481211" lon="7.565756193921571"><ele>49.0</ele><time>2026-04-22T10:37:54Z</time></trkpt><trkpt lat="43.79358960204455" lon="7.565629886381831"><ele>49.0</ele><time>2026-04-22T10:37:55Z</time></trkpt><trkpt lat="43.793629319105236" lon="7.5655205410228215"><ele>49.0</ele><time>2026-04-22T10:37:56Z</time></trkpt><trkpt lat="43.793681601237026" lon="7.565427856807286"><ele>48.99999999999999</ele><time>2026-04-22T10:37:57Z</time></trkpt><trkpt lat="43.7937344550411" lon="7.5653406390482285"><ele>49.0</ele><time>2026-04-22T10:37:58Z</time></trkpt><trkpt lat="43.79378851701075" lon="7.565254884550923"><ele>45.49999999999999</ele><time>2026-04-22T10:37:59Z</time></trkpt><trkpt lat="43.793840468481704" lon="7.565175486539327"><ele>42.0</ele><time>2026-04-22T10:38:00Z</time></trkpt><trkpt lat="43.79389451228968" lon="7.565090542397012"><ele>38.5</ele><time>2026-04-22T10:38:01Z</time></trkpt><trkpt lat="43.793946495315936" lon="7.565002030342791"><ele>35.0</ele><time>2026-04-22T10:38:02Z</time></trkpt><trkpt lat="43.79399976999042" lon="7.564912464595311"><ele>31.5</ele><time>2026-04-22T10:38:03Z</time></trkpt><trkpt lat="43.79405257959889" lon="7.56482178340782"><ele>28.0</ele><time>2026-04-22T10:38:03.999Z</time></trkpt><trkpt lat="43.79410882898782" lon="7.564738794094071"><ele>28.000000000000004</ele><time>2026-04-22T10:38:04.999Z</time></trkpt><trkpt lat="43.79415748295418" lon="7.56465458308167"><ele>28.0</ele><time>2026-04-22T10:38:05.999Z</time></trkpt><trkpt lat="43.79421129789448" lon="7.5645681701880685"><ele>28.0</ele><time>2026-04-22T10:38:06.999Z</time></trkpt><trkpt lat="43.79426538635055" lon="7.564484525259357"><ele>28.0</ele><time>2026-04-22T10:38:07.999Z</time></trkpt><trkpt lat="43.79431838516487" lon="7.5643986936454395"><ele>28.000000000000004</ele><time>2026-04-22T10:38:08.999Z</time></trkpt><trkpt lat="43.79437391639028" lon="7.564302753859867"><ele>28.0</ele><time>2026-04-22T10:38:09.999Z</time></trkpt><trkpt lat="43.79444134301265" lon="7.564207292204297"><ele>27.166666666666668</ele><time>2026-04-22T10:38:10.999Z</time></trkpt><trkpt lat="43.794501303942056" lon="7.56410648930045"><ele>26.333333333333336</ele><time>2026-04-22T10:38:11.999Z</time></trkpt><trkpt lat="43.79456469076218" lon="7.564009389561122"><ele>25.5</ele><time>2026-04-22T10:38:12.999Z</time></trkpt><trkpt lat="43.79461645374865" lon="7.563924612015227"><ele>24.666666666666668</ele><time>2026-04-22T10:38:13.999Z</time></trkpt><trkpt lat="43.79465160661193" lon="7.563851272453512"><ele>23.833333333333336</ele><time>2026-04-22T10:38:14.999Z</time></trkpt><trkpt lat="43.794692174167245" lon="7.563710108221203"><ele>23.0</ele><time>2026-04-22T10:38:16.999Z</time></trkpt><trkpt lat="43.79470600750383" lon="7.5635938647894205"><ele>23.0</ele><time>2026-04-22T10:38:18.999Z</time></trkpt><trkpt lat="43.7947185318841" lon="7.5634717624333625"><ele>23.0</ele><time>2026-04-22T10:38:20.999Z</time></trkpt><trkpt lat="43.79468114657896" lon="7.563359523534497"><ele>23.0</ele><time>2026-04-22T10:38:22.999Z</time></trkpt><trkpt lat="43.794618995289774" lon="7.563279013299254"><ele>23.0</ele><time>2026-04-22T10:38:24.999Z</time></trkpt><trkpt lat="43.7945308323266" lon="7.563215446448313"><ele>23.0</ele><time>2026-04-22T10:38:26.999Z</time></trkpt><trkpt lat="43.79441075934991" lon="7.56316164026575"><ele>22.599999999999998</ele><time>2026-04-22T10:38:28.999Z</time></trkpt><trkpt lat="43.79433268487874" lon="7.563137773822428"><ele>22.2</ele><time>2026-04-22T10:38:29.999Z</time></trkpt><trkpt lat="43.79424725421748" lon="7.563133578044221"><ele>21.8</ele><time>2026-04-22T10:38:30.999Z</time></trkpt><trkpt lat="43.794141411206226" lon="7.563135019803127"><ele>21.4</ele><time>2026-04-22T10:38:31.999Z</time></trkpt><trkpt lat="43.7940225020016" lon="7.563136321774342"><ele>21.0</ele><time>2026-04-22T10:38:32.999Z</time></trkpt><trkpt lat="43.79388482914046" lon="7.5631461363647166"><ele>21.0</ele><time>2026-04-22T10:38:33.999Z</time></trkpt><trkpt lat="43.79376218670148" lon="7.5631631033302655"><ele>21.0</ele><time>2026-04-22T10:38:34.999Z</time></trkpt><trkpt lat="43.79363816258443" lon="7.563173643105032"><ele>21.0</ele><time>2026-04-22T10:38:35.999Z</time></trkpt><trkpt lat="43.793504476699844" lon="7.563179393868423"><ele>21.0</ele><time>2026-04-22T10:38:36.999Z</time></trkpt><trkpt lat="43.793371084730296" lon="7.563167716699933"><ele>21.6</ele><time>2026-04-22T10:38:37.999Z</time></trkpt><trkpt lat="43.793257908205355" lon="7.563136535670792"><ele>22.200000000000003</ele><time>2026-04-22T10:38:38.999Z</time></trkpt><trkpt lat="43.793159004026286" lon="7.563086400176692"><ele>22.799999999999997</ele><time>2026-04-22T10:38:39.999Z</time></trkpt><trkpt lat="43.79307000966588" lon="7.563008162579949"><ele>23.4</ele><time>2026-04-22T10:38:40.999Z</time></trkpt><trkpt lat="43.792996128967815" lon="7.5629032149103805"><ele>24.0</ele><time>2026-04-22T10:38:41.999Z</time></trkpt><trkpt lat="43.79293931597523" lon="7.562783738349681"><ele>28.25</ele><time>2026-04-22T10:38:42.999Z</time></trkpt><trkpt lat="43.792898793684735" lon="7.562646403064362"><ele>32.5</ele><time>2026-04-22T10:38:43.999Z</time></trkpt><trkpt lat="43.792863224961785" lon="7.562506964570528"><ele>36.75</ele><time>2026-04-22T10:38:44.999Z</time></trkpt><trkpt lat="43.792831785058624" lon="7.562347057562772"><ele>41.0</ele><time>2026-04-22T10:38:45.999Z</time></trkpt><trkpt lat="43.79278870108974" lon="7.56218344638633"><ele>41.0</ele><time>2026-04-22T10:38:46.999Z</time></trkpt><trkpt lat="43.79271681681592" lon="7.562038614673849"><ele>41.0</ele><time>2026-04-22T10:38:47.999Z</time></trkpt><trkpt lat="43.79261971941762" lon="7.561913823842626"><ele>41.0</ele><time>2026-04-22T10:38:48.999Z</time></trkpt><trkpt lat="43.792492014334734" lon="7.561806513597765"><ele>41.0</ele><time>2026-04-22T10:38:49.999Z</time></trkpt><trkpt lat="43.79234273507775" lon="7.561729412292221"><ele>41.0</ele><time>2026-04-22T10:38:50.999Z</time></trkpt><trkpt lat="43.792190220050614" lon="7.561662100066171"><ele>41.0</ele><time>2026-04-22T10:38:51.999Z</time></trkpt><trkpt lat="43.79205599532839" lon="7.561598734361108"><ele>41.0</ele><time>2026-04-22T10:38:52.999Z</time></trkpt><trkpt lat="43.79193099205411" lon="7.5615356601606925"><ele>41.0</ele><time>2026-04-22T10:38:53.999Z</time></trkpt><trkpt lat="43.79180400320705" lon="7.5614731737551395"><ele>38.5</ele><time>2026-04-22T10:38:54.999Z</time></trkpt><trkpt lat="43.79167219129485" lon="7.561409357341666"><ele>36.0</ele><time>2026-04-22T10:38:55.999Z</time></trkpt><trkpt lat="43.79153534037831" lon="7.561341095292614"><ele>33.5</ele><time>2026-04-22T10:38:57Z</time></trkpt><trkpt lat="43.79140833507671" lon="7.561279325593145"><ele>31.0</ele><time>2026-04-22T10:38:58Z</time></trkpt><trkpt lat="43.791300439745385" lon="7.56121490281293"><ele>32.0</ele><time>2026-04-22T10:38:59Z</time></trkpt><trkpt lat="43.791212442736104" lon="7.561140298521577"><ele>33.0</ele><time>2026-04-22T10:39:00Z</time></trkpt><trkpt lat="43.791143838736886" lon="7.561057841546646"><ele>34.0</ele><time>2026-04-22T10:39:01Z</time></trkpt><trkpt lat="43.79109465834106" lon="7.560967901274314"><ele>35.0</ele><time>2026-04-22T10:39:02Z</time></trkpt><trkpt lat="43.79105342744365" lon="7.560870715960755"><ele>36.0</ele><time>2026-04-22T10:39:03Z</time></trkpt><trkpt lat="43.791019971557105" lon="7.560767454886277"><ele>37.0</ele><time>2026-04-22T10:39:04Z</time></trkpt><trkpt lat="43.79098674797493" lon="7.560655889897513"><ele>37.0</ele><time>2026-04-22T10:39:05Z</time></trkpt><trkpt lat="43.79095004547062" lon="7.560543247314669"><ele>37.0</ele><time>2026-04-22T10:39:06Z</time></trkpt><trkpt lat="43.79090657335223" lon="7.560433172668286"><ele>37.0</ele><time>2026-04-22T10:39:07Z</time></trkpt><trkpt lat="43.790855014806226" lon="7.560323761284242"><ele>37.0</ele><time>2026-04-22T10:39:08Z</time></trkpt><trkpt lat="43.79080443288942" lon="7.560211902632096"><ele>37.0</ele><time>2026-04-22T10:39:09Z</time></trkpt><trkpt lat="43.79075281293011" lon="7.560101872310962"><ele>41.66666666666667</ele><time>2026-04-22T10:39:10Z</time></trkpt><trkpt lat="43.79070353551999" lon="7.560002628962278"><ele>46.333333333333336</ele><time>2026-04-22T10:39:11Z</time></trkpt><trkpt lat="43.790654547138914" lon="7.5599258316665345"><ele>51.0</ele><time>2026-04-22T10:39:12Z</time></trkpt><trkpt lat="43.79059070419962" lon="7.559866420936179"><ele>55.66666666666667</ele><time>2026-04-22T10:39:13Z</time></trkpt><trkpt lat="43.79050467070125" lon="7.559828943467517"><ele>60.333333333333336</ele><time>2026-04-22T10:39:14Z</time></trkpt><trkpt lat="43.79040537318761" lon="7.5598048301627205"><ele>65.0</ele><time>2026-04-22T10:39:15Z</time></trkpt><trkpt lat="43.790296056714425" lon="7.5598092285163405"><ele>60.75</ele><time>2026-04-22T10:39:16Z</time></trkpt><trkpt lat="43.7901704467713" lon="7.559839200570311"><ele>56.5</ele><time>2026-04-22T10:39:17Z</time></trkpt><trkpt lat="43.79003329587908" lon="7.559843775702167"><ele>52.25</ele><time>2026-04-22T10:39:18Z</time></trkpt><trkpt lat="43.78991616541129" lon="7.559849014188042"><ele>48.0</ele><time>2026-04-22T10:39:19Z</time></trkpt><trkpt lat="43.789823278497884" lon="7.559827712076363"><ele>48.0</ele><time>2026-04-22T10:39:20Z</time></trkpt><trkpt lat="43.78974369182592" lon="7.5597810692260525"><ele>48.0</ele><time>2026-04-22T10:39:21Z</time></trkpt><trkpt lat="43.7896970930121" lon="7.559661028636231"><ele>48.0</ele><time>2026-04-22T10:39:22Z</time></trkpt><trkpt lat="43.789686949163084" lon="7.559539065770972"><ele>48.0</ele><time>2026-04-22T10:39:23Z</time></trkpt><trkpt lat="43.789701435437365" lon="7.559401011158822"><ele>48.0</ele><time>2026-04-22T10:39:24Z</time></trkpt><trkpt lat="43.78970861584556" lon="7.559273186111366"><ele>49.2</ele><time>2026-04-22T10:39:25Z</time></trkpt><trkpt lat="43.78967624673691" lon="7.559159662279057"><ele>50.4</ele><time>2026-04-22T10:39:26Z</time></trkpt><trkpt lat="43.78960507950737" lon="7.559069346269611"><ele>51.60000000000001</ele><time>2026-04-22T10:39:27Z</time></trkpt><trkpt lat="43.78951224787012" lon="7.559018128540029"><ele>52.800000000000004</ele><time>2026-04-22T10:39:28Z</time></trkpt><trkpt lat="43.78941205742451" lon="7.558975870707901"><ele>54.0</ele><time>2026-04-22T10:39:29Z</time></trkpt><trkpt lat="43.78930602359572" lon="7.558955121213369"><ele>54.0</ele><time>2026-04-22T10:39:30Z</time></trkpt><trkpt lat="43.78922331484429" lon="7.5588934219224555"><ele>54.00000000000001</ele><time>2026-04-22T10:39:31Z</time></trkpt><trkpt lat="43.78914455869893" lon="7.558807888670238"><ele>54.00000000000001</ele><time>2026-04-22T10:39:32Z</time></trkpt><trkpt lat="43.78906903101858" lon="7.558713778208713"><ele>54.0</ele><time>2026-04-22T10:39:33Z</time></trkpt><trkpt lat="43.78899251976422" lon="7.558617071708312"><ele>54.0</ele><time>2026-04-22T10:39:34Z</time></trkpt><trkpt lat="43.78891262416631" lon="7.558524072363153"><ele>60.6</ele><time>2026-04-22T10:39:35Z</time></trkpt><trkpt lat="43.78883263994354" lon="7.558434471382571"><ele>67.2</ele><time>2026-04-22T10:39:36Z</time></trkpt><trkpt lat="43.78875512170796" lon="7.558349486252654"><ele>73.8</ele><time>2026-04-22T10:39:37Z</time></trkpt><trkpt lat="43.78867770315717" lon="7.5582644033531485"><ele>80.39999999999999</ele><time>2026-04-22T10:39:38Z</time></trkpt><trkpt lat="43.78859054248218" lon="7.558196286468637"><ele>87.0</ele><time>2026-04-22T10:39:39Z</time></trkpt><trkpt lat="43.788519528493616" lon="7.55810233812657"><ele>87.39999999999999</ele><time>2026-04-22T10:39:40Z</time></trkpt><trkpt lat="43.78844553534292" lon="7.55800814162779"><ele>87.8</ele><time>2026-04-22T10:39:41Z</time></trkpt><trkpt lat="43.788369383636365" lon="7.557911186285516"><ele>88.2</ele><time>2026-04-22T10:39:42Z</time></trkpt><trkpt lat="43.788289282506035" lon="7.557814768359059"><ele>88.6</ele><time>2026-04-22T10:39:43Z</time></trkpt><trkpt lat="43.78820600979098" lon="7.557717615215182"><ele>89.0</ele><time>2026-04-22T10:39:44Z</time></trkpt><trkpt lat="43.78811225149423" lon="7.557631668908172"><ele>89.0</ele><time>2026-04-22T10:39:45Z</time></trkpt><trkpt lat="43.78800528139084" lon="7.557567748468626"><ele>89.0</ele><time>2026-04-22T10:39:46Z</time></trkpt><trkpt lat="43.78788977868" lon="7.557505751504583"><ele>89.0</ele><time>2026-04-22T10:39:47Z</time></trkpt><trkpt lat="43.787749600365366" lon="7.557529598332865"><ele>89.0</ele><time>2026-04-22T10:39:48Z</time></trkpt><trkpt lat="43.78761376273013" lon="7.557535663691912"><ele>86.60000000000001</ele><time>2026-04-22T10:39:49Z</time></trkpt><trkpt lat="43.78748033197652" lon="7.557554648303252"><ele>84.2</ele><time>2026-04-22T10:39:50Z</time></trkpt><trkpt lat="43.787431007493716" lon="7.557425971365936"><ele>81.80000000000001</ele><time>2026-04-22T10:39:51Z</time></trkpt><trkpt lat="43.78734637368236" lon="7.557415284515279"><ele>79.4</ele><time>2026-04-22T10:39:52Z</time></trkpt><trkpt lat="43.78726422739693" lon="7.557393423157412"><ele>77.0</ele><time>2026-04-22T10:39:53Z</time></trkpt><trkpt lat="43.78718412787812" lon="7.557346641505716"><ele>77.0</ele><time>2026-04-22T10:39:54Z</time></trkpt><trkpt lat="43.78712610965751" lon="7.557246895375284"><ele>77.0</ele><time>2026-04-22T10:39:55Z</time></trkpt><trkpt lat="43.78707747472124" lon="7.557123269055633"><ele>77.0</ele><time>2026-04-22T10:39:56Z</time></trkpt><trkpt lat="43.787063586354435" lon="7.556990493601022"><ele>77.0</ele><time>2026-04-22T10:39:57Z</time></trkpt><trkpt lat="43.78705498525089" lon="7.556840786570455"><ele>77.0</ele><time>2026-04-22T10:39:58Z</time></trkpt><trkpt lat="43.78705957949051" lon="7.556667208977845"><ele>81.8</ele><time>2026-04-22T10:39:59Z</time></trkpt><trkpt lat="43.787073858520266" lon="7.556497420583086"><ele>86.6</ele><time>2026-04-22T10:40:00Z</time></trkpt><trkpt lat="43.787097568801975" lon="7.556338087301553"><ele>91.39999999999999</ele><time>2026-04-22T10:40:01Z</time></trkpt><trkpt lat="43.787113627430045" lon="7.556202376941885"><ele>96.2</ele><time>2026-04-22T10:40:02Z</time></trkpt><trkpt lat="43.787142442209365" lon="7.556093389445599"><ele>101.0</ele><time>2026-04-22T10:40:03Z</time></trkpt><trkpt lat="43.78715633203858" lon="7.5560054784995065"><ele>100.8</ele><time>2026-04-22T10:40:04Z</time></trkpt><trkpt lat="43.787122358082414" lon="7.555833395670461"><ele>100.6</ele><time>2026-04-22T10:40:06Z</time></trkpt><trkpt lat="43.78705347260059" lon="7.555771168236396"><ele>100.4</ele><time>2026-04-22T10:40:07Z</time></trkpt><trkpt lat="43.786969079488095" lon="7.555755648591658"><ele>100.2</ele><time>2026-04-22T10:40:08Z</time></trkpt><trkpt lat="43.78687093418461" lon="7.55579535874875"><ele>100.0</ele><time>2026-04-22T10:40:09Z</time></trkpt><trkpt lat="43.786765513901116" lon="7.55584209106712"><ele>100.0</ele><time>2026-04-22T10:40:10Z</time></trkpt><trkpt lat="43.78665489182866" lon="7.5558959913309"><ele>100.0</ele><time>2026-04-22T10:40:11Z</time></trkpt><trkpt lat="43.7865408881354" lon="7.555949669588423"><ele>100.0</ele><time>2026-04-22T10:40:11.999Z</time></trkpt><trkpt lat="43.7864419025105" lon="7.555999416839806"><ele>100.0</ele><time>2026-04-22T10:40:12.999Z</time></trkpt><trkpt lat="43.78636449175545" lon="7.556021178959994"><ele>100.0</ele><time>2026-04-22T10:40:13.999Z</time></trkpt><trkpt lat="43.7862883523829" lon="7.556012634796058"><ele>100.0</ele><time>2026-04-22T10:40:14.999Z</time></trkpt><trkpt lat="43.7862131725325" lon="7.5559868415433735"><ele>100.0</ele><time>2026-04-22T10:40:15.999Z</time></trkpt><trkpt lat="43.78614281346005" lon="7.555922818673815"><ele>100.0</ele><time>2026-04-22T10:40:16.999Z</time></trkpt><trkpt lat="43.78608240940978" lon="7.55580876598111"><ele>100.0</ele><time>2026-04-22T10:40:17.999Z</time></trkpt><trkpt lat="43.78599693404908" lon="7.555712014302164"><ele>100.0</ele><time>2026-04-22T10:40:18.999Z</time></trkpt><trkpt lat="43.78591969616829" lon="7.5556043962609065"><ele>96.8</ele><time>2026-04-22T10:40:19.999Z</time></trkpt><trkpt lat="43.78583672828954" lon="7.555505448175754"><ele>93.6</ele><time>2026-04-22T10:40:20.999Z</time></trkpt><trkpt lat="43.78574860049166" lon="7.5554209836224135"><ele>90.4</ele><time>2026-04-22T10:40:21.999Z</time></trkpt><trkpt lat="43.78565630263686" lon="7.5553548864948725"><ele>87.2</ele><time>2026-04-22T10:40:22.999Z</time></trkpt><trkpt lat="43.78555663115313" lon="7.555302183372918"><ele>84.0</ele><time>2026-04-22T10:40:23.999Z</time></trkpt><trkpt lat="43.785457890940755" lon="7.5552510356983165"><ele>88.2</ele><time>2026-04-22T10:40:24.999Z</time></trkpt><trkpt lat="43.78536154782111" lon="7.555191052049687"><ele>92.4</ele><time>2026-04-22T10:40:25.999Z</time></trkpt><trkpt lat="43.78526004200955" lon="7.555135028973214"><ele>96.6</ele><time>2026-04-22T10:40:26.999Z</time></trkpt><trkpt lat="43.785162836142064" lon="7.555097989194015"><ele>100.8</ele><time>2026-04-22T10:40:27.999Z</time></trkpt><trkpt lat="43.785079764281924" lon="7.555079309335141"><ele>105.0</ele><time>2026-04-22T10:40:28.999Z</time></trkpt><trkpt lat="43.78500925416813" lon="7.555067045477466"><ele>105.0</ele><time>2026-04-22T10:40:29.999Z</time></trkpt><trkpt lat="43.784943990687196" lon="7.555057384785502"><ele>105.0</ele><time>2026-04-22T10:40:30.999Z</time></trkpt><trkpt lat="43.78483516271585" lon="7.555036228036224"><ele>105.0</ele><time>2026-04-22T10:40:32.999Z</time></trkpt><trkpt lat="43.78473092210245" lon="7.554944142658733"><ele>105.0</ele><time>2026-04-22T10:40:34.999Z</time></trkpt><trkpt lat="43.78470185884144" lon="7.554858113935857"><ele>105.0</ele><time>2026-04-22T10:40:35.999Z</time></trkpt><trkpt lat="43.78469104581116" lon="7.554751963677819"><ele>105.0</ele><time>2026-04-22T10:40:36.999Z</time></trkpt><trkpt lat="43.7846986732698" lon="7.554642158698202"><ele>106.16666666666667</ele><time>2026-04-22T10:40:37.999Z</time></trkpt><trkpt lat="43.78471774093852" lon="7.554533024856608"><ele>107.33333333333334</ele><time>2026-04-22T10:40:38.999Z</time></trkpt><trkpt lat="43.784755212295096" lon="7.554430236347022"><ele>108.5</ele><time>2026-04-22T10:40:39.999Z</time></trkpt><trkpt lat="43.784795079686674" lon="7.554346142541507"><ele>109.66666666666667</ele><time>2026-04-22T10:40:40.999Z</time></trkpt><trkpt lat="43.78485027487615" lon="7.554271649890079"><ele>110.83333333333334</ele><time>2026-04-22T10:40:41.999Z</time></trkpt><trkpt lat="43.784920547918595" lon="7.55419431514111"><ele>112.0</ele><time>2026-04-22T10:40:42.999Z</time></trkpt><trkpt lat="43.784988786402195" lon="7.5541227323870315"><ele>112.00000000000001</ele><time>2026-04-22T10:40:43.999Z</time></trkpt><trkpt lat="43.78504026321396" lon="7.554054692449398"><ele>112.0</ele><time>2026-04-22T10:40:44.999Z</time></trkpt><trkpt lat="43.78509095675026" lon="7.55397642323799"><ele>112.0</ele><time>2026-04-22T10:40:45.999Z</time></trkpt><trkpt lat="43.785138612224" lon="7.553862949224513"><ele>112.0</ele><time>2026-04-22T10:40:46.999Z</time></trkpt><trkpt lat="43.78518761745668" lon="7.553751193595981"><ele>112.00000000000001</ele><time>2026-04-22T10:40:47.999Z</time></trkpt><trkpt lat="43.78522659184386" lon="7.553622747327234"><ele>112.0</ele><time>2026-04-22T10:40:48.999Z</time></trkpt><trkpt lat="43.785245268042175" lon="7.55346929983774"><ele>118.0</ele><time>2026-04-22T10:40:49.999Z</time></trkpt><trkpt lat="43.78524670851386" lon="7.553297248033862"><ele>124.0</ele><time>2026-04-22T10:40:50.999Z</time></trkpt><trkpt lat="43.78524014302955" lon="7.553139158879919"><ele>130.0</ele><time>2026-04-22T10:40:51.999Z</time></trkpt><trkpt lat="43.78523298891595" lon="7.552982254706918"><ele>136.0</ele><time>2026-04-22T10:40:52.999Z</time></trkpt><trkpt lat="43.78521615911815" lon="7.552826659063529"><ele>136.0</ele><time>2026-04-22T10:40:53.999Z</time></trkpt><trkpt lat="43.78520104706009" lon="7.552673984387926"><ele>136.0</ele><time>2026-04-22T10:40:54.999Z</time></trkpt><trkpt lat="43.785192827431295" lon="7.552515880836041"><ele>136.0</ele><time>2026-04-22T10:40:55.999Z</time></trkpt><trkpt lat="43.78519557526613" lon="7.5523590376734955"><ele>136.0</ele><time>2026-04-22T10:40:56.999Z</time></trkpt><trkpt lat="43.78521154331646" lon="7.552198444628934"><ele>137.0</ele><time>2026-04-22T10:40:57.999Z</time></trkpt><trkpt lat="43.785243930082125" lon="7.552036380001004"><ele>138.0</ele><time>2026-04-22T10:40:58.999Z</time></trkpt><trkpt lat="43.78528565010412" lon="7.551880739198588"><ele>139.0</ele><time>2026-04-22T10:40:59.999Z</time></trkpt><trkpt lat="43.785325704821766" lon="7.551732249014412"><ele>140.0</ele><time>2026-04-22T10:41:00.999Z</time></trkpt><trkpt lat="43.78536256484467" lon="7.551591313041469"><ele>140.0</ele><time>2026-04-22T10:41:01.999Z</time></trkpt><trkpt lat="43.78539769597612" lon="7.551451431707122"><ele>140.0</ele><time>2026-04-22T10:41:03Z</time></trkpt><trkpt lat="43.78544347238265" lon="7.551325688358668"><ele>140.0</ele><time>2026-04-22T10:41:04Z</time></trkpt><trkpt lat="43.78550519139787" lon="7.551202633514833"><ele>140.0</ele><time>2026-04-22T10:41:05Z</time></trkpt><trkpt lat="43.785583899310254" lon="7.551082805132976"><ele>140.0</ele><time>2026-04-22T10:41:06Z</time></trkpt><trkpt lat="43.78566746572779" lon="7.550985284977039"><ele>138.5</ele><time>2026-04-22T10:41:07Z</time></trkpt><trkpt lat="43.78575104748848" lon="7.550881645360912"><ele>137.0</ele><time>2026-04-22T10:41:08Z</time></trkpt><trkpt lat="43.78583199852602" lon="7.550766846711022"><ele>135.5</ele><time>2026-04-22T10:41:09Z</time></trkpt><trkpt lat="43.78591159064556" lon="7.550644381662802"><ele>134.0</ele><time>2026-04-22T10:41:10Z</time></trkpt><trkpt lat="43.78599021166521" lon="7.550519577566783"><ele>138.75</ele><time>2026-04-22T10:41:11Z</time></trkpt><trkpt lat="43.78607120587173" lon="7.550390572835384"><ele>143.5</ele><time>2026-04-22T10:41:12Z</time></trkpt><trkpt lat="43.78615328172626" lon="7.55025862072479"><ele>148.25</ele><time>2026-04-22T10:41:13Z</time></trkpt><trkpt lat="43.78623809117739" lon="7.550122556470146"><ele>153.0</ele><time>2026-04-22T10:41:14Z</time></trkpt><trkpt lat="43.786326773015205" lon="7.549984711943982"><ele>153.0</ele><time>2026-04-22T10:41:15Z</time></trkpt><trkpt lat="43.786417938292956" lon="7.549843625407826"><ele>153.0</ele><time>2026-04-22T10:41:16Z</time></trkpt><trkpt lat="43.78650738628212" lon="7.549707340923262"><ele>153.0</ele><time>2026-04-22T10:41:17Z</time></trkpt><trkpt lat="43.78658976931696" lon="7.549581081794507"><ele>153.0</ele><time>2026-04-22T10:41:18Z</time></trkpt><trkpt lat="43.78666128638318" lon="7.549466715476411"><ele>150.20000000000002</ele><time>2026-04-22T10:41:19Z</time></trkpt><trkpt lat="43.78672653717814" lon="7.549349523161175"><ele>147.4</ele><time>2026-04-22T10:41:20Z</time></trkpt><trkpt lat="43.78678709594472" lon="7.549225202241248"><ele>144.60000000000002</ele><time>2026-04-22T10:41:21Z</time></trkpt><trkpt lat="43.78683593925734" lon="7.549106528746373"><ele>141.8</ele><time>2026-04-22T10:41:22Z</time></trkpt><trkpt lat="43.786876484133074" lon="7.548998822217903"><ele>139.0</ele><time>2026-04-22T10:41:23Z</time></trkpt><trkpt lat="43.78691313628247" lon="7.548887395303682"><ele>142.25</ele><time>2026-04-22T10:41:24Z</time></trkpt><trkpt lat="43.78694666902486" lon="7.548775478062194"><ele>145.5</ele><time>2026-04-22T10:41:25Z</time></trkpt><trkpt lat="43.78696689889946" lon="7.548622343829173"><ele>148.75</ele><time>2026-04-22T10:41:26Z</time></trkpt><trkpt lat="43.786981193276084" lon="7.548463577369051"><ele>152.0</ele><time>2026-04-22T10:41:27Z</time></trkpt><trkpt lat="43.78690088909512" lon="7.548307071817138"><ele>151.0</ele><time>2026-04-22T10:41:29Z</time></trkpt><trkpt lat="43.78683700565018" lon="7.548218155455171"><ele>150.0</ele><time>2026-04-22T10:41:30Z</time></trkpt><trkpt lat="43.78675336330306" lon="7.548162016380786"><ele>149.0</ele><time>2026-04-22T10:41:31Z</time></trkpt><trkpt lat="43.78666394399863" lon="7.548143457041922"><ele>148.0</ele><time>2026-04-22T10:41:32Z</time></trkpt><trkpt lat="43.786565576301655" lon="7.548168479237245"><ele>147.0</ele><time>2026-04-22T10:41:33Z</time></trkpt><trkpt lat="43.786478224906475" lon="7.548233321227902"><ele>147.0</ele><time>2026-04-22T10:41:34Z</time></trkpt><trkpt lat="43.78640098911445" lon="7.548338291572348"><ele>147.0</ele><time>2026-04-22T10:41:35Z</time></trkpt><trkpt lat="43.78632539068738" lon="7.548471292069917"><ele>147.0</ele><time>2026-04-22T10:41:36Z</time></trkpt><trkpt lat="43.78623607933471" lon="7.548597682162061"><ele>147.0</ele><time>2026-04-22T10:41:37Z</time></trkpt><trkpt lat="43.786149504041695" lon="7.548726556695319"><ele>148.0</ele><time>2026-04-22T10:41:38Z</time></trkpt><trkpt lat="43.78605383944291" lon="7.548850914444329"><ele>149.0</ele><time>2026-04-22T10:41:39Z</time></trkpt><trkpt lat="43.78595847541034" lon="7.548977889404902"><ele>150.0</ele><time>2026-04-22T10:41:40Z</time></trkpt><trkpt lat="43.78585070540746" lon="7.549089207901805"><ele>151.0</ele><time>2026-04-22T10:41:41Z</time></trkpt><trkpt lat="43.78574246937239" lon="7.549192383034889"><ele>151.0</ele><time>2026-04-22T10:41:42Z</time></trkpt><trkpt lat="43.78563835790535" lon="7.549285943883258"><ele>151.0</ele><time>2026-04-22T10:41:43Z</time></trkpt><trkpt lat="43.78554018321848" lon="7.549383302201307"><ele>151.0</ele><time>2026-04-22T10:41:44Z</time></trkpt><trkpt lat="43.785445734340925" lon="7.549476395429294"><ele>151.0</ele><time>2026-04-22T10:41:45Z</time></trkpt><trkpt lat="43.78535287371018" lon="7.549570133206081"><ele>153.25</ele><time>2026-04-22T10:41:46Z</time></trkpt><trkpt lat="43.785260058989735" lon="7.5496686476070165"><ele>155.5</ele><time>2026-04-22T10:41:47Z</time></trkpt><trkpt lat="43.78517523492973" lon="7.549795590267733"><ele>157.75</ele><time>2026-04-22T10:41:48Z</time></trkpt><trkpt lat="43.78509619231555" lon="7.549924932358535"><ele>160.0</ele><time>2026-04-22T10:41:49Z</time></trkpt><trkpt lat="43.78501322096171" lon="7.550059502431261"><ele>160.0</ele><time>2026-04-22T10:41:50Z</time></trkpt><trkpt lat="43.78492881695534" lon="7.550196220246779"><ele>160.0</ele><time>2026-04-22T10:41:51Z</time></trkpt><trkpt lat="43.784846096041846" lon="7.550331688603629"><ele>160.0</ele><time>2026-04-22T10:41:52Z</time></trkpt><trkpt lat="43.784757017501505" lon="7.550439014668013"><ele>160.0</ele><time>2026-04-22T10:41:53Z</time></trkpt><trkpt lat="43.7846891569916" lon="7.550541977121446"><ele>156.0</ele><time>2026-04-22T10:41:54Z</time></trkpt><trkpt lat="43.78462691742395" lon="7.55063328136215"><ele>152.0</ele><time>2026-04-22T10:41:55Z</time></trkpt><trkpt lat="43.784567261277104" lon="7.550711977240709"><ele>148.0</ele><time>2026-04-22T10:41:56Z</time></trkpt><trkpt lat="43.78450763691869" lon="7.55077408637152"><ele>144.0</ele><time>2026-04-22T10:41:57Z</time></trkpt><trkpt lat="43.78445181760037" lon="7.550820327287617"><ele>140.0</ele><time>2026-04-22T10:41:58Z</time></trkpt><trkpt lat="43.784320585937465" lon="7.550758615398519"><ele>140.0</ele><time>2026-04-22T10:42:00Z</time></trkpt><trkpt lat="43.78428031739452" lon="7.550682506679454"><ele>140.0</ele><time>2026-04-22T10:42:01Z</time></trkpt><trkpt lat="43.784255811586796" lon="7.550567181326837"><ele>140.0</ele><time>2026-04-22T10:42:02Z</time></trkpt><trkpt lat="43.78424123008541" lon="7.550440486482158"><ele>140.0</ele><time>2026-04-22T10:42:03Z</time></trkpt><trkpt lat="43.784236941850395" lon="7.5503005886128465"><ele>140.0</ele><time>2026-04-22T10:42:04Z</time></trkpt><trkpt lat="43.78425271426766" lon="7.55015305112035"><ele>141.4</ele><time>2026-04-22T10:42:05Z</time></trkpt><trkpt lat="43.78427175522474" lon="7.5500034582879625"><ele>142.8</ele><time>2026-04-22T10:42:06Z</time></trkpt><trkpt lat="43.78429493753821" lon="7.549867327174395"><ele>144.2</ele><time>2026-04-22T10:42:07Z</time></trkpt><trkpt lat="43.78431751811485" lon="7.549738760630193"><ele>145.6</ele><time>2026-04-22T10:42:08Z</time></trkpt><trkpt lat="43.78434442325318" lon="7.549597474835971"><ele>147.0</ele><time>2026-04-22T10:42:09Z</time></trkpt><trkpt lat="43.78438036146419" lon="7.549443773094918"><ele>154.5</ele><time>2026-04-22T10:42:10Z</time></trkpt><trkpt lat="43.784426713316634" lon="7.5492874528730916"><ele>162.0</ele><time>2026-04-22T10:42:11Z</time></trkpt><trkpt lat="43.78448323555469" lon="7.549128391197654"><ele>169.5</ele><time>2026-04-22T10:42:12Z</time></trkpt><trkpt lat="43.78454976126871" lon="7.548953653020167"><ele>177.0</ele><time>2026-04-22T10:42:13Z</time></trkpt><trkpt lat="43.784622204591095" lon="7.548763605261607"><ele>173.0</ele><time>2026-04-22T10:42:13.999Z</time></trkpt><trkpt lat="43.784693057059826" lon="7.5485849794890605"><ele>169.0</ele><time>2026-04-22T10:42:14.999Z</time></trkpt><trkpt lat="43.784760228134324" lon="7.5484155577335095"><ele>165.0</ele><time>2026-04-22T10:42:15.999Z</time></trkpt><trkpt lat="43.78482137440553" lon="7.548244944919755"><ele>161.0</ele><time>2026-04-22T10:42:16.999Z</time></trkpt><trkpt lat="43.78488573579246" lon="7.548088434882077"><ele>161.0</ele><time>2026-04-22T10:42:17.999Z</time></trkpt><trkpt lat="43.7849412679203" lon="7.5479430865872255"><ele>161.0</ele><time>2026-04-22T10:42:18.999Z</time></trkpt><trkpt lat="43.78499125735248" lon="7.547806799484259"><ele>161.0</ele><time>2026-04-22T10:42:19.999Z</time></trkpt><trkpt lat="43.785043146057795" lon="7.547662060081184"><ele>161.0</ele><time>2026-04-22T10:42:20.999Z</time></trkpt><trkpt lat="43.78509817739638" lon="7.547524245024849"><ele>162.75</ele><time>2026-04-22T10:42:21.999Z</time></trkpt><trkpt lat="43.785149319637625" lon="7.54738473211449"><ele>164.5</ele><time>2026-04-22T10:42:22.999Z</time></trkpt><trkpt lat="43.785201421980695" lon="7.547247730483757"><ele>166.25</ele><time>2026-04-22T10:42:23.999Z</time></trkpt><trkpt lat="43.78525486981619" lon="7.54710993080074"><ele>168.0</ele><time>2026-04-22T10:42:24.999Z</time></trkpt><trkpt lat="43.78531164338695" lon="7.5469642962532095"><ele>168.0</ele><time>2026-04-22T10:42:25.999Z</time></trkpt><trkpt lat="43.78536963155785" lon="7.5468135579831515"><ele>168.0</ele><time>2026-04-22T10:42:26.999Z</time></trkpt><trkpt lat="43.78542665502646" lon="7.54666491920125"><ele>168.0</ele><time>2026-04-22T10:42:27.999Z</time></trkpt><trkpt lat="43.78548031172866" lon="7.546521270443965"><ele>168.0</ele><time>2026-04-22T10:42:28.999Z</time></trkpt><trkpt lat="43.78553641096195" lon="7.546376973575388"><ele>168.0</ele><time>2026-04-22T10:42:29.999Z</time></trkpt><trkpt lat="43.785594760090255" lon="7.546228801785074"><ele>168.0</ele><time>2026-04-22T10:42:30.999Z</time></trkpt><trkpt lat="43.78565096322437" lon="7.546074406346027"><ele>168.0</ele><time>2026-04-22T10:42:31.999Z</time></trkpt><trkpt lat="43.78571276494862" lon="7.545918099556659"><ele>168.0</ele><time>2026-04-22T10:42:32.999Z</time></trkpt><trkpt lat="43.785771909914516" lon="7.545764307917501"><ele>163.0</ele><time>2026-04-22T10:42:33.999Z</time></trkpt><trkpt lat="43.7858312780285" lon="7.545619455454991"><ele>158.0</ele><time>2026-04-22T10:42:34.999Z</time></trkpt><trkpt lat="43.785887667925024" lon="7.545469657231647"><ele>153.0</ele><time>2026-04-22T10:42:35.999Z</time></trkpt><trkpt lat="43.78594204438431" lon="7.545320714786744"><ele>148.0</ele><time>2026-04-22T10:42:36.999Z</time></trkpt><trkpt lat="43.78599487296596" lon="7.54517724503275"><ele>155.5</ele><time>2026-04-22T10:42:37.999Z</time></trkpt><trkpt lat="43.78604972660566" lon="7.5450333993190535"><ele>163.0</ele><time>2026-04-22T10:42:38.999Z</time></trkpt><trkpt lat="43.78610303207204" lon="7.544892155685546"><ele>170.5</ele><time>2026-04-22T10:42:39.999Z</time></trkpt><trkpt lat="43.786154193260984" lon="7.544753024177279"><ele>178.0</ele><time>2026-04-22T10:42:40.999Z</time></trkpt><trkpt lat="43.78620365409595" lon="7.544613777894197"><ele>172.4</ele><time>2026-04-22T10:42:41.999Z</time></trkpt><trkpt lat="43.7862501395891" lon="7.544473826099368"><ele>166.8</ele><time>2026-04-22T10:42:42.999Z</time></trkpt><trkpt lat="43.78629515797789" lon="7.544328865380834"><ele>161.2</ele><time>2026-04-22T10:42:43.999Z</time></trkpt><trkpt lat="43.78633939037172" lon="7.5441936308587945"><ele>155.6</ele><time>2026-04-22T10:42:44.999Z</time></trkpt><trkpt lat="43.78637764814395" lon="7.544054629208296"><ele>150.0</ele><time>2026-04-22T10:42:45.999Z</time></trkpt><trkpt lat="43.78641925255509" lon="7.543907999349234"><ele>150.0</ele><time>2026-04-22T10:42:46.999Z</time></trkpt><trkpt lat="43.78646232015848" lon="7.543755026540219"><ele>150.0</ele><time>2026-04-22T10:42:47.999Z</time></trkpt><trkpt lat="43.786502792165265" lon="7.54360449295888"><ele>150.0</ele><time>2026-04-22T10:42:48.999Z</time></trkpt><trkpt lat="43.78654088800833" lon="7.543459508268058"><ele>150.0</ele><time>2026-04-22T10:42:49.999Z</time></trkpt><trkpt lat="43.78656978727221" lon="7.5433085274660066"><ele>147.4</ele><time>2026-04-22T10:42:50.999Z</time></trkpt><trkpt lat="43.78658947055764" lon="7.543149972173784"><ele>144.8</ele><time>2026-04-22T10:42:51.999Z</time></trkpt><trkpt lat="43.78660582602285" lon="7.542992802711751"><ele>142.2</ele><time>2026-04-22T10:42:52.999Z</time></trkpt><trkpt lat="43.78661582829647" lon="7.54284294717092"><ele>139.6</ele><time>2026-04-22T10:42:53.999Z</time></trkpt><trkpt lat="43.786626790827206" lon="7.542704663297402"><ele>137.0</ele><time>2026-04-22T10:42:54.999Z</time></trkpt><trkpt lat="43.78663284581343" lon="7.542580155006034"><ele>136.0</ele><time>2026-04-22T10:42:55.999Z</time></trkpt><trkpt lat="43.786641570543935" lon="7.5424533334617525"><ele>135.0</ele><time>2026-04-22T10:42:56.999Z</time></trkpt><trkpt lat="43.786645597937785" lon="7.542332983031079"><ele>134.0</ele><time>2026-04-22T10:42:57.999Z</time></trkpt><trkpt lat="43.78664893774977" lon="7.542214601327708"><ele>133.0</ele><time>2026-04-22T10:42:58.999Z</time></trkpt><trkpt lat="43.78664868024503" lon="7.542096310018834"><ele>132.0</ele><time>2026-04-22T10:42:59.999Z</time></trkpt><trkpt lat="43.78665011283888" lon="7.541972796450437"><ele>131.0</ele><time>2026-04-22T10:43:00.999Z</time></trkpt><trkpt lat="43.78665498082814" lon="7.541841738503724"><ele>129.6</ele><time>2026-04-22T10:43:01.999Z</time></trkpt><trkpt lat="43.78665770435669" lon="7.541705290803969"><ele>128.2</ele><time>2026-04-22T10:43:02.999Z</time></trkpt><trkpt lat="43.78666382384385" lon="7.54157693711577"><ele>126.80000000000001</ele><time>2026-04-22T10:43:03.999Z</time></trkpt><trkpt lat="43.786668471288294" lon="7.54144744567347"><ele>125.4</ele><time>2026-04-22T10:43:04.999Z</time></trkpt><trkpt lat="43.7866694725063" lon="7.541325075928778"><ele>124.0</ele><time>2026-04-22T10:43:05.999Z</time></trkpt><trkpt lat="43.78666711199682" lon="7.54119879006066"><ele>122.2</ele><time>2026-04-22T10:43:06.999Z</time></trkpt><trkpt lat="43.78666462458121" lon="7.541065639275593"><ele>120.4</ele><time>2026-04-22T10:43:07.999Z</time></trkpt><trkpt lat="43.786676194989774" lon="7.540939864663539"><ele>118.6</ele><time>2026-04-22T10:43:09Z</time></trkpt><trkpt lat="43.78669892443412" lon="7.540817918128345"><ele>116.8</ele><time>2026-04-22T10:43:10Z</time></trkpt><trkpt lat="43.78672635758501" lon="7.540703693247361"><ele>115.0</ele><time>2026-04-22T10:43:11Z</time></trkpt><trkpt lat="43.78674969217094" lon="7.540587367677259"><ele>115.00000000000001</ele><time>2026-04-22T10:43:12Z</time></trkpt><trkpt lat="43.78676510136251" lon="7.54047383129922"><ele>115.0</ele><time>2026-04-22T10:43:13Z</time></trkpt><trkpt lat="43.7867672539308" lon="7.540364579946559"><ele>115.0</ele><time>2026-04-22T10:43:14Z</time></trkpt><trkpt lat="43.786734916493785" lon="7.540269615737553"><ele>115.0</ele><time>2026-04-22T10:43:15Z</time></trkpt><trkpt lat="43.78668581086677" lon="7.540180566134914"><ele>115.00000000000001</ele><time>2026-04-22T10:43:16Z</time></trkpt><trkpt lat="43.78662165647105" lon="7.540092921059277"><ele>115.0</ele><time>2026-04-22T10:43:17Z</time></trkpt><trkpt lat="43.78654899455581" lon="7.5399956193049675"><ele>116.8</ele><time>2026-04-22T10:43:18Z</time></trkpt><trkpt lat="43.786473269349415" lon="7.539883236732825"><ele>118.6</ele><time>2026-04-22T10:43:19Z</time></trkpt><trkpt lat="43.786401605147596" lon="7.539759005123659"><ele>120.4</ele><time>2026-04-22T10:43:20Z</time></trkpt><trkpt lat="43.78634605410874" lon="7.539621523125096"><ele>122.2</ele><time>2026-04-22T10:43:21Z</time></trkpt><trkpt lat="43.7862759402906" lon="7.5395106306234965"><ele>124.0</ele><time>2026-04-22T10:43:22Z</time></trkpt><trkpt lat="43.78622528195278" lon="7.539388602174961"><ele>129.2</ele><time>2026-04-22T10:43:23Z</time></trkpt><trkpt lat="43.786183933110486" lon="7.539268550472938"><ele>134.4</ele><time>2026-04-22T10:43:24Z</time></trkpt><trkpt lat="43.78614515098716" lon="7.53914620047566"><ele>139.6</ele><time>2026-04-22T10:43:25Z</time></trkpt><trkpt lat="43.78610255887089" lon="7.53902806112274"><ele>144.8</ele><time>2026-04-22T10:43:26Z</time></trkpt><trkpt lat="43.78605926487451" lon="7.538920656109214"><ele>150.0</ele><time>2026-04-22T10:43:27Z</time></trkpt><trkpt lat="43.78600829531375" lon="7.538818505643886"><ele>142.6</ele><time>2026-04-22T10:43:28Z</time></trkpt><trkpt lat="43.785949573681705" lon="7.538718655659308"><ele>135.2</ele><time>2026-04-22T10:43:29Z</time></trkpt><trkpt lat="43.78588505391121" lon="7.538613988160826"><ele>127.80000000000001</ele><time>2026-04-22T10:43:30Z</time></trkpt><trkpt lat="43.78581985498864" lon="7.538505934581253"><ele>120.4</ele><time>2026-04-22T10:43:31Z</time></trkpt><trkpt lat="43.78575740394687" lon="7.538391138793105"><ele>113.0</ele><time>2026-04-22T10:43:32Z</time></trkpt><trkpt lat="43.785702273874115" lon="7.538264299856347"><ele>113.0</ele><time>2026-04-22T10:43:33Z</time></trkpt><trkpt lat="43.78565535915086" lon="7.538131075272749"><ele>113.00000000000001</ele><time>2026-04-22T10:43:34Z</time></trkpt><trkpt lat="43.7856106985872" lon="7.538004035843507"><ele>113.00000000000001</ele><time>2026-04-22T10:43:35Z</time></trkpt><trkpt lat="43.785560829948295" lon="7.537885927785574"><ele>113.0</ele><time>2026-04-22T10:43:36Z</time></trkpt><trkpt lat="43.7855083818695" lon="7.537769690231384"><ele>113.0</ele><time>2026-04-22T10:43:37Z</time></trkpt><trkpt lat="43.78545671409371" lon="7.537658630272702"><ele>116.4</ele><time>2026-04-22T10:43:38Z</time></trkpt><trkpt lat="43.78539958972606" lon="7.537552749058138"><ele>119.80000000000001</ele><time>2026-04-22T10:43:39Z</time></trkpt><trkpt lat="43.78533737927168" lon="7.537445490443258"><ele>123.2</ele><time>2026-04-22T10:43:40Z</time></trkpt><trkpt lat="43.785266595264964" lon="7.537345081480676"><ele>126.6</ele><time>2026-04-22T10:43:41Z</time></trkpt><trkpt lat="43.78518581116267" lon="7.5372549088837895"><ele>130.0</ele><time>2026-04-22T10:43:42Z</time></trkpt><trkpt lat="43.78510035714242" lon="7.537168132101122"><ele>123.0</ele><time>2026-04-22T10:43:43Z</time></trkpt><trkpt lat="43.78502424699892" lon="7.53708077411224"><ele>116.0</ele><time>2026-04-22T10:43:44Z</time></trkpt><trkpt lat="43.78498616119385" lon="7.536960339017064"><ele>109.0</ele><time>2026-04-22T10:43:45Z</time></trkpt><trkpt lat="43.784973326770135" lon="7.536836569110142"><ele>102.0</ele><time>2026-04-22T10:43:46Z</time></trkpt><trkpt lat="43.78494735970594" lon="7.536698971654513"><ele>95.0</ele><time>2026-04-22T10:43:47Z</time></trkpt><trkpt lat="43.78494685275839" lon="7.536562976707875"><ele>95.0</ele><time>2026-04-22T10:43:48Z</time></trkpt><trkpt lat="43.78493743996285" lon="7.5364352715831435"><ele>95.0</ele><time>2026-04-22T10:43:49Z</time></trkpt><trkpt lat="43.784910589615016" lon="7.536308620451343"><ele>95.0</ele><time>2026-04-22T10:43:50Z</time></trkpt><trkpt lat="43.784868334372234" lon="7.536181074224623"><ele>95.0</ele><time>2026-04-22T10:43:51Z</time></trkpt><trkpt lat="43.784802275813384" lon="7.536059166691062"><ele>95.0</ele><time>2026-04-22T10:43:52Z</time></trkpt><trkpt lat="43.78471406905621" lon="7.535963193494219"><ele>96.2</ele><time>2026-04-22T10:43:53Z</time></trkpt><trkpt lat="43.784616989948" lon="7.535890727481716"><ele>97.4</ele><time>2026-04-22T10:43:54Z</time></trkpt><trkpt lat="43.784523609237816" lon="7.535822359838461"><ele>98.6</ele><time>2026-04-22T10:43:55Z</time></trkpt><trkpt lat="43.78442791318611" lon="7.535774854512849"><ele>99.8</ele><time>2026-04-22T10:43:56Z</time></trkpt><trkpt lat="43.78434956636407" lon="7.535763683991085"><ele>101.0</ele><time>2026-04-22T10:43:57Z</time></trkpt><trkpt lat="43.784284083029924" lon="7.535736412096269"><ele>91.39999999999999</ele><time>2026-04-22T10:43:58Z</time></trkpt><trkpt lat="43.784230173257804" lon="7.535687543452755"><ele>81.8</ele><time>2026-04-22T10:43:59Z</time></trkpt><trkpt lat="43.78412711166848" lon="7.535638865911827"><ele>72.19999999999999</ele><time>2026-04-22T10:44:01Z</time></trkpt><trkpt lat="43.78409364085716" lon="7.535499343715011"><ele>62.599999999999994</ele><time>2026-04-22T10:44:03Z</time></trkpt><trkpt lat="43.784115101601415" lon="7.5354122864887865"><ele>53.0</ele><time>2026-04-22T10:44:04Z</time></trkpt><trkpt lat="43.784185827509525" lon="7.535265321698075"><ele>53.0</ele><time>2026-04-22T10:44:06Z</time></trkpt><trkpt lat="43.78422444966033" lon="7.535177853247005"><ele>53.0</ele><time>2026-04-22T10:44:07Z</time></trkpt><trkpt lat="43.784267518049106" lon="7.53507949947077"><ele>53.0</ele><time>2026-04-22T10:44:08Z</time></trkpt><trkpt lat="43.78430641836079" lon="7.5349552897306555"><ele>53.0</ele><time>2026-04-22T10:44:09Z</time></trkpt><trkpt lat="43.78434632378683" lon="7.534818222923341"><ele>53.0</ele><time>2026-04-22T10:44:10Z</time></trkpt><trkpt lat="43.784381971448774" lon="7.534682977891643"><ele>61.8</ele><time>2026-04-22T10:44:11Z</time></trkpt><trkpt lat="43.78441244983633" lon="7.534552296768577"><ele>70.6</ele><time>2026-04-22T10:44:12Z</time></trkpt><trkpt lat="43.78444228740021" lon="7.534423018208939"><ele>79.39999999999999</ele><time>2026-04-22T10:44:13Z</time></trkpt><trkpt lat="43.78447450596409" lon="7.534295444726682"><ele>88.19999999999999</ele><time>2026-04-22T10:44:14Z</time></trkpt><trkpt lat="43.78452547083902" lon="7.534168322020499"><ele>97.0</ele><time>2026-04-22T10:44:15Z</time></trkpt><trkpt lat="43.784553834926875" lon="7.534033538703126"><ele>97.0</ele><time>2026-04-22T10:44:16Z</time></trkpt><trkpt lat="43.7846179256005" lon="7.533926048913472"><ele>97.0</ele><time>2026-04-22T10:44:17Z</time></trkpt><trkpt lat="43.78470514543799" lon="7.533840509009184"><ele>97.0</ele><time>2026-04-22T10:44:18Z</time></trkpt><trkpt lat="43.78479892750599" lon="7.533768330121739"><ele>97.0</ele><time>2026-04-22T10:44:19Z</time></trkpt><trkpt lat="43.78488569271061" lon="7.533695917013342"><ele>97.0</ele><time>2026-04-22T10:44:20Z</time></trkpt><trkpt lat="43.784959506824734" lon="7.533601671046597"><ele>92.0</ele><time>2026-04-22T10:44:21Z</time></trkpt><trkpt lat="43.785017285968934" lon="7.533487565923113"><ele>87.0</ele><time>2026-04-22T10:44:22Z</time></trkpt><trkpt lat="43.785056727844044" lon="7.533362438045411"><ele>82.0</ele><time>2026-04-22T10:44:23Z</time></trkpt><trkpt lat="43.78507642145097" lon="7.5332247790227225"><ele>77.0</ele><time>2026-04-22T10:44:24Z</time></trkpt><trkpt lat="43.78510489046518" lon="7.5330956181960245"><ele>72.0</ele><time>2026-04-22T10:44:24.999Z</time></trkpt><trkpt lat="43.785144720533154" lon="7.532974020328065"><ele>80.0</ele><time>2026-04-22T10:44:25.999Z</time></trkpt><trkpt lat="43.78519640854333" lon="7.532859956200692"><ele>88.0</ele><time>2026-04-22T10:44:26.999Z</time></trkpt><trkpt lat="43.78525509470075" lon="7.532754039170922"><ele>95.99999999999999</ele><time>2026-04-22T10:44:27.999Z</time></trkpt><trkpt lat="43.78532025694587" lon="7.532659317662432"><ele>104.0</ele><time>2026-04-22T10:44:28.999Z</time></trkpt><trkpt lat="43.78538217728933" lon="7.532565369090792"><ele>112.0</ele><time>2026-04-22T10:44:29.999Z</time></trkpt><trkpt lat="43.78542700517936" lon="7.532458683807021"><ele>112.00000000000001</ele><time>2026-04-22T10:44:30.999Z</time></trkpt><trkpt lat="43.785460388710824" lon="7.532343780027695"><ele>112.0</ele><time>2026-04-22T10:44:31.999Z</time></trkpt><trkpt lat="43.785483143270405" lon="7.5322268244894035"><ele>112.0</ele><time>2026-04-22T10:44:32.999Z</time></trkpt><trkpt lat="43.785505265520214" lon="7.532110865825542"><ele>112.0</ele><time>2026-04-22T10:44:33.999Z</time></trkpt><trkpt lat="43.7855273548033" lon="7.53199409956581"><ele>112.00000000000001</ele><time>2026-04-22T10:44:34.999Z</time></trkpt><trkpt lat="43.785548736097844" lon="7.531868805454726"><ele>112.0</ele><time>2026-04-22T10:44:35.999Z</time></trkpt><trkpt lat="43.785571087687636" lon="7.531737485796902"><ele>105.0</ele><time>2026-04-22T10:44:36.999Z</time></trkpt><trkpt lat="43.7855928394663" lon="7.531597352148383"><ele>97.99999999999999</ele><time>2026-04-22T10:44:37.999Z</time></trkpt><trkpt lat="43.78561689975699" lon="7.53146578667756"><ele>91.0</ele><time>2026-04-22T10:44:38.999Z</time></trkpt><trkpt lat="43.785642665647025" lon="7.531340357321963"><ele>84.0</ele><time>2026-04-22T10:44:39.999Z</time></trkpt><trkpt lat="43.78567283171981" lon="7.531219422698127"><ele>77.0</ele><time>2026-04-22T10:44:40.999Z</time></trkpt><trkpt lat="43.78570221978866" lon="7.531109319793563"><ele>74.0</ele><time>2026-04-22T10:44:41.999Z</time></trkpt><trkpt lat="43.78572743224251" lon="7.53101995892734"><ele>71.0</ele><time>2026-04-22T10:44:42.999Z</time></trkpt><trkpt lat="43.78576962016321" lon="7.53085783551455"><ele>68.0</ele><time>2026-04-22T10:44:44.999Z</time></trkpt><trkpt lat="43.785791386187036" lon="7.530774239057835"><ele>65.0</ele><time>2026-04-22T10:44:45.999Z</time></trkpt><trkpt lat="43.78581303876582" lon="7.530689827690381"><ele>62.00000000000001</ele><time>2026-04-22T10:44:46.999Z</time></trkpt><trkpt lat="43.78583759321447" lon="7.53060506335323"><ele>59.0</ele><time>2026-04-22T10:44:47.999Z</time></trkpt><trkpt lat="43.7858669409057" lon="7.5305180114691685"><ele>59.00000000000001</ele><time>2026-04-22T10:44:48.999Z</time></trkpt><trkpt lat="43.78590017785695" lon="7.530436584600817"><ele>59.0</ele><time>2026-04-22T10:44:49.999Z</time></trkpt><trkpt lat="43.785947443114765" lon="7.530313403787757"><ele>59.0</ele><time>2026-04-22T10:44:51.999Z</time></trkpt><trkpt lat="43.78598525125888" lon="7.530233366690205"><ele>59.0</ele><time>2026-04-22T10:44:54.999Z</time></trkpt><trkpt lat="43.786033569416" lon="7.530148685185005"><ele>59.00000000000001</ele><time>2026-04-22T10:45:05.999Z</time></trkpt><trkpt lat="43.78607525942856" lon="7.5300437561802696"><ele>59.0</ele><time>2026-04-22T10:45:10.999Z</time></trkpt><trkpt lat="43.78610735736033" lon="7.529968267046562"><ele>59.14285714285714</ele><time>2026-04-22T10:45:12.999Z</time></trkpt><trkpt lat="43.78614822187065" lon="7.529882281680981"><ele>59.28571428571429</ele><time>2026-04-22T10:45:15Z</time></trkpt><trkpt lat="43.786185701122754" lon="7.5297998253812075"><ele>59.42857142857143</ele><time>2026-04-22T10:45:17Z</time></trkpt><trkpt lat="43.786215140407435" lon="7.5297186351419025"><ele>59.57142857142857</ele><time>2026-04-22T10:45:21Z</time></trkpt><trkpt lat="43.78624436226006" lon="7.529625506558867"><ele>59.71428571428571</ele><time>2026-04-22T10:45:28Z</time></trkpt><trkpt lat="43.786245866298316" lon="7.529533427667796"><ele>59.85714285714286</ele><time>2026-04-22T10:45:30Z</time></trkpt><trkpt lat="43.78623428109165" lon="7.529434502608531"><ele>60.0</ele><time>2026-04-22T10:45:32Z</time></trkpt><trkpt lat="43.78619029607725" lon="7.5293608080504315"><ele>59.2</ele><time>2026-04-22T10:45:52Z</time></trkpt><trkpt lat="43.78613976189207" lon="7.52927866086272"><ele>58.4</ele><time>2026-04-22T10:45:55Z</time></trkpt><trkpt lat="43.78607987038137" lon="7.529182141669158"><ele>57.599999999999994</ele><time>2026-04-22T10:45:57Z</time></trkpt><trkpt lat="43.786031055001835" lon="7.529053475770769"><ele>56.8</ele><time>2026-04-22T10:45:58.999Z</time></trkpt><trkpt lat="43.78601703347667" lon="7.528918515786242"><ele>56.0</ele><time>2026-04-22T10:46:00.999Z</time></trkpt><trkpt lat="43.786023882334675" lon="7.528765561673912"><ele>56.0</ele><time>2026-04-22T10:46:02.999Z</time></trkpt><trkpt lat="43.78602560614821" lon="7.528599793398819"><ele>61.0</ele><time>2026-04-22T10:46:04.999Z</time></trkpt><trkpt lat="43.7860452534165" lon="7.528450193537229"><ele>61.0</ele><time>2026-04-22T10:46:06.999Z</time></trkpt><trkpt lat="43.78608138506836" lon="7.528336869618222"><ele>61.0</ele><time>2026-04-22T10:46:08.999Z</time></trkpt><trkpt lat="43.786101630819516" lon="7.528251316724805"><ele>61.0</ele><time>2026-04-22T10:46:11.999Z</time></trkpt></trkseg><trkseg><trkpt lat="43.78617798052284" lon="7.528137525467984"><ele>60.99999999999999</ele><time>2026-04-22T11:02:41.998Z</time></trkpt><trkpt lat="43.78621642855438" lon="7.52806275202502"><ele>61.0</ele><time>2026-04-22T11:02:42.998Z</time></trkpt><trkpt lat="43.786256743042394" lon="7.527965308038626"><ele>61.0</ele><time>2026-04-22T11:02:43.998Z</time></trkpt><trkpt lat="43.78630225475225" lon="7.527843695096071"><ele>61.0</ele><time>2026-04-22T11:02:44.998Z</time></trkpt><trkpt lat="43.78634720618729" lon="7.527720196896136"><ele>60.99999999999999</ele><time>2026-04-22T11:02:45.998Z</time></trkpt><trkpt lat="43.786385269533234" lon="7.52763565059938"><ele>61.0</ele><time>2026-04-22T11:02:46.998Z</time></trkpt><trkpt lat="43.78642514239657" lon="7.527524304561344"><ele>60.0</ele><time>2026-04-22T11:02:47.998Z</time></trkpt><trkpt lat="43.78646785093439" lon="7.527399983182857"><ele>58.99999999999999</ele><time>2026-04-22T11:02:48.998Z</time></trkpt><trkpt lat="43.7865067070849" lon="7.527264682448855"><ele>57.99999999999999</ele><time>2026-04-22T11:02:49.998Z</time></trkpt><trkpt lat="43.78654981047807" lon="7.527120783349502"><ele>57.0</ele><time>2026-04-22T11:02:50.998Z</time></trkpt><trkpt lat="43.786593845804695" lon="7.526977621085156"><ele>56.0</ele><time>2026-04-22T11:02:52Z</time></trkpt><trkpt lat="43.78663516000984" lon="7.5268495906514925"><ele>53.199999999999996</ele><time>2026-04-22T11:02:53Z</time></trkpt><trkpt lat="43.786677518762104" lon="7.5267162524809725"><ele>50.39999999999999</ele><time>2026-04-22T11:02:54Z</time></trkpt><trkpt lat="43.786720008735855" lon="7.526583330330138"><ele>47.6</ele><time>2026-04-22T11:02:55Z</time></trkpt><trkpt lat="43.786758700869115" lon="7.526448596022438"><ele>44.8</ele><time>2026-04-22T11:02:56Z</time></trkpt><trkpt lat="43.786788423226895" lon="7.526305557917423"><ele>42.0</ele><time>2026-04-22T11:02:57Z</time></trkpt><trkpt lat="43.786826245630635" lon="7.526162007307736"><ele>51.0</ele><time>2026-04-22T11:02:58Z</time></trkpt><trkpt lat="43.78685513232652" lon="7.526014234109021"><ele>60.0</ele><time>2026-04-22T11:02:59Z</time></trkpt><trkpt lat="43.786879506661236" lon="7.525861711358508"><ele>69.0</ele><time>2026-04-22T11:03:00Z</time></trkpt><trkpt lat="43.78690737047145" lon="7.52570870755624"><ele>78.0</ele><time>2026-04-22T11:03:01Z</time></trkpt><trkpt lat="43.78693688308022" lon="7.525557424400642"><ele>78.0</ele><time>2026-04-22T11:03:02Z</time></trkpt><trkpt lat="43.78696626545434" lon="7.525404230662392"><ele>78.0</ele><time>2026-04-22T11:03:03Z</time></trkpt><trkpt lat="43.786987424748496" lon="7.525244680490008"><ele>78.0</ele><time>2026-04-22T11:03:04Z</time></trkpt><trkpt lat="43.7870001926024" lon="7.525078812556125"><ele>78.0</ele><time>2026-04-22T11:03:05Z</time></trkpt><trkpt lat="43.78700971893079" lon="7.524897802016651"><ele>75.5</ele><time>2026-04-22T11:03:06Z</time></trkpt><trkpt lat="43.78702269110797" lon="7.524709228286066"><ele>73.0</ele><time>2026-04-22T11:03:07Z</time></trkpt><trkpt lat="43.787038470336775" lon="7.524539467623947"><ele>70.5</ele><time>2026-04-22T11:03:08Z</time></trkpt><trkpt lat="43.78703786666085" lon="7.524367271368373"><ele>68.0</ele><time>2026-04-22T11:03:09Z</time></trkpt><trkpt lat="43.78702696956948" lon="7.524180210779625"><ele>68.0</ele><time>2026-04-22T11:03:10Z</time></trkpt><trkpt lat="43.78698618415604" lon="7.523983258818534"><ele>68.0</ele><time>2026-04-22T11:03:11Z</time></trkpt><trkpt lat="43.78694707492593" lon="7.523778499762267"><ele>68.0</ele><time>2026-04-22T11:03:12Z</time></trkpt><trkpt lat="43.78691751921982" lon="7.523572346653605"><ele>68.0</ele><time>2026-04-22T11:03:13Z</time></trkpt><trkpt lat="43.78691605134261" lon="7.523367636411659"><ele>68.0</ele><time>2026-04-22T11:03:14Z</time></trkpt><trkpt lat="43.78690787976624" lon="7.523162370742794"><ele>68.0</ele><time>2026-04-22T11:03:15Z</time></trkpt><trkpt lat="43.78690170577535" lon="7.522987093610918"><ele>68.0</ele><time>2026-04-22T11:03:16Z</time></trkpt><trkpt lat="43.78688690116026" lon="7.522823258208893"><ele>68.0</ele><time>2026-04-22T11:03:17Z</time></trkpt><trkpt lat="43.786890468731315" lon="7.522674960605499"><ele>68.0</ele><time>2026-04-22T11:03:18Z</time></trkpt><trkpt lat="43.78692173615325" lon="7.522536404048243"><ele>68.0</ele><time>2026-04-22T11:03:19Z</time></trkpt><trkpt lat="43.78695170151893" lon="7.522397903942376"><ele>68.0</ele><time>2026-04-22T11:03:19.999Z</time></trkpt><trkpt lat="43.78697479585798" lon="7.522245421549747"><ele>68.0</ele><time>2026-04-22T11:03:20.999Z</time></trkpt><trkpt lat="43.787013356183486" lon="7.5221058096963755"><ele>68.33333333333334</ele><time>2026-04-22T11:03:21.999Z</time></trkpt><trkpt lat="43.78704617567555" lon="7.521986032725441"><ele>68.66666666666667</ele><time>2026-04-22T11:03:22.999Z</time></trkpt><trkpt lat="43.7870649459342" lon="7.521900894581613"><ele>69.0</ele><time>2026-04-22T11:03:23.999Z</time></trkpt><trkpt lat="43.78708606991374" lon="7.521817199956273"><ele>69.33333333333333</ele><time>2026-04-22T11:03:26.999Z</time></trkpt><trkpt lat="43.787104845168685" lon="7.5217310551413155"><ele>69.66666666666666</ele><time>2026-04-22T11:04:02.999Z</time></trkpt><trkpt lat="43.78707627324603" lon="7.521561295294182"><ele>70.0</ele><time>2026-04-22T11:04:04.999Z</time></trkpt><trkpt lat="43.78704304107577" lon="7.521464469706476"><ele>70.0</ele><time>2026-04-22T11:04:05.999Z</time></trkpt><trkpt lat="43.787005074354745" lon="7.521356892702635"><ele>70.0</ele><time>2026-04-22T11:04:06.999Z</time></trkpt><trkpt lat="43.786965566920244" lon="7.52124494303973"><ele>70.0</ele><time>2026-04-22T11:04:07.999Z</time></trkpt><trkpt lat="43.78692978768363" lon="7.521144087090261"><ele>70.0</ele><time>2026-04-22T11:04:08.999Z</time></trkpt><trkpt lat="43.7868988747907" lon="7.521056054707781"><ele>70.0</ele><time>2026-04-22T11:04:09.999Z</time></trkpt><trkpt lat="43.78686592853282" lon="7.5209616587588775"><ele>70.0</ele><time>2026-04-22T11:04:10.999Z</time></trkpt><trkpt lat="43.78683427455571" lon="7.520871215244208"><ele>70.0</ele><time>2026-04-22T11:04:11.999Z</time></trkpt><trkpt lat="43.78679342885132" lon="7.520788823955356"><ele>70.0</ele><time>2026-04-22T11:04:12.999Z</time></trkpt><trkpt lat="43.78678070718137" lon="7.520700235127599"><ele>70.0</ele><time>2026-04-22T11:04:13.999Z</time></trkpt><trkpt lat="43.78679785031613" lon="7.520602126911383"><ele>70.0</ele><time>2026-04-22T11:04:14.999Z</time></trkpt><trkpt lat="43.78679057849013" lon="7.520510160691665"><ele>70.0</ele><time>2026-04-22T11:04:15.999Z</time></trkpt><trkpt lat="43.786818116988336" lon="7.520408530651501"><ele>70.0</ele><time>2026-04-22T11:04:16.999Z</time></trkpt><trkpt lat="43.78685879328774" lon="7.5203063371508385"><ele>70.0</ele><time>2026-04-22T11:04:17.999Z</time></trkpt><trkpt lat="43.78691294585267" lon="7.520221304042166"><ele>70.0</ele><time>2026-04-22T11:04:18.999Z</time></trkpt><trkpt lat="43.7869839221925" lon="7.520153203145576"><ele>70.0</ele><time>2026-04-22T11:04:19.999Z</time></trkpt><trkpt lat="43.787061753605045" lon="7.520086415092524"><ele>70.0</ele><time>2026-04-22T11:04:20.999Z</time></trkpt><trkpt lat="43.787138056248004" lon="7.520011897135249"><ele>70.0</ele><time>2026-04-22T11:04:21.999Z</time></trkpt><trkpt lat="43.78721090632065" lon="7.519942484228828"><ele>70.0</ele><time>2026-04-22T11:04:22.999Z</time></trkpt><trkpt lat="43.78727155374504" lon="7.51987784935515"><ele>70.0</ele><time>2026-04-22T11:04:23.999Z</time></trkpt><trkpt lat="43.78731822822694" lon="7.519799584123305"><ele>70.0</ele><time>2026-04-22T11:04:24.999Z</time></trkpt><trkpt lat="43.787334564964766" lon="7.519633848726335"><ele>70.0</ele><time>2026-04-22T11:04:26.999Z</time></trkpt><trkpt lat="43.787316707179905" lon="7.5195277891326615"><ele>70.0</ele><time>2026-04-22T11:04:27.999Z</time></trkpt><trkpt lat="43.787245933274605" lon="7.519443847393082"><ele>70.0</ele><time>2026-04-22T11:04:28.999Z</time></trkpt><trkpt lat="43.78719779313364" lon="7.519329569442924"><ele>70.0</ele><time>2026-04-22T11:04:29.999Z</time></trkpt><trkpt lat="43.78714054434837" lon="7.519226400828527"><ele>70.66666666666666</ele><time>2026-04-22T11:04:30.999Z</time></trkpt><trkpt lat="43.78710476332264" lon="7.519130610812765"><ele>71.33333333333333</ele><time>2026-04-22T11:04:31.999Z</time></trkpt><trkpt lat="43.7870862322387" lon="7.519043070751284"><ele>72.0</ele><time>2026-04-22T11:04:32.999Z</time></trkpt><trkpt lat="43.78707919630401" lon="7.518944384105243"><ele>72.66666666666667</ele><time>2026-04-22T11:04:33.999Z</time></trkpt><trkpt lat="43.787074212438945" lon="7.518820845434942"><ele>73.33333333333334</ele><time>2026-04-22T11:04:34.999Z</time></trkpt><trkpt lat="43.787060688076835" lon="7.5186805223900475"><ele>74.0</ele><time>2026-04-22T11:04:35.999Z</time></trkpt><trkpt lat="43.78705367032847" lon="7.51852089931417"><ele>74.4</ele><time>2026-04-22T11:04:36.999Z</time></trkpt><trkpt lat="43.78705222515987" lon="7.518359790126639"><ele>74.80000000000001</ele><time>2026-04-22T11:04:37.999Z</time></trkpt><trkpt lat="43.78705106817669" lon="7.51821535779562"><ele>75.19999999999999</ele><time>2026-04-22T11:04:38.999Z</time></trkpt><trkpt lat="43.78704345713134" lon="7.518080925966857"><ele>75.6</ele><time>2026-04-22T11:04:39.999Z</time></trkpt><trkpt lat="43.78704009494561" lon="7.517958881911148"><ele>76.0</ele><time>2026-04-22T11:04:40.999Z</time></trkpt><trkpt lat="43.78702788659728" lon="7.517849949771591"><ele>76.0</ele><time>2026-04-22T11:04:41.999Z</time></trkpt><trkpt lat="43.78699204618683" lon="7.5177615281724215"><ele>76.0</ele><time>2026-04-22T11:04:42.999Z</time></trkpt><trkpt lat="43.78693804750683" lon="7.517716359449503"><ele>76.0</ele><time>2026-04-22T11:04:43.999Z</time></trkpt><trkpt lat="43.78687293149982" lon="7.517670986983269"><ele>76.0</ele><time>2026-04-22T11:04:44.998Z</time></trkpt><trkpt lat="43.78678003908436" lon="7.517718389938156"><ele>76.0</ele><time>2026-04-22T11:04:45.998Z</time></trkpt><trkpt lat="43.78668309846933" lon="7.517774907814273"><ele>76.0</ele><time>2026-04-22T11:04:46.998Z</time></trkpt><trkpt lat="43.786582297976516" lon="7.517808690834805"><ele>73.42857142857143</ele><time>2026-04-22T11:04:47.998Z</time></trkpt><trkpt lat="43.78650433075231" lon="7.517857546222076"><ele>70.85714285714286</ele><time>2026-04-22T11:04:48.998Z</time></trkpt><trkpt lat="43.78642919283435" lon="7.5178583062787565"><ele>68.28571428571429</ele><time>2026-04-22T11:04:49.998Z</time></trkpt><trkpt lat="43.786365825497974" lon="7.517822083366356"><ele>65.71428571428572</ele><time>2026-04-22T11:04:50.998Z</time></trkpt><trkpt lat="43.7863395514581" lon="7.51773008330842"><ele>63.142857142857146</ele><time>2026-04-22T11:04:51.998Z</time></trkpt><trkpt lat="43.78631291152085" lon="7.517647626070618"><ele>60.571428571428584</ele><time>2026-04-22T11:04:52.998Z</time></trkpt><trkpt lat="43.78630628873763" lon="7.5175355511608775"><ele>58.00000000000001</ele><time>2026-04-22T11:04:53.998Z</time></trkpt><trkpt lat="43.786274146303406" lon="7.517411851032394"><ele>57.99999999999999</ele><time>2026-04-22T11:04:54.998Z</time></trkpt><trkpt lat="43.786275665035" lon="7.517290180493729"><ele>58.0</ele><time>2026-04-22T11:04:55.998Z</time></trkpt><trkpt lat="43.786249187704605" lon="7.517178692234752"><ele>58.0</ele><time>2026-04-22T11:04:56.998Z</time></trkpt><trkpt lat="43.786261325583354" lon="7.517078810964625"><ele>58.0</ele><time>2026-04-22T11:04:57.999Z</time></trkpt><trkpt lat="43.78627275250276" lon="7.516979695360296"><ele>57.99999999999999</ele><time>2026-04-22T11:04:58.999Z</time></trkpt><trkpt lat="43.78628891862228" lon="7.5168646470654865"><ele>58.0</ele><time>2026-04-22T11:04:59.999Z</time></trkpt><trkpt lat="43.786303840444305" lon="7.5167489847856235"><ele>58.599999999999994</ele><time>2026-04-22T11:05:00.999Z</time></trkpt><trkpt lat="43.78634076292299" lon="7.5166546141163675"><ele>59.199999999999996</ele><time>2026-04-22T11:05:01.999Z</time></trkpt><trkpt lat="43.78638090649168" lon="7.51655280724035"><ele>59.8</ele><time>2026-04-22T11:05:02.999Z</time></trkpt><trkpt lat="43.786431805840685" lon="7.516438159279812"><ele>60.4</ele><time>2026-04-22T11:05:03.999Z</time></trkpt><trkpt lat="43.78648792326438" lon="7.516323227877576"><ele>61.0</ele><time>2026-04-22T11:05:04.999Z</time></trkpt><trkpt lat="43.786539019128675" lon="7.516205038905822"><ele>58.599999999999994</ele><time>2026-04-22T11:05:05.999Z</time></trkpt><trkpt lat="43.78659652837389" lon="7.516111207377681"><ele>56.199999999999996</ele><time>2026-04-22T11:05:06.999Z</time></trkpt><trkpt lat="43.78667274752088" lon="7.516035740442171"><ele>53.8</ele><time>2026-04-22T11:05:07.999Z</time></trkpt><trkpt lat="43.786761341869145" lon="7.515959304457404"><ele>51.400000000000006</ele><time>2026-04-22T11:05:08.999Z</time></trkpt><trkpt lat="43.78684352776795" lon="7.51588063091058"><ele>49.0</ele><time>2026-04-22T11:05:09.999Z</time></trkpt><trkpt lat="43.78690773815554" lon="7.515788025987043"><ele>52.800000000000004</ele><time>2026-04-22T11:05:10.999Z</time></trkpt><trkpt lat="43.7869438921835" lon="7.5156788199688185"><ele>56.6</ele><time>2026-04-22T11:05:11.999Z</time></trkpt><trkpt lat="43.786968021935174" lon="7.515552503202572"><ele>60.4</ele><time>2026-04-22T11:05:12.999Z</time></trkpt><trkpt lat="43.78696727330536" lon="7.515415135617302"><ele>64.2</ele><time>2026-04-22T11:05:13.999Z</time></trkpt><trkpt lat="43.78695692916182" lon="7.5152698551516375"><ele>68.0</ele><time>2026-04-22T11:05:14.999Z</time></trkpt><trkpt lat="43.78694520070434" lon="7.515126888981498"><ele>68.0</ele><time>2026-04-22T11:05:15.999Z</time></trkpt><trkpt lat="43.78696978606811" lon="7.515001407701056"><ele>68.0</ele><time>2026-04-22T11:05:16.999Z</time></trkpt><trkpt lat="43.78698186571766" lon="7.514882107197827"><ele>68.0</ele><time>2026-04-22T11:05:17.999Z</time></trkpt><trkpt lat="43.787033067479975" lon="7.514780612224346"><ele>68.0</ele><time>2026-04-22T11:05:18.999Z</time></trkpt><trkpt lat="43.78709086596154" lon="7.514681697925929"><ele>68.0</ele><time>2026-04-22T11:05:19.999Z</time></trkpt><trkpt lat="43.78717371625064" lon="7.5145752956811425"><ele>63.5</ele><time>2026-04-22T11:05:20.999Z</time></trkpt><trkpt lat="43.78727044378978" lon="7.5144646567755125"><ele>59.0</ele><time>2026-04-22T11:05:21.999Z</time></trkpt><trkpt lat="43.787363285064" lon="7.514346056509141"><ele>54.5</ele><time>2026-04-22T11:05:22.999Z</time></trkpt><trkpt lat="43.78745080724074" lon="7.514231919214483"><ele>50.0</ele><time>2026-04-22T11:05:23.999Z</time></trkpt><trkpt lat="43.78752844827649" lon="7.514123160677541"><ele>50.0</ele><time>2026-04-22T11:05:24.999Z</time></trkpt><trkpt lat="43.78758128356045" lon="7.514017123468272"><ele>50.0</ele><time>2026-04-22T11:05:25.999Z</time></trkpt><trkpt lat="43.78761287858528" lon="7.5139116368757985"><ele>50.0</ele><time>2026-04-22T11:05:26.999Z</time></trkpt><trkpt lat="43.78762088604406" lon="7.513802851269512"><ele>50.0</ele><time>2026-04-22T11:05:27.999Z</time></trkpt><trkpt lat="43.78763339693811" lon="7.513705616091517"><ele>50.0</ele><time>2026-04-22T11:05:28.999Z</time></trkpt><trkpt lat="43.787562280098626" lon="7.513528460450301"><ele>51.2</ele><time>2026-04-22T11:05:30.999Z</time></trkpt><trkpt lat="43.787451036700794" lon="7.513521333186167"><ele>52.4</ele><time>2026-04-22T11:05:31.999Z</time></trkpt><trkpt lat="43.78736797737252" lon="7.513490457203915"><ele>53.599999999999994</ele><time>2026-04-22T11:05:32.999Z</time></trkpt><trkpt lat="43.78727190843929" lon="7.513453376436225"><ele>54.8</ele><time>2026-04-22T11:05:33.999Z</time></trkpt><trkpt lat="43.78716973303145" lon="7.513415074603276"><ele>56.0</ele><time>2026-04-22T11:05:34.999Z</time></trkpt><trkpt lat="43.787052877459466" lon="7.513388566827069"><ele>56.0</ele><time>2026-04-22T11:05:35.999Z</time></trkpt><trkpt lat="43.786941063319425" lon="7.51338535267387"><ele>55.99999999999999</ele><time>2026-04-22T11:05:36.999Z</time></trkpt><trkpt lat="43.78683316108082" lon="7.513377384091196"><ele>55.99999999999999</ele><time>2026-04-22T11:05:37.999Z</time></trkpt><trkpt lat="43.786720317648985" lon="7.513369014726785"><ele>56.0</ele><time>2026-04-22T11:05:38.999Z</time></trkpt><trkpt lat="43.786630399157886" lon="7.513317408613765"><ele>56.0</ele><time>2026-04-22T11:05:39.999Z</time></trkpt><trkpt lat="43.78655553362479" lon="7.513263952452619"><ele>55.0</ele><time>2026-04-22T11:05:40.999Z</time></trkpt><trkpt lat="43.78648924474696" lon="7.513189295453596"><ele>53.99999999999999</ele><time>2026-04-22T11:05:41.999Z</time></trkpt><trkpt lat="43.78643897224077" lon="7.513093500001986"><ele>53.0</ele><time>2026-04-22T11:05:42.999Z</time></trkpt><trkpt lat="43.786392354400434" lon="7.512975991904853"><ele>52.0</ele><time>2026-04-22T11:05:43.999Z</time></trkpt><trkpt lat="43.78634343852972" lon="7.51284199592055"><ele>51.0</ele><time>2026-04-22T11:05:44.999Z</time></trkpt><trkpt lat="43.78629136866814" lon="7.512698152586972"><ele>53.75</ele><time>2026-04-22T11:05:45.999Z</time></trkpt><trkpt lat="43.786234691335295" lon="7.512541128527216"><ele>56.5</ele><time>2026-04-22T11:05:46.999Z</time></trkpt><trkpt lat="43.78617775150247" lon="7.512383377173983"><ele>59.25</ele><time>2026-04-22T11:05:47.999Z</time></trkpt><trkpt lat="43.78611280803384" lon="7.512234694069146"><ele>62.0</ele><time>2026-04-22T11:05:48.999Z</time></trkpt><trkpt lat="43.78606083298331" lon="7.5120941553285325"><ele>64.4</ele><time>2026-04-22T11:05:49.999Z</time></trkpt><trkpt lat="43.78601928356253" lon="7.511968432230792"><ele>66.80000000000001</ele><time>2026-04-22T11:05:50.999Z</time></trkpt><trkpt lat="43.785974318320996" lon="7.511838807600659"><ele>69.2</ele><time>2026-04-22T11:05:51.999Z</time></trkpt><trkpt lat="43.785911884234665" lon="7.5117006662092125"><ele>71.60000000000001</ele><time>2026-04-22T11:05:52.999Z</time></trkpt><trkpt lat="43.78584708873345" lon="7.511555015511897"><ele>74.0</ele><time>2026-04-22T11:05:53.999Z</time></trkpt><trkpt lat="43.785776365201244" lon="7.511400323663478"><ele>70.25</ele><time>2026-04-22T11:05:54.999Z</time></trkpt><trkpt lat="43.78570505367442" lon="7.51124174245709"><ele>66.5</ele><time>2026-04-22T11:05:55.999Z</time></trkpt><trkpt lat="43.78563955978126" lon="7.511091913570333"><ele>62.75</ele><time>2026-04-22T11:05:56.999Z</time></trkpt><trkpt lat="43.785577151492184" lon="7.51094854655607"><ele>59.0</ele><time>2026-04-22T11:05:57.999Z</time></trkpt><trkpt lat="43.7855129960597" lon="7.510798111348261"><ele>59.0</ele><time>2026-04-22T11:05:58.999Z</time></trkpt><trkpt lat="43.78544763306232" lon="7.510650773073419"><ele>59.0</ele><time>2026-04-22T11:05:59.999Z</time></trkpt><trkpt lat="43.78538473447656" lon="7.510498570868419"><ele>59.0</ele><time>2026-04-22T11:06:00.999Z</time></trkpt><trkpt lat="43.78531787517498" lon="7.510359641367978"><ele>59.0</ele><time>2026-04-22T11:06:01.999Z</time></trkpt><trkpt lat="43.78525044694582" lon="7.510207797009622"><ele>58.25</ele><time>2026-04-22T11:06:02.999Z</time></trkpt><trkpt lat="43.785169430832724" lon="7.51006151261837"><ele>57.5</ele><time>2026-04-22T11:06:03.999Z</time></trkpt><trkpt lat="43.78507762597273" lon="7.509926165526842"><ele>56.75</ele><time>2026-04-22T11:06:04.999Z</time></trkpt><trkpt lat="43.78497927004903" lon="7.509798649293284"><ele>56.0</ele><time>2026-04-22T11:06:05.999Z</time></trkpt><trkpt lat="43.78487669239877" lon="7.50966446108054"><ele>61.75</ele><time>2026-04-22T11:06:06.999Z</time></trkpt><trkpt lat="43.784779899785846" lon="7.509531603851796"><ele>67.5</ele><time>2026-04-22T11:06:07.999Z</time></trkpt><trkpt lat="43.78467461182456" lon="7.509398299143714"><ele>73.25</ele><time>2026-04-22T11:06:08.999Z</time></trkpt><trkpt lat="43.78457442879602" lon="7.50928403950334"><ele>79.0</ele><time>2026-04-22T11:06:09.999Z</time></trkpt><trkpt lat="43.7844948078676" lon="7.509167793951542"><ele>79.00000000000001</ele><time>2026-04-22T11:06:10.999Z</time></trkpt><trkpt lat="43.78443056548133" lon="7.509094375142151"><ele>79.0</ele><time>2026-04-22T11:06:11.999Z</time></trkpt><trkpt lat="43.78438250442107" lon="7.509020140490695"><ele>79.0</ele><time>2026-04-22T11:06:12.999Z</time></trkpt><trkpt lat="43.78434979240872" lon="7.508942279859497"><ele>79.0</ele><time>2026-04-22T11:06:13.999Z</time></trkpt><trkpt lat="43.784386473167864" lon="7.50885951633874"><ele>79.0</ele><time>2026-04-22T11:06:14.999Z</time></trkpt><trkpt lat="43.78441086517886" lon="7.508774645072938"><ele>79.00000000000001</ele><time>2026-04-22T11:06:15.999Z</time></trkpt><trkpt lat="43.78444569996704" lon="7.508671730792567"><ele>79.0</ele><time>2026-04-22T11:06:16.999Z</time></trkpt><trkpt lat="43.78443462800751" lon="7.508572712937402"><ele>78.83333333333333</ele><time>2026-04-22T11:06:17.999Z</time></trkpt><trkpt lat="43.784370719727576" lon="7.508443890343613"><ele>78.66666666666666</ele><time>2026-04-22T11:06:19.999Z</time></trkpt><trkpt lat="43.78430360151473" lon="7.508403227688959"><ele>78.5</ele><time>2026-04-22T11:06:20.999Z</time></trkpt><trkpt lat="43.784224358272795" lon="7.50840488426744"><ele>78.33333333333333</ele><time>2026-04-22T11:06:21.999Z</time></trkpt><trkpt lat="43.784138308973134" lon="7.508386673435366"><ele>78.16666666666667</ele><time>2026-04-22T11:06:22.999Z</time></trkpt><trkpt lat="43.78405039099761" lon="7.508371282905289"><ele>78.0</ele><time>2026-04-22T11:06:23.999Z</time></trkpt><trkpt lat="43.783962097106176" lon="7.508340297601816"><ele>78.0</ele><time>2026-04-22T11:06:24.999Z</time></trkpt><trkpt lat="43.783863576148306" lon="7.5083104456491965"><ele>78.0</ele><time>2026-04-22T11:06:25.999Z</time></trkpt><trkpt lat="43.78376241683835" lon="7.508275028878252"><ele>78.0</ele><time>2026-04-22T11:06:26.999Z</time></trkpt><trkpt lat="43.78365882070304" lon="7.508228187400716"><ele>78.0</ele><time>2026-04-22T11:06:27.999Z</time></trkpt><trkpt lat="43.78356154424535" lon="7.508204798741514"><ele>78.0</ele><time>2026-04-22T11:06:28.999Z</time></trkpt><trkpt lat="43.783463879969375" lon="7.508188580044458"><ele>74.8</ele><time>2026-04-22T11:06:29.999Z</time></trkpt><trkpt lat="43.7833672128784" lon="7.508177198228991"><ele>71.6</ele><time>2026-04-22T11:06:30.999Z</time></trkpt><trkpt lat="43.783266559870306" lon="7.508187543955159"><ele>68.4</ele><time>2026-04-22T11:06:31.999Z</time></trkpt><trkpt lat="43.78317257521448" lon="7.508148095027029"><ele>65.2</ele><time>2026-04-22T11:06:32.999Z</time></trkpt><trkpt lat="43.783072445887754" lon="7.508153818728208"><ele>62.0</ele><time>2026-04-22T11:06:33.999Z</time></trkpt><trkpt lat="43.78297945390166" lon="7.508135313623124"><ele>62.0</ele><time>2026-04-22T11:06:34.999Z</time></trkpt><trkpt lat="43.782882526884364" lon="7.508118414467269"><ele>62.0</ele><time>2026-04-22T11:06:35.999Z</time></trkpt><trkpt lat="43.782781157315846" lon="7.5081020074330835"><ele>62.0</ele><time>2026-04-22T11:06:36.999Z</time></trkpt><trkpt lat="43.782675988450094" lon="7.508047034486239"><ele>62.0</ele><time>2026-04-22T11:06:37.999Z</time></trkpt><trkpt lat="43.78256571213514" lon="7.508028633991416"><ele>62.0</ele><time>2026-04-22T11:06:38.999Z</time></trkpt><trkpt lat="43.78245995313155" lon="7.508005796543496"><ele>60.0</ele><time>2026-04-22T11:06:39.999Z</time></trkpt><trkpt lat="43.78235845105672" lon="7.507967841651479"><ele>58.0</ele><time>2026-04-22T11:06:40.999Z</time></trkpt><trkpt lat="43.782264455776236" lon="7.507932888840569"><ele>56.0</ele><time>2026-04-22T11:06:41.999Z</time></trkpt><trkpt lat="43.78217124429627" lon="7.507899360277633"><ele>54.0</ele><time>2026-04-22T11:06:42.999Z</time></trkpt><trkpt lat="43.782078670273926" lon="7.507865920848589"><ele>52.0</ele><time>2026-04-22T11:06:43.999Z</time></trkpt><trkpt lat="43.78199556855877" lon="7.507824511674494"><ele>56.49999999999999</ele><time>2026-04-22T11:06:44.998Z</time></trkpt><trkpt lat="43.78192158949646" lon="7.507779529838555"><ele>61.0</ele><time>2026-04-22T11:06:45.998Z</time></trkpt><trkpt lat="43.781852793154975" lon="7.507726539182508"><ele>65.5</ele><time>2026-04-22T11:06:46.998Z</time></trkpt><trkpt lat="43.78178681021516" lon="7.507665897973594"><ele>70.0</ele><time>2026-04-22T11:06:47.998Z</time></trkpt><trkpt lat="43.78172461040554" lon="7.507590877892031"><ele>74.5</ele><time>2026-04-22T11:06:48.998Z</time></trkpt><trkpt lat="43.78165629154809" lon="7.507510497076228"><ele>79.0</ele><time>2026-04-22T11:06:49.998Z</time></trkpt><trkpt lat="43.78158244747602" lon="7.507444750810516"><ele>79.0</ele><time>2026-04-22T11:06:50.998Z</time></trkpt><trkpt lat="43.78151796678422" lon="7.507380148925447"><ele>79.0</ele><time>2026-04-22T11:06:51.998Z</time></trkpt><trkpt lat="43.78145238908483" lon="7.507311900307972"><ele>79.0</ele><time>2026-04-22T11:06:52.998Z</time></trkpt><trkpt lat="43.78136656474364" lon="7.5073142177184256"><ele>79.0</ele><time>2026-04-22T11:06:53.998Z</time></trkpt><trkpt lat="43.78129510186449" lon="7.5073405440515435"><ele>79.0</ele><time>2026-04-22T11:06:54.998Z</time></trkpt><trkpt lat="43.78121588767211" lon="7.507357344829484"><ele>79.0</ele><time>2026-04-22T11:06:55.998Z</time></trkpt><trkpt lat="43.78113538971587" lon="7.507367905820754"><ele>79.0</ele><time>2026-04-22T11:06:56.998Z</time></trkpt><trkpt lat="43.78105117896213" lon="7.507362234316605"><ele>79.0</ele><time>2026-04-22T11:06:57.998Z</time></trkpt><trkpt lat="43.78097206318416" lon="7.507360348432256"><ele>79.0</ele><time>2026-04-22T11:06:58.998Z</time></trkpt><trkpt lat="43.78091013605579" lon="7.5072924126852225"><ele>79.0</ele><time>2026-04-22T11:06:59.998Z</time></trkpt><trkpt lat="43.78086001581769" lon="7.507232846779285"><ele>79.0</ele><time>2026-04-22T11:07:00.998Z</time></trkpt><trkpt lat="43.78080444745423" lon="7.507151234490701"><ele>79.0</ele><time>2026-04-22T11:07:01.998Z</time></trkpt><trkpt lat="43.78074717219839" lon="7.507064167451791"><ele>79.2</ele><time>2026-04-22T11:07:02.998Z</time></trkpt><trkpt lat="43.78068463540724" lon="7.506968169926329"><ele>79.4</ele><time>2026-04-22T11:07:03.999Z</time></trkpt><trkpt lat="43.78060615677101" lon="7.506902332013988"><ele>79.6</ele><time>2026-04-22T11:07:04.999Z</time></trkpt><trkpt lat="43.780527813111696" lon="7.506824728883601"><ele>79.8</ele><time>2026-04-22T11:07:05.999Z</time></trkpt><trkpt lat="43.78044909448846" lon="7.506734822813879"><ele>80.0</ele><time>2026-04-22T11:07:06.999Z</time></trkpt><trkpt lat="43.78036656730929" lon="7.50666666998621"><ele>80.0</ele><time>2026-04-22T11:07:07.999Z</time></trkpt><trkpt lat="43.78028235668753" lon="7.506612592242326"><ele>80.0</ele><time>2026-04-22T11:07:08.999Z</time></trkpt><trkpt lat="43.78021382828886" lon="7.506529865975573"><ele>80.0</ele><time>2026-04-22T11:07:09.999Z</time></trkpt><trkpt lat="43.78014233719406" lon="7.506465182763769"><ele>80.0</ele><time>2026-04-22T11:07:10.999Z</time></trkpt><trkpt lat="43.78007145488337" lon="7.506402981530564"><ele>80.0</ele><time>2026-04-22T11:07:11.999Z</time></trkpt><trkpt lat="43.780002354723386" lon="7.506338981611723"><ele>80.0</ele><time>2026-04-22T11:07:12.999Z</time></trkpt><trkpt lat="43.77993278056342" lon="7.506288064761184"><ele>78.85714285714286</ele><time>2026-04-22T11:07:13.999Z</time></trkpt><trkpt lat="43.77989130703115" lon="7.506207928602959"><ele>77.71428571428572</ele><time>2026-04-22T11:07:14.999Z</time></trkpt><trkpt lat="43.7798360392129" lon="7.506152193499724"><ele>76.57142857142858</ele><time>2026-04-22T11:07:15.999Z</time></trkpt><trkpt lat="43.779793136775346" lon="7.506082107686223"><ele>75.42857142857143</ele><time>2026-04-22T11:07:16.999Z</time></trkpt><trkpt lat="43.77974666384227" lon="7.506018325029012"><ele>74.28571428571429</ele><time>2026-04-22T11:07:17.999Z</time></trkpt><trkpt lat="43.77969840121469" lon="7.505959343544241"><ele>73.14285714285715</ele><time>2026-04-22T11:07:18.999Z</time></trkpt><trkpt lat="43.77963617313533" lon="7.505921825417208"><ele>72.0</ele><time>2026-04-22T11:07:19.999Z</time></trkpt><trkpt lat="43.779565051560354" lon="7.505898109319582"><ele>72.0</ele><time>2026-04-22T11:07:20.999Z</time></trkpt><trkpt lat="43.77949623992525" lon="7.505855639016193"><ele>72.0</ele><time>2026-04-22T11:07:21.999Z</time></trkpt><trkpt lat="43.779417894844684" lon="7.505841657955358"><ele>72.0</ele><time>2026-04-22T11:07:22.999Z</time></trkpt><trkpt lat="43.77934912517074" lon="7.505830935119811"><ele>72.0</ele><time>2026-04-22T11:07:23.999Z</time></trkpt><trkpt lat="43.77928083059273" lon="7.505819071743004"><ele>72.0</ele><time>2026-04-22T11:07:24.999Z</time></trkpt><trkpt lat="43.77921188474755" lon="7.505809302335833"><ele>72.0</ele><time>2026-04-22T11:07:25.999Z</time></trkpt><trkpt lat="43.77910496108583" lon="7.505792429226775"><ele>69.4</ele><time>2026-04-22T11:07:27.999Z</time></trkpt><trkpt lat="43.77902011920695" lon="7.50577406311358"><ele>66.80000000000001</ele><time>2026-04-22T11:07:29.999Z</time></trkpt><trkpt lat="43.778993333877665" lon="7.505670388592317"><ele>64.2</ele><time>2026-04-22T11:07:33.999Z</time></trkpt><trkpt lat="43.77912138003215" lon="7.505565984965885"><ele>61.6</ele><time>2026-04-22T11:07:38.999Z</time></trkpt><trkpt lat="43.7791876535187" lon="7.505554803268847"><ele>59.0</ele><time>2026-04-22T11:07:39.999Z</time></trkpt><trkpt lat="43.77931981362932" lon="7.505481092363383"><ele>58.0</ele><time>2026-04-22T11:07:41.999Z</time></trkpt><trkpt lat="43.77942555544585" lon="7.505431186890498"><ele>57.00000000000001</ele><time>2026-04-22T11:07:42.999Z</time></trkpt><trkpt lat="43.77953471330325" lon="7.50539288431739"><ele>56.00000000000001</ele><time>2026-04-22T11:07:43.999Z</time></trkpt><trkpt lat="43.779635878015135" lon="7.505348301041515"><ele>55.0</ele><time>2026-04-22T11:07:44.999Z</time></trkpt><trkpt lat="43.77972331633703" lon="7.505306229072427"><ele>54.0</ele><time>2026-04-22T11:07:45.999Z</time></trkpt><trkpt lat="43.77981963456834" lon="7.505250086560165"><ele>54.0</ele><time>2026-04-22T11:07:47.999Z</time></trkpt><trkpt lat="43.779880107835076" lon="7.505198821942168"><ele>54.0</ele><time>2026-04-22T11:07:51.999Z</time></trkpt><trkpt lat="43.77993570746045" lon="7.505152238511881"><ele>54.0</ele><time>2026-04-22T11:07:52.999Z</time></trkpt><trkpt lat="43.780010232024985" lon="7.505110353545512"><ele>54.0</ele><time>2026-04-22T11:07:53.999Z</time></trkpt><trkpt lat="43.78007834781917" lon="7.505075193702614"><ele>54.0</ele><time>2026-04-22T11:07:54.999Z</time></trkpt><trkpt lat="43.78018274050648" lon="7.505032906933878"><ele>54.0</ele><time>2026-04-22T11:07:56.999Z</time></trkpt><trkpt lat="43.78026512297069" lon="7.5049827175717745"><ele>59.0</ele><time>2026-04-22T11:07:58.999Z</time></trkpt><trkpt lat="43.780394169483465" lon="7.504897863804188"><ele>64.0</ele><time>2026-04-22T11:08:00.999Z</time></trkpt><trkpt lat="43.78049463684507" lon="7.504844835759973"><ele>69.0</ele><time>2026-04-22T11:08:01.999Z</time></trkpt><trkpt lat="43.78059420094314" lon="7.5047871640041155"><ele>74.0</ele><time>2026-04-22T11:08:02.999Z</time></trkpt><trkpt lat="43.780694923152595" lon="7.5047265770233835"><ele>74.0</ele><time>2026-04-22T11:08:03.999Z</time></trkpt><trkpt lat="43.78078657954373" lon="7.504678976937337"><ele>74.0</ele><time>2026-04-22T11:08:04.999Z</time></trkpt><trkpt lat="43.78087087276688" lon="7.50464453335144"><ele>74.0</ele><time>2026-04-22T11:08:05.999Z</time></trkpt><trkpt lat="43.78094979315435" lon="7.504622559949277"><ele>74.0</ele><time>2026-04-22T11:08:06.999Z</time></trkpt><trkpt lat="43.78103149968246" lon="7.5045074018963565"><ele>74.0</ele><time>2026-04-22T11:08:09.999Z</time></trkpt><trkpt lat="43.780974143874005" lon="7.504456284099722"><ele>74.0</ele><time>2026-04-22T11:08:12.999Z</time></trkpt><trkpt lat="43.780878939762125" lon="7.504483843164179"><ele>74.0</ele><time>2026-04-22T11:08:14.999Z</time></trkpt><trkpt lat="43.78081939820606" lon="7.504513320616642"><ele>74.0</ele><time>2026-04-22T11:08:15.999Z</time></trkpt><trkpt lat="43.780748696835616" lon="7.504550654244734"><ele>74.0</ele><time>2026-04-22T11:08:16.999Z</time></trkpt><trkpt lat="43.78067096875451" lon="7.5045917360656205"><ele>74.0</ele><time>2026-04-22T11:08:17.999Z</time></trkpt><trkpt lat="43.78058860916708" lon="7.504634439237284"><ele>74.0</ele><time>2026-04-22T11:08:18.999Z</time></trkpt><trkpt lat="43.780509244763586" lon="7.504674523485325"><ele>74.0</ele><time>2026-04-22T11:08:19.999Z</time></trkpt><trkpt lat="43.78043252736987" lon="7.504712769676442"><ele>74.0</ele><time>2026-04-22T11:08:20.999Z</time></trkpt><trkpt lat="43.78035661727745" lon="7.504749612520365"><ele>74.0</ele><time>2026-04-22T11:08:21.999Z</time></trkpt><trkpt lat="43.78026899810369" lon="7.504783837884665"><ele>74.0</ele><time>2026-04-22T11:08:22.999Z</time></trkpt><trkpt lat="43.78017788303141" lon="7.504806754626848"><ele>74.0</ele><time>2026-04-22T11:08:23.999Z</time></trkpt><trkpt lat="43.780102507837896" lon="7.504807467842062"><ele>74.0</ele><time>2026-04-22T11:08:24.999Z</time></trkpt><trkpt lat="43.7799937541884" lon="7.504810019470037"><ele>70.0</ele><time>2026-04-22T11:08:26.999Z</time></trkpt><trkpt lat="43.77991796735018" lon="7.5048100194693586"><ele>66.0</ele><time>2026-04-22T11:08:28.999Z</time></trkpt><trkpt lat="43.779820975266375" lon="7.504814119469008"><ele>62.00000000000001</ele><time>2026-04-22T11:08:30.999Z</time></trkpt><trkpt lat="43.779690358130026" lon="7.504824429359204"><ele>58.0</ele><time>2026-04-22T11:08:32.999Z</time></trkpt><trkpt lat="43.77961292686748" lon="7.504822119461636"><ele>54.0</ele><time>2026-04-22T11:08:33.999Z</time></trkpt><trkpt lat="43.779513044894536" lon="7.504820756241032"><ele>54.0</ele><time>2026-04-22T11:08:34.999Z</time></trkpt><trkpt lat="43.779418431897575" lon="7.504817914346105"><ele>54.0</ele><time>2026-04-22T11:08:35.999Z</time></trkpt><trkpt lat="43.77933559178662" lon="7.5048131997223155"><ele>54.0</ele><time>2026-04-22T11:08:36.999Z</time></trkpt><trkpt lat="43.77925353145161" lon="7.504809585545486"><ele>54.0</ele><time>2026-04-22T11:08:37.999Z</time></trkpt><trkpt lat="43.77916922289513" lon="7.504810019455252"><ele>54.0</ele><time>2026-04-22T11:08:38.999Z</time></trkpt><trkpt lat="43.77909001432954" lon="7.504817179031615"><ele>54.0</ele><time>2026-04-22T11:08:39.999Z</time></trkpt><trkpt lat="43.778998141932554" lon="7.504854708576643"><ele>52.5</ele><time>2026-04-22T11:08:40.999Z</time></trkpt><trkpt lat="43.77891027090302" lon="7.5049087579116165"><ele>51.0</ele><time>2026-04-22T11:08:41.999Z</time></trkpt><trkpt lat="43.778832809077315" lon="7.504950056241178"><ele>49.5</ele><time>2026-04-22T11:08:42.999Z</time></trkpt><trkpt lat="43.778761525061746" lon="7.504952219449386"><ele>48.0</ele><time>2026-04-22T11:08:43.999Z</time></trkpt><trkpt lat="43.77869570245184" lon="7.5049269185786756"><ele>46.5</ele><time>2026-04-22T11:08:44.999Z</time></trkpt><trkpt lat="43.778630610265125" lon="7.504874453437959"><ele>45.0</ele><time>2026-04-22T11:08:45.999Z</time></trkpt><trkpt lat="43.77855704771614" lon="7.504796702517344"><ele>45.0</ele><time>2026-04-22T11:08:46.999Z</time></trkpt><trkpt lat="43.77848340697759" lon="7.504710130242366"><ele>45.0</ele><time>2026-04-22T11:08:47.999Z</time></trkpt><trkpt lat="43.778391596234314" lon="7.504639724877633"><ele>45.0</ele><time>2026-04-22T11:08:48.998Z</time></trkpt><trkpt lat="43.778285613318104" lon="7.504588714584611"><ele>45.0</ele><time>2026-04-22T11:08:49.998Z</time></trkpt><trkpt lat="43.77818286738425" lon="7.504545342118319"><ele>45.0</ele><time>2026-04-22T11:08:50.998Z</time></trkpt><trkpt lat="43.778084699203134" lon="7.504506822388735"><ele>41.6</ele><time>2026-04-22T11:08:51.998Z</time></trkpt><trkpt lat="43.77798673478456" lon="7.504467175324496"><ele>38.2</ele><time>2026-04-22T11:08:52.998Z</time></trkpt><trkpt lat="43.77788857814401" lon="7.504427342595212"><ele>34.8</ele><time>2026-04-22T11:08:53.998Z</time></trkpt><trkpt lat="43.77779450264648" lon="7.504388719884267"><ele>31.4</ele><time>2026-04-22T11:08:54.998Z</time></trkpt><trkpt lat="43.77770331464733" lon="7.504348031818033"><ele>28.0</ele><time>2026-04-22T11:08:55.998Z</time></trkpt><trkpt lat="43.77761104245426" lon="7.5043129975654255"><ele>27.799999999999997</ele><time>2026-04-22T11:08:56.998Z</time></trkpt><trkpt lat="43.7775180738502" lon="7.504295092240378"><ele>27.599999999999998</ele><time>2026-04-22T11:08:57.998Z</time></trkpt><trkpt lat="43.77743301003986" lon="7.504289517087466"><ele>27.400000000000002</ele><time>2026-04-22T11:08:58.998Z</time></trkpt><trkpt lat="43.77733990184658" lon="7.504326545917437"><ele>27.200000000000003</ele><time>2026-04-22T11:08:59.999Z</time></trkpt><trkpt lat="43.777270225921995" lon="7.504417690544923"><ele>27.0</ele><time>2026-04-22T11:09:00.998Z</time></trkpt><trkpt lat="43.777198752727564" lon="7.504472870867714"><ele>27.0</ele><time>2026-04-22T11:09:01.998Z</time></trkpt><trkpt lat="43.777131062688724" lon="7.504549294069935"><ele>27.0</ele><time>2026-04-22T11:09:02.998Z</time></trkpt><trkpt lat="43.77706464566909" lon="7.5046331343027255"><ele>27.0</ele><time>2026-04-22T11:09:03.998Z</time></trkpt><trkpt lat="43.77699660262302" lon="7.504713337795522"><ele>27.0</ele><time>2026-04-22T11:09:04.998Z</time></trkpt><trkpt lat="43.776928094875444" lon="7.504786672636716"><ele>27.0</ele><time>2026-04-22T11:09:05.998Z</time></trkpt><trkpt lat="43.776848556423765" lon="7.504832914283651"><ele>27.0</ele><time>2026-04-22T11:09:06.998Z</time></trkpt><trkpt lat="43.77678442520037" lon="7.504895087404131"><ele>26.666666666666668</ele><time>2026-04-22T11:09:07.998Z</time></trkpt><trkpt lat="43.77672648839797" lon="7.504957854921373"><ele>26.333333333333336</ele><time>2026-04-22T11:09:08.999Z</time></trkpt><trkpt lat="43.7766583152034" lon="7.505071720412289"><ele>26.0</ele><time>2026-04-22T11:09:10.999Z</time></trkpt><trkpt lat="43.776620650047974" lon="7.505164108697131"><ele>25.666666666666668</ele><time>2026-04-22T11:09:12.999Z</time></trkpt><trkpt lat="43.77656891592672" lon="7.505250452638307"><ele>25.333333333333336</ele><time>2026-04-22T11:09:14.999Z</time></trkpt><trkpt lat="43.77654048182406" lon="7.505346542381365"><ele>25.0</ele><time>2026-04-22T11:09:17.999Z</time></trkpt><trkpt lat="43.77651135517695" lon="7.505453764375646"><ele>25.0</ele><time>2026-04-22T11:09:19.999Z</time></trkpt><trkpt lat="43.77647167073267" lon="7.505612433411811"><ele>25.0</ele><time>2026-04-22T11:09:21.999Z</time></trkpt><trkpt lat="43.776449944605936" lon="7.505711871352539"><ele>25.0</ele><time>2026-04-22T11:09:22.999Z</time></trkpt><trkpt lat="43.77640615804019" lon="7.505857549153705"><ele>25.0</ele><time>2026-04-22T11:09:24.999Z</time></trkpt><trkpt lat="43.77631871564917" lon="7.505924828612955"><ele>25.0</ele><time>2026-04-22T11:09:26.999Z</time></trkpt><trkpt lat="43.77625023140811" lon="7.505903355688424"><ele>25.000000000000004</ele><time>2026-04-22T11:09:27.999Z</time></trkpt><trkpt lat="43.7761749675947" lon="7.505846405692781"><ele>25.0</ele><time>2026-04-22T11:09:28.999Z</time></trkpt><trkpt lat="43.77611097485646" lon="7.505809103112437"><ele>25.0</ele><time>2026-04-22T11:09:29.999Z</time></trkpt><trkpt lat="43.77605457659496" lon="7.505764940707057"><ele>25.0</ele><time>2026-04-22T11:09:30.999Z</time></trkpt><trkpt lat="43.77605463917658" lon="7.505628981090155"><ele>25.000000000000004</ele><time>2026-04-22T11:09:32.999Z</time></trkpt><trkpt lat="43.77603645540216" lon="7.50552123138461"><ele>25.0</ele><time>2026-04-22T11:09:33.999Z</time></trkpt><trkpt lat="43.77601847605649" lon="7.505429171629622"><ele>22.833333333333336</ele><time>2026-04-22T11:09:34.999Z</time></trkpt><trkpt lat="43.776000926064434" lon="7.505330875573214"><ele>20.666666666666668</ele><time>2026-04-22T11:09:35.999Z</time></trkpt><trkpt lat="43.77598198643173" lon="7.505224796250765"><ele>18.5</ele><time>2026-04-22T11:09:36.999Z</time></trkpt><trkpt lat="43.77596016511914" lon="7.505108761905576"><ele>16.333333333333336</ele><time>2026-04-22T11:09:37.999Z</time></trkpt><trkpt lat="43.77593793556579" lon="7.504992604651008"><ele>14.166666666666668</ele><time>2026-04-22T11:09:38.999Z</time></trkpt><trkpt lat="43.77591811687603" lon="7.504894922038771"><ele>12.0</ele><time>2026-04-22T11:09:39.999Z</time></trkpt><trkpt lat="43.77592204665306" lon="7.5047681689013395"><ele>12.0</ele><time>2026-04-22T11:09:41.999Z</time></trkpt><trkpt lat="43.776014952595524" lon="7.504716862942095"><ele>12.0</ele><time>2026-04-22T11:09:43.999Z</time></trkpt><trkpt lat="43.776077328996465" lon="7.5046800327005565"><ele>12.0</ele><time>2026-04-22T11:09:44.999Z</time></trkpt><trkpt lat="43.77615925573991" lon="7.50463187364517"><ele>12.0</ele><time>2026-04-22T11:09:45.999Z</time></trkpt><trkpt lat="43.776250278456125" lon="7.504579185840633"><ele>12.0</ele><time>2026-04-22T11:09:46.999Z</time></trkpt><trkpt lat="43.77633961319692" lon="7.50452279850103"><ele>12.833333333333334</ele><time>2026-04-22T11:09:47.999Z</time></trkpt><trkpt lat="43.77642449827855" lon="7.504468191092319"><ele>13.666666666666668</ele><time>2026-04-22T11:09:48.999Z</time></trkpt><trkpt lat="43.77649693691207" lon="7.504424366611911"><ele>14.5</ele><time>2026-04-22T11:09:49.999Z</time></trkpt><trkpt lat="43.77656295584699" lon="7.504364041566172"><ele>15.333333333333334</ele><time>2026-04-22T11:09:50.999Z</time></trkpt><trkpt lat="43.77663676919584" lon="7.5043349485669095"><ele>16.166666666666668</ele><time>2026-04-22T11:09:51.999Z</time></trkpt><trkpt lat="43.77671114882724" lon="7.504277087152622"><ele>17.0</ele><time>2026-04-22T11:09:52.999Z</time></trkpt><trkpt lat="43.776788012421875" lon="7.504220887238845"><ele>18.666666666666668</ele><time>2026-04-22T11:09:53.999Z</time></trkpt><trkpt lat="43.77686207339731" lon="7.504170343530606"><ele>20.333333333333336</ele><time>2026-04-22T11:09:54.999Z</time></trkpt><trkpt lat="43.77691796126735" lon="7.504122012514768"><ele>22.0</ele><time>2026-04-22T11:09:55.999Z</time></trkpt><trkpt lat="43.77698185692484" lon="7.504077812038256"><ele>23.666666666666668</ele><time>2026-04-22T11:09:56.999Z</time></trkpt><trkpt lat="43.77705059143773" lon="7.5040374963248375"><ele>25.333333333333332</ele><time>2026-04-22T11:09:57.999Z</time></trkpt><trkpt lat="43.77712718603167" lon="7.5039812853152865"><ele>27.0</ele><time>2026-04-22T11:09:58.999Z</time></trkpt><trkpt lat="43.77718998235733" lon="7.503941932117482"><ele>27.0</ele><time>2026-04-22T11:09:59.999Z</time></trkpt><trkpt lat="43.77725363406975" lon="7.503897586606101"><ele>27.000000000000004</ele><time>2026-04-22T11:10:01.999Z</time></trkpt><trkpt lat="43.77723708588652" lon="7.503632885554443"><ele>27.000000000000004</ele><time>2026-04-22T11:10:09.999Z</time></trkpt><trkpt lat="43.77720013551176" lon="7.503515951707109"><ele>27.0</ele><time>2026-04-22T11:10:10.999Z</time></trkpt><trkpt lat="43.77717070778128" lon="7.503417228063445"><ele>27.0</ele><time>2026-04-22T11:10:11.999Z</time></trkpt><trkpt lat="43.777135879206696" lon="7.503321382514227"><ele>26.5</ele><time>2026-04-22T11:10:12.999Z</time></trkpt><trkpt lat="43.777110257962164" lon="7.503202819403949"><ele>26.0</ele><time>2026-04-22T11:10:13.999Z</time></trkpt><trkpt lat="43.77707978194019" lon="7.503112219797141"><ele>25.5</ele><time>2026-04-22T11:10:14.999Z</time></trkpt><trkpt lat="43.77704709043237" lon="7.5029953868174575"><ele>25.0</ele><time>2026-04-22T11:10:15.999Z</time></trkpt><trkpt lat="43.77701506204276" lon="7.502884782375014"><ele>24.5</ele><time>2026-04-22T11:10:16.999Z</time></trkpt><trkpt lat="43.77698890581487" lon="7.5027699499550025"><ele>24.0</ele><time>2026-04-22T11:10:17.999Z</time></trkpt><trkpt lat="43.776959206100756" lon="7.502639371562274"><ele>23.799999999999997</ele><time>2026-04-22T11:10:18.999Z</time></trkpt><trkpt lat="43.77692753601988" lon="7.502488656993574"><ele>23.599999999999998</ele><time>2026-04-22T11:10:19.999Z</time></trkpt><trkpt lat="43.77688446485554" lon="7.502346672698545"><ele>23.4</ele><time>2026-04-22T11:10:20.999Z</time></trkpt><trkpt lat="43.77683824879804" lon="7.502215281373275"><ele>23.2</ele><time>2026-04-22T11:10:21.999Z</time></trkpt><trkpt lat="43.77679892659048" lon="7.502093411808002"><ele>23.0</ele><time>2026-04-22T11:10:22.999Z</time></trkpt><trkpt lat="43.7767508766353" lon="7.501971584402002"><ele>23.4</ele><time>2026-04-22T11:10:23.999Z</time></trkpt><trkpt lat="43.77671103524891" lon="7.501835676401279"><ele>23.799999999999997</ele><time>2026-04-22T11:10:24.999Z</time></trkpt><trkpt lat="43.77666705766374" lon="7.501693518238443"><ele>24.2</ele><time>2026-04-22T11:10:25.999Z</time></trkpt><trkpt lat="43.776628259981045" lon="7.501566282797867"><ele>24.6</ele><time>2026-04-22T11:10:26.999Z</time></trkpt><trkpt lat="43.776601980477" lon="7.501440531743927"><ele>25.0</ele><time>2026-04-22T11:10:27.999Z</time></trkpt><trkpt lat="43.776582633651564" lon="7.501309072359641"><ele>25.0</ele><time>2026-04-22T11:10:28.999Z</time></trkpt><trkpt lat="43.776554954237106" lon="7.501166025204224"><ele>25.0</ele><time>2026-04-22T11:10:29.999Z</time></trkpt><trkpt lat="43.77651906223449" lon="7.501028108293726"><ele>25.0</ele><time>2026-04-22T11:10:30.999Z</time></trkpt><trkpt lat="43.77650740531623" lon="7.500910296314447"><ele>25.0</ele><time>2026-04-22T11:10:31.999Z</time></trkpt><trkpt lat="43.77649189413487" lon="7.500798790139064"><ele>25.0</ele><time>2026-04-22T11:10:32.999Z</time></trkpt><trkpt lat="43.776476891991976" lon="7.500682189052018"><ele>25.0</ele><time>2026-04-22T11:10:33.999Z</time></trkpt><trkpt lat="43.77646255119957" lon="7.500561426510948"><ele>25.0</ele><time>2026-04-22T11:10:34.999Z</time></trkpt><trkpt lat="43.77644976373341" lon="7.500440816813484"><ele>25.0</ele><time>2026-04-22T11:10:35.999Z</time></trkpt><trkpt lat="43.776434523367044" lon="7.500316893032873"><ele>25.0</ele><time>2026-04-22T11:10:36.999Z</time></trkpt><trkpt lat="43.776422930221166" lon="7.500183929664584"><ele>25.0</ele><time>2026-04-22T11:10:37.999Z</time></trkpt><trkpt lat="43.776417377082325" lon="7.500049188700842"><ele>26.0</ele><time>2026-04-22T11:10:38.999Z</time></trkpt><trkpt lat="43.77641503630371" lon="7.499897459852001"><ele>27.0</ele><time>2026-04-22T11:10:39.999Z</time></trkpt><trkpt lat="43.77641276876196" lon="7.499750414000798"><ele>28.0</ele><time>2026-04-22T11:10:40.999Z</time></trkpt><trkpt lat="43.776410957578896" lon="7.499605181208161"><ele>29.0</ele><time>2026-04-22T11:10:41.999Z</time></trkpt><trkpt lat="43.776405938381" lon="7.499461960393278"><ele>30.0</ele><time>2026-04-22T11:10:42.999Z</time></trkpt><trkpt lat="43.776405242881715" lon="7.499322708190537"><ele>30.0</ele><time>2026-04-22T11:10:43.999Z</time></trkpt><trkpt lat="43.77640196346124" lon="7.499180091495568"><ele>30.0</ele><time>2026-04-22T11:10:44.999Z</time></trkpt><trkpt lat="43.77639809781122" lon="7.499038002165061"><ele>30.0</ele><time>2026-04-22T11:10:45.999Z</time></trkpt><trkpt lat="43.77639199882335" lon="7.4988992079818315"><ele>30.0</ele><time>2026-04-22T11:10:46.999Z</time></trkpt><trkpt lat="43.77639294527882" lon="7.498770513651131"><ele>30.0</ele><time>2026-04-22T11:10:47.999Z</time></trkpt><trkpt lat="43.77639112016543" lon="7.498649394099178"><ele>30.0</ele><time>2026-04-22T11:10:48.999Z</time></trkpt><trkpt lat="43.77638880147316" lon="7.4985406945085025"><ele>30.0</ele><time>2026-04-22T11:10:49.999Z</time></trkpt><trkpt lat="43.77638496260853" lon="7.49842942880816"><ele>30.0</ele><time>2026-04-22T11:10:50.999Z</time></trkpt><trkpt lat="43.77638463339322" lon="7.4983126875920885"><ele>30.0</ele><time>2026-04-22T11:10:51.999Z</time></trkpt><trkpt lat="43.7763843744141" lon="7.498198920610669"><ele>30.0</ele><time>2026-04-22T11:10:52.999Z</time></trkpt><trkpt lat="43.776373389610555" lon="7.498076598244653"><ele>30.0</ele><time>2026-04-22T11:10:53.999Z</time></trkpt><trkpt lat="43.77636216781448" lon="7.497952709326889"><ele>30.0</ele><time>2026-04-22T11:10:54.998Z</time></trkpt><trkpt lat="43.77635094907566" lon="7.497820278208228"><ele>30.0</ele><time>2026-04-22T11:10:55.998Z</time></trkpt><trkpt lat="43.776342130645965" lon="7.497681261621892"><ele>30.0</ele><time>2026-04-22T11:10:56.998Z</time></trkpt><trkpt lat="43.77633534324199" lon="7.497543219223388"><ele>30.0</ele><time>2026-04-22T11:10:57.998Z</time></trkpt><trkpt lat="43.77632706489442" lon="7.4973934811849725"><ele>30.0</ele><time>2026-04-22T11:10:58.998Z</time></trkpt><trkpt lat="43.77632032360631" lon="7.497240231050168"><ele>30.0</ele><time>2026-04-22T11:10:59.998Z</time></trkpt><trkpt lat="43.77630905632896" lon="7.497088765194698"><ele>30.0</ele><time>2026-04-22T11:11:00.998Z</time></trkpt><trkpt lat="43.77628294000608" lon="7.4969531163896725"><ele>30.0</ele><time>2026-04-22T11:11:01.998Z</time></trkpt><trkpt lat="43.77626322386571" lon="7.496825878669805"><ele>30.0</ele><time>2026-04-22T11:11:02.998Z</time></trkpt><trkpt lat="43.776237699709135" lon="7.496702331116808"><ele>30.0</ele><time>2026-04-22T11:11:03.998Z</time></trkpt><trkpt lat="43.7762015132832" lon="7.496570301035821"><ele>30.2</ele><time>2026-04-22T11:11:04.998Z</time></trkpt><trkpt lat="43.77617191308373" lon="7.496442017529821"><ele>30.4</ele><time>2026-04-22T11:11:05.998Z</time></trkpt><trkpt lat="43.77614518783717" lon="7.496313974382453"><ele>30.6</ele><time>2026-04-22T11:11:06.998Z</time></trkpt><trkpt lat="43.776121634608714" lon="7.496197944297338"><ele>30.8</ele><time>2026-04-22T11:11:07.998Z</time></trkpt><trkpt lat="43.776088951085306" lon="7.496082669844494"><ele>31.0</ele><time>2026-04-22T11:11:08.998Z</time></trkpt><trkpt lat="43.776041891657684" lon="7.495992926647336"><ele>28.400000000000002</ele><time>2026-04-22T11:11:09.998Z</time></trkpt><trkpt lat="43.775986479125976" lon="7.495884894213133"><ele>25.8</ele><time>2026-04-22T11:11:10.998Z</time></trkpt><trkpt lat="43.77593312874545" lon="7.495776352891687"><ele>23.200000000000003</ele><time>2026-04-22T11:11:11.998Z</time></trkpt><trkpt lat="43.77589458330892" lon="7.495653120090951"><ele>20.6</ele><time>2026-04-22T11:11:12.998Z</time></trkpt><trkpt lat="43.77583293327735" lon="7.49554843381032"><ele>18.0</ele><time>2026-04-22T11:11:13.999Z</time></trkpt><trkpt lat="43.77578665996302" lon="7.4954343679257525"><ele>17.6</ele><time>2026-04-22T11:11:14.999Z</time></trkpt><trkpt lat="43.77573668574661" lon="7.495334714215637"><ele>17.200000000000003</ele><time>2026-04-22T11:11:15.999Z</time></trkpt><trkpt lat="43.77570190931711" lon="7.495235035553618"><ele>16.8</ele><time>2026-04-22T11:11:16.999Z</time></trkpt><trkpt lat="43.77566507830396" lon="7.495151387924521"><ele>16.400000000000002</ele><time>2026-04-22T11:11:17.999Z</time></trkpt><trkpt lat="43.775625947104615" lon="7.4950340174734364"><ele>16.0</ele><time>2026-04-22T11:11:19.999Z</time></trkpt><trkpt lat="43.77544205769547" lon="7.495249145246987"><ele>15.999999999999998</ele><time>2026-04-22T11:11:21.999Z</time></trkpt><trkpt lat="43.775391632096415" lon="7.495317976459647"><ele>16.0</ele><time>2026-04-22T11:11:22.999Z</time></trkpt><trkpt lat="43.77533707499782" lon="7.4953803226895195"><ele>16.0</ele><time>2026-04-22T11:11:23.999Z</time></trkpt><trkpt lat="43.77527839938595" lon="7.495446578830592"><ele>16.0</ele><time>2026-04-22T11:11:24.999Z</time></trkpt><trkpt lat="43.77521065808329" lon="7.495522316618746"><ele>15.999999999999998</ele><time>2026-04-22T11:11:25.999Z</time></trkpt><trkpt lat="43.77514449257066" lon="7.495600764377403"><ele>16.0</ele><time>2026-04-22T11:11:26.999Z</time></trkpt><trkpt lat="43.775080978984306" lon="7.495684364486189"><ele>16.166666666666664</ele><time>2026-04-22T11:11:27.999Z</time></trkpt><trkpt lat="43.77502184782532" lon="7.495770808213093"><ele>16.333333333333332</ele><time>2026-04-22T11:11:28.999Z</time></trkpt><trkpt lat="43.7749568256891" lon="7.495852087952636"><ele>16.5</ele><time>2026-04-22T11:11:29.999Z</time></trkpt><trkpt lat="43.774889783515526" lon="7.495930745392116"><ele>16.666666666666668</ele><time>2026-04-22T11:11:30.999Z</time></trkpt><trkpt lat="43.77483831834849" lon="7.4959899168359465"><ele>16.833333333333336</ele><time>2026-04-22T11:11:31.999Z</time></trkpt><trkpt lat="43.7747625105591" lon="7.496090160556213"><ele>17.0</ele><time>2026-04-22T11:11:33.999Z</time></trkpt><trkpt lat="43.77469489689462" lon="7.496173541581648"><ele>16.8</ele><time>2026-04-22T11:11:35.999Z</time></trkpt><trkpt lat="43.77461104294504" lon="7.4962939780110815"><ele>16.6</ele><time>2026-04-22T11:11:37.999Z</time></trkpt><trkpt lat="43.7745614772855" lon="7.496361604043803"><ele>16.400000000000002</ele><time>2026-04-22T11:11:38.999Z</time></trkpt><trkpt lat="43.77446959055191" lon="7.49645557485573"><ele>16.2</ele><time>2026-04-22T11:11:40.999Z</time></trkpt><trkpt lat="43.77440475078258" lon="7.496539160988701"><ele>16.0</ele><time>2026-04-22T11:11:42.999Z</time></trkpt><trkpt lat="43.77446910512975" lon="7.496694469255498"><ele>16.0</ele><time>2026-04-22T11:11:45.999Z</time></trkpt><trkpt lat="43.77468702256386" lon="7.496782740892964"><ele>16.0</ele><time>2026-04-22T11:11:46.999Z</time></trkpt><trkpt lat="43.774753519278256" lon="7.49669892839407"><ele>16.0</ele><time>2026-04-22T11:11:48.999Z</time></trkpt><trkpt lat="43.774807225132264" lon="7.496631094446929"><ele>16.0</ele><time>2026-04-22T11:11:49.999Z</time></trkpt><trkpt lat="43.77486585642252" lon="7.496554301554036"><ele>16.0</ele><time>2026-04-22T11:11:50.999Z</time></trkpt><trkpt lat="43.77496368946061" lon="7.496423291627445"><ele>16.0</ele><time>2026-04-22T11:11:52.999Z</time></trkpt><trkpt lat="43.77504639965294" lon="7.496312284673283"><ele>16.0</ele><time>2026-04-22T11:11:54.999Z</time></trkpt><trkpt lat="43.77509414038681" lon="7.49624845703309"><ele>16.0</ele><time>2026-04-22T11:11:55.999Z</time></trkpt><trkpt lat="43.77514812141786" lon="7.4961761083877985"><ele>16.0</ele><time>2026-04-22T11:11:56.999Z</time></trkpt><trkpt lat="43.77520694110948" lon="7.496098754764898"><ele>16.333333333333332</ele><time>2026-04-22T11:11:57.999Z</time></trkpt><trkpt lat="43.775254351171945" lon="7.496037129344214"><ele>16.666666666666668</ele><time>2026-04-22T11:11:58.999Z</time></trkpt><trkpt lat="43.77532540502516" lon="7.495943978396103"><ele>17.0</ele><time>2026-04-22T11:12:00.999Z</time></trkpt><trkpt lat="43.77506664364425" lon="7.495511612497141"><ele>17.333333333333336</ele><time>2026-04-22T11:12:03.999Z</time></trkpt><trkpt lat="43.774994737191385" lon="7.495400849070337"><ele>17.666666666666668</ele><time>2026-04-22T11:12:05.999Z</time></trkpt><trkpt lat="43.77494810648064" lon="7.4953163238607825"><ele>18.0</ele><time>2026-04-22T11:12:06.999Z</time></trkpt><trkpt lat="43.77490101398157" lon="7.4952297916429735"><ele>18.333333333333332</ele><time>2026-04-22T11:12:07.999Z</time></trkpt><trkpt lat="43.7748558461898" lon="7.495158358492132"><ele>18.666666666666664</ele><time>2026-04-22T11:12:08.999Z</time></trkpt><trkpt lat="43.774815224666504" lon="7.495091558114464"><ele>19.0</ele><time>2026-04-22T11:12:09.999Z</time></trkpt><trkpt lat="43.774746552413156" lon="7.494961519490161"><ele>19.0</ele><time>2026-04-22T11:12:11.999Z</time></trkpt><trkpt lat="43.77468541367026" lon="7.494854817236318"><ele>19.0</ele><time>2026-04-22T11:12:13.999Z</time></trkpt><trkpt lat="43.77462977736334" lon="7.4946990886183"><ele>19.0</ele><time>2026-04-22T11:12:15.999Z</time></trkpt><trkpt lat="43.7745598877792" lon="7.49458801234007"><ele>19.0</ele><time>2026-04-22T11:12:17.999Z</time></trkpt><trkpt lat="43.774533367074916" lon="7.494445646612809"><ele>19.0</ele><time>2026-04-22T11:12:19.999Z</time></trkpt><trkpt lat="43.774517489006215" lon="7.494294505071637"><ele>18.833333333333332</ele><time>2026-04-22T11:12:21.999Z</time></trkpt><trkpt lat="43.774567798102716" lon="7.494190534261427"><ele>18.666666666666664</ele><time>2026-04-22T11:12:23.999Z</time></trkpt><trkpt lat="43.77467626544852" lon="7.494117414742313"><ele>18.5</ele><time>2026-04-22T11:12:25.999Z</time></trkpt><trkpt lat="43.77473250825864" lon="7.4940630096680145"><ele>18.333333333333332</ele><time>2026-04-22T11:12:26.999Z</time></trkpt><trkpt lat="43.77479358024791" lon="7.4940176886176335"><ele>18.166666666666668</ele><time>2026-04-22T11:12:27.999Z</time></trkpt><trkpt lat="43.77486529299963" lon="7.493995248079197"><ele>18.0</ele><time>2026-04-22T11:12:28.999Z</time></trkpt><trkpt lat="43.7749420197216" lon="7.494004376250017"><ele>18.0</ele><time>2026-04-22T11:12:29.999Z</time></trkpt><trkpt lat="43.77502341318596" lon="7.494048353282811"><ele>18.0</ele><time>2026-04-22T11:12:30.999Z</time></trkpt><trkpt lat="43.775092493777805" lon="7.494114492743921"><ele>18.0</ele><time>2026-04-22T11:12:31.999Z</time></trkpt><trkpt lat="43.77514358143645" lon="7.4941988818799565"><ele>18.0</ele><time>2026-04-22T11:12:32.999Z</time></trkpt><trkpt lat="43.775184495303094" lon="7.49427761302631"><ele>18.0</ele><time>2026-04-22T11:12:33.999Z</time></trkpt><trkpt lat="43.77521005117158" lon="7.4943635399001005"><ele>18.0</ele><time>2026-04-22T11:12:35.999Z</time></trkpt><trkpt lat="43.77518361111564" lon="7.494277820759192"><ele>18.0</ele><time>2026-04-22T11:12:57.998Z</time></trkpt><trkpt lat="43.77514370495818" lon="7.4942094744268815"><ele>18.0</ele><time>2026-04-22T11:12:58.998Z</time></trkpt><trkpt lat="43.77504962031358" lon="7.494070501503939"><ele>18.0</ele><time>2026-04-22T11:13:00.998Z</time></trkpt><trkpt lat="43.77499373288554" lon="7.493999527743013"><ele>18.0</ele><time>2026-04-22T11:13:01.998Z</time></trkpt><trkpt lat="43.7748533137076" lon="7.493948870503286"><ele>18.0</ele><time>2026-04-22T11:13:02.998Z</time></trkpt><trkpt lat="43.77477281085391" lon="7.493975913744114"><ele>18.0</ele><time>2026-04-22T11:13:03.998Z</time></trkpt><trkpt lat="43.774696072841195" lon="7.49403065763327"><ele>18.0</ele><time>2026-04-22T11:13:04.998Z</time></trkpt><trkpt lat="43.77463096500528" lon="7.494096763190005"><ele>18.0</ele><time>2026-04-22T11:13:05.998Z</time></trkpt><trkpt lat="43.77457584665514" lon="7.494152134266341"><ele>18.0</ele><time>2026-04-22T11:13:06.998Z</time></trkpt><trkpt lat="43.77452040999694" lon="7.494194947503025"><ele>18.0</ele><time>2026-04-22T11:13:07.998Z</time></trkpt><trkpt lat="43.77442807494169" lon="7.49421112925187"><ele>18.0</ele><time>2026-04-22T11:13:09.998Z</time></trkpt><trkpt lat="43.77433071978847" lon="7.494123308353191"><ele>17.8</ele><time>2026-04-22T11:13:11.998Z</time></trkpt><trkpt lat="43.77423027390675" lon="7.494138959862695"><ele>17.6</ele><time>2026-04-22T11:13:13.998Z</time></trkpt><trkpt lat="43.77420401803145" lon="7.494262289671659"><ele>17.4</ele><time>2026-04-22T11:13:15.998Z</time></trkpt><trkpt lat="43.77422356479771" lon="7.49434817518737"><ele>17.2</ele><time>2026-04-22T11:13:16.998Z</time></trkpt><trkpt lat="43.774225233776846" lon="7.494493896107814"><ele>17.0</ele><time>2026-04-22T11:13:18.998Z</time></trkpt><trkpt lat="43.774132321995666" lon="7.494591382006784"><ele>17.5</ele><time>2026-04-22T11:13:20.999Z</time></trkpt><trkpt lat="43.77406025999057" lon="7.4946630795963465"><ele>18.0</ele><time>2026-04-22T11:13:22.999Z</time></trkpt><trkpt lat="43.77398780107788" lon="7.494729235720877"><ele>18.5</ele><time>2026-04-22T11:13:24.999Z</time></trkpt><trkpt lat="43.773891795146895" lon="7.494812654936293"><ele>19.0</ele><time>2026-04-22T11:13:26.999Z</time></trkpt><trkpt lat="43.77383533735026" lon="7.494874129917923"><ele>19.5</ele><time>2026-04-22T11:13:27.999Z</time></trkpt><trkpt lat="43.773772387544376" lon="7.49493870109542"><ele>20.0</ele><time>2026-04-22T11:13:28.999Z</time></trkpt><trkpt lat="43.773703352007274" lon="7.495011340656698"><ele>20.0</ele><time>2026-04-22T11:13:29.999Z</time></trkpt><trkpt lat="43.77361962901866" lon="7.495069626318917"><ele>20.0</ele><time>2026-04-22T11:13:30.999Z</time></trkpt><trkpt lat="43.77354998739565" lon="7.495163948970417"><ele>20.0</ele><time>2026-04-22T11:13:31.999Z</time></trkpt><trkpt lat="43.77347029617226" lon="7.495226383226177"><ele>20.0</ele><time>2026-04-22T11:13:32.999Z</time></trkpt><trkpt lat="43.773391960093484" lon="7.495279389877079"><ele>20.0</ele><time>2026-04-22T11:13:33.999Z</time></trkpt><trkpt lat="43.77330922955433" lon="7.495330485432826"><ele>19.333333333333336</ele><time>2026-04-22T11:13:34.999Z</time></trkpt><trkpt lat="43.77322987552868" lon="7.495373164141736"><ele>18.666666666666668</ele><time>2026-04-22T11:13:35.999Z</time></trkpt><trkpt lat="43.7732145592626" lon="7.495470082703549"><ele>18.0</ele><time>2026-04-22T11:13:36.999Z</time></trkpt><trkpt lat="43.77312950335653" lon="7.495475856782223"><ele>17.333333333333332</ele><time>2026-04-22T11:13:38.999Z</time></trkpt><trkpt lat="43.77309408549695" lon="7.495335627315843"><ele>16.666666666666664</ele><time>2026-04-22T11:13:39.999Z</time></trkpt><trkpt lat="43.77303742691155" lon="7.495233142708202"><ele>16.0</ele><time>2026-04-22T11:13:40.999Z</time></trkpt><trkpt lat="43.77296826123421" lon="7.495108147707358"><ele>15.25</ele><time>2026-04-22T11:13:41.999Z</time></trkpt><trkpt lat="43.7728810472729" lon="7.494986367735222"><ele>14.5</ele><time>2026-04-22T11:13:42.999Z</time></trkpt><trkpt lat="43.7728268243848" lon="7.494850630291092"><ele>13.75</ele><time>2026-04-22T11:13:43.999Z</time></trkpt><trkpt lat="43.77276125138023" lon="7.494730428644988"><ele>13.0</ele><time>2026-04-22T11:13:44.999Z</time></trkpt><trkpt lat="43.77268597557787" lon="7.494622075989164"><ele>12.8</ele><time>2026-04-22T11:13:45.999Z</time></trkpt><trkpt lat="43.772628942089355" lon="7.494506937479387"><ele>12.600000000000001</ele><time>2026-04-22T11:13:46.999Z</time></trkpt><trkpt lat="43.772571699217394" lon="7.494409121231298"><ele>12.399999999999999</ele><time>2026-04-22T11:13:47.999Z</time></trkpt><trkpt lat="43.77252166627561" lon="7.494309078798786"><ele>12.2</ele><time>2026-04-22T11:13:48.999Z</time></trkpt><trkpt lat="43.77246159370501" lon="7.494212819295937"><ele>12.0</ele><time>2026-04-22T11:13:49.999Z</time></trkpt><trkpt lat="43.772403444996954" lon="7.494108267700473"><ele>12.0</ele><time>2026-04-22T11:13:50.999Z</time></trkpt><trkpt lat="43.772343972985745" lon="7.4940028678779775"><ele>12.0</ele><time>2026-04-22T11:13:51.999Z</time></trkpt><trkpt lat="43.772283421079834" lon="7.4938979683074995"><ele>12.0</ele><time>2026-04-22T11:13:52.999Z</time></trkpt><trkpt lat="43.77222054679675" lon="7.493788693285559"><ele>12.0</ele><time>2026-04-22T11:13:53.999Z</time></trkpt><trkpt lat="43.7721562558475" lon="7.49367178000613"><ele>12.0</ele><time>2026-04-22T11:13:54.999Z</time></trkpt><trkpt lat="43.772087957676824" lon="7.49355216568404"><ele>12.2</ele><time>2026-04-22T11:13:55.999Z</time></trkpt><trkpt lat="43.77202149186223" lon="7.493426844645705"><ele>12.399999999999999</ele><time>2026-04-22T11:13:56.999Z</time></trkpt><trkpt lat="43.77195746602413" lon="7.493300109059415"><ele>12.600000000000001</ele><time>2026-04-22T11:13:57.999Z</time></trkpt><trkpt lat="43.77189330450271" lon="7.493191185293073"><ele>12.8</ele><time>2026-04-22T11:13:58.999Z</time></trkpt><trkpt lat="43.77183481584093" lon="7.493088981284576"><ele>13.0</ele><time>2026-04-22T11:13:59.999Z</time></trkpt><trkpt lat="43.77178239918624" lon="7.492996799556698"><ele>12.4</ele><time>2026-04-22T11:14:00.999Z</time></trkpt><trkpt lat="43.77173663221054" lon="7.49290671246093"><ele>11.8</ele><time>2026-04-22T11:14:01.999Z</time></trkpt><trkpt lat="43.77169683847005" lon="7.492779713351514"><ele>11.2</ele><time>2026-04-22T11:14:03.999Z</time></trkpt><trkpt lat="43.771680108859094" lon="7.492619454308681"><ele>10.6</ele><time>2026-04-22T11:14:05.999Z</time></trkpt><trkpt lat="43.771577771652055" lon="7.492546784335798"><ele>10.0</ele><time>2026-04-22T11:14:07.999Z</time></trkpt><trkpt lat="43.77147350802849" lon="7.492633112984571"><ele>10.0</ele><time>2026-04-22T11:14:09.999Z</time></trkpt><trkpt lat="43.771454480970434" lon="7.492724545480792"><ele>10.0</ele><time>2026-04-22T11:14:10.999Z</time></trkpt><trkpt lat="43.77145440150711" lon="7.492821722692793"><ele>10.0</ele><time>2026-04-22T11:14:11.999Z</time></trkpt><trkpt lat="43.77142913387724" lon="7.492988989959094"><ele>10.0</ele><time>2026-04-22T11:14:13.999Z</time></trkpt><trkpt lat="43.77137196343148" lon="7.493148431765219"><ele>10.0</ele><time>2026-04-22T11:14:15.999Z</time></trkpt><trkpt lat="43.77134815124187" lon="7.493246020111787"><ele>10.4</ele><time>2026-04-22T11:14:16.999Z</time></trkpt><trkpt lat="43.77131715131553" lon="7.493356883370998"><ele>10.8</ele><time>2026-04-22T11:14:17.999Z</time></trkpt><trkpt lat="43.77127646106376" lon="7.4934739379182735"><ele>11.2</ele><time>2026-04-22T11:14:18.999Z</time></trkpt><trkpt lat="43.771230869977884" lon="7.493601245064975"><ele>11.6</ele><time>2026-04-22T11:14:19.999Z</time></trkpt><trkpt lat="43.771165233970066" lon="7.493727239352015"><ele>12.0</ele><time>2026-04-22T11:14:20.999Z</time></trkpt><trkpt lat="43.77109876787222" lon="7.493833110317129"><ele>12.0</ele><time>2026-04-22T11:14:21.999Z</time></trkpt><trkpt lat="43.77103099926285" lon="7.493916360381908"><ele>12.0</ele><time>2026-04-22T11:14:22.999Z</time></trkpt><trkpt lat="43.77096952479363" lon="7.493980094433803"><ele>12.0</ele><time>2026-04-22T11:14:23.999Z</time></trkpt><trkpt lat="43.77091274880112" lon="7.494019632095412"><ele>12.0</ele><time>2026-04-22T11:14:24.999Z</time></trkpt><trkpt lat="43.77085661602983" lon="7.494102093326617"><ele>12.0</ele><time>2026-04-22T11:14:26.999Z</time></trkpt><trkpt lat="43.77077560082916" lon="7.494071366309406"><ele>12.0</ele><time>2026-04-22T11:15:28Z</time></trkpt><trkpt lat="43.77067843986469" lon="7.494076971908217"><ele>12.166666666666666</ele><time>2026-04-22T11:15:30Z</time></trkpt><trkpt lat="43.77061770909211" lon="7.494019175285725"><ele>12.333333333333332</ele><time>2026-04-22T11:15:31Z</time></trkpt><trkpt lat="43.7705681268324" lon="7.493926755294699"><ele>12.5</ele><time>2026-04-22T11:15:32Z</time></trkpt><trkpt lat="43.7705215293041" lon="7.493832423519813"><ele>12.666666666666666</ele><time>2026-04-22T11:15:33Z</time></trkpt><trkpt lat="43.77046601638477" lon="7.493730125866781"><ele>12.833333333333332</ele><time>2026-04-22T11:15:34Z</time></trkpt><trkpt lat="43.77040547976035" lon="7.4936177990638875"><ele>13.0</ele><time>2026-04-22T11:15:35Z</time></trkpt><trkpt lat="43.7703420042865" lon="7.493496279473518"><ele>13.0</ele><time>2026-04-22T11:15:36Z</time></trkpt><trkpt lat="43.770273483501015" lon="7.493381430112334"><ele>13.0</ele><time>2026-04-22T11:15:37Z</time></trkpt><trkpt lat="43.77021021024978" lon="7.493272911696452"><ele>13.0</ele><time>2026-04-22T11:15:38Z</time></trkpt><trkpt lat="43.770151397285886" lon="7.493162399474901"><ele>13.0</ele><time>2026-04-22T11:15:39Z</time></trkpt><trkpt lat="43.77008726124668" lon="7.493060478944914"><ele>13.0</ele><time>2026-04-22T11:15:40Z</time></trkpt><trkpt lat="43.770021881364784" lon="7.492957665024623"><ele>11.75</ele><time>2026-04-22T11:15:41Z</time></trkpt><trkpt lat="43.76995688510135" lon="7.492852081565966"><ele>10.5</ele><time>2026-04-22T11:15:42Z</time></trkpt><trkpt lat="43.769889514760074" lon="7.492737780166259"><ele>9.25</ele><time>2026-04-22T11:15:43Z</time></trkpt><trkpt lat="43.76981892170975" lon="7.492609184675471"><ele>8.0</ele><time>2026-04-22T11:15:44Z</time></trkpt><trkpt lat="43.76972997247362" lon="7.492479623011694"><ele>8.0</ele><time>2026-04-22T11:15:45Z</time></trkpt><trkpt lat="43.769636034727824" lon="7.492345163596925"><ele>8.0</ele><time>2026-04-22T11:15:46Z</time></trkpt><trkpt lat="43.7695520510963" lon="7.492218288031618"><ele>8.0</ele><time>2026-04-22T11:15:47Z</time></trkpt><trkpt lat="43.76947080217849" lon="7.492095524553833"><ele>8.0</ele><time>2026-04-22T11:15:48Z</time></trkpt><trkpt lat="43.769391082193756" lon="7.491979926588719"><ele>7.25</ele><time>2026-04-22T11:15:49Z</time></trkpt><trkpt lat="43.769310660111856" lon="7.491868120538801"><ele>6.5</ele><time>2026-04-22T11:15:50Z</time></trkpt><trkpt lat="43.7692222987894" lon="7.491745745081802"><ele>5.75</ele><time>2026-04-22T11:15:51Z</time></trkpt><trkpt lat="43.76913030194019" lon="7.491616255646645"><ele>5.0</ele><time>2026-04-22T11:15:52Z</time></trkpt><trkpt lat="43.7690412209378" lon="7.491482373283495"><ele>5.0</ele><time>2026-04-22T11:15:52.999Z</time></trkpt><trkpt lat="43.76895100057274" lon="7.4913520818929085"><ele>5.0</ele><time>2026-04-22T11:15:53.999Z</time></trkpt><trkpt lat="43.7688539486143" lon="7.491215502201548"><ele>5.0</ele><time>2026-04-22T11:15:54.999Z</time></trkpt><trkpt lat="43.76875142954197" lon="7.4910718275661345"><ele>5.0</ele><time>2026-04-22T11:15:55.999Z</time></trkpt><trkpt lat="43.76864124180864" lon="7.490922889851439"><ele>5.25</ele><time>2026-04-22T11:15:56.999Z</time></trkpt><trkpt lat="43.76853571606744" lon="7.490780999999212"><ele>5.5</ele><time>2026-04-22T11:15:57.999Z</time></trkpt><trkpt lat="43.768437094979376" lon="7.49065365743218"><ele>5.75</ele><time>2026-04-22T11:15:58.999Z</time></trkpt><trkpt lat="43.768369133965614" lon="7.490489745399947"><ele>6.0</ele><time>2026-04-22T11:15:59.999Z</time></trkpt><trkpt lat="43.76828360065615" lon="7.49037524806129"><ele>6.0</ele><time>2026-04-22T11:16:00.999Z</time></trkpt><trkpt lat="43.768204975043425" lon="7.490259447378013"><ele>6.0</ele><time>2026-04-22T11:16:01.999Z</time></trkpt><trkpt lat="43.768131739767206" lon="7.490154346386607"><ele>6.0</ele><time>2026-04-22T11:16:02.999Z</time></trkpt><trkpt lat="43.76806724969983" lon="7.490058358463622"><ele>6.0</ele><time>2026-04-22T11:16:03.999Z</time></trkpt><trkpt lat="43.76800113276465" lon="7.489961838261339"><ele>6.0</ele><time>2026-04-22T11:16:04.999Z</time></trkpt><trkpt lat="43.76794276444239" lon="7.489870897544982"><ele>6.0</ele><time>2026-04-22T11:16:05.999Z</time></trkpt><trkpt lat="43.767889711687374" lon="7.48979203027853"><ele>6.0</ele><time>2026-04-22T11:16:06.999Z</time></trkpt><trkpt lat="43.76784501233394" lon="7.489727241296435"><ele>6.0</ele><time>2026-04-22T11:16:07.999Z</time></trkpt><trkpt lat="43.76779220128046" lon="7.489657544551402"><ele>6.0</ele><time>2026-04-22T11:16:09.999Z</time></trkpt><trkpt lat="43.767730432234835" lon="7.489572308173512"><ele>6.0</ele><time>2026-04-22T11:16:12.999Z</time></trkpt><trkpt lat="43.76765852306048" lon="7.48950394020432"><ele>6.0</ele><time>2026-04-22T11:16:14.999Z</time></trkpt><trkpt lat="43.767593375641724" lon="7.489449287688975"><ele>5.5</ele><time>2026-04-22T11:16:16.999Z</time></trkpt><trkpt lat="43.76768956967095" lon="7.489189062652778"><ele>5.0</ele><time>2026-04-22T11:16:18.999Z</time></trkpt><trkpt lat="43.7677767164431" lon="7.489044040851285"><ele>4.5</ele><time>2026-04-22T11:16:20.999Z</time></trkpt><trkpt lat="43.76782154786329" lon="7.488954470590888"><ele>4.0</ele><time>2026-04-22T11:16:21.999Z</time></trkpt><trkpt lat="43.76789872524018" lon="7.488812473419487"><ele>6.0</ele><time>2026-04-22T11:16:23.999Z</time></trkpt><trkpt lat="43.76793636813257" lon="7.488728854899361"><ele>8.0</ele><time>2026-04-22T11:16:24.999Z</time></trkpt><trkpt lat="43.767978284324506" lon="7.488638164983782"><ele>10.0</ele><time>2026-04-22T11:16:25.999Z</time></trkpt><trkpt lat="43.76801018846486" lon="7.488542434107636"><ele>12.0</ele><time>2026-04-22T11:16:26.999Z</time></trkpt><trkpt lat="43.76802490676549" lon="7.488436133824682"><ele>13.999999999999998</ele><time>2026-04-22T11:16:27.999Z</time></trkpt><trkpt lat="43.76802285302432" lon="7.48831627327252"><ele>16.0</ele><time>2026-04-22T11:16:28.999Z</time></trkpt><trkpt lat="43.76800510927827" lon="7.488198883737241"><ele>15.999999999999998</ele><time>2026-04-22T11:16:29.999Z</time></trkpt><trkpt lat="43.76796193361068" lon="7.488096213203876"><ele>16.0</ele><time>2026-04-22T11:16:30.999Z</time></trkpt><trkpt lat="43.76791182848203" lon="7.4879978446263165"><ele>16.0</ele><time>2026-04-22T11:16:31.999Z</time></trkpt><trkpt lat="43.76786428875363" lon="7.487898115662537"><ele>16.0</ele><time>2026-04-22T11:16:32.999Z</time></trkpt><trkpt lat="43.767829590945716" lon="7.487796325662323"><ele>15.999999999999998</ele><time>2026-04-22T11:16:33.999Z</time></trkpt><trkpt lat="43.76779237144289" lon="7.487720499431558"><ele>16.0</ele><time>2026-04-22T11:16:34.999Z</time></trkpt><trkpt lat="43.76772826687346" lon="7.487574267398585"><ele>14.666666666666666</ele><time>2026-04-22T11:16:36.999Z</time></trkpt><trkpt lat="43.7676988697008" lon="7.4874911417651555"><ele>13.333333333333332</ele><time>2026-04-22T11:16:37.999Z</time></trkpt><trkpt lat="43.767678538923484" lon="7.48739195552855"><ele>12.0</ele><time>2026-04-22T11:16:38.999Z</time></trkpt><trkpt lat="43.76767531897745" lon="7.487281738717339"><ele>10.666666666666666</ele><time>2026-04-22T11:16:39.999Z</time></trkpt><trkpt lat="43.767692409109074" lon="7.487166843155068"><ele>9.333333333333332</ele><time>2026-04-22T11:16:40.999Z</time></trkpt><trkpt lat="43.767707072348664" lon="7.48704940743327"><ele>8.0</ele><time>2026-04-22T11:16:41.999Z</time></trkpt><trkpt lat="43.76771470701952" lon="7.486944754692219"><ele>9.333333333333332</ele><time>2026-04-22T11:16:42.999Z</time></trkpt><trkpt lat="43.76767073725018" lon="7.486766604732262"><ele>10.666666666666666</ele><time>2026-04-22T11:16:44.999Z</time></trkpt><trkpt lat="43.76764484687099" lon="7.48667360756156"><ele>12.0</ele><time>2026-04-22T11:16:45.999Z</time></trkpt><trkpt lat="43.76761552220443" lon="7.4865914613262765"><ele>13.333333333333332</ele><time>2026-04-22T11:16:46.999Z</time></trkpt><trkpt lat="43.76757211320713" lon="7.486522440557982"><ele>14.666666666666666</ele><time>2026-04-22T11:16:47.999Z</time></trkpt><trkpt lat="43.76752268246597" lon="7.486461993619909"><ele>16.0</ele><time>2026-04-22T11:16:48.999Z</time></trkpt><trkpt lat="43.76747786678189" lon="7.486386903212845"><ele>15.999999999999998</ele><time>2026-04-22T11:16:49.999Z</time></trkpt><trkpt lat="43.767441592770794" lon="7.486298599185938"><ele>16.0</ele><time>2026-04-22T11:16:50.999Z</time></trkpt><trkpt lat="43.767382989529104" lon="7.486205522957118"><ele>16.0</ele><time>2026-04-22T11:16:51.999Z</time></trkpt><trkpt lat="43.767333016654746" lon="7.486115499287872"><ele>16.0</ele><time>2026-04-22T11:16:52.999Z</time></trkpt><trkpt lat="43.767291924858334" lon="7.486026276562291"><ele>15.999999999999998</ele><time>2026-04-22T11:16:53.999Z</time></trkpt><trkpt lat="43.767259812943536" lon="7.485928009968618"><ele>16.0</ele><time>2026-04-22T11:16:55.999Z</time></trkpt><trkpt lat="43.76721745131649" lon="7.485841023452434"><ele>16.333333333333332</ele><time>2026-04-22T11:17:36Z</time></trkpt><trkpt lat="43.76717945183086" lon="7.485762966324742"><ele>16.666666666666664</ele><time>2026-04-22T11:17:37Z</time></trkpt><trkpt lat="43.76711354529596" lon="7.48565403672935"><ele>17.0</ele><time>2026-04-22T11:17:39Z</time></trkpt><trkpt lat="43.76705994363298" lon="7.485601502374269"><ele>17.333333333333332</ele><time>2026-04-22T11:17:40Z</time></trkpt><trkpt lat="43.766994813861515" lon="7.485549871619227"><ele>17.666666666666668</ele><time>2026-04-22T11:17:41Z</time></trkpt><trkpt lat="43.76692812854448" lon="7.485492280143864"><ele>18.0</ele><time>2026-04-22T11:17:42Z</time></trkpt><trkpt lat="43.76686779636822" lon="7.485422864740106"><ele>17.666666666666668</ele><time>2026-04-22T11:17:43Z</time></trkpt><trkpt lat="43.76680788734714" lon="7.485365206137372"><ele>17.333333333333332</ele><time>2026-04-22T11:17:44Z</time></trkpt><trkpt lat="43.76675352370111" lon="7.4853121362718404"><ele>17.0</ele><time>2026-04-22T11:17:45Z</time></trkpt><trkpt lat="43.76670395800137" lon="7.485256083793834"><ele>16.666666666666664</ele><time>2026-04-22T11:17:46Z</time></trkpt><trkpt lat="43.766630469919825" lon="7.485121048863641"><ele>16.333333333333332</ele><time>2026-04-22T11:17:48Z</time></trkpt><trkpt lat="43.76657787358723" lon="7.4850132292051095"><ele>16.0</ele><time>2026-04-22T11:17:50.001Z</time></trkpt><trkpt lat="43.766557271453216" lon="7.484916797339192"><ele>16.0</ele><time>2026-04-22T11:17:52.001Z</time></trkpt><trkpt lat="43.766497198578676" lon="7.484766949386887"><ele>16.0</ele><time>2026-04-22T11:17:54.001Z</time></trkpt><trkpt lat="43.76648218824735" lon="7.484654230440674"><ele>16.0</ele><time>2026-04-22T11:17:55.001Z</time></trkpt><trkpt lat="43.76645095372208" lon="7.48453568671415"><ele>16.0</ele><time>2026-04-22T11:17:56.001Z</time></trkpt><trkpt lat="43.76640971243425" lon="7.484418738522569"><ele>16.0</ele><time>2026-04-22T11:17:57.001Z</time></trkpt><trkpt lat="43.76635118399363" lon="7.484333747083671"><ele>15.999999999999998</ele><time>2026-04-22T11:17:58.001Z</time></trkpt><trkpt lat="43.766304564638325" lon="7.4842558391166465"><ele>16.0</ele><time>2026-04-22T11:17:59.001Z</time></trkpt><trkpt lat="43.766225051415" lon="7.48413968078636"><ele>16.0</ele><time>2026-04-22T11:18:01.001Z</time></trkpt><trkpt lat="43.76617859343301" lon="7.484060002876836"><ele>16.0</ele><time>2026-04-22T11:18:04.001Z</time></trkpt><trkpt lat="43.76614428414565" lon="7.483980053798531"><ele>15.999999999999998</ele><time>2026-04-22T11:18:06.001Z</time></trkpt><trkpt lat="43.76606900171926" lon="7.483898804080824"><ele>16.0</ele><time>2026-04-22T11:18:08.001Z</time></trkpt><trkpt lat="43.766000126570894" lon="7.483852061706507"><ele>15.999999999999998</ele><time>2026-04-22T11:18:10.001Z</time></trkpt><trkpt lat="43.76595218596492" lon="7.483793418963966"><ele>16.0</ele><time>2026-04-22T11:18:13Z</time></trkpt><trkpt lat="43.765902168069125" lon="7.483729100030592"><ele>16.0</ele><time>2026-04-22T11:18:17Z</time></trkpt><trkpt lat="43.76584880610282" lon="7.483606890268945"><ele>16.0</ele><time>2026-04-22T11:18:20Z</time></trkpt><trkpt lat="43.765822711090145" lon="7.4835064443880475"><ele>15.999999999999998</ele><time>2026-04-22T11:18:22Z</time></trkpt><trkpt lat="43.765797745600196" lon="7.483406337325975"><ele>16.0</ele><time>2026-04-22T11:18:24Z</time></trkpt><trkpt lat="43.765767129168516" lon="7.4833114676804975"><ele>19.0</ele><time>2026-04-22T11:18:26Z</time></trkpt></trkseg><trkseg><trkpt lat="43.7657881745668" lon="7.483164058905077"><ele>19.0</ele><time>2026-04-22T11:56:58Z</time></trkpt><trkpt lat="43.76574356098905" lon="7.483038730416992"><ele>19.0</ele><time>2026-04-22T11:57:00Z</time></trkpt><trkpt lat="43.76571183942707" lon="7.482956971300471"><ele>19.0</ele><time>2026-04-22T11:57:01Z</time></trkpt><trkpt lat="43.765673995283294" lon="7.482885673886702"><ele>19.0</ele><time>2026-04-22T11:57:02Z</time></trkpt><trkpt lat="43.76563284909641" lon="7.4828053462355735"><ele>19.0</ele><time>2026-04-22T11:57:04Z</time></trkpt><trkpt lat="43.765571836883645" lon="7.482730700949573"><ele>19.0</ele><time>2026-04-22T11:57:07Z</time></trkpt><trkpt lat="43.76549039337777" lon="7.482619164006829"><ele>18.8</ele><time>2026-04-22T11:57:08.999Z</time></trkpt><trkpt lat="43.76544201505188" lon="7.482545856087489"><ele>18.599999999999998</ele><time>2026-04-22T11:57:09.999Z</time></trkpt><trkpt lat="43.76535781144484" lon="7.482479448333855"><ele>18.4</ele><time>2026-04-22T11:57:11.999Z</time></trkpt><trkpt lat="43.76527735852213" lon="7.482423833506366"><ele>18.2</ele><time>2026-04-22T11:57:16.999Z</time></trkpt><trkpt lat="43.765178822905796" lon="7.482318843140066"><ele>18.0</ele><time>2026-04-22T11:57:18.999Z</time></trkpt><trkpt lat="43.76510393083852" lon="7.482237199640595"><ele>18.0</ele><time>2026-04-22T11:57:19.999Z</time></trkpt><trkpt lat="43.765017341172744" lon="7.482176540306058"><ele>18.0</ele><time>2026-04-22T11:57:20.999Z</time></trkpt><trkpt lat="43.7649535699726" lon="7.482134118797803"><ele>18.0</ele><time>2026-04-22T11:57:21.999Z</time></trkpt><trkpt lat="43.76488841360154" lon="7.482068924256841"><ele>18.0</ele><time>2026-04-22T11:57:22.999Z</time></trkpt><trkpt lat="43.76480756024481" lon="7.481995147974826"><ele>18.0</ele><time>2026-04-22T11:57:23.999Z</time></trkpt><trkpt lat="43.76471589343126" lon="7.481915142975751"><ele>18.42857142857143</ele><time>2026-04-22T11:57:24.999Z</time></trkpt><trkpt lat="43.764651772016215" lon="7.481912862753858"><ele>18.857142857142858</ele><time>2026-04-22T11:57:25.999Z</time></trkpt><trkpt lat="43.76461183482667" lon="7.481836373261969"><ele>19.285714285714285</ele><time>2026-04-22T11:57:26.999Z</time></trkpt><trkpt lat="43.764559006388545" lon="7.481767204163974"><ele>19.714285714285715</ele><time>2026-04-22T11:57:27.999Z</time></trkpt><trkpt lat="43.76451530759532" lon="7.481682852162545"><ele>20.142857142857142</ele><time>2026-04-22T11:57:28.999Z</time></trkpt><trkpt lat="43.764468789810614" lon="7.4816052998784155"><ele>20.571428571428573</ele><time>2026-04-22T11:57:29.999Z</time></trkpt><trkpt lat="43.76442506134251" lon="7.481512526367062"><ele>21.0</ele><time>2026-04-22T11:57:30.999Z</time></trkpt><trkpt lat="43.7643679620251" lon="7.481419037826252"><ele>20.833333333333332</ele><time>2026-04-22T11:57:31.999Z</time></trkpt><trkpt lat="43.764316617334856" lon="7.481320504027399"><ele>20.666666666666668</ele><time>2026-04-22T11:57:32.999Z</time></trkpt><trkpt lat="43.76426478261294" lon="7.481233939307813"><ele>20.5</ele><time>2026-04-22T11:57:33.999Z</time></trkpt><trkpt lat="43.76421926565096" lon="7.481153265601253"><ele>20.333333333333336</ele><time>2026-04-22T11:57:34.999Z</time></trkpt><trkpt lat="43.76417264506029" lon="7.4810787719973195"><ele>20.166666666666668</ele><time>2026-04-22T11:57:35.999Z</time></trkpt><trkpt lat="43.76412715651576" lon="7.4810039965693536"><ele>20.0</ele><time>2026-04-22T11:57:36.999Z</time></trkpt><trkpt lat="43.764074315311966" lon="7.480921261587915"><ele>20.0</ele><time>2026-04-22T11:57:37.999Z</time></trkpt><trkpt lat="43.76403100533914" lon="7.48083565887212"><ele>20.0</ele><time>2026-04-22T11:57:38.999Z</time></trkpt><trkpt lat="43.76399144201979" lon="7.480763386984533"><ele>20.0</ele><time>2026-04-22T11:57:39.999Z</time></trkpt><trkpt lat="43.76395099666006" lon="7.480692366714017"><ele>20.0</ele><time>2026-04-22T11:57:40.999Z</time></trkpt><trkpt lat="43.76389008152008" lon="7.480573146208835"><ele>20.0</ele><time>2026-04-22T11:57:42.999Z</time></trkpt><trkpt lat="43.76384434404009" lon="7.480472480393738"><ele>20.0</ele><time>2026-04-22T11:57:44.999Z</time></trkpt><trkpt lat="43.76380908727748" lon="7.480364120209758"><ele>20.5</ele><time>2026-04-22T11:57:46.999Z</time></trkpt><trkpt lat="43.76374816780089" lon="7.4802528601760585"><ele>21.0</ele><time>2026-04-22T11:57:48.999Z</time></trkpt><trkpt lat="43.763702795775636" lon="7.480191154520565"><ele>21.5</ele><time>2026-04-22T11:57:49.999Z</time></trkpt><trkpt lat="43.76363872794854" lon="7.480166931993395"><ele>22.0</ele><time>2026-04-22T11:57:50.999Z</time></trkpt><trkpt lat="43.76357450605396" lon="7.48008238273003"><ele>22.5</ele><time>2026-04-22T11:57:51.999Z</time></trkpt><trkpt lat="43.76351557193437" lon="7.479982072154236"><ele>23.0</ele><time>2026-04-22T11:57:52.999Z</time></trkpt><trkpt lat="43.7634577386553" lon="7.479877066030344"><ele>24.0</ele><time>2026-04-22T11:57:53.999Z</time></trkpt><trkpt lat="43.7634081858464" lon="7.479785896200181"><ele>25.0</ele><time>2026-04-22T11:57:54.999Z</time></trkpt><trkpt lat="43.76334764892334" lon="7.47970746460436"><ele>26.0</ele><time>2026-04-22T11:57:55.999Z</time></trkpt><trkpt lat="43.76329370732162" lon="7.4796255914259495"><ele>27.0</ele><time>2026-04-22T11:57:56.999Z</time></trkpt><trkpt lat="43.763246330264586" lon="7.479549606597392"><ele>27.999999999999996</ele><time>2026-04-22T11:57:57.999Z</time></trkpt><trkpt lat="43.76318391118174" lon="7.4794468351275585"><ele>29.0</ele><time>2026-04-22T11:57:59.999Z</time></trkpt><trkpt lat="43.76313416125493" lon="7.47937413068791"><ele>28.999999999999996</ele><time>2026-04-22T11:58:01.999Z</time></trkpt><trkpt lat="43.763075410835164" lon="7.479321468124893"><ele>29.0</ele><time>2026-04-22T11:58:04.999Z</time></trkpt><trkpt lat="43.76303571085288" lon="7.479224495423318"><ele>29.0</ele><time>2026-04-22T11:58:12.999Z</time></trkpt><trkpt lat="43.762975726266426" lon="7.479140041370537"><ele>29.0</ele><time>2026-04-22T11:58:14.999Z</time></trkpt><trkpt lat="43.76291640877047" lon="7.479066523672072"><ele>28.999999999999996</ele><time>2026-04-22T11:58:16.998Z</time></trkpt><trkpt lat="43.76285688005115" lon="7.478988987966164"><ele>29.0</ele><time>2026-04-22T11:58:18.998Z</time></trkpt><trkpt lat="43.762767746547205" lon="7.478897781902569"><ele>30.333333333333332</ele><time>2026-04-22T11:58:20.998Z</time></trkpt><trkpt lat="43.76266478196314" lon="7.478792612993712"><ele>31.666666666666664</ele><time>2026-04-22T11:58:22.999Z</time></trkpt><trkpt lat="43.762621164293016" lon="7.478718238524217"><ele>33.0</ele><time>2026-04-22T11:58:23.999Z</time></trkpt><trkpt lat="43.76255757494429" lon="7.478666054691251"><ele>34.333333333333336</ele><time>2026-04-22T11:58:24.999Z</time></trkpt><trkpt lat="43.762500583417584" lon="7.478618928418467"><ele>35.66666666666667</ele><time>2026-04-22T11:58:25.999Z</time></trkpt><trkpt lat="43.76244077491512" lon="7.47857448364456"><ele>37.0</ele><time>2026-04-22T11:58:26.999Z</time></trkpt><trkpt lat="43.76236378101405" lon="7.478556720512723"><ele>37.0</ele><time>2026-04-22T11:58:27.999Z</time></trkpt><trkpt lat="43.76229195056918" lon="7.4785067607334454"><ele>37.0</ele><time>2026-04-22T11:58:28.999Z</time></trkpt><trkpt lat="43.76220663900838" lon="7.478519874203068"><ele>37.0</ele><time>2026-04-22T11:58:29.999Z</time></trkpt><trkpt lat="43.762122303416255" lon="7.478520998287863"><ele>37.0</ele><time>2026-04-22T11:58:30.999Z</time></trkpt><trkpt lat="43.76203505010466" lon="7.4785368197335185"><ele>37.0</ele><time>2026-04-22T11:58:31.999Z</time></trkpt><trkpt lat="43.761938449269515" lon="7.47853592809796"><ele>37.0</ele><time>2026-04-22T11:58:32.999Z</time></trkpt><trkpt lat="43.76184136857024" lon="7.478559931524049"><ele>37.333333333333336</ele><time>2026-04-22T11:58:33.999Z</time></trkpt><trkpt lat="43.761748358392296" lon="7.4785840795774305"><ele>37.66666666666667</ele><time>2026-04-22T11:58:34.999Z</time></trkpt><trkpt lat="43.76166664759462" lon="7.478625539207648"><ele>38.0</ele><time>2026-04-22T11:58:35.999Z</time></trkpt><trkpt lat="43.761584466809985" lon="7.478636239720433"><ele>38.333333333333336</ele><time>2026-04-22T11:58:36.999Z</time></trkpt><trkpt lat="43.76150330630282" lon="7.478610395645953"><ele>38.666666666666664</ele><time>2026-04-22T11:58:37.999Z</time></trkpt><trkpt lat="43.76142283767254" lon="7.478590531366178"><ele>39.0</ele><time>2026-04-22T11:58:38.999Z</time></trkpt><trkpt lat="43.76133807664034" lon="7.478552257204039"><ele>39.0</ele><time>2026-04-22T11:58:39.999Z</time></trkpt><trkpt lat="43.76125172794758" lon="7.47850863460504"><ele>39.0</ele><time>2026-04-22T11:58:40.999Z</time></trkpt><trkpt lat="43.761161072145555" lon="7.478456440677045"><ele>39.0</ele><time>2026-04-22T11:58:41.999Z</time></trkpt><trkpt lat="43.7610684343818" lon="7.478397818319646"><ele>39.0</ele><time>2026-04-22T11:58:42.999Z</time></trkpt><trkpt lat="43.760980144067744" lon="7.47833416062451"><ele>39.0</ele><time>2026-04-22T11:58:43.999Z</time></trkpt><trkpt lat="43.76089538750458" lon="7.478269137975545"><ele>39.0</ele><time>2026-04-22T11:58:44.999Z</time></trkpt><trkpt lat="43.76080605528286" lon="7.478221271185485"><ele>39.0</ele><time>2026-04-22T11:58:45.999Z</time></trkpt><trkpt lat="43.760731144409625" lon="7.478162314403906"><ele>39.0</ele><time>2026-04-22T11:58:46.999Z</time></trkpt><trkpt lat="43.760658808394446" lon="7.478101922239998"><ele>39.0</ele><time>2026-04-22T11:58:47.999Z</time></trkpt><trkpt lat="43.76058941992394" lon="7.478045926239357"><ele>39.0</ele><time>2026-04-22T11:58:48.999Z</time></trkpt><trkpt lat="43.760520327197106" lon="7.477984657823748"><ele>39.0</ele><time>2026-04-22T11:58:49.999Z</time></trkpt><trkpt lat="43.760448616974784" lon="7.477925811279138"><ele>40.8</ele><time>2026-04-22T11:58:50.999Z</time></trkpt><trkpt lat="43.760377046955085" lon="7.4778654340108455"><ele>42.599999999999994</ele><time>2026-04-22T11:58:51.999Z</time></trkpt><trkpt lat="43.760298433387675" lon="7.477802365491992"><ele>44.4</ele><time>2026-04-22T11:58:52.999Z</time></trkpt><trkpt lat="43.76021618615189" lon="7.477733798751474"><ele>46.199999999999996</ele><time>2026-04-22T11:58:53.999Z</time></trkpt><trkpt lat="43.76014057257785" lon="7.4776476774272815"><ele>48.0</ele><time>2026-04-22T11:58:54.999Z</time></trkpt><trkpt lat="43.76004512819787" lon="7.477590828091445"><ele>48.0</ele><time>2026-04-22T11:58:55.999Z</time></trkpt><trkpt lat="43.75996130450966" lon="7.477517101012211"><ele>48.0</ele><time>2026-04-22T11:58:56.999Z</time></trkpt><trkpt lat="43.759877975891825" lon="7.477439731462833"><ele>48.0</ele><time>2026-04-22T11:58:57.999Z</time></trkpt><trkpt lat="43.759797174643225" lon="7.477358291598265"><ele>48.0</ele><time>2026-04-22T11:58:58.999Z</time></trkpt><trkpt lat="43.75972544823263" lon="7.477258313401923"><ele>48.0</ele><time>2026-04-22T11:58:59.999Z</time></trkpt><trkpt lat="43.7596463174809" lon="7.477170000844206"><ele>50.0</ele><time>2026-04-22T11:59:00.999Z</time></trkpt><trkpt lat="43.75957114973856" lon="7.4770805126467135"><ele>52.0</ele><time>2026-04-22T11:59:01.999Z</time></trkpt><trkpt lat="43.75950244703845" lon="7.477001565457488"><ele>54.0</ele><time>2026-04-22T11:59:02.999Z</time></trkpt><trkpt lat="43.75946621333138" lon="7.476892976130711"><ele>56.0</ele><time>2026-04-22T11:59:03.999Z</time></trkpt><trkpt lat="43.75945896584502" lon="7.476783521362541"><ele>58.0</ele><time>2026-04-22T11:59:04.999Z</time></trkpt><trkpt lat="43.75948671340903" lon="7.476677603791802"><ele>60.0</ele><time>2026-04-22T11:59:05.999Z</time></trkpt><trkpt lat="43.7595413648017" lon="7.476565827331923"><ele>60.0</ele><time>2026-04-22T11:59:06.999Z</time></trkpt><trkpt lat="43.7596023397668" lon="7.476475758765391"><ele>60.0</ele><time>2026-04-22T11:59:07.999Z</time></trkpt><trkpt lat="43.75968532593765" lon="7.476400786801078"><ele>60.0</ele><time>2026-04-22T11:59:08.999Z</time></trkpt><trkpt lat="43.759779651415094" lon="7.4763442519378405"><ele>60.0</ele><time>2026-04-22T11:59:09.999Z</time></trkpt><trkpt lat="43.759869999149046" lon="7.476284880073206"><ele>60.0</ele><time>2026-04-22T11:59:10.999Z</time></trkpt><trkpt lat="43.759960879786185" lon="7.476229165555537"><ele>58.2</ele><time>2026-04-22T11:59:11.999Z</time></trkpt><trkpt lat="43.76004963083551" lon="7.476168608938053"><ele>56.4</ele><time>2026-04-22T11:59:12.999Z</time></trkpt><trkpt lat="43.760135795647486" lon="7.4761078554858695"><ele>54.599999999999994</ele><time>2026-04-22T11:59:13.999Z</time></trkpt><trkpt lat="43.760221743573666" lon="7.476042117415304"><ele>52.8</ele><time>2026-04-22T11:59:14.999Z</time></trkpt><trkpt lat="43.76030046102272" lon="7.475968051244249"><ele>51.0</ele><time>2026-04-22T11:59:15.999Z</time></trkpt><trkpt lat="43.76037606866646" lon="7.475886015354916"><ele>53.4</ele><time>2026-04-22T11:59:16.999Z</time></trkpt><trkpt lat="43.760444467941184" lon="7.475788308327829"><ele>55.8</ele><time>2026-04-22T11:59:17.999Z</time></trkpt><trkpt lat="43.760502627064305" lon="7.475678441371043"><ele>58.199999999999996</ele><time>2026-04-22T11:59:18.999Z</time></trkpt><trkpt lat="43.76056111049895" lon="7.475568589646941"><ele>60.599999999999994</ele><time>2026-04-22T11:59:19.999Z</time></trkpt><trkpt lat="43.760617327212415" lon="7.475467662520699"><ele>63.0</ele><time>2026-04-22T11:59:20.999Z</time></trkpt><trkpt lat="43.76067568876209" lon="7.4753713220521085"><ele>63.0</ele><time>2026-04-22T11:59:21.999Z</time></trkpt><trkpt lat="43.76072977625957" lon="7.4752759108471425"><ele>63.0</ele><time>2026-04-22T11:59:22.999Z</time></trkpt><trkpt lat="43.760789696474575" lon="7.475175540317084"><ele>63.0</ele><time>2026-04-22T11:59:23.999Z</time></trkpt><trkpt lat="43.76084949952319" lon="7.47507011746018"><ele>63.0</ele><time>2026-04-22T11:59:24.999Z</time></trkpt><trkpt lat="43.76091591574671" lon="7.474969788547434"><ele>63.0</ele><time>2026-04-22T11:59:25.999Z</time></trkpt><trkpt lat="43.760974255155546" lon="7.474863731935189"><ele>64.4</ele><time>2026-04-22T11:59:26.999Z</time></trkpt><trkpt lat="43.76104035386776" lon="7.474764817472023"><ele>65.8</ele><time>2026-04-22T11:59:27.999Z</time></trkpt><trkpt lat="43.76111107273501" lon="7.474666278894033"><ele>67.2</ele><time>2026-04-22T11:59:28.999Z</time></trkpt><trkpt lat="43.76118193888323" lon="7.474567363794654"><ele>68.6</ele><time>2026-04-22T11:59:29.999Z</time></trkpt><trkpt lat="43.7612548714778" lon="7.474474101739551"><ele>70.0</ele><time>2026-04-22T11:59:30.999Z</time></trkpt><trkpt lat="43.76132665704242" lon="7.474379268139123"><ele>70.0</ele><time>2026-04-22T11:59:31.999Z</time></trkpt><trkpt lat="43.761389280740794" lon="7.4742813218577195"><ele>70.0</ele><time>2026-04-22T11:59:32.999Z</time></trkpt><trkpt lat="43.761438808491" lon="7.47417079699065"><ele>70.0</ele><time>2026-04-22T11:59:33.999Z</time></trkpt><trkpt lat="43.761466535915616" lon="7.474040195135168"><ele>70.0</ele><time>2026-04-22T11:59:34.999Z</time></trkpt><trkpt lat="43.76147652124487" lon="7.473899039772399"><ele>70.0</ele><time>2026-04-22T11:59:35.999Z</time></trkpt><trkpt lat="43.761489413111576" lon="7.473759723641285"><ele>69.2</ele><time>2026-04-22T11:59:36.998Z</time></trkpt><trkpt lat="43.76154020018819" lon="7.47364214862311"><ele>68.4</ele><time>2026-04-22T11:59:37.998Z</time></trkpt><trkpt lat="43.76158695185119" lon="7.473533125983926"><ele>67.6</ele><time>2026-04-22T11:59:38.998Z</time></trkpt><trkpt lat="43.76164036876987" lon="7.473419692229074"><ele>66.8</ele><time>2026-04-22T11:59:39.998Z</time></trkpt><trkpt lat="43.76171979811964" lon="7.473336766024513"><ele>66.0</ele><time>2026-04-22T11:59:40.998Z</time></trkpt><trkpt lat="43.76180837746403" lon="7.473273577619675"><ele>70.0</ele><time>2026-04-22T11:59:41.998Z</time></trkpt><trkpt lat="43.76190197669449" lon="7.47322727695034"><ele>74.0</ele><time>2026-04-22T11:59:42.998Z</time></trkpt><trkpt lat="43.76199622848427" lon="7.473189149665695"><ele>78.0</ele><time>2026-04-22T11:59:43.998Z</time></trkpt><trkpt lat="43.76208706300913" lon="7.473146927910319"><ele>82.0</ele><time>2026-04-22T11:59:44.998Z</time></trkpt><trkpt lat="43.76216589409771" lon="7.473056881307217"><ele>86.0</ele><time>2026-04-22T11:59:45.998Z</time></trkpt><trkpt lat="43.76223643011353" lon="7.472941622409188"><ele>85.19999999999999</ele><time>2026-04-22T11:59:46.998Z</time></trkpt><trkpt lat="43.76230386460949" lon="7.472824376503657"><ele>84.39999999999999</ele><time>2026-04-22T11:59:47.998Z</time></trkpt><trkpt lat="43.762360483025674" lon="7.472698912325042"><ele>83.6</ele><time>2026-04-22T11:59:48.998Z</time></trkpt><trkpt lat="43.76241613229334" lon="7.472569168757492"><ele>82.8</ele><time>2026-04-22T11:59:49.998Z</time></trkpt><trkpt lat="43.762448402255366" lon="7.472422545695463"><ele>82.0</ele><time>2026-04-22T11:59:50.998Z</time></trkpt><trkpt lat="43.762473218703875" lon="7.472281609437341"><ele>82.0</ele><time>2026-04-22T11:59:51.998Z</time></trkpt><trkpt lat="43.76249859965136" lon="7.472150958529599"><ele>82.0</ele><time>2026-04-22T11:59:52.998Z</time></trkpt><trkpt lat="43.762523605712694" lon="7.472017908626018"><ele>82.0</ele><time>2026-04-22T11:59:53.998Z</time></trkpt><trkpt lat="43.76254725620762" lon="7.471888762460004"><ele>82.0</ele><time>2026-04-22T11:59:54.998Z</time></trkpt><trkpt lat="43.76255470439221" lon="7.471749328647645"><ele>82.0</ele><time>2026-04-22T11:59:55.998Z</time></trkpt><trkpt lat="43.76258148772907" lon="7.471616198722863"><ele>82.39999999999999</ele><time>2026-04-22T11:59:56.998Z</time></trkpt><trkpt lat="43.76260183526449" lon="7.471478332917506"><ele>82.8</ele><time>2026-04-22T11:59:57.998Z</time></trkpt><trkpt lat="43.76261668649846" lon="7.471341862009583"><ele>83.2</ele><time>2026-04-22T11:59:58.998Z</time></trkpt><trkpt lat="43.762616402639935" lon="7.47120500186102"><ele>83.6</ele><time>2026-04-22T11:59:59.998Z</time></trkpt><trkpt lat="43.76260334829975" lon="7.4710746342401855"><ele>84.0</ele><time>2026-04-22T12:00:00.998Z</time></trkpt><trkpt lat="43.76256851308611" lon="7.470953279542825"><ele>85.0</ele><time>2026-04-22T12:00:01.998Z</time></trkpt><trkpt lat="43.76251713661856" lon="7.470844329877494"><ele>86.0</ele><time>2026-04-22T12:00:02.998Z</time></trkpt><trkpt lat="43.76245248726073" lon="7.470751570953419"><ele>87.0</ele><time>2026-04-22T12:00:03.998Z</time></trkpt><trkpt lat="43.76237227380129" lon="7.4706891338136625"><ele>88.0</ele><time>2026-04-22T12:00:04.998Z</time></trkpt><trkpt lat="43.76227989811534" lon="7.470646997478498"><ele>89.0</ele><time>2026-04-22T12:00:05.998Z</time></trkpt><trkpt lat="43.7621767661144" lon="7.4706417968903"><ele>89.0</ele><time>2026-04-22T12:00:06.998Z</time></trkpt><trkpt lat="43.76207113686153" lon="7.470661333109977"><ele>89.0</ele><time>2026-04-22T12:00:07.998Z</time></trkpt><trkpt lat="43.76196283154336" lon="7.470699553156004"><ele>89.0</ele><time>2026-04-22T12:00:08.998Z</time></trkpt><trkpt lat="43.76186170940767" lon="7.4707532892508475"><ele>89.0</ele><time>2026-04-22T12:00:09.998Z</time></trkpt><trkpt lat="43.76175666083762" lon="7.47080293357851"><ele>89.0</ele><time>2026-04-22T12:00:10.998Z</time></trkpt><trkpt lat="43.76165850770998" lon="7.470862823450211"><ele>89.6</ele><time>2026-04-22T12:00:11.998Z</time></trkpt><trkpt lat="43.76156433011205" lon="7.470925839260667"><ele>90.2</ele><time>2026-04-22T12:00:12.998Z</time></trkpt><trkpt lat="43.76147200883452" lon="7.470976143559519"><ele>90.8</ele><time>2026-04-22T12:00:13.998Z</time></trkpt><trkpt lat="43.76137814369172" lon="7.470989196253887"><ele>91.39999999999999</ele><time>2026-04-22T12:00:14.998Z</time></trkpt><trkpt lat="43.761293486471125" lon="7.470982471252244"><ele>92.0</ele><time>2026-04-22T12:00:15.998Z</time></trkpt><trkpt lat="43.76121672222547" lon="7.470961755877731"><ele>92.0</ele><time>2026-04-22T12:00:16.998Z</time></trkpt><trkpt lat="43.76114120627388" lon="7.470935128774154"><ele>92.0</ele><time>2026-04-22T12:00:17.998Z</time></trkpt><trkpt lat="43.76098200923896" lon="7.470879766935468"><ele>92.0</ele><time>2026-04-22T12:00:18.998Z</time></trkpt><trkpt lat="43.76087639628831" lon="7.470845306879961"><ele>92.0</ele><time>2026-04-22T12:00:19.998Z</time></trkpt><trkpt lat="43.760776857974484" lon="7.470800983034945"><ele>93.39999999999999</ele><time>2026-04-22T12:00:20.998Z</time></trkpt><trkpt lat="43.760664579929895" lon="7.470771463600245"><ele>94.8</ele><time>2026-04-22T12:00:21.998Z</time></trkpt><trkpt lat="43.76055943743262" lon="7.470760353497463"><ele>96.2</ele><time>2026-04-22T12:00:22.998Z</time></trkpt><trkpt lat="43.76045213963116" lon="7.470762290324211"><ele>97.6</ele><time>2026-04-22T12:00:23.998Z</time></trkpt><trkpt lat="43.76034775349897" lon="7.470755370274144"><ele>99.0</ele><time>2026-04-22T12:00:24.998Z</time></trkpt><trkpt lat="43.76023876717926" lon="7.470757687541841"><ele>99.2</ele><time>2026-04-22T12:00:25.998Z</time></trkpt><trkpt lat="43.76013182576009" lon="7.47075936017979"><ele>99.4</ele><time>2026-04-22T12:00:26.998Z</time></trkpt><trkpt lat="43.76002564635438" lon="7.470758810911807"><ele>99.6</ele><time>2026-04-22T12:00:27.998Z</time></trkpt><trkpt lat="43.75991548897821" lon="7.470753565567024"><ele>99.8</ele><time>2026-04-22T12:00:28.998Z</time></trkpt><trkpt lat="43.759808212839324" lon="7.470740307601681"><ele>100.0</ele><time>2026-04-22T12:00:29.998Z</time></trkpt><trkpt lat="43.759705727445215" lon="7.470705999825051"><ele>100.00000000000001</ele><time>2026-04-22T12:00:30.998Z</time></trkpt><trkpt lat="43.759616278369364" lon="7.470669904309932"><ele>100.0</ele><time>2026-04-22T12:00:31.998Z</time></trkpt><trkpt lat="43.75954329887967" lon="7.47062883784385"><ele>100.0</ele><time>2026-04-22T12:00:32.998Z</time></trkpt><trkpt lat="43.759465620560704" lon="7.4705853034387975"><ele>100.0</ele><time>2026-04-22T12:00:33.998Z</time></trkpt><trkpt lat="43.75938297587801" lon="7.470533555512696"><ele>100.00000000000001</ele><time>2026-04-22T12:00:34.998Z</time></trkpt><trkpt lat="43.759291420265114" lon="7.470472796856943"><ele>100.0</ele><time>2026-04-22T12:00:35.998Z</time></trkpt><trkpt lat="43.75920167788513" lon="7.4704076926682825"><ele>102.16666666666667</ele><time>2026-04-22T12:00:36.998Z</time></trkpt><trkpt lat="43.75912802979046" lon="7.470349129559956"><ele>104.33333333333334</ele><time>2026-04-22T12:00:37.998Z</time></trkpt><trkpt lat="43.759050314825274" lon="7.470286841994336"><ele>106.5</ele><time>2026-04-22T12:00:38.998Z</time></trkpt><trkpt lat="43.75898385433248" lon="7.470202804861778"><ele>108.66666666666666</ele><time>2026-04-22T12:00:39.998Z</time></trkpt><trkpt lat="43.75891529186124" lon="7.470136750112517"><ele>110.83333333333333</ele><time>2026-04-22T12:00:40.998Z</time></trkpt><trkpt lat="43.75884321870188" lon="7.470059268766063"><ele>113.0</ele><time>2026-04-22T12:00:41.998Z</time></trkpt><trkpt lat="43.75877555843969" lon="7.469973092793412"><ele>112.99999999999999</ele><time>2026-04-22T12:00:42.998Z</time></trkpt><trkpt lat="43.7587092684727" lon="7.46989540051217"><ele>113.0</ele><time>2026-04-22T12:00:43.998Z</time></trkpt><trkpt lat="43.758667112746714" lon="7.4698112280457645"><ele>113.0</ele><time>2026-04-22T12:00:44.999Z</time></trkpt><trkpt lat="43.758630388679265" lon="7.469738990556426"><ele>113.0</ele><time>2026-04-22T12:00:45.999Z</time></trkpt><trkpt lat="43.758584188458734" lon="7.469596358312487"><ele>112.99999999999999</ele><time>2026-04-22T12:00:47.999Z</time></trkpt><trkpt lat="43.75856148079524" lon="7.469510070417101"><ele>113.0</ele><time>2026-04-22T12:00:48.999Z</time></trkpt><trkpt lat="43.75852706617514" lon="7.469408348765026"><ele>111.0</ele><time>2026-04-22T12:00:49.999Z</time></trkpt><trkpt lat="43.758490775719345" lon="7.469287511293272"><ele>109.00000000000001</ele><time>2026-04-22T12:00:50.999Z</time></trkpt><trkpt lat="43.75846257431662" lon="7.469157936264565"><ele>107.0</ele><time>2026-04-22T12:00:51.999Z</time></trkpt><trkpt lat="43.75845897756865" lon="7.469034051028081"><ele>105.0</ele><time>2026-04-22T12:00:52.999Z</time></trkpt><trkpt lat="43.75847675985492" lon="7.468917608346496"><ele>103.0</ele><time>2026-04-22T12:00:53.999Z</time></trkpt><trkpt lat="43.75851798748019" lon="7.468804833096431"><ele>108.60000000000001</ele><time>2026-04-22T12:00:54.999Z</time></trkpt><trkpt lat="43.758566494348386" lon="7.468699037539799"><ele>114.2</ele><time>2026-04-22T12:00:55.999Z</time></trkpt><trkpt lat="43.75861779830733" lon="7.4685893420680385"><ele>119.8</ele><time>2026-04-22T12:00:56.999Z</time></trkpt><trkpt lat="43.75867597680908" lon="7.468474386945141"><ele>125.4</ele><time>2026-04-22T12:00:57.999Z</time></trkpt><trkpt lat="43.758742043981535" lon="7.468357345584597"><ele>131.0</ele><time>2026-04-22T12:00:58.999Z</time></trkpt><trkpt lat="43.75881335223436" lon="7.4682320761439325"><ele>131.0</ele><time>2026-04-22T12:00:59.999Z</time></trkpt><trkpt lat="43.758888733869625" lon="7.468104161188841"><ele>131.0</ele><time>2026-04-22T12:01:00.999Z</time></trkpt><trkpt lat="43.75896611639172" lon="7.4679758708923805"><ele>131.0</ele><time>2026-04-22T12:01:01.999Z</time></trkpt><trkpt lat="43.75904450731767" lon="7.46784367809472"><ele>131.0</ele><time>2026-04-22T12:01:02.999Z</time></trkpt><trkpt lat="43.759130521049265" lon="7.467723123267036"><ele>132.75</ele><time>2026-04-22T12:01:03.999Z</time></trkpt><trkpt lat="43.75921973782273" lon="7.467610448328368"><ele>134.5</ele><time>2026-04-22T12:01:04.999Z</time></trkpt><trkpt lat="43.759311520567095" lon="7.467504604011441"><ele>136.25</ele><time>2026-04-22T12:01:05.999Z</time></trkpt><trkpt lat="43.75940286882266" lon="7.467407318324212"><ele>138.0</ele><time>2026-04-22T12:01:06.999Z</time></trkpt><trkpt lat="43.75949623754701" lon="7.467316833377179"><ele>138.0</ele><time>2026-04-22T12:01:07.999Z</time></trkpt><trkpt lat="43.75959027267587" lon="7.467231406780263"><ele>138.0</ele><time>2026-04-22T12:01:08.999Z</time></trkpt><trkpt lat="43.75968245836538" lon="7.46713888127513"><ele>138.0</ele><time>2026-04-22T12:01:09.999Z</time></trkpt><trkpt lat="43.75976962738788" lon="7.467049713319113"><ele>138.0</ele><time>2026-04-22T12:01:10.999Z</time></trkpt><trkpt lat="43.7598595055975" lon="7.466953644705385"><ele>138.0</ele><time>2026-04-22T12:01:11.999Z</time></trkpt><trkpt lat="43.75994912057097" lon="7.466853767957997"><ele>139.25</ele><time>2026-04-22T12:01:12.999Z</time></trkpt><trkpt lat="43.76003546904909" lon="7.466744344618442"><ele>140.5</ele><time>2026-04-22T12:01:13.999Z</time></trkpt><trkpt lat="43.76011445805146" lon="7.466624942932397"><ele>141.75</ele><time>2026-04-22T12:01:14.999Z</time></trkpt><trkpt lat="43.76021024713092" lon="7.466511545551412"><ele>143.0</ele><time>2026-04-22T12:01:15.999Z</time></trkpt><trkpt lat="43.76030258924745" lon="7.466420632023171"><ele>143.0</ele><time>2026-04-22T12:01:16.999Z</time></trkpt><trkpt lat="43.76040978723" lon="7.466331244382109"><ele>143.0</ele><time>2026-04-22T12:01:17.999Z</time></trkpt><trkpt lat="43.7605210330676" lon="7.466258726904095"><ele>143.0</ele><time>2026-04-22T12:01:18.999Z</time></trkpt><trkpt lat="43.76063009179515" lon="7.466187938030351"><ele>143.0</ele><time>2026-04-22T12:01:19.999Z</time></trkpt><trkpt lat="43.760746805648274" lon="7.466108628612484"><ele>144.75</ele><time>2026-04-22T12:01:20.999Z</time></trkpt><trkpt lat="43.76085753088476" lon="7.466013749211275"><ele>146.5</ele><time>2026-04-22T12:01:21.999Z</time></trkpt><trkpt lat="43.76096143597842" lon="7.465912756749761"><ele>148.25</ele><time>2026-04-22T12:01:22.999Z</time></trkpt><trkpt lat="43.7610519180797" lon="7.4657803495716"><ele>150.0</ele><time>2026-04-22T12:01:23.999Z</time></trkpt><trkpt lat="43.761131650746684" lon="7.465658021689358"><ele>150.0</ele><time>2026-04-22T12:01:24.999Z</time></trkpt><trkpt lat="43.76122564941609" lon="7.4655497156178345"><ele>150.0</ele><time>2026-04-22T12:01:25.999Z</time></trkpt><trkpt lat="43.76134146674132" lon="7.465484824544511"><ele>150.0</ele><time>2026-04-22T12:01:26.999Z</time></trkpt><trkpt lat="43.76144497137121" lon="7.465388247259965"><ele>150.0</ele><time>2026-04-22T12:01:27.999Z</time></trkpt><trkpt lat="43.7615496618994" lon="7.465311850638137"><ele>146.0</ele><time>2026-04-22T12:01:28.999Z</time></trkpt><trkpt lat="43.76162554238571" lon="7.465189705149909"><ele>142.0</ele><time>2026-04-22T12:01:29.999Z</time></trkpt><trkpt lat="43.7616806523142" lon="7.465021465864797"><ele>138.0</ele><time>2026-04-22T12:01:30.999Z</time></trkpt><trkpt lat="43.76173305161698" lon="7.4648363240890525"><ele>134.0</ele><time>2026-04-22T12:01:31.999Z</time></trkpt><trkpt lat="43.76181578307882" lon="7.464693505259393"><ele>139.25</ele><time>2026-04-22T12:01:32.999Z</time></trkpt><trkpt lat="43.761889139283504" lon="7.46457021501912"><ele>144.5</ele><time>2026-04-22T12:01:33.999Z</time></trkpt><trkpt lat="43.7619671574617" lon="7.464449808340578"><ele>149.75</ele><time>2026-04-22T12:01:34.999Z</time></trkpt><trkpt lat="43.762046590739445" lon="7.464330186927461"><ele>155.0</ele><time>2026-04-22T12:01:35.999Z</time></trkpt><trkpt lat="43.76214220174925" lon="7.464246299956909"><ele>155.0</ele><time>2026-04-22T12:01:36.999Z</time></trkpt><trkpt lat="43.76224516284396" lon="7.464167793390016"><ele>155.0</ele><time>2026-04-22T12:01:37.999Z</time></trkpt><trkpt lat="43.7623412091445" lon="7.464057834455201"><ele>155.0</ele><time>2026-04-22T12:01:38.999Z</time></trkpt><trkpt lat="43.76244574308358" lon="7.463958753218827"><ele>155.0</ele><time>2026-04-22T12:01:39.999Z</time></trkpt><trkpt lat="43.762538498809135" lon="7.463832005507894"><ele>157.5</ele><time>2026-04-22T12:01:40.999Z</time></trkpt><trkpt lat="43.76262699868138" lon="7.463697788675694"><ele>160.0</ele><time>2026-04-22T12:01:41.999Z</time></trkpt><trkpt lat="43.76273868823662" lon="7.463606292119457"><ele>162.5</ele><time>2026-04-22T12:01:42.999Z</time></trkpt><trkpt lat="43.76283798384873" lon="7.463495555497514"><ele>165.0</ele><time>2026-04-22T12:01:43.999Z</time></trkpt><trkpt lat="43.76292806382321" lon="7.46337275764532"><ele>165.0</ele><time>2026-04-22T12:01:44.999Z</time></trkpt><trkpt lat="43.76301151937083" lon="7.4632410961646665"><ele>165.0</ele><time>2026-04-22T12:01:45.999Z</time></trkpt><trkpt lat="43.76309112399497" lon="7.463125916150764"><ele>165.0</ele><time>2026-04-22T12:01:46.999Z</time></trkpt><trkpt lat="43.76316845050201" lon="7.463020775592163"><ele>165.0</ele><time>2026-04-22T12:01:47.999Z</time></trkpt><trkpt lat="43.763246120752775" lon="7.462917836563224"><ele>169.4</ele><time>2026-04-22T12:01:48.999Z</time></trkpt><trkpt lat="43.763319711381065" lon="7.462808410963972"><ele>173.8</ele><time>2026-04-22T12:01:49.999Z</time></trkpt><trkpt lat="43.76339709844087" lon="7.4626978088781675"><ele>178.2</ele><time>2026-04-22T12:01:50.999Z</time></trkpt><trkpt lat="43.7634704814399" lon="7.462582627604379"><ele>182.6</ele><time>2026-04-22T12:01:51.999Z</time></trkpt><trkpt lat="43.76355276936094" lon="7.462484421449511"><ele>187.0</ele><time>2026-04-22T12:01:52.999Z</time></trkpt><trkpt lat="43.76363494069766" lon="7.4624215522632085"><ele>187.0</ele><time>2026-04-22T12:01:53.999Z</time></trkpt><trkpt lat="43.7637249305928" lon="7.4623607078096414"><ele>187.0</ele><time>2026-04-22T12:01:54.999Z</time></trkpt><trkpt lat="43.76377848147125" lon="7.462289935546768"><ele>187.0</ele><time>2026-04-22T12:01:55.998Z</time></trkpt><trkpt lat="43.76379369922179" lon="7.462197951581141"><ele>187.0</ele><time>2026-04-22T12:01:56.998Z</time></trkpt><trkpt lat="43.763783844931325" lon="7.4620827015685816"><ele>187.0</ele><time>2026-04-22T12:01:57.998Z</time></trkpt><trkpt lat="43.76376890532948" lon="7.461987184804825"><ele>187.0</ele><time>2026-04-22T12:01:58.998Z</time></trkpt><trkpt lat="43.763735326861365" lon="7.461895346481451"><ele>186.39999999999998</ele><time>2026-04-22T12:02:00.998Z</time></trkpt><trkpt lat="43.763700759167165" lon="7.461805208898556"><ele>185.79999999999998</ele><time>2026-04-22T12:02:03.998Z</time></trkpt><trkpt lat="43.763670022310315" lon="7.461704222947845"><ele>185.2</ele><time>2026-04-22T12:02:05.998Z</time></trkpt><trkpt lat="43.76366532656164" lon="7.461563372603933"><ele>184.6</ele><time>2026-04-22T12:02:07.998Z</time></trkpt><trkpt lat="43.76369297986429" lon="7.461423806857957"><ele>184.0</ele><time>2026-04-22T12:02:09.998Z</time></trkpt><trkpt lat="43.76371272186446" lon="7.461300813945193"><ele>184.6</ele><time>2026-04-22T12:02:12.998Z</time></trkpt><trkpt lat="43.7637515321422" lon="7.46119405499205"><ele>185.2</ele><time>2026-04-22T12:02:15.998Z</time></trkpt><trkpt lat="43.76380755556038" lon="7.461123686337649"><ele>185.79999999999998</ele><time>2026-04-22T12:02:17.998Z</time></trkpt><trkpt lat="43.76385000015084" lon="7.4610076877552345"><ele>186.39999999999998</ele><time>2026-04-22T12:02:19.998Z</time></trkpt><trkpt lat="43.7638919890324" lon="7.460848284621176"><ele>187.0</ele><time>2026-04-22T12:02:21.998Z</time></trkpt><trkpt lat="43.763882907534374" lon="7.460747835013963"><ele>187.0</ele><time>2026-04-22T12:02:22.998Z</time></trkpt><trkpt lat="43.76383582959465" lon="7.460660773561904"><ele>187.0</ele><time>2026-04-22T12:02:23.998Z</time></trkpt><trkpt lat="43.76378626655546" lon="7.460578101656561"><ele>187.0</ele><time>2026-04-22T12:02:24.998Z</time></trkpt><trkpt lat="43.76372920425131" lon="7.46050957401315"><ele>187.0</ele><time>2026-04-22T12:02:25.998Z</time></trkpt><trkpt lat="43.763643933597265" lon="7.4604022324512265"><ele>187.0</ele><time>2026-04-22T12:02:27.998Z</time></trkpt><trkpt lat="43.76359924240331" lon="7.460339760421194"><ele>187.0</ele><time>2026-04-22T12:02:28.998Z</time></trkpt><trkpt lat="43.763538460131436" lon="7.460219073098967"><ele>186.0</ele><time>2026-04-22T12:02:30.998Z</time></trkpt><trkpt lat="43.76349855234802" lon="7.46009365532807"><ele>185.0</ele><time>2026-04-22T12:02:32.998Z</time></trkpt><trkpt lat="43.763467034253736" lon="7.459947886407819"><ele>184.0</ele><time>2026-04-22T12:02:34.999Z</time></trkpt><trkpt lat="43.76347163268061" lon="7.459771274054254"><ele>183.0</ele><time>2026-04-22T12:02:36.999Z</time></trkpt><trkpt lat="43.76350076324816" lon="7.459686156760734"><ele>182.0</ele><time>2026-04-22T12:02:37.999Z</time></trkpt><trkpt lat="43.76354386232407" lon="7.459581174274383"><ele>182.0</ele><time>2026-04-22T12:02:38.999Z</time></trkpt><trkpt lat="43.76358679922166" lon="7.459482751261502"><ele>182.0</ele><time>2026-04-22T12:02:39.999Z</time></trkpt><trkpt lat="43.76364271309661" lon="7.459378688539137"><ele>182.0</ele><time>2026-04-22T12:02:40.999Z</time></trkpt><trkpt lat="43.76370211849709" lon="7.459276485536764"><ele>182.0</ele><time>2026-04-22T12:02:41.999Z</time></trkpt><trkpt lat="43.763763931992045" lon="7.459197983738056"><ele>182.0</ele><time>2026-04-22T12:02:42.999Z</time></trkpt><trkpt lat="43.76382670516185" lon="7.459125707930901"><ele>182.0</ele><time>2026-04-22T12:02:43.999Z</time></trkpt><trkpt lat="43.76389197411186" lon="7.459055201539832"><ele>182.0</ele><time>2026-04-22T12:02:44.999Z</time></trkpt><trkpt lat="43.76395511806422" lon="7.458983034174872"><ele>182.0</ele><time>2026-04-22T12:02:45.999Z</time></trkpt><trkpt lat="43.764009164317194" lon="7.458907169772544"><ele>182.0</ele><time>2026-04-22T12:02:46.999Z</time></trkpt><trkpt lat="43.76405914448312" lon="7.458839309048036"><ele>182.0</ele><time>2026-04-22T12:02:47.999Z</time></trkpt><trkpt lat="43.7640883875784" lon="7.458755836943792"><ele>182.0</ele><time>2026-04-22T12:02:48.999Z</time></trkpt><trkpt lat="43.76413008929933" lon="7.458642009838552"><ele>182.0</ele><time>2026-04-22T12:02:50.999Z</time></trkpt><trkpt lat="43.76417387433638" lon="7.4585182050536325"><ele>184.5</ele><time>2026-04-22T12:02:53.999Z</time></trkpt><trkpt lat="43.76420661625018" lon="7.458435226919522"><ele>187.0</ele><time>2026-04-22T12:02:56.999Z</time></trkpt><trkpt lat="43.764257774865676" lon="7.458365701010589"><ele>189.5</ele><time>2026-04-22T12:03:01.999Z</time></trkpt><trkpt lat="43.76432467032754" lon="7.458318530586601"><ele>192.0</ele><time>2026-04-22T12:03:03.999Z</time></trkpt><trkpt lat="43.76440975478528" lon="7.458287630304437"><ele>194.50000000000003</ele><time>2026-04-22T12:03:05.999Z</time></trkpt><trkpt lat="43.76451480323772" lon="7.458268504568229"><ele>197.0</ele><time>2026-04-22T12:03:07.999Z</time></trkpt><trkpt lat="43.764638188138804" lon="7.4582469652690415"><ele>197.0</ele><time>2026-04-22T12:03:09.999Z</time></trkpt><trkpt lat="43.76475183994314" lon="7.458202657939186"><ele>197.0</ele><time>2026-04-22T12:03:11.999Z</time></trkpt><trkpt lat="43.76480360788299" lon="7.458128160724208"><ele>197.0</ele><time>2026-04-22T12:03:12.999Z</time></trkpt><trkpt lat="43.76483101025645" lon="7.458030273462558"><ele>197.0</ele><time>2026-04-22T12:03:13.999Z</time></trkpt><trkpt lat="43.764846500242" lon="7.4578573308371885"><ele>197.0</ele><time>2026-04-22T12:03:15.999Z</time></trkpt><trkpt lat="43.7647758612024" lon="7.45776955957071"><ele>199.0</ele><time>2026-04-22T12:03:17.999Z</time></trkpt><trkpt lat="43.764719203916165" lon="7.457690057397718"><ele>201.0</ele><time>2026-04-22T12:03:20.999Z</time></trkpt><trkpt lat="43.76463196848723" lon="7.457599892258323"><ele>203.0</ele><time>2026-04-22T12:03:22.999Z</time></trkpt><trkpt lat="43.76456761354721" lon="7.457532931931926"><ele>205.0</ele><time>2026-04-22T12:03:23.999Z</time></trkpt><trkpt lat="43.76449006855925" lon="7.457453958315087"><ele>207.0</ele><time>2026-04-22T12:03:24.999Z</time></trkpt><trkpt lat="43.76440703571301" lon="7.457373855943918"><ele>202.0</ele><time>2026-04-22T12:03:25.999Z</time></trkpt><trkpt lat="43.76433292558617" lon="7.4573057254585615"><ele>197.0</ele><time>2026-04-22T12:03:26.999Z</time></trkpt><trkpt lat="43.76426138353326" lon="7.4572421702313285"><ele>192.0</ele><time>2026-04-22T12:03:27.999Z</time></trkpt><trkpt lat="43.764196436714506" lon="7.457190956145871"><ele>187.0</ele><time>2026-04-22T12:03:28.999Z</time></trkpt><trkpt lat="43.76408231556149" lon="7.45713673385872"><ele>182.0</ele><time>2026-04-22T12:03:30.999Z</time></trkpt><trkpt lat="43.764003174777045" lon="7.457026898269806"><ele>182.0</ele><time>2026-04-22T12:03:32.999Z</time></trkpt><trkpt lat="43.763966336188155" lon="7.4569042659838845"><ele>182.0</ele><time>2026-04-22T12:03:34.999Z</time></trkpt><trkpt lat="43.76403620356558" lon="7.456756408365627"><ele>182.0</ele><time>2026-04-22T12:03:36.999Z</time></trkpt><trkpt lat="43.76408928640016" lon="7.456685371639895"><ele>182.0</ele><time>2026-04-22T12:03:37.999Z</time></trkpt><trkpt lat="43.764156119054086" lon="7.456627549570207"><ele>182.0</ele><time>2026-04-22T12:03:38.999Z</time></trkpt><trkpt lat="43.76423120861119" lon="7.456576801491491"><ele>182.0</ele><time>2026-04-22T12:03:39.999Z</time></trkpt><trkpt lat="43.7643074943264" lon="7.456530690745042"><ele>182.0</ele><time>2026-04-22T12:03:40.999Z</time></trkpt><trkpt lat="43.76438930047586" lon="7.456506729131793"><ele>182.0</ele><time>2026-04-22T12:03:41.999Z</time></trkpt><trkpt lat="43.76446789454452" lon="7.456485567306311"><ele>182.0</ele><time>2026-04-22T12:03:42.999Z</time></trkpt><trkpt lat="43.76455014119763" lon="7.456455794716669"><ele>182.0</ele><time>2026-04-22T12:03:43.999Z</time></trkpt><trkpt lat="43.76463631293176" lon="7.4564168387240315"><ele>182.0</ele><time>2026-04-22T12:03:44.999Z</time></trkpt><trkpt lat="43.76471982120174" lon="7.4563709339408275"><ele>182.2</ele><time>2026-04-22T12:03:45.999Z</time></trkpt><trkpt lat="43.764783656458576" lon="7.456326512552875"><ele>182.39999999999998</ele><time>2026-04-22T12:03:46.999Z</time></trkpt><trkpt lat="43.76484377444874" lon="7.456288740470003"><ele>182.60000000000002</ele><time>2026-04-22T12:03:47.999Z</time></trkpt><trkpt lat="43.764955520820926" lon="7.456221740813359"><ele>182.8</ele><time>2026-04-22T12:03:49.999Z</time></trkpt><trkpt lat="43.76505451692489" lon="7.45615682186013"><ele>183.0</ele><time>2026-04-22T12:03:51.999Z</time></trkpt><trkpt lat="43.765154520323264" lon="7.456093943488037"><ele>186.5</ele><time>2026-04-22T12:03:53.999Z</time></trkpt><trkpt lat="43.76525697798345" lon="7.456026361327688"><ele>190.0</ele><time>2026-04-22T12:03:55.999Z</time></trkpt><trkpt lat="43.76533814426228" lon="7.455976599187325"><ele>193.5</ele><time>2026-04-22T12:03:57.999Z</time></trkpt><trkpt lat="43.76540571070455" lon="7.455916522599284"><ele>197.0</ele><time>2026-04-22T12:03:59.999Z</time></trkpt><trkpt lat="43.765463356561746" lon="7.455857535913256"><ele>200.5</ele><time>2026-04-22T12:04:01.999Z</time></trkpt><trkpt lat="43.76553111276932" lon="7.455779421908005"><ele>204.0</ele><time>2026-04-22T12:04:03.999Z</time></trkpt><trkpt lat="43.765598739362396" lon="7.455711283814022"><ele>204.0</ele><time>2026-04-22T12:04:05.999Z</time></trkpt><trkpt lat="43.765680105330915" lon="7.455622786891368"><ele>204.0</ele><time>2026-04-22T12:04:07.999Z</time></trkpt><trkpt lat="43.76573239608967" lon="7.455568971483623"><ele>204.0</ele><time>2026-04-22T12:04:08.999Z</time></trkpt><trkpt lat="43.76579969985358" lon="7.455516016572876"><ele>204.0</ele><time>2026-04-22T12:04:09.999Z</time></trkpt><trkpt lat="43.76586921676917" lon="7.455467086617263"><ele>204.0</ele><time>2026-04-22T12:04:10.999Z</time></trkpt><trkpt lat="43.76592750034904" lon="7.455426467012238"><ele>204.0</ele><time>2026-04-22T12:04:11.999Z</time></trkpt><trkpt lat="43.76598764666475" lon="7.455384491925583"><ele>207.16666666666666</ele><time>2026-04-22T12:04:12.999Z</time></trkpt><trkpt lat="43.76605126175097" lon="7.4553397984818455"><ele>210.33333333333331</ele><time>2026-04-22T12:04:13.999Z</time></trkpt><trkpt lat="43.76611797483144" lon="7.455288702239612"><ele>213.5</ele><time>2026-04-22T12:04:14.999Z</time></trkpt><trkpt lat="43.76618986254476" lon="7.455228502821371"><ele>216.66666666666666</ele><time>2026-04-22T12:04:15.999Z</time></trkpt><trkpt lat="43.76626630158972" lon="7.4551668859839415"><ele>219.83333333333331</ele><time>2026-04-22T12:04:16.999Z</time></trkpt><trkpt lat="43.766345964342044" lon="7.455103626042982"><ele>223.0</ele><time>2026-04-22T12:04:17.999Z</time></trkpt><trkpt lat="43.7664231225536" lon="7.4550385444297635"><ele>222.99999999999997</ele><time>2026-04-22T12:04:18.999Z</time></trkpt><trkpt lat="43.766491506508075" lon="7.454978884207235"><ele>223.0</ele><time>2026-04-22T12:04:19.999Z</time></trkpt><trkpt lat="43.766556955274794" lon="7.454913189498983"><ele>223.0</ele><time>2026-04-22T12:04:20.999Z</time></trkpt><trkpt lat="43.76661916094275" lon="7.454829254801642"><ele>223.0</ele><time>2026-04-22T12:04:21.999Z</time></trkpt><trkpt lat="43.76666515039753" lon="7.454720584879165"><ele>222.99999999999997</ele><time>2026-04-22T12:04:22.999Z</time></trkpt><trkpt lat="43.76670651916854" lon="7.454608299469591"><ele>223.0</ele><time>2026-04-22T12:04:23.999Z</time></trkpt><trkpt lat="43.766744552130056" lon="7.454497458760009"><ele>224.16666666666666</ele><time>2026-04-22T12:04:24.999Z</time></trkpt><trkpt lat="43.76678593997062" lon="7.454395385072228"><ele>225.33333333333331</ele><time>2026-04-22T12:04:25.999Z</time></trkpt><trkpt lat="43.7668405782028" lon="7.454308953433657"><ele>226.5</ele><time>2026-04-22T12:04:26.999Z</time></trkpt><trkpt lat="43.76691739250023" lon="7.45424276074314"><ele>227.66666666666669</ele><time>2026-04-22T12:04:27.999Z</time></trkpt><trkpt lat="43.76699857410697" lon="7.454188983784014"><ele>228.83333333333334</ele><time>2026-04-22T12:04:28.999Z</time></trkpt><trkpt lat="43.76707922835978" lon="7.454135245072344"><ele>230.0</ele><time>2026-04-22T12:04:29.999Z</time></trkpt><trkpt lat="43.76715075393716" lon="7.454066996875895"><ele>230.00000000000003</ele><time>2026-04-22T12:04:30.999Z</time></trkpt><trkpt lat="43.767216131458966" lon="7.453986053281597"><ele>230.0</ele><time>2026-04-22T12:04:31.999Z</time></trkpt><trkpt lat="43.76728296645882" lon="7.453905736568682"><ele>230.0</ele><time>2026-04-22T12:04:32.999Z</time></trkpt><trkpt lat="43.76735073357515" lon="7.453826955920203"><ele>230.0</ele><time>2026-04-22T12:04:33.999Z</time></trkpt><trkpt lat="43.76742222904045" lon="7.45375616511151"><ele>230.00000000000003</ele><time>2026-04-22T12:04:34.999Z</time></trkpt><trkpt lat="43.767505936438226" lon="7.453702098277151"><ele>230.0</ele><time>2026-04-22T12:04:35.999Z</time></trkpt><trkpt lat="43.76759286192648" lon="7.453674255510711"><ele>230.16666666666669</ele><time>2026-04-22T12:04:36.999Z</time></trkpt><trkpt lat="43.767666078232594" lon="7.453660006612716"><ele>230.33333333333334</ele><time>2026-04-22T12:04:37.999Z</time></trkpt><trkpt lat="43.76776860694103" lon="7.453632453245384"><ele>230.5</ele><time>2026-04-22T12:04:39.999Z</time></trkpt><trkpt lat="43.7678536412618" lon="7.453588758951417"><ele>230.66666666666669</ele><time>2026-04-22T12:04:41.999Z</time></trkpt><trkpt lat="43.767920837852635" lon="7.453568630262413"><ele>230.83333333333334</ele><time>2026-04-22T12:04:42.999Z</time></trkpt><trkpt lat="43.76799952125355" lon="7.453496525353959"><ele>231.0</ele><time>2026-04-22T12:04:43.999Z</time></trkpt><trkpt lat="43.768073132672825" lon="7.4534209834631255"><ele>231.0</ele><time>2026-04-22T12:04:44.999Z</time></trkpt><trkpt lat="43.76813180704872" lon="7.453358921242192"><ele>231.0</ele><time>2026-04-22T12:04:45.999Z</time></trkpt><trkpt lat="43.76822507806886" lon="7.45325586442199"><ele>231.0</ele><time>2026-04-22T12:04:48Z</time></trkpt><trkpt lat="43.76827330634893" lon="7.453197753243789"><ele>231.0</ele><time>2026-04-22T12:04:49Z</time></trkpt><trkpt lat="43.768317096959755" lon="7.453133590814174"><ele>231.0</ele><time>2026-04-22T12:04:50Z</time></trkpt><trkpt lat="43.76836508777381" lon="7.453047949287114"><ele>231.0</ele><time>2026-04-22T12:04:51Z</time></trkpt><trkpt lat="43.76842165154819" lon="7.452914929616654"><ele>235.25</ele><time>2026-04-22T12:04:52Z</time></trkpt><trkpt lat="43.768483735525244" lon="7.452755212099164"><ele>239.5</ele><time>2026-04-22T12:04:53Z</time></trkpt><trkpt lat="43.76853198323083" lon="7.452632271782878"><ele>243.75</ele><time>2026-04-22T12:04:54Z</time></trkpt><trkpt lat="43.76858524591033" lon="7.452499332982896"><ele>248.0</ele><time>2026-04-22T12:04:56Z</time></trkpt><trkpt lat="43.76863347593469" lon="7.452354981442109"><ele>248.0</ele><time>2026-04-22T12:04:58Z</time></trkpt><trkpt lat="43.76870352144912" lon="7.452235666885731"><ele>248.0</ele><time>2026-04-22T12:05:00Z</time></trkpt><trkpt lat="43.768775761499995" lon="7.452128236751331"><ele>248.0</ele><time>2026-04-22T12:05:02Z</time></trkpt><trkpt lat="43.76884814655961" lon="7.452056550036999"><ele>248.0</ele><time>2026-04-22T12:05:04Z</time></trkpt><trkpt lat="43.76890932904176" lon="7.4519942253615605"><ele>248.0</ele><time>2026-04-22T12:05:06Z</time></trkpt><trkpt lat="43.76897262479626" lon="7.4519320224812615"><ele>244.8</ele><time>2026-04-22T12:05:08Z</time></trkpt><trkpt lat="43.769052284237624" lon="7.45185324414742"><ele>241.60000000000002</ele><time>2026-04-22T12:05:10Z</time></trkpt><trkpt lat="43.76912243600033" lon="7.451770372175116"><ele>238.39999999999998</ele><time>2026-04-22T12:05:12Z</time></trkpt><trkpt lat="43.76915128828194" lon="7.451628165227765"><ele>235.2</ele><time>2026-04-22T12:05:14Z</time></trkpt><trkpt lat="43.76914390533274" lon="7.451504404052866"><ele>232.0</ele><time>2026-04-22T12:05:16Z</time></trkpt><trkpt lat="43.769092263396814" lon="7.45137416096105"><ele>233.83333333333331</ele><time>2026-04-22T12:05:18Z</time></trkpt><trkpt lat="43.76905042810329" lon="7.451277263826852"><ele>235.66666666666666</ele><time>2026-04-22T12:05:20Z</time></trkpt><trkpt lat="43.769003751855195" lon="7.451192999506203"><ele>237.5</ele><time>2026-04-22T12:05:22Z</time></trkpt><trkpt lat="43.76894942027146" lon="7.451102962681746"><ele>239.33333333333331</ele><time>2026-04-22T12:05:24Z</time></trkpt><trkpt lat="43.76890311841764" lon="7.4510346195675"><ele>241.16666666666666</ele><time>2026-04-22T12:05:26Z</time></trkpt><trkpt lat="43.76881728696664" lon="7.45098433762942"><ele>243.0</ele><time>2026-04-22T12:05:27.999Z</time></trkpt><trkpt lat="43.76872405470994" lon="7.450940047791245"><ele>243.0</ele><time>2026-04-22T12:05:29.999Z</time></trkpt><trkpt lat="43.76861079362015" lon="7.45097355985061"><ele>243.0</ele><time>2026-04-22T12:05:31.999Z</time></trkpt><trkpt lat="43.768542825568616" lon="7.451022336061041"><ele>243.0</ele><time>2026-04-22T12:05:32.999Z</time></trkpt><trkpt lat="43.76847431865623" lon="7.451037998693599"><ele>243.0</ele><time>2026-04-22T12:05:33.999Z</time></trkpt><trkpt lat="43.768372523223945" lon="7.4510757687275735"><ele>243.0</ele><time>2026-04-22T12:05:35.999Z</time></trkpt><trkpt lat="43.768250652120045" lon="7.451091266213711"><ele>244.14285714285714</ele><time>2026-04-22T12:05:37.999Z</time></trkpt><trkpt lat="43.7681861055111" lon="7.451095508794158"><ele>245.28571428571428</ele><time>2026-04-22T12:05:38.999Z</time></trkpt><trkpt lat="43.768116995114944" lon="7.451098486894229"><ele>246.42857142857142</ele><time>2026-04-22T12:05:39.999Z</time></trkpt><trkpt lat="43.7680500100602" lon="7.45110936371203"><ele>247.57142857142856</ele><time>2026-04-22T12:05:40.999Z</time></trkpt><trkpt lat="43.767987301166514" lon="7.451168755416201"><ele>248.71428571428572</ele><time>2026-04-22T12:05:41.999Z</time></trkpt><trkpt lat="43.767924175728886" lon="7.451193338781931"><ele>249.85714285714283</ele><time>2026-04-22T12:05:42.999Z</time></trkpt><trkpt lat="43.767856875015354" lon="7.451216035846511"><ele>250.99999999999997</ele><time>2026-04-22T12:05:43.999Z</time></trkpt><trkpt lat="43.767787995966785" lon="7.45125158425034"><ele>252.83333333333334</ele><time>2026-04-22T12:05:44.999Z</time></trkpt><trkpt lat="43.76765682331071" lon="7.451276636821428"><ele>254.66666666666669</ele><time>2026-04-22T12:05:46.999Z</time></trkpt><trkpt lat="43.767583636864224" lon="7.451235546612403"><ele>256.5</ele><time>2026-04-22T12:05:47.999Z</time></trkpt><trkpt lat="43.76751239726818" lon="7.4511951989167144"><ele>258.3333333333333</ele><time>2026-04-22T12:05:48.999Z</time></trkpt><trkpt lat="43.76745119479753" lon="7.451163456141146"><ele>260.16666666666663</ele><time>2026-04-22T12:05:49.999Z</time></trkpt><trkpt lat="43.76738826581362" lon="7.451135631720094"><ele>262.0</ele><time>2026-04-22T12:05:50.999Z</time></trkpt><trkpt lat="43.76731889052935" lon="7.451117982913324"><ele>262.0</ele><time>2026-04-22T12:05:51.999Z</time></trkpt><trkpt lat="43.76724833648665" lon="7.451108272061249"><ele>262.0</ele><time>2026-04-22T12:05:52.999Z</time></trkpt><trkpt lat="43.76718286825963" lon="7.451102731152286"><ele>262.0</ele><time>2026-04-22T12:05:53.999Z</time></trkpt><trkpt lat="43.76711914132443" lon="7.451110997351665"><ele>262.0</ele><time>2026-04-22T12:05:54.999Z</time></trkpt><trkpt lat="43.76703934540225" lon="7.451115275513306"><ele>262.0</ele><time>2026-04-22T12:05:56.999Z</time></trkpt><trkpt lat="43.76695964534944" lon="7.451113149963442"><ele>262.0</ele><time>2026-04-22T12:05:58.999Z</time></trkpt><trkpt lat="43.76685934639888" lon="7.45109292639285"><ele>261.0</ele><time>2026-04-22T12:06:00.999Z</time></trkpt><trkpt lat="43.766776297331674" lon="7.451023642689224"><ele>260.0</ele><time>2026-04-22T12:06:02.999Z</time></trkpt><trkpt lat="43.76670649114526" lon="7.450956876468564"><ele>259.0</ele><time>2026-04-22T12:06:04.999Z</time></trkpt><trkpt lat="43.76661744384497" lon="7.450881918423318"><ele>258.0</ele><time>2026-04-22T12:06:06.999Z</time></trkpt><trkpt lat="43.76655537454489" lon="7.450853643983967"><ele>257.0</ele><time>2026-04-22T12:06:07.999Z</time></trkpt><trkpt lat="43.76648567802159" lon="7.4508385913676545"><ele>256.0</ele><time>2026-04-22T12:06:08.999Z</time></trkpt><trkpt lat="43.766403362951756" lon="7.450834725662077"><ele>256.0</ele><time>2026-04-22T12:06:09.999Z</time></trkpt><trkpt lat="43.76630059575131" lon="7.450861039138462"><ele>256.0</ele><time>2026-04-22T12:06:10.999Z</time></trkpt><trkpt lat="43.76619275809679" lon="7.450892276722361"><ele>256.0</ele><time>2026-04-22T12:06:11.999Z</time></trkpt><trkpt lat="43.766090834638426" lon="7.45092343367888"><ele>256.0</ele><time>2026-04-22T12:06:12.999Z</time></trkpt><trkpt lat="43.76597759284343" lon="7.450958489201873"><ele>256.0</ele><time>2026-04-22T12:06:13.999Z</time></trkpt><trkpt lat="43.765851259576486" lon="7.450996257157196"><ele>256.6</ele><time>2026-04-22T12:06:14.999Z</time></trkpt><trkpt lat="43.765722155504626" lon="7.451028968703909"><ele>257.20000000000005</ele><time>2026-04-22T12:06:15.999Z</time></trkpt><trkpt lat="43.76561480240426" lon="7.45105279021133"><ele>257.79999999999995</ele><time>2026-04-22T12:06:16.999Z</time></trkpt><trkpt lat="43.76551860353891" lon="7.4510771480151705"><ele>258.4</ele><time>2026-04-22T12:06:17.999Z</time></trkpt><trkpt lat="43.765423284839805" lon="7.451100035062865"><ele>259.0</ele><time>2026-04-22T12:06:18.999Z</time></trkpt><trkpt lat="43.765329199316916" lon="7.451120931333012"><ele>259.0</ele><time>2026-04-22T12:06:19.999Z</time></trkpt><trkpt lat="43.765235822823115" lon="7.451127381238524"><ele>259.0</ele><time>2026-04-22T12:06:20.999Z</time></trkpt><trkpt lat="43.76514144343321" lon="7.451104608818373"><ele>259.0</ele><time>2026-04-22T12:06:21.999Z</time></trkpt><trkpt lat="43.765048301355655" lon="7.451060238476729"><ele>259.0</ele><time>2026-04-22T12:06:22.999Z</time></trkpt><trkpt lat="43.76494771606339" lon="7.451001129478476"><ele>259.0</ele><time>2026-04-22T12:06:23.999Z</time></trkpt><trkpt lat="43.76484298418289" lon="7.450931824548677"><ele>258.2</ele><time>2026-04-22T12:06:24.999Z</time></trkpt><trkpt lat="43.764740535744544" lon="7.4508680249591"><ele>257.4</ele><time>2026-04-22T12:06:25.999Z</time></trkpt><trkpt lat="43.76464779611342" lon="7.450814405709072"><ele>256.6</ele><time>2026-04-22T12:06:26.999Z</time></trkpt><trkpt lat="43.76455069267435" lon="7.450773504509413"><ele>255.8</ele><time>2026-04-22T12:06:27.999Z</time></trkpt><trkpt lat="43.76444731238298" lon="7.450739383347285"><ele>255.0</ele><time>2026-04-22T12:06:28.999Z</time></trkpt><trkpt lat="43.764344270001295" lon="7.4506982752441955"><ele>255.0</ele><time>2026-04-22T12:06:29.999Z</time></trkpt><trkpt lat="43.76425200348068" lon="7.45063178698179"><ele>255.0</ele><time>2026-04-22T12:06:30.999Z</time></trkpt><trkpt lat="43.764162364986774" lon="7.450534038622974"><ele>255.0</ele><time>2026-04-22T12:06:31.999Z</time></trkpt><trkpt lat="43.76407392660773" lon="7.450401737567005"><ele>255.0</ele><time>2026-04-22T12:06:32.999Z</time></trkpt><trkpt lat="43.76397758117623" lon="7.450293114050294"><ele>266.6666666666667</ele><time>2026-04-22T12:06:33.999Z</time></trkpt><trkpt lat="43.76383707792851" lon="7.450219342909838"><ele>278.33333333333337</ele><time>2026-04-22T12:06:34.999Z</time></trkpt><trkpt lat="43.76370747038488" lon="7.450098406425106"><ele>290.0</ele><time>2026-04-22T12:06:35.999Z</time></trkpt><trkpt lat="43.76358043639959" lon="7.44996096045291"><ele>291.75</ele><time>2026-04-22T12:06:36.999Z</time></trkpt><trkpt lat="43.763459834572764" lon="7.4498458592241965"><ele>293.5</ele><time>2026-04-22T12:06:37.999Z</time></trkpt><trkpt lat="43.76333808603658" lon="7.449744726614776"><ele>295.25</ele><time>2026-04-22T12:06:38.999Z</time></trkpt><trkpt lat="43.76320686109645" lon="7.449654785075716"><ele>297.0</ele><time>2026-04-22T12:06:39.999Z</time></trkpt><trkpt lat="43.76308865599028" lon="7.449549206103558"><ele>297.0</ele><time>2026-04-22T12:06:40.999Z</time></trkpt><trkpt lat="43.7629751411121" lon="7.449422012179577"><ele>297.0</ele><time>2026-04-22T12:06:41.999Z</time></trkpt><trkpt lat="43.762859702075495" lon="7.449290306040189"><ele>297.0</ele><time>2026-04-22T12:06:42.999Z</time></trkpt><trkpt lat="43.76274328966526" lon="7.449155979630881"><ele>297.0</ele><time>2026-04-22T12:06:43.999Z</time></trkpt><trkpt lat="43.76262879324495" lon="7.4490195853029295"><ele>296.5</ele><time>2026-04-22T12:06:44.999Z</time></trkpt><trkpt lat="43.76252112833186" lon="7.448876370254395"><ele>296.0</ele><time>2026-04-22T12:06:46Z</time></trkpt><trkpt lat="43.76241579414183" lon="7.448734775540922"><ele>295.5</ele><time>2026-04-22T12:06:47Z</time></trkpt><trkpt lat="43.76229210725019" lon="7.4486257583948206"><ele>295.0</ele><time>2026-04-22T12:06:48Z</time></trkpt><trkpt lat="43.76217159088341" lon="7.44852408424352"><ele>295.0</ele><time>2026-04-22T12:06:49Z</time></trkpt><trkpt lat="43.76204875003083" lon="7.448418978537301"><ele>295.0</ele><time>2026-04-22T12:06:50Z</time></trkpt><trkpt lat="43.76190232397022" lon="7.448386175286344"><ele>295.0</ele><time>2026-04-22T12:06:51Z</time></trkpt><trkpt lat="43.76176825293979" lon="7.448319080784656"><ele>295.0</ele><time>2026-04-22T12:06:52Z</time></trkpt><trkpt lat="43.761642670957755" lon="7.4482368707023605"><ele>290.5</ele><time>2026-04-22T12:06:53Z</time></trkpt><trkpt lat="43.76152081138349" lon="7.448121929346556"><ele>286.0</ele><time>2026-04-22T12:06:54Z</time></trkpt><trkpt lat="43.76140081886926" lon="7.448013205471458"><ele>281.5</ele><time>2026-04-22T12:06:55Z</time></trkpt><trkpt lat="43.76129276092193" lon="7.447919988680566"><ele>277.0</ele><time>2026-04-22T12:06:56Z</time></trkpt><trkpt lat="43.76119004929379" lon="7.447842689152783"><ele>281.2</ele><time>2026-04-22T12:06:57Z</time></trkpt><trkpt lat="43.76107599915819" lon="7.447789562286512"><ele>285.4</ele><time>2026-04-22T12:06:58Z</time></trkpt><trkpt lat="43.7609604549198" lon="7.44775878673691"><ele>289.6</ele><time>2026-04-22T12:06:59Z</time></trkpt><trkpt lat="43.76086730576901" lon="7.447731468989212"><ele>293.8</ele><time>2026-04-22T12:07:00Z</time></trkpt><trkpt lat="43.76078508441727" lon="7.447694500100987"><ele>298.0</ele><time>2026-04-22T12:07:01Z</time></trkpt><trkpt lat="43.76070800011935" lon="7.447641156778668"><ele>298.0</ele><time>2026-04-22T12:07:02Z</time></trkpt><trkpt lat="43.76064287757815" lon="7.44756862159976"><ele>298.0</ele><time>2026-04-22T12:07:03Z</time></trkpt><trkpt lat="43.76057263737998" lon="7.447507290104231"><ele>298.0</ele><time>2026-04-22T12:07:04Z</time></trkpt><trkpt lat="43.76050097406085" lon="7.447453102218524"><ele>298.0</ele><time>2026-04-22T12:07:05Z</time></trkpt><trkpt lat="43.76042552724413" lon="7.447408867293126"><ele>298.0</ele><time>2026-04-22T12:07:06Z</time></trkpt><trkpt lat="43.76036126729712" lon="7.4473615813378355"><ele>298.0</ele><time>2026-04-22T12:07:07Z</time></trkpt><trkpt lat="43.76030570089808" lon="7.447305381502486"><ele>298.0</ele><time>2026-04-22T12:07:08Z</time></trkpt><trkpt lat="43.76022386538769" lon="7.447191227735745"><ele>298.0</ele><time>2026-04-22T12:07:10Z</time></trkpt><trkpt lat="43.760163310257454" lon="7.4470614536701705"><ele>298.0</ele><time>2026-04-22T12:07:12Z</time></trkpt><trkpt lat="43.7601232043735" lon="7.446920944185988"><ele>298.0</ele><time>2026-04-22T12:07:14Z</time></trkpt><trkpt lat="43.76008304708372" lon="7.446787526783354"><ele>298.0</ele><time>2026-04-22T12:07:16Z</time></trkpt><trkpt lat="43.76006090094484" lon="7.446632851568432"><ele>296.8333333333333</ele><time>2026-04-22T12:07:18Z</time></trkpt><trkpt lat="43.76004100709848" lon="7.446483829048561"><ele>295.66666666666663</ele><time>2026-04-22T12:07:20Z</time></trkpt><trkpt lat="43.759982437283035" lon="7.446339686752844"><ele>294.5</ele><time>2026-04-22T12:07:22Z</time></trkpt><trkpt lat="43.75994078964518" lon="7.446271393485345"><ele>293.3333333333333</ele><time>2026-04-22T12:07:23Z</time></trkpt><trkpt lat="43.759887668375065" lon="7.4462097147629205"><ele>292.1666666666667</ele><time>2026-04-22T12:07:24Z</time></trkpt><trkpt lat="43.759826179074764" lon="7.4461555959874035"><ele>291.0</ele><time>2026-04-22T12:07:25Z</time></trkpt><trkpt lat="43.759760235096124" lon="7.44610713046835"><ele>294.40000000000003</ele><time>2026-04-22T12:07:26Z</time></trkpt><trkpt lat="43.75970470551653" lon="7.44604867431456"><ele>297.8</ele><time>2026-04-22T12:07:27Z</time></trkpt><trkpt lat="43.75961518055879" lon="7.445987536831649"><ele>301.20000000000005</ele><time>2026-04-22T12:07:29Z</time></trkpt><trkpt lat="43.75952448100129" lon="7.445913504939257"><ele>304.6</ele><time>2026-04-22T12:07:31Z</time></trkpt><trkpt lat="43.75942994385659" lon="7.44579305493155"><ele>308.0</ele><time>2026-04-22T12:07:33Z</time></trkpt><trkpt lat="43.75938105715036" lon="7.445726584814265"><ele>306.83333333333337</ele><time>2026-04-22T12:07:34Z</time></trkpt><trkpt lat="43.75933003550577" lon="7.445653214336949"><ele>305.6666666666667</ele><time>2026-04-22T12:07:35Z</time></trkpt><trkpt lat="43.759280585658026" lon="7.4455782671229835"><ele>304.5</ele><time>2026-04-22T12:07:36Z</time></trkpt><trkpt lat="43.759229978446136" lon="7.445497541803724"><ele>303.3333333333333</ele><time>2026-04-22T12:07:37Z</time></trkpt><trkpt lat="43.7591802606921" lon="7.445405525429592"><ele>302.16666666666663</ele><time>2026-04-22T12:07:38Z</time></trkpt><trkpt lat="43.75913172300679" lon="7.445294074327797"><ele>301.0</ele><time>2026-04-22T12:07:39Z</time></trkpt><trkpt lat="43.759093398943335" lon="7.445172052266076"><ele>301.0</ele><time>2026-04-22T12:07:40Z</time></trkpt><trkpt lat="43.75906579807175" lon="7.445057638707548"><ele>301.0</ele><time>2026-04-22T12:07:41Z</time></trkpt><trkpt lat="43.759022903798595" lon="7.44494841877001"><ele>301.0</ele><time>2026-04-22T12:07:42Z</time></trkpt><trkpt lat="43.75900972618478" lon="7.444830949895372"><ele>301.0</ele><time>2026-04-22T12:07:43Z</time></trkpt><trkpt lat="43.7589640040899" lon="7.444713016863777"><ele>301.0</ele><time>2026-04-22T12:07:44Z</time></trkpt><trkpt lat="43.75892562101146" lon="7.444592066005023"><ele>305.0</ele><time>2026-04-22T12:07:45Z</time></trkpt><trkpt lat="43.75888165342555" lon="7.444476530779943"><ele>309.0</ele><time>2026-04-22T12:07:46Z</time></trkpt><trkpt lat="43.75883149819736" lon="7.444378240630165"><ele>313.0</ele><time>2026-04-22T12:07:47Z</time></trkpt><trkpt lat="43.758768818936396" lon="7.444293554736348"><ele>317.0</ele><time>2026-04-22T12:07:48Z</time></trkpt><trkpt lat="43.75869265032951" lon="7.444234019656666"><ele>321.0</ele><time>2026-04-22T12:07:49Z</time></trkpt><trkpt lat="43.7586157574314" lon="7.444183711779852"><ele>325.0</ele><time>2026-04-22T12:07:50Z</time></trkpt><trkpt lat="43.758545276278234" lon="7.44414453151904"><ele>322.7142857142857</ele><time>2026-04-22T12:07:51Z</time></trkpt><trkpt lat="43.75847966116582" lon="7.444115005199362"><ele>320.42857142857144</ele><time>2026-04-22T12:07:52Z</time></trkpt><trkpt lat="43.75841385803354" lon="7.444083156216973"><ele>318.14285714285717</ele><time>2026-04-22T12:07:53Z</time></trkpt><trkpt lat="43.758344923802795" lon="7.444058095002156"><ele>315.8571428571429</ele><time>2026-04-22T12:07:54Z</time></trkpt><trkpt lat="43.75827244905966" lon="7.444041432371856"><ele>313.57142857142856</ele><time>2026-04-22T12:07:55Z</time></trkpt><trkpt lat="43.758195377795175" lon="7.444035117250577"><ele>311.28571428571433</ele><time>2026-04-22T12:07:56Z</time></trkpt><trkpt lat="43.75811542552525" lon="7.4440298079478895"><ele>309.0</ele><time>2026-04-22T12:07:57Z</time></trkpt><trkpt lat="43.758039166994145" lon="7.444025786323682"><ele>309.00000000000006</ele><time>2026-04-22T12:07:58Z</time></trkpt><trkpt lat="43.75795755862016" lon="7.444028735440516"><ele>309.0</ele><time>2026-04-22T12:07:59Z</time></trkpt><trkpt lat="43.75788643761455" lon="7.444037301876313"><ele>309.0</ele><time>2026-04-22T12:08:00Z</time></trkpt><trkpt lat="43.75781290650591" lon="7.444043036522421"><ele>309.0</ele><time>2026-04-22T12:08:01Z</time></trkpt><trkpt lat="43.7577476759009" lon="7.444055371848312"><ele>309.0</ele><time>2026-04-22T12:08:02Z</time></trkpt><trkpt lat="43.757684078459555" lon="7.444072702126042"><ele>309.00000000000006</ele><time>2026-04-22T12:08:03Z</time></trkpt><trkpt lat="43.75761954743851" lon="7.444094466339506"><ele>309.0</ele><time>2026-04-22T12:08:04Z</time></trkpt><trkpt lat="43.75755912064162" lon="7.444122848819862"><ele>309.6666666666667</ele><time>2026-04-22T12:08:05Z</time></trkpt><trkpt lat="43.75748764771447" lon="7.444174054381713"><ele>310.3333333333333</ele><time>2026-04-22T12:08:06Z</time></trkpt><trkpt lat="43.75742610759083" lon="7.4441927485148"><ele>311.0</ele><time>2026-04-22T12:08:07Z</time></trkpt><trkpt lat="43.75734096534714" lon="7.444218347660381"><ele>311.66666666666663</ele><time>2026-04-22T12:08:08.999Z</time></trkpt><trkpt lat="43.757229829481446" lon="7.444188809034588"><ele>312.3333333333333</ele><time>2026-04-22T12:08:10.999Z</time></trkpt><trkpt lat="43.75715812086637" lon="7.444098584703722"><ele>313.0</ele><time>2026-04-22T12:08:12.999Z</time></trkpt><trkpt lat="43.75708990152304" lon="7.443957700191391"><ele>313.0</ele><time>2026-04-22T12:08:14.999Z</time></trkpt><trkpt lat="43.75705484509883" lon="7.44386118902875"><ele>313.0</ele><time>2026-04-22T12:08:15.999Z</time></trkpt><trkpt lat="43.75703484315494" lon="7.4437493361125355"><ele>313.0</ele><time>2026-04-22T12:08:16.999Z</time></trkpt><trkpt lat="43.75702538180267" lon="7.443623672460885"><ele>313.0</ele><time>2026-04-22T12:08:17.999Z</time></trkpt><trkpt lat="43.75700227774256" lon="7.443487009727161"><ele>313.0</ele><time>2026-04-22T12:08:18.999Z</time></trkpt><trkpt lat="43.75696372650263" lon="7.443328199752295"><ele>312.2</ele><time>2026-04-22T12:08:19.999Z</time></trkpt><trkpt lat="43.756922750511535" lon="7.44318505451357"><ele>311.4</ele><time>2026-04-22T12:08:20.999Z</time></trkpt><trkpt lat="43.75689202167874" lon="7.443051592403149"><ele>310.59999999999997</ele><time>2026-04-22T12:08:21.999Z</time></trkpt><trkpt lat="43.75687343518463" lon="7.442920355516508"><ele>309.8</ele><time>2026-04-22T12:08:22.999Z</time></trkpt><trkpt lat="43.75685286492831" lon="7.4427906468453955"><ele>309.0</ele><time>2026-04-22T12:08:23.999Z</time></trkpt><trkpt lat="43.756850746330855" lon="7.44265532869139"><ele>309.0</ele><time>2026-04-22T12:08:24.999Z</time></trkpt><trkpt lat="43.756853673918656" lon="7.442511315679993"><ele>309.0</ele><time>2026-04-22T12:08:25.999Z</time></trkpt><trkpt lat="43.75686176177207" lon="7.442356612612513"><ele>309.0</ele><time>2026-04-22T12:08:26.999Z</time></trkpt><trkpt lat="43.75687107863469" lon="7.4421906808674745"><ele>309.0</ele><time>2026-04-22T12:08:27.999Z</time></trkpt><trkpt lat="43.75687465085972" lon="7.442016432329465"><ele>310.5</ele><time>2026-04-22T12:08:28.999Z</time></trkpt><trkpt lat="43.75685567383039" lon="7.441829942105475"><ele>312.0</ele><time>2026-04-22T12:08:29.999Z</time></trkpt><trkpt lat="43.75680673677313" lon="7.441631061441573"><ele>313.5</ele><time>2026-04-22T12:08:30.999Z</time></trkpt><trkpt lat="43.756743121790095" lon="7.441454047969924"><ele>315.0</ele><time>2026-04-22T12:08:31.999Z</time></trkpt><trkpt lat="43.75667514698334" lon="7.441291086159905"><ele>316.4</ele><time>2026-04-22T12:08:32.999Z</time></trkpt><trkpt lat="43.756613673606765" lon="7.44114136516748"><ele>317.8</ele><time>2026-04-22T12:08:33.999Z</time></trkpt><trkpt lat="43.75656344460001" lon="7.441003012963007"><ele>319.20000000000005</ele><time>2026-04-22T12:08:34.999Z</time></trkpt><trkpt lat="43.75652992192203" lon="7.440867546308518"><ele>320.6</ele><time>2026-04-22T12:08:35.999Z</time></trkpt><trkpt lat="43.75651035943832" lon="7.440729462532619"><ele>322.0</ele><time>2026-04-22T12:08:36.999Z</time></trkpt><trkpt lat="43.75651279294839" lon="7.440587466219039"><ele>321.5</ele><time>2026-04-22T12:08:37.999Z</time></trkpt><trkpt lat="43.756563211589864" lon="7.440451940913527"><ele>321.0</ele><time>2026-04-22T12:08:38.999Z</time></trkpt><trkpt lat="43.75659842279654" lon="7.440298088562217"><ele>320.5</ele><time>2026-04-22T12:08:39.999Z</time></trkpt><trkpt lat="43.75664166560625" lon="7.440143943817655"><ele>320.0</ele><time>2026-04-22T12:08:40.999Z</time></trkpt><trkpt lat="43.75665623809375" lon="7.439979650712629"><ele>320.0</ele><time>2026-04-22T12:08:41.999Z</time></trkpt><trkpt lat="43.75665033302128" lon="7.439808945112153"><ele>320.0</ele><time>2026-04-22T12:08:42.999Z</time></trkpt><trkpt lat="43.75662728477614" lon="7.43963435383536"><ele>320.0</ele><time>2026-04-22T12:08:43.999Z</time></trkpt><trkpt lat="43.756585914470904" lon="7.43946822062332"><ele>320.0</ele><time>2026-04-22T12:08:44.999Z</time></trkpt><trkpt lat="43.75653168912862" lon="7.439322075926828"><ele>319.8</ele><time>2026-04-22T12:08:45.999Z</time></trkpt><trkpt lat="43.75648854642336" lon="7.4391878031969245"><ele>319.6</ele><time>2026-04-22T12:08:46.999Z</time></trkpt><trkpt lat="43.756481817272295" lon="7.439066565148693"><ele>319.4</ele><time>2026-04-22T12:08:47.999Z</time></trkpt><trkpt lat="43.75651130234023" lon="7.4389608021266085"><ele>319.2</ele><time>2026-04-22T12:08:48.999Z</time></trkpt><trkpt lat="43.756579511927725" lon="7.438902670984219"><ele>319.0</ele><time>2026-04-22T12:08:49.999Z</time></trkpt><trkpt lat="43.756669399968345" lon="7.438865848506503"><ele>319.0</ele><time>2026-04-22T12:08:50.999Z</time></trkpt><trkpt lat="43.75674781914527" lon="7.438824203758974"><ele>319.0</ele><time>2026-04-22T12:08:52Z</time></trkpt><trkpt lat="43.756804094817625" lon="7.438764491310269"><ele>319.0</ele><time>2026-04-22T12:08:53Z</time></trkpt><trkpt lat="43.75699174466488" lon="7.438886031935002"><ele>319.0</ele><time>2026-04-22T12:08:54Z</time></trkpt><trkpt lat="43.75710474332159" lon="7.438844433053796"><ele>319.0</ele><time>2026-04-22T12:08:55Z</time></trkpt><trkpt lat="43.75722295428795" lon="7.438801469349685"><ele>319.0</ele><time>2026-04-22T12:08:56Z</time></trkpt><trkpt lat="43.75733446861184" lon="7.438755689834255"><ele>319.0</ele><time>2026-04-22T12:08:57Z</time></trkpt><trkpt lat="43.75743333970062" lon="7.438696458876568"><ele>319.0</ele><time>2026-04-22T12:08:58Z</time></trkpt><trkpt lat="43.7575251920603" lon="7.438625554734804"><ele>319.0</ele><time>2026-04-22T12:08:59Z</time></trkpt><trkpt lat="43.75760743094602" lon="7.438539199733474"><ele>319.0</ele><time>2026-04-22T12:09:00Z</time></trkpt><trkpt lat="43.75768968593985" lon="7.438450379058302"><ele>319.0</ele><time>2026-04-22T12:09:01Z</time></trkpt><trkpt lat="43.75776766148752" lon="7.438356890445226"><ele>319.0</ele><time>2026-04-22T12:09:02Z</time></trkpt><trkpt lat="43.75784674992762" lon="7.438269829342499"><ele>319.0</ele><time>2026-04-22T12:09:03Z</time></trkpt><trkpt lat="43.757919804842906" lon="7.4381890399926"><ele>322.0</ele><time>2026-04-22T12:09:04Z</time></trkpt><trkpt lat="43.757983327674424" lon="7.438125465479828"><ele>325.0</ele><time>2026-04-22T12:09:05Z</time></trkpt><trkpt lat="43.758056451605995" lon="7.43808952568101"><ele>328.0</ele><time>2026-04-22T12:09:06Z</time></trkpt><trkpt lat="43.758142830144656" lon="7.4380802338129435"><ele>331.0</ele><time>2026-04-22T12:09:07Z</time></trkpt><trkpt lat="43.7582417104898" lon="7.438106305909426"><ele>334.0</ele><time>2026-04-22T12:09:08Z</time></trkpt><trkpt lat="43.758336771363275" lon="7.438115217464506"><ele>337.0</ele><time>2026-04-22T12:09:09Z</time></trkpt><trkpt lat="43.75843311386873" lon="7.438105934067484"><ele>337.0</ele><time>2026-04-22T12:09:10Z</time></trkpt><trkpt lat="43.758519010719496" lon="7.438065598052072"><ele>337.0</ele><time>2026-04-22T12:09:11Z</time></trkpt><trkpt lat="43.758590925267434" lon="7.437998709554304"><ele>337.0</ele><time>2026-04-22T12:09:12Z</time></trkpt><trkpt lat="43.75864601786464" lon="7.437895897649821"><ele>337.0</ele><time>2026-04-22T12:09:13Z</time></trkpt><trkpt lat="43.7586853596666" lon="7.437766947928048"><ele>337.0</ele><time>2026-04-22T12:09:14Z</time></trkpt><trkpt lat="43.758698689830624" lon="7.437622747137453"><ele>338.25</ele><time>2026-04-22T12:09:15Z</time></trkpt><trkpt lat="43.758667308398415" lon="7.437478042539916"><ele>339.5</ele><time>2026-04-22T12:09:16Z</time></trkpt><trkpt lat="43.75862400157394" lon="7.437334330964766"><ele>340.75</ele><time>2026-04-22T12:09:17Z</time></trkpt><trkpt lat="43.75856084994525" lon="7.437197405497596"><ele>342.0</ele><time>2026-04-22T12:09:18Z</time></trkpt><trkpt lat="43.758469877021554" lon="7.437091076405858"><ele>342.0</ele><time>2026-04-22T12:09:19Z</time></trkpt><trkpt lat="43.7583702319693" lon="7.4369677817606386"><ele>342.0</ele><time>2026-04-22T12:09:20Z</time></trkpt><trkpt lat="43.75826092067769" lon="7.43684762921138"><ele>342.0</ele><time>2026-04-22T12:09:21Z</time></trkpt><trkpt lat="43.758177285473856" lon="7.436748941009465"><ele>342.0</ele><time>2026-04-22T12:09:22Z</time></trkpt><trkpt lat="43.75811353412308" lon="7.436630333797863"><ele>342.0</ele><time>2026-04-22T12:09:23Z</time></trkpt><trkpt lat="43.7580740663234" lon="7.436477017199271"><ele>342.0</ele><time>2026-04-22T12:09:24Z</time></trkpt><trkpt lat="43.75805019317819" lon="7.436308519944159"><ele>342.0</ele><time>2026-04-22T12:09:25Z</time></trkpt><trkpt lat="43.75804032853515" lon="7.436157615099335"><ele>342.0</ele><time>2026-04-22T12:09:26Z</time></trkpt><trkpt lat="43.75803804000828" lon="7.436009749562163"><ele>340.0</ele><time>2026-04-22T12:09:27Z</time></trkpt><trkpt lat="43.75806029942821" lon="7.435854888660989"><ele>338.0</ele><time>2026-04-22T12:09:28Z</time></trkpt><trkpt lat="43.75810791352768" lon="7.435693685226541"><ele>336.0</ele><time>2026-04-22T12:09:29Z</time></trkpt><trkpt lat="43.75816819002229" lon="7.435534470946354"><ele>334.0</ele><time>2026-04-22T12:09:30Z</time></trkpt><trkpt lat="43.75823241015629" lon="7.435386337508539"><ele>334.0</ele><time>2026-04-22T12:09:31Z</time></trkpt><trkpt lat="43.75827350456026" lon="7.435254626801085"><ele>334.0</ele><time>2026-04-22T12:09:32Z</time></trkpt><trkpt lat="43.75829002004565" lon="7.435120350349114"><ele>334.0</ele><time>2026-04-22T12:09:33Z</time></trkpt><trkpt lat="43.75828077070287" lon="7.434976552896719"><ele>334.0</ele><time>2026-04-22T12:09:34Z</time></trkpt><trkpt lat="43.7582425145418" lon="7.434835908691937"><ele>334.0</ele><time>2026-04-22T12:09:35Z</time></trkpt><trkpt lat="43.75817808364645" lon="7.434710165227858"><ele>342.0</ele><time>2026-04-22T12:09:36Z</time></trkpt><trkpt lat="43.75809685016266" lon="7.4345843898320885"><ele>350.0</ele><time>2026-04-22T12:09:37Z</time></trkpt><trkpt lat="43.75801690579032" lon="7.43443337631412"><ele>358.0</ele><time>2026-04-22T12:09:38Z</time></trkpt><trkpt lat="43.757948339548115" lon="7.43426637304268"><ele>366.0</ele><time>2026-04-22T12:09:39Z</time></trkpt><trkpt lat="43.75789839384897" lon="7.434094440904048"><ele>366.0</ele><time>2026-04-22T12:09:40Z</time></trkpt><trkpt lat="43.757879991361676" lon="7.433921163138713"><ele>366.0</ele><time>2026-04-22T12:09:41Z</time></trkpt><trkpt lat="43.757862474349736" lon="7.433752760674519"><ele>366.0</ele><time>2026-04-22T12:09:42Z</time></trkpt><trkpt lat="43.7578358399882" lon="7.433607097082948"><ele>366.0</ele><time>2026-04-22T12:09:43Z</time></trkpt><trkpt lat="43.75776657972675" lon="7.433478317292155"><ele>362.75</ele><time>2026-04-22T12:09:44Z</time></trkpt><trkpt lat="43.757658215099816" lon="7.433362764365118"><ele>359.5</ele><time>2026-04-22T12:09:45Z</time></trkpt><trkpt lat="43.7575299883775" lon="7.433256273183597"><ele>356.25</ele><time>2026-04-22T12:09:46Z</time></trkpt><trkpt lat="43.75740102270339" lon="7.433149735380384"><ele>353.0</ele><time>2026-04-22T12:09:47Z</time></trkpt><trkpt lat="43.757270761223964" lon="7.433049453958253"><ele>360.25</ele><time>2026-04-22T12:09:48Z</time></trkpt><trkpt lat="43.75715549179172" lon="7.432961336486326"><ele>367.5</ele><time>2026-04-22T12:09:49Z</time></trkpt><trkpt lat="43.75705353785909" lon="7.432876222576205"><ele>374.75</ele><time>2026-04-22T12:09:50Z</time></trkpt><trkpt lat="43.75695896869703" lon="7.432788228657341"><ele>382.0</ele><time>2026-04-22T12:09:51Z</time></trkpt><trkpt lat="43.756876926676725" lon="7.432689027396381"><ele>372.8</ele><time>2026-04-22T12:09:52Z</time></trkpt><trkpt lat="43.75680506337029" lon="7.432578422657795"><ele>363.6</ele><time>2026-04-22T12:09:53Z</time></trkpt><trkpt lat="43.75675602013689" lon="7.43245288685941"><ele>354.40000000000003</ele><time>2026-04-22T12:09:54Z</time></trkpt><trkpt lat="43.756739885651506" lon="7.432300981715526"><ele>345.20000000000005</ele><time>2026-04-22T12:09:55Z</time></trkpt><trkpt lat="43.75674991088964" lon="7.432134971257783"><ele>336.0</ele><time>2026-04-22T12:09:56Z</time></trkpt><trkpt lat="43.756789323641385" lon="7.431953125356292"><ele>333.3333333333333</ele><time>2026-04-22T12:09:57Z</time></trkpt><trkpt lat="43.75685983417415" lon="7.431764230034838"><ele>330.66666666666663</ele><time>2026-04-22T12:09:58Z</time></trkpt><trkpt lat="43.75693948736285" lon="7.431570033737059"><ele>328.0</ele><time>2026-04-22T12:09:59Z</time></trkpt><trkpt lat="43.75701663632173" lon="7.431374249187181"><ele>340.0</ele><time>2026-04-22T12:10:00Z</time></trkpt><trkpt lat="43.75708466007081" lon="7.431180647032063"><ele>352.0</ele><time>2026-04-22T12:10:01Z</time></trkpt><trkpt lat="43.757151381964796" lon="7.4309852147521624"><ele>364.0</ele><time>2026-04-22T12:10:02Z</time></trkpt><trkpt lat="43.75721593986354" lon="7.43077929740833"><ele>364.0</ele><time>2026-04-22T12:10:03Z</time></trkpt><trkpt lat="43.75727582383693" lon="7.430564463606505"><ele>364.0</ele><time>2026-04-22T12:10:04Z</time></trkpt><trkpt lat="43.75733526737267" lon="7.430349484823017"><ele>364.0</ele><time>2026-04-22T12:10:05Z</time></trkpt><trkpt lat="43.757395926036445" lon="7.430147939278978"><ele>359.25</ele><time>2026-04-22T12:10:06Z</time></trkpt><trkpt lat="43.75745502686657" lon="7.429972453073663"><ele>354.5</ele><time>2026-04-22T12:10:07Z</time></trkpt><trkpt lat="43.757503246199875" lon="7.429804794545593"><ele>349.75</ele><time>2026-04-22T12:10:08Z</time></trkpt><trkpt lat="43.75752853991973" lon="7.429614472891636"><ele>345.0</ele><time>2026-04-22T12:10:09Z</time></trkpt><trkpt lat="43.757538029576075" lon="7.429410413378737"><ele>345.0</ele><time>2026-04-22T12:10:10Z</time></trkpt><trkpt lat="43.75753321431474" lon="7.42920588526996"><ele>345.0</ele><time>2026-04-22T12:10:11Z</time></trkpt><trkpt lat="43.75753377857445" lon="7.429027038907059"><ele>345.0</ele><time>2026-04-22T12:10:12Z</time></trkpt><trkpt lat="43.75753242420589" lon="7.428882669297228"><ele>345.0</ele><time>2026-04-22T12:10:13Z</time></trkpt><trkpt lat="43.75751709820557" lon="7.428755597242352"><ele>352.6</ele><time>2026-04-22T12:10:14Z</time></trkpt><trkpt lat="43.75747556315932" lon="7.4286696978940965"><ele>360.2</ele><time>2026-04-22T12:10:15Z</time></trkpt><trkpt lat="43.75739271745078" lon="7.4286446041857905"><ele>367.79999999999995</ele><time>2026-04-22T12:10:16Z</time></trkpt><trkpt lat="43.75730518418482" lon="7.428646739895468"><ele>375.4</ele><time>2026-04-22T12:10:17Z</time></trkpt><trkpt lat="43.75720293959296" lon="7.428689370274008"><ele>383.0</ele><time>2026-04-22T12:10:18Z</time></trkpt><trkpt lat="43.75709515907721" lon="7.428748362667387"><ele>383.0</ele><time>2026-04-22T12:10:19Z</time></trkpt><trkpt lat="43.7569746431621" lon="7.428779717036679"><ele>383.0</ele><time>2026-04-22T12:10:20Z</time></trkpt><trkpt lat="43.75685231815788" lon="7.428804527868927"><ele>383.0</ele><time>2026-04-22T12:10:21Z</time></trkpt><trkpt lat="43.75672777034201" lon="7.428823232572175"><ele>383.0</ele><time>2026-04-22T12:10:22Z</time></trkpt><trkpt lat="43.75659968792442" lon="7.428835215949544"><ele>386.25</ele><time>2026-04-22T12:10:23Z</time></trkpt><trkpt lat="43.7564788177665" lon="7.428804357053572"><ele>389.5</ele><time>2026-04-22T12:10:24Z</time></trkpt><trkpt lat="43.756366850497926" lon="7.42876183805798"><ele>392.75</ele><time>2026-04-22T12:10:24.999Z</time></trkpt><trkpt lat="43.75625007205817" lon="7.428706605621061"><ele>396.0</ele><time>2026-04-22T12:10:25.999Z</time></trkpt><trkpt lat="43.756132743460796" lon="7.428628116750151"><ele>393.0</ele><time>2026-04-22T12:10:26.999Z</time></trkpt><trkpt lat="43.75601763103077" lon="7.428539564263165"><ele>390.0</ele><time>2026-04-22T12:10:27.999Z</time></trkpt><trkpt lat="43.755912899240464" lon="7.4284666630712355"><ele>387.0</ele><time>2026-04-22T12:10:28.999Z</time></trkpt><trkpt lat="43.755800017482976" lon="7.428407746277329"><ele>384.0</ele><time>2026-04-22T12:10:29.999Z</time></trkpt><trkpt lat="43.75567442165504" lon="7.4283950348434695"><ele>384.0</ele><time>2026-04-22T12:10:30.999Z</time></trkpt><trkpt lat="43.75555450226022" lon="7.4283844812615785"><ele>384.0</ele><time>2026-04-22T12:10:31.999Z</time></trkpt><trkpt lat="43.75544633706647" lon="7.428405669683418"><ele>384.0</ele><time>2026-04-22T12:10:32.999Z</time></trkpt><trkpt lat="43.755350878971086" lon="7.428417832517823"><ele>384.0</ele><time>2026-04-22T12:10:33.999Z</time></trkpt><trkpt lat="43.755267909085426" lon="7.4283787580199885"><ele>384.0</ele><time>2026-04-22T12:10:34.999Z</time></trkpt><trkpt lat="43.75523153891567" lon="7.428252460655162"><ele>384.0</ele><time>2026-04-22T12:10:35.999Z</time></trkpt><trkpt lat="43.7552092369768" lon="7.428141316966093"><ele>384.0</ele><time>2026-04-22T12:10:36.999Z</time></trkpt><trkpt lat="43.755158340770286" lon="7.427997327688285"><ele>384.0</ele><time>2026-04-22T12:10:37.999Z</time></trkpt><trkpt lat="43.75510498609943" lon="7.4278378307735355"><ele>384.0</ele><time>2026-04-22T12:10:38.999Z</time></trkpt><trkpt lat="43.75504508941774" lon="7.42765701245893"><ele>385.0</ele><time>2026-04-22T12:10:39.999Z</time></trkpt><trkpt lat="43.75497146769191" lon="7.427463009019962"><ele>386.0</ele><time>2026-04-22T12:10:40.999Z</time></trkpt><trkpt lat="43.754911759125974" lon="7.427245160187739"><ele>387.0</ele><time>2026-04-22T12:10:41.999Z</time></trkpt><trkpt lat="43.75486167168694" lon="7.42705364022947"><ele>387.0</ele><time>2026-04-22T12:10:42.999Z</time></trkpt><trkpt lat="43.75480524697331" lon="7.426869879657844"><ele>387.0</ele><time>2026-04-22T12:10:43.999Z</time></trkpt><trkpt lat="43.754733204682196" lon="7.426689711464463"><ele>387.0</ele><time>2026-04-22T12:10:44.999Z</time></trkpt><trkpt lat="43.75465184109163" lon="7.426506771790473"><ele>387.0</ele><time>2026-04-22T12:10:45.999Z</time></trkpt><trkpt lat="43.754564089221304" lon="7.426335393501279"><ele>388.75</ele><time>2026-04-22T12:10:46.999Z</time></trkpt><trkpt lat="43.75447909640933" lon="7.426176629397647"><ele>390.5</ele><time>2026-04-22T12:10:47.999Z</time></trkpt><trkpt lat="43.7544130942366" lon="7.426037637881185"><ele>392.25</ele><time>2026-04-22T12:10:48.999Z</time></trkpt><trkpt lat="43.754362578414295" lon="7.425895601117026"><ele>394.0</ele><time>2026-04-22T12:10:49.999Z</time></trkpt><trkpt lat="43.754362019592925" lon="7.425747648867122"><ele>394.0</ele><time>2026-04-22T12:10:50.999Z</time></trkpt><trkpt lat="43.75436679996805" lon="7.425626558604745"><ele>394.0</ele><time>2026-04-22T12:10:51.999Z</time></trkpt><trkpt lat="43.75440088004087" lon="7.425514827507392"><ele>394.0</ele><time>2026-04-22T12:10:52.999Z</time></trkpt><trkpt lat="43.75446978108701" lon="7.425419017641596"><ele>394.0</ele><time>2026-04-22T12:10:53.999Z</time></trkpt><trkpt lat="43.754540521925726" lon="7.425291992594779"><ele>394.0</ele><time>2026-04-22T12:10:54.999Z</time></trkpt><trkpt lat="43.754613805361046" lon="7.4251515320791075"><ele>392.5</ele><time>2026-04-22T12:10:55.999Z</time></trkpt><trkpt lat="43.754679296612615" lon="7.425015480018165"><ele>391.0</ele><time>2026-04-22T12:10:56.999Z</time></trkpt><trkpt lat="43.75475440552928" lon="7.424900284144835"><ele>389.5</ele><time>2026-04-22T12:10:58Z</time></trkpt><trkpt lat="43.75485872035575" lon="7.424805975263855"><ele>388.0</ele><time>2026-04-22T12:10:59Z</time></trkpt><trkpt lat="43.754977450931726" lon="7.424692267278234"><ele>389.0</ele><time>2026-04-22T12:11:00Z</time></trkpt><trkpt lat="43.75505347326786" lon="7.424517655478664"><ele>390.0</ele><time>2026-04-22T12:11:01Z</time></trkpt><trkpt lat="43.75515098633495" lon="7.4244318540319085"><ele>391.0</ele><time>2026-04-22T12:11:02Z</time></trkpt><trkpt lat="43.75525616910861" lon="7.424357739004487"><ele>392.0</ele><time>2026-04-22T12:11:03Z</time></trkpt><trkpt lat="43.75538714129101" lon="7.424309423928323"><ele>392.0</ele><time>2026-04-22T12:11:04Z</time></trkpt><trkpt lat="43.75553464924703" lon="7.424266686305155"><ele>392.0</ele><time>2026-04-22T12:11:05Z</time></trkpt><trkpt lat="43.75568750189141" lon="7.424213085308984"><ele>392.0</ele><time>2026-04-22T12:11:06Z</time></trkpt><trkpt lat="43.75582466596056" lon="7.42416888521885"><ele>392.0</ele><time>2026-04-22T12:11:07Z</time></trkpt><trkpt lat="43.755948868694894" lon="7.4241182347165156"><ele>397.8</ele><time>2026-04-22T12:11:08Z</time></trkpt><trkpt lat="43.75605728549963" lon="7.424072809380859"><ele>403.6</ele><time>2026-04-22T12:11:09Z</time></trkpt><trkpt lat="43.756149441463094" lon="7.424020811976753"><ele>409.40000000000003</ele><time>2026-04-22T12:11:10Z</time></trkpt><trkpt lat="43.75622420358798" lon="7.423950037892896"><ele>415.20000000000005</ele><time>2026-04-22T12:11:11Z</time></trkpt><trkpt lat="43.75627075876815" lon="7.423847564461501"><ele>421.0</ele><time>2026-04-22T12:11:12Z</time></trkpt><trkpt lat="43.7562815836758" lon="7.423722363052197"><ele>422.0</ele><time>2026-04-22T12:11:13Z</time></trkpt><trkpt lat="43.756262546780015" lon="7.423594885585427"><ele>423.0</ele><time>2026-04-22T12:11:14Z</time></trkpt><trkpt lat="43.75619723835256" lon="7.423476837197004"><ele>424.0</ele><time>2026-04-22T12:11:15Z</time></trkpt><trkpt lat="43.756109641037426" lon="7.4233653370866195"><ele>425.0</ele><time>2026-04-22T12:11:16Z</time></trkpt><trkpt lat="43.756007501896974" lon="7.42325930746061"><ele>426.0</ele><time>2026-04-22T12:11:17Z</time></trkpt><trkpt lat="43.755914198520344" lon="7.4231421188812465"><ele>423.5</ele><time>2026-04-22T12:11:18Z</time></trkpt><trkpt lat="43.75582050150788" lon="7.423022996148611"><ele>421.0</ele><time>2026-04-22T12:11:19Z</time></trkpt><trkpt lat="43.755724595050346" lon="7.422895281900285"><ele>418.5</ele><time>2026-04-22T12:11:20Z</time></trkpt><trkpt lat="43.755636439869264" lon="7.422773241166073"><ele>416.0</ele><time>2026-04-22T12:11:21Z</time></trkpt><trkpt lat="43.755544173266685" lon="7.4226616250095985"><ele>416.0</ele><time>2026-04-22T12:11:22Z</time></trkpt><trkpt lat="43.75542972711037" lon="7.422550348002437"><ele>416.0</ele><time>2026-04-22T12:11:23Z</time></trkpt><trkpt lat="43.755292375117406" lon="7.422452360357312"><ele>416.0</ele><time>2026-04-22T12:11:24Z</time></trkpt><trkpt lat="43.75513482368398" lon="7.422360658677876"><ele>417.66666666666663</ele><time>2026-04-22T12:11:25Z</time></trkpt><trkpt lat="43.754977952563415" lon="7.422256857328663"><ele>419.33333333333337</ele><time>2026-04-22T12:11:26Z</time></trkpt><trkpt lat="43.75481933739401" lon="7.422147475778044"><ele>421.0</ele><time>2026-04-22T12:11:27Z</time></trkpt><trkpt lat="43.75466004132929" lon="7.42203615070954"><ele>421.0</ele><time>2026-04-22T12:11:28Z</time></trkpt><trkpt lat="43.754507907128556" lon="7.421923574957378"><ele>421.0</ele><time>2026-04-22T12:11:29Z</time></trkpt><trkpt lat="43.75435989028402" lon="7.421824546294993"><ele>421.0</ele><time>2026-04-22T12:11:30Z</time></trkpt><trkpt lat="43.75421835752207" lon="7.421752605436032"><ele>415.75</ele><time>2026-04-22T12:11:31Z</time></trkpt><trkpt lat="43.754083077894734" lon="7.421685780515889"><ele>410.5</ele><time>2026-04-22T12:11:32Z</time></trkpt><trkpt lat="43.753964874514836" lon="7.4215940132689235"><ele>405.25</ele><time>2026-04-22T12:11:33Z</time></trkpt><trkpt lat="43.75383917185342" lon="7.421527743491296"><ele>400.0</ele><time>2026-04-22T12:11:34Z</time></trkpt><trkpt lat="43.7537287774415" lon="7.42141286228313"><ele>401.5</ele><time>2026-04-22T12:11:35Z</time></trkpt><trkpt lat="43.75362528623741" lon="7.421272411883073"><ele>403.0</ele><time>2026-04-22T12:11:36Z</time></trkpt><trkpt lat="43.753530058271586" lon="7.421113357744971"><ele>404.5</ele><time>2026-04-22T12:11:37Z</time></trkpt><trkpt lat="43.7534417648569" lon="7.42094852611734"><ele>406.0</ele><time>2026-04-22T12:11:38Z</time></trkpt><trkpt lat="43.753339961290806" lon="7.420801493505762"><ele>406.0</ele><time>2026-04-22T12:11:39Z</time></trkpt><trkpt lat="43.75321584650856" lon="7.4206775291514635"><ele>406.0</ele><time>2026-04-22T12:11:40Z</time></trkpt><trkpt lat="43.75308603532808" lon="7.420562331650285"><ele>406.0</ele><time>2026-04-22T12:11:41Z</time></trkpt><trkpt lat="43.75296008746154" lon="7.420471004205776"><ele>406.0</ele><time>2026-04-22T12:11:42Z</time></trkpt><trkpt lat="43.75282344896828" lon="7.420406203344289"><ele>405.75</ele><time>2026-04-22T12:11:43Z</time></trkpt><trkpt lat="43.7527007814838" lon="7.420310593775233"><ele>405.5</ele><time>2026-04-22T12:11:44Z</time></trkpt><trkpt lat="43.75259570843605" lon="7.420201795453061"><ele>405.25</ele><time>2026-04-22T12:11:45Z</time></trkpt><trkpt lat="43.75250585026371" lon="7.420087689773138"><ele>405.0</ele><time>2026-04-22T12:11:46Z</time></trkpt><trkpt lat="43.75244071501166" lon="7.419949047953809"><ele>405.0</ele><time>2026-04-22T12:11:47Z</time></trkpt><trkpt lat="43.75238049411487" lon="7.419802701415244"><ele>405.0</ele><time>2026-04-22T12:11:48Z</time></trkpt><trkpt lat="43.75235465298469" lon="7.419641563779116"><ele>405.0</ele><time>2026-04-22T12:11:49Z</time></trkpt><trkpt lat="43.75235123650132" lon="7.41948179541856"><ele>405.0</ele><time>2026-04-22T12:11:50Z</time></trkpt><trkpt lat="43.75236946688118" lon="7.419330321234724"><ele>405.0</ele><time>2026-04-22T12:11:51Z</time></trkpt><trkpt lat="43.75240753925349" lon="7.419196943686093"><ele>405.0</ele><time>2026-04-22T12:11:52Z</time></trkpt><trkpt lat="43.75248505245746" lon="7.419091620981334"><ele>405.0</ele><time>2026-04-22T12:11:53Z</time></trkpt><trkpt lat="43.752554769538634" lon="7.418953843179025"><ele>405.0</ele><time>2026-04-22T12:11:54Z</time></trkpt><trkpt lat="43.75263215133246" lon="7.418812134197249"><ele>405.0</ele><time>2026-04-22T12:11:55Z</time></trkpt><trkpt lat="43.752690905021446" lon="7.4186472985090655"><ele>405.0</ele><time>2026-04-22T12:11:56Z</time></trkpt><trkpt lat="43.752733177306865" lon="7.418475428511586"><ele>405.0</ele><time>2026-04-22T12:11:57Z</time></trkpt><trkpt lat="43.75275979237247" lon="7.41830634200455"><ele>405.0</ele><time>2026-04-22T12:11:58Z</time></trkpt><trkpt lat="43.75276797684317" lon="7.418146853179862"><ele>407.0</ele><time>2026-04-22T12:11:59Z</time></trkpt><trkpt lat="43.752757112662216" lon="7.418000802409124"><ele>409.0</ele><time>2026-04-22T12:12:00Z</time></trkpt><trkpt lat="43.75272520049821" lon="7.417864138381941"><ele>411.0</ele><time>2026-04-22T12:12:01Z</time></trkpt><trkpt lat="43.752675183728144" lon="7.4177300851889125"><ele>413.0</ele><time>2026-04-22T12:12:02Z</time></trkpt><trkpt lat="43.75260232916067" lon="7.417605102380399"><ele>415.0</ele><time>2026-04-22T12:12:03Z</time></trkpt><trkpt lat="43.75251619729506" lon="7.417482973756476"><ele>415.0</ele><time>2026-04-22T12:12:04Z</time></trkpt><trkpt lat="43.7524109077733" lon="7.417371092262178"><ele>415.0</ele><time>2026-04-22T12:12:05Z</time></trkpt><trkpt lat="43.75230155402221" lon="7.417261982645535"><ele>415.0</ele><time>2026-04-22T12:12:06Z</time></trkpt><trkpt lat="43.75219058489118" lon="7.417148944986991"><ele>415.0</ele><time>2026-04-22T12:12:07Z</time></trkpt><trkpt lat="43.75207716643305" lon="7.417039324112249"><ele>414.0</ele><time>2026-04-22T12:12:08Z</time></trkpt><trkpt lat="43.751979551831354" lon="7.416921113625759"><ele>413.0</ele><time>2026-04-22T12:12:09Z</time></trkpt><trkpt lat="43.75188288360817" lon="7.41681615331273"><ele>412.0</ele><time>2026-04-22T12:12:10Z</time></trkpt><trkpt lat="43.75180155013739" lon="7.416706450451022"><ele>411.0</ele><time>2026-04-22T12:12:11Z</time></trkpt><trkpt lat="43.75173002731398" lon="7.416581107085568"><ele>411.0</ele><time>2026-04-22T12:12:12Z</time></trkpt><trkpt lat="43.75168384745218" lon="7.416436896164628"><ele>411.0</ele><time>2026-04-22T12:12:13Z</time></trkpt><trkpt lat="43.75164319133681" lon="7.416277407615208"><ele>411.0</ele><time>2026-04-22T12:12:14Z</time></trkpt><trkpt lat="43.751587645542706" lon="7.4160904033502195"><ele>411.0</ele><time>2026-04-22T12:12:15Z</time></trkpt><trkpt lat="43.75155136322523" lon="7.415893486197557"><ele>414.75</ele><time>2026-04-22T12:12:16Z</time></trkpt><trkpt lat="43.75151230610916" lon="7.415705479333481"><ele>418.5</ele><time>2026-04-22T12:12:17Z</time></trkpt><trkpt lat="43.75147492761199" lon="7.415526164858573"><ele>422.25</ele><time>2026-04-22T12:12:18Z</time></trkpt><trkpt lat="43.75142845735123" lon="7.415348756119559"><ele>426.0</ele><time>2026-04-22T12:12:19Z</time></trkpt><trkpt lat="43.75137956062576" lon="7.415181009569936"><ele>428.5</ele><time>2026-04-22T12:12:20Z</time></trkpt><trkpt lat="43.751330199319895" lon="7.415005760796165"><ele>431.0</ele><time>2026-04-22T12:12:21Z</time></trkpt><trkpt lat="43.751280401360155" lon="7.414824942132702"><ele>433.5</ele><time>2026-04-22T12:12:22Z</time></trkpt><trkpt lat="43.75122650631317" lon="7.414640730123958"><ele>436.0</ele><time>2026-04-22T12:12:23Z</time></trkpt><trkpt lat="43.75117028725067" lon="7.414446332605972"><ele>441.0</ele><time>2026-04-22T12:12:24Z</time></trkpt><trkpt lat="43.75110980093107" lon="7.414237676170217"><ele>446.0</ele><time>2026-04-22T12:12:25Z</time></trkpt><trkpt lat="43.75105132827773" lon="7.414019318627554"><ele>451.0</ele><time>2026-04-22T12:12:26Z</time></trkpt><trkpt lat="43.75099632379193" lon="7.413828386261544"><ele>446.6</ele><time>2026-04-22T12:12:26.999Z</time></trkpt><trkpt lat="43.750970414235184" lon="7.413648070301308"><ele>442.20000000000005</ele><time>2026-04-22T12:12:27.999Z</time></trkpt><trkpt lat="43.750936480921425" lon="7.4134977584447554"><ele>437.79999999999995</ele><time>2026-04-22T12:12:28.999Z</time></trkpt><trkpt lat="43.75089532399233" lon="7.41337670151065"><ele>433.4</ele><time>2026-04-22T12:12:29.999Z</time></trkpt><trkpt lat="43.7508875379838" lon="7.413254777913131"><ele>429.0</ele><time>2026-04-22T12:12:30.999Z</time></trkpt><trkpt lat="43.75090120115704" lon="7.413152166494881"><ele>429.0</ele><time>2026-04-22T12:12:31.999Z</time></trkpt><trkpt lat="43.75093250219235" lon="7.413052154634774"><ele>429.0</ele><time>2026-04-22T12:12:32.999Z</time></trkpt><trkpt lat="43.75095525857739" lon="7.412959756600939"><ele>429.0</ele><time>2026-04-22T12:12:33.999Z</time></trkpt><trkpt lat="43.75094713851145" lon="7.41286875123146"><ele>429.0</ele><time>2026-04-22T12:12:34.999Z</time></trkpt><trkpt lat="43.75090933438998" lon="7.412792030413649"><ele>429.0</ele><time>2026-04-22T12:12:35.999Z</time></trkpt><trkpt lat="43.75083891510596" lon="7.41274179100215"><ele>429.0</ele><time>2026-04-22T12:12:36.999Z</time></trkpt><trkpt lat="43.75076085342664" lon="7.412681130310509"><ele>431.0</ele><time>2026-04-22T12:12:37.999Z</time></trkpt><trkpt lat="43.750685467791214" lon="7.412581972388719"><ele>433.0</ele><time>2026-04-22T12:12:38.999Z</time></trkpt><trkpt lat="43.750649731698836" lon="7.412448630986391"><ele>435.0</ele><time>2026-04-22T12:12:39.999Z</time></trkpt><trkpt lat="43.75060439533729" lon="7.412339493310409"><ele>437.0</ele><time>2026-04-22T12:12:40.999Z</time></trkpt><trkpt lat="43.75056205043433" lon="7.412226289438256"><ele>439.0</ele><time>2026-04-22T12:12:41.999Z</time></trkpt><trkpt lat="43.7505100777044" lon="7.412115059272761"><ele>440.79999999999995</ele><time>2026-04-22T12:12:42.999Z</time></trkpt><trkpt lat="43.75046446455343" lon="7.411985063857764"><ele>442.59999999999997</ele><time>2026-04-22T12:12:43.999Z</time></trkpt><trkpt lat="43.75041363340085" lon="7.411861240576155"><ele>444.4</ele><time>2026-04-22T12:12:44.999Z</time></trkpt><trkpt lat="43.750370941851834" lon="7.411756798132015"><ele>446.2</ele><time>2026-04-22T12:12:45.999Z</time></trkpt><trkpt lat="43.75033610090747" lon="7.411679855445958"><ele>448.0</ele><time>2026-04-22T12:12:46.999Z</time></trkpt><trkpt lat="43.75027042578295" lon="7.4115342067601375"><ele>448.0</ele><time>2026-04-22T12:12:48.999Z</time></trkpt><trkpt lat="43.75023185065916" lon="7.4114493479930275"><ele>447.99999999999994</ele><time>2026-04-22T12:12:49.999Z</time></trkpt><trkpt lat="43.75018105850075" lon="7.4113524745550965"><ele>447.99999999999994</ele><time>2026-04-22T12:12:50.999Z</time></trkpt><trkpt lat="43.750118892878916" lon="7.411251790112903"><ele>448.0</ele><time>2026-04-22T12:12:51.999Z</time></trkpt><trkpt lat="43.75005339609429" lon="7.411142654911136"><ele>448.0</ele><time>2026-04-22T12:12:52.999Z</time></trkpt><trkpt lat="43.74998568245452" lon="7.411024514089951"><ele>447.33333333333337</ele><time>2026-04-22T12:12:53.999Z</time></trkpt><trkpt lat="43.749932063185526" lon="7.410911997511573"><ele>446.6666666666667</ele><time>2026-04-22T12:12:54.999Z</time></trkpt><trkpt lat="43.74989319845421" lon="7.410811332206183"><ele>446.0</ele><time>2026-04-22T12:12:55.999Z</time></trkpt><trkpt lat="43.749859097009136" lon="7.4107185892047935"><ele>445.33333333333337</ele><time>2026-04-22T12:12:56.999Z</time></trkpt><trkpt lat="43.74983274019657" lon="7.410622404015927"><ele>444.6666666666667</ele><time>2026-04-22T12:12:57.999Z</time></trkpt><trkpt lat="43.74979940362322" lon="7.410519239850361"><ele>444.0</ele><time>2026-04-22T12:12:58.999Z</time></trkpt><trkpt lat="43.749766527425784" lon="7.410399214599944"><ele>444.0</ele><time>2026-04-22T12:12:59.999Z</time></trkpt><trkpt lat="43.74974215576373" lon="7.410265403833598"><ele>444.0</ele><time>2026-04-22T12:13:00.999Z</time></trkpt><trkpt lat="43.74971592813298" lon="7.410127521950397"><ele>444.0</ele><time>2026-04-22T12:13:01.999Z</time></trkpt><trkpt lat="43.74969622571543" lon="7.409992067694115"><ele>444.0</ele><time>2026-04-22T12:13:02.999Z</time></trkpt><trkpt lat="43.74967774689557" lon="7.409853073983507"><ele>444.0</ele><time>2026-04-22T12:13:04Z</time></trkpt><trkpt lat="43.74966639113327" lon="7.409714265547804"><ele>445.0</ele><time>2026-04-22T12:13:05Z</time></trkpt><trkpt lat="43.749651171530786" lon="7.409588928769616"><ele>446.0</ele><time>2026-04-22T12:13:06Z</time></trkpt><trkpt lat="43.749636776298665" lon="7.4094618113125845"><ele>447.0</ele><time>2026-04-22T12:13:07Z</time></trkpt><trkpt lat="43.74962700640411" lon="7.409331447670353"><ele>448.0</ele><time>2026-04-22T12:13:08Z</time></trkpt><trkpt lat="43.74961817211311" lon="7.409201978977787"><ele>449.0</ele><time>2026-04-22T12:13:09Z</time></trkpt><trkpt lat="43.74961187470523" lon="7.409075737664588"><ele>449.0</ele><time>2026-04-22T12:13:10Z</time></trkpt><trkpt lat="43.74961085247566" lon="7.408954553334419"><ele>449.0</ele><time>2026-04-22T12:13:11Z</time></trkpt><trkpt lat="43.74961152913779" lon="7.40883725776251"><ele>449.0</ele><time>2026-04-22T12:13:12Z</time></trkpt><trkpt lat="43.74960400673657" lon="7.4087113768316994"><ele>449.0</ele><time>2026-04-22T12:13:13Z</time></trkpt><trkpt lat="43.749602114405576" lon="7.408565238945953"><ele>449.0</ele><time>2026-04-22T12:13:14Z</time></trkpt><trkpt lat="43.74960694428893" lon="7.408402537372602"><ele>450.0</ele><time>2026-04-22T12:13:15Z</time></trkpt><trkpt lat="43.74961410241266" lon="7.40823142208575"><ele>451.0</ele><time>2026-04-22T12:13:16Z</time></trkpt><trkpt lat="43.74962196808258" lon="7.408060903321082"><ele>452.0</ele><time>2026-04-22T12:13:17Z</time></trkpt><trkpt lat="43.74963753936756" lon="7.407901340249748"><ele>453.0</ele><time>2026-04-22T12:13:18Z</time></trkpt><trkpt lat="43.74965479306982" lon="7.4077483076901105"><ele>453.0</ele><time>2026-04-22T12:13:19Z</time></trkpt><trkpt lat="43.7496753043174" lon="7.4076086184137395"><ele>452.99999999999994</ele><time>2026-04-22T12:13:20Z</time></trkpt><trkpt lat="43.749705843104685" lon="7.407485118260102"><ele>452.99999999999994</ele><time>2026-04-22T12:13:21Z</time></trkpt><trkpt lat="43.749748203430975" lon="7.407371394811795"><ele>453.0</ele><time>2026-04-22T12:13:22Z</time></trkpt><trkpt lat="43.74980585766972" lon="7.407268199715446"><ele>453.0</ele><time>2026-04-22T12:13:23Z</time></trkpt><trkpt lat="43.749868792049185" lon="7.407174479218901"><ele>450.25</ele><time>2026-04-22T12:13:24Z</time></trkpt><trkpt lat="43.74996094324706" lon="7.407100099238889"><ele>447.5</ele><time>2026-04-22T12:13:25Z</time></trkpt><trkpt lat="43.75005527537117" lon="7.407023694110493"><ele>444.75</ele><time>2026-04-22T12:13:26Z</time></trkpt><trkpt lat="43.75015704651138" lon="7.406945563539873"><ele>442.0</ele><time>2026-04-22T12:13:27Z</time></trkpt><trkpt lat="43.75023767984951" lon="7.406817070715101"><ele>448.75</ele><time>2026-04-22T12:13:28Z</time></trkpt><trkpt lat="43.750295042967394" lon="7.406665671530669"><ele>455.5</ele><time>2026-04-22T12:13:29Z</time></trkpt><trkpt lat="43.750344911061795" lon="7.406508222358399"><ele>462.25</ele><time>2026-04-22T12:13:30Z</time></trkpt><trkpt lat="43.750402366089865" lon="7.406341372876868"><ele>469.0</ele><time>2026-04-22T12:13:31Z</time></trkpt><trkpt lat="43.75044482331099" lon="7.406213076266688"><ele>469.0</ele><time>2026-04-22T12:13:32Z</time></trkpt><trkpt lat="43.750513619621465" lon="7.406049867722508"><ele>469.0</ele><time>2026-04-22T12:13:33Z</time></trkpt><trkpt lat="43.75057032383004" lon="7.405869656251505"><ele>469.0</ele><time>2026-04-22T12:13:34Z</time></trkpt><trkpt lat="43.75059607613857" lon="7.405697231474532"><ele>469.0</ele><time>2026-04-22T12:13:35Z</time></trkpt><trkpt lat="43.75061275517193" lon="7.405533227168659"><ele>465.6</ele><time>2026-04-22T12:13:36Z</time></trkpt><trkpt lat="43.750620012272414" lon="7.405374535124318"><ele>462.2</ele><time>2026-04-22T12:13:37Z</time></trkpt><trkpt lat="43.750650229432985" lon="7.405235400224853"><ele>458.80000000000007</ele><time>2026-04-22T12:13:38Z</time></trkpt><trkpt lat="43.75071605039048" lon="7.405139113573846"><ele>455.40000000000003</ele><time>2026-04-22T12:13:39Z</time></trkpt><trkpt lat="43.75078620010798" lon="7.405040441016154"><ele>452.0</ele><time>2026-04-22T12:13:40Z</time></trkpt><trkpt lat="43.75086532566583" lon="7.404939555337722"><ele>452.0</ele><time>2026-04-22T12:13:41Z</time></trkpt><trkpt lat="43.75096831313461" lon="7.404874540862336"><ele>452.00000000000006</ele><time>2026-04-22T12:13:42Z</time></trkpt><trkpt lat="43.751055654198396" lon="7.404796209549109"><ele>452.00000000000006</ele><time>2026-04-22T12:13:43Z</time></trkpt><trkpt lat="43.75110885903995" lon="7.4047016616306935"><ele>452.0</ele><time>2026-04-22T12:13:44Z</time></trkpt><trkpt lat="43.75113166754194" lon="7.404590043649333"><ele>452.0</ele><time>2026-04-22T12:13:45Z</time></trkpt><trkpt lat="43.75112413918985" lon="7.404464743774601"><ele>453.25</ele><time>2026-04-22T12:13:46Z</time></trkpt><trkpt lat="43.75109857490759" lon="7.404323786536693"><ele>454.5</ele><time>2026-04-22T12:13:47Z</time></trkpt><trkpt lat="43.75106154258695" lon="7.40417850816445"><ele>455.75</ele><time>2026-04-22T12:13:48Z</time></trkpt><trkpt lat="43.750997964997254" lon="7.404038809117632"><ele>457.0</ele><time>2026-04-22T12:13:49Z</time></trkpt><trkpt lat="43.75091584378741" lon="7.403906760719369"><ele>460.75</ele><time>2026-04-22T12:13:50Z</time></trkpt><trkpt lat="43.750835859818096" lon="7.403777008079867"><ele>464.5</ele><time>2026-04-22T12:13:51Z</time></trkpt><trkpt lat="43.75078467551444" lon="7.40362510825433"><ele>468.25</ele><time>2026-04-22T12:13:52Z</time></trkpt><trkpt lat="43.75072357605737" lon="7.403494376127621"><ele>472.0</ele><time>2026-04-22T12:13:53Z</time></trkpt><trkpt lat="43.75065749991563" lon="7.403398076881176"><ele>472.0</ele><time>2026-04-22T12:13:54Z</time></trkpt><trkpt lat="43.75057930733704" lon="7.403290830359588"><ele>472.00000000000006</ele><time>2026-04-22T12:13:55Z</time></trkpt><trkpt lat="43.75048897906696" lon="7.40319784455739"><ele>472.00000000000006</ele><time>2026-04-22T12:13:56Z</time></trkpt><trkpt lat="43.75039652573161" lon="7.403126289384476"><ele>472.0</ele><time>2026-04-22T12:13:57Z</time></trkpt><trkpt lat="43.75029395360471" lon="7.4030703475152295"><ele>472.0</ele><time>2026-04-22T12:13:58Z</time></trkpt><trkpt lat="43.750180212562185" lon="7.403038844389662"><ele>474.75</ele><time>2026-04-22T12:13:59Z</time></trkpt><trkpt lat="43.75005171500221" lon="7.403022871393422"><ele>477.5</ele><time>2026-04-22T12:14:00Z</time></trkpt><trkpt lat="43.74992245939366" lon="7.402984602055603"><ele>480.25</ele><time>2026-04-22T12:14:01Z</time></trkpt><trkpt lat="43.749813307073886" lon="7.402964523598675"><ele>483.0</ele><time>2026-04-22T12:14:02Z</time></trkpt><trkpt lat="43.749715290796225" lon="7.402939226482379"><ele>483.0</ele><time>2026-04-22T12:14:03Z</time></trkpt><trkpt lat="43.74963097537489" lon="7.402914513052778"><ele>482.99999999999994</ele><time>2026-04-22T12:14:04Z</time></trkpt><trkpt lat="43.74954432872541" lon="7.402886710584306"><ele>482.99999999999994</ele><time>2026-04-22T12:14:05Z</time></trkpt><trkpt lat="43.749448309806105" lon="7.402853504389535"><ele>483.0</ele><time>2026-04-22T12:14:06Z</time></trkpt><trkpt lat="43.74934131554623" lon="7.402814804393655"><ele>483.0</ele><time>2026-04-22T12:14:07Z</time></trkpt><trkpt lat="43.749225866439446" lon="7.402791379382566"><ele>481.25</ele><time>2026-04-22T12:14:08Z</time></trkpt><trkpt lat="43.749108204768035" lon="7.402741858323216"><ele>479.5</ele><time>2026-04-22T12:14:09Z</time></trkpt><trkpt lat="43.7489922673416" lon="7.402666585818842"><ele>477.75</ele><time>2026-04-22T12:14:10Z</time></trkpt><trkpt lat="43.74887187931878" lon="7.402615877601539"><ele>476.0</ele><time>2026-04-22T12:14:11Z</time></trkpt><trkpt lat="43.748753419190066" lon="7.402590847595555"><ele>476.0</ele><time>2026-04-22T12:14:12Z</time></trkpt><trkpt lat="43.74864910921232" lon="7.402529084406383"><ele>476.0</ele><time>2026-04-22T12:14:13Z</time></trkpt><trkpt lat="43.74855386330021" lon="7.4024906911207955"><ele>476.0</ele><time>2026-04-22T12:14:14Z</time></trkpt><trkpt lat="43.74846563428657" lon="7.402452395072884"><ele>476.0</ele><time>2026-04-22T12:14:15Z</time></trkpt><trkpt lat="43.74837975055386" lon="7.40241074215214"><ele>476.0</ele><time>2026-04-22T12:14:16Z</time></trkpt><trkpt lat="43.74828535202685" lon="7.402383439308819"><ele>475.5</ele><time>2026-04-22T12:14:17Z</time></trkpt><trkpt lat="43.748190856641465" lon="7.402300823264758"><ele>475.0</ele><time>2026-04-22T12:14:18Z</time></trkpt><trkpt lat="43.74807924175051" lon="7.402224303520294"><ele>474.5</ele><time>2026-04-22T12:14:19Z</time></trkpt><trkpt lat="43.74796147766658" lon="7.402129574554497"><ele>474.0</ele><time>2026-04-22T12:14:20Z</time></trkpt><trkpt lat="43.74783962172788" lon="7.402013719692046"><ele>475.0</ele><time>2026-04-22T12:14:21Z</time></trkpt><trkpt lat="43.74773433157574" lon="7.401905929916237"><ele>476.0</ele><time>2026-04-22T12:14:22Z</time></trkpt><trkpt lat="43.747616752706925" lon="7.401817964618409"><ele>477.0</ele><time>2026-04-22T12:14:23Z</time></trkpt><trkpt lat="43.74752141387303" lon="7.401708230537906"><ele>478.0</ele><time>2026-04-22T12:14:24Z</time></trkpt><trkpt lat="43.74741773824026" lon="7.401634481967394"><ele>478.00000000000006</ele><time>2026-04-22T12:14:25Z</time></trkpt><trkpt lat="43.74732270675634" lon="7.401590405843514"><ele>478.0</ele><time>2026-04-22T12:14:26Z</time></trkpt><trkpt lat="43.74724523719127" lon="7.401557000445144"><ele>478.0</ele><time>2026-04-22T12:14:27Z</time></trkpt><trkpt lat="43.74717539691938" lon="7.401527426232751"><ele>478.0</ele><time>2026-04-22T12:14:28Z</time></trkpt><trkpt lat="43.74710634100008" lon="7.401494902807047"><ele>478.00000000000006</ele><time>2026-04-22T12:14:29Z</time></trkpt><trkpt lat="43.74702844498791" lon="7.4014469751533225"><ele>478.0</ele><time>2026-04-22T12:14:29.999Z</time></trkpt><trkpt lat="43.74695961780799" lon="7.401393579174923"><ele>479.1666666666667</ele><time>2026-04-22T12:14:30.999Z</time></trkpt><trkpt lat="43.7468932217274" lon="7.401331682507622"><ele>480.33333333333337</ele><time>2026-04-22T12:14:31.999Z</time></trkpt><trkpt lat="43.746827452006144" lon="7.4012576387358715"><ele>481.5</ele><time>2026-04-22T12:14:32.999Z</time></trkpt><trkpt lat="43.746745682092275" lon="7.4011907169269655"><ele>482.66666666666663</ele><time>2026-04-22T12:14:33.999Z</time></trkpt><trkpt lat="43.746671000895155" lon="7.401101036879538"><ele>483.8333333333333</ele><time>2026-04-22T12:14:34.999Z</time></trkpt><trkpt lat="43.74659806224443" lon="7.40102631631872"><ele>485.0</ele><time>2026-04-22T12:14:35.999Z</time></trkpt><trkpt lat="43.74652114759815" lon="7.40095468921799"><ele>484.99999999999994</ele><time>2026-04-22T12:14:36.999Z</time></trkpt><trkpt lat="43.746436449859566" lon="7.4009020487650945"><ele>485.0</ele><time>2026-04-22T12:14:37.999Z</time></trkpt><trkpt lat="43.74637022417607" lon="7.400841449618678"><ele>485.0</ele><time>2026-04-22T12:14:38.999Z</time></trkpt><trkpt lat="43.746305274918676" lon="7.400816728206125"><ele>485.0</ele><time>2026-04-22T12:14:39.999Z</time></trkpt><trkpt lat="43.746221892605035" lon="7.400794776296609"><ele>484.99999999999994</ele><time>2026-04-22T12:14:41.999Z</time></trkpt><trkpt lat="43.746136828598175" lon="7.4007686289506145"><ele>485.0</ele><time>2026-04-22T12:14:44.999Z</time></trkpt><trkpt lat="43.746055147317776" lon="7.400743503422279"><ele>484.25</ele><time>2026-04-22T12:14:46.999Z</time></trkpt><trkpt lat="43.7459454556663" lon="7.4006953651245215"><ele>483.5</ele><time>2026-04-22T12:14:48.999Z</time></trkpt><trkpt lat="43.745835214759474" lon="7.400623477185999"><ele>482.75</ele><time>2026-04-22T12:14:50.999Z</time></trkpt><trkpt lat="43.74574197448069" lon="7.400545781451999"><ele>482.0</ele><time>2026-04-22T12:14:52.999Z</time></trkpt><trkpt lat="43.7456519473103" lon="7.400461103004054"><ele>483.20000000000005</ele><time>2026-04-22T12:14:54.999Z</time></trkpt><trkpt lat="43.74557446141408" lon="7.400345624695251"><ele>484.40000000000003</ele><time>2026-04-22T12:14:56.999Z</time></trkpt><trkpt lat="43.745528759224385" lon="7.400285470077388"><ele>485.59999999999997</ele><time>2026-04-22T12:14:57.999Z</time></trkpt><trkpt lat="43.74550498870059" lon="7.400202284108453"><ele>486.79999999999995</ele><time>2026-04-22T12:14:58.999Z</time></trkpt><trkpt lat="43.74546873878546" lon="7.400039687438808"><ele>488.0</ele><time>2026-04-22T12:15:00.999Z</time></trkpt><trkpt lat="43.745455238194324" lon="7.399877535671772"><ele>488.0</ele><time>2026-04-22T12:15:02.999Z</time></trkpt><trkpt lat="43.74544569821841" lon="7.399747743143427"><ele>488.0</ele><time>2026-04-22T12:15:04.999Z</time></trkpt><trkpt lat="43.7454623290666" lon="7.400031854160782"><ele>488.0</ele><time>2026-04-22T12:15:13Z</time></trkpt><trkpt lat="43.74540803904784" lon="7.40010875763266"><ele>488.0</ele><time>2026-04-22T12:15:15Z</time></trkpt><trkpt lat="43.74527593951172" lon="7.400130781670516"><ele>488.2</ele><time>2026-04-22T12:15:17Z</time></trkpt><trkpt lat="43.74517391796422" lon="7.40007543003268"><ele>488.4</ele><time>2026-04-22T12:15:19Z</time></trkpt><trkpt lat="43.745177130078226" lon="7.399913152754681"><ele>488.59999999999997</ele><time>2026-04-22T12:15:21Z</time></trkpt><trkpt lat="43.7451918305759" lon="7.3998204995963786"><ele>488.79999999999995</ele><time>2026-04-22T12:15:22Z</time></trkpt><trkpt lat="43.74520412499416" lon="7.399714488753725"><ele>489.0</ele><time>2026-04-22T12:15:23Z</time></trkpt><trkpt lat="43.74521945067203" lon="7.399602454215078"><ele>489.0</ele><time>2026-04-22T12:15:24Z</time></trkpt><trkpt lat="43.74524269234187" lon="7.399492085050164"><ele>489.0</ele><time>2026-04-22T12:15:25Z</time></trkpt><trkpt lat="43.74525755580741" lon="7.39938881438279"><ele>489.0</ele><time>2026-04-22T12:15:26Z</time></trkpt><trkpt lat="43.74527244694908" lon="7.399295484607295"><ele>489.0</ele><time>2026-04-22T12:15:27Z</time></trkpt><trkpt lat="43.74529367667573" lon="7.399158156036117"><ele>489.0</ele><time>2026-04-22T12:15:29Z</time></trkpt><trkpt lat="43.745325538247855" lon="7.399069140372944"><ele>489.0</ele><time>2026-04-22T12:15:31Z</time></trkpt><trkpt lat="43.74537610183312" lon="7.398980364030886"><ele>487.79999999999995</ele><time>2026-04-22T12:15:40Z</time></trkpt><trkpt lat="43.74542145172029" lon="7.398784169970865"><ele>486.59999999999997</ele><time>2026-04-22T12:15:42Z</time></trkpt><trkpt lat="43.74543238227645" lon="7.3986564571993885"><ele>485.4</ele><time>2026-04-22T12:15:43Z</time></trkpt><trkpt lat="43.74544979658557" lon="7.398541595281526"><ele>484.2</ele><time>2026-04-22T12:15:44Z</time></trkpt><trkpt lat="43.745487433228924" lon="7.398425329765954"><ele>483.0</ele><time>2026-04-22T12:15:45Z</time></trkpt><trkpt lat="43.74556762307331" lon="7.398300951615577"><ele>483.0</ele><time>2026-04-22T12:15:46Z</time></trkpt><trkpt lat="43.74562287240495" lon="7.398178080898869"><ele>482.99999999999994</ele><time>2026-04-22T12:15:47Z</time></trkpt><trkpt lat="43.745667496267636" lon="7.398060473711632"><ele>482.99999999999994</ele><time>2026-04-22T12:15:48Z</time></trkpt><trkpt lat="43.74569649468848" lon="7.397946163272686"><ele>483.0</ele><time>2026-04-22T12:15:49Z</time></trkpt><trkpt lat="43.74572249161638" lon="7.397838463779746"><ele>483.0</ele><time>2026-04-22T12:15:50Z</time></trkpt><trkpt lat="43.745740203134496" lon="7.3977296161530255"><ele>482.1666666666667</ele><time>2026-04-22T12:15:51Z</time></trkpt><trkpt lat="43.745751480927744" lon="7.397617607699812"><ele>481.33333333333337</ele><time>2026-04-22T12:15:52Z</time></trkpt><trkpt lat="43.745754955205264" lon="7.397504766391285"><ele>480.5</ele><time>2026-04-22T12:15:53Z</time></trkpt><trkpt lat="43.74575202114482" lon="7.3973839005540185"><ele>479.6666666666667</ele><time>2026-04-22T12:15:54Z</time></trkpt><trkpt lat="43.74575058985655" lon="7.397266043262938"><ele>478.83333333333337</ele><time>2026-04-22T12:15:55Z</time></trkpt><trkpt lat="43.74574805771314" lon="7.397142182023379"><ele>478.0</ele><time>2026-04-22T12:15:56Z</time></trkpt><trkpt lat="43.745743326193704" lon="7.39702602623508"><ele>477.83333333333337</ele><time>2026-04-22T12:15:57Z</time></trkpt><trkpt lat="43.745735674631796" lon="7.396906738986817"><ele>477.6666666666667</ele><time>2026-04-22T12:15:58Z</time></trkpt><trkpt lat="43.745728347934694" lon="7.3967896629961984"><ele>477.5</ele><time>2026-04-22T12:15:59Z</time></trkpt><trkpt lat="43.745716706763204" lon="7.396681958170303"><ele>477.33333333333337</ele><time>2026-04-22T12:16:00Z</time></trkpt><trkpt lat="43.745705158652086" lon="7.396566073680002"><ele>477.1666666666667</ele><time>2026-04-22T12:16:01Z</time></trkpt><trkpt lat="43.7456915684026" lon="7.396454450566988"><ele>477.0</ele><time>2026-04-22T12:16:02Z</time></trkpt><trkpt lat="43.74567343777245" lon="7.396344259531968"><ele>477.6666666666667</ele><time>2026-04-22T12:16:03Z</time></trkpt><trkpt lat="43.745656058658064" lon="7.396233459913441"><ele>478.33333333333337</ele><time>2026-04-22T12:16:04Z</time></trkpt><trkpt lat="43.74563632552142" lon="7.3961194617747825"><ele>479.0</ele><time>2026-04-22T12:16:05Z</time></trkpt><trkpt lat="43.7456092801552" lon="7.396003936540773"><ele>479.6666666666667</ele><time>2026-04-22T12:16:06Z</time></trkpt><trkpt lat="43.74557850598526" lon="7.395888434633781"><ele>480.33333333333337</ele><time>2026-04-22T12:16:07Z</time></trkpt><trkpt lat="43.74554476894976" lon="7.395772119606545"><ele>481.0</ele><time>2026-04-22T12:16:08Z</time></trkpt><trkpt lat="43.74550063329222" lon="7.39565900450157"><ele>481.0</ele><time>2026-04-22T12:16:09Z</time></trkpt><trkpt lat="43.74545335962582" lon="7.395544884252421"><ele>481.0</ele><time>2026-04-22T12:16:10Z</time></trkpt><trkpt lat="43.745401163617224" lon="7.395432796960679"><ele>481.0</ele><time>2026-04-22T12:16:11Z</time></trkpt><trkpt lat="43.74534325474045" lon="7.3953166029166155"><ele>481.0</ele><time>2026-04-22T12:16:12Z</time></trkpt><trkpt lat="43.745279746841454" lon="7.395201306788014"><ele>481.0</ele><time>2026-04-22T12:16:13Z</time></trkpt><trkpt lat="43.74521073841179" lon="7.395088102612812"><ele>477.20000000000005</ele><time>2026-04-22T12:16:14Z</time></trkpt><trkpt lat="43.74513904671033" lon="7.394980565886517"><ele>473.40000000000003</ele><time>2026-04-22T12:16:15Z</time></trkpt><trkpt lat="43.74507664590287" lon="7.3948681487860854"><ele>469.6</ele><time>2026-04-22T12:16:16Z</time></trkpt><trkpt lat="43.74499438111336" lon="7.394789829583354"><ele>465.8</ele><time>2026-04-22T12:16:17Z</time></trkpt><trkpt lat="43.74492947020402" lon="7.3946982653767455"><ele>462.0</ele><time>2026-04-22T12:16:18Z</time></trkpt><trkpt lat="43.74487641580544" lon="7.394609508197259"><ele>462.0</ele><time>2026-04-22T12:16:19Z</time></trkpt><trkpt lat="43.744842951499194" lon="7.394534950965795"><ele>462.00000000000006</ele><time>2026-04-22T12:16:20Z</time></trkpt><trkpt lat="43.74481747958311" lon="7.39437381298957"><ele>462.00000000000006</ele><time>2026-04-22T12:16:22Z</time></trkpt><trkpt lat="43.74476520083745" lon="7.394240925995357"><ele>462.0</ele><time>2026-04-22T12:16:24Z</time></trkpt><trkpt lat="43.74465896864862" lon="7.394203192721305"><ele>462.0</ele><time>2026-04-22T12:16:26Z</time></trkpt><trkpt lat="43.74453006290903" lon="7.394216265353513"><ele>462.0</ele><time>2026-04-22T12:16:28Z</time></trkpt><trkpt lat="43.74445383346806" lon="7.394179412287703"><ele>462.00000000000006</ele><time>2026-04-22T12:16:29Z</time></trkpt><trkpt lat="43.74437624121422" lon="7.3941077138508415"><ele>462.00000000000006</ele><time>2026-04-22T12:16:30Z</time></trkpt><trkpt lat="43.744297802736035" lon="7.394022929401055"><ele>462.0</ele><time>2026-04-22T12:16:31Z</time></trkpt><trkpt lat="43.74421474214169" lon="7.393929849733526"><ele>462.0</ele><time>2026-04-22T12:16:32Z</time></trkpt><trkpt lat="43.744123847789815" lon="7.393842254849828"><ele>461.5</ele><time>2026-04-22T12:16:33Z</time></trkpt><trkpt lat="43.74405643585645" lon="7.393745154821471"><ele>461.0</ele><time>2026-04-22T12:16:34Z</time></trkpt><trkpt lat="43.74398862439977" lon="7.39367053232184"><ele>460.5</ele><time>2026-04-22T12:16:35Z</time></trkpt><trkpt lat="43.74392817944728" lon="7.393602490268587"><ele>460.0</ele><time>2026-04-22T12:16:36Z</time></trkpt><trkpt lat="43.74386648992129" lon="7.393530397823053"><ele>459.5</ele><time>2026-04-22T12:16:36.999Z</time></trkpt><trkpt lat="43.7438059203024" lon="7.393454749704751"><ele>459.0</ele><time>2026-04-22T12:16:37.999Z</time></trkpt><trkpt lat="43.74374766950508" lon="7.393374737906799"><ele>459.0</ele><time>2026-04-22T12:16:38.999Z</time></trkpt><trkpt lat="43.74368664248803" lon="7.393278582642465"><ele>459.0</ele><time>2026-04-22T12:16:39.999Z</time></trkpt><trkpt lat="43.74360736887873" lon="7.393177268668967"><ele>459.0</ele><time>2026-04-22T12:16:40.999Z</time></trkpt><trkpt lat="43.74353308570722" lon="7.393040800332355"><ele>459.0</ele><time>2026-04-22T12:16:41.999Z</time></trkpt><trkpt lat="43.74345013065428" lon="7.392896544669906"><ele>461.25</ele><time>2026-04-22T12:16:42.999Z</time></trkpt><trkpt lat="43.74336980990027" lon="7.392750796951613"><ele>463.5</ele><time>2026-04-22T12:16:43.999Z</time></trkpt><trkpt lat="43.743295283747074" lon="7.392622059811689"><ele>465.75</ele><time>2026-04-22T12:16:44.999Z</time></trkpt><trkpt lat="43.74322690556363" lon="7.392506616690156"><ele>468.0</ele><time>2026-04-22T12:16:45.999Z</time></trkpt><trkpt lat="43.743164493944626" lon="7.392407119248587"><ele>468.0</ele><time>2026-04-22T12:16:46.999Z</time></trkpt><trkpt lat="43.7431267839731" lon="7.392299874258813"><ele>468.0</ele><time>2026-04-22T12:16:47.999Z</time></trkpt><trkpt lat="43.74307715424646" lon="7.392211821642997"><ele>468.0</ele><time>2026-04-22T12:16:48.999Z</time></trkpt><trkpt lat="43.743026826418884" lon="7.392122590440509"><ele>468.0</ele><time>2026-04-22T12:16:49.999Z</time></trkpt><trkpt lat="43.742971906782856" lon="7.392025012562983"><ele>468.0</ele><time>2026-04-22T12:16:50.999Z</time></trkpt><trkpt lat="43.7429162080029" lon="7.391925106930589"><ele>468.0</ele><time>2026-04-22T12:16:51.999Z</time></trkpt><trkpt lat="43.7428604290039" lon="7.391825983766515"><ele>467.4</ele><time>2026-04-22T12:16:52.999Z</time></trkpt><trkpt lat="43.74280437723692" lon="7.391725290191493"><ele>466.79999999999995</ele><time>2026-04-22T12:16:53.999Z</time></trkpt><trkpt lat="43.74273149897842" lon="7.391644324827097"><ele>466.2</ele><time>2026-04-22T12:16:54.999Z</time></trkpt><trkpt lat="43.742671686140056" lon="7.3915427978003345"><ele>465.6</ele><time>2026-04-22T12:16:55.999Z</time></trkpt><trkpt lat="43.742610712154374" lon="7.3914417094623595"><ele>465.0</ele><time>2026-04-22T12:16:56.999Z</time></trkpt><trkpt lat="43.742537731968824" lon="7.391348478357977"><ele>470.8</ele><time>2026-04-22T12:16:57.999Z</time></trkpt><trkpt lat="43.74246461005931" lon="7.391240139911938"><ele>476.6</ele><time>2026-04-22T12:16:58.999Z</time></trkpt><trkpt lat="43.74236324351061" lon="7.39117601645614"><ele>482.4</ele><time>2026-04-22T12:16:59.999Z</time></trkpt><trkpt lat="43.742257256686614" lon="7.391125141954633"><ele>488.2</ele><time>2026-04-22T12:17:00.999Z</time></trkpt><trkpt lat="43.74215056239694" lon="7.391080429936045"><ele>494.0</ele><time>2026-04-22T12:17:01.999Z</time></trkpt><trkpt lat="43.74203699428664" lon="7.391038986806827"><ele>494.0</ele><time>2026-04-22T12:17:02.999Z</time></trkpt><trkpt lat="43.74192612947127" lon="7.390997780574843"><ele>494.0</ele><time>2026-04-22T12:17:03.999Z</time></trkpt><trkpt lat="43.74182808172729" lon="7.390958626076646"><ele>494.0</ele><time>2026-04-22T12:17:04.999Z</time></trkpt><trkpt lat="43.74174055474817" lon="7.390924883340203"><ele>494.0</ele><time>2026-04-22T12:17:05.999Z</time></trkpt><trkpt lat="43.74166164345059" lon="7.390894958951872"><ele>494.0</ele><time>2026-04-22T12:17:06.999Z</time></trkpt><trkpt lat="43.74159107258963" lon="7.390868381045044"><ele>493.3333333333333</ele><time>2026-04-22T12:17:07.999Z</time></trkpt><trkpt lat="43.74152526295466" lon="7.390843545619415"><ele>492.66666666666663</ele><time>2026-04-22T12:17:08.999Z</time></trkpt><trkpt lat="43.74145268862356" lon="7.390816593473887"><ele>492.0</ele><time>2026-04-22T12:17:09.999Z</time></trkpt><trkpt lat="43.74137436691182" lon="7.390787691304482"><ele>491.33333333333337</ele><time>2026-04-22T12:17:10.999Z</time></trkpt><trkpt lat="43.74128894092692" lon="7.390757843010039"><ele>490.6666666666667</ele><time>2026-04-22T12:17:11.999Z</time></trkpt><trkpt lat="43.7411980114142" lon="7.390727162094978"><ele>490.0</ele><time>2026-04-22T12:17:12.999Z</time></trkpt><trkpt lat="43.74110163758896" lon="7.390694660133457"><ele>486.0</ele><time>2026-04-22T12:17:13.999Z</time></trkpt><trkpt lat="43.74100116385424" lon="7.390658748174493"><ele>482.0</ele><time>2026-04-22T12:17:14.999Z</time></trkpt><trkpt lat="43.740896988228734" lon="7.390623078637014"><ele>478.0</ele><time>2026-04-22T12:17:16Z</time></trkpt><trkpt lat="43.74078166255824" lon="7.390579751392511"><ele>474.0</ele><time>2026-04-22T12:17:17Z</time></trkpt><trkpt lat="43.740654119821144" lon="7.390527255382849"><ele>479.75</ele><time>2026-04-22T12:17:18Z</time></trkpt><trkpt lat="43.74051736829413" lon="7.390463207149617"><ele>485.5</ele><time>2026-04-22T12:17:19Z</time></trkpt><trkpt lat="43.74037880264355" lon="7.390391643726184"><ele>491.25</ele><time>2026-04-22T12:17:20Z</time></trkpt><trkpt lat="43.740250601819085" lon="7.390320416313599"><ele>497.0</ele><time>2026-04-22T12:17:21Z</time></trkpt><trkpt lat="43.74012050792009" lon="7.390246927031722"><ele>497.0</ele><time>2026-04-22T12:17:22Z</time></trkpt><trkpt lat="43.73998802147136" lon="7.39017094967786"><ele>497.0</ele><time>2026-04-22T12:17:23Z</time></trkpt><trkpt lat="43.739855559507355" lon="7.390087617343943"><ele>497.0</ele><time>2026-04-22T12:17:24Z</time></trkpt><trkpt lat="43.73971178350418" lon="7.390028524025878"><ele>497.0</ele><time>2026-04-22T12:17:25Z</time></trkpt><trkpt lat="43.739574495188464" lon="7.389937610987513"><ele>497.0</ele><time>2026-04-22T12:17:26Z</time></trkpt><trkpt lat="43.73943500137972" lon="7.389844618221253"><ele>497.0</ele><time>2026-04-22T12:17:27Z</time></trkpt><trkpt lat="43.739295943691964" lon="7.389746134115738"><ele>497.0</ele><time>2026-04-22T12:17:28Z</time></trkpt><trkpt lat="43.73916670914692" lon="7.38961073423715"><ele>498.75</ele><time>2026-04-22T12:17:29Z</time></trkpt><trkpt lat="43.73902772491561" lon="7.3895014264199474"><ele>500.5</ele><time>2026-04-22T12:17:30Z</time></trkpt><trkpt lat="43.73890476115393" lon="7.3893974906639315"><ele>502.25</ele><time>2026-04-22T12:17:31Z</time></trkpt><trkpt lat="43.73880135479407" lon="7.389288960441265"><ele>504.0</ele><time>2026-04-22T12:17:32Z</time></trkpt><trkpt lat="43.73871384340434" lon="7.389167570310348"><ele>504.0</ele><time>2026-04-22T12:17:33Z</time></trkpt><trkpt lat="43.73864956200705" lon="7.38903349800685"><ele>504.0</ele><time>2026-04-22T12:17:34Z</time></trkpt><trkpt lat="43.73861480898259" lon="7.38887178957294"><ele>504.0</ele><time>2026-04-22T12:17:35Z</time></trkpt><trkpt lat="43.738587216035626" lon="7.388686055504107"><ele>504.0</ele><time>2026-04-22T12:17:36Z</time></trkpt><trkpt lat="43.738560844167786" lon="7.388494538611171"><ele>498.75</ele><time>2026-04-22T12:17:37Z</time></trkpt><trkpt lat="43.73851961538291" lon="7.3883033579824335"><ele>493.5</ele><time>2026-04-22T12:17:38Z</time></trkpt><trkpt lat="43.73849057056809" lon="7.3881028466327825"><ele>488.25</ele><time>2026-04-22T12:17:39Z</time></trkpt><trkpt lat="43.738464282208085" lon="7.38790415025501"><ele>483.0</ele><time>2026-04-22T12:17:40Z</time></trkpt><trkpt lat="43.738439152014436" lon="7.3877160339155585"><ele>483.0</ele><time>2026-04-22T12:17:41Z</time></trkpt><trkpt lat="43.738413674499625" lon="7.387521729126514"><ele>483.0</ele><time>2026-04-22T12:17:42Z</time></trkpt><trkpt lat="43.738392915086706" lon="7.387335427057484"><ele>483.0</ele><time>2026-04-22T12:17:43Z</time></trkpt><trkpt lat="43.738373738618876" lon="7.387161003037608"><ele>483.0</ele><time>2026-04-22T12:17:44Z</time></trkpt><trkpt lat="43.73835269842241" lon="7.386996535625427"><ele>487.5</ele><time>2026-04-22T12:17:45Z</time></trkpt><trkpt lat="43.73832630639968" lon="7.386831383907446"><ele>492.0</ele><time>2026-04-22T12:17:46Z</time></trkpt><trkpt lat="43.73829539265924" lon="7.386668999287894"><ele>496.5</ele><time>2026-04-22T12:17:47Z</time></trkpt><trkpt lat="43.738255073207746" lon="7.386506520943281"><ele>501.0</ele><time>2026-04-22T12:17:48Z</time></trkpt><trkpt lat="43.7382036946529" lon="7.386347522608261"><ele>506.5</ele><time>2026-04-22T12:17:49Z</time></trkpt><trkpt lat="43.73813369830438" lon="7.386197828108315"><ele>512.0</ele><time>2026-04-22T12:17:50Z</time></trkpt><trkpt lat="43.73804494310572" lon="7.386052300743755"><ele>517.5</ele><time>2026-04-22T12:17:51Z</time></trkpt><trkpt lat="43.73794412834641" lon="7.3859050429403625"><ele>523.0</ele><time>2026-04-22T12:17:51.999Z</time></trkpt><trkpt lat="43.73783632708177" lon="7.385755890908417"><ele>523.0</ele><time>2026-04-22T12:17:52.999Z</time></trkpt><trkpt lat="43.737725029485084" lon="7.385625995278623"><ele>523.0</ele><time>2026-04-22T12:17:53.999Z</time></trkpt><trkpt lat="43.737610401029116" lon="7.385493019331034"><ele>523.0</ele><time>2026-04-22T12:17:54.999Z</time></trkpt><trkpt lat="43.73748326557497" lon="7.385370242676578"><ele>516.3333333333334</ele><time>2026-04-22T12:17:55.999Z</time></trkpt><trkpt lat="43.73739304122364" lon="7.385202727693799"><ele>509.66666666666663</ele><time>2026-04-22T12:17:56.999Z</time></trkpt><trkpt lat="43.737280798300915" lon="7.385052862323918"><ele>503.0</ele><time>2026-04-22T12:17:57.999Z</time></trkpt><trkpt lat="43.737169624114536" lon="7.384894670615269"><ele>503.0</ele><time>2026-04-22T12:17:58.999Z</time></trkpt><trkpt lat="43.737059707899945" lon="7.384733305460379"><ele>503.0</ele><time>2026-04-22T12:17:59.999Z</time></trkpt><trkpt lat="43.736953857029015" lon="7.384571881130914"><ele>503.0</ele><time>2026-04-22T12:18:00.999Z</time></trkpt><trkpt lat="43.73685200029754" lon="7.384401553793812"><ele>497.0</ele><time>2026-04-22T12:18:01.999Z</time></trkpt><trkpt lat="43.73675322690186" lon="7.384227910541301"><ele>491.0</ele><time>2026-04-22T12:18:02.999Z</time></trkpt><trkpt lat="43.73667084409318" lon="7.384034997317284"><ele>485.0</ele><time>2026-04-22T12:18:03.999Z</time></trkpt><trkpt lat="43.736572267405606" lon="7.383850139719727"><ele>493.0</ele><time>2026-04-22T12:18:04.999Z</time></trkpt><trkpt lat="43.7364834008261" lon="7.3836824524550115"><ele>501.0</ele><time>2026-04-22T12:18:05.999Z</time></trkpt><trkpt lat="43.736404074583426" lon="7.383519845044541"><ele>509.0</ele><time>2026-04-22T12:18:06.999Z</time></trkpt><trkpt lat="43.7363254473983" lon="7.383363025416434"><ele>517.0</ele><time>2026-04-22T12:18:07.999Z</time></trkpt><trkpt lat="43.73626788383348" lon="7.383172067503727"><ele>525.0</ele><time>2026-04-22T12:18:08.999Z</time></trkpt><trkpt lat="43.736241101658244" lon="7.3829662804046094"><ele>533.0</ele><time>2026-04-22T12:18:09.999Z</time></trkpt><trkpt lat="43.73619940232185" lon="7.3827567454347705"><ele>541.0</ele><time>2026-04-22T12:18:10.999Z</time></trkpt><trkpt lat="43.736158199439316" lon="7.382542504106663"><ele>541.0</ele><time>2026-04-22T12:18:11.999Z</time></trkpt><trkpt lat="43.73611817071747" lon="7.382329124599282"><ele>541.0</ele><time>2026-04-22T12:18:12.999Z</time></trkpt><trkpt lat="43.73607914877376" lon="7.382117931718126"><ele>541.0</ele><time>2026-04-22T12:18:13.999Z</time></trkpt><trkpt lat="43.73602711118412" lon="7.3819002777749345"><ele>532.3333333333334</ele><time>2026-04-22T12:18:14.999Z</time></trkpt><trkpt lat="43.736001992942256" lon="7.381671347027705"><ele>523.6666666666666</ele><time>2026-04-22T12:18:15.999Z</time></trkpt><trkpt lat="43.735982649438434" lon="7.381438284040665"><ele>515.0</ele><time>2026-04-22T12:18:16.999Z</time></trkpt><trkpt lat="43.73596128656798" lon="7.381210869545034"><ele>515.0</ele><time>2026-04-22T12:18:17.999Z</time></trkpt><trkpt lat="43.735922882969135" lon="7.380989851635143"><ele>515.0</ele><time>2026-04-22T12:18:18.999Z</time></trkpt><trkpt lat="43.73587423665346" lon="7.380777699647898"><ele>515.0</ele><time>2026-04-22T12:18:19.999Z</time></trkpt><trkpt lat="43.735812649247634" lon="7.3805778649491725"><ele>524.6666666666666</ele><time>2026-04-22T12:18:20.999Z</time></trkpt><trkpt lat="43.73573156919147" lon="7.380387488794232"><ele>534.3333333333334</ele><time>2026-04-22T12:18:21.999Z</time></trkpt><trkpt lat="43.735619989711346" lon="7.3801976022323394"><ele>544.0</ele><time>2026-04-22T12:18:22.999Z</time></trkpt><trkpt lat="43.73549637796472" lon="7.379998487599293"><ele>544.0</ele><time>2026-04-22T12:18:23.999Z</time></trkpt><trkpt lat="43.73537035913821" lon="7.379795237120002"><ele>544.0</ele><time>2026-04-22T12:18:24.999Z</time></trkpt><trkpt lat="43.735253274229244" lon="7.379611564911852"><ele>544.0</ele><time>2026-04-22T12:18:25.999Z</time></trkpt><trkpt lat="43.73514518673405" lon="7.379434694762122"><ele>543.5</ele><time>2026-04-22T12:18:26.999Z</time></trkpt><trkpt lat="43.73504492894212" lon="7.379274082817446"><ele>543.0</ele><time>2026-04-22T12:18:27.999Z</time></trkpt><trkpt lat="43.73495286147229" lon="7.379122387491107"><ele>542.5</ele><time>2026-04-22T12:18:28.999Z</time></trkpt><trkpt lat="43.73488851970358" lon="7.378954248363071"><ele>542.0</ele><time>2026-04-22T12:18:29.999Z</time></trkpt><trkpt lat="43.73482489503273" lon="7.378783266600905"><ele>542.0</ele><time>2026-04-22T12:18:30.999Z</time></trkpt><trkpt lat="43.73475308623173" lon="7.378596869810242"><ele>542.0</ele><time>2026-04-22T12:18:31.999Z</time></trkpt><trkpt lat="43.734701257548025" lon="7.378385817797606"><ele>542.0</ele><time>2026-04-22T12:18:32.999Z</time></trkpt><trkpt lat="43.734660580415124" lon="7.378155996526049"><ele>550.6666666666666</ele><time>2026-04-22T12:18:33.999Z</time></trkpt><trkpt lat="43.73460515678354" lon="7.377924926108648"><ele>559.3333333333334</ele><time>2026-04-22T12:18:34.999Z</time></trkpt><trkpt lat="43.73454612154926" lon="7.377685861930676"><ele>568.0</ele><time>2026-04-22T12:18:35.999Z</time></trkpt><trkpt lat="43.73448734558022" lon="7.3774553510276775"><ele>568.0</ele><time>2026-04-22T12:18:36.999Z</time></trkpt><trkpt lat="43.73443114452109" lon="7.377241427574662"><ele>568.0</ele><time>2026-04-22T12:18:37.999Z</time></trkpt><trkpt lat="43.73437679517742" lon="7.377045417096543"><ele>568.0</ele><time>2026-04-22T12:18:38.999Z</time></trkpt><trkpt lat="43.734328828094995" lon="7.376865795395549"><ele>552.0</ele><time>2026-04-22T12:18:39.999Z</time></trkpt><trkpt lat="43.73429957801357" lon="7.376698109832593"><ele>536.0</ele><time>2026-04-22T12:18:40.999Z</time></trkpt><trkpt lat="43.73429573867368" lon="7.376517027794896"><ele>520.0</ele><time>2026-04-22T12:18:41.999Z</time></trkpt><trkpt lat="43.734306948345804" lon="7.376307812017692"><ele>504.0</ele><time>2026-04-22T12:18:42.999Z</time></trkpt><trkpt lat="43.73431343256745" lon="7.3760640254512"><ele>503.33333333333337</ele><time>2026-04-22T12:18:43.999Z</time></trkpt><trkpt lat="43.734321328023896" lon="7.375825333097338"><ele>502.6666666666667</ele><time>2026-04-22T12:18:44.999Z</time></trkpt><trkpt lat="43.7343282036409" lon="7.375589606130935"><ele>502.0</ele><time>2026-04-22T12:18:45.999Z</time></trkpt><trkpt lat="43.734329804032996" lon="7.3753565357040864"><ele>503.6666666666667</ele><time>2026-04-22T12:18:46.999Z</time></trkpt><trkpt lat="43.73431927708133" lon="7.375111305592198"><ele>505.33333333333337</ele><time>2026-04-22T12:18:47.999Z</time></trkpt><trkpt lat="43.7342944999134" lon="7.37485465239795"><ele>507.0</ele><time>2026-04-22T12:18:48.999Z</time></trkpt><trkpt lat="43.734258183554736" lon="7.374611000909891"><ele>508.0</ele><time>2026-04-22T12:18:49.999Z</time></trkpt><trkpt lat="43.73420175834839" lon="7.3743640481929145"><ele>509.0</ele><time>2026-04-22T12:18:50.999Z</time></trkpt><trkpt lat="43.73412892996896" lon="7.374111896111468"><ele>510.0</ele><time>2026-04-22T12:18:51.999Z</time></trkpt><trkpt lat="43.734067116677394" lon="7.373841586816879"><ele>517.0</ele><time>2026-04-22T12:18:52.999Z</time></trkpt><trkpt lat="43.73399012144778" lon="7.37358924852859"><ele>524.0</ele><time>2026-04-22T12:18:53.999Z</time></trkpt><trkpt lat="43.73391416837365" lon="7.373342216550596"><ele>531.0</ele><time>2026-04-22T12:18:54.999Z</time></trkpt><trkpt lat="43.73384358448202" lon="7.373113170056128"><ele>539.3333333333334</ele><time>2026-04-22T12:18:55.999Z</time></trkpt><trkpt lat="43.733778832318805" lon="7.372895179045748"><ele>547.6666666666667</ele><time>2026-04-22T12:18:56.999Z</time></trkpt><trkpt lat="43.733704456136586" lon="7.372685263781602"><ele>556.0</ele><time>2026-04-22T12:18:57.999Z</time></trkpt><trkpt lat="43.73365896451555" lon="7.372462271848047"><ele>556.0</ele><time>2026-04-22T12:18:58.999Z</time></trkpt><trkpt lat="43.73363062391186" lon="7.37223955566932"><ele>556.0</ele><time>2026-04-22T12:18:59.999Z</time></trkpt><trkpt lat="43.733617604648195" lon="7.372015678573523"><ele>556.0</ele><time>2026-04-22T12:19:00.999Z</time></trkpt><trkpt lat="43.73360780370189" lon="7.371794875821274"><ele>545.3333333333334</ele><time>2026-04-22T12:19:01.999Z</time></trkpt><trkpt lat="43.73352299560074" lon="7.37157403903539"><ele>534.6666666666666</ele><time>2026-04-22T12:19:02.999Z</time></trkpt><trkpt lat="43.733449362253765" lon="7.371364695282994"><ele>524.0</ele><time>2026-04-22T12:19:03.999Z</time></trkpt><trkpt lat="43.73338269691925" lon="7.371162840994423"><ele>524.0</ele><time>2026-04-22T12:19:04.999Z</time></trkpt><trkpt lat="43.7333153288646" lon="7.370983178543985"><ele>524.0</ele><time>2026-04-22T12:19:05.999Z</time></trkpt><trkpt lat="43.73329060950694" lon="7.370792817521034"><ele>524.0</ele><time>2026-04-22T12:19:06.999Z</time></trkpt><trkpt lat="43.733226530628286" lon="7.370589758677719"><ele>524.0</ele><time>2026-04-22T12:19:07.999Z</time></trkpt><trkpt lat="43.73318201438981" lon="7.3704226438746"><ele>526.0</ele><time>2026-04-22T12:19:08.999Z</time></trkpt><trkpt lat="43.733151952775195" lon="7.370251810680196"><ele>528.0</ele><time>2026-04-22T12:19:09.999Z</time></trkpt><trkpt lat="43.73313099195478" lon="7.370078910572006"><ele>530.0</ele><time>2026-04-22T12:19:10.999Z</time></trkpt><trkpt lat="43.73311732325462" lon="7.369903973404059"><ele>532.0</ele><time>2026-04-22T12:19:11.999Z</time></trkpt><trkpt lat="43.733141810232134" lon="7.369724351560657"><ele>530.5</ele><time>2026-04-22T12:19:12.999Z</time></trkpt><trkpt lat="43.733173473448986" lon="7.369537916378195"><ele>529.0</ele><time>2026-04-22T12:19:13.999Z</time></trkpt><trkpt lat="43.73321775523517" lon="7.36939355443364"><ele>527.5</ele><time>2026-04-22T12:19:14.999Z</time></trkpt><trkpt lat="43.73327367859728" lon="7.3692373934363165"><ele>526.0</ele><time>2026-04-22T12:19:15.999Z</time></trkpt><trkpt lat="43.733345936469675" lon="7.36907910897449"><ele>526.0</ele><time>2026-04-22T12:19:16.998Z</time></trkpt><trkpt lat="43.73343510117152" lon="7.368932048500228"><ele>526.0</ele><time>2026-04-22T12:19:17.998Z</time></trkpt><trkpt lat="43.73352985672043" lon="7.3688257901222425"><ele>526.0</ele><time>2026-04-22T12:19:18.998Z</time></trkpt><trkpt lat="43.733631192557596" lon="7.368756116068224"><ele>526.0</ele><time>2026-04-22T12:19:19.998Z</time></trkpt><trkpt lat="43.73374476406971" lon="7.368699620802354"><ele>523.25</ele><time>2026-04-22T12:19:21Z</time></trkpt><trkpt lat="43.733871975268194" lon="7.368688147933665"><ele>520.5</ele><time>2026-04-22T12:19:22Z</time></trkpt><trkpt lat="43.734022964761586" lon="7.368678505816988"><ele>517.75</ele><time>2026-04-22T12:19:23Z</time></trkpt><trkpt lat="43.73418229725683" lon="7.368644178751828"><ele>515.0</ele><time>2026-04-22T12:19:24Z</time></trkpt><trkpt lat="43.734335772855964" lon="7.368634310663774"><ele>519.0</ele><time>2026-04-22T12:19:25Z</time></trkpt><trkpt lat="43.73446549527082" lon="7.3686125827283355"><ele>523.0</ele><time>2026-04-22T12:19:26Z</time></trkpt><trkpt lat="43.73459668029576" lon="7.368573519926288"><ele>527.0</ele><time>2026-04-22T12:19:27Z</time></trkpt><trkpt lat="43.73473185518001" lon="7.368511254589965"><ele>531.0</ele><time>2026-04-22T12:19:28Z</time></trkpt><trkpt lat="43.734862328524535" lon="7.368419326655101"><ele>531.0</ele><time>2026-04-22T12:19:29Z</time></trkpt><trkpt lat="43.73498854463628" lon="7.3682971167973585"><ele>531.0</ele><time>2026-04-22T12:19:30Z</time></trkpt><trkpt lat="43.73510739729448" lon="7.368163288566143"><ele>531.0</ele><time>2026-04-22T12:19:31Z</time></trkpt><trkpt lat="43.735222187415104" lon="7.368018013414738"><ele>536.3333333333334</ele><time>2026-04-22T12:19:32Z</time></trkpt><trkpt lat="43.735320350835586" lon="7.36785570279538"><ele>541.6666666666667</ele><time>2026-04-22T12:19:33Z</time></trkpt><trkpt lat="43.735409288549604" lon="7.367674878653473"><ele>547.0</ele><time>2026-04-22T12:19:34Z</time></trkpt><trkpt lat="43.73548619433442" lon="7.367470493096382"><ele>547.0</ele><time>2026-04-22T12:19:35Z</time></trkpt><trkpt lat="43.73556187678028" lon="7.367249444873976"><ele>547.0</ele><time>2026-04-22T12:19:36Z</time></trkpt><trkpt lat="43.73563508607988" lon="7.367046214067558"><ele>547.0</ele><time>2026-04-22T12:19:37Z</time></trkpt><trkpt lat="43.73569600353004" lon="7.366858917172962"><ele>545.0</ele><time>2026-04-22T12:19:38Z</time></trkpt><trkpt lat="43.735740650971124" lon="7.366685071208456"><ele>543.0</ele><time>2026-04-22T12:19:39Z</time></trkpt><trkpt lat="43.73577151496999" lon="7.36650813354524"><ele>541.0</ele><time>2026-04-22T12:19:40Z</time></trkpt><trkpt lat="43.73577193824403" lon="7.366342707494602"><ele>539.0</ele><time>2026-04-22T12:19:41Z</time></trkpt><trkpt lat="43.735758146802596" lon="7.366185863548014"><ele>539.0</ele><time>2026-04-22T12:19:42Z</time></trkpt><trkpt lat="43.73573284143767" lon="7.366044265848569"><ele>539.0</ele><time>2026-04-22T12:19:43Z</time></trkpt><trkpt lat="43.735707942180625" lon="7.365934239648447"><ele>539.0</ele><time>2026-04-22T12:19:44Z</time></trkpt><trkpt lat="43.735679930963116" lon="7.3658381786394544"><ele>539.0</ele><time>2026-04-22T12:19:45Z</time></trkpt><trkpt lat="43.735633369675924" lon="7.365706614634715"><ele>539.0</ele><time>2026-04-22T12:19:47Z</time></trkpt><trkpt lat="43.73559077091997" lon="7.365618083425719"><ele>539.0</ele><time>2026-04-22T12:21:22.999Z</time></trkpt><trkpt lat="43.73554657244836" lon="7.365514077522349"><ele>539.0</ele><time>2026-04-22T12:21:24.999Z</time></trkpt><trkpt lat="43.735517998183965" lon="7.365413722077377"><ele>539.0</ele><time>2026-04-22T12:21:25.999Z</time></trkpt><trkpt lat="43.73550977864951" lon="7.365301322963672"><ele>539.0</ele><time>2026-04-22T12:21:27Z</time></trkpt><trkpt lat="43.735526522714096" lon="7.365190793215566"><ele>539.0</ele><time>2026-04-22T12:21:28Z</time></trkpt><trkpt lat="43.73557312384044" lon="7.365064468113621"><ele>539.0</ele><time>2026-04-22T12:21:29Z</time></trkpt><trkpt lat="43.735620204275726" lon="7.364913668967415"><ele>539.0</ele><time>2026-04-22T12:21:30Z</time></trkpt><trkpt lat="43.73567611389938" lon="7.364742688592403"><ele>539.0</ele><time>2026-04-22T12:21:31Z</time></trkpt><trkpt lat="43.73572902017593" lon="7.364586697160004"><ele>539.0</ele><time>2026-04-22T12:21:32Z</time></trkpt><trkpt lat="43.73578422760618" lon="7.3644292838347205"><ele>539.0</ele><time>2026-04-22T12:21:33Z</time></trkpt><trkpt lat="43.73584415690746" lon="7.364267385769617"><ele>536.75</ele><time>2026-04-22T12:21:34Z</time></trkpt><trkpt lat="43.735901027604164" lon="7.364097620214491"><ele>534.5</ele><time>2026-04-22T12:21:35Z</time></trkpt><trkpt lat="43.735989268111446" lon="7.3639506026250565"><ele>532.25</ele><time>2026-04-22T12:21:36Z</time></trkpt><trkpt lat="43.736064197188426" lon="7.363778454635328"><ele>530.0</ele><time>2026-04-22T12:21:37Z</time></trkpt><trkpt lat="43.73613780334554" lon="7.363595349752802"><ele>537.0</ele><time>2026-04-22T12:21:38Z</time></trkpt><trkpt lat="43.73620650250303" lon="7.363375430634497"><ele>544.0</ele><time>2026-04-22T12:21:39Z</time></trkpt><trkpt lat="43.73625511244353" lon="7.363143748240273"><ele>551.0</ele><time>2026-04-22T12:21:40Z</time></trkpt><trkpt lat="43.73629828223172" lon="7.362921851808593"><ele>551.0</ele><time>2026-04-22T12:21:41Z</time></trkpt><trkpt lat="43.736326777303155" lon="7.362716318188207"><ele>551.0</ele><time>2026-04-22T12:21:42Z</time></trkpt><trkpt lat="43.73636127896016" lon="7.3625118421664695"><ele>551.0</ele><time>2026-04-22T12:21:43Z</time></trkpt><trkpt lat="43.73636454921426" lon="7.362304736311132"><ele>551.3333333333333</ele><time>2026-04-22T12:21:44Z</time></trkpt><trkpt lat="43.73633419484713" lon="7.362088025072576"><ele>551.6666666666666</ele><time>2026-04-22T12:21:45Z</time></trkpt><trkpt lat="43.7362996905491" lon="7.361858124251107"><ele>552.0</ele><time>2026-04-22T12:21:46Z</time></trkpt><trkpt lat="43.736260761149985" lon="7.3616131443607"><ele>552.0</ele><time>2026-04-22T12:21:47Z</time></trkpt><trkpt lat="43.7362245646007" lon="7.361388908147126"><ele>552.0</ele><time>2026-04-22T12:21:48Z</time></trkpt><trkpt lat="43.73617933415402" lon="7.3611853656246975"><ele>552.0</ele><time>2026-04-22T12:21:49Z</time></trkpt><trkpt lat="43.73616271486465" lon="7.360997370466727"><ele>550.25</ele><time>2026-04-22T12:21:50Z</time></trkpt><trkpt lat="43.736162659669105" lon="7.3608248842450905"><ele>548.5</ele><time>2026-04-22T12:21:51Z</time></trkpt><trkpt lat="43.73618991781701" lon="7.3606559008658685"><ele>546.75</ele><time>2026-04-22T12:21:52Z</time></trkpt><trkpt lat="43.736246923202835" lon="7.360503693158952"><ele>545.0</ele><time>2026-04-22T12:21:53Z</time></trkpt><trkpt lat="43.73632851749996" lon="7.360377838685497"><ele>541.75</ele><time>2026-04-22T12:21:54Z</time></trkpt><trkpt lat="43.73644209761912" lon="7.360270455301038"><ele>538.5</ele><time>2026-04-22T12:21:55Z</time></trkpt><trkpt lat="43.73657860356529" lon="7.360181686098902"><ele>535.25</ele><time>2026-04-22T12:21:56Z</time></trkpt><trkpt lat="43.73671974061007" lon="7.360105154636494"><ele>532.0</ele><time>2026-04-22T12:21:57Z</time></trkpt><trkpt lat="43.736843213741224" lon="7.360016965684554"><ele>535.5</ele><time>2026-04-22T12:21:58Z</time></trkpt><trkpt lat="43.736942964709705" lon="7.35990448580528"><ele>539.0</ele><time>2026-04-22T12:21:59Z</time></trkpt><trkpt lat="43.737036234384476" lon="7.359777657315291"><ele>542.5</ele><time>2026-04-22T12:22:00Z</time></trkpt><trkpt lat="43.737118179787736" lon="7.3596298764388415"><ele>546.0</ele><time>2026-04-22T12:22:01Z</time></trkpt><trkpt lat="43.73718004186933" lon="7.359451717836612"><ele>546.0</ele><time>2026-04-22T12:22:02Z</time></trkpt><trkpt lat="43.737230915135555" lon="7.35926047032505"><ele>546.0</ele><time>2026-04-22T12:22:03Z</time></trkpt><trkpt lat="43.737277543166876" lon="7.3590660276451825"><ele>546.0</ele><time>2026-04-22T12:22:04Z</time></trkpt><trkpt lat="43.737312659536975" lon="7.3588735727227075"><ele>546.0</ele><time>2026-04-22T12:22:05Z</time></trkpt><trkpt lat="43.73733538027358" lon="7.358688916757084"><ele>545.5</ele><time>2026-04-22T12:22:06Z</time></trkpt><trkpt lat="43.737341169581676" lon="7.35849923578497"><ele>545.0</ele><time>2026-04-22T12:22:07Z</time></trkpt><trkpt lat="43.73731891907669" lon="7.3582989509665175"><ele>544.5</ele><time>2026-04-22T12:22:08Z</time></trkpt><trkpt lat="43.73730063696058" lon="7.3580959221226285"><ele>544.0</ele><time>2026-04-22T12:22:09Z</time></trkpt><trkpt lat="43.73727567107622" lon="7.3578864006632845"><ele>546.6666666666667</ele><time>2026-04-22T12:22:10Z</time></trkpt><trkpt lat="43.73723974328083" lon="7.357681308566894"><ele>549.3333333333334</ele><time>2026-04-22T12:22:11Z</time></trkpt><trkpt lat="43.73718297657762" lon="7.357473812112567"><ele>552.0</ele><time>2026-04-22T12:22:12Z</time></trkpt><trkpt lat="43.737099367714414" lon="7.357263707246726"><ele>556.3333333333334</ele><time>2026-04-22T12:22:13Z</time></trkpt><trkpt lat="43.73699685497019" lon="7.357055228396069"><ele>560.6666666666667</ele><time>2026-04-22T12:22:14Z</time></trkpt><trkpt lat="43.736900333066565" lon="7.356838907166741"><ele>565.0</ele><time>2026-04-22T12:22:15Z</time></trkpt><trkpt lat="43.73681290718786" lon="7.356636565873085"><ele>558.75</ele><time>2026-04-22T12:22:16Z</time></trkpt><trkpt lat="43.73672981657071" lon="7.356453416188915"><ele>552.5</ele><time>2026-04-22T12:22:17Z</time></trkpt><trkpt lat="43.73664583820019" lon="7.356295320763705"><ele>546.25</ele><time>2026-04-22T12:22:18Z</time></trkpt><trkpt lat="43.73655123747339" lon="7.35617061116827"><ele>540.0</ele><time>2026-04-22T12:22:19Z</time></trkpt><trkpt lat="43.73643987267951" lon="7.356076602836477"><ele>540.0</ele><time>2026-04-22T12:22:20Z</time></trkpt><trkpt lat="43.73635339645265" lon="7.35597460120433"><ele>540.0</ele><time>2026-04-22T12:22:21Z</time></trkpt><trkpt lat="43.736308559568926" lon="7.355855856307167"><ele>540.0</ele><time>2026-04-22T12:22:22Z</time></trkpt><trkpt lat="43.736298771097715" lon="7.355726326383681"><ele>540.0</ele><time>2026-04-22T12:22:23Z</time></trkpt><trkpt lat="43.736293432882064" lon="7.355548400857708"><ele>540.0</ele><time>2026-04-22T12:22:24Z</time></trkpt><trkpt lat="43.736311898667026" lon="7.355340792324196"><ele>539.3333333333334</ele><time>2026-04-22T12:22:25Z</time></trkpt><trkpt lat="43.73631815938374" lon="7.355109802562976"><ele>538.6666666666667</ele><time>2026-04-22T12:22:26Z</time></trkpt><trkpt lat="43.73632878590755" lon="7.354872701280923"><ele>538.0</ele><time>2026-04-22T12:22:26.999Z</time></trkpt><trkpt lat="43.73633519911042" lon="7.354661363060763"><ele>538.0</ele><time>2026-04-22T12:22:27.999Z</time></trkpt><trkpt lat="43.736346972671534" lon="7.354436641011443"><ele>538.0</ele><time>2026-04-22T12:22:28.999Z</time></trkpt><trkpt lat="43.73637487824254" lon="7.3542146944340985"><ele>538.0</ele><time>2026-04-22T12:22:29.999Z</time></trkpt><trkpt lat="43.736406293200446" lon="7.353987394153195"><ele>537.0</ele><time>2026-04-22T12:22:30.999Z</time></trkpt><trkpt lat="43.73644129414166" lon="7.353769307839152"><ele>536.0</ele><time>2026-04-22T12:22:31.999Z</time></trkpt><trkpt lat="43.73648089118532" lon="7.353543542818074"><ele>535.0</ele><time>2026-04-22T12:22:32.999Z</time></trkpt><trkpt lat="43.736521247171" lon="7.353307999142119"><ele>535.0</ele><time>2026-04-22T12:22:33.999Z</time></trkpt><trkpt lat="43.73656967742272" lon="7.353061065844578"><ele>535.0</ele><time>2026-04-22T12:22:34.999Z</time></trkpt><trkpt lat="43.73660851402678" lon="7.352823143395749"><ele>535.0</ele><time>2026-04-22T12:22:35.999Z</time></trkpt><trkpt lat="43.73664562492661" lon="7.352620443689912"><ele>531.75</ele><time>2026-04-22T12:22:36.999Z</time></trkpt><trkpt lat="43.736683026949635" lon="7.352421421490538"><ele>528.5</ele><time>2026-04-22T12:22:37.999Z</time></trkpt><trkpt lat="43.736719424941846" lon="7.352212024910612"><ele>525.25</ele><time>2026-04-22T12:22:38.999Z</time></trkpt><trkpt lat="43.73677007417899" lon="7.352025264475876"><ele>522.0</ele><time>2026-04-22T12:22:39.999Z</time></trkpt><trkpt lat="43.736796796324796" lon="7.351877784541481"><ele>521.2</ele><time>2026-04-22T12:22:40.999Z</time></trkpt><trkpt lat="43.73681983316086" lon="7.351750221375002"><ele>520.4000000000001</ele><time>2026-04-22T12:22:41.999Z</time></trkpt><trkpt lat="43.736844514746046" lon="7.351612167067699"><ele>519.5999999999999</ele><time>2026-04-22T12:22:42.999Z</time></trkpt><trkpt lat="43.736871158389526" lon="7.351465426871831"><ele>518.8</ele><time>2026-04-22T12:22:43.999Z</time></trkpt><trkpt lat="43.73688375611516" lon="7.351301627672779"><ele>518.0</ele><time>2026-04-22T12:22:44.999Z</time></trkpt><trkpt lat="43.73691377872623" lon="7.351140956588319"><ele>521.1999999999999</ele><time>2026-04-22T12:22:45.999Z</time></trkpt><trkpt lat="43.73694010243953" lon="7.350988328255001"><ele>524.4</ele><time>2026-04-22T12:22:46.999Z</time></trkpt><trkpt lat="43.736946353093536" lon="7.350844288080946"><ele>527.5999999999999</ele><time>2026-04-22T12:22:47.999Z</time></trkpt><trkpt lat="43.73692022110199" lon="7.35071959528668"><ele>530.8</ele><time>2026-04-22T12:22:48.999Z</time></trkpt><trkpt lat="43.7368965699832" lon="7.350599068876659"><ele>534.0</ele><time>2026-04-22T12:22:49.999Z</time></trkpt><trkpt lat="43.73678074110074" lon="7.350534075438708"><ele>534.0</ele><time>2026-04-22T12:22:50.999Z</time></trkpt><trkpt lat="43.73667805886945" lon="7.350477669154573"><ele>534.0</ele><time>2026-04-22T12:22:51.999Z</time></trkpt><trkpt lat="43.736560296720384" lon="7.350439894719293"><ele>534.0</ele><time>2026-04-22T12:22:52.999Z</time></trkpt><trkpt lat="43.73643172895495" lon="7.350416277713249"><ele>534.0</ele><time>2026-04-22T12:22:53.999Z</time></trkpt><trkpt lat="43.736298810610165" lon="7.350365179273994"><ele>534.0</ele><time>2026-04-22T12:22:54.999Z</time></trkpt><trkpt lat="43.7361701416677" lon="7.350328778033376"><ele>534.0</ele><time>2026-04-22T12:22:55.999Z</time></trkpt><trkpt lat="43.736043554556254" lon="7.350294652118477"><ele>534.0</ele><time>2026-04-22T12:22:56.999Z</time></trkpt><trkpt lat="43.73592658071611" lon="7.35026337544342"><ele>534.0</ele><time>2026-04-22T12:22:57.999Z</time></trkpt><trkpt lat="43.73582579194297" lon="7.350223555906325"><ele>531.2</ele><time>2026-04-22T12:22:58.999Z</time></trkpt><trkpt lat="43.73574301395019" lon="7.350165618319894"><ele>528.4</ele><time>2026-04-22T12:22:59.999Z</time></trkpt><trkpt lat="43.735673368081464" lon="7.350088368293172"><ele>525.6</ele><time>2026-04-22T12:23:00.999Z</time></trkpt><trkpt lat="43.735625560344594" lon="7.349971637236091"><ele>522.8</ele><time>2026-04-22T12:23:01.999Z</time></trkpt><trkpt lat="43.73556465410471" lon="7.349851056053688"><ele>520.0</ele><time>2026-04-22T12:23:02.999Z</time></trkpt><trkpt lat="43.73550172851726" lon="7.349728785941777"><ele>519.0</ele><time>2026-04-22T12:23:03.999Z</time></trkpt><trkpt lat="43.735440117203595" lon="7.349610977656173"><ele>518.0</ele><time>2026-04-22T12:23:04.999Z</time></trkpt><trkpt lat="43.73537569341521" lon="7.349494169558259"><ele>517.0</ele><time>2026-04-22T12:23:05.999Z</time></trkpt><trkpt lat="43.7353046997364" lon="7.349381841140818"><ele>516.0</ele><time>2026-04-22T12:23:06.999Z</time></trkpt><trkpt lat="43.73522055295947" lon="7.349272088117842"><ele>515.0</ele><time>2026-04-22T12:23:07.999Z</time></trkpt><trkpt lat="43.735118755553394" lon="7.349169129726653"><ele>515.0</ele><time>2026-04-22T12:23:08.999Z</time></trkpt><trkpt lat="43.73500498693234" lon="7.349090349759094"><ele>515.0</ele><time>2026-04-22T12:23:09.999Z</time></trkpt><trkpt lat="43.734906335325995" lon="7.349018308754831"><ele>515.0</ele><time>2026-04-22T12:23:10.999Z</time></trkpt><trkpt lat="43.73482157950347" lon="7.348945525825196"><ele>515.0</ele><time>2026-04-22T12:23:11.999Z</time></trkpt><trkpt lat="43.73476172237299" lon="7.348856870435551"><ele>515.0</ele><time>2026-04-22T12:23:12.999Z</time></trkpt><trkpt lat="43.73472734541713" lon="7.34873389905079"><ele>519.75</ele><time>2026-04-22T12:23:13.999Z</time></trkpt><trkpt lat="43.73468162620102" lon="7.348589054593066"><ele>524.5</ele><time>2026-04-22T12:23:14.999Z</time></trkpt><trkpt lat="43.73463012119744" lon="7.348423420962953"><ele>529.25</ele><time>2026-04-22T12:23:15.999Z</time></trkpt><trkpt lat="43.73456394426753" lon="7.3482538277347915"><ele>534.0</ele><time>2026-04-22T12:23:16.999Z</time></trkpt><trkpt lat="43.73450526039379" lon="7.348067433917692"><ele>534.5</ele><time>2026-04-22T12:23:17.999Z</time></trkpt><trkpt lat="43.73445228335351" lon="7.347897574744657"><ele>535.0</ele><time>2026-04-22T12:23:18.999Z</time></trkpt><trkpt lat="43.73440248674169" lon="7.347733351509021"><ele>535.5</ele><time>2026-04-22T12:23:19.999Z</time></trkpt><trkpt lat="43.73435034100105" lon="7.347574202767812"><ele>536.0</ele><time>2026-04-22T12:23:20.999Z</time></trkpt><trkpt lat="43.73430247427249" lon="7.3474193354171495"><ele>530.8</ele><time>2026-04-22T12:23:21.999Z</time></trkpt><trkpt lat="43.7342533062837" lon="7.347269210609064"><ele>525.6</ele><time>2026-04-22T12:23:22.999Z</time></trkpt><trkpt lat="43.73421000197225" lon="7.347134719596021"><ele>520.4</ele><time>2026-04-22T12:23:23.999Z</time></trkpt><trkpt lat="43.734170972880584" lon="7.347012613481716"><ele>515.2</ele><time>2026-04-22T12:23:24.999Z</time></trkpt><trkpt lat="43.734133535408546" lon="7.346900770740643"><ele>510.0</ele><time>2026-04-22T12:23:25.999Z</time></trkpt><trkpt lat="43.73410331637709" lon="7.346810660273263"><ele>510.0</ele><time>2026-04-22T12:23:26.999Z</time></trkpt><trkpt lat="43.734078426206715" lon="7.346723398061648"><ele>510.0</ele><time>2026-04-22T12:23:27.999Z</time></trkpt><trkpt lat="43.73405496749053" lon="7.3466414683854"><ele>510.0</ele><time>2026-04-22T12:23:28.999Z</time></trkpt><trkpt lat="43.734010694309305" lon="7.346486602678207"><ele>510.0</ele><time>2026-04-22T12:23:30.999Z</time></trkpt><trkpt lat="43.73397737491953" lon="7.346366698131751"><ele>510.0</ele><time>2026-04-22T12:23:33Z</time></trkpt><trkpt lat="43.73395048530676" lon="7.346285454669659"><ele>510.0</ele><time>2026-04-22T12:23:35Z</time></trkpt><trkpt lat="43.733919441784735" lon="7.3461821777027145"><ele>508.3333333333333</ele><time>2026-04-22T12:23:49Z</time></trkpt><trkpt lat="43.73386610707429" lon="7.346046244114091"><ele>506.66666666666663</ele><time>2026-04-22T12:23:51Z</time></trkpt><trkpt lat="43.733822830124275" lon="7.34596016122862"><ele>505.0</ele><time>2026-04-22T12:23:52Z</time></trkpt><trkpt lat="43.733767316979865" lon="7.34588167387165"><ele>503.3333333333333</ele><time>2026-04-22T12:23:53Z</time></trkpt><trkpt lat="43.73370768188839" lon="7.345819533539613"><ele>501.66666666666663</ele><time>2026-04-22T12:23:54Z</time></trkpt><trkpt lat="43.733634445202824" lon="7.345769593482498"><ele>500.0</ele><time>2026-04-22T12:23:55Z</time></trkpt><trkpt lat="43.73355796805148" lon="7.345740462842928"><ele>500.4</ele><time>2026-04-22T12:23:56Z</time></trkpt><trkpt lat="43.73347211601753" lon="7.345742052821243"><ele>500.8</ele><time>2026-04-22T12:23:57Z</time></trkpt><trkpt lat="43.73338423358172" lon="7.345764806382703"><ele>501.20000000000005</ele><time>2026-04-22T12:23:58Z</time></trkpt><trkpt lat="43.73330387233493" lon="7.345810059591073"><ele>501.6</ele><time>2026-04-22T12:23:59Z</time></trkpt><trkpt lat="43.733218116572054" lon="7.345863943457265"><ele>502.0</ele><time>2026-04-22T12:24:00Z</time></trkpt><trkpt lat="43.73313332782137" lon="7.345925319931338"><ele>502.0</ele><time>2026-04-22T12:24:01Z</time></trkpt><trkpt lat="43.73304442580166" lon="7.345992832997963"><ele>502.00000000000006</ele><time>2026-04-22T12:24:02Z</time></trkpt><trkpt lat="43.73295745094131" lon="7.346055065379712"><ele>502.00000000000006</ele><time>2026-04-22T12:24:03Z</time></trkpt><trkpt lat="43.73287358483464" lon="7.346117441293695"><ele>502.0</ele><time>2026-04-22T12:24:04Z</time></trkpt><trkpt lat="43.73279136028699" lon="7.3461763488302925"><ele>502.0</ele><time>2026-04-22T12:24:05Z</time></trkpt><trkpt lat="43.73270594355976" lon="7.34622488881192"><ele>501.50000000000006</ele><time>2026-04-22T12:24:06Z</time></trkpt><trkpt lat="43.73261748304124" lon="7.3462518458431685"><ele>501.0</ele><time>2026-04-22T12:24:07Z</time></trkpt><trkpt lat="43.7325330109647" lon="7.346248887779958"><ele>500.5</ele><time>2026-04-22T12:24:08Z</time></trkpt><trkpt lat="43.73245785191122" lon="7.346200344309625"><ele>500.0</ele><time>2026-04-22T12:24:09Z</time></trkpt><trkpt lat="43.732405525636906" lon="7.34612174432061"><ele>499.50000000000006</ele><time>2026-04-22T12:24:10Z</time></trkpt><trkpt lat="43.73236753524111" lon="7.34600580787169"><ele>499.0</ele><time>2026-04-22T12:24:11Z</time></trkpt><trkpt lat="43.73233909328864" lon="7.345859029226212"><ele>499.0</ele><time>2026-04-22T12:24:12Z</time></trkpt><trkpt lat="43.7323077983793" lon="7.345707201541107"><ele>499.0</ele><time>2026-04-22T12:24:13Z</time></trkpt><trkpt lat="43.732267305317194" lon="7.3455443608793285"><ele>499.0</ele><time>2026-04-22T12:24:14Z</time></trkpt><trkpt lat="43.73224171337212" lon="7.345368139205612"><ele>499.0</ele><time>2026-04-22T12:24:15Z</time></trkpt><trkpt lat="43.73221202020332" lon="7.345180800274472"><ele>496.0</ele><time>2026-04-22T12:24:16Z</time></trkpt><trkpt lat="43.73218353889157" lon="7.344972265967866"><ele>493.0</ele><time>2026-04-22T12:24:17Z</time></trkpt><trkpt lat="43.73215630778324" lon="7.344756120293719"><ele>490.0</ele><time>2026-04-22T12:24:18Z</time></trkpt><trkpt lat="43.732149225946515" lon="7.3445404947422"><ele>488.33333333333337</ele><time>2026-04-22T12:24:19Z</time></trkpt><trkpt lat="43.73216674232648" lon="7.344318034963744"><ele>486.66666666666663</ele><time>2026-04-22T12:24:20Z</time></trkpt><trkpt lat="43.73220172727331" lon="7.34409136324642"><ele>485.0</ele><time>2026-04-22T12:24:21Z</time></trkpt><trkpt lat="43.73224449813499" lon="7.343889214361592"><ele>484.8</ele><time>2026-04-22T12:24:22Z</time></trkpt><trkpt lat="43.73226974264161" lon="7.343714371180742"><ele>484.6</ele><time>2026-04-22T12:24:23Z</time></trkpt><trkpt lat="43.73227779384004" lon="7.3435546099510445"><ele>484.4</ele><time>2026-04-22T12:24:24Z</time></trkpt><trkpt lat="43.73227282458606" lon="7.3434188732889645"><ele>484.2</ele><time>2026-04-22T12:24:25Z</time></trkpt><trkpt lat="43.73225584612004" lon="7.343288153347912"><ele>484.0</ele><time>2026-04-22T12:24:26Z</time></trkpt><trkpt lat="43.73221107184166" lon="7.343162552712214"><ele>482.0</ele><time>2026-04-22T12:24:27Z</time></trkpt><trkpt lat="43.732132875611725" lon="7.3430394418617"><ele>480.0</ele><time>2026-04-22T12:24:28Z</time></trkpt><trkpt lat="43.73205138697245" lon="7.342917919948467"><ele>478.0</ele><time>2026-04-22T12:24:29Z</time></trkpt><trkpt lat="43.73197059155355" lon="7.342801567161369"><ele>476.0</ele><time>2026-04-22T12:24:30Z</time></trkpt><trkpt lat="43.73190781816605" lon="7.342702066228187"><ele>479.3333333333333</ele><time>2026-04-22T12:24:30.999Z</time></trkpt><trkpt lat="43.73185587114748" lon="7.3426067379481506"><ele>482.66666666666663</ele><time>2026-04-22T12:24:32.999Z</time></trkpt><trkpt lat="43.731799154052226" lon="7.342539187641518"><ele>486.0</ele><time>2026-04-22T12:26:13Z</time></trkpt><trkpt lat="43.731751736454676" lon="7.3424605802873755"><ele>489.33333333333337</ele><time>2026-04-22T12:26:16Z</time></trkpt><trkpt lat="43.7316965473666" lon="7.342373402429154"><ele>492.6666666666667</ele><time>2026-04-22T12:26:18Z</time></trkpt><trkpt lat="43.73165180275513" lon="7.342307032288741"><ele>496.0</ele><time>2026-04-22T12:26:19Z</time></trkpt><trkpt lat="43.731594497962774" lon="7.342222963619647"><ele>495.50000000000006</ele><time>2026-04-22T12:26:20Z</time></trkpt><trkpt lat="43.73152810439874" lon="7.342125564100345"><ele>495.0</ele><time>2026-04-22T12:26:21Z</time></trkpt><trkpt lat="43.73146756626651" lon="7.342037467955731"><ele>494.5</ele><time>2026-04-22T12:26:22Z</time></trkpt><trkpt lat="43.7314096329919" lon="7.341947771291622"><ele>494.0</ele><time>2026-04-22T12:26:23Z</time></trkpt><trkpt lat="43.73136028534682" lon="7.341865500206472"><ele>493.50000000000006</ele><time>2026-04-22T12:26:24Z</time></trkpt><trkpt lat="43.73130490518714" lon="7.341777864863223"><ele>493.0</ele><time>2026-04-22T12:26:25Z</time></trkpt><trkpt lat="43.73125284960016" lon="7.341684946161269"><ele>493.00000000000006</ele><time>2026-04-22T12:26:26Z</time></trkpt><trkpt lat="43.73116785089076" lon="7.341637968581631"><ele>493.0</ele><time>2026-04-22T12:26:27Z</time></trkpt><trkpt lat="43.731092128702436" lon="7.3415934761193755"><ele>493.0</ele><time>2026-04-22T12:26:28Z</time></trkpt><trkpt lat="43.73101251231207" lon="7.341571159263148"><ele>493.0</ele><time>2026-04-22T12:26:29Z</time></trkpt><trkpt lat="43.73093015881718" lon="7.34157664552362"><ele>493.00000000000006</ele><time>2026-04-22T12:26:29.999Z</time></trkpt><trkpt lat="43.730850524667886" lon="7.34159532461695"><ele>493.0</ele><time>2026-04-22T12:26:30.999Z</time></trkpt><trkpt lat="43.730774693366854" lon="7.341637768433641"><ele>495.25</ele><time>2026-04-22T12:26:31.999Z</time></trkpt><trkpt lat="43.73069273436356" lon="7.341717548242035"><ele>497.5</ele><time>2026-04-22T12:26:32.999Z</time></trkpt><trkpt lat="43.73061083834513" lon="7.3418302103913256"><ele>499.75</ele><time>2026-04-22T12:26:33.999Z</time></trkpt><trkpt lat="43.73053030069111" lon="7.3419859969540555"><ele>502.0</ele><time>2026-04-22T12:26:34.999Z</time></trkpt><trkpt lat="43.730448970479166" lon="7.3421730109472225"><ele>502.25</ele><time>2026-04-22T12:26:35.999Z</time></trkpt><trkpt lat="43.73038170080916" lon="7.342316595518276"><ele>502.5</ele><time>2026-04-22T12:26:36.999Z</time></trkpt><trkpt lat="43.73029260277804" lon="7.342430634597641"><ele>502.75</ele><time>2026-04-22T12:26:37.999Z</time></trkpt><trkpt lat="43.73019653703856" lon="7.3425269551897525"><ele>503.0</ele><time>2026-04-22T12:26:38.999Z</time></trkpt><trkpt lat="43.73008613365178" lon="7.342626375612063"><ele>503.0</ele><time>2026-04-22T12:26:39.999Z</time></trkpt><trkpt lat="43.72997280758546" lon="7.342709690025412"><ele>503.0</ele><time>2026-04-22T12:26:40.999Z</time></trkpt><trkpt lat="43.729861557205986" lon="7.342783978788646"><ele>503.0</ele><time>2026-04-22T12:26:41.999Z</time></trkpt><trkpt lat="43.72974779841688" lon="7.342837618503303"><ele>503.0</ele><time>2026-04-22T12:26:42.999Z</time></trkpt><trkpt lat="43.72963277250003" lon="7.34286215970789"><ele>503.0</ele><time>2026-04-22T12:26:43.999Z</time></trkpt><trkpt lat="43.7294850716379" lon="7.342880225070777"><ele>503.0</ele><time>2026-04-22T12:26:44.999Z</time></trkpt><trkpt lat="43.72932588477272" lon="7.342899597024689"><ele>503.0</ele><time>2026-04-22T12:26:45.999Z</time></trkpt><trkpt lat="43.72916692816614" lon="7.342943745624796"><ele>498.66666666666663</ele><time>2026-04-22T12:26:46.999Z</time></trkpt><trkpt lat="43.72902268294794" lon="7.342969085031704"><ele>494.33333333333337</ele><time>2026-04-22T12:26:47.999Z</time></trkpt><trkpt lat="43.72887733366825" lon="7.34304548663553"><ele>490.0</ele><time>2026-04-22T12:26:48.999Z</time></trkpt><trkpt lat="43.72873694395296" lon="7.34313923726395"><ele>490.0</ele><time>2026-04-22T12:26:49.999Z</time></trkpt><trkpt lat="43.72859832255552" lon="7.343238880227"><ele>490.0</ele><time>2026-04-22T12:26:50.999Z</time></trkpt><trkpt lat="43.72846526830022" lon="7.343307868194815"><ele>490.0</ele><time>2026-04-22T12:26:51.999Z</time></trkpt><trkpt lat="43.728354082123026" lon="7.343409139092833"><ele>490.0</ele><time>2026-04-22T12:26:52.999Z</time></trkpt><trkpt lat="43.72822722513223" lon="7.343490600897195"><ele>494.0</ele><time>2026-04-22T12:26:53.999Z</time></trkpt><trkpt lat="43.72809268574635" lon="7.3435312186406945"><ele>498.0</ele><time>2026-04-22T12:26:54.999Z</time></trkpt><trkpt lat="43.72795362502134" lon="7.343581448172038"><ele>502.0</ele><time>2026-04-22T12:26:55.999Z</time></trkpt><trkpt lat="43.72781334496804" lon="7.343617845446151"><ele>506.0</ele><time>2026-04-22T12:26:56.999Z</time></trkpt><trkpt lat="43.727673056772005" lon="7.343632155559624"><ele>509.25</ele><time>2026-04-22T12:26:57.999Z</time></trkpt><trkpt lat="43.72752701653741" lon="7.343632870248357"><ele>512.5</ele><time>2026-04-22T12:26:58.999Z</time></trkpt><trkpt lat="43.72738244557548" lon="7.343628203625229"><ele>515.75</ele><time>2026-04-22T12:26:59.999Z</time></trkpt><trkpt lat="43.72724119604128" lon="7.343622976647304"><ele>519.0</ele><time>2026-04-22T12:27:00.999Z</time></trkpt><trkpt lat="43.72711546374092" lon="7.343618718571611"><ele>519.0</ele><time>2026-04-22T12:27:01.999Z</time></trkpt><trkpt lat="43.72699809657373" lon="7.343616508730858"><ele>519.0</ele><time>2026-04-22T12:27:02.999Z</time></trkpt><trkpt lat="43.72688916756226" lon="7.343636050689812"><ele>519.0</ele><time>2026-04-22T12:27:03.999Z</time></trkpt><trkpt lat="43.72678132030586" lon="7.343636324062888"><ele>519.0</ele><time>2026-04-22T12:27:04.999Z</time></trkpt><trkpt lat="43.72666260838856" lon="7.343618902462538"><ele>517.8</ele><time>2026-04-22T12:27:05.999Z</time></trkpt><trkpt lat="43.72653654335759" lon="7.343622487873982"><ele>516.5999999999999</ele><time>2026-04-22T12:27:06.999Z</time></trkpt><trkpt lat="43.72642877989666" lon="7.343640653925319"><ele>515.4</ele><time>2026-04-22T12:27:07.999Z</time></trkpt><trkpt lat="43.726337486633696" lon="7.343626326795964"><ele>514.1999999999999</ele><time>2026-04-22T12:27:08.999Z</time></trkpt><trkpt lat="43.72626576002103" lon="7.343572500445509"><ele>513.0</ele><time>2026-04-22T12:27:09.999Z</time></trkpt><trkpt lat="43.72621389788629" lon="7.343472767718976"><ele>513.0</ele><time>2026-04-22T12:27:10.999Z</time></trkpt><trkpt lat="43.72619623974496" lon="7.343330679815401"><ele>513.0</ele><time>2026-04-22T12:27:11.999Z</time></trkpt><trkpt lat="43.72616637496973" lon="7.343165855175013"><ele>513.0</ele><time>2026-04-22T12:27:12.999Z</time></trkpt><trkpt lat="43.726127520524436" lon="7.342996505115943"><ele>513.0</ele><time>2026-04-22T12:27:13.999Z</time></trkpt><trkpt lat="43.72610470617604" lon="7.342844462305617"><ele>513.0</ele><time>2026-04-22T12:27:14.999Z</time></trkpt><trkpt lat="43.72609061998124" lon="7.3427078561019625"><ele>513.0</ele><time>2026-04-22T12:27:15.999Z</time></trkpt><trkpt lat="43.726093993340605" lon="7.342583679266436"><ele>513.0</ele><time>2026-04-22T12:27:16.999Z</time></trkpt><trkpt lat="43.72612008682748" lon="7.342464392898846"><ele>513.0</ele><time>2026-04-22T12:27:17.999Z</time></trkpt><trkpt lat="43.72615681780455" lon="7.342355988987785"><ele>513.0</ele><time>2026-04-22T12:27:18.999Z</time></trkpt><trkpt lat="43.726202505888836" lon="7.34226488559257"><ele>513.0</ele><time>2026-04-22T12:27:19.999Z</time></trkpt><trkpt lat="43.72623098630965" lon="7.342180326716793"><ele>513.0</ele><time>2026-04-22T12:27:20.999Z</time></trkpt><trkpt lat="43.72626500217678" lon="7.342081665405571"><ele>513.0</ele><time>2026-04-22T12:27:22.999Z</time></trkpt><trkpt lat="43.7263001209246" lon="7.341981350348464"><ele>513.0</ele><time>2026-04-22T12:29:01.999Z</time></trkpt><trkpt lat="43.72633664112803" lon="7.341875344507901"><ele>513.0</ele><time>2026-04-22T12:29:02.999Z</time></trkpt><trkpt lat="43.726382108424204" lon="7.341742014832839"><ele>513.0</ele><time>2026-04-22T12:29:03.999Z</time></trkpt><trkpt lat="43.72641922225064" lon="7.341605281275966"><ele>513.0</ele><time>2026-04-22T12:29:04.999Z</time></trkpt><trkpt lat="43.72647758307108" lon="7.3414382317899936"><ele>513.0</ele><time>2026-04-22T12:29:05.999Z</time></trkpt><trkpt lat="43.72653808067881" lon="7.341248635490062"><ele>513.0</ele><time>2026-04-22T12:29:06.999Z</time></trkpt><trkpt lat="43.7265981888887" lon="7.341078938183506"><ele>513.0</ele><time>2026-04-22T12:29:07.999Z</time></trkpt><trkpt lat="43.7266573457144" lon="7.340914023192974"><ele>510.25</ele><time>2026-04-22T12:29:08.999Z</time></trkpt><trkpt lat="43.72671536424992" lon="7.3407438032987224"><ele>507.5</ele><time>2026-04-22T12:29:09.999Z</time></trkpt><trkpt lat="43.72677150411412" lon="7.340571070742623"><ele>504.75</ele><time>2026-04-22T12:29:10.999Z</time></trkpt><trkpt lat="43.72683072655188" lon="7.340400313139892"><ele>502.0</ele><time>2026-04-22T12:29:11.999Z</time></trkpt><trkpt lat="43.72688757972979" lon="7.340239976855069"><ele>505.0</ele><time>2026-04-22T12:29:12.999Z</time></trkpt><trkpt lat="43.726938094664526" lon="7.340088817098754"><ele>508.00000000000006</ele><time>2026-04-22T12:29:13.999Z</time></trkpt><trkpt lat="43.726985663569295" lon="7.339951116335"><ele>511.00000000000006</ele><time>2026-04-22T12:29:14.999Z</time></trkpt><trkpt lat="43.72701949021508" lon="7.339815976510623"><ele>514.0</ele><time>2026-04-22T12:29:15.999Z</time></trkpt><trkpt lat="43.727025894352195" lon="7.339683368784971"><ele>517.0</ele><time>2026-04-22T12:29:16.999Z</time></trkpt><trkpt lat="43.72702836753408" lon="7.339556309349868"><ele>517.0</ele><time>2026-04-22T12:29:17.999Z</time></trkpt><trkpt lat="43.72695195013356" lon="7.339452583798715"><ele>517.0</ele><time>2026-04-22T12:29:18.999Z</time></trkpt><trkpt lat="43.726891784557566" lon="7.339340728488992"><ele>517.0</ele><time>2026-04-22T12:29:19.999Z</time></trkpt><trkpt lat="43.72677653236065" lon="7.3393140437247855"><ele>517.0</ele><time>2026-04-22T12:29:20.999Z</time></trkpt><trkpt lat="43.72667340735473" lon="7.339291011250449"><ele>517.0</ele><time>2026-04-22T12:29:21.999Z</time></trkpt><trkpt lat="43.72657600621858" lon="7.3392555761897"><ele>516.8000000000001</ele><time>2026-04-22T12:29:22.999Z</time></trkpt><trkpt lat="43.72649452760899" lon="7.339180614075783"><ele>516.6</ele><time>2026-04-22T12:29:23.999Z</time></trkpt><trkpt lat="43.72641927545013" lon="7.3390769975568135"><ele>516.4000000000001</ele><time>2026-04-22T12:29:24.999Z</time></trkpt><trkpt lat="43.72636900981788" lon="7.338933024280957"><ele>516.2</ele><time>2026-04-22T12:29:25.999Z</time></trkpt><trkpt lat="43.72635532356505" lon="7.3387854433833395"><ele>516.0</ele><time>2026-04-22T12:29:26.999Z</time></trkpt><trkpt lat="43.72633109108644" lon="7.338594560695223"><ele>516.0</ele><time>2026-04-22T12:29:27.999Z</time></trkpt><trkpt lat="43.72630576390863" lon="7.33838940624207"><ele>516.0</ele><time>2026-04-22T12:29:28.999Z</time></trkpt><trkpt lat="43.72628011177366" lon="7.338175664780647"><ele>516.0</ele><time>2026-04-22T12:29:29.999Z</time></trkpt><trkpt lat="43.72624720005019" lon="7.3379510150854905"><ele>518.3333333333334</ele><time>2026-04-22T12:29:30.999Z</time></trkpt><trkpt lat="43.72618081129253" lon="7.3377400754710616"><ele>520.6666666666667</ele><time>2026-04-22T12:29:31.999Z</time></trkpt><trkpt lat="43.72612431411898" lon="7.337509324092187"><ele>523.0</ele><time>2026-04-22T12:29:32.999Z</time></trkpt><trkpt lat="43.72605440631321" lon="7.3372739258308854"><ele>514.6666666666667</ele><time>2026-04-22T12:29:33.999Z</time></trkpt><trkpt lat="43.72598623052591" lon="7.337052498542572"><ele>506.33333333333337</ele><time>2026-04-22T12:29:34.999Z</time></trkpt><trkpt lat="43.72592763105516" lon="7.336853595421392"><ele>498.0</ele><time>2026-04-22T12:29:35.998Z</time></trkpt><trkpt lat="43.725863822237216" lon="7.336666920195608"><ele>498.0</ele><time>2026-04-22T12:29:36.998Z</time></trkpt><trkpt lat="43.725783402576724" lon="7.336496072641645"><ele>498.0</ele><time>2026-04-22T12:29:37.998Z</time></trkpt><trkpt lat="43.72572142121774" lon="7.336319988507836"><ele>498.0</ele><time>2026-04-22T12:29:38.998Z</time></trkpt><trkpt lat="43.72565211399583" lon="7.336161416652157"><ele>498.0</ele><time>2026-04-22T12:29:39.998Z</time></trkpt><trkpt lat="43.72558524713481" lon="7.336013001718745"><ele>499.5</ele><time>2026-04-22T12:29:40.998Z</time></trkpt><trkpt lat="43.72551785259849" lon="7.335897891751879"><ele>501.0</ele><time>2026-04-22T12:29:41.998Z</time></trkpt><trkpt lat="43.725459101265336" lon="7.33582702741452"><ele>502.5</ele><time>2026-04-22T12:29:42.998Z</time></trkpt><trkpt lat="43.72538612707123" lon="7.335797740097441"><ele>504.0</ele><time>2026-04-22T12:29:43.998Z</time></trkpt><trkpt lat="43.7253017890792" lon="7.335822337020248"><ele>505.5</ele><time>2026-04-22T12:29:44.998Z</time></trkpt><trkpt lat="43.72523067055287" lon="7.335886453606539"><ele>507.0</ele><time>2026-04-22T12:29:45.998Z</time></trkpt><trkpt lat="43.725162108634564" lon="7.335987219010402"><ele>507.0</ele><time>2026-04-22T12:29:46.998Z</time></trkpt><trkpt lat="43.72509870679038" lon="7.336126610370868"><ele>507.0</ele><time>2026-04-22T12:29:47.998Z</time></trkpt><trkpt lat="43.72503691480215" lon="7.336292215654537"><ele>507.0</ele><time>2026-04-22T12:29:48.998Z</time></trkpt><trkpt lat="43.724953799018884" lon="7.336495515327097"><ele>507.0</ele><time>2026-04-22T12:29:49.998Z</time></trkpt><trkpt lat="43.72486545309598" lon="7.336632848653965"><ele>502.75</ele><time>2026-04-22T12:29:51Z</time></trkpt><trkpt lat="43.724786263668776" lon="7.336759681984625"><ele>498.5</ele><time>2026-04-22T12:29:52Z</time></trkpt><trkpt lat="43.7247157889832" lon="7.336887320145056"><ele>494.25</ele><time>2026-04-22T12:29:53Z</time></trkpt><trkpt lat="43.72461873088164" lon="7.336975066542941"><ele>490.0</ele><time>2026-04-22T12:29:54Z</time></trkpt><trkpt lat="43.72451044370254" lon="7.336996929266065"><ele>490.0</ele><time>2026-04-22T12:29:55Z</time></trkpt><trkpt lat="43.724410959941" lon="7.33699470438234"><ele>490.0</ele><time>2026-04-22T12:29:56Z</time></trkpt><trkpt lat="43.72432615194644" lon="7.33692524385587"><ele>490.0</ele><time>2026-04-22T12:29:57Z</time></trkpt><trkpt lat="43.72422309037803" lon="7.336846316056878"><ele>490.0</ele><time>2026-04-22T12:29:58Z</time></trkpt><trkpt lat="43.724105348122734" lon="7.336752264611714"><ele>493.0</ele><time>2026-04-22T12:29:59Z</time></trkpt><trkpt lat="43.723970756679655" lon="7.336669320678696"><ele>496.0</ele><time>2026-04-22T12:30:00Z</time></trkpt><trkpt lat="43.723830561508905" lon="7.336561355840198"><ele>499.0</ele><time>2026-04-22T12:30:01Z</time></trkpt><trkpt lat="43.72369256701859" lon="7.336429108360796"><ele>497.0</ele><time>2026-04-22T12:30:02Z</time></trkpt><trkpt lat="43.723552513440005" lon="7.336318944463482"><ele>495.0</ele><time>2026-04-22T12:30:03Z</time></trkpt><trkpt lat="43.723426184006655" lon="7.33622058052448"><ele>493.0</ele><time>2026-04-22T12:30:04Z</time></trkpt><trkpt lat="43.72332787810781" lon="7.336143475946054"><ele>491.0</ele><time>2026-04-22T12:30:05Z</time></trkpt><trkpt lat="43.72326969946147" lon="7.336046326933924"><ele>491.0</ele><time>2026-04-22T12:30:06Z</time></trkpt><trkpt lat="43.72323419588553" lon="7.3359174371451665"><ele>491.0</ele><time>2026-04-22T12:30:07Z</time></trkpt><trkpt lat="43.72318700000011" lon="7.335770754982545"><ele>491.0</ele><time>2026-04-22T12:30:08Z</time></trkpt><trkpt lat="43.72312693611239" lon="7.335612324469491"><ele>491.0</ele><time>2026-04-22T12:30:09Z</time></trkpt><trkpt lat="43.72307256700052" lon="7.335434668511797"><ele>493.3333333333333</ele><time>2026-04-22T12:30:10Z</time></trkpt><trkpt lat="43.723014537983595" lon="7.33524470537818"><ele>495.66666666666663</ele><time>2026-04-22T12:30:11Z</time></trkpt><trkpt lat="43.72295488877085" lon="7.335044735029023"><ele>498.0</ele><time>2026-04-22T12:30:12Z</time></trkpt><trkpt lat="43.722899693959945" lon="7.3348532038712975"><ele>499.0</ele><time>2026-04-22T12:30:13Z</time></trkpt><trkpt lat="43.722844729657766" lon="7.334671672471214"><ele>500.0</ele><time>2026-04-22T12:30:14Z</time></trkpt><trkpt lat="43.72279035342104" lon="7.334504787808261"><ele>501.0</ele><time>2026-04-22T12:30:15Z</time></trkpt><trkpt lat="43.72274855268988" lon="7.334372875662743"><ele>502.0</ele><time>2026-04-22T12:30:16Z</time></trkpt><trkpt lat="43.722702821574785" lon="7.334250922691952"><ele>497.8</ele><time>2026-04-22T12:30:17Z</time></trkpt><trkpt lat="43.72263732458735" lon="7.334153844227094"><ele>493.6</ele><time>2026-04-22T12:30:18Z</time></trkpt><trkpt lat="43.722552157916034" lon="7.334095102044133"><ele>489.40000000000003</ele><time>2026-04-22T12:30:19Z</time></trkpt><trkpt lat="43.72246179459918" lon="7.33407213147822"><ele>485.20000000000005</ele><time>2026-04-22T12:30:20Z</time></trkpt><trkpt lat="43.722372911844325" lon="7.334108341297521"><ele>481.0</ele><time>2026-04-22T12:30:21Z</time></trkpt><trkpt lat="43.72228846054069" lon="7.334182575226918"><ele>481.0</ele><time>2026-04-22T12:30:22Z</time></trkpt><trkpt lat="43.7222035753896" lon="7.334289490860839"><ele>481.0</ele><time>2026-04-22T12:30:23Z</time></trkpt><trkpt lat="43.722116993831186" lon="7.334405207439925"><ele>481.0</ele><time>2026-04-22T12:30:23.999Z</time></trkpt><trkpt lat="43.72202257484029" lon="7.334496207808448"><ele>481.0</ele><time>2026-04-22T12:30:24.999Z</time></trkpt><trkpt lat="43.72192269005115" lon="7.334561076111539"><ele>478.8</ele><time>2026-04-22T12:30:25.999Z</time></trkpt><trkpt lat="43.72181707981897" lon="7.3345653553068635"><ele>476.6</ele><time>2026-04-22T12:30:26.999Z</time></trkpt><trkpt lat="43.72171607590453" lon="7.334563119923514"><ele>474.4</ele><time>2026-04-22T12:30:27.999Z</time></trkpt><trkpt lat="43.721626358046876" lon="7.334522082036659"><ele>472.2</ele><time>2026-04-22T12:30:28.999Z</time></trkpt><trkpt lat="43.72153624106966" lon="7.334470635980008"><ele>470.0</ele><time>2026-04-22T12:30:29.999Z</time></trkpt><trkpt lat="43.72148669646569" lon="7.334328719197838"><ele>470.0</ele><time>2026-04-22T12:30:30.999Z</time></trkpt><trkpt lat="43.721397524621196" lon="7.33421153753616"><ele>470.0</ele><time>2026-04-22T12:30:31.999Z</time></trkpt><trkpt lat="43.7213174361627" lon="7.334066987775165"><ele>470.0</ele><time>2026-04-22T12:30:32.999Z</time></trkpt><trkpt lat="43.7212324398188" lon="7.3339158140309975"><ele>470.0</ele><time>2026-04-22T12:30:33.999Z</time></trkpt><trkpt lat="43.72114783078346" lon="7.333748577747623"><ele>470.75</ele><time>2026-04-22T12:30:34.999Z</time></trkpt><trkpt lat="43.72107550464835" lon="7.33356430759191"><ele>471.5</ele><time>2026-04-22T12:30:35.999Z</time></trkpt><trkpt lat="43.7210103152068" lon="7.333388527601383"><ele>472.25</ele><time>2026-04-22T12:30:36.999Z</time></trkpt><trkpt lat="43.72092740281333" lon="7.333214166131854"><ele>473.0</ele><time>2026-04-22T12:30:37.999Z</time></trkpt><trkpt lat="43.72083015996768" lon="7.333049450951116"><ele>473.0</ele><time>2026-04-22T12:30:38.999Z</time></trkpt><trkpt lat="43.72071897832652" lon="7.332893869336427"><ele>473.0</ele><time>2026-04-22T12:30:39.999Z</time></trkpt><trkpt lat="43.7206028932677" lon="7.332745535315795"><ele>473.0</ele><time>2026-04-22T12:30:40.999Z</time></trkpt><trkpt lat="43.72049107534922" lon="7.332604228451526"><ele>473.0</ele><time>2026-04-22T12:30:41.999Z</time></trkpt><trkpt lat="43.72039690685363" lon="7.332433559960515"><ele>473.0</ele><time>2026-04-22T12:30:42.999Z</time></trkpt><trkpt lat="43.720300347425464" lon="7.332268457202892"><ele>473.0</ele><time>2026-04-22T12:30:43.999Z</time></trkpt><trkpt lat="43.72020198038455" lon="7.332092905196126"><ele>466.75</ele><time>2026-04-22T12:30:44.999Z</time></trkpt><trkpt lat="43.7201106903481" lon="7.331923110652872"><ele>460.5</ele><time>2026-04-22T12:30:45.999Z</time></trkpt><trkpt lat="43.72002484890755" lon="7.3317632370250365"><ele>454.25</ele><time>2026-04-22T12:30:46.999Z</time></trkpt><trkpt lat="43.719941297881185" lon="7.331640064439459"><ele>448.0</ele><time>2026-04-22T12:30:47.999Z</time></trkpt><trkpt lat="43.71988010880159" lon="7.3315007658827795"><ele>448.5</ele><time>2026-04-22T12:30:48.999Z</time></trkpt><trkpt lat="43.719843321864374" lon="7.331349873194093"><ele>449.0</ele><time>2026-04-22T12:30:49.999Z</time></trkpt><trkpt lat="43.71982414916988" lon="7.3311859547923275"><ele>449.5</ele><time>2026-04-22T12:30:50.999Z</time></trkpt><trkpt lat="43.719829281564735" lon="7.331004020657206"><ele>450.0</ele><time>2026-04-22T12:30:51.999Z</time></trkpt><trkpt lat="43.71984564543601" lon="7.330815926003763"><ele>450.0</ele><time>2026-04-22T12:30:52.999Z</time></trkpt><trkpt lat="43.71985524419342" lon="7.330639627135414"><ele>450.0</ele><time>2026-04-22T12:30:53.999Z</time></trkpt><trkpt lat="43.71987371557569" lon="7.330466237325184"><ele>450.0</ele><time>2026-04-22T12:30:54.999Z</time></trkpt><trkpt lat="43.719906877735475" lon="7.330298786522364"><ele>450.0</ele><time>2026-04-22T12:30:55.999Z</time></trkpt><trkpt lat="43.71995719169326" lon="7.330133665637524"><ele>446.75</ele><time>2026-04-22T12:30:56.999Z</time></trkpt><trkpt lat="43.72001718673601" lon="7.329971568041187"><ele>443.5</ele><time>2026-04-22T12:30:57.999Z</time></trkpt><trkpt lat="43.72007432833378" lon="7.329812322547569"><ele>440.25</ele><time>2026-04-22T12:30:58.999Z</time></trkpt><trkpt lat="43.720125480122775" lon="7.329663456922088"><ele>437.0</ele><time>2026-04-22T12:30:59.999Z</time></trkpt><trkpt lat="43.720170735277904" lon="7.329535780559969"><ele>436.6</ele><time>2026-04-22T12:31:00.999Z</time></trkpt><trkpt lat="43.72019098223719" lon="7.329418562580595"><ele>436.20000000000005</ele><time>2026-04-22T12:31:01.999Z</time></trkpt><trkpt lat="43.72018568802784" lon="7.329306905271486"><ele>435.8</ele><time>2026-04-22T12:31:02.999Z</time></trkpt><trkpt lat="43.72014049078847" lon="7.329203291738787"><ele>435.4</ele><time>2026-04-22T12:31:03.999Z</time></trkpt><trkpt lat="43.720071287080444" lon="7.329112369317712"><ele>435.0</ele><time>2026-04-22T12:31:04.999Z</time></trkpt><trkpt lat="43.71997257544164" lon="7.329042038792477"><ele>435.0</ele><time>2026-04-22T12:31:05.999Z</time></trkpt><trkpt lat="43.71986561229569" lon="7.328948694481098"><ele>435.0</ele><time>2026-04-22T12:31:06.999Z</time></trkpt><trkpt lat="43.71974500903525" lon="7.328860492375975"><ele>435.0</ele><time>2026-04-22T12:31:07.999Z</time></trkpt><trkpt lat="43.719613001573535" lon="7.328763612922424"><ele>435.0</ele><time>2026-04-22T12:31:08.999Z</time></trkpt><trkpt lat="43.71949081932078" lon="7.32867300069963"><ele>434.0</ele><time>2026-04-22T12:31:09.999Z</time></trkpt><trkpt lat="43.71939053139276" lon="7.32859516621479"><ele>433.0</ele><time>2026-04-22T12:31:10.999Z</time></trkpt><trkpt lat="43.71930910889148" lon="7.328508969742568"><ele>432.0</ele><time>2026-04-22T12:31:11.999Z</time></trkpt><trkpt lat="43.71925224191134" lon="7.328388935399106"><ele>431.0</ele><time>2026-04-22T12:31:12.999Z</time></trkpt><trkpt lat="43.71919049380946" lon="7.328241961105151"><ele>430.0</ele><time>2026-04-22T12:31:13.999Z</time></trkpt><trkpt lat="43.7191693541089" lon="7.328052051043777"><ele>430.0</ele><time>2026-04-22T12:31:14.999Z</time></trkpt><trkpt lat="43.71911656392902" lon="7.32786531421213"><ele>430.0</ele><time>2026-04-22T12:31:15.999Z</time></trkpt><trkpt lat="43.7190741989764" lon="7.327676145184866"><ele>430.0</ele><time>2026-04-22T12:31:16.999Z</time></trkpt><trkpt lat="43.719023376084756" lon="7.327508868359437"><ele>430.0</ele><time>2026-04-22T12:31:17.999Z</time></trkpt><trkpt lat="43.71898388511786" lon="7.327339065906657"><ele>433.25</ele><time>2026-04-22T12:31:18.999Z</time></trkpt><trkpt lat="43.71892253846892" lon="7.327202466103049"><ele>436.5</ele><time>2026-04-22T12:31:19.999Z</time></trkpt><trkpt lat="43.71883888211916" lon="7.327108106786975"><ele>439.75</ele><time>2026-04-22T12:31:20.999Z</time></trkpt><trkpt lat="43.71874840567874" lon="7.327033149903436"><ele>443.0</ele><time>2026-04-22T12:31:21.999Z</time></trkpt><trkpt lat="43.71863435137912" lon="7.32697968085146"><ele>438.2</ele><time>2026-04-22T12:31:22.999Z</time></trkpt><trkpt lat="43.71851501334308" lon="7.326902799755594"><ele>433.4</ele><time>2026-04-22T12:31:23.999Z</time></trkpt><trkpt lat="43.71839946451891" lon="7.326831678291999"><ele>428.59999999999997</ele><time>2026-04-22T12:31:24.999Z</time></trkpt><trkpt lat="43.718302407865394" lon="7.326765430340714"><ele>423.79999999999995</ele><time>2026-04-22T12:31:25.999Z</time></trkpt><trkpt lat="43.71823136254603" lon="7.326711205762802"><ele>419.0</ele><time>2026-04-22T12:31:26.999Z</time></trkpt><trkpt lat="43.71817128824511" lon="7.326681431555448"><ele>418.99999999999994</ele><time>2026-04-22T12:31:27.999Z</time></trkpt><trkpt lat="43.71811297156505" lon="7.326582070733877"><ele>419.0</ele><time>2026-04-22T12:31:28.999Z</time></trkpt><trkpt lat="43.71806351780733" lon="7.326505885859821"><ele>419.0</ele><time>2026-04-22T12:31:29.999Z</time></trkpt><trkpt lat="43.718017526270295" lon="7.326427338410303"><ele>419.0</ele><time>2026-04-22T12:31:30.999Z</time></trkpt><trkpt lat="43.717972157288315" lon="7.326344575079519"><ele>418.99999999999994</ele><time>2026-04-22T12:31:31.999Z</time></trkpt><trkpt lat="43.71792451040761" lon="7.326254502212858"><ele>419.0</ele><time>2026-04-22T12:31:32.999Z</time></trkpt><trkpt lat="43.717864501149435" lon="7.326177069651428"><ele>420.66666666666663</ele><time>2026-04-22T12:31:33.998Z</time></trkpt><trkpt lat="43.71782146451743" lon="7.326082148904638"><ele>422.3333333333333</ele><time>2026-04-22T12:31:34.998Z</time></trkpt><trkpt lat="43.717778703382976" lon="7.325988332065142"><ele>424.0</ele><time>2026-04-22T12:31:35.998Z</time></trkpt><trkpt lat="43.71773367715149" lon="7.325894398851379"><ele>425.66666666666663</ele><time>2026-04-22T12:31:36.998Z</time></trkpt><trkpt lat="43.71768613285777" lon="7.3258054043020016"><ele>427.3333333333333</ele><time>2026-04-22T12:31:37.998Z</time></trkpt><trkpt lat="43.717639146642036" lon="7.325712146496741"><ele>429.0</ele><time>2026-04-22T12:31:38.998Z</time></trkpt><trkpt lat="43.71759466071211" lon="7.325620533106016"><ele>426.8333333333333</ele><time>2026-04-22T12:31:39.998Z</time></trkpt><trkpt lat="43.717546736925705" lon="7.3255295388714465"><ele>424.66666666666663</ele><time>2026-04-22T12:31:40.998Z</time></trkpt><trkpt lat="43.71749610446927" lon="7.325439974377926"><ele>422.5</ele><time>2026-04-22T12:31:41.998Z</time></trkpt><trkpt lat="43.71744791814318" lon="7.325349371829549"><ele>420.3333333333333</ele><time>2026-04-22T12:31:42.998Z</time></trkpt><trkpt lat="43.717401212628765" lon="7.325256588225535"><ele>418.16666666666663</ele><time>2026-04-22T12:31:43.998Z</time></trkpt><trkpt lat="43.71735808090236" lon="7.32515783285871"><ele>416.0</ele><time>2026-04-22T12:31:44.998Z</time></trkpt><trkpt lat="43.71730619885527" lon="7.325068151581163"><ele>415.99999999999994</ele><time>2026-04-22T12:31:45.998Z</time></trkpt><trkpt lat="43.71726016051004" lon="7.3249703053257065"><ele>416.0</ele><time>2026-04-22T12:31:46.998Z</time></trkpt><trkpt lat="43.717217991508996" lon="7.324872887899033"><ele>416.0</ele><time>2026-04-22T12:31:47.998Z</time></trkpt><trkpt lat="43.71717562292143" lon="7.32477404180473"><ele>416.0</ele><time>2026-04-22T12:31:48.998Z</time></trkpt><trkpt lat="43.717143262265424" lon="7.324662221416646"><ele>415.99999999999994</ele><time>2026-04-22T12:31:49.998Z</time></trkpt><trkpt lat="43.71711408043278" lon="7.324535460389918"><ele>416.0</ele><time>2026-04-22T12:31:50.998Z</time></trkpt><trkpt lat="43.717088892147565" lon="7.324393358464742"><ele>417.4</ele><time>2026-04-22T12:31:51.998Z</time></trkpt><trkpt lat="43.71705794786873" lon="7.324236113491698"><ele>418.8</ele><time>2026-04-22T12:31:52.998Z</time></trkpt><trkpt lat="43.71703359057825" lon="7.324087129538638"><ele>420.2</ele><time>2026-04-22T12:31:53.998Z</time></trkpt><trkpt lat="43.71701046855793" lon="7.323948155232862"><ele>421.59999999999997</ele><time>2026-04-22T12:31:54.998Z</time></trkpt><trkpt lat="43.71698381324061" lon="7.323820044274685"><ele>423.0</ele><time>2026-04-22T12:31:55.998Z</time></trkpt><trkpt lat="43.71695846922662" lon="7.323692786060546"><ele>423.0</ele><time>2026-04-22T12:31:57Z</time></trkpt><trkpt lat="43.716934265327474" lon="7.3235622100379"><ele>423.0</ele><time>2026-04-22T12:31:58Z</time></trkpt><trkpt lat="43.71690921100821" lon="7.32342929752256"><ele>423.0</ele><time>2026-04-22T12:31:59Z</time></trkpt><trkpt lat="43.71688579557586" lon="7.323291882802557"><ele>423.0</ele><time>2026-04-22T12:32:00Z</time></trkpt><trkpt lat="43.716860715930444" lon="7.323149504063953"><ele>423.0</ele><time>2026-04-22T12:32:01Z</time></trkpt><trkpt lat="43.7168317785545" lon="7.323007262484249"><ele>417.4</ele><time>2026-04-22T12:32:02Z</time></trkpt><trkpt lat="43.716807652650445" lon="7.322869642194929"><ele>411.79999999999995</ele><time>2026-04-22T12:32:03Z</time></trkpt><trkpt lat="43.71678786170296" lon="7.322731042132077"><ele>406.2</ele><time>2026-04-22T12:32:04Z</time></trkpt><trkpt lat="43.7167647756303" lon="7.322609162085709"><ele>400.6</ele><time>2026-04-22T12:32:05Z</time></trkpt><trkpt lat="43.71674515637719" lon="7.32249162880465"><ele>395.0</ele><time>2026-04-22T12:32:06Z</time></trkpt><trkpt lat="43.71672744490721" lon="7.322382786940891"><ele>394.99999999999994</ele><time>2026-04-22T12:32:07Z</time></trkpt><trkpt lat="43.7167061578525" lon="7.322279462902279"><ele>395.0</ele><time>2026-04-22T12:32:08Z</time></trkpt><trkpt lat="43.71668603633686" lon="7.322174594217698"><ele>395.0</ele><time>2026-04-22T12:32:09Z</time></trkpt><trkpt lat="43.71666546504146" lon="7.322069456847822"><ele>395.0</ele><time>2026-04-22T12:32:10Z</time></trkpt><trkpt lat="43.71664484719489" lon="7.3219626498694845"><ele>394.99999999999994</ele><time>2026-04-22T12:32:11Z</time></trkpt><trkpt lat="43.716622698079284" lon="7.321858761182738"><ele>395.0</ele><time>2026-04-22T12:32:12Z</time></trkpt><trkpt lat="43.716603239385684" lon="7.32174941853584"><ele>394.2</ele><time>2026-04-22T12:32:13Z</time></trkpt><trkpt lat="43.71658188352721" lon="7.3216318694453015"><ele>393.4</ele><time>2026-04-22T12:32:14Z</time></trkpt><trkpt lat="43.71656333344845" lon="7.321510137607841"><ele>392.6</ele><time>2026-04-22T12:32:15Z</time></trkpt><trkpt lat="43.716556312232" lon="7.321382214278889"><ele>391.8</ele><time>2026-04-22T12:32:16Z</time></trkpt><trkpt lat="43.716568807345084" lon="7.321255261202064"><ele>391.0</ele><time>2026-04-22T12:32:17Z</time></trkpt><trkpt lat="43.716595698898686" lon="7.321121875496081"><ele>388.75</ele><time>2026-04-22T12:32:18Z</time></trkpt><trkpt lat="43.71663648480988" lon="7.320985826215841"><ele>386.5</ele><time>2026-04-22T12:32:19Z</time></trkpt><trkpt lat="43.71668300003496" lon="7.320848193523038"><ele>384.25</ele><time>2026-04-22T12:32:20Z</time></trkpt><trkpt lat="43.71672029652215" lon="7.320694650606065"><ele>382.0</ele><time>2026-04-22T12:32:21Z</time></trkpt><trkpt lat="43.7167444693978" lon="7.320526914320856"><ele>379.5</ele><time>2026-04-22T12:32:22Z</time></trkpt><trkpt lat="43.716766255626595" lon="7.320348308713617"><ele>377.0</ele><time>2026-04-22T12:32:23Z</time></trkpt><trkpt lat="43.716787954939555" lon="7.3201635649477765"><ele>374.5</ele><time>2026-04-22T12:32:23.999Z</time></trkpt><trkpt lat="43.716804036239616" lon="7.319979943103003"><ele>372.0</ele><time>2026-04-22T12:32:24.999Z</time></trkpt><trkpt lat="43.71681735958315" lon="7.319799059995159"><ele>371.0</ele><time>2026-04-22T12:32:25.999Z</time></trkpt><trkpt lat="43.716826784819666" lon="7.319612464283082"><ele>370.0</ele><time>2026-04-22T12:32:26.999Z</time></trkpt><trkpt lat="43.716817781149366" lon="7.319430129552885"><ele>369.0</ele><time>2026-04-22T12:32:27.999Z</time></trkpt><trkpt lat="43.716801282085235" lon="7.319247901008783"><ele>368.0</ele><time>2026-04-22T12:32:28.999Z</time></trkpt><trkpt lat="43.71679573809187" lon="7.319063951616643"><ele>366.0</ele><time>2026-04-22T12:32:29.999Z</time></trkpt><trkpt lat="43.71680597297706" lon="7.3188806848266195"><ele>364.0</ele><time>2026-04-22T12:32:30.999Z</time></trkpt><trkpt lat="43.71682463556523" lon="7.318688452813152"><ele>362.0</ele><time>2026-04-22T12:32:31.999Z</time></trkpt><trkpt lat="43.716840706607414" lon="7.3184852012292225"><ele>360.0</ele><time>2026-04-22T12:32:32.999Z</time></trkpt><trkpt lat="43.71685437311373" lon="7.318275246415817"><ele>357.0</ele><time>2026-04-22T12:32:33.999Z</time></trkpt><trkpt lat="43.71687042629073" lon="7.3180579567322335"><ele>354.0</ele><time>2026-04-22T12:32:34.999Z</time></trkpt><trkpt lat="43.71688734184864" lon="7.317833017205797"><ele>351.0</ele><time>2026-04-22T12:32:35.999Z</time></trkpt><trkpt lat="43.71690833757167" lon="7.317614230180769"><ele>363.66666666666663</ele><time>2026-04-22T12:32:36.999Z</time></trkpt><trkpt lat="43.7169237695238" lon="7.317400650156298"><ele>376.3333333333333</ele><time>2026-04-22T12:32:37.999Z</time></trkpt><trkpt lat="43.71694793920417" lon="7.317189374231472"><ele>389.0</ele><time>2026-04-22T12:32:38.999Z</time></trkpt><trkpt lat="43.71696919454907" lon="7.316973832436185"><ele>389.0</ele><time>2026-04-22T12:32:39.999Z</time></trkpt><trkpt lat="43.71698666219289" lon="7.316757230877709"><ele>389.0</ele><time>2026-04-22T12:32:40.999Z</time></trkpt><trkpt lat="43.71699526306714" lon="7.316544619241571"><ele>389.0</ele><time>2026-04-22T12:32:41.999Z</time></trkpt><trkpt lat="43.71698898110521" lon="7.316328506090465"><ele>386.66666666666663</ele><time>2026-04-22T12:32:42.999Z</time></trkpt><trkpt lat="43.71696975094298" lon="7.3161178647969685"><ele>384.3333333333333</ele><time>2026-04-22T12:32:43.999Z</time></trkpt><trkpt lat="43.71694798917456" lon="7.315908662253432"><ele>382.0</ele><time>2026-04-22T12:32:44.999Z</time></trkpt><trkpt lat="43.71694457446655" lon="7.315696683562136"><ele>380.3333333333333</ele><time>2026-04-22T12:32:45.999Z</time></trkpt><trkpt lat="43.71691244918417" lon="7.315494210194884"><ele>378.6666666666667</ele><time>2026-04-22T12:32:46.999Z</time></trkpt><trkpt lat="43.71689555400565" lon="7.315286576221319"><ele>377.0</ele><time>2026-04-22T12:32:47.999Z</time></trkpt><trkpt lat="43.71687403910642" lon="7.315076900994863"><ele>363.6666666666667</ele><time>2026-04-22T12:32:48.999Z</time></trkpt><trkpt lat="43.71685401797237" lon="7.314871008965475"><ele>350.3333333333333</ele><time>2026-04-22T12:32:49.999Z</time></trkpt><trkpt lat="43.716831081733574" lon="7.314666517712206"><ele>337.0</ele><time>2026-04-22T12:32:50.999Z</time></trkpt><trkpt lat="43.716809220822604" lon="7.314461306402506"><ele>337.0</ele><time>2026-04-22T12:32:51.999Z</time></trkpt><trkpt lat="43.71678921468337" lon="7.314258589326955"><ele>337.0</ele><time>2026-04-22T12:32:52.999Z</time></trkpt><trkpt lat="43.71677107029555" lon="7.31405555155862"><ele>337.0</ele><time>2026-04-22T12:32:53.999Z</time></trkpt><trkpt lat="43.71675655314128" lon="7.31387594857696"><ele>337.0</ele><time>2026-04-22T12:32:54.999Z</time></trkpt><trkpt lat="43.71674224661761" lon="7.313723293488191"><ele>337.0</ele><time>2026-04-22T12:32:55.999Z</time></trkpt><trkpt lat="43.71672983868457" lon="7.3135769068527186"><ele>337.0</ele><time>2026-04-22T12:32:56.999Z</time></trkpt><trkpt lat="43.71671458016585" lon="7.313426088665354"><ele>337.0</ele><time>2026-04-22T12:32:57.999Z</time></trkpt><trkpt lat="43.71670556417924" lon="7.313273085203917"><ele>337.0</ele><time>2026-04-22T12:32:58.999Z</time></trkpt><trkpt lat="43.71670084309063" lon="7.3131212211075445"><ele>337.0</ele><time>2026-04-22T12:32:59.999Z</time></trkpt><trkpt lat="43.71673038621015" lon="7.3129804991692975"><ele>337.0</ele><time>2026-04-22T12:33:00.999Z</time></trkpt><trkpt lat="43.71675092588176" lon="7.312859280338793"><ele>337.0</ele><time>2026-04-22T12:33:01.999Z</time></trkpt><trkpt lat="43.71676773829507" lon="7.312760231936483"><ele>337.0</ele><time>2026-04-22T12:33:02.999Z</time></trkpt><trkpt lat="43.71679542814434" lon="7.312670254360711"><ele>337.0</ele><time>2026-04-22T12:33:04.999Z</time></trkpt><trkpt lat="43.71662283750779" lon="7.3126993614723235"><ele>337.0</ele><time>2026-04-22T12:33:08.999Z</time></trkpt><trkpt lat="43.716547077675486" lon="7.312762747636664"><ele>337.0</ele><time>2026-04-22T12:33:11.999Z</time></trkpt><trkpt lat="43.71660408965643" lon="7.312915525906138"><ele>337.0</ele><time>2026-04-22T12:33:12.999Z</time></trkpt><trkpt lat="43.716622400053026" lon="7.313058660657383"><ele>337.0</ele><time>2026-04-22T12:33:14.999Z</time></trkpt><trkpt lat="43.716607276436626" lon="7.313166137459981"><ele>337.0</ele><time>2026-04-22T12:33:15.999Z</time></trkpt><trkpt lat="43.71658298797919" lon="7.313286061097527"><ele>337.0</ele><time>2026-04-22T12:33:16.999Z</time></trkpt><trkpt lat="43.71655407909526" lon="7.313405029977973"><ele>336.6</ele><time>2026-04-22T12:33:17.999Z</time></trkpt><trkpt lat="43.716531320188636" lon="7.313514061845875"><ele>336.20000000000005</ele><time>2026-04-22T12:33:18.999Z</time></trkpt><trkpt lat="43.71649564995371" lon="7.313661609299104"><ele>335.8</ele><time>2026-04-22T12:33:20.999Z</time></trkpt><trkpt lat="43.716486523212204" lon="7.313756975670684"><ele>335.4</ele><time>2026-04-22T12:33:23.999Z</time></trkpt><trkpt lat="43.71653824538118" lon="7.313660634961292"><ele>335.0</ele><time>2026-04-22T12:33:29.999Z</time></trkpt><trkpt lat="43.71656443522934" lon="7.313470828160555"><ele>335.0</ele><time>2026-04-22T12:33:31.999Z</time></trkpt><trkpt lat="43.71658575612064" lon="7.313362139645777"><ele>335.0</ele><time>2026-04-22T12:33:32.999Z</time></trkpt><trkpt lat="43.71660809296351" lon="7.313237862764778"><ele>335.0</ele><time>2026-04-22T12:33:33.998Z</time></trkpt><trkpt lat="43.71662798035817" lon="7.313137446605758"><ele>335.0</ele><time>2026-04-22T12:33:34.998Z</time></trkpt><trkpt lat="43.71663826246236" lon="7.313039014893951"><ele>335.0</ele><time>2026-04-22T12:33:35.998Z</time></trkpt><trkpt lat="43.71663528783093" lon="7.312945550816169"><ele>335.0</ele><time>2026-04-22T12:33:36.998Z</time></trkpt><trkpt lat="43.716628959944615" lon="7.312818692603504"><ele>335.0</ele><time>2026-04-22T12:33:38.998Z</time></trkpt><trkpt lat="43.71651812932938" lon="7.312790256687502"><ele>335.0</ele><time>2026-04-22T12:33:48.998Z</time></trkpt><trkpt lat="43.7164404078545" lon="7.312874661863353"><ele>335.0</ele><time>2026-04-22T12:33:49.998Z</time></trkpt><trkpt lat="43.716351324979755" lon="7.312954841413303"><ele>335.0</ele><time>2026-04-22T12:33:50.998Z</time></trkpt><trkpt lat="43.716265024399306" lon="7.313026043841383"><ele>335.0</ele><time>2026-04-22T12:33:51.998Z</time></trkpt><trkpt lat="43.716177515990275" lon="7.313138689492814"><ele>336.0</ele><time>2026-04-22T12:33:52.998Z</time></trkpt><trkpt lat="43.716056020475285" lon="7.313270023707772"><ele>337.0</ele><time>2026-04-22T12:33:53.998Z</time></trkpt><trkpt lat="43.715965060115295" lon="7.313413548544559"><ele>338.0</ele><time>2026-04-22T12:33:54.998Z</time></trkpt><trkpt lat="43.71588958779781" lon="7.313528856212183"><ele>339.0</ele><time>2026-04-22T12:33:55.998Z</time></trkpt><trkpt lat="43.715818348672364" lon="7.313618798618062"><ele>339.0</ele><time>2026-04-22T12:33:56.998Z</time></trkpt><trkpt lat="43.715746813182584" lon="7.313687168043023"><ele>339.0</ele><time>2026-04-22T12:33:57.998Z</time></trkpt><trkpt lat="43.71566503284783" lon="7.313738128642952"><ele>339.0</ele><time>2026-04-22T12:33:58.998Z</time></trkpt><trkpt lat="43.71555974763454" lon="7.313751657284889"><ele>339.0</ele><time>2026-04-22T12:33:59.998Z</time></trkpt><trkpt lat="43.71546545144724" lon="7.313768190573903"><ele>339.0</ele><time>2026-04-22T12:34:00.998Z</time></trkpt><trkpt lat="43.715395843677726" lon="7.313758604468812"><ele>339.0</ele><time>2026-04-22T12:34:01.998Z</time></trkpt><trkpt lat="43.71531986317433" lon="7.313747675099091"><ele>339.0</ele><time>2026-04-22T12:34:03Z</time></trkpt><trkpt lat="43.7152458722633" lon="7.313682251446609"><ele>339.0</ele><time>2026-04-22T12:34:04Z</time></trkpt><trkpt lat="43.71516229293491" lon="7.313648912009353"><ele>339.0</ele><time>2026-04-22T12:34:05Z</time></trkpt><trkpt lat="43.71508595485879" lon="7.313612490019496"><ele>339.0</ele><time>2026-04-22T12:34:06Z</time></trkpt><trkpt lat="43.7150294229901" lon="7.313556018785239"><ele>339.0</ele><time>2026-04-22T12:34:07Z</time></trkpt><trkpt lat="43.71497356937785" lon="7.313497888831941"><ele>339.0</ele><time>2026-04-22T12:34:08Z</time></trkpt><trkpt lat="43.71491312678574" lon="7.313409687100979"><ele>340.6</ele><time>2026-04-22T12:34:09Z</time></trkpt><trkpt lat="43.7148571762174" lon="7.313298729089959"><ele>342.2</ele><time>2026-04-22T12:34:10Z</time></trkpt><trkpt lat="43.71479613417764" lon="7.313195023424464"><ele>343.8</ele><time>2026-04-22T12:34:11Z</time></trkpt><trkpt lat="43.71473815909155" lon="7.3130786702494825"><ele>345.40000000000003</ele><time>2026-04-22T12:34:12Z</time></trkpt><trkpt lat="43.71468461384918" lon="7.312965282325516"><ele>347.0</ele><time>2026-04-22T12:34:13Z</time></trkpt><trkpt lat="43.7146343652408" lon="7.312850755454575"><ele>348.0</ele><time>2026-04-22T12:34:14Z</time></trkpt><trkpt lat="43.71459698471398" lon="7.312730156238752"><ele>349.0</ele><time>2026-04-22T12:34:15Z</time></trkpt><trkpt lat="43.71456123835476" lon="7.312616086497327"><ele>350.0</ele><time>2026-04-22T12:34:16Z</time></trkpt><trkpt lat="43.71453723261552" lon="7.312498669812401"><ele>351.0</ele><time>2026-04-22T12:34:17Z</time></trkpt><trkpt lat="43.71452143951536" lon="7.312375851525818"><ele>352.0</ele><time>2026-04-22T12:34:18Z</time></trkpt><trkpt lat="43.71450705294359" lon="7.312247360949306"><ele>351.0</ele><time>2026-04-22T12:34:19Z</time></trkpt><trkpt lat="43.714499602828475" lon="7.312111180450762"><ele>350.0</ele><time>2026-04-22T12:34:20Z</time></trkpt><trkpt lat="43.7145028455089" lon="7.311971750842989"><ele>349.0</ele><time>2026-04-22T12:34:21Z</time></trkpt><trkpt lat="43.714498609733724" lon="7.3118338055786465"><ele>348.0</ele><time>2026-04-22T12:34:22Z</time></trkpt><trkpt lat="43.71449536894383" lon="7.3116933160405875"><ele>347.0</ele><time>2026-04-22T12:34:23Z</time></trkpt><trkpt lat="43.71450118050668" lon="7.311551038449462"><ele>347.0</ele><time>2026-04-22T12:34:24Z</time></trkpt><trkpt lat="43.714462674577646" lon="7.311413652125204"><ele>347.0</ele><time>2026-04-22T12:34:24.999Z</time></trkpt><trkpt lat="43.71443231924164" lon="7.311271956863831"><ele>347.0</ele><time>2026-04-22T12:34:25.999Z</time></trkpt><trkpt lat="43.71441567810955" lon="7.311120810025221"><ele>347.0</ele><time>2026-04-22T12:34:26.999Z</time></trkpt><trkpt lat="43.71438416048103" lon="7.310971372247134"><ele>347.0</ele><time>2026-04-22T12:34:27.999Z</time></trkpt><trkpt lat="43.71434041922698" lon="7.310825361664645"><ele>337.75</ele><time>2026-04-22T12:34:28.999Z</time></trkpt><trkpt lat="43.71431567448184" lon="7.310668022456766"><ele>328.5</ele><time>2026-04-22T12:34:29.999Z</time></trkpt><trkpt lat="43.71428434263825" lon="7.310515878078635"><ele>319.25</ele><time>2026-04-22T12:34:30.999Z</time></trkpt><trkpt lat="43.71424931012044" lon="7.310364480178335"><ele>310.0</ele><time>2026-04-22T12:34:31.999Z</time></trkpt><trkpt lat="43.714212166580815" lon="7.310216664194597"><ele>310.0</ele><time>2026-04-22T12:34:32.999Z</time></trkpt><trkpt lat="43.714168251621736" lon="7.310074678395933"><ele>310.0</ele><time>2026-04-22T12:34:33.999Z</time></trkpt><trkpt lat="43.7141365725176" lon="7.309940459643456"><ele>310.0</ele><time>2026-04-22T12:34:34.999Z</time></trkpt><trkpt lat="43.71410683343618" lon="7.309825308088963"><ele>310.0</ele><time>2026-04-22T12:34:35.999Z</time></trkpt><trkpt lat="43.71407567072466" lon="7.309731358083359"><ele>310.0</ele><time>2026-04-22T12:34:36.999Z</time></trkpt><trkpt lat="43.71399660423416" lon="7.309585879750211"><ele>307.8333333333333</ele><time>2026-04-22T12:34:38.999Z</time></trkpt><trkpt lat="43.71392464457542" lon="7.30954644385202"><ele>305.66666666666663</ele><time>2026-04-22T12:34:39.999Z</time></trkpt><trkpt lat="43.71385573434225" lon="7.309485795307583"><ele>303.5</ele><time>2026-04-22T12:34:40.999Z</time></trkpt><trkpt lat="43.71377533547763" lon="7.3094519664685205"><ele>301.3333333333333</ele><time>2026-04-22T12:34:41.999Z</time></trkpt><trkpt lat="43.71369763310726" lon="7.3094211460059855"><ele>299.1666666666667</ele><time>2026-04-22T12:34:42.999Z</time></trkpt><trkpt lat="43.71363024691402" lon="7.309384168328112"><ele>297.0</ele><time>2026-04-22T12:34:43.999Z</time></trkpt><trkpt lat="43.71356661083502" lon="7.309349897806763"><ele>297.0</ele><time>2026-04-22T12:34:44.999Z</time></trkpt><trkpt lat="43.71351047484016" lon="7.309286966031247"><ele>297.0</ele><time>2026-04-22T12:34:45.999Z</time></trkpt><trkpt lat="43.71346397076349" lon="7.309187132700271"><ele>297.0</ele><time>2026-04-22T12:34:46.999Z</time></trkpt><trkpt lat="43.713404957308235" lon="7.309088551226721"><ele>297.0</ele><time>2026-04-22T12:34:47.999Z</time></trkpt><trkpt lat="43.71334461340923" lon="7.308987632385324"><ele>297.0</ele><time>2026-04-22T12:34:48.999Z</time></trkpt><trkpt lat="43.71328764760726" lon="7.308893252414293"><ele>297.0</ele><time>2026-04-22T12:34:49.999Z</time></trkpt><trkpt lat="43.71321950997361" lon="7.3088180630242086"><ele>299.2857142857143</ele><time>2026-04-22T12:34:50.999Z</time></trkpt><trkpt lat="43.71317236993795" lon="7.308737240108684"><ele>301.5714285714286</ele><time>2026-04-22T12:34:51.999Z</time></trkpt><trkpt lat="43.713125513886176" lon="7.308661227766982"><ele>303.8571428571429</ele><time>2026-04-22T12:34:52.999Z</time></trkpt><trkpt lat="43.713081458330336" lon="7.30858380290123"><ele>306.14285714285717</ele><time>2026-04-22T12:34:53.999Z</time></trkpt><trkpt lat="43.71304051346045" lon="7.308510042691092"><ele>308.42857142857144</ele><time>2026-04-22T12:34:54.999Z</time></trkpt><trkpt lat="43.71300229763692" lon="7.308417953659349"><ele>310.7142857142857</ele><time>2026-04-22T12:34:55.999Z</time></trkpt><trkpt lat="43.7129635352937" lon="7.308310897700468"><ele>313.0</ele><time>2026-04-22T12:34:56.999Z</time></trkpt><trkpt lat="43.71292290450249" lon="7.3082041066265955"><ele>313.0</ele><time>2026-04-22T12:34:57.999Z</time></trkpt><trkpt lat="43.71288098322485" lon="7.308091986264859"><ele>313.0</ele><time>2026-04-22T12:34:58.999Z</time></trkpt><trkpt lat="43.71283975802213" lon="7.307980525459601"><ele>313.0</ele><time>2026-04-22T12:34:59.999Z</time></trkpt><trkpt lat="43.71278997529165" lon="7.307874336364657"><ele>313.0</ele><time>2026-04-22T12:35:00.999Z</time></trkpt><trkpt lat="43.712744569251534" lon="7.307769352348288"><ele>313.0</ele><time>2026-04-22T12:35:01.999Z</time></trkpt><trkpt lat="43.71269896807253" lon="7.307665310360094"><ele>310.0</ele><time>2026-04-22T12:35:02.999Z</time></trkpt><trkpt lat="43.7126467957217" lon="7.307568390638853"><ele>307.0</ele><time>2026-04-22T12:35:03.999Z</time></trkpt><trkpt lat="43.71259136448992" lon="7.3074726369092975"><ele>304.0</ele><time>2026-04-22T12:35:04.999Z</time></trkpt><trkpt lat="43.71253435488299" lon="7.307376747342377"><ele>301.0</ele><time>2026-04-22T12:35:05.999Z</time></trkpt><trkpt lat="43.71247695558069" lon="7.307281679076672"><ele>298.0</ele><time>2026-04-22T12:35:06.999Z</time></trkpt><trkpt lat="43.71241344668805" lon="7.30719415329878"><ele>295.0</ele><time>2026-04-22T12:35:07.999Z</time></trkpt><trkpt lat="43.7123516164811" lon="7.307102904140752"><ele>295.0</ele><time>2026-04-22T12:35:08.999Z</time></trkpt><trkpt lat="43.71229262316086" lon="7.307010404371357"><ele>295.0</ele><time>2026-04-22T12:35:09.999Z</time></trkpt><trkpt lat="43.71223196303828" lon="7.306920466431198"><ele>295.0</ele><time>2026-04-22T12:35:10.999Z</time></trkpt><trkpt lat="43.71216417973255" lon="7.306844346524095"><ele>295.0</ele><time>2026-04-22T12:35:11.999Z</time></trkpt><trkpt lat="43.71209843483349" lon="7.306777005219226"><ele>295.0</ele><time>2026-04-22T12:35:12.999Z</time></trkpt><trkpt lat="43.71202920819863" lon="7.306704236328495"><ele>295.0</ele><time>2026-04-22T12:35:13.999Z</time></trkpt><trkpt lat="43.71194837125334" lon="7.306658235921404"><ele>290.66666666666663</ele><time>2026-04-22T12:35:14.999Z</time></trkpt><trkpt lat="43.711879753249555" lon="7.306594475355548"><ele>286.3333333333333</ele><time>2026-04-22T12:35:15.999Z</time></trkpt><trkpt lat="43.71181801149646" lon="7.306537062509076"><ele>282.0</ele><time>2026-04-22T12:35:16.999Z</time></trkpt><trkpt lat="43.7117655187742" lon="7.306486130444422"><ele>277.6666666666667</ele><time>2026-04-22T12:35:17.999Z</time></trkpt><trkpt lat="43.71164820216286" lon="7.306414804007048"><ele>273.33333333333337</ele><time>2026-04-22T12:35:19.999Z</time></trkpt><trkpt lat="43.71156865249496" lon="7.306436807635137"><ele>269.0</ele><time>2026-04-22T12:35:20.999Z</time></trkpt><trkpt lat="43.71150095440898" lon="7.306477535822856"><ele>269.0</ele><time>2026-04-22T12:35:21.999Z</time></trkpt><trkpt lat="43.71139601541319" lon="7.306481709954941"><ele>269.0</ele><time>2026-04-22T12:35:23.999Z</time></trkpt><trkpt lat="43.711284275253206" lon="7.306430590938766"><ele>269.0</ele><time>2026-04-22T12:35:25.999Z</time></trkpt><trkpt lat="43.71122703990362" lon="7.30638041779346"><ele>269.0</ele><time>2026-04-22T12:35:26.999Z</time></trkpt><trkpt lat="43.71117527827588" lon="7.306309291220319"><ele>269.0</ele><time>2026-04-22T12:35:27.999Z</time></trkpt><trkpt lat="43.71111389874443" lon="7.3062518984878"><ele>269.0</ele><time>2026-04-22T12:35:28.999Z</time></trkpt><trkpt lat="43.711059290533804" lon="7.3061874889781775"><ele>265.83333333333337</ele><time>2026-04-22T12:35:29.999Z</time></trkpt><trkpt lat="43.711022129012534" lon="7.306096944889931"><ele>262.6666666666667</ele><time>2026-04-22T12:35:30.999Z</time></trkpt><trkpt lat="43.7109927337209" lon="7.305990517765958"><ele>259.5</ele><time>2026-04-22T12:35:31.999Z</time></trkpt><trkpt lat="43.71095587130299" lon="7.305874165429094"><ele>256.3333333333333</ele><time>2026-04-22T12:35:32.999Z</time></trkpt><trkpt lat="43.71093484325595" lon="7.305753219184875"><ele>253.16666666666666</ele><time>2026-04-22T12:35:33.999Z</time></trkpt><trkpt lat="43.710902848815415" lon="7.305643780996348"><ele>250.0</ele><time>2026-04-22T12:35:34.999Z</time></trkpt><trkpt lat="43.710874847384225" lon="7.305542369746688"><ele>247.6</ele><time>2026-04-22T12:35:35.999Z</time></trkpt><trkpt lat="43.710860372739084" lon="7.3054476820082215"><ele>245.2</ele><time>2026-04-22T12:35:36.999Z</time></trkpt><trkpt lat="43.71079528480065" lon="7.305320130935732"><ele>242.8</ele><time>2026-04-22T12:35:38.998Z</time></trkpt><trkpt lat="43.710714301215006" lon="7.305290642441007"><ele>240.4</ele><time>2026-04-22T12:35:40.998Z</time></trkpt><trkpt lat="43.71063634551866" lon="7.3053649940514624"><ele>238.0</ele><time>2026-04-22T12:35:42.998Z</time></trkpt><trkpt lat="43.710569402030075" lon="7.305489789300681"><ele>238.0</ele><time>2026-04-22T12:35:44.998Z</time></trkpt><trkpt lat="43.71051676236373" lon="7.305541813486323"><ele>238.0</ele><time>2026-04-22T12:35:45.998Z</time></trkpt><trkpt lat="43.71048519533807" lon="7.305627779962317"><ele>238.0</ele><time>2026-04-22T12:35:46.998Z</time></trkpt><trkpt lat="43.710436245804246" lon="7.30569737123752"><ele>238.0</ele><time>2026-04-22T12:35:47.998Z</time></trkpt><trkpt lat="43.7103880279443" lon="7.305773392904333"><ele>238.0</ele><time>2026-04-22T12:35:48.998Z</time></trkpt><trkpt lat="43.710341022030136" lon="7.305847713616978"><ele>238.0</ele><time>2026-04-22T12:35:49.998Z</time></trkpt><trkpt lat="43.710292531569856" lon="7.305911151705375"><ele>238.0</ele><time>2026-04-22T12:35:50.998Z</time></trkpt><trkpt lat="43.71022418323675" lon="7.3060563968671195"><ele>239.14285714285714</ele><time>2026-04-22T12:35:52.998Z</time></trkpt><trkpt lat="43.710214626300974" lon="7.306149330363619"><ele>240.28571428571428</ele><time>2026-04-22T12:35:53.998Z</time></trkpt><trkpt lat="43.71021943050918" lon="7.3062440793727825"><ele>241.42857142857144</ele><time>2026-04-22T12:35:54.998Z</time></trkpt><trkpt lat="43.71022641527661" lon="7.3063372896328"><ele>242.57142857142858</ele><time>2026-04-22T12:35:55.998Z</time></trkpt><trkpt lat="43.710237122572096" lon="7.306433432380581"><ele>243.71428571428572</ele><time>2026-04-22T12:35:56.998Z</time></trkpt><trkpt lat="43.710245691736304" lon="7.306533425637714"><ele>244.8571428571429</ele><time>2026-04-22T12:35:57.998Z</time></trkpt><trkpt lat="43.710256154322394" lon="7.3066687508115935"><ele>246.00000000000003</ele><time>2026-04-22T12:35:59.998Z</time></trkpt><trkpt lat="43.71022676010532" lon="7.306768420081108"><ele>241.83333333333334</ele><time>2026-04-22T12:36:01.998Z</time></trkpt><trkpt lat="43.71014410696313" lon="7.30673930246926"><ele>237.66666666666669</ele><time>2026-04-22T12:36:03.998Z</time></trkpt><trkpt lat="43.71004449343888" lon="7.306671136068223"><ele>233.5</ele><time>2026-04-22T12:36:05.998Z</time></trkpt><trkpt lat="43.71000073279128" lon="7.3066038001691975"><ele>229.33333333333334</ele><time>2026-04-22T12:36:06.998Z</time></trkpt><trkpt lat="43.70994390127604" lon="7.30654753940577"><ele>225.16666666666669</ele><time>2026-04-22T12:36:07.998Z</time></trkpt><trkpt lat="43.709885104540106" lon="7.306489256043626"><ele>221.0</ele><time>2026-04-22T12:36:09Z</time></trkpt><trkpt lat="43.70981731163818" lon="7.30644799940366"><ele>222.14285714285717</ele><time>2026-04-22T12:36:10Z</time></trkpt><trkpt lat="43.70976597636646" lon="7.306371619310908"><ele>223.28571428571428</ele><time>2026-04-22T12:36:11Z</time></trkpt><trkpt lat="43.70969965318691" lon="7.306325455164563"><ele>224.42857142857144</ele><time>2026-04-22T12:36:12Z</time></trkpt><trkpt lat="43.709642002332544" lon="7.306268293607297"><ele>225.57142857142858</ele><time>2026-04-22T12:36:13Z</time></trkpt><trkpt lat="43.70960010759433" lon="7.306197802897183"><ele>226.71428571428572</ele><time>2026-04-22T12:36:14Z</time></trkpt><trkpt lat="43.7095480331977" lon="7.306141291936558"><ele>227.85714285714286</ele><time>2026-04-22T12:36:15Z</time></trkpt><trkpt lat="43.70949371347136" lon="7.3060823443948255"><ele>229.0</ele><time>2026-04-22T12:36:16Z</time></trkpt><trkpt lat="43.709422501878905" lon="7.30604959466928"><ele>225.16666666666666</ele><time>2026-04-22T12:36:17Z</time></trkpt><trkpt lat="43.70938080703052" lon="7.3059710631361074"><ele>221.33333333333331</ele><time>2026-04-22T12:36:18Z</time></trkpt><trkpt lat="43.70930646059435" lon="7.305860152767282"><ele>217.5</ele><time>2026-04-22T12:36:20Z</time></trkpt><trkpt lat="43.70924192598999" lon="7.305723070846822"><ele>213.66666666666669</ele><time>2026-04-22T12:36:22Z</time></trkpt><trkpt lat="43.70919984375368" lon="7.305658055404122"><ele>209.83333333333334</ele><time>2026-04-22T12:36:23Z</time></trkpt><trkpt lat="43.709180994473684" lon="7.305570574884999"><ele>206.0</ele><time>2026-04-22T12:36:23.999Z</time></trkpt><trkpt lat="43.70916876322072" lon="7.3054717594216365"><ele>205.83333333333334</ele><time>2026-04-22T12:36:24.999Z</time></trkpt><trkpt lat="43.709154651705774" lon="7.3053698162165395"><ele>205.66666666666669</ele><time>2026-04-22T12:36:25.999Z</time></trkpt><trkpt lat="43.70914485190708" lon="7.30527127349634"><ele>205.5</ele><time>2026-04-22T12:36:26.999Z</time></trkpt><trkpt lat="43.70914028424583" lon="7.305179530609244"><ele>205.33333333333331</ele><time>2026-04-22T12:36:27.999Z</time></trkpt><trkpt lat="43.709155836985374" lon="7.304998632764704"><ele>205.16666666666666</ele><time>2026-04-22T12:36:29.999Z</time></trkpt><trkpt lat="43.70916792747701" lon="7.3049056783240465"><ele>205.0</ele><time>2026-04-22T12:36:30.999Z</time></trkpt><trkpt lat="43.70918582829799" lon="7.3048186984399335"><ele>203.49999999999997</ele><time>2026-04-22T12:36:31.999Z</time></trkpt><trkpt lat="43.70919790363473" lon="7.3047325794748135"><ele>202.0</ele><time>2026-04-22T12:36:32.999Z</time></trkpt><trkpt lat="43.7091913579861" lon="7.304574168148531"><ele>200.5</ele><time>2026-04-22T12:36:34.999Z</time></trkpt><trkpt lat="43.709141446864365" lon="7.3044280359204965"><ele>199.0</ele><time>2026-04-22T12:36:36.999Z</time></trkpt><trkpt lat="43.70909024573583" lon="7.304366389594051"><ele>197.49999999999997</ele><time>2026-04-22T12:36:37.999Z</time></trkpt><trkpt lat="43.70904202383246" lon="7.304297079836585"><ele>196.0</ele><time>2026-04-22T12:36:38.999Z</time></trkpt><trkpt lat="43.70899280496793" lon="7.304217508226838"><ele>195.99999999999997</ele><time>2026-04-22T12:36:39.999Z</time></trkpt><trkpt lat="43.70894474770753" lon="7.304132457183801"><ele>196.0</ele><time>2026-04-22T12:36:40.999Z</time></trkpt><trkpt lat="43.708892349021795" lon="7.304043084679818"><ele>196.0</ele><time>2026-04-22T12:36:41.999Z</time></trkpt><trkpt lat="43.7088356863031" lon="7.303951563514872"><ele>196.0</ele><time>2026-04-22T12:36:42.999Z</time></trkpt><trkpt lat="43.708774696439" lon="7.303861148879515"><ele>195.99999999999997</ele><time>2026-04-22T12:36:43.999Z</time></trkpt><trkpt lat="43.70871300790776" lon="7.303771078370069"><ele>196.0</ele><time>2026-04-22T12:36:44.999Z</time></trkpt><trkpt lat="43.70863393048217" lon="7.303700029990774"><ele>195.49999999999997</ele><time>2026-04-22T12:36:45.999Z</time></trkpt><trkpt lat="43.708578454322485" lon="7.303597702001278"><ele>195.0</ele><time>2026-04-22T12:36:46.999Z</time></trkpt><trkpt lat="43.708505699009805" lon="7.303515731786154"><ele>194.5</ele><time>2026-04-22T12:36:47.999Z</time></trkpt><trkpt lat="43.708432776470204" lon="7.303451457487587"><ele>194.0</ele><time>2026-04-22T12:36:48.999Z</time></trkpt><trkpt lat="43.70836755618962" lon="7.303382290964601"><ele>193.49999999999997</ele><time>2026-04-22T12:36:49.999Z</time></trkpt><trkpt lat="43.70831074839219" lon="7.3033144034220365"><ele>193.0</ele><time>2026-04-22T12:36:50.999Z</time></trkpt><trkpt lat="43.70826637673329" lon="7.303250741670401"><ele>190.33333333333331</ele><time>2026-04-22T12:36:51.999Z</time></trkpt><trkpt lat="43.70819714096013" lon="7.303108399689549"><ele>187.66666666666666</ele><time>2026-04-22T12:36:53.999Z</time></trkpt><trkpt lat="43.708178465398234" lon="7.303008607277219"><ele>185.0</ele><time>2026-04-22T12:36:54.999Z</time></trkpt><trkpt lat="43.708150812443996" lon="7.302913647866952"><ele>182.33333333333331</ele><time>2026-04-22T12:36:55.999Z</time></trkpt><trkpt lat="43.70811090155565" lon="7.302824825813586"><ele>179.66666666666666</ele><time>2026-04-22T12:36:56.999Z</time></trkpt><trkpt lat="43.70808776173471" lon="7.3027263054183456"><ele>177.0</ele><time>2026-04-22T12:36:57.999Z</time></trkpt><trkpt lat="43.70808389106618" lon="7.302620078015155"><ele>176.5</ele><time>2026-04-22T12:36:58.999Z</time></trkpt><trkpt lat="43.70806323756051" lon="7.302519039732958"><ele>176.0</ele><time>2026-04-22T12:36:59.999Z</time></trkpt><trkpt lat="43.70803632637477" lon="7.302420699950306"><ele>175.5</ele><time>2026-04-22T12:37:00.999Z</time></trkpt><trkpt lat="43.70800729841545" lon="7.302324057239883"><ele>175.0</ele><time>2026-04-22T12:37:01.999Z</time></trkpt><trkpt lat="43.707961481387336" lon="7.30224467486849"><ele>174.5</ele><time>2026-04-22T12:37:02.999Z</time></trkpt><trkpt lat="43.707930493979504" lon="7.302157723905792"><ele>174.0</ele><time>2026-04-22T12:37:03.999Z</time></trkpt><trkpt lat="43.707859730705266" lon="7.3021014486720395"><ele>173.79999999999998</ele><time>2026-04-22T12:37:04.999Z</time></trkpt><trkpt lat="43.70779270485808" lon="7.302015949136283"><ele>173.6</ele><time>2026-04-22T12:37:05.999Z</time></trkpt><trkpt lat="43.70772380206115" lon="7.301921257177336"><ele>173.4</ele><time>2026-04-22T12:37:06.999Z</time></trkpt><trkpt lat="43.70764840822065" lon="7.301857851141034"><ele>173.2</ele><time>2026-04-22T12:37:07.999Z</time></trkpt><trkpt lat="43.7075495053453" lon="7.301844196784757"><ele>173.0</ele><time>2026-04-22T12:37:08.999Z</time></trkpt><trkpt lat="43.70745537819491" lon="7.301797196066349"><ele>171.0</ele><time>2026-04-22T12:37:09.999Z</time></trkpt><trkpt lat="43.7073546304461" lon="7.301789868840017"><ele>169.0</ele><time>2026-04-22T12:37:10.999Z</time></trkpt><trkpt lat="43.70727111006487" lon="7.301764765614968"><ele>167.0</ele><time>2026-04-22T12:37:11.999Z</time></trkpt><trkpt lat="43.70718642636148" lon="7.30171321763667"><ele>165.0</ele><time>2026-04-22T12:37:12.999Z</time></trkpt><trkpt lat="43.70710591815949" lon="7.301649249422689"><ele>163.0</ele><time>2026-04-22T12:37:13.999Z</time></trkpt><trkpt lat="43.70701623564143" lon="7.301572476652072"><ele>161.8</ele><time>2026-04-22T12:37:14.999Z</time></trkpt><trkpt lat="43.706892596835736" lon="7.301462830488268"><ele>160.60000000000002</ele><time>2026-04-22T12:37:16.999Z</time></trkpt><trkpt lat="43.70681540316091" lon="7.30139377679034"><ele>159.39999999999998</ele><time>2026-04-22T12:37:17.999Z</time></trkpt><trkpt lat="43.70673872086789" lon="7.301324063493222"><ele>158.2</ele><time>2026-04-22T12:37:18.999Z</time></trkpt><trkpt lat="43.70666213438151" lon="7.301255914645739"><ele>157.0</ele><time>2026-04-22T12:37:19.999Z</time></trkpt><trkpt lat="43.706585477487266" lon="7.301189096891789"><ele>157.0</ele><time>2026-04-22T12:37:20.999Z</time></trkpt><trkpt lat="43.70651199580297" lon="7.3011382625938115"><ele>157.0</ele><time>2026-04-22T12:37:21.999Z</time></trkpt><trkpt lat="43.706451854498575" lon="7.301072544910959"><ele>157.0</ele><time>2026-04-22T12:37:22.999Z</time></trkpt><trkpt lat="43.706390851672325" lon="7.301030225664527"><ele>157.0</ele><time>2026-04-22T12:37:23.999Z</time></trkpt><trkpt lat="43.70634039452876" lon="7.300970125177099"><ele>157.0</ele><time>2026-04-22T12:37:24.999Z</time></trkpt><trkpt lat="43.706262267509715" lon="7.300856050341624"><ele>157.0</ele><time>2026-04-22T12:37:26.999Z</time></trkpt><trkpt lat="43.706196336695456" lon="7.300792590981029"><ele>157.0</ele><time>2026-04-22T12:37:28.999Z</time></trkpt><trkpt lat="43.70613315795305" lon="7.300738694596367"><ele>157.0</ele><time>2026-04-22T12:37:32.999Z</time></trkpt><trkpt lat="43.70610502151213" lon="7.300818406120766"><ele>157.0</ele><time>2026-04-22T12:38:34.999Z</time></trkpt><trkpt lat="43.70602249821795" lon="7.300900839418178"><ele>157.0</ele><time>2026-04-22T12:38:37.999Z</time></trkpt><trkpt lat="43.70593324328757" lon="7.300954196403676"><ele>157.0</ele><time>2026-04-22T12:38:39.999Z</time></trkpt><trkpt lat="43.705896747873176" lon="7.300830610493403"><ele>157.0</ele><time>2026-04-22T12:38:41.999Z</time></trkpt><trkpt lat="43.705806839392125" lon="7.300870756205536"><ele>156.0</ele><time>2026-04-22T12:38:42.999Z</time></trkpt><trkpt lat="43.705705147708436" lon="7.300771975849468"><ele>155.0</ele><time>2026-04-22T12:38:44.999Z</time></trkpt><trkpt lat="43.70560690187869" lon="7.300686140297881"><ele>154.0</ele><time>2026-04-22T12:38:46.998Z</time></trkpt><trkpt lat="43.70552010063204" lon="7.300611671892887"><ele>153.0</ele><time>2026-04-22T12:38:48.998Z</time></trkpt><trkpt lat="43.70543285609869" lon="7.3005370106744"><ele>152.0</ele><time>2026-04-22T12:38:50.998Z</time></trkpt><trkpt lat="43.70535524831072" lon="7.300440232152588"><ele>150.83333333333331</ele><time>2026-04-22T12:38:52.998Z</time></trkpt><trkpt lat="43.70527606004272" lon="7.3003685172747685"><ele>149.66666666666666</ele><time>2026-04-22T12:38:54.998Z</time></trkpt><trkpt lat="43.70521105292202" lon="7.300309263817208"><ele>148.5</ele><time>2026-04-22T12:38:57.998Z</time></trkpt><trkpt lat="43.70514176555862" lon="7.300247489547757"><ele>147.33333333333334</ele><time>2026-04-22T12:39:09.998Z</time></trkpt><trkpt lat="43.70506455019222" lon="7.300180232894357"><ele>146.16666666666669</ele><time>2026-04-22T12:39:12.998Z</time></trkpt><trkpt lat="43.70499334894841" lon="7.300118862659964"><ele>145.0</ele><time>2026-04-22T12:39:14.998Z</time></trkpt><trkpt lat="43.70488092723089" lon="7.300040154171181"><ele>145.0</ele><time>2026-04-22T12:39:16.998Z</time></trkpt><trkpt lat="43.70481456081532" lon="7.299977756808226"><ele>145.0</ele><time>2026-04-22T12:39:17.998Z</time></trkpt><trkpt lat="43.70475297524066" lon="7.299919847291086"><ele>145.0</ele><time>2026-04-22T12:39:18.998Z</time></trkpt><trkpt lat="43.704683413019936" lon="7.299858785757822"><ele>145.0</ele><time>2026-04-22T12:39:19.998Z</time></trkpt><trkpt lat="43.70462012848961" lon="7.299773285013243"><ele>145.0</ele><time>2026-04-22T12:39:20.998Z</time></trkpt><trkpt lat="43.704548113512416" lon="7.299704584129948"><ele>145.0</ele><time>2026-04-22T12:39:21.998Z</time></trkpt><trkpt lat="43.704477894217256" lon="7.2996395234889535"><ele>143.0</ele><time>2026-04-22T12:39:22.998Z</time></trkpt><trkpt lat="43.70440919949679" lon="7.299577111954911"><ele>141.0</ele><time>2026-04-22T12:39:23.998Z</time></trkpt><trkpt lat="43.70433342325508" lon="7.299508990431804"><ele>139.0</ele><time>2026-04-22T12:39:24.998Z</time></trkpt><trkpt lat="43.70425752980335" lon="7.299440514879593"><ele>137.0</ele><time>2026-04-22T12:39:25.998Z</time></trkpt><trkpt lat="43.70418079134026" lon="7.2993706780607335"><ele>135.0</ele><time>2026-04-22T12:39:26.998Z</time></trkpt><trkpt lat="43.70408612065367" lon="7.299395049576448"><ele>135.0</ele><time>2026-04-22T12:39:27.998Z</time></trkpt><trkpt lat="43.70403151826679" lon="7.299340683069499"><ele>135.0</ele><time>2026-04-22T12:39:28.998Z</time></trkpt><trkpt lat="43.703942940368364" lon="7.299242415613293"><ele>135.0</ele><time>2026-04-22T12:39:30.998Z</time></trkpt><trkpt lat="43.7039013542934" lon="7.299171958857305"><ele>135.0</ele><time>2026-04-22T12:39:35.998Z</time></trkpt><trkpt lat="43.70380855898954" lon="7.2990861298663035"><ele>135.0</ele><time>2026-04-22T12:39:37.999Z</time></trkpt><trkpt lat="43.70372158721002" lon="7.299001282414886"><ele>135.0</ele><time>2026-04-22T12:39:39.999Z</time></trkpt><trkpt lat="43.703645968565716" lon="7.298933562076302"><ele>135.0</ele><time>2026-04-22T12:39:41.998Z</time></trkpt><trkpt lat="43.70357878526252" lon="7.298871899970578"><ele>135.0</ele><time>2026-04-22T12:39:43.998Z</time></trkpt><trkpt lat="43.703519228004005" lon="7.298816989611808"><ele>135.0</ele><time>2026-04-22T12:39:45.998Z</time></trkpt><trkpt lat="43.703448184356645" lon="7.298754668956403"><ele>135.0</ele><time>2026-04-22T12:39:47.998Z</time></trkpt><trkpt lat="43.703362412076174" lon="7.298648333554203"><ele>135.0</ele><time>2026-04-22T12:39:49.998Z</time></trkpt><trkpt lat="43.7032997202019" lon="7.298595139096183"><ele>133.33333333333334</ele><time>2026-04-22T12:39:50.998Z</time></trkpt><trkpt lat="43.703232157430996" lon="7.298537779836257"><ele>131.66666666666666</ele><time>2026-04-22T12:39:51.998Z</time></trkpt><trkpt lat="43.70316635453859" lon="7.298481695248717"><ele>130.0</ele><time>2026-04-22T12:39:52.998Z</time></trkpt><trkpt lat="43.70310373798971" lon="7.29842799874934"><ele>128.33333333333331</ele><time>2026-04-22T12:39:53.998Z</time></trkpt><trkpt lat="43.70303619171618" lon="7.298369052743662"><ele>126.66666666666666</ele><time>2026-04-22T12:39:54.998Z</time></trkpt><trkpt lat="43.70296839449896" lon="7.2983098876966315"><ele>125.0</ele><time>2026-04-22T12:39:55.998Z</time></trkpt><trkpt lat="43.70289533563439" lon="7.29824611715153"><ele>125.0</ele><time>2026-04-22T12:39:56.998Z</time></trkpt><trkpt lat="43.70282078620632" lon="7.298180949979317"><ele>125.0</ele><time>2026-04-22T12:39:57.998Z</time></trkpt><trkpt lat="43.702742254379" lon="7.298111365969239"><ele>125.0</ele><time>2026-04-22T12:39:58.998Z</time></trkpt><trkpt lat="43.702665692851085" lon="7.298042104494157"><ele>125.0</ele><time>2026-04-22T12:39:59.998Z</time></trkpt><trkpt lat="43.702586711195316" lon="7.297972395470013"><ele>125.0</ele><time>2026-04-22T12:40:00.998Z</time></trkpt><trkpt lat="43.70250398605461" lon="7.297900356771786"><ele>123.0</ele><time>2026-04-22T12:40:01.998Z</time></trkpt><trkpt lat="43.7024176196369" lon="7.297825680825145"><ele>121.0</ele><time>2026-04-22T12:40:02.998Z</time></trkpt><trkpt lat="43.70233567916319" lon="7.297754831735841"><ele>119.0</ele><time>2026-04-22T12:40:03.998Z</time></trkpt><trkpt lat="43.70225012405117" lon="7.297681459887753"><ele>117.0</ele><time>2026-04-22T12:40:04.998Z</time></trkpt><trkpt lat="43.702168240222065" lon="7.297611413093884"><ele>115.0</ele><time>2026-04-22T12:40:05.998Z</time></trkpt><trkpt lat="43.70208582433954" lon="7.297542969414422"><ele>115.0</ele><time>2026-04-22T12:40:06.998Z</time></trkpt><trkpt lat="43.70200457334468" lon="7.2974769449844255"><ele>115.0</ele><time>2026-04-22T12:40:07.998Z</time></trkpt><trkpt lat="43.701923265146654" lon="7.297410924074445"><ele>115.0</ele><time>2026-04-22T12:40:08.998Z</time></trkpt><trkpt lat="43.70183030913653" lon="7.297370033048241"><ele>115.0</ele><time>2026-04-22T12:40:09.998Z</time></trkpt><trkpt lat="43.70174534186597" lon="7.297303698661714"><ele>115.0</ele><time>2026-04-22T12:40:10.998Z</time></trkpt><trkpt lat="43.70165862876286" lon="7.29723598059858"><ele>113.6</ele><time>2026-04-22T12:40:11.998Z</time></trkpt><trkpt lat="43.70157040702234" lon="7.29716528794369"><ele>112.2</ele><time>2026-04-22T12:40:12.998Z</time></trkpt><trkpt lat="43.701480702611754" lon="7.2970939294926955"><ele>110.80000000000001</ele><time>2026-04-22T12:40:13.998Z</time></trkpt><trkpt lat="43.70138802536465" lon="7.29701889456673"><ele>109.4</ele><time>2026-04-22T12:40:14.998Z</time></trkpt><trkpt lat="43.70129418411535" lon="7.296945300371154"><ele>108.0</ele><time>2026-04-22T12:40:15.998Z</time></trkpt><trkpt lat="43.70119922523022" lon="7.296871623932743"><ele>108.0</ele><time>2026-04-22T12:40:16.998Z</time></trkpt><trkpt lat="43.701103138414936" lon="7.296796991139599"><ele>108.00000000000001</ele><time>2026-04-22T12:40:17.998Z</time></trkpt><trkpt lat="43.70100894804443" lon="7.2967239812664"><ele>108.00000000000001</ele><time>2026-04-22T12:40:18.998Z</time></trkpt><trkpt lat="43.70091836424801" lon="7.296652549169452"><ele>108.0</ele><time>2026-04-22T12:40:19.999Z</time></trkpt><trkpt lat="43.70083143695784" lon="7.2965869856860115"><ele>108.0</ele><time>2026-04-22T12:40:20.999Z</time></trkpt><trkpt lat="43.7007508780575" lon="7.296525678627422"><ele>106.33333333333333</ele><time>2026-04-22T12:40:21.999Z</time></trkpt><trkpt lat="43.700675002455974" lon="7.296465025224059"><ele>104.66666666666666</ele><time>2026-04-22T12:40:23Z</time></trkpt><trkpt lat="43.700597057346556" lon="7.296407916955585"><ele>103.0</ele><time>2026-04-22T12:40:24Z</time></trkpt><trkpt lat="43.70052092351072" lon="7.2963540532902655"><ele>101.33333333333333</ele><time>2026-04-22T12:40:25Z</time></trkpt><trkpt lat="43.70045537167421" lon="7.296264856617226"><ele>99.66666666666666</ele><time>2026-04-22T12:40:26Z</time></trkpt><trkpt lat="43.70037613326625" lon="7.296219748727673"><ele>98.0</ele><time>2026-04-22T12:40:27Z</time></trkpt><trkpt lat="43.70029710303617" lon="7.296179359748511"><ele>99.33333333333333</ele><time>2026-04-22T12:40:28Z</time></trkpt><trkpt lat="43.70021651189328" lon="7.296143303905604"><ele>100.66666666666666</ele><time>2026-04-22T12:40:29Z</time></trkpt><trkpt lat="43.70013683624994" lon="7.296107669240075"><ele>102.0</ele><time>2026-04-22T12:40:30Z</time></trkpt><trkpt lat="43.70005570559173" lon="7.296072908224251"><ele>103.33333333333334</ele><time>2026-04-22T12:40:31Z</time></trkpt><trkpt lat="43.699973299232624" lon="7.296038631939626"><ele>104.66666666666667</ele><time>2026-04-22T12:40:32Z</time></trkpt><trkpt lat="43.69988816759579" lon="7.29600383130977"><ele>106.0</ele><time>2026-04-22T12:40:33Z</time></trkpt><trkpt lat="43.69980229939856" lon="7.29596957936197"><ele>106.00000000000001</ele><time>2026-04-22T12:40:34Z</time></trkpt><trkpt lat="43.699713946917335" lon="7.295934336457455"><ele>106.0</ele><time>2026-04-22T12:40:35Z</time></trkpt><trkpt lat="43.69962699101524" lon="7.295899794452227"><ele>106.0</ele><time>2026-04-22T12:40:36Z</time></trkpt><trkpt lat="43.699551400115126" lon="7.295870019355285"><ele>106.0</ele><time>2026-04-22T12:40:37Z</time></trkpt><trkpt lat="43.699483480339275" lon="7.295843265878719"><ele>106.00000000000001</ele><time>2026-04-22T12:40:38Z</time></trkpt><trkpt lat="43.699417006878136" lon="7.295817082117099"><ele>106.0</ele><time>2026-04-22T12:40:39Z</time></trkpt><trkpt lat="43.69935203699903" lon="7.2957914906075185"><ele>106.00000000000001</ele><time>2026-04-22T12:40:40Z</time></trkpt><trkpt lat="43.69924691858749" lon="7.295773923012583"><ele>106.0</ele><time>2026-04-22T12:40:42Z</time></trkpt><trkpt lat="43.69917634876799" lon="7.295722085231521"><ele>106.0</ele><time>2026-04-22T12:40:44Z</time></trkpt><trkpt lat="43.69910199348511" lon="7.295692423462626"><ele>106.0</ele><time>2026-04-22T12:40:46Z</time></trkpt><trkpt lat="43.69901818506214" lon="7.295658990655623"><ele>106.00000000000001</ele><time>2026-04-22T12:40:48Z</time></trkpt><trkpt lat="43.69895206208483" lon="7.29563158299299"><ele>106.0</ele><time>2026-04-22T12:40:49Z</time></trkpt><trkpt lat="43.698875671280156" lon="7.295599262133154"><ele>104.33333333333334</ele><time>2026-04-22T12:40:50Z</time></trkpt><trkpt lat="43.6987992596968" lon="7.2955669789357485"><ele>102.66666666666667</ele><time>2026-04-22T12:40:51Z</time></trkpt><trkpt lat="43.69872744363385" lon="7.2955367787750625"><ele>101.0</ele><time>2026-04-22T12:40:52Z</time></trkpt><trkpt lat="43.6986507106027" lon="7.295504510918374"><ele>99.33333333333334</ele><time>2026-04-22T12:40:53Z</time></trkpt><trkpt lat="43.69857277223944" lon="7.295472566395662"><ele>97.66666666666667</ele><time>2026-04-22T12:40:54Z</time></trkpt><trkpt lat="43.69849668979094" lon="7.295441792625345"><ele>96.0</ele><time>2026-04-22T12:40:55Z</time></trkpt><trkpt lat="43.698420660514685" lon="7.295411190928482"><ele>96.0</ele><time>2026-04-22T12:40:56Z</time></trkpt><trkpt lat="43.698342072472514" lon="7.2953807374246304"><ele>96.0</ele><time>2026-04-22T12:40:57Z</time></trkpt><trkpt lat="43.69826256885026" lon="7.295349815205819"><ele>96.0</ele><time>2026-04-22T12:40:58Z</time></trkpt><trkpt lat="43.698176169460325" lon="7.29533930124095"><ele>96.0</ele><time>2026-04-22T12:40:59Z</time></trkpt><trkpt lat="43.69809417713158" lon="7.295283565541759"><ele>96.0</ele><time>2026-04-22T12:41:00Z</time></trkpt><trkpt lat="43.69800555966877" lon="7.295248434651363"><ele>96.0</ele><time>2026-04-22T12:41:01Z</time></trkpt><trkpt lat="43.697925931929014" lon="7.295220803971872"><ele>96.0</ele><time>2026-04-22T12:41:02Z</time></trkpt><trkpt lat="43.697831924719004" lon="7.295181735111329"><ele>96.0</ele><time>2026-04-22T12:41:03Z</time></trkpt><trkpt lat="43.69772358980963" lon="7.295142661986122"><ele>96.0</ele><time>2026-04-22T12:41:04Z</time></trkpt><trkpt lat="43.69761444243611" lon="7.295109714144923"><ele>96.0</ele><time>2026-04-22T12:41:05Z</time></trkpt><trkpt lat="43.69751361450902" lon="7.295073507032422"><ele>96.0</ele><time>2026-04-22T12:41:06Z</time></trkpt><trkpt lat="43.69742479570086" lon="7.294985654008339"><ele>95.8</ele><time>2026-04-22T12:41:07Z</time></trkpt><trkpt lat="43.69735044456526" lon="7.29488896375588"><ele>95.6</ele><time>2026-04-22T12:41:08Z</time></trkpt><trkpt lat="43.69728440464533" lon="7.294767485991845"><ele>95.4</ele><time>2026-04-22T12:41:09Z</time></trkpt><trkpt lat="43.69724436365259" lon="7.294624398482403"><ele>95.2</ele><time>2026-04-22T12:41:10Z</time></trkpt><trkpt lat="43.69722592684669" lon="7.2944731837170425"><ele>95.0</ele><time>2026-04-22T12:41:11Z</time></trkpt><trkpt lat="43.697247460192465" lon="7.294331453988893"><ele>93.4</ele><time>2026-04-22T12:41:12Z</time></trkpt><trkpt lat="43.697281832530784" lon="7.2942010395994235"><ele>91.8</ele><time>2026-04-22T12:41:13Z</time></trkpt><trkpt lat="43.69732618910761" lon="7.294077719761815"><ele>90.19999999999999</ele><time>2026-04-22T12:41:14Z</time></trkpt><trkpt lat="43.697403994614106" lon="7.293992347539282"><ele>88.6</ele><time>2026-04-22T12:41:15Z</time></trkpt><trkpt lat="43.69748646402186" lon="7.293924737804238"><ele>87.0</ele><time>2026-04-22T12:41:16Z</time></trkpt><trkpt lat="43.69757834965942" lon="7.2938787917402"><ele>84.0</ele><time>2026-04-22T12:41:17Z</time></trkpt><trkpt lat="43.69768754618449" lon="7.293877209225707"><ele>81.0</ele><time>2026-04-22T12:41:18Z</time></trkpt><trkpt lat="43.6978040042318" lon="7.293867005280278"><ele>78.0</ele><time>2026-04-22T12:41:19Z</time></trkpt><trkpt lat="43.697916154118516" lon="7.293884298160349"><ele>75.0</ele><time>2026-04-22T12:41:20Z</time></trkpt><trkpt lat="43.69802663693598" lon="7.29389235290395"><ele>72.0</ele><time>2026-04-22T12:41:21Z</time></trkpt><trkpt lat="43.69813166456632" lon="7.2938946826181565"><ele>71.6</ele><time>2026-04-22T12:41:22Z</time></trkpt><trkpt lat="43.69823721964733" lon="7.293890520408803"><ele>71.2</ele><time>2026-04-22T12:41:23Z</time></trkpt><trkpt lat="43.698341657831456" lon="7.293886535620813"><ele>70.8</ele><time>2026-04-22T12:41:24Z</time></trkpt><trkpt lat="43.698444493309196" lon="7.293885774089572"><ele>70.4</ele><time>2026-04-22T12:41:25Z</time></trkpt><trkpt lat="43.6985425549281" lon="7.293884330823874"><ele>70.0</ele><time>2026-04-22T12:41:26Z</time></trkpt><trkpt lat="43.69863700745606" lon="7.293874983173257"><ele>70.0</ele><time>2026-04-22T12:41:27Z</time></trkpt><trkpt lat="43.698723394065006" lon="7.293858471997135"><ele>70.0</ele><time>2026-04-22T12:41:28Z</time></trkpt><trkpt lat="43.69879786928522" lon="7.293851915712204"><ele>70.0</ele><time>2026-04-22T12:41:29Z</time></trkpt><trkpt lat="43.69889727919073" lon="7.293851155911563"><ele>70.0</ele><time>2026-04-22T12:41:31Z</time></trkpt><trkpt lat="43.698948609380494" lon="7.293709258344442"><ele>70.0</ele><time>2026-04-22T12:41:42Z</time></trkpt><trkpt lat="43.698869454503466" lon="7.2936759069421715"><ele>70.0</ele><time>2026-04-22T12:41:44Z</time></trkpt><trkpt lat="43.69880549923371" lon="7.293667758457446"><ele>70.0</ele><time>2026-04-22T12:41:45Z</time></trkpt><trkpt lat="43.6987203429975" lon="7.293666250738651"><ele>70.0</ele><time>2026-04-22T12:41:46Z</time></trkpt><trkpt lat="43.6986035412344" lon="7.293662847088603"><ele>70.0</ele><time>2026-04-22T12:41:46.999Z</time></trkpt><trkpt lat="43.69848759818691" lon="7.293661517637325"><ele>70.0</ele><time>2026-04-22T12:41:47.999Z</time></trkpt><trkpt lat="43.69838934133772" lon="7.293659550730947"><ele>70.0</ele><time>2026-04-22T12:41:48.999Z</time></trkpt><trkpt lat="43.698300608836426" lon="7.293680190658231"><ele>70.0</ele><time>2026-04-22T12:41:49.999Z</time></trkpt><trkpt lat="43.698212599597376" lon="7.293650553263082"><ele>70.0</ele><time>2026-04-22T12:41:50.999Z</time></trkpt><trkpt lat="43.69813400463825" lon="7.293630823107968"><ele>70.0</ele><time>2026-04-22T12:41:51.999Z</time></trkpt><trkpt lat="43.69805628014795" lon="7.293595559101189"><ele>70.0</ele><time>2026-04-22T12:41:52.999Z</time></trkpt><trkpt lat="43.69797885267386" lon="7.293562621172653"><ele>70.0</ele><time>2026-04-22T12:41:53.999Z</time></trkpt><trkpt lat="43.69788789671669" lon="7.293520770395996"><ele>70.0</ele><time>2026-04-22T12:41:54.999Z</time></trkpt><trkpt lat="43.69779469979656" lon="7.293481066569797"><ele>70.0</ele><time>2026-04-22T12:41:55.999Z</time></trkpt><trkpt lat="43.69770936701455" lon="7.293445973479516"><ele>70.0</ele><time>2026-04-22T12:41:56.999Z</time></trkpt><trkpt lat="43.69762417264333" lon="7.29340963672163"><ele>70.0</ele><time>2026-04-22T12:41:57.999Z</time></trkpt><trkpt lat="43.69754469865761" lon="7.293374707852052"><ele>70.0</ele><time>2026-04-22T12:41:58.999Z</time></trkpt><trkpt lat="43.697469736972195" lon="7.293335093214467"><ele>70.0</ele><time>2026-04-22T12:41:59.999Z</time></trkpt><trkpt lat="43.69740527475295" lon="7.2932857420803465"><ele>70.4</ele><time>2026-04-22T12:42:00.999Z</time></trkpt><trkpt lat="43.69734815467147" lon="7.293228758514563"><ele>70.8</ele><time>2026-04-22T12:42:01.999Z</time></trkpt><trkpt lat="43.69727440991747" lon="7.293121602596255"><ele>71.2</ele><time>2026-04-22T12:42:03.999Z</time></trkpt><trkpt lat="43.69730751870393" lon="7.29300454349743"><ele>71.6</ele><time>2026-04-22T12:42:05.999Z</time></trkpt><trkpt lat="43.697291233120325" lon="7.292858776145011"><ele>72.0</ele><time>2026-04-22T12:42:07.999Z</time></trkpt><trkpt lat="43.69719818692062" lon="7.292733693078047"><ele>70.33333333333333</ele><time>2026-04-22T12:42:09.999Z</time></trkpt><trkpt lat="43.697131247639796" lon="7.292672279132286"><ele>68.66666666666667</ele><time>2026-04-22T12:42:10.999Z</time></trkpt><trkpt lat="43.69704453407047" lon="7.292658826877042"><ele>67.0</ele><time>2026-04-22T12:42:11.999Z</time></trkpt><trkpt lat="43.69699355013572" lon="7.292599091146228"><ele>65.33333333333334</ele><time>2026-04-22T12:42:12.999Z</time></trkpt><trkpt lat="43.69693544084025" lon="7.292557082996345"><ele>63.66666666666667</ele><time>2026-04-22T12:42:13.999Z</time></trkpt><trkpt lat="43.696863450904495" lon="7.29248532487285"><ele>62.0</ele><time>2026-04-22T12:42:15.999Z</time></trkpt><trkpt lat="43.696795579555236" lon="7.292418878248895"><ele>60.0</ele><time>2026-04-22T12:42:17.999Z</time></trkpt><trkpt lat="43.69669894982051" lon="7.292363798288313"><ele>58.0</ele><time>2026-04-22T12:42:19.999Z</time></trkpt><trkpt lat="43.69659672982534" lon="7.2924256617638274"><ele>56.0</ele><time>2026-04-22T12:42:21.999Z</time></trkpt><trkpt lat="43.69653507136853" lon="7.292509580799524"><ele>54.0</ele><time>2026-04-22T12:42:23.999Z</time></trkpt><trkpt lat="43.69643595193659" lon="7.292573125072533"><ele>52.0</ele><time>2026-04-22T12:42:26Z</time></trkpt><trkpt lat="43.69636886253777" lon="7.29263520282493"><ele>51.99999999999999</ele><time>2026-04-22T12:42:27Z</time></trkpt><trkpt lat="43.696300516490524" lon="7.292710785119197"><ele>52.0</ele><time>2026-04-22T12:42:28Z</time></trkpt><trkpt lat="43.69623575841756" lon="7.292780482592094"><ele>52.0</ele><time>2026-04-22T12:42:29Z</time></trkpt><trkpt lat="43.69617627940627" lon="7.292851960264423"><ele>52.0</ele><time>2026-04-22T12:42:30Z</time></trkpt><trkpt lat="43.696139060498524" lon="7.292948990460705"><ele>51.99999999999999</ele><time>2026-04-22T12:42:31Z</time></trkpt><trkpt lat="43.696094472920116" lon="7.293011045565492"><ele>52.0</ele><time>2026-04-22T12:42:32Z</time></trkpt><trkpt lat="43.696026947736925" lon="7.29306456783333"><ele>52.0</ele><time>2026-04-22T12:42:34Z</time></trkpt><trkpt lat="43.69598701899495" lon="7.292980736786213"><ele>52.0</ele><time>2026-04-22T12:42:35Z</time></trkpt><trkpt lat="43.69593459952102" lon="7.2928778258448475"><ele>52.0</ele><time>2026-04-22T12:42:37Z</time></trkpt><trkpt lat="43.69599264640342" lon="7.292759617713119"><ele>52.0</ele><time>2026-04-22T12:42:39Z</time></trkpt><trkpt lat="43.69608015579548" lon="7.292665347600591"><ele>52.0</ele><time>2026-04-22T12:42:41Z</time></trkpt><trkpt lat="43.69616780152587" lon="7.292546726135184"><ele>51.99999999999999</ele><time>2026-04-22T12:42:43Z</time></trkpt><trkpt lat="43.69621183615926" lon="7.292477917441957"><ele>52.0</ele><time>2026-04-22T12:42:44Z</time></trkpt><trkpt lat="43.696262264208" lon="7.292410769141534"><ele>52.0</ele><time>2026-04-22T12:42:45Z</time></trkpt><trkpt lat="43.696343895545986" lon="7.292328121666851"><ele>52.0</ele><time>2026-04-22T12:42:47Z</time></trkpt><trkpt lat="43.696402343460065" lon="7.292250799233852"><ele>51.99999999999999</ele><time>2026-04-22T12:43:48.999Z</time></trkpt><trkpt lat="43.69640378801027" lon="7.292082261983529"><ele>52.0</ele><time>2026-04-22T12:43:51.999Z</time></trkpt><trkpt lat="43.696503250096754" lon="7.2919705087944235"><ele>50.33333333333333</ele><time>2026-04-22T12:43:53.999Z</time></trkpt><trkpt lat="43.69653983913539" lon="7.291882423460947"><ele>48.666666666666664</ele><time>2026-04-22T12:43:54.999Z</time></trkpt><trkpt lat="43.696558202261244" lon="7.291784583210129"><ele>47.0</ele><time>2026-04-22T12:43:55.999Z</time></trkpt><trkpt lat="43.69660449132484" lon="7.291696076988481"><ele>45.33333333333333</ele><time>2026-04-22T12:43:56.999Z</time></trkpt><trkpt lat="43.69661828653642" lon="7.29158129069539"><ele>43.666666666666664</ele><time>2026-04-22T12:43:57.999Z</time></trkpt><trkpt lat="43.696648569700194" lon="7.291460331079997"><ele>42.0</ele><time>2026-04-22T12:43:58.999Z</time></trkpt><trkpt lat="43.69666943353965" lon="7.29131989866452"><ele>41.0</ele><time>2026-04-22T12:43:59.999Z</time></trkpt><trkpt lat="43.69667993378239" lon="7.291183068971219"><ele>40.0</ele><time>2026-04-22T12:44:00.999Z</time></trkpt><trkpt lat="43.69668541398646" lon="7.291053893077212"><ele>39.0</ele><time>2026-04-22T12:44:01.999Z</time></trkpt><trkpt lat="43.69668796413494" lon="7.290930909948723"><ele>38.0</ele><time>2026-04-22T12:44:02.999Z</time></trkpt><trkpt lat="43.696690823285856" lon="7.290809212322696"><ele>37.0</ele><time>2026-04-22T12:44:03.999Z</time></trkpt><trkpt lat="43.69669389543872" lon="7.290690428220366"><ele>36.333333333333336</ele><time>2026-04-22T12:44:04.999Z</time></trkpt><trkpt lat="43.696695091763395" lon="7.290576669353049"><ele>35.66666666666667</ele><time>2026-04-22T12:44:05.999Z</time></trkpt><trkpt lat="43.696693753526084" lon="7.290462927182328"><ele>35.0</ele><time>2026-04-22T12:44:06.999Z</time></trkpt><trkpt lat="43.69669582659991" lon="7.290349922483164"><ele>34.333333333333336</ele><time>2026-04-22T12:44:07.999Z</time></trkpt><trkpt lat="43.6966946352461" lon="7.2902349738196115"><ele>33.666666666666664</ele><time>2026-04-22T12:44:08.999Z</time></trkpt><trkpt lat="43.69668903336728" lon="7.290122693831794"><ele>33.0</ele><time>2026-04-22T12:44:09.999Z</time></trkpt><trkpt lat="43.69670781462978" lon="7.290007751380496"><ele>33.0</ele><time>2026-04-22T12:44:10.999Z</time></trkpt><trkpt lat="43.69671127317073" lon="7.289889503896322"><ele>33.0</ele><time>2026-04-22T12:44:11.999Z</time></trkpt><trkpt lat="43.696714792042776" lon="7.289772117094614"><ele>33.0</ele><time>2026-04-22T12:44:12.999Z</time></trkpt><trkpt lat="43.696719746818985" lon="7.289656587705864"><ele>33.0</ele><time>2026-04-22T12:44:13.999Z</time></trkpt><trkpt lat="43.69671283597698" lon="7.289541755806609"><ele>33.0</ele><time>2026-04-22T12:44:14.999Z</time></trkpt><trkpt lat="43.6967280427342" lon="7.289431178060229"><ele>33.0</ele><time>2026-04-22T12:44:15.999Z</time></trkpt><trkpt lat="43.69675272981625" lon="7.289324216312418"><ele>32.5</ele><time>2026-04-22T12:44:16.999Z</time></trkpt><trkpt lat="43.696788267232066" lon="7.289225731242428"><ele>32.0</ele><time>2026-04-22T12:44:17.999Z</time></trkpt><trkpt lat="43.696856105074644" lon="7.289161326189945"><ele>31.5</ele><time>2026-04-22T12:44:18.999Z</time></trkpt><trkpt lat="43.6969105863154" lon="7.289089057647175"><ele>31.0</ele><time>2026-04-22T12:44:19.999Z</time></trkpt><trkpt lat="43.696973317904195" lon="7.289024943006545"><ele>30.5</ele><time>2026-04-22T12:44:20.999Z</time></trkpt><trkpt lat="43.69704693220425" lon="7.288978130130808"><ele>30.0</ele><time>2026-04-22T12:44:21.999Z</time></trkpt><trkpt lat="43.69712510892359" lon="7.288946083138243"><ele>27.5</ele><time>2026-04-22T12:44:22.999Z</time></trkpt><trkpt lat="43.69720639087959" lon="7.288925338723058"><ele>25.0</ele><time>2026-04-22T12:44:23.999Z</time></trkpt><trkpt lat="43.69728350357512" lon="7.288892480411104"><ele>22.5</ele><time>2026-04-22T12:44:24.999Z</time></trkpt><trkpt lat="43.697362945698416" lon="7.2888931283949985"><ele>20.0</ele><time>2026-04-22T12:44:25.999Z</time></trkpt><trkpt lat="43.69744274976499" lon="7.288893412038319"><ele>17.5</ele><time>2026-04-22T12:44:26.999Z</time></trkpt><trkpt lat="43.69752124466064" lon="7.288891819551743"><ele>15.0</ele><time>2026-04-22T12:44:27.999Z</time></trkpt><trkpt lat="43.697599904894126" lon="7.2888881641460355"><ele>15.0</ele><time>2026-04-22T12:44:28.999Z</time></trkpt><trkpt lat="43.69767610521624" lon="7.288885616399165"><ele>15.0</ele><time>2026-04-22T12:44:29.999Z</time></trkpt><trkpt lat="43.6977560676371" lon="7.288876638981417"><ele>15.0</ele><time>2026-04-22T12:44:30.999Z</time></trkpt><trkpt lat="43.697837395876014" lon="7.288848020140909"><ele>15.0</ele><time>2026-04-22T12:44:32Z</time></trkpt><trkpt lat="43.697911903780756" lon="7.288804251501461"><ele>15.0</ele><time>2026-04-22T12:44:33Z</time></trkpt><trkpt lat="43.69797387823128" lon="7.288739717403782"><ele>15.0</ele><time>2026-04-22T12:44:34Z</time></trkpt><trkpt lat="43.698031345005724" lon="7.288667379370749"><ele>15.0</ele><time>2026-04-22T12:44:35Z</time></trkpt><trkpt lat="43.69807780651284" lon="7.288580631430313"><ele>15.0</ele><time>2026-04-22T12:44:36Z</time></trkpt><trkpt lat="43.69811359470757" lon="7.2884869095619615"><ele>15.0</ele><time>2026-04-22T12:44:37Z</time></trkpt><trkpt lat="43.69813824620539" lon="7.28838731132035"><ele>15.0</ele><time>2026-04-22T12:44:38Z</time></trkpt><trkpt lat="43.69815828548055" lon="7.288285043534736"><ele>15.0</ele><time>2026-04-22T12:44:39Z</time></trkpt><trkpt lat="43.69816690394192" lon="7.288186824220968"><ele>15.0</ele><time>2026-04-22T12:44:40Z</time></trkpt><trkpt lat="43.698183634431764" lon="7.288033253747644"><ele>15.0</ele><time>2026-04-22T12:44:42Z</time></trkpt><trkpt lat="43.69819739612419" lon="7.287926907169495"><ele>15.0</ele><time>2026-04-22T12:44:44Z</time></trkpt><trkpt lat="43.69820771329657" lon="7.287824275569015"><ele>15.0</ele><time>2026-04-22T12:44:47Z</time></trkpt><trkpt lat="43.69820660663797" lon="7.287734907185848"><ele>15.0</ele><time>2026-04-22T12:45:26Z</time></trkpt><trkpt lat="43.69822075357505" lon="7.287611273967026"><ele>15.0</ele><time>2026-04-22T12:45:28Z</time></trkpt><trkpt lat="43.698233997926664" lon="7.287501793680476"><ele>15.0</ele><time>2026-04-22T12:45:30Z</time></trkpt><trkpt lat="43.69824827076801" lon="7.28738381167587"><ele>15.0</ele><time>2026-04-22T12:45:32Z</time></trkpt><trkpt lat="43.69825834047335" lon="7.287296998729541"><ele>15.0</ele><time>2026-04-22T12:45:34Z</time></trkpt><trkpt lat="43.69826917748689" lon="7.2872003743927145"><ele>15.0</ele><time>2026-04-22T12:45:43Z</time></trkpt><trkpt lat="43.69827960727967" lon="7.2870899665769"><ele>15.0</ele><time>2026-04-22T12:45:53Z</time></trkpt><trkpt lat="43.69829042037606" lon="7.286976195618693"><ele>15.0</ele><time>2026-04-22T12:45:56Z</time></trkpt><trkpt lat="43.69830251561674" lon="7.28685740560306"><ele>15.0</ele><time>2026-04-22T12:45:58Z</time></trkpt><trkpt lat="43.69831855932769" lon="7.2867054278950265"><ele>14.4</ele><time>2026-04-22T12:46:00Z</time></trkpt><trkpt lat="43.69831413604921" lon="7.286566651620827"><ele>13.8</ele><time>2026-04-22T12:46:02Z</time></trkpt><trkpt lat="43.69831908839887" lon="7.286440024232081"><ele>13.2</ele><time>2026-04-22T12:46:04Z</time></trkpt><trkpt lat="43.69837344934145" lon="7.2863218833400785"><ele>12.6</ele><time>2026-04-22T12:46:05.999Z</time></trkpt><trkpt lat="43.69844997922215" lon="7.286171730745719"><ele>12.0</ele><time>2026-04-22T12:46:07.999Z</time></trkpt><trkpt lat="43.698487766630016" lon="7.286093697778534"><ele>11.166666666666666</ele><time>2026-04-22T12:46:08.999Z</time></trkpt><trkpt lat="43.69852819778182" lon="7.28602434372495"><ele>10.333333333333334</ele><time>2026-04-22T12:46:09.999Z</time></trkpt><trkpt lat="43.69854632964772" lon="7.285910144519645"><ele>9.5</ele><time>2026-04-22T12:46:10.999Z</time></trkpt><trkpt lat="43.698538765120055" lon="7.285774099072912"><ele>8.666666666666668</ele><time>2026-04-22T12:46:11.999Z</time></trkpt><trkpt lat="43.69855135725128" lon="7.285645714688586"><ele>7.833333333333334</ele><time>2026-04-22T12:46:12.999Z</time></trkpt><trkpt lat="43.69855897542122" lon="7.285515542791413"><ele>7.0</ele><time>2026-04-22T12:46:13.999Z</time></trkpt><trkpt lat="43.69856454894519" lon="7.285379090146077"><ele>6.666666666666667</ele><time>2026-04-22T12:46:14.999Z</time></trkpt><trkpt lat="43.698569620777235" lon="7.285243526649185"><ele>6.333333333333334</ele><time>2026-04-22T12:46:15.999Z</time></trkpt><trkpt lat="43.698580281985365" lon="7.285120890794284"><ele>6.0</ele><time>2026-04-22T12:46:16.999Z</time></trkpt><trkpt lat="43.698594055123095" lon="7.285012502820914"><ele>5.666666666666667</ele><time>2026-04-22T12:46:17.999Z</time></trkpt><trkpt lat="43.6986083435026" lon="7.284912872099899"><ele>5.333333333333334</ele><time>2026-04-22T12:46:18.999Z</time></trkpt><trkpt lat="43.69862234938292" lon="7.28481846690837"><ele>5.0</ele><time>2026-04-22T12:46:19.999Z</time></trkpt><trkpt lat="43.698655541076135" lon="7.284732984041433"><ele>6.833333333333334</ele><time>2026-04-22T12:46:20.999Z</time></trkpt><trkpt lat="43.6986702520675" lon="7.284564194690494"><ele>8.666666666666666</ele><time>2026-04-22T12:46:22.999Z</time></trkpt><trkpt lat="43.698676227775834" lon="7.284476198767475"><ele>10.5</ele><time>2026-04-22T12:46:23.999Z</time></trkpt><trkpt lat="43.69866901263039" lon="7.284377811398635"><ele>12.333333333333332</ele><time>2026-04-22T12:46:24.999Z</time></trkpt><trkpt lat="43.698676970061314" lon="7.284283561751752"><ele>14.166666666666666</ele><time>2026-04-22T12:46:25.999Z</time></trkpt><trkpt lat="43.698690374010646" lon="7.284124995656888"><ele>16.0</ele><time>2026-04-22T12:46:27.999Z</time></trkpt><trkpt lat="43.69868968781026" lon="7.284004040371536"><ele>16.400000000000002</ele><time>2026-04-22T12:46:29.999Z</time></trkpt><trkpt lat="43.698636409921356" lon="7.283918697488599"><ele>16.8</ele><time>2026-04-22T12:46:31.999Z</time></trkpt><trkpt lat="43.698546489391525" lon="7.283851076624835"><ele>17.200000000000003</ele><time>2026-04-22T12:46:34.999Z</time></trkpt><trkpt lat="43.698468660863774" lon="7.283810172839376"><ele>17.6</ele><time>2026-04-22T12:46:36.999Z</time></trkpt><trkpt lat="43.698373199411606" lon="7.283775753801849"><ele>18.0</ele><time>2026-04-22T12:46:39Z</time></trkpt><trkpt lat="43.69825130632272" lon="7.28374291826188"><ele>17.2</ele><time>2026-04-22T12:46:41Z</time></trkpt><trkpt lat="43.698149224491345" lon="7.283712942938681"><ele>16.4</ele><time>2026-04-22T12:46:43Z</time></trkpt><trkpt lat="43.698045371469945" lon="7.283706990325879"><ele>15.599999999999998</ele><time>2026-04-22T12:46:45Z</time></trkpt><trkpt lat="43.69793964312137" lon="7.283691732848115"><ele>14.799999999999999</ele><time>2026-04-22T12:46:47Z</time></trkpt><trkpt lat="43.69784562516205" lon="7.283676625005515"><ele>14.0</ele><time>2026-04-22T12:46:49Z</time></trkpt><trkpt lat="43.69774548273294" lon="7.283659700942961"><ele>14.0</ele><time>2026-04-22T12:46:51Z</time></trkpt><trkpt lat="43.697639486733216" lon="7.283641190271573"><ele>13.999999999999998</ele><time>2026-04-22T12:46:53Z</time></trkpt><trkpt lat="43.697548675083965" lon="7.2836178699928285"><ele>13.999999999999998</ele><time>2026-04-22T12:46:55Z</time></trkpt><trkpt lat="43.697458191188" lon="7.283599688709079"><ele>14.0</ele><time>2026-04-22T12:46:57Z</time></trkpt><trkpt lat="43.697350392991304" lon="7.283584070660848"><ele>14.0</ele><time>2026-04-22T12:46:59Z</time></trkpt><trkpt lat="43.69727343643012" lon="7.283569986563891"><ele>14.0</ele><time>2026-04-22T12:47:01Z</time></trkpt><trkpt lat="43.69720662323701" lon="7.2835639797270275"><ele>13.999999999999998</ele><time>2026-04-22T12:47:03Z</time></trkpt><trkpt lat="43.69713884153719" lon="7.283546946084863"><ele>13.999999999999998</ele><time>2026-04-22T12:47:06Z</time></trkpt><trkpt lat="43.6970517091509" lon="7.283548516737126"><ele>14.0</ele><time>2026-04-22T12:47:21Z</time></trkpt><trkpt lat="43.696932811603325" lon="7.283521394414268"><ele>14.0</ele><time>2026-04-22T12:47:23Z</time></trkpt><trkpt lat="43.696823402609645" lon="7.283511740411537"><ele>13.6</ele><time>2026-04-22T12:47:25Z</time></trkpt><trkpt lat="43.696726566411854" lon="7.283494826873432"><ele>13.2</ele><time>2026-04-22T12:47:27Z</time></trkpt><trkpt lat="43.69663228681209" lon="7.2834783103593495"><ele>12.799999999999999</ele><time>2026-04-22T12:47:29Z</time></trkpt><trkpt lat="43.69653606938473" lon="7.283469586620052"><ele>12.399999999999999</ele><time>2026-04-22T12:47:31Z</time></trkpt><trkpt lat="43.69641775275065" lon="7.283466449257485"><ele>12.0</ele><time>2026-04-22T12:47:33Z</time></trkpt><trkpt lat="43.69635278190492" lon="7.283462372151023"><ele>12.0</ele><time>2026-04-22T12:47:34Z</time></trkpt><trkpt lat="43.69628705059689" lon="7.283457140870239"><ele>12.0</ele><time>2026-04-22T12:47:35Z</time></trkpt><trkpt lat="43.69621365753467" lon="7.28345391802529"><ele>12.0</ele><time>2026-04-22T12:47:36Z</time></trkpt><trkpt lat="43.69613505554408" lon="7.2834428201860195"><ele>12.0</ele><time>2026-04-22T12:47:37Z</time></trkpt><trkpt lat="43.696055645604524" lon="7.283434456839126"><ele>12.0</ele><time>2026-04-22T12:47:38Z</time></trkpt><trkpt lat="43.6959777304946" lon="7.283421075587876"><ele>12.0</ele><time>2026-04-22T12:47:39Z</time></trkpt><trkpt lat="43.69590418974153" lon="7.283408279719859"><ele>11.999999999999998</ele><time>2026-04-22T12:47:40Z</time></trkpt><trkpt lat="43.69583589521613" lon="7.283393431050555"><ele>12.0</ele><time>2026-04-22T12:47:41Z</time></trkpt><trkpt lat="43.69576692853041" lon="7.283377402067288"><ele>12.0</ele><time>2026-04-22T12:47:42Z</time></trkpt><trkpt lat="43.69569817554831" lon="7.283364620357086"><ele>12.0</ele><time>2026-04-22T12:47:43Z</time></trkpt><trkpt lat="43.69563130883638" lon="7.283350615011045"><ele>12.0</ele><time>2026-04-22T12:47:44Z</time></trkpt><trkpt lat="43.69556469309076" lon="7.283343720125325"><ele>11.999999999999998</ele><time>2026-04-22T12:47:45Z</time></trkpt><trkpt lat="43.695494994779686" lon="7.283327206925711"><ele>12.0</ele><time>2026-04-22T12:47:46Z</time></trkpt><trkpt lat="43.69542303722048" lon="7.283306387193331"><ele>11.999999999999998</ele><time>2026-04-22T12:47:47Z</time></trkpt><trkpt lat="43.69534874008153" lon="7.283286300323261"><ele>12.0</ele><time>2026-04-22T12:47:48Z</time></trkpt><trkpt lat="43.69527477184674" lon="7.283261707936315"><ele>12.0</ele><time>2026-04-22T12:47:49Z</time></trkpt><trkpt lat="43.6952009747159" lon="7.283238837429112"><ele>12.0</ele><time>2026-04-22T12:47:50Z</time></trkpt><trkpt lat="43.69512849179009" lon="7.283214271596032"><ele>12.0</ele><time>2026-04-22T12:47:51Z</time></trkpt><trkpt lat="43.695057585034" lon="7.283187965936186"><ele>11.999999999999998</ele><time>2026-04-22T12:47:52Z</time></trkpt><trkpt lat="43.69498793584575" lon="7.283161433177566"><ele>12.0</ele><time>2026-04-22T12:47:53Z</time></trkpt><trkpt lat="43.69491604393981" lon="7.28313419282544"><ele>11.666666666666666</ele><time>2026-04-22T12:47:54Z</time></trkpt><trkpt lat="43.69484743947761" lon="7.283104992149038"><ele>11.333333333333334</ele><time>2026-04-22T12:47:55Z</time></trkpt><trkpt lat="43.694774025758434" lon="7.283082772799383"><ele>11.0</ele><time>2026-04-22T12:47:56Z</time></trkpt><trkpt lat="43.69470159926503" lon="7.283057233946627"><ele>10.666666666666668</ele><time>2026-04-22T12:47:57Z</time></trkpt><trkpt lat="43.694629151582646" lon="7.283030119699797"><ele>10.333333333333334</ele><time>2026-04-22T12:47:58Z</time></trkpt><trkpt lat="43.69455343324201" lon="7.282998395087784"><ele>10.0</ele><time>2026-04-22T12:47:59Z</time></trkpt><trkpt lat="43.694475700862725" lon="7.282969875603167"><ele>12.0</ele><time>2026-04-22T12:48:00Z</time></trkpt><trkpt lat="43.69439710685709" lon="7.282942661420873"><ele>14.0</ele><time>2026-04-22T12:48:01Z</time></trkpt><trkpt lat="43.69431722492072" lon="7.282914510788217"><ele>16.0</ele><time>2026-04-22T12:48:01.999Z</time></trkpt><trkpt lat="43.69424115602357" lon="7.2828724860632645"><ele>18.0</ele><time>2026-04-22T12:48:02.999Z</time></trkpt><trkpt lat="43.69417080866566" lon="7.282827472986139"><ele>20.0</ele><time>2026-04-22T12:48:03.999Z</time></trkpt><trkpt lat="43.694107092636486" lon="7.282767864746774"><ele>22.0</ele><time>2026-04-22T12:48:04.999Z</time></trkpt><trkpt lat="43.694051265101386" lon="7.28270165015246"><ele>22.0</ele><time>2026-04-22T12:48:05.999Z</time></trkpt><trkpt lat="43.69400214169506" lon="7.282624826558497"><ele>22.0</ele><time>2026-04-22T12:48:07.999Z</time></trkpt><trkpt lat="43.69393928828839" lon="7.282567154654374"><ele>22.0</ele><time>2026-04-22T12:48:49Z</time></trkpt><trkpt lat="43.693864628005805" lon="7.282437291975337"><ele>22.0</ele><time>2026-04-22T12:48:51Z</time></trkpt><trkpt lat="43.693787743579946" lon="7.282334835619838"><ele>22.0</ele><time>2026-04-22T12:48:53Z</time></trkpt><trkpt lat="43.693703247967655" lon="7.282222408557895"><ele>20.5</ele><time>2026-04-22T12:48:55Z</time></trkpt><trkpt lat="43.69365837941134" lon="7.282153086807896"><ele>19.0</ele><time>2026-04-22T12:48:56Z</time></trkpt><trkpt lat="43.69360345291519" lon="7.282081300002238"><ele>17.5</ele><time>2026-04-22T12:48:57Z</time></trkpt><trkpt lat="43.69354009566969" lon="7.281993468902367"><ele>16.0</ele><time>2026-04-22T12:48:58Z</time></trkpt><trkpt lat="43.693475452256024" lon="7.2818945628643"><ele>14.499999999999998</ele><time>2026-04-22T12:48:59Z</time></trkpt><trkpt lat="43.693419595105446" lon="7.281803980250533"><ele>13.0</ele><time>2026-04-22T12:49:00Z</time></trkpt><trkpt lat="43.69336683068923" lon="7.281712159066739"><ele>12.999999999999998</ele><time>2026-04-22T12:49:01Z</time></trkpt><trkpt lat="43.69331847352089" lon="7.281618425650445"><ele>13.0</ele><time>2026-04-22T12:49:02Z</time></trkpt><trkpt lat="43.69327775971579" lon="7.281522278976649"><ele>13.0</ele><time>2026-04-22T12:49:03Z</time></trkpt><trkpt lat="43.69323735455491" lon="7.281412694068277"><ele>13.0</ele><time>2026-04-22T12:49:04Z</time></trkpt><trkpt lat="43.6931968111126" lon="7.281293884553997"><ele>12.999999999999998</ele><time>2026-04-22T12:49:05Z</time></trkpt><trkpt lat="43.693162965189174" lon="7.281163550404143"><ele>13.0</ele><time>2026-04-22T12:49:06Z</time></trkpt><trkpt lat="43.693152838813376" lon="7.28103071031926"><ele>13.0</ele><time>2026-04-22T12:49:07Z</time></trkpt><trkpt lat="43.693157371823396" lon="7.280902295256203"><ele>13.0</ele><time>2026-04-22T12:49:08Z</time></trkpt><trkpt lat="43.69318273055667" lon="7.28077557061437"><ele>13.0</ele><time>2026-04-22T12:49:09Z</time></trkpt><trkpt lat="43.693219183273904" lon="7.280647636486095"><ele>13.0</ele><time>2026-04-22T12:49:10Z</time></trkpt><trkpt lat="43.69326008385131" lon="7.280531090036232"><ele>13.0</ele><time>2026-04-22T12:49:11Z</time></trkpt><trkpt lat="43.693299113528035" lon="7.280421937345102"><ele>12.999999999999998</ele><time>2026-04-22T12:49:12Z</time></trkpt><trkpt lat="43.693335142295325" lon="7.280321300288408"><ele>13.0</ele><time>2026-04-22T12:49:13Z</time></trkpt><trkpt lat="43.6933706959265" lon="7.280223287579768"><ele>13.0</ele><time>2026-04-22T12:49:14Z</time></trkpt><trkpt lat="43.693405281381764" lon="7.280121488222968"><ele>13.0</ele><time>2026-04-22T12:49:15Z</time></trkpt><trkpt lat="43.69344205595073" lon="7.280019679735398"><ele>12.999999999999998</ele><time>2026-04-22T12:49:16Z</time></trkpt><trkpt lat="43.69347920752986" lon="7.279923654707479"><ele>13.0</ele><time>2026-04-22T12:49:17Z</time></trkpt><trkpt lat="43.69351154955386" lon="7.279830421561077"><ele>11.999999999999998</ele><time>2026-04-22T12:49:18Z</time></trkpt><trkpt lat="43.693544632378774" lon="7.27973249620934"><ele>11.0</ele><time>2026-04-22T12:49:19Z</time></trkpt><trkpt lat="43.69357549128942" lon="7.279630138795458"><ele>10.0</ele><time>2026-04-22T12:49:20Z</time></trkpt><trkpt lat="43.693604673603566" lon="7.279529866850912"><ele>9.0</ele><time>2026-04-22T12:49:21Z</time></trkpt><trkpt lat="43.69363120283935" lon="7.279439613462328"><ele>8.0</ele><time>2026-04-22T12:49:22Z</time></trkpt><trkpt lat="43.69365489745142" lon="7.279358644605178"><ele>7.0</ele><time>2026-04-22T12:49:23Z</time></trkpt><trkpt lat="43.693716521475174" lon="7.279222513808429"><ele>10.0</ele><time>2026-04-22T12:49:25Z</time></trkpt><trkpt lat="43.69381416182383" lon="7.279186490268843"><ele>13.0</ele><time>2026-04-22T12:49:27Z</time></trkpt><trkpt lat="43.69393108267701" lon="7.279170324179088"><ele>16.0</ele><time>2026-04-22T12:49:29Z</time></trkpt><trkpt lat="43.69404492730884" lon="7.279169772638869"><ele>19.0</ele><time>2026-04-22T12:49:31Z</time></trkpt><trkpt lat="43.69414779677616" lon="7.279140394288739"><ele>22.0</ele><time>2026-04-22T12:49:33Z</time></trkpt><trkpt lat="43.694251720003585" lon="7.279073779564735"><ele>22.0</ele><time>2026-04-22T12:49:35Z</time></trkpt><trkpt lat="43.69433579590914" lon="7.278987179822483"><ele>22.0</ele><time>2026-04-22T12:49:37Z</time></trkpt><trkpt lat="43.69441380704593" lon="7.278877595647586"><ele>22.0</ele><time>2026-04-22T12:49:39Z</time></trkpt><trkpt lat="43.69450076470886" lon="7.278746911268551"><ele>22.0</ele><time>2026-04-22T12:49:41Z</time></trkpt><trkpt lat="43.69455642767003" lon="7.278669015139268"><ele>22.0</ele><time>2026-04-22T12:49:42Z</time></trkpt><trkpt lat="43.694615270674554" lon="7.278572093473024"><ele>21.333333333333332</ele><time>2026-04-22T12:49:43Z</time></trkpt><trkpt lat="43.694667059182336" lon="7.278469353506217"><ele>20.666666666666664</ele><time>2026-04-22T12:49:44Z</time></trkpt><trkpt lat="43.694711543116426" lon="7.278372389725148"><ele>20.0</ele><time>2026-04-22T12:49:45Z</time></trkpt><trkpt lat="43.69474942755787" lon="7.278275684872631"><ele>19.333333333333332</ele><time>2026-04-22T12:49:46Z</time></trkpt><trkpt lat="43.6947777058026" lon="7.27817605352678"><ele>18.666666666666668</ele><time>2026-04-22T12:49:47Z</time></trkpt><trkpt lat="43.69480136001582" lon="7.27808324690123"><ele>18.0</ele><time>2026-04-22T12:49:48Z</time></trkpt><trkpt lat="43.694819521603954" lon="7.277993696879038"><ele>17.28571428571429</ele><time>2026-04-22T12:49:49Z</time></trkpt><trkpt lat="43.69483566006745" lon="7.277901200472464"><ele>16.571428571428573</ele><time>2026-04-22T12:49:50Z</time></trkpt><trkpt lat="43.69485084360674" lon="7.277807635607915"><ele>15.857142857142858</ele><time>2026-04-22T12:49:51Z</time></trkpt><trkpt lat="43.694861670727526" lon="7.277713980649932"><ele>15.142857142857144</ele><time>2026-04-22T12:49:52Z</time></trkpt><trkpt lat="43.6948731484127" lon="7.277617604097167"><ele>14.42857142857143</ele><time>2026-04-22T12:49:53Z</time></trkpt><trkpt lat="43.69488643780518" lon="7.27752192555548"><ele>13.714285714285714</ele><time>2026-04-22T12:49:54Z</time></trkpt><trkpt lat="43.69489746160252" lon="7.27742237432865"><ele>13.0</ele><time>2026-04-22T12:49:55Z</time></trkpt><trkpt lat="43.69491061131923" lon="7.277318207487873"><ele>12.285714285714285</ele><time>2026-04-22T12:49:56Z</time></trkpt><trkpt lat="43.694924374112574" lon="7.277210545157976"><ele>11.571428571428573</ele><time>2026-04-22T12:49:57Z</time></trkpt><trkpt lat="43.6949387201621" lon="7.277104494448278"><ele>10.857142857142858</ele><time>2026-04-22T12:49:58Z</time></trkpt><trkpt lat="43.69495096065223" lon="7.2769997850338095"><ele>10.142857142857142</ele><time>2026-04-22T12:49:59Z</time></trkpt><trkpt lat="43.69496502630364" lon="7.27690047135282"><ele>9.428571428571427</ele><time>2026-04-22T12:50:00Z</time></trkpt><trkpt lat="43.69497778922068" lon="7.276807909136045"><ele>8.714285714285714</ele><time>2026-04-22T12:50:01Z</time></trkpt><trkpt lat="43.694989330280364" lon="7.2767140074946015"><ele>8.0</ele><time>2026-04-22T12:50:02Z</time></trkpt><trkpt lat="43.69500247530023" lon="7.276609375475433"><ele>7.999999999999999</ele><time>2026-04-22T12:50:03Z</time></trkpt><trkpt lat="43.695015494768775" lon="7.276498332925307"><ele>8.0</ele><time>2026-04-22T12:50:04Z</time></trkpt><trkpt lat="43.69502931660638" lon="7.276381498115609"><ele>8.0</ele><time>2026-04-22T12:50:05Z</time></trkpt><trkpt lat="43.69504264731513" lon="7.276261720628657"><ele>8.0</ele><time>2026-04-22T12:50:06Z</time></trkpt><trkpt lat="43.69505465912504" lon="7.276142867531916"><ele>7.999999999999999</ele><time>2026-04-22T12:50:07Z</time></trkpt><trkpt lat="43.69506311254198" lon="7.276025768775493"><ele>8.0</ele><time>2026-04-22T12:50:08Z</time></trkpt><trkpt lat="43.69507479286607" lon="7.275908210890872"><ele>7.499999999999999</ele><time>2026-04-22T12:50:09Z</time></trkpt><trkpt lat="43.695085528867295" lon="7.27579111499289"><ele>7.0</ele><time>2026-04-22T12:50:10Z</time></trkpt><trkpt lat="43.695096298157175" lon="7.275680043043258"><ele>6.5</ele><time>2026-04-22T12:50:10.999Z</time></trkpt><trkpt lat="43.69510655600951" lon="7.275578418785673"><ele>6.0</ele><time>2026-04-22T12:50:11.999Z</time></trkpt><trkpt lat="43.695115161578855" lon="7.275488629430115"><ele>5.5</ele><time>2026-04-22T12:50:12.999Z</time></trkpt><trkpt lat="43.69513001426178" lon="7.275314443539464"><ele>5.0</ele><time>2026-04-22T12:50:14.999Z</time></trkpt><trkpt lat="43.69514039052299" lon="7.2752223415528565"><ele>5.0</ele><time>2026-04-22T12:50:15.999Z</time></trkpt><trkpt lat="43.695150095693" lon="7.275125465903976"><ele>5.0</ele><time>2026-04-22T12:50:16.999Z</time></trkpt><trkpt lat="43.695158160550285" lon="7.2750230729969525"><ele>5.0</ele><time>2026-04-22T12:50:17.999Z</time></trkpt><trkpt lat="43.695167295877546" lon="7.274913597355185"><ele>5.0</ele><time>2026-04-22T12:50:18.999Z</time></trkpt><trkpt lat="43.695174479375204" lon="7.274808486882012"><ele>5.0</ele><time>2026-04-22T12:50:19.999Z</time></trkpt><trkpt lat="43.69517971212743" lon="7.274715792985738"><ele>5.0</ele><time>2026-04-22T12:50:20.999Z</time></trkpt><trkpt lat="43.695188976328616" lon="7.274550495737129"><ele>5.166666666666667</ele><time>2026-04-22T12:50:22.999Z</time></trkpt><trkpt lat="43.695196311363446" lon="7.274412474253501"><ele>5.333333333333334</ele><time>2026-04-22T12:50:24.999Z</time></trkpt><trkpt lat="43.69520115598367" lon="7.274295826242958"><ele>5.5</ele><time>2026-04-22T12:50:26.999Z</time></trkpt><trkpt lat="43.695207910554174" lon="7.2741927623104905"><ele>5.666666666666667</ele><time>2026-04-22T12:50:28.999Z</time></trkpt><trkpt lat="43.69520865699435" lon="7.274086196832281"><ele>5.833333333333333</ele><time>2026-04-22T12:50:30.999Z</time></trkpt><trkpt lat="43.695207510564224" lon="7.273972759979133"><ele>6.0</ele><time>2026-04-22T12:50:32.999Z</time></trkpt><trkpt lat="43.695204272371555" lon="7.273855745513337"><ele>6.333333333333333</ele><time>2026-04-22T12:50:34.999Z</time></trkpt><trkpt lat="43.69520433162576" lon="7.273734237833746"><ele>6.666666666666666</ele><time>2026-04-22T12:50:36.999Z</time></trkpt><trkpt lat="43.695202513898714" lon="7.273642901275308"><ele>7.0</ele><time>2026-04-22T12:50:38.999Z</time></trkpt><trkpt lat="43.69519954140715" lon="7.273527651423693"><ele>7.333333333333333</ele><time>2026-04-22T12:50:40.999Z</time></trkpt><trkpt lat="43.69519598758364" lon="7.273387856569267"><ele>7.666666666666666</ele><time>2026-04-22T12:50:42.999Z</time></trkpt><trkpt lat="43.69517576776491" lon="7.273238216622575"><ele>8.0</ele><time>2026-04-22T12:50:44.999Z</time></trkpt><trkpt lat="43.6951665533174" lon="7.273130609068992"><ele>8.666666666666666</ele><time>2026-04-22T12:50:46.999Z</time></trkpt><trkpt lat="43.69516127237289" lon="7.273036425367345"><ele>9.333333333333332</ele><time>2026-04-22T12:50:48.999Z</time></trkpt><trkpt lat="43.69515861209981" lon="7.272886018115719"><ele>10.0</ele><time>2026-04-22T12:50:51Z</time></trkpt><trkpt lat="43.69515158886464" lon="7.2727282290639685"><ele>10.666666666666666</ele><time>2026-04-22T12:50:53Z</time></trkpt><trkpt lat="43.69516445070509" lon="7.272636806418884"><ele>11.333333333333334</ele><time>2026-04-22T12:50:54Z</time></trkpt><trkpt lat="43.695164450705036" lon="7.272531690663286"><ele>12.0</ele><time>2026-04-22T12:50:55Z</time></trkpt><trkpt lat="43.695148650199144" lon="7.272440169284638"><ele>12.0</ele><time>2026-04-22T12:50:56Z</time></trkpt><trkpt lat="43.69514936868277" lon="7.27229928714078"><ele>12.0</ele><time>2026-04-22T12:50:58Z</time></trkpt><trkpt lat="43.69515066733049" lon="7.27219181644441"><ele>12.0</ele><time>2026-04-22T12:51:00Z</time></trkpt><trkpt lat="43.69514911213717" lon="7.2720849961261145"><ele>12.0</ele><time>2026-04-22T12:51:02Z</time></trkpt><trkpt lat="43.69515033084035" lon="7.271953856109404"><ele>12.0</ele><time>2026-04-22T12:51:04Z</time></trkpt><trkpt lat="43.695143900813925" lon="7.271842802702069"><ele>12.0</ele><time>2026-04-22T12:51:06Z</time></trkpt><trkpt lat="43.695136368762945" lon="7.2717069998623645"><ele>12.0</ele><time>2026-04-22T12:51:08Z</time></trkpt><trkpt lat="43.695138267846424" lon="7.271606745261953"><ele>12.0</ele><time>2026-04-22T12:51:09Z</time></trkpt><trkpt lat="43.69514157067077" lon="7.271518563043627"><ele>12.0</ele><time>2026-04-22T12:51:10Z</time></trkpt><trkpt lat="43.69516094931771" lon="7.271377822125449"><ele>12.0</ele><time>2026-04-22T12:51:12Z</time></trkpt><trkpt lat="43.69516275517744" lon="7.271229749206363"><ele>12.0</ele><time>2026-04-22T12:51:14Z</time></trkpt><trkpt lat="43.69515847899144" lon="7.271101395857034"><ele>12.0</ele><time>2026-04-22T12:51:16Z</time></trkpt><trkpt lat="43.69515420883186" lon="7.271006011501231"><ele>11.6</ele><time>2026-04-22T12:51:18Z</time></trkpt><trkpt lat="43.69514819982685" lon="7.2709141668306865"><ele>11.2</ele><time>2026-04-22T12:51:20Z</time></trkpt><trkpt lat="43.69515232100191" lon="7.270755465003617"><ele>10.8</ele><time>2026-04-22T12:51:22Z</time></trkpt><trkpt lat="43.695153031478036" lon="7.270610470961398"><ele>10.4</ele><time>2026-04-22T12:51:24Z</time></trkpt><trkpt lat="43.6951517261609" lon="7.270470447264475"><ele>10.0</ele><time>2026-04-22T12:51:26Z</time></trkpt><trkpt lat="43.69515151591688" lon="7.270313964360211"><ele>10.0</ele><time>2026-04-22T12:51:28Z</time></trkpt><trkpt lat="43.69514748538081" lon="7.270180226880707"><ele>10.0</ele><time>2026-04-22T12:51:30Z</time></trkpt><trkpt lat="43.695145259140254" lon="7.2700544485604315"><ele>10.0</ele><time>2026-04-22T12:51:32Z</time></trkpt><trkpt lat="43.69514695670286" lon="7.269960027685111"><ele>10.0</ele><time>2026-04-22T12:51:34Z</time></trkpt><trkpt lat="43.69514397738597" lon="7.2698703373296425"><ele>10.0</ele><time>2026-04-22T12:51:36Z</time></trkpt><trkpt lat="43.69513330044338" lon="7.269776038066115"><ele>10.0</ele><time>2026-04-22T12:51:38Z</time></trkpt><trkpt lat="43.69512874776123" lon="7.26963783450586"><ele>9.333333333333334</ele><time>2026-04-22T12:51:42Z</time></trkpt><trkpt lat="43.695129793219444" lon="7.269543723772008"><ele>8.666666666666668</ele><time>2026-04-22T12:51:43Z</time></trkpt><trkpt lat="43.69512994965943" lon="7.269455799729977"><ele>8.0</ele><time>2026-04-22T12:51:44Z</time></trkpt><trkpt lat="43.69513257000513" lon="7.269304284090825"><ele>7.333333333333334</ele><time>2026-04-22T12:51:46Z</time></trkpt><trkpt lat="43.695129281670816" lon="7.269130148113867"><ele>6.666666666666667</ele><time>2026-04-22T12:51:48Z</time></trkpt><trkpt lat="43.695126168299" lon="7.269031453402955"><ele>6.0</ele><time>2026-04-22T12:51:49Z</time></trkpt><trkpt lat="43.69512369732635" lon="7.268928063955729"><ele>5.666666666666667</ele><time>2026-04-22T12:51:50Z</time></trkpt><trkpt lat="43.695122941228945" lon="7.268829437124213"><ele>5.333333333333333</ele><time>2026-04-22T12:51:51Z</time></trkpt><trkpt lat="43.695120738471694" lon="7.2687340982284905"><ele>5.0</ele><time>2026-04-22T12:51:52Z</time></trkpt><trkpt lat="43.69511830550213" lon="7.268643895792327"><ele>4.666666666666666</ele><time>2026-04-22T12:51:53Z</time></trkpt><trkpt lat="43.69511436037886" lon="7.268554825280263"><ele>4.333333333333333</ele><time>2026-04-22T12:51:54Z</time></trkpt><trkpt lat="43.695111774348604" lon="7.26846707260673"><ele>4.0</ele><time>2026-04-22T12:51:55Z</time></trkpt><trkpt lat="43.69510385993565" lon="7.268295092454091"><ele>4.0</ele><time>2026-04-22T12:51:57Z</time></trkpt><trkpt lat="43.69510045491645" lon="7.268206302010861"><ele>3.9999999999999996</ele><time>2026-04-22T12:51:58Z</time></trkpt><trkpt lat="43.69509628576261" lon="7.26811802212564"><ele>4.0</ele><time>2026-04-22T12:51:59Z</time></trkpt><trkpt lat="43.695092862374935" lon="7.268028969569222"><ele>4.0</ele><time>2026-04-22T12:52:00Z</time></trkpt><trkpt lat="43.695088320865445" lon="7.267936119846676"><ele>3.9999999999999996</ele><time>2026-04-22T12:52:01Z</time></trkpt><trkpt lat="43.69508446043165" lon="7.2678334072526845"><ele>4.0</ele><time>2026-04-22T12:52:02Z</time></trkpt><trkpt lat="43.69508123925203" lon="7.2677215721741035"><ele>4.0</ele><time>2026-04-22T12:52:03Z</time></trkpt><trkpt lat="43.69508101316943" lon="7.267602439375111"><ele>4.166666666666666</ele><time>2026-04-22T12:52:04Z</time></trkpt><trkpt lat="43.695079529109904" lon="7.267480816608839"><ele>4.333333333333333</ele><time>2026-04-22T12:52:05Z</time></trkpt><trkpt lat="43.69507330838507" lon="7.2673609178588565"><ele>4.5</ele><time>2026-04-22T12:52:06Z</time></trkpt><trkpt lat="43.695068746907175" lon="7.267249546065731"><ele>4.666666666666667</ele><time>2026-04-22T12:52:07Z</time></trkpt><trkpt lat="43.69506592958621" lon="7.267141906897181"><ele>4.833333333333334</ele><time>2026-04-22T12:52:08Z</time></trkpt><trkpt lat="43.69506424956683" lon="7.26704184449403"><ele>5.0</ele><time>2026-04-22T12:52:09Z</time></trkpt><trkpt lat="43.69506229052288" lon="7.266949206660093"><ele>5.5</ele><time>2026-04-22T12:52:10Z</time></trkpt><trkpt lat="43.69505631378763" lon="7.266800821744266"><ele>6.0</ele><time>2026-04-22T12:52:11.999Z</time></trkpt><trkpt lat="43.695053820732376" lon="7.2666897896957625"><ele>6.5</ele><time>2026-04-22T12:52:14.999Z</time></trkpt><trkpt lat="43.69503897685434" lon="7.266562880726496"><ele>7.0</ele><time>2026-04-22T12:53:22Z</time></trkpt><trkpt lat="43.69503543454114" lon="7.266471292826829"><ele>7.499999999999999</ele><time>2026-04-22T12:53:23Z</time></trkpt><trkpt lat="43.69503232442493" lon="7.266357819531767"><ele>8.0</ele><time>2026-04-22T12:53:24Z</time></trkpt><trkpt lat="43.69502863643713" lon="7.266250240317052"><ele>8.333333333333332</ele><time>2026-04-22T12:53:25Z</time></trkpt><trkpt lat="43.695022015397306" lon="7.266142379874709"><ele>8.666666666666666</ele><time>2026-04-22T12:53:26Z</time></trkpt><trkpt lat="43.69501496815753" lon="7.266033340046596"><ele>9.0</ele><time>2026-04-22T12:53:27Z</time></trkpt><trkpt lat="43.69500997848725" lon="7.265921419466536"><ele>9.333333333333334</ele><time>2026-04-22T12:53:28Z</time></trkpt><trkpt lat="43.69500514357677" lon="7.265809638511729"><ele>9.666666666666668</ele><time>2026-04-22T12:53:29Z</time></trkpt><trkpt lat="43.69499865080166" lon="7.265698375194937"><ele>10.0</ele><time>2026-04-22T12:53:30Z</time></trkpt><trkpt lat="43.69499372439276" lon="7.265581195632395"><ele>10.0</ele><time>2026-04-22T12:53:31Z</time></trkpt><trkpt lat="43.6949947897281" lon="7.265451618107109"><ele>10.0</ele><time>2026-04-22T12:53:32Z</time></trkpt><trkpt lat="43.694991316584236" lon="7.265315115452967"><ele>10.0</ele><time>2026-04-22T12:53:33Z</time></trkpt><trkpt lat="43.69498463335474" lon="7.265167229608128"><ele>10.0</ele><time>2026-04-22T12:53:34Z</time></trkpt><trkpt lat="43.69497804434396" lon="7.265018434848033"><ele>10.0</ele><time>2026-04-22T12:53:35Z</time></trkpt><trkpt lat="43.69497456874045" lon="7.264883988526434"><ele>10.0</ele><time>2026-04-22T12:53:36Z</time></trkpt><trkpt lat="43.69497092117828" lon="7.264762919336729"><ele>10.0</ele><time>2026-04-22T12:53:37Z</time></trkpt><trkpt lat="43.69496576727235" lon="7.2646550007416035"><ele>10.0</ele><time>2026-04-22T12:53:38Z</time></trkpt><trkpt lat="43.694960642608685" lon="7.26455386322793"><ele>10.0</ele><time>2026-04-22T12:53:39Z</time></trkpt><trkpt lat="43.6949566074075" lon="7.2644621521597985"><ele>10.0</ele><time>2026-04-22T12:53:40Z</time></trkpt><trkpt lat="43.69495299026012" lon="7.264367087573838"><ele>10.0</ele><time>2026-04-22T12:53:41Z</time></trkpt><trkpt lat="43.694950135639104" lon="7.264265484243821"><ele>10.0</ele><time>2026-04-22T12:53:42Z</time></trkpt><trkpt lat="43.69494715058581" lon="7.2641674862975885"><ele>10.0</ele><time>2026-04-22T12:53:43Z</time></trkpt><trkpt lat="43.694945418372036" lon="7.264080203035648"><ele>10.0</ele><time>2026-04-22T12:53:44Z</time></trkpt><trkpt lat="43.6949399152675" lon="7.263949044683679"><ele>10.0</ele><time>2026-04-22T12:53:46Z</time></trkpt><trkpt lat="43.69493155029386" lon="7.2638610902076355"><ele>10.0</ele><time>2026-04-22T12:53:51Z</time></trkpt><trkpt lat="43.69491758254776" lon="7.263728433945346"><ele>10.0</ele><time>2026-04-22T12:54:14Z</time></trkpt><trkpt lat="43.69491286038344" lon="7.263638908020626"><ele>10.0</ele><time>2026-04-22T12:54:15Z</time></trkpt><trkpt lat="43.69490230209045" lon="7.26346604754313"><ele>10.6</ele><time>2026-04-22T12:54:17Z</time></trkpt><trkpt lat="43.69489473750509" lon="7.2633674922476565"><ele>11.2</ele><time>2026-04-22T12:54:18Z</time></trkpt><trkpt lat="43.69488714417985" lon="7.263249055206618"><ele>11.8</ele><time>2026-04-22T12:54:18.999Z</time></trkpt><trkpt lat="43.69487600356635" lon="7.263113162717082"><ele>12.4</ele><time>2026-04-22T12:54:19.999Z</time></trkpt><trkpt lat="43.69486609684688" lon="7.262971630589409"><ele>13.0</ele><time>2026-04-22T12:54:20.999Z</time></trkpt><trkpt lat="43.69485567378202" lon="7.262835966480547"><ele>13.2</ele><time>2026-04-22T12:54:21.999Z</time></trkpt><trkpt lat="43.69484639746364" lon="7.262703028138352"><ele>13.4</ele><time>2026-04-22T12:54:22.999Z</time></trkpt><trkpt lat="43.69483602551958" lon="7.262562707754428"><ele>13.599999999999998</ele><time>2026-04-22T12:54:23.999Z</time></trkpt><trkpt lat="43.69482459621916" lon="7.262412201143973"><ele>13.799999999999999</ele><time>2026-04-22T12:54:24.999Z</time></trkpt><trkpt lat="43.69481294988179" lon="7.262249509177071"><ele>14.0</ele><time>2026-04-22T12:54:25.999Z</time></trkpt><trkpt lat="43.694798371874" lon="7.262074804144542"><ele>13.799999999999999</ele><time>2026-04-22T12:54:26.999Z</time></trkpt><trkpt lat="43.69478696049818" lon="7.261910488083089"><ele>13.599999999999998</ele><time>2026-04-22T12:54:27.999Z</time></trkpt><trkpt lat="43.69477636514269" lon="7.261753845747601"><ele>13.4</ele><time>2026-04-22T12:54:28.999Z</time></trkpt><trkpt lat="43.69476608629709" lon="7.261607743349585"><ele>13.2</ele><time>2026-04-22T12:54:29.999Z</time></trkpt><trkpt lat="43.69475731634148" lon="7.261470986980494"><ele>13.0</ele><time>2026-04-22T12:54:30.999Z</time></trkpt><trkpt lat="43.69474816308856" lon="7.261336486671965"><ele>13.0</ele><time>2026-04-22T12:54:31.999Z</time></trkpt><trkpt lat="43.694735305051246" lon="7.26119368828032"><ele>13.0</ele><time>2026-04-22T12:54:32.999Z</time></trkpt><trkpt lat="43.694713301860666" lon="7.261034015733272"><ele>13.0</ele><time>2026-04-22T12:54:33.999Z</time></trkpt><trkpt lat="43.69468344514976" lon="7.260852013757573"><ele>13.0</ele><time>2026-04-22T12:54:34.999Z</time></trkpt><trkpt lat="43.69465833917717" lon="7.260670031750504"><ele>13.5</ele><time>2026-04-22T12:54:35.999Z</time></trkpt><trkpt lat="43.69464014389419" lon="7.260480845140671"><ele>14.0</ele><time>2026-04-22T12:54:36.999Z</time></trkpt><trkpt lat="43.69461366002885" lon="7.260319347277136"><ele>14.5</ele><time>2026-04-22T12:54:37.999Z</time></trkpt><trkpt lat="43.69459201844856" lon="7.260177443527218"><ele>15.0</ele><time>2026-04-22T12:54:38.999Z</time></trkpt><trkpt lat="43.69457342580285" lon="7.260049422541247"><ele>15.0</ele><time>2026-04-22T12:54:39.999Z</time></trkpt><trkpt lat="43.69455745782903" lon="7.259936338122181"><ele>15.0</ele><time>2026-04-22T12:54:40.999Z</time></trkpt><trkpt lat="43.69453746543639" lon="7.259814395717022"><ele>15.0</ele><time>2026-04-22T12:54:41.999Z</time></trkpt><trkpt lat="43.694512757518275" lon="7.259667112750152"><ele>15.0</ele><time>2026-04-22T12:54:42.999Z</time></trkpt><trkpt lat="43.694483594647195" lon="7.2595004732055886"><ele>15.0</ele><time>2026-04-22T12:54:43.999Z</time></trkpt><trkpt lat="43.69445394778771" lon="7.259321176572523"><ele>13.5</ele><time>2026-04-22T12:54:44.999Z</time></trkpt><trkpt lat="43.69442078923984" lon="7.259120881518199"><ele>12.0</ele><time>2026-04-22T12:54:45.999Z</time></trkpt><trkpt lat="43.69439766554721" lon="7.258939312792759"><ele>10.5</ele><time>2026-04-22T12:54:46.999Z</time></trkpt><trkpt lat="43.69437658435734" lon="7.258780903917514"><ele>9.0</ele><time>2026-04-22T12:54:47.999Z</time></trkpt><trkpt lat="43.69435007192166" lon="7.258623679431504"><ele>9.0</ele><time>2026-04-22T12:54:48.999Z</time></trkpt><trkpt lat="43.69431409558669" lon="7.258449114948141"><ele>9.0</ele><time>2026-04-22T12:54:49.999Z</time></trkpt><trkpt lat="43.694276316377646" lon="7.258263873519187"><ele>9.0</ele><time>2026-04-22T12:54:50.999Z</time></trkpt><trkpt lat="43.69424205773406" lon="7.258092483867389"><ele>9.0</ele><time>2026-04-22T12:54:51.999Z</time></trkpt><trkpt lat="43.694214114752604" lon="7.257962091901796"><ele>10.0</ele><time>2026-04-22T12:54:52.999Z</time></trkpt><trkpt lat="43.69419220097882" lon="7.257875443627352"><ele>11.0</ele><time>2026-04-22T12:54:53.999Z</time></trkpt><trkpt lat="43.6941673535758" lon="7.257782782483297"><ele>11.999999999999998</ele><time>2026-04-22T12:54:55.999Z</time></trkpt><trkpt lat="43.69412303295893" lon="7.257601721499269"><ele>13.0</ele><time>2026-04-22T12:55:29Z</time></trkpt><trkpt lat="43.694099727975114" lon="7.2574754318900885"><ele>14.0</ele><time>2026-04-22T12:55:30Z</time></trkpt><trkpt lat="43.694076386018196" lon="7.257354453172645"><ele>14.399999999999999</ele><time>2026-04-22T12:55:31Z</time></trkpt><trkpt lat="43.694049309441425" lon="7.257212854839343"><ele>14.799999999999999</ele><time>2026-04-22T12:55:32Z</time></trkpt><trkpt lat="43.694020490160206" lon="7.257070766297798"><ele>15.200000000000001</ele><time>2026-04-22T12:55:33Z</time></trkpt><trkpt lat="43.69399399113225" lon="7.256942399909967"><ele>15.600000000000001</ele><time>2026-04-22T12:55:34Z</time></trkpt><trkpt lat="43.69397211178482" lon="7.2568373085840685"><ele>16.0</ele><time>2026-04-22T12:55:35Z</time></trkpt><trkpt lat="43.69394411560984" lon="7.256696918158011"><ele>15.999999999999998</ele><time>2026-04-22T12:55:37Z</time></trkpt><trkpt lat="43.693923824843274" lon="7.256600024699018"><ele>16.0</ele><time>2026-04-22T12:55:40Z</time></trkpt><trkpt lat="43.69389269706198" lon="7.256455659051363"><ele>16.0</ele><time>2026-04-22T12:55:42Z</time></trkpt><trkpt lat="43.69386728755486" lon="7.2563398120375755"><ele>16.0</ele><time>2026-04-22T12:55:43Z</time></trkpt><trkpt lat="43.69384627401362" lon="7.256222796078368"><ele>15.999999999999998</ele><time>2026-04-22T12:55:44Z</time></trkpt><trkpt lat="43.69382054182795" lon="7.256102791193777"><ele>16.0</ele><time>2026-04-22T12:55:45Z</time></trkpt><trkpt lat="43.6937974497071" lon="7.255995055916124"><ele>16.0</ele><time>2026-04-22T12:55:46Z</time></trkpt><trkpt lat="43.69377226469049" lon="7.255888588109469"><ele>16.0</ele><time>2026-04-22T12:55:47Z</time></trkpt><trkpt lat="43.69374917870604" lon="7.255776560058372"><ele>16.0</ele><time>2026-04-22T12:55:48Z</time></trkpt><trkpt lat="43.693725825733594" lon="7.255646450866416"><ele>16.0</ele><time>2026-04-22T12:55:49Z</time></trkpt><trkpt lat="43.693700344617575" lon="7.255503708017423"><ele>16.0</ele><time>2026-04-22T12:55:50Z</time></trkpt><trkpt lat="43.69366620581821" lon="7.255352481591601"><ele>16.0</ele><time>2026-04-22T12:55:51Z</time></trkpt><trkpt lat="43.693629916457546" lon="7.2551996635921485"><ele>16.0</ele><time>2026-04-22T12:55:52Z</time></trkpt><trkpt lat="43.6935993999828" lon="7.255058649464131"><ele>16.0</ele><time>2026-04-22T12:55:53Z</time></trkpt><trkpt lat="43.69357060720865" lon="7.254936231517238"><ele>16.0</ele><time>2026-04-22T12:55:54Z</time></trkpt><trkpt lat="43.693546023070894" lon="7.254821166592126"><ele>16.0</ele><time>2026-04-22T12:55:55Z</time></trkpt><trkpt lat="43.69352381317034" lon="7.254712573704806"><ele>14.999999999999998</ele><time>2026-04-22T12:55:56Z</time></trkpt><trkpt lat="43.69349979423036" lon="7.254607487471339"><ele>14.0</ele><time>2026-04-22T12:55:57Z</time></trkpt><trkpt lat="43.69347407884677" lon="7.254500656315237"><ele>13.0</ele><time>2026-04-22T12:55:58Z</time></trkpt><trkpt lat="43.6934482918316" lon="7.254386478560641"><ele>12.0</ele><time>2026-04-22T12:55:59Z</time></trkpt><trkpt lat="43.69342519739531" lon="7.2542665678003555"><ele>11.0</ele><time>2026-04-22T12:56:00Z</time></trkpt><trkpt lat="43.69339859332911" lon="7.254131368556153"><ele>10.0</ele><time>2026-04-22T12:56:01Z</time></trkpt><trkpt lat="43.693361687582964" lon="7.253972880757471"><ele>10.0</ele><time>2026-04-22T12:56:02Z</time></trkpt><trkpt lat="43.69332479847892" lon="7.253824392678899"><ele>10.0</ele><time>2026-04-22T12:56:03Z</time></trkpt><trkpt lat="43.69329611973857" lon="7.253696007409117"><ele>10.0</ele><time>2026-04-22T12:56:04Z</time></trkpt><trkpt lat="43.693272766379266" lon="7.253579208423849"><ele>10.0</ele><time>2026-04-22T12:56:05Z</time></trkpt><trkpt lat="43.69324922580757" lon="7.253463798134735"><ele>10.0</ele><time>2026-04-22T12:56:06Z</time></trkpt><trkpt lat="43.693220969721615" lon="7.253336928837697"><ele>10.0</ele><time>2026-04-22T12:56:07Z</time></trkpt><trkpt lat="43.6931939261323" lon="7.25318544532077"><ele>10.0</ele><time>2026-04-22T12:56:08Z</time></trkpt><trkpt lat="43.69313803204144" lon="7.253012222025531"><ele>10.0</ele><time>2026-04-22T12:56:09Z</time></trkpt><trkpt lat="43.693103159845236" lon="7.252793741985791"><ele>10.0</ele><time>2026-04-22T12:56:10Z</time></trkpt><trkpt lat="43.69305181857417" lon="7.252585058454868"><ele>11.0</ele><time>2026-04-22T12:56:11Z</time></trkpt><trkpt lat="43.69300527529336" lon="7.2523858214400265"><ele>12.0</ele><time>2026-04-22T12:56:12Z</time></trkpt><trkpt lat="43.69296068895363" lon="7.2521978131523985"><ele>13.0</ele><time>2026-04-22T12:56:13Z</time></trkpt><trkpt lat="43.69292084315567" lon="7.252022737949635"><ele>14.0</ele><time>2026-04-22T12:56:14Z</time></trkpt><trkpt lat="43.69287864085354" lon="7.251860832473823"><ele>14.0</ele><time>2026-04-22T12:56:15Z</time></trkpt><trkpt lat="43.6928341999895" lon="7.251702997535383"><ele>14.0</ele><time>2026-04-22T12:56:16Z</time></trkpt><trkpt lat="43.69278058278869" lon="7.251542523722066"><ele>14.0</ele><time>2026-04-22T12:56:17Z</time></trkpt><trkpt lat="43.69272572748663" lon="7.251377000848138"><ele>14.0</ele><time>2026-04-22T12:56:18Z</time></trkpt><trkpt lat="43.6926656689001" lon="7.251209691552784"><ele>14.25</ele><time>2026-04-22T12:56:19Z</time></trkpt><trkpt lat="43.692607157334265" lon="7.2510386852971935"><ele>14.5</ele><time>2026-04-22T12:56:20Z</time></trkpt><trkpt lat="43.692551005138895" lon="7.2508758912053235"><ele>14.75</ele><time>2026-04-22T12:56:21Z</time></trkpt><trkpt lat="43.692495931726846" lon="7.25072328492526"><ele>15.0</ele><time>2026-04-22T12:56:21.999Z</time></trkpt><trkpt lat="43.692446807197406" lon="7.250582484937985"><ele>15.0</ele><time>2026-04-22T12:56:22.999Z</time></trkpt><trkpt lat="43.692413571163506" lon="7.250484720025927"><ele>15.0</ele><time>2026-04-22T12:56:23.999Z</time></trkpt><trkpt lat="43.6923797544216" lon="7.25037839044751"><ele>15.0</ele><time>2026-04-22T12:56:24.999Z</time></trkpt><trkpt lat="43.69234245314916" lon="7.250265280963773"><ele>15.0</ele><time>2026-04-22T12:56:25.999Z</time></trkpt><trkpt lat="43.692300725626886" lon="7.250143397809535"><ele>15.0</ele><time>2026-04-22T12:56:26.999Z</time></trkpt><trkpt lat="43.692253715176" lon="7.250013964040011"><ele>15.0</ele><time>2026-04-22T12:56:27.999Z</time></trkpt><trkpt lat="43.69220505573772" lon="7.249879104688992"><ele>15.0</ele><time>2026-04-22T12:56:28.999Z</time></trkpt><trkpt lat="43.69215820811619" lon="7.2497426109272745"><ele>15.0</ele><time>2026-04-22T12:56:29.999Z</time></trkpt><trkpt lat="43.69211677926509" lon="7.24961854264087"><ele>15.0</ele><time>2026-04-22T12:56:30.999Z</time></trkpt><trkpt lat="43.69207719499627" lon="7.249500921758658"><ele>15.0</ele><time>2026-04-22T12:56:31.999Z</time></trkpt><trkpt lat="43.692038304382756" lon="7.249384937647336"><ele>14.8</ele><time>2026-04-22T12:56:32.999Z</time></trkpt><trkpt lat="43.691999164828594" lon="7.249269203506322"><ele>14.6</ele><time>2026-04-22T12:56:33.999Z</time></trkpt><trkpt lat="43.69195866678272" lon="7.249156330788726"><ele>14.399999999999999</ele><time>2026-04-22T12:56:34.999Z</time></trkpt><trkpt lat="43.69191735835948" lon="7.249038363357095"><ele>14.2</ele><time>2026-04-22T12:56:35.999Z</time></trkpt><trkpt lat="43.691876977475026" lon="7.2489205334523765"><ele>14.0</ele><time>2026-04-22T12:56:36.999Z</time></trkpt><trkpt lat="43.691841931575915" lon="7.248813502029579"><ele>14.166666666666668</ele><time>2026-04-22T12:56:37.999Z</time></trkpt><trkpt lat="43.69180705289033" lon="7.248711300804091"><ele>14.333333333333334</ele><time>2026-04-22T12:56:38.999Z</time></trkpt><trkpt lat="43.69176939938219" lon="7.248607124071399"><ele>14.5</ele><time>2026-04-22T12:56:39.999Z</time></trkpt><trkpt lat="43.691738640172964" lon="7.24851594593379"><ele>14.666666666666668</ele><time>2026-04-22T12:56:40.999Z</time></trkpt><trkpt lat="43.69170362048555" lon="7.248396753231601"><ele>14.833333333333334</ele><time>2026-04-22T12:56:42.999Z</time></trkpt><trkpt lat="43.69166086489234" lon="7.248272643206181"><ele>15.0</ele><time>2026-04-22T13:04:17.999Z</time></trkpt><trkpt lat="43.69160483873062" lon="7.248088685872022"><ele>15.0</ele><time>2026-04-22T13:04:19.999Z</time></trkpt><trkpt lat="43.69156550053842" lon="7.247968509764528"><ele>15.0</ele><time>2026-04-22T13:04:20.999Z</time></trkpt><trkpt lat="43.69153137627786" lon="7.2478653504557835"><ele>15.0</ele><time>2026-04-22T13:04:21.999Z</time></trkpt><trkpt lat="43.691492343140325" lon="7.247758075319262"><ele>15.0</ele><time>2026-04-22T13:04:22.999Z</time></trkpt><trkpt lat="43.69145474636264" lon="7.247651435236148"><ele>15.0</ele><time>2026-04-22T13:04:23.999Z</time></trkpt><trkpt lat="43.691416046034426" lon="7.24754683904755"><ele>15.0</ele><time>2026-04-22T13:04:24.999Z</time></trkpt><trkpt lat="43.69137801358305" lon="7.247438741198669"><ele>15.0</ele><time>2026-04-22T13:04:25.999Z</time></trkpt><trkpt lat="43.69133647034536" lon="7.247318576479156"><ele>15.0</ele><time>2026-04-22T13:04:26.999Z</time></trkpt><trkpt lat="43.69128782244906" lon="7.247178410965941"><ele>15.0</ele><time>2026-04-22T13:04:27.999Z</time></trkpt><trkpt lat="43.69123899515339" lon="7.247037191066812"><ele>15.0</ele><time>2026-04-22T13:04:28.999Z</time></trkpt><trkpt lat="43.6911951299058" lon="7.246902927839945"><ele>15.0</ele><time>2026-04-22T13:04:29.999Z</time></trkpt><trkpt lat="43.69114824261486" lon="7.24676253566341"><ele>14.833333333333334</ele><time>2026-04-22T13:04:30.999Z</time></trkpt><trkpt lat="43.69110369926621" lon="7.246639778317198"><ele>14.666666666666668</ele><time>2026-04-22T13:04:31.999Z</time></trkpt><trkpt lat="43.6910669868745" lon="7.2465368158181676"><ele>14.5</ele><time>2026-04-22T13:04:32.999Z</time></trkpt><trkpt lat="43.69103469191607" lon="7.246443528492088"><ele>14.333333333333334</ele><time>2026-04-22T13:04:33.999Z</time></trkpt><trkpt lat="43.69100416247593" lon="7.246360290451504"><ele>14.166666666666668</ele><time>2026-04-22T13:04:34.999Z</time></trkpt><trkpt lat="43.690975761110835" lon="7.24627855717582"><ele>14.0</ele><time>2026-04-22T13:04:35.999Z</time></trkpt><trkpt lat="43.69094565432766" lon="7.246194235979377"><ele>14.000000000000002</ele><time>2026-04-22T13:04:36.999Z</time></trkpt><trkpt lat="43.690916870360034" lon="7.246110753342811"><ele>14.0</ele><time>2026-04-22T13:04:37.999Z</time></trkpt><trkpt lat="43.69088740609241" lon="7.246026609718291"><ele>14.0</ele><time>2026-04-22T13:04:38.999Z</time></trkpt><trkpt lat="43.69086045343439" lon="7.2459440959201284"><ele>14.0</ele><time>2026-04-22T13:04:39.998Z</time></trkpt><trkpt lat="43.69083273754255" lon="7.245861817489553"><ele>14.000000000000002</ele><time>2026-04-22T13:04:40.998Z</time></trkpt><trkpt lat="43.69080467328685" lon="7.245782576970103"><ele>14.0</ele><time>2026-04-22T13:04:41.998Z</time></trkpt><trkpt lat="43.69075148056745" lon="7.245627058564332"><ele>14.000000000000002</ele><time>2026-04-22T13:04:43.998Z</time></trkpt><trkpt lat="43.69069314133066" lon="7.245463160572908"><ele>14.0</ele><time>2026-04-22T13:04:45.998Z</time></trkpt><trkpt lat="43.69065823608168" lon="7.2453698122909485"><ele>14.0</ele><time>2026-04-22T13:04:46.998Z</time></trkpt><trkpt lat="43.6906207609263" lon="7.245277028506646"><ele>14.0</ele><time>2026-04-22T13:04:47.998Z</time></trkpt><trkpt lat="43.69058486523164" lon="7.245187497169363"><ele>14.000000000000002</ele><time>2026-04-22T13:04:48.998Z</time></trkpt><trkpt lat="43.69054968631794" lon="7.245097259066857"><ele>14.0</ele><time>2026-04-22T13:04:49.998Z</time></trkpt><trkpt lat="43.69051281106976" lon="7.245004894174948"><ele>14.000000000000002</ele><time>2026-04-22T13:04:50.998Z</time></trkpt><trkpt lat="43.69047867148843" lon="7.244909047972532"><ele>14.0</ele><time>2026-04-22T13:04:51.998Z</time></trkpt><trkpt lat="43.6904425297675" lon="7.244814425396853"><ele>14.0</ele><time>2026-04-22T13:04:52.998Z</time></trkpt><trkpt lat="43.69040069696367" lon="7.244708018536457"><ele>14.0</ele><time>2026-04-22T13:04:53.998Z</time></trkpt><trkpt lat="43.690353676895676" lon="7.24459004340624"><ele>14.000000000000002</ele><time>2026-04-22T13:04:54.998Z</time></trkpt><trkpt lat="43.69030804727005" lon="7.244475171637875"><ele>14.0</ele><time>2026-04-22T13:04:55.998Z</time></trkpt><trkpt lat="43.69026760813802" lon="7.244366547895624"><ele>14.0</ele><time>2026-04-22T13:04:56.998Z</time></trkpt><trkpt lat="43.690225582551484" lon="7.244257848815507"><ele>13.999999999999998</ele><time>2026-04-22T13:04:57.998Z</time></trkpt><trkpt lat="43.69018194400209" lon="7.244148805967897"><ele>13.999999999999998</ele><time>2026-04-22T13:04:58.998Z</time></trkpt><trkpt lat="43.69013835084433" lon="7.2440358234304965"><ele>14.0</ele><time>2026-04-22T13:04:59.998Z</time></trkpt><trkpt lat="43.69009196687444" lon="7.243920571530041"><ele>14.0</ele><time>2026-04-22T13:05:00.998Z</time></trkpt><trkpt lat="43.69004418245863" lon="7.2438019698468405"><ele>14.0</ele><time>2026-04-22T13:05:01.998Z</time></trkpt><trkpt lat="43.68999436079262" lon="7.243680887503557"><ele>13.999999999999998</ele><time>2026-04-22T13:05:02.998Z</time></trkpt><trkpt lat="43.68994038127034" lon="7.2435574121079656"><ele>13.999999999999998</ele><time>2026-04-22T13:05:03.998Z</time></trkpt><trkpt lat="43.689884997794096" lon="7.243424736525297"><ele>14.0</ele><time>2026-04-22T13:05:04.998Z</time></trkpt><trkpt lat="43.689820315702306" lon="7.243287730415883"><ele>14.0</ele><time>2026-04-22T13:05:05.998Z</time></trkpt><trkpt lat="43.68975073800752" lon="7.243134644757903"><ele>14.0</ele><time>2026-04-22T13:05:06.998Z</time></trkpt><trkpt lat="43.68968154372527" lon="7.2429864852488395"><ele>14.0</ele><time>2026-04-22T13:05:07.998Z</time></trkpt><trkpt lat="43.689602163561304" lon="7.242846681045008"><ele>14.0</ele><time>2026-04-22T13:05:08.998Z</time></trkpt><trkpt lat="43.68952253753519" lon="7.242705514199282"><ele>14.0</ele><time>2026-04-22T13:05:09.998Z</time></trkpt><trkpt lat="43.68944753449212" lon="7.242566085412961"><ele>13.5</ele><time>2026-04-22T13:05:10.998Z</time></trkpt><trkpt lat="43.689376942251116" lon="7.24243480027315"><ele>13.0</ele><time>2026-04-22T13:05:11.998Z</time></trkpt><trkpt lat="43.68930816919172" lon="7.2423100333292"><ele>12.5</ele><time>2026-04-22T13:05:12.998Z</time></trkpt><trkpt lat="43.689241163360734" lon="7.242184117793053"><ele>12.0</ele><time>2026-04-22T13:05:13.998Z</time></trkpt><trkpt lat="43.68917693815322" lon="7.242063333287647"><ele>12.0</ele><time>2026-04-22T13:05:14.998Z</time></trkpt><trkpt lat="43.68911521051133" lon="7.241947873602459"><ele>12.0</ele><time>2026-04-22T13:05:15.998Z</time></trkpt><trkpt lat="43.68905693655465" lon="7.241842426839394"><ele>12.0</ele><time>2026-04-22T13:05:16.998Z</time></trkpt><trkpt lat="43.689002968009646" lon="7.241745889306028"><ele>12.0</ele><time>2026-04-22T13:05:17.998Z</time></trkpt><trkpt lat="43.68895052337911" lon="7.241652558179275"><ele>12.0</ele><time>2026-04-22T13:05:18.998Z</time></trkpt><trkpt lat="43.688902921264344" lon="7.241561506685096"><ele>12.0</ele><time>2026-04-22T13:05:19.998Z</time></trkpt><trkpt lat="43.688852603039855" lon="7.241471031900669"><ele>12.0</ele><time>2026-04-22T13:05:20.998Z</time></trkpt><trkpt lat="43.68880170666759" lon="7.241379935731699"><ele>12.0</ele><time>2026-04-22T13:05:21.998Z</time></trkpt><trkpt lat="43.68874927254845" lon="7.241290669532544"><ele>12.0</ele><time>2026-04-22T13:05:22.998Z</time></trkpt><trkpt lat="43.68870073623185" lon="7.241199535873874"><ele>12.0</ele><time>2026-04-22T13:05:23.998Z</time></trkpt><trkpt lat="43.688649509114875" lon="7.241100159495229"><ele>12.0</ele><time>2026-04-22T13:05:24.998Z</time></trkpt><trkpt lat="43.688595349562505" lon="7.240992295721791"><ele>12.0</ele><time>2026-04-22T13:05:25.998Z</time></trkpt><trkpt lat="43.68853428135436" lon="7.240876869495415"><ele>12.0</ele><time>2026-04-22T13:05:26.998Z</time></trkpt><trkpt lat="43.688465351005405" lon="7.240753548981482"><ele>12.0</ele><time>2026-04-22T13:05:27.998Z</time></trkpt><trkpt lat="43.68839411942387" lon="7.240614268067229"><ele>12.0</ele><time>2026-04-22T13:05:28.998Z</time></trkpt><trkpt lat="43.688322337102996" lon="7.240483087449525"><ele>12.8</ele><time>2026-04-22T13:05:29.999Z</time></trkpt><trkpt lat="43.688257244120656" lon="7.240358523077435"><ele>13.6</ele><time>2026-04-22T13:05:30.999Z</time></trkpt><trkpt lat="43.68819346384034" lon="7.240241627307091"><ele>14.400000000000002</ele><time>2026-04-22T13:05:31.999Z</time></trkpt><trkpt lat="43.688132703056006" lon="7.240131852887802"><ele>15.200000000000001</ele><time>2026-04-22T13:05:32.999Z</time></trkpt><trkpt lat="43.68807179407857" lon="7.240027106423363"><ele>16.0</ele><time>2026-04-22T13:05:33.999Z</time></trkpt><trkpt lat="43.68801034217364" lon="7.23992055772289"><ele>16.0</ele><time>2026-04-22T13:05:34.999Z</time></trkpt><trkpt lat="43.68794873193843" lon="7.2398126848474655"><ele>16.0</ele><time>2026-04-22T13:05:35.999Z</time></trkpt><trkpt lat="43.68788327202655" lon="7.239704696493496"><ele>16.0</ele><time>2026-04-22T13:05:36.999Z</time></trkpt><trkpt lat="43.687817260601676" lon="7.239594829620419"><ele>16.0</ele><time>2026-04-22T13:05:37.999Z</time></trkpt><trkpt lat="43.68774999305399" lon="7.239477906314618"><ele>16.0</ele><time>2026-04-22T13:05:38.999Z</time></trkpt><trkpt lat="43.68767739932615" lon="7.239353606967975"><ele>16.0</ele><time>2026-04-22T13:05:40Z</time></trkpt><trkpt lat="43.68760184870095" lon="7.239231629662279"><ele>16.0</ele><time>2026-04-22T13:05:41Z</time></trkpt><trkpt lat="43.68753145805569" lon="7.239119267281032"><ele>16.0</ele><time>2026-04-22T13:05:42Z</time></trkpt><trkpt lat="43.687466235118976" lon="7.239015851098068"><ele>16.0</ele><time>2026-04-22T13:05:43Z</time></trkpt><trkpt lat="43.68740255511109" lon="7.23890856718216"><ele>16.0</ele><time>2026-04-22T13:05:44Z</time></trkpt><trkpt lat="43.687333288882655" lon="7.238798240234666"><ele>15.999999999999998</ele><time>2026-04-22T13:05:45Z</time></trkpt><trkpt lat="43.68726930017836" lon="7.238692524606154"><ele>16.0</ele><time>2026-04-22T13:05:46Z</time></trkpt><trkpt lat="43.68719987064897" lon="7.238589257417553"><ele>16.0</ele><time>2026-04-22T13:05:47Z</time></trkpt><trkpt lat="43.68713807831543" lon="7.238492197065216"><ele>16.0</ele><time>2026-04-22T13:05:48Z</time></trkpt><trkpt lat="43.68708072748585" lon="7.238409652282059"><ele>15.999999999999998</ele><time>2026-04-22T13:05:49Z</time></trkpt><trkpt lat="43.68703203634601" lon="7.238341447870004"><ele>16.0</ele><time>2026-04-22T13:05:50Z</time></trkpt><trkpt lat="43.68698156456886" lon="7.2382679363010825"><ele>15.600000000000001</ele><time>2026-04-22T13:05:52Z</time></trkpt><trkpt lat="43.68691617645168" lon="7.238181611629279"><ele>15.200000000000001</ele><time>2026-04-22T13:06:05Z</time></trkpt><trkpt lat="43.68684027063736" lon="7.2380859734727"><ele>14.799999999999999</ele><time>2026-04-22T13:06:07Z</time></trkpt><trkpt lat="43.686790154822354" lon="7.238025890841422"><ele>14.399999999999999</ele><time>2026-04-22T13:06:08Z</time></trkpt><trkpt lat="43.686696371153296" lon="7.237896212873523"><ele>14.0</ele><time>2026-04-22T13:06:10Z</time></trkpt><trkpt lat="43.68663262017234" lon="7.237811154788858"><ele>14.0</ele><time>2026-04-22T13:06:11Z</time></trkpt><trkpt lat="43.68655026782178" lon="7.237704704457622"><ele>14.0</ele><time>2026-04-22T13:06:12Z</time></trkpt><trkpt lat="43.68644873451761" lon="7.2375807550459035"><ele>14.0</ele><time>2026-04-22T13:06:13Z</time></trkpt><trkpt lat="43.68635178520598" lon="7.237461467663444"><ele>14.0</ele><time>2026-04-22T13:06:14Z</time></trkpt><trkpt lat="43.686251766064416" lon="7.237344480530687"><ele>13.5</ele><time>2026-04-22T13:06:15Z</time></trkpt><trkpt lat="43.68615223524853" lon="7.237223860032029"><ele>13.0</ele><time>2026-04-22T13:06:16Z</time></trkpt><trkpt lat="43.68605470866328" lon="7.237104254759999"><ele>12.5</ele><time>2026-04-22T13:06:17Z</time></trkpt><trkpt lat="43.685960484781134" lon="7.23698659436471"><ele>12.0</ele><time>2026-04-22T13:06:18Z</time></trkpt><trkpt lat="43.68587149511257" lon="7.2368826419769245"><ele>11.2</ele><time>2026-04-22T13:06:19Z</time></trkpt><trkpt lat="43.68578870782525" lon="7.236789154182617"><ele>10.399999999999999</ele><time>2026-04-22T13:06:20Z</time></trkpt><trkpt lat="43.68571262838383" lon="7.236700842672364"><ele>9.600000000000001</ele><time>2026-04-22T13:06:21Z</time></trkpt><trkpt lat="43.68564232558903" lon="7.236618543732687"><ele>8.8</ele><time>2026-04-22T13:06:22Z</time></trkpt><trkpt lat="43.68557851628597" lon="7.2365406802342065"><ele>8.0</ele><time>2026-04-22T13:06:23Z</time></trkpt><trkpt lat="43.685517398084" lon="7.236469814872276"><ele>7.800000000000001</ele><time>2026-04-22T13:06:24Z</time></trkpt><trkpt lat="43.685454821576194" lon="7.2363979255730815"><ele>7.6000000000000005</ele><time>2026-04-22T13:06:25Z</time></trkpt><trkpt lat="43.68538569726924" lon="7.236320231770283"><ele>7.3999999999999995</ele><time>2026-04-22T13:06:26Z</time></trkpt><trkpt lat="43.685307541304574" lon="7.236233609870054"><ele>7.199999999999999</ele><time>2026-04-22T13:06:27Z</time></trkpt><trkpt lat="43.685228345428854" lon="7.236145245825145"><ele>7.0</ele><time>2026-04-22T13:06:28Z</time></trkpt><trkpt lat="43.68514767139801" lon="7.236057696837944"><ele>7.0</ele><time>2026-04-22T13:06:29Z</time></trkpt><trkpt lat="43.68506821930861" lon="7.235969487344462"><ele>6.999999999999999</ele><time>2026-04-22T13:06:30Z</time></trkpt><trkpt lat="43.684989746401754" lon="7.235879954578252"><ele>6.999999999999999</ele><time>2026-04-22T13:06:31Z</time></trkpt><trkpt lat="43.684908196877736" lon="7.23579422666433"><ele>7.0</ele><time>2026-04-22T13:06:32Z</time></trkpt><trkpt lat="43.684827906298445" lon="7.235711016679534"><ele>7.0</ele><time>2026-04-22T13:06:33Z</time></trkpt><trkpt lat="43.68473966154596" lon="7.2356198282319175"><ele>7.199999999999999</ele><time>2026-04-22T13:06:34Z</time></trkpt><trkpt lat="43.6846532124549" lon="7.235526967365356"><ele>7.3999999999999995</ele><time>2026-04-22T13:06:35Z</time></trkpt><trkpt lat="43.68457607274641" lon="7.235438544456305"><ele>7.6000000000000005</ele><time>2026-04-22T13:06:36Z</time></trkpt><trkpt lat="43.684500776877115" lon="7.235355340964603"><ele>7.800000000000001</ele><time>2026-04-22T13:06:37Z</time></trkpt><trkpt lat="43.68442572432288" lon="7.235270725596067"><ele>8.0</ele><time>2026-04-22T13:06:37.999Z</time></trkpt><trkpt lat="43.68435041115857" lon="7.235188205095486"><ele>8.8</ele><time>2026-04-22T13:06:38.999Z</time></trkpt><trkpt lat="43.684283428249145" lon="7.235109942372418"><ele>9.600000000000001</ele><time>2026-04-22T13:06:39.999Z</time></trkpt><trkpt lat="43.68421513519249" lon="7.23503128981658"><ele>10.399999999999999</ele><time>2026-04-22T13:06:40.999Z</time></trkpt><trkpt lat="43.68414278102666" lon="7.234949009908551"><ele>11.2</ele><time>2026-04-22T13:06:41.999Z</time></trkpt><trkpt lat="43.68406853439981" lon="7.234866016555636"><ele>12.0</ele><time>2026-04-22T13:06:42.999Z</time></trkpt><trkpt lat="43.6839900955207" lon="7.23477808246563"><ele>12.2</ele><time>2026-04-22T13:06:43.999Z</time></trkpt><trkpt lat="43.68391408867995" lon="7.234691827376866"><ele>12.399999999999999</ele><time>2026-04-22T13:06:44.999Z</time></trkpt><trkpt lat="43.683835840222926" lon="7.234605983572547"><ele>12.600000000000001</ele><time>2026-04-22T13:06:45.999Z</time></trkpt><trkpt lat="43.6837584076722" lon="7.234519614384703"><ele>12.8</ele><time>2026-04-22T13:06:46.999Z</time></trkpt><trkpt lat="43.68368197853217" lon="7.234430942451764"><ele>13.0</ele><time>2026-04-22T13:06:47.999Z</time></trkpt><trkpt lat="43.68360444543375" lon="7.234343282700792"><ele>12.4</ele><time>2026-04-22T13:06:48.999Z</time></trkpt><trkpt lat="43.68352539296342" lon="7.2342583938280525"><ele>11.8</ele><time>2026-04-22T13:06:49.999Z</time></trkpt><trkpt lat="43.68344729747547" lon="7.234169498098296"><ele>11.2</ele><time>2026-04-22T13:06:50.999Z</time></trkpt><trkpt lat="43.683369950828585" lon="7.2340838839076795"><ele>10.6</ele><time>2026-04-22T13:06:51.999Z</time></trkpt><trkpt lat="43.68329264826121" lon="7.233995378658106"><ele>10.0</ele><time>2026-04-22T13:06:52.999Z</time></trkpt><trkpt lat="43.68321312694203" lon="7.233908037038122"><ele>10.0</ele><time>2026-04-22T13:06:53.999Z</time></trkpt><trkpt lat="43.68313352634357" lon="7.233820970378716"><ele>10.0</ele><time>2026-04-22T13:06:54.999Z</time></trkpt><trkpt lat="43.68305125249979" lon="7.233729991464901"><ele>10.0</ele><time>2026-04-22T13:06:55.999Z</time></trkpt><trkpt lat="43.68296827280689" lon="7.233637101341845"><ele>10.0</ele><time>2026-04-22T13:06:56.999Z</time></trkpt><trkpt lat="43.68289235190981" lon="7.23355389218133"><ele>10.0</ele><time>2026-04-22T13:06:57.999Z</time></trkpt><trkpt lat="43.6828211973678" lon="7.233474537035654"><ele>10.166666666666668</ele><time>2026-04-22T13:06:58.999Z</time></trkpt><trkpt lat="43.68275678093397" lon="7.233402761202878"><ele>10.333333333333334</ele><time>2026-04-22T13:06:59.999Z</time></trkpt><trkpt lat="43.68269431380216" lon="7.2333346909846"><ele>10.5</ele><time>2026-04-22T13:07:00.999Z</time></trkpt><trkpt lat="43.68263771537558" lon="7.23327309264851"><ele>10.666666666666666</ele><time>2026-04-22T13:07:01.999Z</time></trkpt><trkpt lat="43.682582465444526" lon="7.2332145530383025"><ele>10.833333333333332</ele><time>2026-04-22T13:07:02.999Z</time></trkpt><trkpt lat="43.68249707953328" lon="7.233120676953084"><ele>11.0</ele><time>2026-04-22T13:07:04.999Z</time></trkpt><trkpt lat="43.68243672959745" lon="7.233055110781113"><ele>11.4</ele><time>2026-04-22T13:07:06.999Z</time></trkpt><trkpt lat="43.68237618395139" lon="7.232983003481736"><ele>11.8</ele><time>2026-04-22T13:07:08.999Z</time></trkpt><trkpt lat="43.68230144064092" lon="7.2328821556408505"><ele>12.200000000000001</ele><time>2026-04-22T13:07:10.999Z</time></trkpt><trkpt lat="43.68221121297813" lon="7.23277964521001"><ele>12.600000000000001</ele><time>2026-04-22T13:07:12.999Z</time></trkpt><trkpt lat="43.68213583737444" lon="7.2326900354599655"><ele>13.0</ele><time>2026-04-22T13:07:14.999Z</time></trkpt><trkpt lat="43.68208345977875" lon="7.232616551783832"><ele>12.999999999999998</ele><time>2026-04-22T13:07:17.999Z</time></trkpt><trkpt lat="43.68199496265512" lon="7.232541288206797"><ele>13.0</ele><time>2026-04-22T13:07:39Z</time></trkpt><trkpt lat="43.68194244541006" lon="7.232491275323643"><ele>13.0</ele><time>2026-04-22T13:07:40Z</time></trkpt><trkpt lat="43.68187177777951" lon="7.232426505265514"><ele>13.0</ele><time>2026-04-22T13:07:41Z</time></trkpt><trkpt lat="43.68180263432682" lon="7.232361105758213"><ele>12.999999999999998</ele><time>2026-04-22T13:07:42Z</time></trkpt><trkpt lat="43.68172559806612" lon="7.2322804747217075"><ele>13.0</ele><time>2026-04-22T13:07:43Z</time></trkpt><trkpt lat="43.6816432156349" lon="7.232187892113994"><ele>12.0</ele><time>2026-04-22T13:07:44Z</time></trkpt><trkpt lat="43.68155349227927" lon="7.232091925103897"><ele>11.0</ele><time>2026-04-22T13:07:45Z</time></trkpt><trkpt lat="43.681451667818" lon="7.231985598761816"><ele>10.0</ele><time>2026-04-22T13:07:46Z</time></trkpt><trkpt lat="43.68133769030209" lon="7.231862404094736"><ele>9.0</ele><time>2026-04-22T13:07:47Z</time></trkpt><trkpt lat="43.68122646002452" lon="7.23174218286415"><ele>9.0</ele><time>2026-04-22T13:07:48Z</time></trkpt><trkpt lat="43.68110044525863" lon="7.231608110911443"><ele>9.0</ele><time>2026-04-22T13:07:49Z</time></trkpt><trkpt lat="43.68095188869697" lon="7.231464929775178"><ele>9.0</ele><time>2026-04-22T13:07:50Z</time></trkpt><trkpt lat="43.68077842169389" lon="7.2313164545179545"><ele>11.0</ele><time>2026-04-22T13:07:51Z</time></trkpt><trkpt lat="43.6806174201285" lon="7.231183473976347"><ele>13.0</ele><time>2026-04-22T13:07:52Z</time></trkpt><trkpt lat="43.68045920711205" lon="7.231048778170411"><ele>15.0</ele><time>2026-04-22T13:07:53Z</time></trkpt><trkpt lat="43.68032567446564" lon="7.230941317861068"><ele>14.75</ele><time>2026-04-22T13:07:54Z</time></trkpt><trkpt lat="43.680209518488255" lon="7.230846822472378"><ele>14.5</ele><time>2026-04-22T13:07:55Z</time></trkpt><trkpt lat="43.68010110885878" lon="7.230760256192"><ele>14.25</ele><time>2026-04-22T13:07:56Z</time></trkpt><trkpt lat="43.68000108060782" lon="7.230682475895696"><ele>14.0</ele><time>2026-04-22T13:07:57Z</time></trkpt><trkpt lat="43.679907000730125" lon="7.23061093883341"><ele>14.0</ele><time>2026-04-22T13:07:58Z</time></trkpt><trkpt lat="43.679810960106686" lon="7.23054020154931"><ele>13.999999999999998</ele><time>2026-04-22T13:07:59Z</time></trkpt><trkpt lat="43.679710710789294" lon="7.2304699849280905"><ele>13.999999999999998</ele><time>2026-04-22T13:08:00Z</time></trkpt><trkpt lat="43.67960802559898" lon="7.230396715391248"><ele>14.0</ele><time>2026-04-22T13:08:01Z</time></trkpt><trkpt lat="43.67951379822933" lon="7.230323619975361"><ele>14.0</ele><time>2026-04-22T13:08:02Z</time></trkpt><trkpt lat="43.679430777504486" lon="7.2302567670245415"><ele>13.666666666666668</ele><time>2026-04-22T13:08:03Z</time></trkpt><trkpt lat="43.67935505568711" lon="7.230198969524182"><ele>13.333333333333334</ele><time>2026-04-22T13:08:04Z</time></trkpt><trkpt lat="43.679282838843974" lon="7.2301422222372524"><ele>13.0</ele><time>2026-04-22T13:08:05Z</time></trkpt><trkpt lat="43.67920952753664" lon="7.230089569189905"><ele>12.666666666666668</ele><time>2026-04-22T13:08:06Z</time></trkpt><trkpt lat="43.679139703359525" lon="7.230036825656999"><ele>12.333333333333334</ele><time>2026-04-22T13:08:07Z</time></trkpt><trkpt lat="43.679071142891225" lon="7.2299902908244915"><ele>12.0</ele><time>2026-04-22T13:08:08Z</time></trkpt><trkpt lat="43.67899685568702" lon="7.22994004596079"><ele>12.0</ele><time>2026-04-22T13:08:09Z</time></trkpt><trkpt lat="43.67891580520737" lon="7.229888278616893"><ele>12.0</ele><time>2026-04-22T13:08:10Z</time></trkpt><trkpt lat="43.6788379254537" lon="7.229838543653139"><ele>12.0</ele><time>2026-04-22T13:08:11Z</time></trkpt><trkpt lat="43.678762909833885" lon="7.229784059086601"><ele>12.0</ele><time>2026-04-22T13:08:12Z</time></trkpt><trkpt lat="43.67868031221763" lon="7.229720636144781"><ele>12.0</ele><time>2026-04-22T13:08:13Z</time></trkpt><trkpt lat="43.6785927324203" lon="7.229644986479413"><ele>12.0</ele><time>2026-04-22T13:08:14Z</time></trkpt><trkpt lat="43.67849846882885" lon="7.229572812759592"><ele>12.0</ele><time>2026-04-22T13:08:15Z</time></trkpt><trkpt lat="43.678409578328385" lon="7.22950757719125"><ele>12.0</ele><time>2026-04-22T13:08:16Z</time></trkpt><trkpt lat="43.678321087248605" lon="7.229440486788285"><ele>12.0</ele><time>2026-04-22T13:08:17Z</time></trkpt><trkpt lat="43.678232203318125" lon="7.2293747012493315"><ele>12.0</ele><time>2026-04-22T13:08:18Z</time></trkpt><trkpt lat="43.67813901537191" lon="7.229306029231477"><ele>12.0</ele><time>2026-04-22T13:08:19Z</time></trkpt><trkpt lat="43.678036992895315" lon="7.2292351355746804"><ele>12.0</ele><time>2026-04-22T13:08:20Z</time></trkpt><trkpt lat="43.67793036157746" lon="7.229164786757577"><ele>12.0</ele><time>2026-04-22T13:08:21Z</time></trkpt><trkpt lat="43.67782133486103" lon="7.229114158656745"><ele>12.0</ele><time>2026-04-22T13:08:22Z</time></trkpt><trkpt lat="43.677722475822065" lon="7.229047602494832"><ele>11.4</ele><time>2026-04-22T13:08:23Z</time></trkpt><trkpt lat="43.67765544043162" lon="7.228974311421049"><ele>10.799999999999999</ele><time>2026-04-22T13:08:24Z</time></trkpt><trkpt lat="43.67757057185133" lon="7.228915598195508"><ele>10.2</ele><time>2026-04-22T13:08:25Z</time></trkpt><trkpt lat="43.67748179780216" lon="7.228860146344437"><ele>9.6</ele><time>2026-04-22T13:08:26Z</time></trkpt><trkpt lat="43.67739149028271" lon="7.22880870588686"><ele>9.0</ele><time>2026-04-22T13:08:27Z</time></trkpt><trkpt lat="43.67730116824589" lon="7.228755606095205"><ele>9.0</ele><time>2026-04-22T13:08:28Z</time></trkpt><trkpt lat="43.67721128414968" lon="7.2287016868543965"><ele>9.0</ele><time>2026-04-22T13:08:29Z</time></trkpt><trkpt lat="43.67712199810778" lon="7.228650216426008"><ele>9.0</ele><time>2026-04-22T13:08:30Z</time></trkpt><trkpt lat="43.67703490324049" lon="7.228598641287749"><ele>9.0</ele><time>2026-04-22T13:08:31Z</time></trkpt><trkpt lat="43.67694636908506" lon="7.228545145978957"><ele>9.0</ele><time>2026-04-22T13:08:32Z</time></trkpt><trkpt lat="43.676857541954526" lon="7.228494125243473"><ele>8.666666666666666</ele><time>2026-04-22T13:08:32.999Z</time></trkpt><trkpt lat="43.67677266774793" lon="7.228445955576215"><ele>8.333333333333334</ele><time>2026-04-22T13:08:33.999Z</time></trkpt><trkpt lat="43.67669096040595" lon="7.2284030614557375"><ele>8.0</ele><time>2026-04-22T13:08:34.999Z</time></trkpt><trkpt lat="43.676612432874485" lon="7.228356684064895"><ele>7.666666666666667</ele><time>2026-04-22T13:08:35.999Z</time></trkpt><trkpt lat="43.676553832562306" lon="7.228324028610479"><ele>7.333333333333334</ele><time>2026-04-22T13:08:36.999Z</time></trkpt><trkpt lat="43.676480687501254" lon="7.228284475570013"><ele>7.0</ele><time>2026-04-22T13:08:38.999Z</time></trkpt><trkpt lat="43.67642033405591" lon="7.228250777036558"><ele>7.0</ele><time>2026-04-22T13:08:40.999Z</time></trkpt><trkpt lat="43.67636246663087" lon="7.2282140702773"><ele>6.999999999999999</ele><time>2026-04-22T13:08:43.999Z</time></trkpt><trkpt lat="43.67630365200714" lon="7.228180060799983"><ele>6.999999999999999</ele><time>2026-04-22T13:08:45.999Z</time></trkpt><trkpt lat="43.67622133331564" lon="7.228135419663938"><ele>7.0</ele><time>2026-04-22T13:08:47.999Z</time></trkpt><trkpt lat="43.67612388452028" lon="7.228079513479833"><ele>7.0</ele><time>2026-04-22T13:08:49.999Z</time></trkpt><trkpt lat="43.67599828936662" lon="7.228009920823465"><ele>7.333333333333334</ele><time>2026-04-22T13:08:51.999Z</time></trkpt><trkpt lat="43.67591180906537" lon="7.227960832242698"><ele>7.666666666666667</ele><time>2026-04-22T13:08:52.999Z</time></trkpt><trkpt lat="43.675837640186266" lon="7.22791306021149"><ele>8.0</ele><time>2026-04-22T13:08:53.999Z</time></trkpt><trkpt lat="43.67576616647517" lon="7.227874313789627"><ele>8.333333333333334</ele><time>2026-04-22T13:08:54.999Z</time></trkpt><trkpt lat="43.67569502355376" lon="7.227834756963876"><ele>8.666666666666666</ele><time>2026-04-22T13:08:55.999Z</time></trkpt><trkpt lat="43.67562323908608" lon="7.2277935402280375"><ele>9.0</ele><time>2026-04-22T13:08:56.999Z</time></trkpt><trkpt lat="43.67554492978612" lon="7.2277483622329175"><ele>9.0</ele><time>2026-04-22T13:08:57.999Z</time></trkpt><trkpt lat="43.67546399056855" lon="7.2277076285771695"><ele>9.0</ele><time>2026-04-22T13:08:58.999Z</time></trkpt><trkpt lat="43.67538645308553" lon="7.227661993506942"><ele>9.0</ele><time>2026-04-22T13:08:59.999Z</time></trkpt><trkpt lat="43.67531116980834" lon="7.227613507689232"><ele>9.0</ele><time>2026-04-22T13:09:00.999Z</time></trkpt><trkpt lat="43.675233830460805" lon="7.227567336836515"><ele>9.0</ele><time>2026-04-22T13:09:01.999Z</time></trkpt><trkpt lat="43.675150820446206" lon="7.227521154396065"><ele>9.0</ele><time>2026-04-22T13:09:02.999Z</time></trkpt><trkpt lat="43.67506530729616" lon="7.2274730616726925"><ele>8.75</ele><time>2026-04-22T13:09:03.999Z</time></trkpt><trkpt lat="43.67497154011885" lon="7.227418904268925"><ele>8.5</ele><time>2026-04-22T13:09:04.999Z</time></trkpt><trkpt lat="43.67485589000725" lon="7.227362331229736"><ele>8.25</ele><time>2026-04-22T13:09:05.999Z</time></trkpt><trkpt lat="43.67473623091912" lon="7.227302619377892"><ele>8.0</ele><time>2026-04-22T13:09:06.999Z</time></trkpt><trkpt lat="43.67461141617524" lon="7.227235204928555"><ele>8.0</ele><time>2026-04-22T13:09:07.999Z</time></trkpt><trkpt lat="43.67446672490075" lon="7.227154422739113"><ele>8.0</ele><time>2026-04-22T13:09:08.999Z</time></trkpt><trkpt lat="43.67430716118325" lon="7.227064895540756"><ele>8.0</ele><time>2026-04-22T13:09:09.999Z</time></trkpt><trkpt lat="43.67415647120855" lon="7.226975448414457"><ele>8.0</ele><time>2026-04-22T13:09:10.999Z</time></trkpt><trkpt lat="43.674002419419175" lon="7.226892142368185"><ele>8.0</ele><time>2026-04-22T13:09:11.999Z</time></trkpt><trkpt lat="43.673843202127884" lon="7.226801652913618"><ele>8.0</ele><time>2026-04-22T13:09:12.999Z</time></trkpt><trkpt lat="43.6736793733077" lon="7.226704613320166"><ele>8.333333333333332</ele><time>2026-04-22T13:09:13.999Z</time></trkpt><trkpt lat="43.67351791918008" lon="7.226600261835797"><ele>8.666666666666666</ele><time>2026-04-22T13:09:14.999Z</time></trkpt><trkpt lat="43.67336219492006" lon="7.226490840724212"><ele>9.0</ele><time>2026-04-22T13:09:15.999Z</time></trkpt><trkpt lat="43.67321538543165" lon="7.226384881691416"><ele>8.333333333333334</ele><time>2026-04-22T13:09:16.999Z</time></trkpt><trkpt lat="43.67307682499213" lon="7.226274865360006"><ele>7.666666666666667</ele><time>2026-04-22T13:09:17.999Z</time></trkpt><trkpt lat="43.67294112137519" lon="7.226164024390124"><ele>7.0</ele><time>2026-04-22T13:09:18.999Z</time></trkpt><trkpt lat="43.67280980608551" lon="7.226046552325955"><ele>7.333333333333334</ele><time>2026-04-22T13:09:19.999Z</time></trkpt><trkpt lat="43.672677237665965" lon="7.225922266094563"><ele>7.666666666666666</ele><time>2026-04-22T13:09:20.999Z</time></trkpt><trkpt lat="43.67254327366803" lon="7.225796278897585"><ele>8.0</ele><time>2026-04-22T13:09:21.999Z</time></trkpt><trkpt lat="43.67241647499537" lon="7.225669692544098"><ele>7.75</ele><time>2026-04-22T13:09:22.999Z</time></trkpt><trkpt lat="43.67229790310257" lon="7.225544801347924"><ele>7.5</ele><time>2026-04-22T13:09:23.999Z</time></trkpt><trkpt lat="43.67218120137358" lon="7.2254200122058725"><ele>7.25</ele><time>2026-04-22T13:09:24.999Z</time></trkpt><trkpt lat="43.67207279995894" lon="7.225298144083972"><ele>7.0</ele><time>2026-04-22T13:09:25.999Z</time></trkpt><trkpt lat="43.67197216524859" lon="7.225180641361838"><ele>7.0</ele><time>2026-04-22T13:09:26.999Z</time></trkpt><trkpt lat="43.67187884945035" lon="7.225061199284638"><ele>7.0</ele><time>2026-04-22T13:09:27.999Z</time></trkpt><trkpt lat="43.671789612719486" lon="7.224933120376504"><ele>7.0</ele><time>2026-04-22T13:09:28.999Z</time></trkpt><trkpt lat="43.67169897904995" lon="7.224801723358007"><ele>7.0</ele><time>2026-04-22T13:09:29.999Z</time></trkpt><trkpt lat="43.67159990293826" lon="7.224677040554"><ele>7.25</ele><time>2026-04-22T13:09:30.999Z</time></trkpt><trkpt lat="43.67149013065757" lon="7.224560163486126"><ele>7.5</ele><time>2026-04-22T13:09:31.999Z</time></trkpt><trkpt lat="43.671393427857524" lon="7.224423063050188"><ele>7.75</ele><time>2026-04-22T13:09:32.999Z</time></trkpt><trkpt lat="43.671301075747444" lon="7.224294763735868"><ele>8.0</ele><time>2026-04-22T13:09:33.999Z</time></trkpt><trkpt lat="43.67121188213131" lon="7.224175215212958"><ele>8.0</ele><time>2026-04-22T13:09:34.999Z</time></trkpt><trkpt lat="43.67112440952138" lon="7.22405832963503"><ele>8.0</ele><time>2026-04-22T13:09:35.999Z</time></trkpt><trkpt lat="43.671042831921284" lon="7.223945827376541"><ele>8.0</ele><time>2026-04-22T13:09:36.999Z</time></trkpt><trkpt lat="43.67096798717509" lon="7.223838660039539"><ele>8.0</ele><time>2026-04-22T13:09:37.999Z</time></trkpt><trkpt lat="43.67089514404318" lon="7.223739528048795"><ele>8.0</ele><time>2026-04-22T13:09:38.999Z</time></trkpt><trkpt lat="43.67082328347459" lon="7.223641671893652"><ele>8.0</ele><time>2026-04-22T13:09:39.999Z</time></trkpt><trkpt lat="43.67075007798834" lon="7.223541276787227"><ele>8.0</ele><time>2026-04-22T13:09:40.999Z</time></trkpt><trkpt lat="43.670676166445695" lon="7.2234366915577315"><ele>8.0</ele><time>2026-04-22T13:09:42Z</time></trkpt><trkpt lat="43.670602526703426" lon="7.2233338016510285"><ele>8.0</ele><time>2026-04-22T13:09:43Z</time></trkpt><trkpt lat="43.67052905633946" lon="7.223231031775403"><ele>8.0</ele><time>2026-04-22T13:09:44Z</time></trkpt><trkpt lat="43.67045179964931" lon="7.223125609010733"><ele>8.0</ele><time>2026-04-22T13:09:45Z</time></trkpt><trkpt lat="43.67037431212671" lon="7.223019169896704"><ele>8.0</ele><time>2026-04-22T13:09:46Z</time></trkpt><trkpt lat="43.67029865019559" lon="7.222912878767122"><ele>8.0</ele><time>2026-04-22T13:09:47Z</time></trkpt><trkpt lat="43.67022249022442" lon="7.222806530549024"><ele>8.0</ele><time>2026-04-22T13:09:48Z</time></trkpt><trkpt lat="43.67014698622152" lon="7.22270118705205"><ele>8.0</ele><time>2026-04-22T13:09:49Z</time></trkpt><trkpt lat="43.67007495180738" lon="7.222602408607046"><ele>7.999999999999999</ele><time>2026-04-22T13:09:50Z</time></trkpt><trkpt lat="43.67000921464189" lon="7.222508594687778"><ele>8.0</ele><time>2026-04-22T13:09:51Z</time></trkpt><trkpt lat="43.669948277378445" lon="7.2224255319564215"><ele>8.0</ele><time>2026-04-22T13:09:52Z</time></trkpt><trkpt lat="43.669890115774386" lon="7.222344739533282"><ele>8.0</ele><time>2026-04-22T13:09:53Z</time></trkpt><trkpt lat="43.66983604610587" lon="7.222265986417796"><ele>7.999999999999999</ele><time>2026-04-22T13:09:54Z</time></trkpt><trkpt lat="43.66978360147122" lon="7.2221932220313025"><ele>8.0</ele><time>2026-04-22T13:09:55Z</time></trkpt><trkpt lat="43.66973676862891" lon="7.222123225451849"><ele>7.999999999999999</ele><time>2026-04-22T13:09:56Z</time></trkpt><trkpt lat="43.6696906062518" lon="7.2220601153232415"><ele>8.0</ele><time>2026-04-22T13:09:57Z</time></trkpt><trkpt lat="43.66961072978671" lon="7.221949440321999"><ele>8.0</ele><time>2026-04-22T13:09:59Z</time></trkpt><trkpt lat="43.66954971656525" lon="7.221872471474841"><ele>8.0</ele><time>2026-04-22T13:10:01Z</time></trkpt><trkpt lat="43.66950126673951" lon="7.221806469154417"><ele>7.999999999999999</ele><time>2026-04-22T13:10:03Z</time></trkpt><trkpt lat="43.669452580665194" lon="7.221733619734576"><ele>8.0</ele><time>2026-04-22T13:10:09Z</time></trkpt><trkpt lat="43.66937539972344" lon="7.2216239176820505"><ele>7.833333333333333</ele><time>2026-04-22T13:10:11Z</time></trkpt><trkpt lat="43.669329883202735" lon="7.221559887385444"><ele>7.666666666666666</ele><time>2026-04-22T13:10:12Z</time></trkpt><trkpt lat="43.6692389115681" lon="7.221427962173536"><ele>7.5</ele><time>2026-04-22T13:10:14Z</time></trkpt><trkpt lat="43.669182697088424" lon="7.221355511568126"><ele>7.333333333333334</ele><time>2026-04-22T13:10:15Z</time></trkpt><trkpt lat="43.66912905050156" lon="7.221280902467878"><ele>7.166666666666667</ele><time>2026-04-22T13:10:16Z</time></trkpt><trkpt lat="43.6690756963716" lon="7.221206886976874"><ele>7.0</ele><time>2026-04-22T13:10:17Z</time></trkpt><trkpt lat="43.66901382780482" lon="7.221121243803776"><ele>7.000000000000001</ele><time>2026-04-22T13:10:18Z</time></trkpt><trkpt lat="43.66895085139121" lon="7.221029522364592"><ele>7.0</ele><time>2026-04-22T13:10:19Z</time></trkpt><trkpt lat="43.66889205535367" lon="7.220944662912448"><ele>7.0</ele><time>2026-04-22T13:10:20Z</time></trkpt><trkpt lat="43.66882981728172" lon="7.22086125904662"><ele>7.0</ele><time>2026-04-22T13:10:21Z</time></trkpt><trkpt lat="43.6687672443511" lon="7.220773496051729"><ele>7.000000000000001</ele><time>2026-04-22T13:10:22Z</time></trkpt><trkpt lat="43.66869909341044" lon="7.22068313093822"><ele>7.0</ele><time>2026-04-22T13:10:23Z</time></trkpt><trkpt lat="43.668628850548025" lon="7.220583569973776"><ele>6.8</ele><time>2026-04-22T13:10:24Z</time></trkpt><trkpt lat="43.668559789578836" lon="7.220482596568026"><ele>6.6</ele><time>2026-04-22T13:10:25Z</time></trkpt><trkpt lat="43.66849555450036" lon="7.2203866030996116"><ele>6.3999999999999995</ele><time>2026-04-22T13:10:26Z</time></trkpt><trkpt lat="43.66843257206824" lon="7.220289150762093"><ele>6.199999999999999</ele><time>2026-04-22T13:10:27Z</time></trkpt><trkpt lat="43.6683711933866" lon="7.220191630724952"><ele>6.0</ele><time>2026-04-22T13:10:27.999Z</time></trkpt><trkpt lat="43.66830793511918" lon="7.22008955565534"><ele>6.0</ele><time>2026-04-22T13:10:28.999Z</time></trkpt><trkpt lat="43.6682473393428" lon="7.219983138006212"><ele>6.0</ele><time>2026-04-22T13:10:29.999Z</time></trkpt><trkpt lat="43.66818644000284" lon="7.2198773069861275"><ele>6.0</ele><time>2026-04-22T13:10:30.999Z</time></trkpt><trkpt lat="43.66813062085897" lon="7.219775370068903"><ele>6.0</ele><time>2026-04-22T13:10:31.999Z</time></trkpt><trkpt lat="43.668077320107926" lon="7.219681150400636"><ele>6.0</ele><time>2026-04-22T13:10:32.999Z</time></trkpt><trkpt lat="43.668027145575635" lon="7.219580770217416"><ele>5.833333333333333</ele><time>2026-04-22T13:10:33.999Z</time></trkpt><trkpt lat="43.667975581940674" lon="7.219482312026445"><ele>5.666666666666667</ele><time>2026-04-22T13:10:34.999Z</time></trkpt><trkpt lat="43.66792727346901" lon="7.219380994046443"><ele>5.5</ele><time>2026-04-22T13:10:35.999Z</time></trkpt><trkpt lat="43.66788044529235" lon="7.219276535153196"><ele>5.333333333333334</ele><time>2026-04-22T13:10:36.999Z</time></trkpt><trkpt lat="43.66783333498517" lon="7.219174939081924"><ele>5.166666666666667</ele><time>2026-04-22T13:10:37.999Z</time></trkpt><trkpt lat="43.667785779123406" lon="7.219067288721416"><ele>5.0</ele><time>2026-04-22T13:10:38.999Z</time></trkpt><trkpt lat="43.667735226549595" lon="7.218944717880046"><ele>5.0</ele><time>2026-04-22T13:10:39.999Z</time></trkpt><trkpt lat="43.667680226023215" lon="7.218810715945339"><ele>5.0</ele><time>2026-04-22T13:10:40.999Z</time></trkpt><trkpt lat="43.66762812609084" lon="7.218659993719273"><ele>5.0</ele><time>2026-04-22T13:10:41.999Z</time></trkpt><trkpt lat="43.667570938081475" lon="7.2185042907232635"><ele>5.0</ele><time>2026-04-22T13:10:42.999Z</time></trkpt><trkpt lat="43.66752427280934" lon="7.218344713633804"><ele>5.0</ele><time>2026-04-22T13:10:43.999Z</time></trkpt><trkpt lat="43.66748204916404" lon="7.2181774275322645"><ele>5.0</ele><time>2026-04-22T13:10:44.999Z</time></trkpt><trkpt lat="43.66739497164348" lon="7.2180423878682625"><ele>5.0</ele><time>2026-04-22T13:10:45.999Z</time></trkpt><trkpt lat="43.66734524709055" lon="7.217874539674339"><ele>5.0</ele><time>2026-04-22T13:10:46.999Z</time></trkpt><trkpt lat="43.6673020828889" lon="7.217704813861948"><ele>5.25</ele><time>2026-04-22T13:10:47.999Z</time></trkpt><trkpt lat="43.66725907151189" lon="7.2175307740268435"><ele>5.5</ele><time>2026-04-22T13:10:48.999Z</time></trkpt><trkpt lat="43.66721797209726" lon="7.217364738254015"><ele>5.75</ele><time>2026-04-22T13:10:49.999Z</time></trkpt><trkpt lat="43.667175161545565" lon="7.217196276298552"><ele>6.0</ele><time>2026-04-22T13:10:50.999Z</time></trkpt><trkpt lat="43.66713876807635" lon="7.217037791114821"><ele>6.4</ele><time>2026-04-22T13:10:51.999Z</time></trkpt><trkpt lat="43.66710448048351" lon="7.2168790319171645"><ele>6.8</ele><time>2026-04-22T13:10:52.999Z</time></trkpt><trkpt lat="43.66707689783391" lon="7.216725793663173"><ele>7.200000000000001</ele><time>2026-04-22T13:10:53.999Z</time></trkpt><trkpt lat="43.6670517254386" lon="7.216586834003885"><ele>7.6000000000000005</ele><time>2026-04-22T13:10:54.999Z</time></trkpt><trkpt lat="43.6670278020645" lon="7.216446983251486"><ele>8.0</ele><time>2026-04-22T13:10:55.999Z</time></trkpt><trkpt lat="43.66700993873406" lon="7.216300108910604"><ele>8.200000000000001</ele><time>2026-04-22T13:10:56.999Z</time></trkpt><trkpt lat="43.66699126992744" lon="7.216159822194406"><ele>8.4</ele><time>2026-04-22T13:10:57.999Z</time></trkpt><trkpt lat="43.66697509326714" lon="7.2160198602277275"><ele>8.600000000000001</ele><time>2026-04-22T13:10:58.999Z</time></trkpt><trkpt lat="43.666960370007274" lon="7.215890624168176"><ele>8.8</ele><time>2026-04-22T13:10:59.999Z</time></trkpt><trkpt lat="43.66694560651513" lon="7.2157663082219345"><ele>9.0</ele><time>2026-04-22T13:11:00.999Z</time></trkpt><trkpt lat="43.66692349420413" lon="7.215636989020697"><ele>9.2</ele><time>2026-04-22T13:11:01.999Z</time></trkpt><trkpt lat="43.666909510704414" lon="7.215497968584947"><ele>9.4</ele><time>2026-04-22T13:11:02.999Z</time></trkpt><trkpt lat="43.66689634391473" lon="7.215341152890654"><ele>9.6</ele><time>2026-04-22T13:11:03.999Z</time></trkpt><trkpt lat="43.66687996720217" lon="7.215186803168937"><ele>9.8</ele><time>2026-04-22T13:11:04.999Z</time></trkpt><trkpt lat="43.66685971362682" lon="7.215027341720132"><ele>10.0</ele><time>2026-04-22T13:11:05.999Z</time></trkpt><trkpt lat="43.66683895048863" lon="7.214866643270599"><ele>10.2</ele><time>2026-04-22T13:11:06.999Z</time></trkpt><trkpt lat="43.66682272733694" lon="7.214711276765223"><ele>10.4</ele><time>2026-04-22T13:11:07.999Z</time></trkpt><trkpt lat="43.66680576773087" lon="7.2145749697927215"><ele>10.600000000000001</ele><time>2026-04-22T13:11:08.999Z</time></trkpt><trkpt lat="43.66678901997877" lon="7.214432257168282"><ele>10.8</ele><time>2026-04-22T13:11:09.999Z</time></trkpt><trkpt lat="43.66677240303068" lon="7.214302947621683"><ele>11.0</ele><time>2026-04-22T13:11:10.999Z</time></trkpt><trkpt lat="43.666758358443346" lon="7.214163711890884"><ele>11.0</ele><time>2026-04-22T13:11:11.999Z</time></trkpt><trkpt lat="43.666742707079905" lon="7.214035849737469"><ele>11.0</ele><time>2026-04-22T13:11:12.999Z</time></trkpt><trkpt lat="43.66672908009083" lon="7.213915572489406"><ele>11.0</ele><time>2026-04-22T13:11:13.999Z</time></trkpt><trkpt lat="43.66671756052409" lon="7.213799473452798"><ele>11.0</ele><time>2026-04-22T13:11:14.999Z</time></trkpt><trkpt lat="43.666699193304595" lon="7.213691055909627"><ele>11.0</ele><time>2026-04-22T13:11:15.999Z</time></trkpt><trkpt lat="43.66668526995906" lon="7.213584362637416"><ele>11.0</ele><time>2026-04-22T13:11:16.999Z</time></trkpt><trkpt lat="43.66667712928664" lon="7.213472392048563"><ele>10.600000000000001</ele><time>2026-04-22T13:11:17.999Z</time></trkpt><trkpt lat="43.66666530701437" lon="7.213361981497419"><ele>10.200000000000001</ele><time>2026-04-22T13:11:18.999Z</time></trkpt><trkpt lat="43.66665346874202" lon="7.213262974777594"><ele>9.8</ele><time>2026-04-22T13:11:19.999Z</time></trkpt><trkpt lat="43.666636920552186" lon="7.213167926845844"><ele>9.4</ele><time>2026-04-22T13:11:20.999Z</time></trkpt><trkpt lat="43.666620180953146" lon="7.213003991817429"><ele>9.0</ele><time>2026-04-22T13:11:22.999Z</time></trkpt><trkpt lat="43.666603198144706" lon="7.212856483697366"><ele>8.75</ele><time>2026-04-22T13:11:24.999Z</time></trkpt><trkpt lat="43.666587508093464" lon="7.212701611409376"><ele>8.5</ele><time>2026-04-22T13:11:26.999Z</time></trkpt><trkpt lat="43.66656928715588" lon="7.212550449766371"><ele>8.25</ele><time>2026-04-22T13:11:28.999Z</time></trkpt><trkpt lat="43.66655093121917" lon="7.212407067204751"><ele>8.0</ele><time>2026-04-22T13:11:30.999Z</time></trkpt><trkpt lat="43.66653003517689" lon="7.212222785576665"><ele>7.666666666666666</ele><time>2026-04-22T13:11:32.999Z</time></trkpt><trkpt lat="43.6665128929704" lon="7.212106643975407"><ele>7.333333333333333</ele><time>2026-04-22T13:11:33.999Z</time></trkpt><trkpt lat="43.6664986049619" lon="7.211993977218461"><ele>7.0</ele><time>2026-04-22T13:11:34.999Z</time></trkpt><trkpt lat="43.66648583066132" lon="7.211891228384652"><ele>6.666666666666666</ele><time>2026-04-22T13:11:35.999Z</time></trkpt><trkpt lat="43.6664745802702" lon="7.211788815493122"><ele>6.333333333333333</ele><time>2026-04-22T13:11:36.999Z</time></trkpt><trkpt lat="43.66646240795632" lon="7.211690617023473"><ele>6.0</ele><time>2026-04-22T13:11:37.999Z</time></trkpt><trkpt lat="43.666451239535135" lon="7.211592157389282"><ele>6.0</ele><time>2026-04-22T13:11:38.999Z</time></trkpt><trkpt lat="43.66644033876231" lon="7.211491412045686"><ele>6.0</ele><time>2026-04-22T13:11:39.999Z</time></trkpt><trkpt lat="43.66642600228102" lon="7.2113763584662305"><ele>6.0</ele><time>2026-04-22T13:11:40.999Z</time></trkpt><trkpt lat="43.66641264587006" lon="7.21125376731979"><ele>6.0</ele><time>2026-04-22T13:11:41.999Z</time></trkpt><trkpt lat="43.66639926526138" lon="7.211127717030839"><ele>6.0</ele><time>2026-04-22T13:11:42.999Z</time></trkpt><trkpt lat="43.6663836034071" lon="7.211005411003944"><ele>6.0</ele><time>2026-04-22T13:11:43.999Z</time></trkpt><trkpt lat="43.66636962610703" lon="7.210896093598195"><ele>6.166666666666667</ele><time>2026-04-22T13:11:44.999Z</time></trkpt><trkpt lat="43.66635937841764" lon="7.210791404274951"><ele>6.333333333333334</ele><time>2026-04-22T13:11:45.999Z</time></trkpt><trkpt lat="43.66634473016234" lon="7.210685418940069"><ele>6.5</ele><time>2026-04-22T13:11:47Z</time></trkpt><trkpt lat="43.66633110669106" lon="7.210575802015921"><ele>6.666666666666667</ele><time>2026-04-22T13:11:48Z</time></trkpt><trkpt lat="43.666318130753204" lon="7.2104655831259965"><ele>6.833333333333334</ele><time>2026-04-22T13:11:49Z</time></trkpt><trkpt lat="43.66630289331842" lon="7.210349156574103"><ele>7.0</ele><time>2026-04-22T13:11:50Z</time></trkpt><trkpt lat="43.666287790152296" lon="7.210226974927811"><ele>7.0</ele><time>2026-04-22T13:11:51Z</time></trkpt><trkpt lat="43.666274321125584" lon="7.210103312419513"><ele>6.999999999999999</ele><time>2026-04-22T13:11:52Z</time></trkpt><trkpt lat="43.66625886301111" lon="7.2099697695892715"><ele>6.999999999999999</ele><time>2026-04-22T13:11:53Z</time></trkpt><trkpt lat="43.66624288744311" lon="7.209837622342181"><ele>7.0</ele><time>2026-04-22T13:11:54Z</time></trkpt><trkpt lat="43.66622802151162" lon="7.209704250978402"><ele>7.0</ele><time>2026-04-22T13:11:55Z</time></trkpt><trkpt lat="43.66621133251189" lon="7.209567358134209"><ele>7.0</ele><time>2026-04-22T13:11:56Z</time></trkpt><trkpt lat="43.666196366233066" lon="7.209428739460616"><ele>6.999999999999999</ele><time>2026-04-22T13:11:57Z</time></trkpt><trkpt lat="43.66617684830346" lon="7.209289575939331"><ele>6.999999999999999</ele><time>2026-04-22T13:11:58Z</time></trkpt><trkpt lat="43.66616240970426" lon="7.209149228679679"><ele>7.0</ele><time>2026-04-22T13:11:59Z</time></trkpt><trkpt lat="43.66614312062541" lon="7.2090121126156195"><ele>7.0</ele><time>2026-04-22T13:12:00Z</time></trkpt><trkpt lat="43.666126811940885" lon="7.20887306229404"><ele>7.199999999999999</ele><time>2026-04-22T13:12:01Z</time></trkpt><trkpt lat="43.66610919549001" lon="7.20873439484062"><ele>7.3999999999999995</ele><time>2026-04-22T13:12:02Z</time></trkpt><trkpt lat="43.66609243778948" lon="7.208599423333293"><ele>7.6000000000000005</ele><time>2026-04-22T13:12:03Z</time></trkpt><trkpt lat="43.666078475182175" lon="7.2084687493921065"><ele>7.800000000000001</ele><time>2026-04-22T13:12:04Z</time></trkpt><trkpt lat="43.66606079909815" lon="7.208339491372339"><ele>8.0</ele><time>2026-04-22T13:12:05Z</time></trkpt><trkpt lat="43.66604509736187" lon="7.208208962415778"><ele>8.0</ele><time>2026-04-22T13:12:06Z</time></trkpt><trkpt lat="43.666029243692726" lon="7.208077955966523"><ele>8.0</ele><time>2026-04-22T13:12:07Z</time></trkpt><trkpt lat="43.66601326407546" lon="7.207939592764704"><ele>8.0</ele><time>2026-04-22T13:12:08Z</time></trkpt><trkpt lat="43.665995821283744" lon="7.207803557710163"><ele>8.0</ele><time>2026-04-22T13:12:09Z</time></trkpt><trkpt lat="43.665978355050065" lon="7.207662470632482"><ele>8.0</ele><time>2026-04-22T13:12:10Z</time></trkpt><trkpt lat="43.665959412765645" lon="7.2075097978367895"><ele>8.0</ele><time>2026-04-22T13:12:11Z</time></trkpt><trkpt lat="43.66594404895787" lon="7.207346640216266"><ele>8.0</ele><time>2026-04-22T13:12:12Z</time></trkpt><trkpt lat="43.66591934527799" lon="7.207179077640805"><ele>8.0</ele><time>2026-04-22T13:12:13Z</time></trkpt><trkpt lat="43.66589942174782" lon="7.2069980879339735"><ele>8.0</ele><time>2026-04-22T13:12:14Z</time></trkpt><trkpt lat="43.66587912895806" lon="7.206826462127859"><ele>8.0</ele><time>2026-04-22T13:12:15Z</time></trkpt><trkpt lat="43.66585653259778" lon="7.20665451154929"><ele>8.0</ele><time>2026-04-22T13:12:16Z</time></trkpt><trkpt lat="43.66583765111545" lon="7.2064727269703415"><ele>8.0</ele><time>2026-04-22T13:12:17Z</time></trkpt><trkpt lat="43.66581624993596" lon="7.206287367829336"><ele>8.0</ele><time>2026-04-22T13:12:17.999Z</time></trkpt><trkpt lat="43.665794446740115" lon="7.206098017709213"><ele>8.25</ele><time>2026-04-22T13:12:18.999Z</time></trkpt><trkpt lat="43.665775019082744" lon="7.205915515564946"><ele>8.5</ele><time>2026-04-22T13:12:19.999Z</time></trkpt><trkpt lat="43.66575481396312" lon="7.205739034900862"><ele>8.75</ele><time>2026-04-22T13:12:20.999Z</time></trkpt><trkpt lat="43.66573315250007" lon="7.205568663227146"><ele>9.0</ele><time>2026-04-22T13:12:21.999Z</time></trkpt><trkpt lat="43.665713167507406" lon="7.205394023166208"><ele>9.75</ele><time>2026-04-22T13:12:22.999Z</time></trkpt><trkpt lat="43.665691769388694" lon="7.205222136120029"><ele>10.5</ele><time>2026-04-22T13:12:23.999Z</time></trkpt><trkpt lat="43.66567001326712" lon="7.205041995413868"><ele>11.25</ele><time>2026-04-22T13:12:24.999Z</time></trkpt><trkpt lat="43.66564519124179" lon="7.204862122813372"><ele>12.0</ele><time>2026-04-22T13:12:25.999Z</time></trkpt><trkpt lat="43.665624824208" lon="7.204693981923369"><ele>12.2</ele><time>2026-04-22T13:12:26.999Z</time></trkpt><trkpt lat="43.665603911450305" lon="7.2045354788116525"><ele>12.399999999999999</ele><time>2026-04-22T13:12:27.999Z</time></trkpt><trkpt lat="43.66558200922979" lon="7.2043825102578705"><ele>12.600000000000001</ele><time>2026-04-22T13:12:28.999Z</time></trkpt><trkpt lat="43.665562884385956" lon="7.204243139876808"><ele>12.8</ele><time>2026-04-22T13:12:29.999Z</time></trkpt><trkpt lat="43.66554741055468" lon="7.204125297274803"><ele>13.0</ele><time>2026-04-22T13:12:30.999Z</time></trkpt><trkpt lat="43.66553084288316" lon="7.204023954683216"><ele>12.999999999999998</ele><time>2026-04-22T13:12:31.999Z</time></trkpt><trkpt lat="43.66551136426252" lon="7.203919763495805"><ele>13.0</ele><time>2026-04-22T13:12:32.999Z</time></trkpt><trkpt lat="43.6654967583334" lon="7.2038190514681535"><ele>13.0</ele><time>2026-04-22T13:12:34.999Z</time></trkpt><trkpt lat="43.66548046973663" lon="7.203712533903633"><ele>13.0</ele><time>2026-04-22T13:12:36.999Z</time></trkpt><trkpt lat="43.66546456627515" lon="7.20361443921993"><ele>12.999999999999998</ele><time>2026-04-22T13:12:37.999Z</time></trkpt><trkpt lat="43.66543671764976" lon="7.203478908857352"><ele>13.0</ele><time>2026-04-22T13:12:38.999Z</time></trkpt><trkpt lat="43.66540014492751" lon="7.20330615943303"><ele>12.75</ele><time>2026-04-22T13:12:39.999Z</time></trkpt><trkpt lat="43.66536157043377" lon="7.203122163699959"><ele>12.5</ele><time>2026-04-22T13:12:40.999Z</time></trkpt><trkpt lat="43.66531981881244" lon="7.202946307637042"><ele>12.25</ele><time>2026-04-22T13:12:41.999Z</time></trkpt><trkpt lat="43.665270053689206" lon="7.20275230667687"><ele>12.0</ele><time>2026-04-22T13:12:42.999Z</time></trkpt><trkpt lat="43.665210282765" lon="7.202542121894683"><ele>12.333333333333332</ele><time>2026-04-22T13:12:43.999Z</time></trkpt><trkpt lat="43.66514010797602" lon="7.202322757919145"><ele>12.666666666666666</ele><time>2026-04-22T13:12:44.999Z</time></trkpt><trkpt lat="43.66507617286033" lon="7.202126174259642"><ele>13.0</ele><time>2026-04-22T13:12:45.999Z</time></trkpt><trkpt lat="43.6650117199835" lon="7.201937983754229"><ele>13.0</ele><time>2026-04-22T13:12:46.999Z</time></trkpt><trkpt lat="43.664947209992334" lon="7.201761975824717"><ele>13.0</ele><time>2026-04-22T13:12:47.999Z</time></trkpt><trkpt lat="43.664879718058764" lon="7.201583195803948"><ele>13.0</ele><time>2026-04-22T13:12:48.999Z</time></trkpt><trkpt lat="43.66481334330254" lon="7.201400158265244"><ele>13.0</ele><time>2026-04-22T13:12:49.999Z</time></trkpt><trkpt lat="43.664745665858014" lon="7.201219619813821"><ele>12.333333333333332</ele><time>2026-04-22T13:12:50.999Z</time></trkpt><trkpt lat="43.664671455867555" lon="7.201035344871474"><ele>11.666666666666666</ele><time>2026-04-22T13:12:51.999Z</time></trkpt><trkpt lat="43.66460318003688" lon="7.200851363011448"><ele>11.0</ele><time>2026-04-22T13:12:52.999Z</time></trkpt><trkpt lat="43.66453343042746" lon="7.200666318009696"><ele>10.333333333333332</ele><time>2026-04-22T13:12:53.999Z</time></trkpt><trkpt lat="43.6644586697734" lon="7.2004780115768"><ele>9.666666666666666</ele><time>2026-04-22T13:12:54.999Z</time></trkpt><trkpt lat="43.664383861977534" lon="7.200289215656305"><ele>9.0</ele><time>2026-04-22T13:12:55.999Z</time></trkpt><trkpt lat="43.66431008768662" lon="7.200094604100007"><ele>8.5</ele><time>2026-04-22T13:12:56.999Z</time></trkpt><trkpt lat="43.6642391160645" lon="7.199902368242634"><ele>8.0</ele><time>2026-04-22T13:12:57.999Z</time></trkpt><trkpt lat="43.664170625567" lon="7.199719652157573"><ele>7.5</ele><time>2026-04-22T13:12:58.999Z</time></trkpt><trkpt lat="43.66410388029252" lon="7.199546528761681"><ele>7.0</ele><time>2026-04-22T13:12:59.999Z</time></trkpt><trkpt lat="43.664039943607484" lon="7.199375597104966"><ele>7.0</ele><time>2026-04-22T13:13:00.999Z</time></trkpt><trkpt lat="43.663974488481244" lon="7.199206801260138"><ele>7.0</ele><time>2026-04-22T13:13:01.999Z</time></trkpt><trkpt lat="43.66390745868372" lon="7.19903380184259"><ele>7.0</ele><time>2026-04-22T13:13:02.999Z</time></trkpt><trkpt lat="43.66383950251596" lon="7.198856688006872"><ele>7.0</ele><time>2026-04-22T13:13:03.999Z</time></trkpt><trkpt lat="43.66376796540455" lon="7.198672206124083"><ele>7.0</ele><time>2026-04-22T13:13:04.999Z</time></trkpt><trkpt lat="43.6636988274461" lon="7.1984902237959565"><ele>7.0</ele><time>2026-04-22T13:13:05.999Z</time></trkpt><trkpt lat="43.663632926467365" lon="7.198315734211054"><ele>7.0</ele><time>2026-04-22T13:13:06.999Z</time></trkpt><trkpt lat="43.663571209478114" lon="7.198154664304927"><ele>7.0</ele><time>2026-04-22T13:13:07.999Z</time></trkpt><trkpt lat="43.66351118996904" lon="7.1979976168259405"><ele>8.25</ele><time>2026-04-22T13:13:08.999Z</time></trkpt><trkpt lat="43.66344933938848" lon="7.197836235343458"><ele>9.5</ele><time>2026-04-22T13:13:09.999Z</time></trkpt><trkpt lat="43.66338605247194" lon="7.197671586230104"><ele>10.75</ele><time>2026-04-22T13:13:10.999Z</time></trkpt><trkpt lat="43.6633245272972" lon="7.197508166893173"><ele>12.0</ele><time>2026-04-22T13:13:11.999Z</time></trkpt><trkpt lat="43.663266314124094" lon="7.197354243648453"><ele>13.0</ele><time>2026-04-22T13:13:12.999Z</time></trkpt><trkpt lat="43.663208940602736" lon="7.197207346931013"><ele>14.0</ele><time>2026-04-22T13:13:13.999Z</time></trkpt><trkpt lat="43.66315578957049" lon="7.197063697401082"><ele>15.0</ele><time>2026-04-22T13:13:14.999Z</time></trkpt><trkpt lat="43.663094245876245" lon="7.196911607657276"><ele>16.0</ele><time>2026-04-22T13:13:15.999Z</time></trkpt><trkpt lat="43.66302523654008" lon="7.196740933175843"><ele>16.0</ele><time>2026-04-22T13:13:16.999Z</time></trkpt><trkpt lat="43.66295204494378" lon="7.196570659908168"><ele>16.0</ele><time>2026-04-22T13:13:17.999Z</time></trkpt><trkpt lat="43.662876206348315" lon="7.19640256380408"><ele>16.0</ele><time>2026-04-22T13:13:18.999Z</time></trkpt><trkpt lat="43.66279984139393" lon="7.196242546327795"><ele>16.0</ele><time>2026-04-22T13:13:19.999Z</time></trkpt><trkpt lat="43.662725180800166" lon="7.19609424766937"><ele>16.0</ele><time>2026-04-22T13:13:20.999Z</time></trkpt><trkpt lat="43.66264639384204" lon="7.195944423848594"><ele>16.0</ele><time>2026-04-22T13:13:21.999Z</time></trkpt><trkpt lat="43.66256550129809" lon="7.195796526527468"><ele>16.0</ele><time>2026-04-22T13:13:22.999Z</time></trkpt><trkpt lat="43.66248361987302" lon="7.195651046013686"><ele>16.0</ele><time>2026-04-22T13:13:23.999Z</time></trkpt><trkpt lat="43.6624013024431" lon="7.195508897747098"><ele>16.0</ele><time>2026-04-22T13:13:24.999Z</time></trkpt><trkpt lat="43.66231800221301" lon="7.195370549100649"><ele>16.0</ele><time>2026-04-22T13:13:25.999Z</time></trkpt><trkpt lat="43.66223182031817" lon="7.195233651790646"><ele>16.0</ele><time>2026-04-22T13:13:26.999Z</time></trkpt><trkpt lat="43.662146161308144" lon="7.195090630363361"><ele>16.0</ele><time>2026-04-22T13:13:27.999Z</time></trkpt><trkpt lat="43.66205677798244" lon="7.194947083250383"><ele>16.25</ele><time>2026-04-22T13:13:28.999Z</time></trkpt><trkpt lat="43.66197043603111" lon="7.194814335119822"><ele>16.5</ele><time>2026-04-22T13:13:29.999Z</time></trkpt><trkpt lat="43.66188683839696" lon="7.194682582993139"><ele>16.75</ele><time>2026-04-22T13:13:30.999Z</time></trkpt><trkpt lat="43.66181019224981" lon="7.194554948543788"><ele>17.0</ele><time>2026-04-22T13:13:31.999Z</time></trkpt><trkpt lat="43.661735895257806" lon="7.194431604462828"><ele>16.25</ele><time>2026-04-22T13:13:32.999Z</time></trkpt><trkpt lat="43.66166223183576" lon="7.194310763689101"><ele>15.5</ele><time>2026-04-22T13:13:33.999Z</time></trkpt><trkpt lat="43.66158729052256" lon="7.194190736608135"><ele>14.75</ele><time>2026-04-22T13:13:34.999Z</time></trkpt><trkpt lat="43.66151099136424" lon="7.194070660460324"><ele>14.0</ele><time>2026-04-22T13:13:35.999Z</time></trkpt><trkpt lat="43.66143137523563" lon="7.193949419784567"><ele>14.0</ele><time>2026-04-22T13:13:36.999Z</time></trkpt><trkpt lat="43.66134666463585" lon="7.193821870078006"><ele>14.0</ele><time>2026-04-22T13:13:37.999Z</time></trkpt><trkpt lat="43.661259174523266" lon="7.19368340524243"><ele>14.0</ele><time>2026-04-22T13:13:38.999Z</time></trkpt><trkpt lat="43.66116757537809" lon="7.193535610459265"><ele>14.0</ele><time>2026-04-22T13:13:39.999Z</time></trkpt><trkpt lat="43.66107342834943" lon="7.1933800407465105"><ele>13.25</ele><time>2026-04-22T13:13:40.999Z</time></trkpt><trkpt lat="43.66098353748957" lon="7.193232905812749"><ele>12.5</ele><time>2026-04-22T13:13:41.999Z</time></trkpt><trkpt lat="43.6608919061426" lon="7.193091112292562"><ele>11.75</ele><time>2026-04-22T13:13:42.999Z</time></trkpt><trkpt lat="43.66079929980697" lon="7.192954286853065"><ele>11.0</ele><time>2026-04-22T13:13:43.999Z</time></trkpt><trkpt lat="43.66069942296193" lon="7.192829434527539"><ele>11.0</ele><time>2026-04-22T13:13:44.999Z</time></trkpt><trkpt lat="43.66063201740138" lon="7.192664831997076"><ele>11.0</ele><time>2026-04-22T13:13:45.999Z</time></trkpt><trkpt lat="43.66054565135396" lon="7.192527919639612"><ele>11.0</ele><time>2026-04-22T13:13:46.999Z</time></trkpt><trkpt lat="43.66046391026224" lon="7.192393941561371"><ele>11.0</ele><time>2026-04-22T13:13:47.998Z</time></trkpt><trkpt lat="43.66038390631795" lon="7.192267455287105"><ele>10.75</ele><time>2026-04-22T13:13:48.998Z</time></trkpt><trkpt lat="43.660303767351834" lon="7.192138887200738"><ele>10.5</ele><time>2026-04-22T13:13:49.998Z</time></trkpt><trkpt lat="43.66022519384203" lon="7.192000026256747"><ele>10.25</ele><time>2026-04-22T13:13:50.998Z</time></trkpt><trkpt lat="43.66014358646445" lon="7.191860731202902"><ele>10.0</ele><time>2026-04-22T13:13:51.998Z</time></trkpt><trkpt lat="43.66006010541738" lon="7.191721889066889"><ele>10.0</ele><time>2026-04-22T13:13:52.999Z</time></trkpt><trkpt lat="43.65997690711606" lon="7.191583392063935"><ele>10.0</ele><time>2026-04-22T13:13:53.999Z</time></trkpt><trkpt lat="43.65990346707016" lon="7.1914391139584515"><ele>10.0</ele><time>2026-04-22T13:13:54.999Z</time></trkpt><trkpt lat="43.65982974056645" lon="7.191301778934434"><ele>10.0</ele><time>2026-04-22T13:13:55.999Z</time></trkpt><trkpt lat="43.659765418251176" lon="7.1911618657491285"><ele>9.5</ele><time>2026-04-22T13:13:56.999Z</time></trkpt><trkpt lat="43.6596980161096" lon="7.191027595132139"><ele>9.0</ele><time>2026-04-22T13:13:57.999Z</time></trkpt><trkpt lat="43.65963431010889" lon="7.190886189698256"><ele>8.5</ele><time>2026-04-22T13:13:58.999Z</time></trkpt><trkpt lat="43.6595681115312" lon="7.190746983317336"><ele>8.0</ele><time>2026-04-22T13:13:59.999Z</time></trkpt><trkpt lat="43.65951240564282" lon="7.190604617933047"><ele>7.5</ele><time>2026-04-22T13:14:00.999Z</time></trkpt><trkpt lat="43.65945567442582" lon="7.190460319401448"><ele>7.0</ele><time>2026-04-22T13:14:01.999Z</time></trkpt><trkpt lat="43.659399690520985" lon="7.190313608804435"><ele>6.5</ele><time>2026-04-22T13:14:03Z</time></trkpt><trkpt lat="43.65934477263606" lon="7.190169105768665"><ele>6.0</ele><time>2026-04-22T13:14:04Z</time></trkpt><trkpt lat="43.65929177012935" lon="7.190022575092059"><ele>5.75</ele><time>2026-04-22T13:14:05Z</time></trkpt><trkpt lat="43.6592421892394" lon="7.189876747228285"><ele>5.5</ele><time>2026-04-22T13:14:06Z</time></trkpt><trkpt lat="43.65919479058399" lon="7.189728022908538"><ele>5.25</ele><time>2026-04-22T13:14:07Z</time></trkpt><trkpt lat="43.65914556312688" lon="7.18958201161084"><ele>5.0</ele><time>2026-04-22T13:14:08Z</time></trkpt><trkpt lat="43.65910803157759" lon="7.18942584484883"><ele>5.0</ele><time>2026-04-22T13:14:09Z</time></trkpt><trkpt lat="43.65906397757484" lon="7.18927059327925"><ele>5.0</ele><time>2026-04-22T13:14:10Z</time></trkpt><trkpt lat="43.659024355131045" lon="7.189122770775175"><ele>5.0</ele><time>2026-04-22T13:14:11Z</time></trkpt><trkpt lat="43.658988253252005" lon="7.1889803409756645"><ele>5.0</ele><time>2026-04-22T13:14:12Z</time></trkpt><trkpt lat="43.65895338811063" lon="7.188844752330496"><ele>5.0</ele><time>2026-04-22T13:14:13Z</time></trkpt><trkpt lat="43.65892129104437" lon="7.188712868268521"><ele>5.0</ele><time>2026-04-22T13:14:14Z</time></trkpt><trkpt lat="43.65889471574944" lon="7.188608740121992"><ele>5.0</ele><time>2026-04-22T13:14:15Z</time></trkpt><trkpt lat="43.65886486023547" lon="7.18848252285711"><ele>5.0</ele><time>2026-04-22T13:14:17Z</time></trkpt><trkpt lat="43.65883158104668" lon="7.188334285572106"><ele>5.0</ele><time>2026-04-22T13:15:03.999Z</time></trkpt><trkpt lat="43.65880774811718" lon="7.188237600764628"><ele>5.0</ele><time>2026-04-22T13:15:04.999Z</time></trkpt><trkpt lat="43.65877972140996" lon="7.1881164007007925"><ele>5.0</ele><time>2026-04-22T13:15:05.999Z</time></trkpt><trkpt lat="43.65874331142802" lon="7.187990930623729"><ele>5.0</ele><time>2026-04-22T13:15:06.999Z</time></trkpt><trkpt lat="43.65871254703372" lon="7.187861554909264"><ele>5.0</ele><time>2026-04-22T13:15:07.999Z</time></trkpt><trkpt lat="43.65867885372001" lon="7.187729318214998"><ele>5.0</ele><time>2026-04-22T13:15:08.999Z</time></trkpt><trkpt lat="43.65864589607848" lon="7.187596871193044"><ele>5.0</ele><time>2026-04-22T13:15:09.999Z</time></trkpt><trkpt lat="43.65861333643444" lon="7.187457813400954"><ele>5.4</ele><time>2026-04-22T13:15:10.999Z</time></trkpt><trkpt lat="43.658581562801885" lon="7.187324661793507"><ele>5.8</ele><time>2026-04-22T13:15:11.999Z</time></trkpt><trkpt lat="43.65854864659211" lon="7.1871967187639205"><ele>6.199999999999999</ele><time>2026-04-22T13:15:12.999Z</time></trkpt><trkpt lat="43.65851758187377" lon="7.187065454262936"><ele>6.6</ele><time>2026-04-22T13:15:13.999Z</time></trkpt><trkpt lat="43.658485844569135" lon="7.1869298182194665"><ele>7.0</ele><time>2026-04-22T13:15:14.999Z</time></trkpt><trkpt lat="43.65844678580848" lon="7.186792451353449"><ele>7.0</ele><time>2026-04-22T13:15:15.999Z</time></trkpt><trkpt lat="43.65841101940648" lon="7.18664694245267"><ele>6.999999999999999</ele><time>2026-04-22T13:15:16.999Z</time></trkpt><trkpt lat="43.658375001887244" lon="7.186500683224435"><ele>6.999999999999999</ele><time>2026-04-22T13:15:17.999Z</time></trkpt><trkpt lat="43.65834344267685" lon="7.186355697200249"><ele>7.0</ele><time>2026-04-22T13:15:18.999Z</time></trkpt><trkpt lat="43.65830817578433" lon="7.186205331971808"><ele>7.0</ele><time>2026-04-22T13:15:19.999Z</time></trkpt><trkpt lat="43.65826755457325" lon="7.186058861531617"><ele>7.0</ele><time>2026-04-22T13:15:20.999Z</time></trkpt><trkpt lat="43.65823096175807" lon="7.185909108856142"><ele>6.999999999999999</ele><time>2026-04-22T13:15:21.999Z</time></trkpt><trkpt lat="43.658198077342085" lon="7.185761788075525"><ele>6.999999999999999</ele><time>2026-04-22T13:15:22.999Z</time></trkpt><trkpt lat="43.65816085086902" lon="7.18562304193326"><ele>7.0</ele><time>2026-04-22T13:15:23.999Z</time></trkpt><trkpt lat="43.65813323142522" lon="7.185489749515537"><ele>7.0</ele><time>2026-04-22T13:15:24.999Z</time></trkpt><trkpt lat="43.65810567031305" lon="7.18536681008629"><ele>7.0</ele><time>2026-04-22T13:15:25.999Z</time></trkpt><trkpt lat="43.65807426466728" lon="7.1852456987680275"><ele>6.999999999999999</ele><time>2026-04-22T13:15:26.999Z</time></trkpt><trkpt lat="43.658043997553264" lon="7.185117618774224"><ele>6.999999999999999</ele><time>2026-04-22T13:15:27.999Z</time></trkpt><trkpt lat="43.65801397961233" lon="7.18498898981341"><ele>7.0</ele><time>2026-04-22T13:15:28.999Z</time></trkpt><trkpt lat="43.657981408211256" lon="7.184853860844878"><ele>7.0</ele><time>2026-04-22T13:15:29.999Z</time></trkpt><trkpt lat="43.65794480506355" lon="7.184716606593802"><ele>7.199999999999999</ele><time>2026-04-22T13:15:30.999Z</time></trkpt><trkpt lat="43.65791104626358" lon="7.1845765726759465"><ele>7.3999999999999995</ele><time>2026-04-22T13:15:31.999Z</time></trkpt><trkpt lat="43.65787816013876" lon="7.184437877778306"><ele>7.6000000000000005</ele><time>2026-04-22T13:15:32.999Z</time></trkpt><trkpt lat="43.657846323437795" lon="7.184292554434605"><ele>7.800000000000001</ele><time>2026-04-22T13:15:33.999Z</time></trkpt><trkpt lat="43.657811645987316" lon="7.184153500205237"><ele>8.0</ele><time>2026-04-22T13:15:34.999Z</time></trkpt><trkpt lat="43.65777742909523" lon="7.184012080433352"><ele>7.4</ele><time>2026-04-22T13:15:35.999Z</time></trkpt><trkpt lat="43.657742868971916" lon="7.183871764600008"><ele>6.800000000000001</ele><time>2026-04-22T13:15:36.999Z</time></trkpt><trkpt lat="43.65770739665029" lon="7.183731709517654"><ele>6.2</ele><time>2026-04-22T13:15:37.999Z</time></trkpt><trkpt lat="43.65767305908932" lon="7.183593577526561"><ele>5.6</ele><time>2026-04-22T13:15:38.999Z</time></trkpt><trkpt lat="43.657636145907" lon="7.183450643179026"><ele>5.0</ele><time>2026-04-22T13:15:39.999Z</time></trkpt><trkpt lat="43.65760254333678" lon="7.183297198483903"><ele>5.2</ele><time>2026-04-22T13:15:40.999Z</time></trkpt><trkpt lat="43.65756433325452" lon="7.183145853561567"><ele>5.4</ele><time>2026-04-22T13:15:41.999Z</time></trkpt><trkpt lat="43.657523761346475" lon="7.182988587839667"><ele>5.6</ele><time>2026-04-22T13:15:42.999Z</time></trkpt><trkpt lat="43.65748963788319" lon="7.1828522950709734"><ele>5.8</ele><time>2026-04-22T13:15:43.999Z</time></trkpt><trkpt lat="43.657456469225416" lon="7.182715168456814"><ele>6.0</ele><time>2026-04-22T13:15:44.999Z</time></trkpt><trkpt lat="43.65742459241636" lon="7.182585388748896"><ele>6.0</ele><time>2026-04-22T13:15:45.999Z</time></trkpt><trkpt lat="43.65739572747758" lon="7.182468128011818"><ele>6.0</ele><time>2026-04-22T13:15:46.999Z</time></trkpt><trkpt lat="43.65736971280356" lon="7.182354822857495"><ele>6.0</ele><time>2026-04-22T13:15:47.999Z</time></trkpt><trkpt lat="43.65734153600666" lon="7.182242786370493"><ele>6.0</ele><time>2026-04-22T13:15:48.999Z</time></trkpt><trkpt lat="43.65731500851866" lon="7.182131365565342"><ele>6.0</ele><time>2026-04-22T13:15:49.999Z</time></trkpt><trkpt lat="43.65728725052932" lon="7.18201710179447"><ele>6.0</ele><time>2026-04-22T13:15:50.999Z</time></trkpt><trkpt lat="43.657255847528084" lon="7.181899058071831"><ele>6.4</ele><time>2026-04-22T13:15:51.999Z</time></trkpt><trkpt lat="43.65722503735989" lon="7.181778104885701"><ele>6.8</ele><time>2026-04-22T13:15:52.999Z</time></trkpt><trkpt lat="43.65719557475075" lon="7.181644328205961"><ele>7.200000000000001</ele><time>2026-04-22T13:15:53.999Z</time></trkpt><trkpt lat="43.657160224277824" lon="7.181505464668796"><ele>7.6000000000000005</ele><time>2026-04-22T13:15:54.999Z</time></trkpt><trkpt lat="43.657120049387984" lon="7.18135756855797"><ele>8.0</ele><time>2026-04-22T13:15:55.999Z</time></trkpt><trkpt lat="43.65708135783881" lon="7.181202847009293"><ele>8.0</ele><time>2026-04-22T13:15:56.999Z</time></trkpt><trkpt lat="43.657046373415405" lon="7.181047366197321"><ele>8.0</ele><time>2026-04-22T13:15:57.999Z</time></trkpt><trkpt lat="43.65701064335007" lon="7.180896073279662"><ele>8.0</ele><time>2026-04-22T13:15:59Z</time></trkpt><trkpt lat="43.656975837011565" lon="7.180751560011422"><ele>8.0</ele><time>2026-04-22T13:16:00Z</time></trkpt><trkpt lat="43.65694146182114" lon="7.180607072780174"><ele>7.2</ele><time>2026-04-22T13:16:01Z</time></trkpt><trkpt lat="43.65691483067038" lon="7.180468241516741"><ele>6.4</ele><time>2026-04-22T13:16:02Z</time></trkpt><trkpt lat="43.65689032143895" lon="7.180322189154974"><ele>5.6000000000000005</ele><time>2026-04-22T13:16:03Z</time></trkpt><trkpt lat="43.656864339256956" lon="7.180175564851277"><ele>4.800000000000001</ele><time>2026-04-22T13:16:04Z</time></trkpt><trkpt lat="43.656838553952944" lon="7.180031757764575"><ele>4.0</ele><time>2026-04-22T13:16:05Z</time></trkpt><trkpt lat="43.65681778730022" lon="7.179898603869839"><ele>4.0</ele><time>2026-04-22T13:16:06Z</time></trkpt><trkpt lat="43.65679963105209" lon="7.179772007440291"><ele>4.0</ele><time>2026-04-22T13:16:07Z</time></trkpt><trkpt lat="43.65678150068142" lon="7.179639923386366"><ele>4.0</ele><time>2026-04-22T13:16:08Z</time></trkpt><trkpt lat="43.6567645559774" lon="7.179505396294506"><ele>4.0</ele><time>2026-04-22T13:16:09Z</time></trkpt><trkpt lat="43.65674768172712" lon="7.17936858281021"><ele>4.0</ele><time>2026-04-22T13:16:10Z</time></trkpt><trkpt lat="43.65673673672879" lon="7.179238873466341"><ele>4.0</ele><time>2026-04-22T13:16:11Z</time></trkpt><trkpt lat="43.65672191269577" lon="7.179110684451933"><ele>4.0</ele><time>2026-04-22T13:16:12Z</time></trkpt><trkpt lat="43.65670875228075" lon="7.178987707493247"><ele>4.0</ele><time>2026-04-22T13:16:13Z</time></trkpt><trkpt lat="43.65669689120764" lon="7.178860699258146"><ele>4.0</ele><time>2026-04-22T13:16:14Z</time></trkpt><trkpt lat="43.65668327311263" lon="7.178731630466302"><ele>4.0</ele><time>2026-04-22T13:16:15Z</time></trkpt><trkpt lat="43.65667045973738" lon="7.178600170486711"><ele>4.2</ele><time>2026-04-22T13:16:16Z</time></trkpt><trkpt lat="43.6566601306801" lon="7.178471530382329"><ele>4.4</ele><time>2026-04-22T13:16:17Z</time></trkpt><trkpt lat="43.6566473785998" lon="7.178340532191475"><ele>4.6</ele><time>2026-04-22T13:16:18Z</time></trkpt><trkpt lat="43.65663715623893" lon="7.1782134976864285"><ele>4.8</ele><time>2026-04-22T13:16:19Z</time></trkpt><trkpt lat="43.656626836272245" lon="7.178086934496794"><ele>5.0</ele><time>2026-04-22T13:16:20Z</time></trkpt><trkpt lat="43.65661812022433" lon="7.1779707249851885"><ele>5.0</ele><time>2026-04-22T13:16:21Z</time></trkpt><trkpt lat="43.656607511595894" lon="7.1778443511249685"><ele>5.0</ele><time>2026-04-22T13:16:22Z</time></trkpt><trkpt lat="43.65659788191972" lon="7.1777214336211"><ele>5.0</ele><time>2026-04-22T13:16:23Z</time></trkpt><trkpt lat="43.656589278979396" lon="7.1775970377793765"><ele>5.0</ele><time>2026-04-22T13:16:24Z</time></trkpt><trkpt lat="43.656577888568464" lon="7.177478357245313"><ele>5.0</ele><time>2026-04-22T13:16:25Z</time></trkpt><trkpt lat="43.65656851525712" lon="7.177367155354984"><ele>5.0</ele><time>2026-04-22T13:16:26Z</time></trkpt><trkpt lat="43.65655797621819" lon="7.177256302618739"><ele>5.0</ele><time>2026-04-22T13:16:27Z</time></trkpt><trkpt lat="43.65654937844869" lon="7.177142391077566"><ele>5.0</ele><time>2026-04-22T13:16:28Z</time></trkpt><trkpt lat="43.6565414142891" lon="7.17701658809944"><ele>5.0</ele><time>2026-04-22T13:16:29Z</time></trkpt><trkpt lat="43.65653385395771" lon="7.1768855794655915"><ele>5.0</ele><time>2026-04-22T13:16:30Z</time></trkpt><trkpt lat="43.65652872181463" lon="7.176756408949065"><ele>5.0</ele><time>2026-04-22T13:16:31Z</time></trkpt><trkpt lat="43.65652355501863" lon="7.176638850944174"><ele>5.0</ele><time>2026-04-22T13:16:32Z</time></trkpt><trkpt lat="43.65651442708253" lon="7.1765204358261006"><ele>5.0</ele><time>2026-04-22T13:16:33Z</time></trkpt><trkpt lat="43.65650724939971" lon="7.1763915022552105"><ele>5.0</ele><time>2026-04-22T13:16:34Z</time></trkpt><trkpt lat="43.656506542248316" lon="7.176249535202398"><ele>5.0</ele><time>2026-04-22T13:16:35Z</time></trkpt><trkpt lat="43.65650668396611" lon="7.176098226303882"><ele>5.0</ele><time>2026-04-22T13:16:36Z</time></trkpt><trkpt lat="43.656508825665306" lon="7.175940892755523"><ele>5.0</ele><time>2026-04-22T13:16:37Z</time></trkpt><trkpt lat="43.65651764457221" lon="7.175793009054311"><ele>5.0</ele><time>2026-04-22T13:16:38Z</time></trkpt><trkpt lat="43.65653448790043" lon="7.175655664671156"><ele>5.0</ele><time>2026-04-22T13:16:39Z</time></trkpt><trkpt lat="43.656550766109206" lon="7.175526307172127"><ele>5.0</ele><time>2026-04-22T13:16:40Z</time></trkpt><trkpt lat="43.656564818430844" lon="7.175395290820422"><ele>5.0</ele><time>2026-04-22T13:16:41Z</time></trkpt><trkpt lat="43.656580242837" lon="7.175264322195837"><ele>5.0</ele><time>2026-04-22T13:16:42Z</time></trkpt><trkpt lat="43.656599130431424" lon="7.175134431223773"><ele>5.0</ele><time>2026-04-22T13:16:43Z</time></trkpt><trkpt lat="43.65662320812729" lon="7.175000558672495"><ele>5.0</ele><time>2026-04-22T13:16:44Z</time></trkpt><trkpt lat="43.65664970143795" lon="7.174861920455231"><ele>5.0</ele><time>2026-04-22T13:16:45Z</time></trkpt><trkpt lat="43.6566758071943" lon="7.1747273671715694"><ele>5.0</ele><time>2026-04-22T13:16:46Z</time></trkpt><trkpt lat="43.65670149126214" lon="7.174595294224599"><ele>5.0</ele><time>2026-04-22T13:16:47Z</time></trkpt><trkpt lat="43.6567304152062" lon="7.1744622352420215"><ele>5.0</ele><time>2026-04-22T13:16:48Z</time></trkpt><trkpt lat="43.656763208512515" lon="7.174320750318141"><ele>5.0</ele><time>2026-04-22T13:16:49Z</time></trkpt><trkpt lat="43.65680015583644" lon="7.174179812930194"><ele>5.0</ele><time>2026-04-22T13:16:50Z</time></trkpt><trkpt lat="43.656837816029345" lon="7.174037571844343"><ele>5.0</ele><time>2026-04-22T13:16:51Z</time></trkpt><trkpt lat="43.656882268640125" lon="7.173896479097269"><ele>5.0</ele><time>2026-04-22T13:16:52Z</time></trkpt><trkpt lat="43.65690677795748" lon="7.173745871920627"><ele>5.0</ele><time>2026-04-22T13:16:53Z</time></trkpt><trkpt lat="43.656950035563405" lon="7.173619673451981"><ele>5.0</ele><time>2026-04-22T13:16:54Z</time></trkpt><trkpt lat="43.65699572566043" lon="7.1734905585785995"><ele>5.0</ele><time>2026-04-22T13:16:55Z</time></trkpt><trkpt lat="43.65703851458859" lon="7.1733589002869875"><ele>5.0</ele><time>2026-04-22T13:16:56Z</time></trkpt><trkpt lat="43.657081921584" lon="7.173240377277346"><ele>5.0</ele><time>2026-04-22T13:16:57Z</time></trkpt><trkpt lat="43.65712061817374" lon="7.173137879436588"><ele>5.333333333333334</ele><time>2026-04-22T13:16:58Z</time></trkpt><trkpt lat="43.65715842352796" lon="7.173038498349743"><ele>5.666666666666667</ele><time>2026-04-22T13:16:59Z</time></trkpt><trkpt lat="43.657192545363245" lon="7.172943188460218"><ele>6.0</ele><time>2026-04-22T13:17:00Z</time></trkpt><trkpt lat="43.65722650695641" lon="7.1728489129157404"><ele>6.333333333333334</ele><time>2026-04-22T13:17:01Z</time></trkpt><trkpt lat="43.657265189053696" lon="7.172749347869868"><ele>6.666666666666667</ele><time>2026-04-22T13:17:02Z</time></trkpt><trkpt lat="43.657303757867666" lon="7.172637571788113"><ele>7.0</ele><time>2026-04-22T13:17:03Z</time></trkpt><trkpt lat="43.6573437216429" lon="7.172525392601847"><ele>7.0</ele><time>2026-04-22T13:17:04Z</time></trkpt><trkpt lat="43.6573906884499" lon="7.172402148224942"><ele>6.999999999999999</ele><time>2026-04-22T13:17:05Z</time></trkpt><trkpt lat="43.6574381705133" lon="7.172287627387478"><ele>6.999999999999999</ele><time>2026-04-22T13:17:06Z</time></trkpt><trkpt lat="43.65748213343545" lon="7.172158438704526"><ele>7.0</ele><time>2026-04-22T13:17:07Z</time></trkpt><trkpt lat="43.65752613739568" lon="7.172028130694183"><ele>7.0</ele><time>2026-04-22T13:17:08Z</time></trkpt><trkpt lat="43.65757018870293" lon="7.171895948599532"><ele>6.8</ele><time>2026-04-22T13:17:09Z</time></trkpt><trkpt lat="43.65761561079346" lon="7.171761675505206"><ele>6.6</ele><time>2026-04-22T13:17:10Z</time></trkpt><trkpt lat="43.65765476580924" lon="7.171632164307654"><ele>6.3999999999999995</ele><time>2026-04-22T13:17:11Z</time></trkpt><trkpt lat="43.65768740658982" lon="7.171500088372959"><ele>6.199999999999999</ele><time>2026-04-22T13:17:12Z</time></trkpt><trkpt lat="43.657720862088645" lon="7.171370810712173"><ele>6.0</ele><time>2026-04-22T13:17:12.999Z</time></trkpt><trkpt lat="43.65775267189737" lon="7.171230570800159"><ele>6.199999999999999</ele><time>2026-04-22T13:17:13.999Z</time></trkpt><trkpt lat="43.65777949589274" lon="7.171075402098794"><ele>6.3999999999999995</ele><time>2026-04-22T13:17:14.999Z</time></trkpt><trkpt lat="43.65779072292818" lon="7.170931125926926"><ele>6.6</ele><time>2026-04-22T13:17:15.999Z</time></trkpt><trkpt lat="43.65781332440003" lon="7.170796047867327"><ele>6.8</ele><time>2026-04-22T13:17:16.999Z</time></trkpt><trkpt lat="43.657829411911315" lon="7.170664705010873"><ele>7.0</ele><time>2026-04-22T13:17:17.999Z</time></trkpt><trkpt lat="43.6578465458575" lon="7.170539568837952"><ele>7.000000000000001</ele><time>2026-04-22T13:17:18.999Z</time></trkpt><trkpt lat="43.65786168914455" lon="7.170422418342328"><ele>7.0</ele><time>2026-04-22T13:17:19.999Z</time></trkpt><trkpt lat="43.657875038381526" lon="7.170313072056049"><ele>7.0</ele><time>2026-04-22T13:17:20.999Z</time></trkpt><trkpt lat="43.65788460636246" lon="7.170224442460698"><ele>7.0</ele><time>2026-04-22T13:17:21.999Z</time></trkpt><trkpt lat="43.65789750798688" lon="7.170091399606996"><ele>7.000000000000001</ele><time>2026-04-22T13:17:23.999Z</time></trkpt><trkpt lat="43.657908220737745" lon="7.169976755320672"><ele>7.0</ele><time>2026-04-22T13:17:52.999Z</time></trkpt><trkpt lat="43.657911787901625" lon="7.169878804775428"><ele>8.0</ele><time>2026-04-22T13:17:54.999Z</time></trkpt><trkpt lat="43.65790613687028" lon="7.169739768732001"><ele>9.0</ele><time>2026-04-22T13:17:56.999Z</time></trkpt><trkpt lat="43.65800854211674" lon="7.16967171319209"><ele>10.0</ele><time>2026-04-22T13:17:58.999Z</time></trkpt><trkpt lat="43.65810728313933" lon="7.169665688328909"><ele>11.0</ele><time>2026-04-22T13:18:00.999Z</time></trkpt><trkpt lat="43.658229162986416" lon="7.169660997366998"><ele>12.0</ele><time>2026-04-22T13:18:02.999Z</time></trkpt><trkpt lat="43.65830718412605" lon="7.169653087201993"><ele>12.0</ele><time>2026-04-22T13:18:03.999Z</time></trkpt><trkpt lat="43.65839533893549" lon="7.169644685653711"><ele>12.0</ele><time>2026-04-22T13:18:05Z</time></trkpt><trkpt lat="43.65849347015939" lon="7.169634919958336"><ele>12.0</ele><time>2026-04-22T13:18:06Z</time></trkpt><trkpt lat="43.658581568081686" lon="7.169630463899031"><ele>12.0</ele><time>2026-04-22T13:18:07Z</time></trkpt><trkpt lat="43.658667383019086" lon="7.169621574335776"><ele>12.0</ele><time>2026-04-22T13:18:08Z</time></trkpt><trkpt lat="43.65876052198053" lon="7.1696127414540864"><ele>11.666666666666666</ele><time>2026-04-22T13:18:09Z</time></trkpt><trkpt lat="43.658851434062136" lon="7.169605958149683"><ele>11.333333333333334</ele><time>2026-04-22T13:18:10Z</time></trkpt><trkpt lat="43.65893917572366" lon="7.169600466595851"><ele>11.0</ele><time>2026-04-22T13:18:11Z</time></trkpt><trkpt lat="43.65902729966274" lon="7.169597396743449"><ele>10.666666666666668</ele><time>2026-04-22T13:18:12Z</time></trkpt><trkpt lat="43.65910954584617" lon="7.169586146605981"><ele>10.333333333333334</ele><time>2026-04-22T13:18:13Z</time></trkpt><trkpt lat="43.659186517452504" lon="7.1695799860619385"><ele>10.0</ele><time>2026-04-22T13:18:14Z</time></trkpt><trkpt lat="43.65925545500487" lon="7.169581117771457"><ele>10.0</ele><time>2026-04-22T13:18:15Z</time></trkpt><trkpt lat="43.65935066435655" lon="7.169587226429866"><ele>10.0</ele><time>2026-04-22T13:18:17Z</time></trkpt><trkpt lat="43.6594368966623" lon="7.169592232146905"><ele>10.0</ele><time>2026-04-22T13:18:25Z</time></trkpt><trkpt lat="43.65951582438264" lon="7.169595490157952"><ele>10.0</ele><time>2026-04-22T13:18:27Z</time></trkpt><trkpt lat="43.65958617452829" lon="7.169601310834729"><ele>10.0</ele><time>2026-04-22T13:18:36Z</time></trkpt><trkpt lat="43.65960381512897" lon="7.16937170022183"><ele>10.0</ele><time>2026-04-22T13:18:38Z</time></trkpt><trkpt lat="43.659590470020476" lon="7.169268003483769"><ele>10.0</ele><time>2026-04-22T13:18:39Z</time></trkpt><trkpt lat="43.65957800671889" lon="7.1691639249520405"><ele>10.0</ele><time>2026-04-22T13:18:40Z</time></trkpt><trkpt lat="43.65957026112805" lon="7.169075883370219"><ele>10.0</ele><time>2026-04-22T13:18:41Z</time></trkpt><trkpt lat="43.659565482216976" lon="7.168987226752625"><ele>10.0</ele><time>2026-04-22T13:18:42Z</time></trkpt><trkpt lat="43.65956035421987" lon="7.168886389156746"><ele>10.0</ele><time>2026-04-22T13:18:43Z</time></trkpt><trkpt lat="43.659547334614224" lon="7.168762433085358"><ele>10.0</ele><time>2026-04-22T13:18:44Z</time></trkpt><trkpt lat="43.659530815686296" lon="7.1686222237668025"><ele>10.0</ele><time>2026-04-22T13:18:45Z</time></trkpt><trkpt lat="43.65951184929606" lon="7.168468876228853"><ele>10.0</ele><time>2026-04-22T13:18:46Z</time></trkpt><trkpt lat="43.65949692216438" lon="7.168330774386024"><ele>10.0</ele><time>2026-04-22T13:18:47Z</time></trkpt><trkpt lat="43.65948186964515" lon="7.168207337860531"><ele>10.0</ele><time>2026-04-22T13:18:48Z</time></trkpt><trkpt lat="43.65946830955051" lon="7.168095498377009"><ele>10.0</ele><time>2026-04-22T13:18:49Z</time></trkpt><trkpt lat="43.659455635571454" lon="7.168005481651226"><ele>10.0</ele><time>2026-04-22T13:18:50Z</time></trkpt><trkpt lat="43.659441735741055" lon="7.167901220655803"><ele>10.0</ele><time>2026-04-22T13:18:52Z</time></trkpt><trkpt lat="43.65942644409064" lon="7.167803017087576"><ele>10.0</ele><time>2026-04-22T13:19:03Z</time></trkpt><trkpt lat="43.659412619027286" lon="7.167690128393716"><ele>10.0</ele><time>2026-04-22T13:19:05Z</time></trkpt><trkpt lat="43.65938591779927" lon="7.1675282501080675"><ele>10.0</ele><time>2026-04-22T13:19:07Z</time></trkpt><trkpt lat="43.659377541016994" lon="7.167419959106017"><ele>10.0</ele><time>2026-04-22T13:19:08Z</time></trkpt><trkpt lat="43.659363604497095" lon="7.167329898843802"><ele>9.666666666666668</ele><time>2026-04-22T13:19:09Z</time></trkpt><trkpt lat="43.659352524708055" lon="7.167236923195452"><ele>9.333333333333334</ele><time>2026-04-22T13:19:10Z</time></trkpt><trkpt lat="43.65933963150845" lon="7.167135753863515"><ele>9.0</ele><time>2026-04-22T13:19:11Z</time></trkpt><trkpt lat="43.65932756826174" lon="7.167037201999896"><ele>8.666666666666666</ele><time>2026-04-22T13:19:12Z</time></trkpt><trkpt lat="43.65931670437562" lon="7.1669464605323485"><ele>8.333333333333332</ele><time>2026-04-22T13:19:13Z</time></trkpt><trkpt lat="43.659307646388655" lon="7.166860222653322"><ele>8.0</ele><time>2026-04-22T13:19:14Z</time></trkpt><trkpt lat="43.659288073801044" lon="7.166689140674759"><ele>8.0</ele><time>2026-04-22T13:19:16Z</time></trkpt><trkpt lat="43.65928201956843" lon="7.16659532470757"><ele>7.999999999999999</ele><time>2026-04-22T13:19:17Z</time></trkpt><trkpt lat="43.65927480986995" lon="7.16649554366316"><ele>8.0</ele><time>2026-04-22T13:19:18Z</time></trkpt><trkpt lat="43.65927281069388" lon="7.166390545244353"><ele>8.0</ele><time>2026-04-22T13:19:19Z</time></trkpt><trkpt lat="43.65926840166415" lon="7.166290023187709"><ele>7.999999999999999</ele><time>2026-04-22T13:19:19.999Z</time></trkpt><trkpt lat="43.65926549815279" lon="7.1661929282282"><ele>8.0</ele><time>2026-04-22T13:19:20.999Z</time></trkpt><trkpt lat="43.65926262218141" lon="7.166097464682326"><ele>8.0</ele><time>2026-04-22T13:19:21.999Z</time></trkpt><trkpt lat="43.659262009487286" lon="7.165996602645455"><ele>8.166666666666666</ele><time>2026-04-22T13:19:22.999Z</time></trkpt><trkpt lat="43.65925790413121" lon="7.165895006552064"><ele>8.333333333333332</ele><time>2026-04-22T13:19:23.999Z</time></trkpt><trkpt lat="43.65925408140107" lon="7.1657915642828325"><ele>8.5</ele><time>2026-04-22T13:19:24.999Z</time></trkpt><trkpt lat="43.6592521614463" lon="7.1656834545432915"><ele>8.666666666666666</ele><time>2026-04-22T13:19:25.999Z</time></trkpt><trkpt lat="43.65924929611008" lon="7.165574506539583"><ele>8.833333333333334</ele><time>2026-04-22T13:19:26.999Z</time></trkpt><trkpt lat="43.659247710133776" lon="7.165468204975222"><ele>9.0</ele><time>2026-04-22T13:19:27.999Z</time></trkpt><trkpt lat="43.659243960469" lon="7.165365719508323"><ele>9.166666666666666</ele><time>2026-04-22T13:19:28.999Z</time></trkpt><trkpt lat="43.65924138534382" lon="7.165260770020517"><ele>9.333333333333334</ele><time>2026-04-22T13:19:29.999Z</time></trkpt><trkpt lat="43.659238659442636" lon="7.165151425352984"><ele>9.5</ele><time>2026-04-22T13:19:30.999Z</time></trkpt><trkpt lat="43.659235393588254" lon="7.165042854095792"><ele>9.666666666666668</ele><time>2026-04-22T13:19:31.999Z</time></trkpt><trkpt lat="43.65923166495946" lon="7.164949450784043"><ele>9.833333333333334</ele><time>2026-04-22T13:19:32.999Z</time></trkpt><trkpt lat="43.65922912267691" lon="7.164796901797448"><ele>10.0</ele><time>2026-04-22T13:19:34.999Z</time></trkpt><trkpt lat="43.65922547447414" lon="7.164687899045446"><ele>10.0</ele><time>2026-04-22T13:19:37.999Z</time></trkpt><trkpt lat="43.65922353901555" lon="7.164586341405712"><ele>10.0</ele><time>2026-04-22T13:19:40.999Z</time></trkpt><trkpt lat="43.65921837877374" lon="7.1644579463627585"><ele>10.0</ele><time>2026-04-22T13:19:42.999Z</time></trkpt><trkpt lat="43.65921641356491" lon="7.164293446892301"><ele>10.0</ele><time>2026-04-22T13:19:44.999Z</time></trkpt><trkpt lat="43.65921262915002" lon="7.1641485979063715"><ele>10.0</ele><time>2026-04-22T13:19:46.999Z</time></trkpt><trkpt lat="43.659207577190834" lon="7.164000798230429"><ele>9.6</ele><time>2026-04-22T13:19:48.999Z</time></trkpt><trkpt lat="43.659201212648064" lon="7.163843562959444"><ele>9.2</ele><time>2026-04-22T13:19:50.999Z</time></trkpt><trkpt lat="43.65919005678476" lon="7.163694481181806"><ele>8.8</ele><time>2026-04-22T13:19:52.999Z</time></trkpt><trkpt lat="43.65919074617598" lon="7.163567663961997"><ele>8.4</ele><time>2026-04-22T13:19:54.999Z</time></trkpt><trkpt lat="43.659234849145534" lon="7.163480688342369"><ele>8.0</ele><time>2026-04-22T13:19:56.999Z</time></trkpt><trkpt lat="43.65931541556727" lon="7.163390069236419"><ele>8.0</ele><time>2026-04-22T13:19:59.999Z</time></trkpt><trkpt lat="43.659348967050065" lon="7.163312091304973"><ele>8.0</ele><time>2026-04-22T13:20:13Z</time></trkpt><trkpt lat="43.65929356490194" lon="7.163072121255333"><ele>8.0</ele><time>2026-04-22T13:23:20Z</time></trkpt><trkpt lat="43.65922262961492" lon="7.1630350279761545"><ele>8.0</ele><time>2026-04-22T13:36:57.998Z</time></trkpt><trkpt lat="43.65917823926086" lon="7.162964685884706"><ele>8.0</ele><time>2026-04-22T13:36:59.998Z</time></trkpt><trkpt lat="43.659156660322395" lon="7.162842180729573"><ele>8.166666666666666</ele><time>2026-04-22T13:37:01.998Z</time></trkpt><trkpt lat="43.659155517472065" lon="7.162744794652396"><ele>8.333333333333332</ele><time>2026-04-22T13:37:03.998Z</time></trkpt><trkpt lat="43.65918652996572" lon="7.162624621608937"><ele>8.5</ele><time>2026-04-22T13:37:05.998Z</time></trkpt><trkpt lat="43.65922724103421" lon="7.162483288649293"><ele>8.666666666666666</ele><time>2026-04-22T13:37:07.999Z</time></trkpt><trkpt lat="43.65924391259746" lon="7.162384217185166"><ele>8.833333333333334</ele><time>2026-04-22T13:37:08.999Z</time></trkpt><trkpt lat="43.6592597413408" lon="7.1622774417173956"><ele>9.0</ele><time>2026-04-22T13:37:09.999Z</time></trkpt><trkpt lat="43.65927249710368" lon="7.162187731385421"><ele>9.75</ele><time>2026-04-22T13:37:10.999Z</time></trkpt><trkpt lat="43.65929769079205" lon="7.162016959187575"><ele>10.5</ele><time>2026-04-22T13:37:12.999Z</time></trkpt><trkpt lat="43.659322720977585" lon="7.161871817877991"><ele>11.25</ele><time>2026-04-22T13:37:14.999Z</time></trkpt><trkpt lat="43.65934324258053" lon="7.161747112649998"><ele>12.0</ele><time>2026-04-22T13:37:16.999Z</time></trkpt><trkpt lat="43.65925150181605" lon="7.161913460142156"><ele>12.0</ele><time>2026-04-22T13:37:22.999Z</time></trkpt><trkpt lat="43.659241580918724" lon="7.162012062610171"><ele>12.0</ele><time>2026-04-22T13:37:23.999Z</time></trkpt><trkpt lat="43.659220761158494" lon="7.162097380467333"><ele>12.0</ele><time>2026-04-22T13:37:24.999Z</time></trkpt><trkpt lat="43.659195447639156" lon="7.162191984368962"><ele>12.0</ele><time>2026-04-22T13:37:25.999Z</time></trkpt><trkpt lat="43.65916606399154" lon="7.162276866556694"><ele>12.0</ele><time>2026-04-22T13:37:26.999Z</time></trkpt><trkpt lat="43.659085093056895" lon="7.162381836547242"><ele>12.0</ele><time>2026-04-22T13:37:28.999Z</time></trkpt><trkpt lat="43.65898479596227" lon="7.162369992441507"><ele>12.0</ele><time>2026-04-22T13:37:30.999Z</time></trkpt><trkpt lat="43.658886681822985" lon="7.16225470194085"><ele>12.0</ele><time>2026-04-22T13:37:32.999Z</time></trkpt><trkpt lat="43.658836819882666" lon="7.162164142960285"><ele>12.0</ele><time>2026-04-22T13:37:33.999Z</time></trkpt><trkpt lat="43.658856744100795" lon="7.161952280390973"><ele>12.0</ele><time>2026-04-22T13:37:34.999Z</time></trkpt><trkpt lat="43.65880765440213" lon="7.161862042501454"><ele>12.0</ele><time>2026-04-22T13:37:35.999Z</time></trkpt><trkpt lat="43.658797324436485" lon="7.161750038697504"><ele>12.0</ele><time>2026-04-22T13:37:36.999Z</time></trkpt><trkpt lat="43.65878076323393" lon="7.1616108849002025"><ele>12.0</ele><time>2026-04-22T13:37:37.999Z</time></trkpt><trkpt lat="43.65878121078279" lon="7.161489673510274"><ele>12.0</ele><time>2026-04-22T13:37:38.999Z</time></trkpt><trkpt lat="43.65877686362272" lon="7.161340326474021"><ele>12.0</ele><time>2026-04-22T13:37:39.999Z</time></trkpt><trkpt lat="43.65877244361383" lon="7.161188472610084"><ele>12.0</ele><time>2026-04-22T13:37:40.999Z</time></trkpt><trkpt lat="43.6587678117148" lon="7.161029339048086"><ele>11.0</ele><time>2026-04-22T13:37:41.999Z</time></trkpt><trkpt lat="43.65837850273219" lon="7.160887153037763"><ele>10.0</ele><time>2026-04-22T13:37:42.999Z</time></trkpt><trkpt lat="43.65832684470187" lon="7.1607274319234175"><ele>10.75</ele><time>2026-04-22T13:37:43.999Z</time></trkpt><trkpt lat="43.65827539020898" lon="7.160569787566411"><ele>11.5</ele><time>2026-04-22T13:37:44.999Z</time></trkpt><trkpt lat="43.65822297744971" lon="7.160418690331585"><ele>12.25</ele><time>2026-04-22T13:37:45.999Z</time></trkpt><trkpt lat="43.65817393124037" lon="7.160264471295099"><ele>13.0</ele><time>2026-04-22T13:37:46.999Z</time></trkpt><trkpt lat="43.65812367648461" lon="7.160103686991626"><ele>13.0</ele><time>2026-04-22T13:37:47.999Z</time></trkpt><trkpt lat="43.65806954349547" lon="7.159938097076631"><ele>13.0</ele><time>2026-04-22T13:37:48.999Z</time></trkpt><trkpt lat="43.65801250276438" lon="7.159766302541399"><ele>13.0</ele><time>2026-04-22T13:37:49.999Z</time></trkpt><trkpt lat="43.65795474596876" lon="7.159584837465338"><ele>13.0</ele><time>2026-04-22T13:37:50.999Z</time></trkpt><trkpt lat="43.65789500504419" lon="7.159413771193659"><ele>12.75</ele><time>2026-04-22T13:37:51.999Z</time></trkpt><trkpt lat="43.65784062956335" lon="7.159246487800817"><ele>12.5</ele><time>2026-04-22T13:37:52.999Z</time></trkpt><trkpt lat="43.65778616325188" lon="7.159081735618975"><ele>12.25</ele><time>2026-04-22T13:37:53.999Z</time></trkpt><trkpt lat="43.657737310838954" lon="7.158929723783061"><ele>12.0</ele><time>2026-04-22T13:37:54.999Z</time></trkpt><trkpt lat="43.6576944534506" lon="7.158798390736034"><ele>11.8</ele><time>2026-04-22T13:37:55.999Z</time></trkpt><trkpt lat="43.65764818928699" lon="7.158659843518828"><ele>11.6</ele><time>2026-04-22T13:37:56.999Z</time></trkpt><trkpt lat="43.65760569975224" lon="7.1585247123356615"><ele>11.4</ele><time>2026-04-22T13:37:57.999Z</time></trkpt><trkpt lat="43.65757427069597" lon="7.158423454006788"><ele>11.200000000000001</ele><time>2026-04-22T13:37:58.999Z</time></trkpt><trkpt lat="43.65753875766933" lon="7.158302432550705"><ele>11.0</ele><time>2026-04-22T13:38:00.999Z</time></trkpt><trkpt lat="43.6575086720417" lon="7.158193311934979"><ele>11.0</ele><time>2026-04-22T13:38:31.999Z</time></trkpt><trkpt lat="43.65745015818912" lon="7.158035514967955"><ele>11.0</ele><time>2026-04-22T13:38:33.999Z</time></trkpt><trkpt lat="43.65740854733635" lon="7.157925745708466"><ele>11.0</ele><time>2026-04-22T13:38:34.999Z</time></trkpt><trkpt lat="43.65736770935148" lon="7.157821944759747"><ele>11.0</ele><time>2026-04-22T13:38:35.999Z</time></trkpt><trkpt lat="43.65732080805856" lon="7.157706469100105"><ele>11.0</ele><time>2026-04-22T13:38:36.999Z</time></trkpt><trkpt lat="43.65726567324742" lon="7.157574461608353"><ele>11.0</ele><time>2026-04-22T13:38:37.999Z</time></trkpt><trkpt lat="43.65720810800479" lon="7.157434407801522"><ele>11.0</ele><time>2026-04-22T13:38:38.999Z</time></trkpt><trkpt lat="43.65715493868381" lon="7.157300830643601"><ele>11.0</ele><time>2026-04-22T13:38:39.999Z</time></trkpt><trkpt lat="43.65709985782716" lon="7.1571633882325605"><ele>11.0</ele><time>2026-04-22T13:38:40.999Z</time></trkpt><trkpt lat="43.65704309450554" lon="7.157019679441033"><ele>11.25</ele><time>2026-04-22T13:38:41.999Z</time></trkpt><trkpt lat="43.65697896259154" lon="7.156865567765966"><ele>11.5</ele><time>2026-04-22T13:38:42.999Z</time></trkpt><trkpt lat="43.65691571710627" lon="7.156708411285057"><ele>11.75</ele><time>2026-04-22T13:38:43.999Z</time></trkpt><trkpt lat="43.656857656029196" lon="7.1565638909179485"><ele>12.0</ele><time>2026-04-22T13:38:44.999Z</time></trkpt><trkpt lat="43.656804029495056" lon="7.156429571647079"><ele>12.0</ele><time>2026-04-22T13:38:45.999Z</time></trkpt><trkpt lat="43.65675419814856" lon="7.156307144291178"><ele>12.0</ele><time>2026-04-22T13:38:46.999Z</time></trkpt><trkpt lat="43.65670949607496" lon="7.156195171272835"><ele>12.0</ele><time>2026-04-22T13:38:47.999Z</time></trkpt><trkpt lat="43.65666954533464" lon="7.156099507481356"><ele>12.0</ele><time>2026-04-22T13:38:48.999Z</time></trkpt><trkpt lat="43.65663538999991" lon="7.156014028957011"><ele>12.0</ele><time>2026-04-22T13:38:49.999Z</time></trkpt><trkpt lat="43.65657881199114" lon="7.15587837193387"><ele>12.0</ele><time>2026-04-22T13:38:51.999Z</time></trkpt><trkpt lat="43.65654446668942" lon="7.15579319022987"><ele>12.0</ele><time>2026-04-22T13:38:53.999Z</time></trkpt><trkpt lat="43.656503378531035" lon="7.155685514030922"><ele>12.0</ele><time>2026-04-22T13:38:59.999Z</time></trkpt><trkpt lat="43.65646134808639" lon="7.155585342615568"><ele>12.0</ele><time>2026-04-22T13:39:01.999Z</time></trkpt><trkpt lat="43.6564221494451" lon="7.1554917769816715"><ele>12.0</ele><time>2026-04-22T13:39:06Z</time></trkpt><trkpt lat="43.65638295786086" lon="7.155395642990643"><ele>12.0</ele><time>2026-04-22T13:39:08Z</time></trkpt><trkpt lat="43.65633007434757" lon="7.1552488979569775"><ele>12.399999999999999</ele><time>2026-04-22T13:39:10Z</time></trkpt><trkpt lat="43.65627320680615" lon="7.15510231641843"><ele>12.799999999999999</ele><time>2026-04-22T13:39:12Z</time></trkpt><trkpt lat="43.65622606915008" lon="7.154982705650563"><ele>13.2</ele><time>2026-04-22T13:39:14Z</time></trkpt><trkpt lat="43.65618183037455" lon="7.154884931274624"><ele>13.6</ele><time>2026-04-22T13:39:16Z</time></trkpt><trkpt lat="43.656146904921876" lon="7.154782802838106"><ele>14.0</ele><time>2026-04-22T13:39:18Z</time></trkpt><trkpt lat="43.65610838147805" lon="7.154655740686612"><ele>12.799999999999999</ele><time>2026-04-22T13:39:20Z</time></trkpt><trkpt lat="43.656072647967" lon="7.154523282041631"><ele>11.599999999999998</ele><time>2026-04-22T13:39:22Z</time></trkpt><trkpt lat="43.65603785685105" lon="7.154382623903251"><ele>10.4</ele><time>2026-04-22T13:39:24Z</time></trkpt><trkpt lat="43.65599502964681" lon="7.154239015839527"><ele>9.2</ele><time>2026-04-22T13:39:25.999Z</time></trkpt><trkpt lat="43.65596972838583" lon="7.154155271472058"><ele>8.0</ele><time>2026-04-22T13:39:26.999Z</time></trkpt><trkpt lat="43.65594352058734" lon="7.154076020819541"><ele>7.999999999999999</ele><time>2026-04-22T13:39:27.999Z</time></trkpt><trkpt lat="43.65590162081168" lon="7.153931905029888"><ele>8.0</ele><time>2026-04-22T13:39:29.999Z</time></trkpt><trkpt lat="43.65591106611571" lon="7.153844323915496"><ele>8.0</ele><time>2026-04-22T13:39:31.999Z</time></trkpt><trkpt lat="43.655979662247894" lon="7.153802594113698"><ele>8.0</ele><time>2026-04-22T13:39:33.999Z</time></trkpt><trkpt lat="43.6560904039841" lon="7.15376885008357"><ele>7.999999999999999</ele><time>2026-04-22T13:39:35.999Z</time></trkpt><trkpt lat="43.65616917089791" lon="7.153727778984559"><ele>8.0</ele><time>2026-04-22T13:39:36.999Z</time></trkpt><trkpt lat="43.65626034693571" lon="7.153678732010485"><ele>7.999999999999999</ele><time>2026-04-22T13:39:37.999Z</time></trkpt><trkpt lat="43.65633910239534" lon="7.153635510210136"><ele>8.0</ele><time>2026-04-22T13:39:38.999Z</time></trkpt><trkpt lat="43.65641675624015" lon="7.153591315871655"><ele>8.0</ele><time>2026-04-22T13:39:39.999Z</time></trkpt><trkpt lat="43.65650010460902" lon="7.153538147793227"><ele>8.0</ele><time>2026-04-22T13:39:40.999Z</time></trkpt><trkpt lat="43.65658733395801" lon="7.153487149901754"><ele>7.999999999999999</ele><time>2026-04-22T13:39:41.999Z</time></trkpt><trkpt lat="43.65666891338051" lon="7.153441023796057"><ele>8.0</ele><time>2026-04-22T13:39:42.999Z</time></trkpt><trkpt lat="43.656734266495135" lon="7.153400314128064"><ele>7.999999999999999</ele><time>2026-04-22T13:39:43.999Z</time></trkpt><trkpt lat="43.65682035485141" lon="7.153313026033584"><ele>8.0</ele><time>2026-04-22T13:39:45.999Z</time></trkpt><trkpt lat="43.65685369814141" lon="7.153236214766355"><ele>8.0</ele><time>2026-04-22T13:39:46.999Z</time></trkpt><trkpt lat="43.656882251326635" lon="7.153146163840785"><ele>8.0</ele><time>2026-04-22T13:39:47.999Z</time></trkpt><trkpt lat="43.656909115147705" lon="7.153041992134071"><ele>7.999999999999999</ele><time>2026-04-22T13:39:48.999Z</time></trkpt><trkpt lat="43.65693741877014" lon="7.152927433751863"><ele>8.0</ele><time>2026-04-22T13:39:49.999Z</time></trkpt><trkpt lat="43.656971712447834" lon="7.152809367455699"><ele>7.6000000000000005</ele><time>2026-04-22T13:39:50.999Z</time></trkpt><trkpt lat="43.65700969624818" lon="7.152695232971406"><ele>7.200000000000001</ele><time>2026-04-22T13:39:51.999Z</time></trkpt><trkpt lat="43.65704338151285" lon="7.152571073255074"><ele>6.8</ele><time>2026-04-22T13:39:52.999Z</time></trkpt><trkpt lat="43.65708091827174" lon="7.152450166938723"><ele>6.4</ele><time>2026-04-22T13:39:53.999Z</time></trkpt><trkpt lat="43.65711809377226" lon="7.15232954041347"><ele>6.0</ele><time>2026-04-22T13:39:54.999Z</time></trkpt><trkpt lat="43.65715843377513" lon="7.1522102756004236"><ele>7.0</ele><time>2026-04-22T13:39:55.999Z</time></trkpt><trkpt lat="43.65720819756619" lon="7.152082459055341"><ele>8.0</ele><time>2026-04-22T13:39:56.999Z</time></trkpt><trkpt lat="43.657247252366304" lon="7.151954925980465"><ele>9.0</ele><time>2026-04-22T13:39:57.999Z</time></trkpt><trkpt lat="43.65728246643739" lon="7.151840264558434"><ele>10.0</ele><time>2026-04-22T13:39:58.999Z</time></trkpt><trkpt lat="43.65731509626853" lon="7.151734838122791"><ele>11.0</ele><time>2026-04-22T13:39:59.999Z</time></trkpt><trkpt lat="43.65734902831491" lon="7.15163784593445"><ele>11.0</ele><time>2026-04-22T13:40:00.999Z</time></trkpt><trkpt lat="43.657384025223145" lon="7.1515516865279265"><ele>11.0</ele><time>2026-04-22T13:40:01.999Z</time></trkpt><trkpt lat="43.65742193180537" lon="7.151478079586734"><ele>11.0</ele><time>2026-04-22T13:40:02.999Z</time></trkpt><trkpt lat="43.6574849538481" lon="7.151372885446446"><ele>11.0</ele><time>2026-04-22T13:40:04.999Z</time></trkpt><trkpt lat="43.65752400024303" lon="7.151301493886906"><ele>11.0</ele><time>2026-04-22T13:40:57.999Z</time></trkpt><trkpt lat="43.65756836045952" lon="7.15120788118546"><ele>11.0</ele><time>2026-04-22T13:40:59.999Z</time></trkpt><trkpt lat="43.65762929994736" lon="7.151091388383205"><ele>11.166666666666666</ele><time>2026-04-22T13:41:01.999Z</time></trkpt><trkpt lat="43.65767969550718" lon="7.151016839107682"><ele>11.333333333333332</ele><time>2026-04-22T13:41:03.998Z</time></trkpt><trkpt lat="43.657772104433654" lon="7.1509994424700025"><ele>11.5</ele><time>2026-04-22T13:41:09Z</time></trkpt><trkpt lat="43.657850075568255" lon="7.150982571385697"><ele>11.666666666666666</ele><time>2026-04-22T13:41:11Z</time></trkpt><trkpt lat="43.657942999075786" lon="7.150968355452407"><ele>11.833333333333334</ele><time>2026-04-22T13:41:13Z</time></trkpt><trkpt lat="43.65802179332834" lon="7.150953759840394"><ele>12.0</ele><time>2026-04-22T13:41:15Z</time></trkpt><trkpt lat="43.65812634254722" lon="7.150948651898919"><ele>12.0</ele><time>2026-04-22T13:41:17Z</time></trkpt><trkpt lat="43.658190613416444" lon="7.150932343371667"><ele>12.0</ele><time>2026-04-22T13:41:18Z</time></trkpt><trkpt lat="43.65829499989224" lon="7.150919182221489"><ele>12.0</ele><time>2026-04-22T13:41:20Z</time></trkpt><trkpt lat="43.65837464654508" lon="7.150914202454403"><ele>12.0</ele><time>2026-04-22T13:41:23Z</time></trkpt><trkpt lat="43.65844275994052" lon="7.1509143819097485"><ele>12.0</ele><time>2026-04-22T13:41:38Z</time></trkpt><trkpt lat="43.65854163243454" lon="7.150887934982844"><ele>12.0</ele><time>2026-04-22T13:41:42Z</time></trkpt><trkpt lat="43.65862388626017" lon="7.150867199008932"><ele>11.833333333333334</ele><time>2026-04-22T13:41:44Z</time></trkpt><trkpt lat="43.65869526112632" lon="7.150870755110768"><ele>11.666666666666666</ele><time>2026-04-22T13:41:47Z</time></trkpt><trkpt lat="43.658795248797354" lon="7.150859481386226"><ele>11.5</ele><time>2026-04-22T13:41:50.999Z</time></trkpt><trkpt lat="43.658896282383" lon="7.15084908138153"><ele>11.333333333333332</ele><time>2026-04-22T13:41:52.999Z</time></trkpt><trkpt lat="43.65898399121068" lon="7.150846218732528"><ele>11.166666666666666</ele><time>2026-04-22T13:41:54.999Z</time></trkpt><trkpt lat="43.65905344618748" lon="7.150839482168674"><ele>11.0</ele><time>2026-04-22T13:41:58.999Z</time></trkpt><trkpt lat="43.65915397650135" lon="7.150818675383802"><ele>11.0</ele><time>2026-04-22T13:42:40.999Z</time></trkpt><trkpt lat="43.659281321490326" lon="7.15079739673519"><ele>11.0</ele><time>2026-04-22T13:42:42.999Z</time></trkpt><trkpt lat="43.65936538644175" lon="7.150781291961934"><ele>11.0</ele><time>2026-04-22T13:42:43.999Z</time></trkpt><trkpt lat="43.65945215666879" lon="7.150763896484472"><ele>11.0</ele><time>2026-04-22T13:42:44.999Z</time></trkpt><trkpt lat="43.6595398191296" lon="7.150743818465609"><ele>11.0</ele><time>2026-04-22T13:42:45.999Z</time></trkpt><trkpt lat="43.659631149667696" lon="7.150721119250247"><ele>11.666666666666666</ele><time>2026-04-22T13:42:46.999Z</time></trkpt><trkpt lat="43.659729474182214" lon="7.150699524688158"><ele>12.333333333333332</ele><time>2026-04-22T13:42:47.999Z</time></trkpt><trkpt lat="43.65982872222787" lon="7.150682769479606"><ele>13.0</ele><time>2026-04-22T13:42:48.999Z</time></trkpt><trkpt lat="43.659915500084566" lon="7.150683436779643"><ele>13.666666666666666</ele><time>2026-04-22T13:42:49.999Z</time></trkpt><trkpt lat="43.65998492299468" lon="7.15067556273887"><ele>14.333333333333334</ele><time>2026-04-22T13:42:50.999Z</time></trkpt><trkpt lat="43.66005038952101" lon="7.150636258722401"><ele>15.0</ele><time>2026-04-22T13:42:51.999Z</time></trkpt><trkpt lat="43.660118012699314" lon="7.150624952581493"><ele>15.0</ele><time>2026-04-22T13:42:52.999Z</time></trkpt><trkpt lat="43.660184895873606" lon="7.150634498189394"><ele>15.0</ele><time>2026-04-22T13:42:58.999Z</time></trkpt><trkpt lat="43.66025503132037" lon="7.150616438146507"><ele>15.0</ele><time>2026-04-22T13:42:59.999Z</time></trkpt><trkpt lat="43.66027783106268" lon="7.150360408812772"><ele>15.0</ele><time>2026-04-22T13:43:03.999Z</time></trkpt><trkpt lat="43.66031277255041" lon="7.150272044735717"><ele>15.0</ele><time>2026-04-22T13:43:04.999Z</time></trkpt><trkpt lat="43.66035145075572" lon="7.150137434535134"><ele>15.0</ele><time>2026-04-22T13:43:05.999Z</time></trkpt><trkpt lat="43.66037684030305" lon="7.1500232789277485"><ele>15.0</ele><time>2026-04-22T13:43:06.999Z</time></trkpt><trkpt lat="43.66040920485624" lon="7.14992801911907"><ele>15.0</ele><time>2026-04-22T13:43:07.999Z</time></trkpt><trkpt lat="43.66045190279997" lon="7.149819832223322"><ele>15.0</ele><time>2026-04-22T13:43:08.999Z</time></trkpt><trkpt lat="43.660476227050914" lon="7.14969021758302"><ele>15.0</ele><time>2026-04-22T13:43:09.999Z</time></trkpt><trkpt lat="43.66050492049705" lon="7.149583424532835"><ele>15.0</ele><time>2026-04-22T13:43:10.999Z</time></trkpt><trkpt lat="43.66054446926393" lon="7.14949652106708"><ele>15.166666666666666</ele><time>2026-04-22T13:43:11.999Z</time></trkpt><trkpt lat="43.660571624675796" lon="7.1494017145488"><ele>15.333333333333332</ele><time>2026-04-22T13:43:12.999Z</time></trkpt><trkpt lat="43.66059396105503" lon="7.149307165382367"><ele>15.5</ele><time>2026-04-22T13:43:14Z</time></trkpt><trkpt lat="43.66062263779234" lon="7.14921719871427"><ele>15.666666666666666</ele><time>2026-04-22T13:43:15Z</time></trkpt><trkpt lat="43.66066774594194" lon="7.149073932233651"><ele>15.833333333333332</ele><time>2026-04-22T13:43:17Z</time></trkpt><trkpt lat="43.660693288746124" lon="7.148983094249682"><ele>16.0</ele><time>2026-04-22T13:43:19Z</time></trkpt><trkpt lat="43.66071736099851" lon="7.148887688225659"><ele>16.6</ele><time>2026-04-22T13:43:21Z</time></trkpt><trkpt lat="43.66074957376236" lon="7.148780881137416"><ele>17.200000000000003</ele><time>2026-04-22T13:43:23Z</time></trkpt><trkpt lat="43.660757096142746" lon="7.1486789727311475"><ele>17.799999999999997</ele><time>2026-04-22T13:43:25Z</time></trkpt><trkpt lat="43.66064995098596" lon="7.148572154588111"><ele>18.4</ele><time>2026-04-22T13:43:28Z</time></trkpt><trkpt lat="43.66050996353172" lon="7.148557425571204"><ele>19.0</ele><time>2026-04-22T13:43:30Z</time></trkpt><trkpt lat="43.66042453642549" lon="7.148550428377916"><ele>19.0</ele><time>2026-04-22T13:43:31Z</time></trkpt><trkpt lat="43.66033101341295" lon="7.148558000033833"><ele>19.0</ele><time>2026-04-22T13:43:32Z</time></trkpt><trkpt lat="43.66020082731526" lon="7.148571222025344"><ele>19.0</ele><time>2026-04-22T13:43:34Z</time></trkpt><trkpt lat="43.66011125948513" lon="7.148587407621347"><ele>19.0</ele><time>2026-04-22T13:43:35Z</time></trkpt><trkpt lat="43.660017355169636" lon="7.148595056414035"><ele>19.0</ele><time>2026-04-22T13:43:36Z</time></trkpt><trkpt lat="43.65992092050909" lon="7.148599790353222"><ele>18.2</ele><time>2026-04-22T13:43:37Z</time></trkpt><trkpt lat="43.659819858772146" lon="7.148613921846413"><ele>17.4</ele><time>2026-04-22T13:43:38Z</time></trkpt><trkpt lat="43.65971158875766" lon="7.148624881695506"><ele>16.6</ele><time>2026-04-22T13:43:39Z</time></trkpt><trkpt lat="43.65962524458824" lon="7.148628851967741"><ele>15.8</ele><time>2026-04-22T13:43:40Z</time></trkpt><trkpt lat="43.65954763167853" lon="7.148631265896005"><ele>15.0</ele><time>2026-04-22T13:43:41Z</time></trkpt><trkpt lat="43.65943421618487" lon="7.148624879748626"><ele>14.166666666666666</ele><time>2026-04-22T13:43:43Z</time></trkpt><trkpt lat="43.659352541207056" lon="7.148613198176721"><ele>13.333333333333334</ele><time>2026-04-22T13:43:45Z</time></trkpt><trkpt lat="43.65925657006763" lon="7.14858875944201"><ele>12.5</ele><time>2026-04-22T13:43:47Z</time></trkpt><trkpt lat="43.65916700025425" lon="7.148564424451141"><ele>11.666666666666668</ele><time>2026-04-22T13:43:49Z</time></trkpt><trkpt lat="43.65908084701454" lon="7.148526033976877"><ele>10.833333333333334</ele><time>2026-04-22T13:43:51Z</time></trkpt><trkpt lat="43.65903381620339" lon="7.148431360353531"><ele>10.0</ele><time>2026-04-22T13:43:53Z</time></trkpt><trkpt lat="43.65904928385212" lon="7.148300509982743"><ele>10.4</ele><time>2026-04-22T13:43:54.999Z</time></trkpt><trkpt lat="43.6590859053303" lon="7.148146389913296"><ele>10.8</ele><time>2026-04-22T13:43:56.999Z</time></trkpt><trkpt lat="43.65909416764629" lon="7.147992294214973"><ele>11.2</ele><time>2026-04-22T13:43:58.999Z</time></trkpt><trkpt lat="43.659042551445566" lon="7.147880612871008"><ele>11.6</ele><time>2026-04-22T13:44:00.999Z</time></trkpt><trkpt lat="43.65894182534177" lon="7.147831704237166"><ele>12.0</ele><time>2026-04-22T13:44:02.999Z</time></trkpt><trkpt lat="43.658817667399596" lon="7.147785234226639"><ele>12.0</ele><time>2026-04-22T13:44:04.999Z</time></trkpt><trkpt lat="43.65874724420037" lon="7.1477544779797"><ele>12.0</ele><time>2026-04-22T13:44:05.999Z</time></trkpt><trkpt lat="43.65867492907894" lon="7.147724070277129"><ele>12.0</ele><time>2026-04-22T13:44:06.999Z</time></trkpt><trkpt lat="43.658606680882734" lon="7.147695178472125"><ele>12.0</ele><time>2026-04-22T13:44:07.999Z</time></trkpt><trkpt lat="43.658493935988325" lon="7.147645580308199"><ele>12.0</ele><time>2026-04-22T13:44:09.999Z</time></trkpt><trkpt lat="43.65843611386493" lon="7.147580011646653"><ele>12.0</ele><time>2026-04-22T13:44:11.999Z</time></trkpt><trkpt lat="43.658437577423946" lon="7.147480528794011"><ele>11.666666666666666</ele><time>2026-04-22T13:44:13.999Z</time></trkpt><trkpt lat="43.65847146290834" lon="7.147339256091052"><ele>11.333333333333334</ele><time>2026-04-22T13:44:15.999Z</time></trkpt><trkpt lat="43.658487874066346" lon="7.1472462503921195"><ele>11.0</ele><time>2026-04-22T13:44:16.999Z</time></trkpt><trkpt lat="43.65851090887599" lon="7.14713882819024"><ele>10.666666666666668</ele><time>2026-04-22T13:44:17.999Z</time></trkpt><trkpt lat="43.658527919959575" lon="7.1470372753432905"><ele>10.333333333333334</ele><time>2026-04-22T13:44:18.999Z</time></trkpt><trkpt lat="43.658545833064565" lon="7.1469451625964595"><ele>10.0</ele><time>2026-04-22T13:44:19.999Z</time></trkpt><trkpt lat="43.658567770876715" lon="7.146849633688709"><ele>10.0</ele><time>2026-04-22T13:44:20.999Z</time></trkpt><trkpt lat="43.658590582843345" lon="7.146745439761887"><ele>10.0</ele><time>2026-04-22T13:44:21.999Z</time></trkpt><trkpt lat="43.65861371628096" lon="7.146646317672881"><ele>10.0</ele><time>2026-04-22T13:44:22.999Z</time></trkpt><trkpt lat="43.658638083518035" lon="7.146556472127295"><ele>10.0</ele><time>2026-04-22T13:44:23.999Z</time></trkpt><trkpt lat="43.65866261629899" lon="7.146459513544287"><ele>10.0</ele><time>2026-04-22T13:44:24.999Z</time></trkpt><trkpt lat="43.658690365710065" lon="7.146361574604868"><ele>10.0</ele><time>2026-04-22T13:44:25.999Z</time></trkpt><trkpt lat="43.658727351353576" lon="7.14626170000129"><ele>10.0</ele><time>2026-04-22T13:44:26.999Z</time></trkpt><trkpt lat="43.65877074016709" lon="7.146153359646455"><ele>10.0</ele><time>2026-04-22T13:44:27.999Z</time></trkpt><trkpt lat="43.65881188314935" lon="7.146042025908101"><ele>10.0</ele><time>2026-04-22T13:44:28.999Z</time></trkpt><trkpt lat="43.65882591086058" lon="7.1459414980421805"><ele>10.0</ele><time>2026-04-22T13:44:29.999Z</time></trkpt><trkpt lat="43.65885529381834" lon="7.145837038206124"><ele>10.0</ele><time>2026-04-22T13:44:30.999Z</time></trkpt><trkpt lat="43.65888273448304" lon="7.145721652169103"><ele>10.0</ele><time>2026-04-22T13:44:31.999Z</time></trkpt><trkpt lat="43.6589182968398" lon="7.145613917913263"><ele>10.333333333333334</ele><time>2026-04-22T13:44:32.999Z</time></trkpt><trkpt lat="43.65893925372103" lon="7.145497641403676"><ele>10.666666666666668</ele><time>2026-04-22T13:44:33.999Z</time></trkpt><trkpt lat="43.65896779488944" lon="7.145401693286662"><ele>11.0</ele><time>2026-04-22T13:44:34.999Z</time></trkpt><trkpt lat="43.65898949976238" lon="7.145315627617519"><ele>11.333333333333334</ele><time>2026-04-22T13:44:35.999Z</time></trkpt><trkpt lat="43.659028472953665" lon="7.145153186731636"><ele>11.666666666666666</ele><time>2026-04-22T13:44:37.999Z</time></trkpt><trkpt lat="43.65904851620769" lon="7.145063788406421"><ele>12.0</ele><time>2026-04-22T13:44:38.999Z</time></trkpt><trkpt lat="43.659076408388415" lon="7.144962075286975"><ele>12.166666666666666</ele><time>2026-04-22T13:44:39.999Z</time></trkpt><trkpt lat="43.65910165325121" lon="7.144856266016408"><ele>12.333333333333332</ele><time>2026-04-22T13:44:40.999Z</time></trkpt><trkpt lat="43.65913116884974" lon="7.144750787276774"><ele>12.5</ele><time>2026-04-22T13:44:41.999Z</time></trkpt><trkpt lat="43.65915481349831" lon="7.1446507496806655"><ele>12.666666666666666</ele><time>2026-04-22T13:44:42.999Z</time></trkpt><trkpt lat="43.659181575632125" lon="7.144565476325777"><ele>12.833333333333332</ele><time>2026-04-22T13:44:43.999Z</time></trkpt><trkpt lat="43.65923365845712" lon="7.14443394684765"><ele>13.0</ele><time>2026-04-22T13:44:45.999Z</time></trkpt><trkpt lat="43.65924662369642" lon="7.144321783266973"><ele>12.999999999999998</ele><time>2026-04-22T13:44:47.999Z</time></trkpt><trkpt lat="43.65920299983222" lon="7.144251371818844"><ele>13.0</ele><time>2026-04-22T13:44:49.999Z</time></trkpt><trkpt lat="43.659117612613755" lon="7.144250132370227"><ele>13.0</ele><time>2026-04-22T13:44:51.999Z</time></trkpt><trkpt lat="43.65900728624498" lon="7.144215650843246"><ele>13.0</ele><time>2026-04-22T13:44:53.999Z</time></trkpt><trkpt lat="43.65893985403087" lon="7.144207161912981"><ele>12.999999999999998</ele><time>2026-04-22T13:44:54.999Z</time></trkpt><trkpt lat="43.6588650633492" lon="7.144197746629518"><ele>13.0</ele><time>2026-04-22T13:44:55.999Z</time></trkpt><trkpt lat="43.65878295899619" lon="7.144187410637509"><ele>13.0</ele><time>2026-04-22T13:44:56.999Z</time></trkpt><trkpt lat="43.65870617699852" lon="7.1441777446758"><ele>13.0</ele><time>2026-04-22T13:44:57.999Z</time></trkpt><trkpt lat="43.65858841273435" lon="7.1441628755124835"><ele>13.0</ele><time>2026-04-22T13:44:59.999Z</time></trkpt><trkpt lat="43.65846284150311" lon="7.144146946270005"><ele>13.0</ele><time>2026-04-22T13:45:01.999Z</time></trkpt><trkpt lat="43.65838843221531" lon="7.144137507140791"><ele>13.0</ele><time>2026-04-22T13:45:02.999Z</time></trkpt><trkpt lat="43.65830905064654" lon="7.144127437256436"><ele>13.0</ele><time>2026-04-22T13:45:03.999Z</time></trkpt><trkpt lat="43.65822754418498" lon="7.1441382866431615"><ele>13.0</ele><time>2026-04-22T13:45:04.999Z</time></trkpt><trkpt lat="43.65816102637478" lon="7.144124021715305"><ele>13.0</ele><time>2026-04-22T13:45:05.999Z</time></trkpt><trkpt lat="43.65804535701044" lon="7.144102489108593"><ele>13.0</ele><time>2026-04-22T13:45:07.999Z</time></trkpt><trkpt lat="43.65793253859518" lon="7.1440445399922785"><ele>13.0</ele><time>2026-04-22T13:45:09.999Z</time></trkpt><trkpt lat="43.65783824335206" lon="7.143980269921035"><ele>12.999999999999998</ele><time>2026-04-22T13:45:11.999Z</time></trkpt><trkpt lat="43.657793890791886" lon="7.143906114492487"><ele>13.0</ele><time>2026-04-22T13:45:24Z</time></trkpt><trkpt lat="43.65783862922138" lon="7.143779153092803"><ele>13.0</ele><time>2026-04-22T13:45:25Z</time></trkpt><trkpt lat="43.65787557317889" lon="7.143705600107313"><ele>13.0</ele><time>2026-04-22T13:45:26Z</time></trkpt><trkpt lat="43.65791694391102" lon="7.143604812280926"><ele>12.999999999999998</ele><time>2026-04-22T13:45:27Z</time></trkpt><trkpt lat="43.657955813008684" lon="7.143504041803975"><ele>13.0</ele><time>2026-04-22T13:45:28Z</time></trkpt><trkpt lat="43.65799162400003" lon="7.143393510161226"><ele>13.0</ele><time>2026-04-22T13:45:29Z</time></trkpt><trkpt lat="43.65802430237751" lon="7.143265904730435"><ele>13.0</ele><time>2026-04-22T13:45:30Z</time></trkpt><trkpt lat="43.65805568338582" lon="7.143122971124819"><ele>13.0</ele><time>2026-04-22T13:45:31Z</time></trkpt><trkpt lat="43.658089160974036" lon="7.142967208506737"><ele>13.0</ele><time>2026-04-22T13:45:32Z</time></trkpt><trkpt lat="43.65811734504272" lon="7.14281870085446"><ele>13.0</ele><time>2026-04-22T13:45:33Z</time></trkpt><trkpt lat="43.65814877894246" lon="7.1426690899676135"><ele>13.5</ele><time>2026-04-22T13:45:34Z</time></trkpt><trkpt lat="43.65818120638572" lon="7.142517574735925"><ele>14.0</ele><time>2026-04-22T13:45:35Z</time></trkpt><trkpt lat="43.65821389752963" lon="7.142362622440294"><ele>14.5</ele><time>2026-04-22T13:45:36Z</time></trkpt><trkpt lat="43.65824390634566" lon="7.142203985727338"><ele>15.0</ele><time>2026-04-22T13:45:37Z</time></trkpt><trkpt lat="43.65827561057241" lon="7.142044127611555"><ele>15.0</ele><time>2026-04-22T13:45:38Z</time></trkpt><trkpt lat="43.6583093046502" lon="7.141881092941677"><ele>15.0</ele><time>2026-04-22T13:45:39Z</time></trkpt><trkpt lat="43.65833978511157" lon="7.141716182787577"><ele>15.0</ele><time>2026-04-22T13:45:40Z</time></trkpt><trkpt lat="43.65836972233688" lon="7.141556092080518"><ele>15.0</ele><time>2026-04-22T13:45:41Z</time></trkpt><trkpt lat="43.658398766940735" lon="7.14139782930425"><ele>15.5</ele><time>2026-04-22T13:45:42Z</time></trkpt><trkpt lat="43.6584320742972" lon="7.141236563579608"><ele>16.0</ele><time>2026-04-22T13:45:43Z</time></trkpt><trkpt lat="43.65846539696879" lon="7.1410697869760495"><ele>16.5</ele><time>2026-04-22T13:45:44Z</time></trkpt><trkpt lat="43.65849884456047" lon="7.140904820026784"><ele>17.0</ele><time>2026-04-22T13:45:45Z</time></trkpt><trkpt lat="43.658530769865195" lon="7.140740222346851"><ele>16.5</ele><time>2026-04-22T13:45:46Z</time></trkpt><trkpt lat="43.65856254641559" lon="7.1405760547704755"><ele>16.0</ele><time>2026-04-22T13:45:47Z</time></trkpt><trkpt lat="43.65859248809897" lon="7.140421951293102"><ele>15.5</ele><time>2026-04-22T13:45:48Z</time></trkpt><trkpt lat="43.65862131058027" lon="7.14027371651835"><ele>15.0</ele><time>2026-04-22T13:45:49Z</time></trkpt><trkpt lat="43.65864611658958" lon="7.14013614331972"><ele>15.0</ele><time>2026-04-22T13:45:50Z</time></trkpt><trkpt lat="43.65867112277681" lon="7.14001254727631"><ele>15.0</ele><time>2026-04-22T13:45:51Z</time></trkpt><trkpt lat="43.65869806770164" lon="7.139900112810494"><ele>15.0</ele><time>2026-04-22T13:45:52Z</time></trkpt><trkpt lat="43.6587212787118" lon="7.139799244113319"><ele>15.0</ele><time>2026-04-22T13:45:53Z</time></trkpt><trkpt lat="43.65873977365116" lon="7.139710904129747"><ele>15.0</ele><time>2026-04-22T13:45:53.999Z</time></trkpt><trkpt lat="43.65876788593677" lon="7.1395794069780605"><ele>15.0</ele><time>2026-04-22T13:45:55.999Z</time></trkpt><trkpt lat="43.65878154876094" lon="7.13949129816408"><ele>15.4</ele><time>2026-04-22T13:45:58.999Z</time></trkpt><trkpt lat="43.65881430453913" lon="7.139354494015515"><ele>15.8</ele><time>2026-04-22T13:46:11.999Z</time></trkpt><trkpt lat="43.658830865361374" lon="7.139251971377748"><ele>16.2</ele><time>2026-04-22T13:46:12.999Z</time></trkpt><trkpt lat="43.65885691387433" lon="7.139117952951107"><ele>16.6</ele><time>2026-04-22T13:46:13.999Z</time></trkpt><trkpt lat="43.658878370111346" lon="7.138987265424202"><ele>17.0</ele><time>2026-04-22T13:46:14.999Z</time></trkpt><trkpt lat="43.65889525844714" lon="7.138852634330089"><ele>17.2</ele><time>2026-04-22T13:46:15.999Z</time></trkpt><trkpt lat="43.6589020148277" lon="7.138712253822134"><ele>17.4</ele><time>2026-04-22T13:46:16.999Z</time></trkpt><trkpt lat="43.658906630179416" lon="7.138570817770353"><ele>17.6</ele><time>2026-04-22T13:46:17.999Z</time></trkpt><trkpt lat="43.65890848048579" lon="7.138431985302109"><ele>17.8</ele><time>2026-04-22T13:46:18.999Z</time></trkpt><trkpt lat="43.65890805026364" lon="7.138288509784953"><ele>18.0</ele><time>2026-04-22T13:46:19.999Z</time></trkpt><trkpt lat="43.65890898211944" lon="7.138153727047844"><ele>18.0</ele><time>2026-04-22T13:46:20.999Z</time></trkpt><trkpt lat="43.65891035449213" lon="7.138017929792739"><ele>18.0</ele><time>2026-04-22T13:46:21.999Z</time></trkpt><trkpt lat="43.65891638128852" lon="7.137876244860204"><ele>18.0</ele><time>2026-04-22T13:46:22.999Z</time></trkpt><trkpt lat="43.65892237358473" lon="7.137743599110138"><ele>18.0</ele><time>2026-04-22T13:46:23.999Z</time></trkpt><trkpt lat="43.658924405925816" lon="7.137627237766256"><ele>18.0</ele><time>2026-04-22T13:46:24.999Z</time></trkpt><trkpt lat="43.658926171130986" lon="7.137506276903002"><ele>18.0</ele><time>2026-04-22T13:46:25.999Z</time></trkpt><trkpt lat="43.658931589941325" lon="7.137396188304283"><ele>18.0</ele><time>2026-04-22T13:46:26.999Z</time></trkpt><trkpt lat="43.658945647583316" lon="7.137297393289508"><ele>18.0</ele><time>2026-04-22T13:46:27.999Z</time></trkpt><trkpt lat="43.65898011904703" lon="7.137216898418576"><ele>18.0</ele><time>2026-04-22T13:46:28.999Z</time></trkpt><trkpt lat="43.65898151469909" lon="7.137084393422675"><ele>18.0</ele><time>2026-04-22T13:46:29.999Z</time></trkpt><trkpt lat="43.65899352454561" lon="7.1369697571748665"><ele>18.0</ele><time>2026-04-22T13:46:30.999Z</time></trkpt><trkpt lat="43.65900927934751" lon="7.136849039496004"><ele>18.0</ele><time>2026-04-22T13:46:31.999Z</time></trkpt><trkpt lat="43.65902675531679" lon="7.136717855055325"><ele>18.0</ele><time>2026-04-22T13:46:32.999Z</time></trkpt><trkpt lat="43.65905174488252" lon="7.136579205163606"><ele>18.0</ele><time>2026-04-22T13:46:33.999Z</time></trkpt><trkpt lat="43.65908089543784" lon="7.136433285963222"><ele>18.0</ele><time>2026-04-22T13:46:34.999Z</time></trkpt><trkpt lat="43.65911045946908" lon="7.136285751975918"><ele>18.0</ele><time>2026-04-22T13:46:35.999Z</time></trkpt><trkpt lat="43.65913431667839" lon="7.136128876755924"><ele>18.25</ele><time>2026-04-22T13:46:36.999Z</time></trkpt><trkpt lat="43.6591598621172" lon="7.135966265554935"><ele>18.5</ele><time>2026-04-22T13:46:37.999Z</time></trkpt><trkpt lat="43.65918932598066" lon="7.135795148047081"><ele>18.75</ele><time>2026-04-22T13:46:38.999Z</time></trkpt><trkpt lat="43.65921995451005" lon="7.135625128981831"><ele>19.0</ele><time>2026-04-22T13:46:39.999Z</time></trkpt><trkpt lat="43.659251332432476" lon="7.135461664023112"><ele>19.25</ele><time>2026-04-22T13:46:40.999Z</time></trkpt><trkpt lat="43.6592837383406" lon="7.135306449716405"><ele>19.5</ele><time>2026-04-22T13:46:41.999Z</time></trkpt><trkpt lat="43.6593159777227" lon="7.1351239231126415"><ele>19.75</ele><time>2026-04-22T13:46:42.999Z</time></trkpt><trkpt lat="43.65934827673619" lon="7.13495595049554"><ele>20.0</ele><time>2026-04-22T13:46:43.999Z</time></trkpt><trkpt lat="43.65938461136632" lon="7.134780018221055"><ele>20.0</ele><time>2026-04-22T13:46:44.999Z</time></trkpt><trkpt lat="43.65941432522257" lon="7.1346021705146345"><ele>20.0</ele><time>2026-04-22T13:46:45.999Z</time></trkpt><trkpt lat="43.65944642539709" lon="7.134420077045035"><ele>20.0</ele><time>2026-04-22T13:46:46.999Z</time></trkpt><trkpt lat="43.659482173694386" lon="7.13423514549512"><ele>20.0</ele><time>2026-04-22T13:46:47.999Z</time></trkpt><trkpt lat="43.659518034711176" lon="7.13404930149453"><ele>20.2</ele><time>2026-04-22T13:46:48.999Z</time></trkpt><trkpt lat="43.659546196339086" lon="7.1338825239861166"><ele>20.4</ele><time>2026-04-22T13:46:49.999Z</time></trkpt><trkpt lat="43.65957675119575" lon="7.133731211825439"><ele>20.6</ele><time>2026-04-22T13:46:50.999Z</time></trkpt><trkpt lat="43.659603833916194" lon="7.133587827888687"><ele>20.8</ele><time>2026-04-22T13:46:51.999Z</time></trkpt><trkpt lat="43.65962944864017" lon="7.133452568675592"><ele>21.0</ele><time>2026-04-22T13:46:52.999Z</time></trkpt><trkpt lat="43.659657552199164" lon="7.133313785551373"><ele>21.6</ele><time>2026-04-22T13:46:53.999Z</time></trkpt><trkpt lat="43.659683867902395" lon="7.1331763930317225"><ele>22.200000000000003</ele><time>2026-04-22T13:46:54.999Z</time></trkpt><trkpt lat="43.6597084748037" lon="7.133038223170618"><ele>22.799999999999997</ele><time>2026-04-22T13:46:55.999Z</time></trkpt><trkpt lat="43.6597398277444" lon="7.13289341865848"><ele>23.4</ele><time>2026-04-22T13:46:56.999Z</time></trkpt><trkpt lat="43.6597651873428" lon="7.132744018558348"><ele>24.0</ele><time>2026-04-22T13:46:57.999Z</time></trkpt><trkpt lat="43.659792372907006" lon="7.132596440102542"><ele>24.0</ele><time>2026-04-22T13:46:58.999Z</time></trkpt><trkpt lat="43.65982212015641" lon="7.132446369140349"><ele>24.0</ele><time>2026-04-22T13:46:59.999Z</time></trkpt><trkpt lat="43.65984739896183" lon="7.13229965757713"><ele>24.0</ele><time>2026-04-22T13:47:00.999Z</time></trkpt><trkpt lat="43.65987549896884" lon="7.132157892967329"><ele>24.0</ele><time>2026-04-22T13:47:01.999Z</time></trkpt><trkpt lat="43.65990387193506" lon="7.132009446374119"><ele>24.0</ele><time>2026-04-22T13:47:02.999Z</time></trkpt><trkpt lat="43.659933101986695" lon="7.131852792579008"><ele>24.25</ele><time>2026-04-22T13:47:03.999Z</time></trkpt><trkpt lat="43.65996615705021" lon="7.131702456804582"><ele>24.5</ele><time>2026-04-22T13:47:04.999Z</time></trkpt><trkpt lat="43.66000078516629" lon="7.131526865747083"><ele>24.75</ele><time>2026-04-22T13:47:05.999Z</time></trkpt><trkpt lat="43.66003873457649" lon="7.131340281316672"><ele>25.0</ele><time>2026-04-22T13:47:06.999Z</time></trkpt><trkpt lat="43.66007546665337" lon="7.131173883983437"><ele>26.0</ele><time>2026-04-22T13:47:07.999Z</time></trkpt><trkpt lat="43.6601100889426" lon="7.1310065768105995"><ele>27.0</ele><time>2026-04-22T13:47:08.999Z</time></trkpt><trkpt lat="43.660145016951965" lon="7.130860744626443"><ele>28.0</ele><time>2026-04-22T13:47:09.999Z</time></trkpt><trkpt lat="43.66018168774241" lon="7.130728381188424"><ele>29.0</ele><time>2026-04-22T13:47:10.999Z</time></trkpt><trkpt lat="43.660219328317986" lon="7.130607860110205"><ele>30.0</ele><time>2026-04-22T13:47:11.999Z</time></trkpt><trkpt lat="43.66025482225305" lon="7.1305083356768755"><ele>29.2</ele><time>2026-04-22T13:47:12.999Z</time></trkpt><trkpt lat="43.66029153622902" lon="7.130419072517023"><ele>28.4</ele><time>2026-04-22T13:47:13.999Z</time></trkpt><trkpt lat="43.66033064823259" lon="7.13034295703182"><ele>27.6</ele><time>2026-04-22T13:47:14.999Z</time></trkpt><trkpt lat="43.660422602152835" lon="7.1302491886454415"><ele>26.8</ele><time>2026-04-22T13:47:16.999Z</time></trkpt><trkpt lat="43.66050722769104" lon="7.130142679605114"><ele>26.0</ele><time>2026-04-22T13:47:18.999Z</time></trkpt><trkpt lat="43.660533789027646" lon="7.13000675827341"><ele>26.0</ele><time>2026-04-22T13:47:20.999Z</time></trkpt><trkpt lat="43.66049031060009" lon="7.129891908216059"><ele>26.0</ele><time>2026-04-22T13:47:22.999Z</time></trkpt><trkpt lat="43.660390387273615" lon="7.129854671734183"><ele>26.0</ele><time>2026-04-22T13:47:24.999Z</time></trkpt><trkpt lat="43.66027119292124" lon="7.129875151167005"><ele>26.0</ele><time>2026-04-22T13:47:27Z</time></trkpt><trkpt lat="43.6601580852963" lon="7.129833124985611"><ele>26.0</ele><time>2026-04-22T13:47:29Z</time></trkpt><trkpt lat="43.660104999851384" lon="7.129785344955782"><ele>29.166666666666664</ele><time>2026-04-22T13:47:30Z</time></trkpt><trkpt lat="43.66004978336469" lon="7.129725555063876"><ele>32.33333333333333</ele><time>2026-04-22T13:47:31Z</time></trkpt><trkpt lat="43.65999183920211" lon="7.129659049198597"><ele>35.5</ele><time>2026-04-22T13:47:32Z</time></trkpt><trkpt lat="43.659936699439605" lon="7.12958250969574"><ele>38.666666666666664</ele><time>2026-04-22T13:47:33Z</time></trkpt><trkpt lat="43.65987915627525" lon="7.129514005911597"><ele>41.833333333333336</ele><time>2026-04-22T13:47:34Z</time></trkpt><trkpt lat="43.6598131478791" lon="7.129432858476306"><ele>45.0</ele><time>2026-04-22T13:47:35Z</time></trkpt><trkpt lat="43.6597288991862" lon="7.129365561982849"><ele>45.0</ele><time>2026-04-22T13:47:36Z</time></trkpt><trkpt lat="43.65965895000547" lon="7.12930638538591"><ele>45.0</ele><time>2026-04-22T13:47:37Z</time></trkpt><trkpt lat="43.65958153847768" lon="7.129259039645145"><ele>45.0</ele><time>2026-04-22T13:47:38Z</time></trkpt><trkpt lat="43.659517660257315" lon="7.129200063889335"><ele>45.0</ele><time>2026-04-22T13:47:39Z</time></trkpt><trkpt lat="43.65945054053758" lon="7.1291393329012385"><ele>45.0</ele><time>2026-04-22T13:47:40Z</time></trkpt><trkpt lat="43.65935319814323" lon="7.129049002237186"><ele>45.0</ele><time>2026-04-22T13:47:41Z</time></trkpt><trkpt lat="43.65918640974448" lon="7.128966860907945"><ele>42.8</ele><time>2026-04-22T13:47:42Z</time></trkpt><trkpt lat="43.659133269292035" lon="7.128877194070411"><ele>40.6</ele><time>2026-04-22T13:47:43Z</time></trkpt><trkpt lat="43.659066121534835" lon="7.128703066382628"><ele>38.4</ele><time>2026-04-22T13:47:45Z</time></trkpt><trkpt lat="43.65904036135121" lon="7.128594650541837"><ele>36.2</ele><time>2026-04-22T13:47:45.999Z</time></trkpt><trkpt lat="43.65903071860904" lon="7.128470013043707"><ele>34.0</ele><time>2026-04-22T13:47:46.999Z</time></trkpt><trkpt lat="43.65903386350507" lon="7.128331689565217"><ele>33.8</ele><time>2026-04-22T13:47:47.999Z</time></trkpt><trkpt lat="43.65905203474132" lon="7.128186754947343"><ele>33.599999999999994</ele><time>2026-04-22T13:47:48.999Z</time></trkpt><trkpt lat="43.659078377372715" lon="7.128034228304103"><ele>33.4</ele><time>2026-04-22T13:47:49.999Z</time></trkpt><trkpt lat="43.659096467570436" lon="7.1278763921163355"><ele>33.199999999999996</ele><time>2026-04-22T13:47:50.999Z</time></trkpt><trkpt lat="43.659117387011364" lon="7.127735853936128"><ele>33.0</ele><time>2026-04-22T13:47:51.999Z</time></trkpt><trkpt lat="43.659132497421965" lon="7.1275929780288205"><ele>33.0</ele><time>2026-04-22T13:47:52.999Z</time></trkpt><trkpt lat="43.65914115813624" lon="7.127439929826486"><ele>33.0</ele><time>2026-04-22T13:47:53.999Z</time></trkpt><trkpt lat="43.65913532236521" lon="7.127287308921345"><ele>33.0</ele><time>2026-04-22T13:47:54.999Z</time></trkpt><trkpt lat="43.659120877773454" lon="7.127139775468991"><ele>33.0</ele><time>2026-04-22T13:47:55.999Z</time></trkpt><trkpt lat="43.65909313383683" lon="7.126996205049448"><ele>33.0</ele><time>2026-04-22T13:47:56.999Z</time></trkpt><trkpt lat="43.65904741509521" lon="7.126863626674192"><ele>33.6</ele><time>2026-04-22T13:47:57.999Z</time></trkpt><trkpt lat="43.65899821012873" lon="7.126738122269017"><ele>34.199999999999996</ele><time>2026-04-22T13:47:58.999Z</time></trkpt><trkpt lat="43.658955314257256" lon="7.12661611033928"><ele>34.8</ele><time>2026-04-22T13:47:59.999Z</time></trkpt><trkpt lat="43.65891897997962" lon="7.126499159161619"><ele>35.4</ele><time>2026-04-22T13:48:00.999Z</time></trkpt><trkpt lat="43.658881831182484" lon="7.1263861825068275"><ele>36.0</ele><time>2026-04-22T13:48:01.999Z</time></trkpt><trkpt lat="43.65884660679086" lon="7.126276873610854"><ele>37.5</ele><time>2026-04-22T13:48:02.999Z</time></trkpt><trkpt lat="43.6588104972992" lon="7.12616581907792"><ele>39.0</ele><time>2026-04-22T13:48:03.999Z</time></trkpt><trkpt lat="43.658775553110196" lon="7.126053986033491"><ele>40.5</ele><time>2026-04-22T13:48:04.999Z</time></trkpt><trkpt lat="43.65873944416282" lon="7.125938714540785"><ele>42.0</ele><time>2026-04-22T13:48:05.999Z</time></trkpt><trkpt lat="43.658704596984265" lon="7.125831018557879"><ele>43.5</ele><time>2026-04-22T13:48:06.999Z</time></trkpt><trkpt lat="43.65866824438456" lon="7.125720973041258"><ele>45.0</ele><time>2026-04-22T13:48:07.999Z</time></trkpt><trkpt lat="43.6586332269657" lon="7.125609693313985"><ele>40.8</ele><time>2026-04-22T13:48:08.999Z</time></trkpt><trkpt lat="43.65859370766649" lon="7.125497439911547"><ele>36.6</ele><time>2026-04-22T13:48:09.999Z</time></trkpt><trkpt lat="43.658549372897795" lon="7.125377448162512"><ele>32.4</ele><time>2026-04-22T13:48:10.999Z</time></trkpt><trkpt lat="43.65850681575527" lon="7.125256318482345"><ele>28.2</ele><time>2026-04-22T13:48:11.999Z</time></trkpt><trkpt lat="43.658465136518544" lon="7.1251310544925985"><ele>24.0</ele><time>2026-04-22T13:48:12.999Z</time></trkpt><trkpt lat="43.658421849574864" lon="7.124999631585797"><ele>25.0</ele><time>2026-04-22T13:48:13.999Z</time></trkpt><trkpt lat="43.658372680665636" lon="7.124858483677493"><ele>26.0</ele><time>2026-04-22T13:48:14.999Z</time></trkpt><trkpt lat="43.65832789793855" lon="7.1247071975547955"><ele>27.0</ele><time>2026-04-22T13:48:15.999Z</time></trkpt><trkpt lat="43.65828188624207" lon="7.1245715087870005"><ele>28.0</ele><time>2026-04-22T13:48:16.999Z</time></trkpt><trkpt lat="43.6582397793511" lon="7.12444235262704"><ele>29.0</ele><time>2026-04-22T13:48:17.999Z</time></trkpt><trkpt lat="43.658197258189304" lon="7.12431667864282"><ele>28.999999999999996</ele><time>2026-04-22T13:48:18.999Z</time></trkpt><trkpt lat="43.65815566624837" lon="7.124201922638712"><ele>29.0</ele><time>2026-04-22T13:48:19.999Z</time></trkpt><trkpt lat="43.658119922219306" lon="7.124089546040037"><ele>29.0</ele><time>2026-04-22T13:48:20.999Z</time></trkpt><trkpt lat="43.658090998478514" lon="7.123990329799725"><ele>29.0</ele><time>2026-04-22T13:48:21.999Z</time></trkpt><trkpt lat="43.65806434110848" lon="7.1239097655931625"><ele>28.999999999999996</ele><time>2026-04-22T13:48:22.999Z</time></trkpt><trkpt lat="43.65802473989858" lon="7.123781762974542"><ele>29.0</ele><time>2026-04-22T13:48:24.999Z</time></trkpt><trkpt lat="43.657993938439034" lon="7.12366420638201"><ele>28.833333333333332</ele><time>2026-04-22T13:48:26.999Z</time></trkpt><trkpt lat="43.65795435491851" lon="7.123545371945772"><ele>28.666666666666664</ele><time>2026-04-22T13:48:28.999Z</time></trkpt><trkpt lat="43.65791855841197" lon="7.123419215732118"><ele>28.5</ele><time>2026-04-22T13:48:30.999Z</time></trkpt><trkpt lat="43.657877111107005" lon="7.123291308618283"><ele>28.333333333333336</ele><time>2026-04-22T13:48:32.999Z</time></trkpt><trkpt lat="43.657850603083645" lon="7.123209989159346"><ele>28.166666666666668</ele><time>2026-04-22T13:48:33.999Z</time></trkpt><trkpt lat="43.65782214808678" lon="7.123119519243314"><ele>28.0</ele><time>2026-04-22T13:48:34.999Z</time></trkpt><trkpt lat="43.657787971147926" lon="7.123014906453715"><ele>25.4</ele><time>2026-04-22T13:48:35.999Z</time></trkpt><trkpt lat="43.65776157237483" lon="7.1229221360236785"><ele>22.799999999999997</ele><time>2026-04-22T13:48:36.999Z</time></trkpt><trkpt lat="43.65771320795461" lon="7.122767627965223"><ele>20.2</ele><time>2026-04-22T13:48:38.999Z</time></trkpt><trkpt lat="43.65766998661354" lon="7.122642120309476"><ele>17.6</ele><time>2026-04-22T13:48:40.999Z</time></trkpt><trkpt lat="43.657632323049256" lon="7.122535538595178"><ele>15.0</ele><time>2026-04-22T13:48:42.999Z</time></trkpt><trkpt lat="43.657584105738785" lon="7.122397514804088"><ele>15.0</ele><time>2026-04-22T13:48:44.999Z</time></trkpt><trkpt lat="43.65754337348582" lon="7.122249803072371"><ele>15.0</ele><time>2026-04-22T13:48:46.999Z</time></trkpt><trkpt lat="43.6575181735037" lon="7.12214591871463"><ele>15.0</ele><time>2026-04-22T13:48:49.999Z</time></trkpt><trkpt lat="43.65748064766679" lon="7.122046377693769"><ele>15.0</ele><time>2026-04-22T13:48:54.999Z</time></trkpt><trkpt lat="43.65745741828941" lon="7.1219615446821"><ele>15.0</ele><time>2026-04-22T13:48:58.999Z</time></trkpt><trkpt lat="43.65742799998575" lon="7.121873337780753"><ele>15.0</ele><time>2026-04-22T13:49:00.999Z</time></trkpt><trkpt lat="43.65736869628335" lon="7.1217298980486605"><ele>15.0</ele><time>2026-04-22T13:49:02.999Z</time></trkpt><trkpt lat="43.65732275114733" lon="7.121597152065419"><ele>15.0</ele><time>2026-04-22T13:49:04.999Z</time></trkpt><trkpt lat="43.65729461474592" lon="7.1215161048854325"><ele>15.0</ele><time>2026-04-22T13:49:05.999Z</time></trkpt><trkpt lat="43.657265720711955" lon="7.121426868616483"><ele>15.0</ele><time>2026-04-22T13:49:06.999Z</time></trkpt><trkpt lat="43.65723533885259" lon="7.121333130340133"><ele>15.0</ele><time>2026-04-22T13:49:07.999Z</time></trkpt><trkpt lat="43.65720176414586" lon="7.121231507237342"><ele>15.0</ele><time>2026-04-22T13:49:08.999Z</time></trkpt><trkpt lat="43.65716712824266" lon="7.121121732106926"><ele>15.333333333333334</ele><time>2026-04-22T13:49:09.999Z</time></trkpt><trkpt lat="43.657132047058184" lon="7.121008464006052"><ele>15.666666666666668</ele><time>2026-04-22T13:49:10.999Z</time></trkpt><trkpt lat="43.65709490551948" lon="7.120893004641707"><ele>16.0</ele><time>2026-04-22T13:49:11.999Z</time></trkpt><trkpt lat="43.65705759033954" lon="7.1207815393564085"><ele>16.333333333333336</ele><time>2026-04-22T13:49:12.999Z</time></trkpt><trkpt lat="43.65702073764951" lon="7.120675457269846"><ele>16.666666666666668</ele><time>2026-04-22T13:49:13.999Z</time></trkpt><trkpt lat="43.65698802483917" lon="7.120575342416076"><ele>17.0</ele><time>2026-04-22T13:49:14.999Z</time></trkpt><trkpt lat="43.656958717257915" lon="7.120481917002946"><ele>16.8</ele><time>2026-04-22T13:49:15.999Z</time></trkpt><trkpt lat="43.65692218828398" lon="7.120352095649364"><ele>16.6</ele><time>2026-04-22T13:49:17.999Z</time></trkpt><trkpt lat="43.65690438116914" lon="7.120242466594463"><ele>16.400000000000002</ele><time>2026-04-22T13:49:24.999Z</time></trkpt><trkpt lat="43.65689365268503" lon="7.120125942759991"><ele>16.2</ele><time>2026-04-22T13:49:27.999Z</time></trkpt><trkpt lat="43.65688895078312" lon="7.119966372588565"><ele>16.0</ele><time>2026-04-22T13:49:29.999Z</time></trkpt><trkpt lat="43.656866336486054" lon="7.119870204573462"><ele>15.999999999999998</ele><time>2026-04-22T13:49:30.999Z</time></trkpt><trkpt lat="43.65693606294148" lon="7.119751792056057"><ele>16.0</ele><time>2026-04-22T13:49:32Z</time></trkpt><trkpt lat="43.6569449952449" lon="7.1196541815544645"><ele>16.0</ele><time>2026-04-22T13:49:33Z</time></trkpt><trkpt lat="43.656954438963865" lon="7.119563910559475"><ele>16.0</ele><time>2026-04-22T13:49:34Z</time></trkpt><trkpt lat="43.65696695602682" lon="7.119400809716215"><ele>15.999999999999998</ele><time>2026-04-22T13:49:36Z</time></trkpt><trkpt lat="43.656977558681604" lon="7.11930892044672"><ele>16.0</ele><time>2026-04-22T13:49:37Z</time></trkpt><trkpt lat="43.656988446382236" lon="7.119213907937898"><ele>16.166666666666664</ele><time>2026-04-22T13:49:38Z</time></trkpt><trkpt lat="43.65696440264861" lon="7.1191225867483166"><ele>16.333333333333332</ele><time>2026-04-22T13:49:39Z</time></trkpt><trkpt lat="43.65700807673341" lon="7.119008014763287"><ele>16.5</ele><time>2026-04-22T13:49:40Z</time></trkpt><trkpt lat="43.65701815431254" lon="7.118895682725633"><ele>16.666666666666668</ele><time>2026-04-22T13:49:41Z</time></trkpt><trkpt lat="43.657032531127136" lon="7.118779528792757"><ele>16.833333333333336</ele><time>2026-04-22T13:49:42Z</time></trkpt><trkpt lat="43.65704786115708" lon="7.118660646140694"><ele>17.0</ele><time>2026-04-22T13:49:43Z</time></trkpt><trkpt lat="43.65706067425808" lon="7.118541129857524"><ele>18.333333333333336</ele><time>2026-04-22T13:49:44Z</time></trkpt><trkpt lat="43.65707374270545" lon="7.118419639129111"><ele>19.666666666666668</ele><time>2026-04-22T13:49:45Z</time></trkpt><trkpt lat="43.65708519439198" lon="7.118300856336428"><ele>21.0</ele><time>2026-04-22T13:49:46Z</time></trkpt><trkpt lat="43.6570951795636" lon="7.118183258263886"><ele>22.333333333333336</ele><time>2026-04-22T13:49:47Z</time></trkpt><trkpt lat="43.65710796159688" lon="7.118065267730021"><ele>23.666666666666668</ele><time>2026-04-22T13:49:48Z</time></trkpt><trkpt lat="43.657119794286835" lon="7.117934489947985"><ele>25.0</ele><time>2026-04-22T13:49:49Z</time></trkpt><trkpt lat="43.6571291435792" lon="7.117792568274942"><ele>25.8</ele><time>2026-04-22T13:49:50Z</time></trkpt><trkpt lat="43.65713880520466" lon="7.117656125905771"><ele>26.6</ele><time>2026-04-22T13:49:51Z</time></trkpt><trkpt lat="43.65715275866634" lon="7.117519463090499"><ele>27.4</ele><time>2026-04-22T13:49:52Z</time></trkpt><trkpt lat="43.65717447254914" lon="7.1173753003672795"><ele>28.2</ele><time>2026-04-22T13:49:53Z</time></trkpt><trkpt lat="43.65720462858049" lon="7.117228027595242"><ele>29.0</ele><time>2026-04-22T13:49:54Z</time></trkpt><trkpt lat="43.657244559923186" lon="7.1170776733619245"><ele>27.0</ele><time>2026-04-22T13:49:55Z</time></trkpt><trkpt lat="43.65728918246894" lon="7.116922439765112"><ele>25.0</ele><time>2026-04-22T13:49:56Z</time></trkpt><trkpt lat="43.65734153389524" lon="7.1167692905050535"><ele>23.0</ele><time>2026-04-22T13:49:57Z</time></trkpt><trkpt lat="43.65740207876989" lon="7.116619067844533"><ele>21.0</ele><time>2026-04-22T13:49:58Z</time></trkpt><trkpt lat="43.65747180547501" lon="7.116476488831365"><ele>20.0</ele><time>2026-04-22T13:49:59Z</time></trkpt><trkpt lat="43.657547946880825" lon="7.116358094130678"><ele>19.0</ele><time>2026-04-22T13:50:00Z</time></trkpt><trkpt lat="43.65762720092838" lon="7.116245983899799"><ele>18.0</ele><time>2026-04-22T13:50:01Z</time></trkpt><trkpt lat="43.65769822904066" lon="7.11612669775095"><ele>17.0</ele><time>2026-04-22T13:50:02Z</time></trkpt><trkpt lat="43.65775529240182" lon="7.115998014076169"><ele>16.0</ele><time>2026-04-22T13:50:03Z</time></trkpt><trkpt lat="43.65780076528103" lon="7.115866210013478"><ele>20.0</ele><time>2026-04-22T13:50:04Z</time></trkpt><trkpt lat="43.65783448995569" lon="7.115720919638694"><ele>24.0</ele><time>2026-04-22T13:50:05Z</time></trkpt><trkpt lat="43.65785870778678" lon="7.115562443840788"><ele>28.0</ele><time>2026-04-22T13:50:06Z</time></trkpt><trkpt lat="43.65788614067124" lon="7.115401742184557"><ele>32.0</ele><time>2026-04-22T13:50:07Z</time></trkpt><trkpt lat="43.65788938062951" lon="7.115252264607709"><ele>32.0</ele><time>2026-04-22T13:50:08Z</time></trkpt><trkpt lat="43.657911636401764" lon="7.115122393436773"><ele>32.0</ele><time>2026-04-22T13:50:09Z</time></trkpt><trkpt lat="43.657927291294925" lon="7.114988180598243"><ele>32.0</ele><time>2026-04-22T13:50:10Z</time></trkpt><trkpt lat="43.65794262638375" lon="7.114845706100609"><ele>32.0</ele><time>2026-04-22T13:50:11Z</time></trkpt><trkpt lat="43.65796011527868" lon="7.1147006098985575"><ele>32.0</ele><time>2026-04-22T13:50:12Z</time></trkpt><trkpt lat="43.65797878743906" lon="7.114555070758314"><ele>31.8</ele><time>2026-04-22T13:50:13Z</time></trkpt><trkpt lat="43.65799292494639" lon="7.114412986700813"><ele>31.6</ele><time>2026-04-22T13:50:14Z</time></trkpt><trkpt lat="43.6580025364763" lon="7.114269109689065"><ele>31.400000000000002</ele><time>2026-04-22T13:50:14.999Z</time></trkpt><trkpt lat="43.65800428086819" lon="7.114119477297665"><ele>31.200000000000003</ele><time>2026-04-22T13:50:15.999Z</time></trkpt><trkpt lat="43.65800054189763" lon="7.113963141070383"><ele>31.0</ele><time>2026-04-22T13:50:16.999Z</time></trkpt><trkpt lat="43.657987988557494" lon="7.113801786659811"><ele>31.6</ele><time>2026-04-22T13:50:17.999Z</time></trkpt><trkpt lat="43.65796986159002" lon="7.11364111098099"><ele>32.2</ele><time>2026-04-22T13:50:18.999Z</time></trkpt><trkpt lat="43.65794009633072" lon="7.113492345765657"><ele>32.8</ele><time>2026-04-22T13:50:19.999Z</time></trkpt><trkpt lat="43.657896497467966" lon="7.113353549389336"><ele>33.4</ele><time>2026-04-22T13:50:20.999Z</time></trkpt><trkpt lat="43.65784567458019" lon="7.113219538508346"><ele>34.0</ele><time>2026-04-22T13:50:21.999Z</time></trkpt><trkpt lat="43.65778863578966" lon="7.113090440219279"><ele>31.2</ele><time>2026-04-22T13:50:22.999Z</time></trkpt><trkpt lat="43.657735134729265" lon="7.112960282906665"><ele>28.4</ele><time>2026-04-22T13:50:23.999Z</time></trkpt><trkpt lat="43.657689925658936" lon="7.11282522482789"><ele>25.6</ele><time>2026-04-22T13:50:24.999Z</time></trkpt><trkpt lat="43.65765500140876" lon="7.112682275210548"><ele>22.8</ele><time>2026-04-22T13:50:25.999Z</time></trkpt><trkpt lat="43.65762847124557" lon="7.1125384542464305"><ele>20.0</ele><time>2026-04-22T13:50:26.999Z</time></trkpt><trkpt lat="43.65761532954795" lon="7.112389573319921"><ele>20.0</ele><time>2026-04-22T13:50:27.999Z</time></trkpt><trkpt lat="43.65760966480985" lon="7.1122403655462385"><ele>20.0</ele><time>2026-04-22T13:50:28.999Z</time></trkpt><trkpt lat="43.657607687845854" lon="7.112092777188126"><ele>20.0</ele><time>2026-04-22T13:50:29.999Z</time></trkpt><trkpt lat="43.657609796170995" lon="7.111947521423096"><ele>20.0</ele><time>2026-04-22T13:50:30.999Z</time></trkpt><trkpt lat="43.657613343435" lon="7.111804242335592"><ele>20.0</ele><time>2026-04-22T13:50:31.999Z</time></trkpt><trkpt lat="43.65761814403609" lon="7.111663392754281"><ele>20.0</ele><time>2026-04-22T13:50:32.999Z</time></trkpt><trkpt lat="43.65762422780928" lon="7.111526665964585"><ele>20.0</ele><time>2026-04-22T13:50:33.999Z</time></trkpt><trkpt lat="43.657635794839784" lon="7.111387785121535"><ele>20.0</ele><time>2026-04-22T13:50:34.999Z</time></trkpt><trkpt lat="43.65765101585255" lon="7.111249393988788"><ele>20.0</ele><time>2026-04-22T13:50:35.999Z</time></trkpt><trkpt lat="43.65766957371869" lon="7.111106894434057"><ele>20.0</ele><time>2026-04-22T13:50:36.999Z</time></trkpt><trkpt lat="43.65768767763682" lon="7.110961946213134"><ele>20.0</ele><time>2026-04-22T13:50:37.999Z</time></trkpt><trkpt lat="43.657703078442744" lon="7.1108147850938"><ele>20.0</ele><time>2026-04-22T13:50:38.999Z</time></trkpt><trkpt lat="43.65771330297965" lon="7.1106647468462985"><ele>20.0</ele><time>2026-04-22T13:50:39.999Z</time></trkpt><trkpt lat="43.657725567435115" lon="7.11051211631699"><ele>20.0</ele><time>2026-04-22T13:50:40.999Z</time></trkpt><trkpt lat="43.65773898389974" lon="7.1103581446687025"><ele>20.0</ele><time>2026-04-22T13:50:41.999Z</time></trkpt><trkpt lat="43.65773182914127" lon="7.11019262285235"><ele>20.25</ele><time>2026-04-22T13:50:42.999Z</time></trkpt><trkpt lat="43.65773175100853" lon="7.110035184696882"><ele>20.5</ele><time>2026-04-22T13:50:43.999Z</time></trkpt><trkpt lat="43.6577348499801" lon="7.109882198589783"><ele>20.75</ele><time>2026-04-22T13:50:44.999Z</time></trkpt><trkpt lat="43.657735110747815" lon="7.109729684053884"><ele>21.0</ele><time>2026-04-22T13:50:45.999Z</time></trkpt><trkpt lat="43.65773440906606" lon="7.109571102631449"><ele>21.25</ele><time>2026-04-22T13:50:46.999Z</time></trkpt><trkpt lat="43.65773209365552" lon="7.109413161188754"><ele>21.5</ele><time>2026-04-22T13:50:47.999Z</time></trkpt><trkpt lat="43.657719815901146" lon="7.109258673146545"><ele>21.75</ele><time>2026-04-22T13:50:48.999Z</time></trkpt><trkpt lat="43.65769844802003" lon="7.1090984345427595"><ele>22.0</ele><time>2026-04-22T13:50:49.999Z</time></trkpt><trkpt lat="43.65766602356021" lon="7.108933373300776"><ele>23.75</ele><time>2026-04-22T13:50:50.999Z</time></trkpt><trkpt lat="43.657620858939886" lon="7.108787771942813"><ele>25.5</ele><time>2026-04-22T13:50:51.999Z</time></trkpt><trkpt lat="43.657569525161605" lon="7.108647084343644"><ele>27.25</ele><time>2026-04-22T13:50:52.999Z</time></trkpt><trkpt lat="43.657515888882386" lon="7.108504679950036"><ele>29.0</ele><time>2026-04-22T13:50:53.999Z</time></trkpt><trkpt lat="43.65746029365943" lon="7.108376148800737"><ele>29.0</ele><time>2026-04-22T13:50:54.999Z</time></trkpt><trkpt lat="43.657395729542884" lon="7.108249996230125"><ele>29.0</ele><time>2026-04-22T13:50:55.999Z</time></trkpt><trkpt lat="43.65732361006807" lon="7.108115368815995"><ele>29.0</ele><time>2026-04-22T13:50:56.999Z</time></trkpt><trkpt lat="43.657243157386894" lon="7.107971194846688"><ele>29.0</ele><time>2026-04-22T13:50:57.999Z</time></trkpt><trkpt lat="43.65716966706056" lon="7.107849634148334"><ele>28.6</ele><time>2026-04-22T13:50:58.999Z</time></trkpt><trkpt lat="43.65709754426952" lon="7.107739769281638"><ele>28.2</ele><time>2026-04-22T13:50:59.999Z</time></trkpt><trkpt lat="43.65703063442335" lon="7.107639533294778"><ele>27.800000000000004</ele><time>2026-04-22T13:51:00.999Z</time></trkpt><trkpt lat="43.656967668122135" lon="7.107546344218677"><ele>27.400000000000002</ele><time>2026-04-22T13:51:01.999Z</time></trkpt><trkpt lat="43.65690413413389" lon="7.107450032274218"><ele>27.0</ele><time>2026-04-22T13:51:02.999Z</time></trkpt><trkpt lat="43.65683948732533" lon="7.107343833909108"><ele>27.0</ele><time>2026-04-22T13:51:03.999Z</time></trkpt><trkpt lat="43.656779074019695" lon="7.107227563120323"><ele>27.000000000000004</ele><time>2026-04-22T13:51:04.999Z</time></trkpt><trkpt lat="43.65673425330431" lon="7.107090276426303"><ele>27.000000000000004</ele><time>2026-04-22T13:51:05.999Z</time></trkpt><trkpt lat="43.65670139231926" lon="7.106952653574371"><ele>27.0</ele><time>2026-04-22T13:51:06.999Z</time></trkpt><trkpt lat="43.65669066024555" lon="7.106801863755825"><ele>27.0</ele><time>2026-04-22T13:51:07.999Z</time></trkpt><trkpt lat="43.656693074263295" lon="7.1066488172446824"><ele>25.5</ele><time>2026-04-22T13:51:08.999Z</time></trkpt><trkpt lat="43.65671592157041" lon="7.106491204521493"><ele>24.0</ele><time>2026-04-22T13:51:09.999Z</time></trkpt><trkpt lat="43.65675714758337" lon="7.106341971980962"><ele>22.5</ele><time>2026-04-22T13:51:10.999Z</time></trkpt><trkpt lat="43.656822245677304" lon="7.106209968189294"><ele>21.0</ele><time>2026-04-22T13:51:11.999Z</time></trkpt><trkpt lat="43.65689910394742" lon="7.1060968787195"><ele>21.4</ele><time>2026-04-22T13:51:12.999Z</time></trkpt><trkpt lat="43.65698111794413" lon="7.106009396512988"><ele>21.8</ele><time>2026-04-22T13:51:13.999Z</time></trkpt><trkpt lat="43.65707052345998" lon="7.105927394436157"><ele>22.2</ele><time>2026-04-22T13:51:14.999Z</time></trkpt><trkpt lat="43.65715829283979" lon="7.105856739890439"><ele>22.599999999999998</ele><time>2026-04-22T13:51:15.999Z</time></trkpt><trkpt lat="43.65724092770494" lon="7.105790494638849"><ele>23.0</ele><time>2026-04-22T13:51:16.999Z</time></trkpt><trkpt lat="43.65732452944842" lon="7.105726452369857"><ele>23.0</ele><time>2026-04-22T13:51:17.999Z</time></trkpt><trkpt lat="43.65741062609972" lon="7.105664774428338"><ele>23.0</ele><time>2026-04-22T13:51:18.999Z</time></trkpt><trkpt lat="43.65749713497725" lon="7.105604304856591"><ele>23.0</ele><time>2026-04-22T13:51:19.999Z</time></trkpt><trkpt lat="43.65758596788928" lon="7.105542252172108"><ele>23.0</ele><time>2026-04-22T13:51:20.999Z</time></trkpt><trkpt lat="43.65767416680026" lon="7.105478151085925"><ele>23.0</ele><time>2026-04-22T13:51:21.999Z</time></trkpt><trkpt lat="43.657761728492446" lon="7.105415472653239"><ele>24.4</ele><time>2026-04-22T13:51:22.999Z</time></trkpt><trkpt lat="43.65784953508725" lon="7.105353289390821"><ele>25.799999999999997</ele><time>2026-04-22T13:51:23.999Z</time></trkpt><trkpt lat="43.65793762111144" lon="7.105294788019115"><ele>27.2</ele><time>2026-04-22T13:51:24.999Z</time></trkpt><trkpt lat="43.65802454335822" lon="7.105233843118591"><ele>28.6</ele><time>2026-04-22T13:51:25.999Z</time></trkpt><trkpt lat="43.65811196283891" lon="7.105169877460048"><ele>30.0</ele><time>2026-04-22T13:51:26.999Z</time></trkpt><trkpt lat="43.65820396189997" lon="7.1051050752948495"><ele>30.0</ele><time>2026-04-22T13:51:27.999Z</time></trkpt><trkpt lat="43.65829717874773" lon="7.105037784766101"><ele>30.0</ele><time>2026-04-22T13:51:28.999Z</time></trkpt><trkpt lat="43.65839472521288" lon="7.104973847957377"><ele>30.0</ele><time>2026-04-22T13:51:29.999Z</time></trkpt><trkpt lat="43.65849420535145" lon="7.104906580097021"><ele>30.0</ele><time>2026-04-22T13:51:30.999Z</time></trkpt><trkpt lat="43.65859804286132" lon="7.104840040762732"><ele>30.0</ele><time>2026-04-22T13:51:31.999Z</time></trkpt><trkpt lat="43.65870089142664" lon="7.104773870939544"><ele>29.0</ele><time>2026-04-22T13:51:32.999Z</time></trkpt><trkpt lat="43.658804532282495" lon="7.104701435349082"><ele>28.0</ele><time>2026-04-22T13:51:33.999Z</time></trkpt><trkpt lat="43.658908986849184" lon="7.104628247654145"><ele>27.0</ele><time>2026-04-22T13:51:34.999Z</time></trkpt><trkpt lat="43.659013093275554" lon="7.104553713007867"><ele>26.0</ele><time>2026-04-22T13:51:35.999Z</time></trkpt><trkpt lat="43.6591161202465" lon="7.104476282356234"><ele>26.0</ele><time>2026-04-22T13:51:36.999Z</time></trkpt><trkpt lat="43.65921680202287" lon="7.10439007919756"><ele>26.0</ele><time>2026-04-22T13:51:38Z</time></trkpt><trkpt lat="43.6593123052408" lon="7.104295330736547"><ele>26.0</ele><time>2026-04-22T13:51:39Z</time></trkpt><trkpt lat="43.659404891331484" lon="7.104184601430857"><ele>26.0</ele><time>2026-04-22T13:51:40Z</time></trkpt><trkpt lat="43.6594984858874" lon="7.104082696248362"><ele>26.6</ele><time>2026-04-22T13:51:41Z</time></trkpt><trkpt lat="43.65958073267127" lon="7.1039702855725855"><ele>27.200000000000003</ele><time>2026-04-22T13:51:42Z</time></trkpt><trkpt lat="43.659647731341664" lon="7.103860114289285"><ele>27.799999999999997</ele><time>2026-04-22T13:51:43Z</time></trkpt><trkpt lat="43.65970367433813" lon="7.1037589464871695"><ele>28.4</ele><time>2026-04-22T13:51:44Z</time></trkpt><trkpt lat="43.65976384282866" lon="7.1036657216718195"><ele>29.0</ele><time>2026-04-22T13:51:45Z</time></trkpt><trkpt lat="43.65981540556206" lon="7.103571037159943"><ele>28.999999999999996</ele><time>2026-04-22T13:51:46Z</time></trkpt><trkpt lat="43.659863589369785" lon="7.10347767025632"><ele>29.0</ele><time>2026-04-22T13:51:47Z</time></trkpt><trkpt lat="43.6599123372415" lon="7.103381028891539"><ele>29.0</ele><time>2026-04-22T13:51:48Z</time></trkpt><trkpt lat="43.65996036844703" lon="7.103286262792803"><ele>29.0</ele><time>2026-04-22T13:51:49Z</time></trkpt><trkpt lat="43.660008252000544" lon="7.103184509612446"><ele>28.999999999999996</ele><time>2026-04-22T13:51:50Z</time></trkpt><trkpt lat="43.66005641376124" lon="7.103084337185843"><ele>29.0</ele><time>2026-04-22T13:51:51Z</time></trkpt><trkpt lat="43.66011097589253" lon="7.102970514293127"><ele>27.75</ele><time>2026-04-22T13:51:52Z</time></trkpt><trkpt lat="43.660164043526855" lon="7.102847698445631"><ele>26.5</ele><time>2026-04-22T13:51:53Z</time></trkpt><trkpt lat="43.66021981285419" lon="7.102717736395567"><ele>25.25</ele><time>2026-04-22T13:51:54Z</time></trkpt><trkpt lat="43.66028394764285" lon="7.102583065432625"><ele>24.0</ele><time>2026-04-22T13:51:55Z</time></trkpt><trkpt lat="43.66034909385313" lon="7.10243885347202"><ele>26.25</ele><time>2026-04-22T13:51:56Z</time></trkpt><trkpt lat="43.660416856728304" lon="7.102294219450825"><ele>28.5</ele><time>2026-04-22T13:51:57Z</time></trkpt><trkpt lat="43.66048115748535" lon="7.102156992717226"><ele>30.75</ele><time>2026-04-22T13:51:58Z</time></trkpt><trkpt lat="43.66053362723405" lon="7.102010518171747"><ele>33.0</ele><time>2026-04-22T13:51:59Z</time></trkpt><trkpt lat="43.66058034239549" lon="7.101856915196317"><ele>33.0</ele><time>2026-04-22T13:52:00Z</time></trkpt><trkpt lat="43.66061872669656" lon="7.101697833366469"><ele>33.0</ele><time>2026-04-22T13:52:01Z</time></trkpt><trkpt lat="43.66065107394909" lon="7.101540955429086"><ele>33.0</ele><time>2026-04-22T13:52:02Z</time></trkpt><trkpt lat="43.66067340994212" lon="7.10138813834129"><ele>33.0</ele><time>2026-04-22T13:52:03Z</time></trkpt><trkpt lat="43.66069201458659" lon="7.101231931243656"><ele>32.6</ele><time>2026-04-22T13:52:04Z</time></trkpt><trkpt lat="43.66069917969852" lon="7.101079069645538"><ele>32.199999999999996</ele><time>2026-04-22T13:52:05Z</time></trkpt><trkpt lat="43.66069816975429" lon="7.100943423227497"><ele>31.8</ele><time>2026-04-22T13:52:06Z</time></trkpt><trkpt lat="43.660687761220565" lon="7.100803717872551"><ele>31.4</ele><time>2026-04-22T13:52:07Z</time></trkpt><trkpt lat="43.66067166233166" lon="7.100668939833276"><ele>31.0</ele><time>2026-04-22T13:52:08Z</time></trkpt><trkpt lat="43.66064854808759" lon="7.100539786746666"><ele>30.6</ele><time>2026-04-22T13:52:09Z</time></trkpt><trkpt lat="43.660619368057304" lon="7.1004181896776934"><ele>30.200000000000003</ele><time>2026-04-22T13:52:10Z</time></trkpt><trkpt lat="43.660589242103164" lon="7.100290601796029"><ele>29.799999999999997</ele><time>2026-04-22T13:52:11Z</time></trkpt><trkpt lat="43.660558692010575" lon="7.1001668620574865"><ele>29.4</ele><time>2026-04-22T13:52:12Z</time></trkpt><trkpt lat="43.66052878716089" lon="7.100045950074602"><ele>29.0</ele><time>2026-04-22T13:52:13Z</time></trkpt><trkpt lat="43.66050068885328" lon="7.099926122467051"><ele>29.2</ele><time>2026-04-22T13:52:14Z</time></trkpt><trkpt lat="43.66046935169488" lon="7.099806977635485"><ele>29.4</ele><time>2026-04-22T13:52:15Z</time></trkpt><trkpt lat="43.66043806199494" lon="7.0996904104712915"><ele>29.6</ele><time>2026-04-22T13:52:16Z</time></trkpt><trkpt lat="43.66040725979467" lon="7.099570519721739"><ele>29.8</ele><time>2026-04-22T13:52:17Z</time></trkpt><trkpt lat="43.66037602921591" lon="7.099449479988779"><ele>30.0</ele><time>2026-04-22T13:52:18Z</time></trkpt><trkpt lat="43.66034183815093" lon="7.099314856347736"><ele>30.0</ele><time>2026-04-22T13:52:19Z</time></trkpt><trkpt lat="43.6603076738563" lon="7.099174410597054"><ele>30.0</ele><time>2026-04-22T13:52:20Z</time></trkpt><trkpt lat="43.66027110446062" lon="7.099023355797177"><ele>30.0</ele><time>2026-04-22T13:52:20.999Z</time></trkpt><trkpt lat="43.66022910001475" lon="7.098865687276948"><ele>30.0</ele><time>2026-04-22T13:52:21.999Z</time></trkpt><trkpt lat="43.66019162706813" lon="7.098717286837205"><ele>30.0</ele><time>2026-04-22T13:52:22.999Z</time></trkpt><trkpt lat="43.66015646625346" lon="7.098572990059099"><ele>30.0</ele><time>2026-04-22T13:52:23.999Z</time></trkpt><trkpt lat="43.66011989083027" lon="7.098436412352635"><ele>30.0</ele><time>2026-04-22T13:52:24.999Z</time></trkpt><trkpt lat="43.66008441431064" lon="7.098301095286274"><ele>30.0</ele><time>2026-04-22T13:52:25.999Z</time></trkpt><trkpt lat="43.66004758061642" lon="7.098160569404361"><ele>30.0</ele><time>2026-04-22T13:52:26.999Z</time></trkpt><trkpt lat="43.66000947738455" lon="7.09801554674938"><ele>30.0</ele><time>2026-04-22T13:52:27.999Z</time></trkpt><trkpt lat="43.65997187245718" lon="7.097865105110546"><ele>30.0</ele><time>2026-04-22T13:52:28.999Z</time></trkpt><trkpt lat="43.65993450324503" lon="7.097719398083116"><ele>30.0</ele><time>2026-04-22T13:52:29.999Z</time></trkpt><trkpt lat="43.65989947177175" lon="7.097575004107028"><ele>30.0</ele><time>2026-04-22T13:52:30.999Z</time></trkpt><trkpt lat="43.65986016913092" lon="7.097431931495837"><ele>30.0</ele><time>2026-04-22T13:52:31.999Z</time></trkpt><trkpt lat="43.6598230578558" lon="7.0972871292321775"><ele>31.75</ele><time>2026-04-22T13:52:32.999Z</time></trkpt><trkpt lat="43.659783620648064" lon="7.097139331384496"><ele>33.5</ele><time>2026-04-22T13:52:33.999Z</time></trkpt><trkpt lat="43.65974496889167" lon="7.096990026162815"><ele>35.25</ele><time>2026-04-22T13:52:34.999Z</time></trkpt><trkpt lat="43.65970913623628" lon="7.096834236303471"><ele>37.0</ele><time>2026-04-22T13:52:35.999Z</time></trkpt><trkpt lat="43.65967087267363" lon="7.096677328502268"><ele>37.0</ele><time>2026-04-22T13:52:36.999Z</time></trkpt><trkpt lat="43.65963357292658" lon="7.096519516028592"><ele>37.0</ele><time>2026-04-22T13:52:37.999Z</time></trkpt><trkpt lat="43.65959442103199" lon="7.09635659630303"><ele>37.0</ele><time>2026-04-22T13:52:38.999Z</time></trkpt><trkpt lat="43.65955334463648" lon="7.096191878208374"><ele>37.0</ele><time>2026-04-22T13:52:39.999Z</time></trkpt><trkpt lat="43.65950853452427" lon="7.096018145224866"><ele>37.0</ele><time>2026-04-22T13:52:40.999Z</time></trkpt><trkpt lat="43.6594601814218" lon="7.095840888063749"><ele>37.0</ele><time>2026-04-22T13:52:41.999Z</time></trkpt><trkpt lat="43.659410129300234" lon="7.09565928197878"><ele>37.0</ele><time>2026-04-22T13:52:42.999Z</time></trkpt><trkpt lat="43.65935599546445" lon="7.095470517999938"><ele>37.0</ele><time>2026-04-22T13:52:43.999Z</time></trkpt><trkpt lat="43.659307934157184" lon="7.095279936619138"><ele>35.75</ele><time>2026-04-22T13:52:44.999Z</time></trkpt><trkpt lat="43.659261672999776" lon="7.095100319011016"><ele>34.5</ele><time>2026-04-22T13:52:45.999Z</time></trkpt><trkpt lat="43.65921775566502" lon="7.094925761172143"><ele>33.25</ele><time>2026-04-22T13:52:46.999Z</time></trkpt><trkpt lat="43.659168661200916" lon="7.094737905025574"><ele>32.0</ele><time>2026-04-22T13:52:47.999Z</time></trkpt><trkpt lat="43.65911874633993" lon="7.094543474604094"><ele>32.0</ele><time>2026-04-22T13:52:48.999Z</time></trkpt><trkpt lat="43.659071706661756" lon="7.094362357970062"><ele>32.0</ele><time>2026-04-22T13:52:49.999Z</time></trkpt><trkpt lat="43.65902968432146" lon="7.0941973737721895"><ele>32.0</ele><time>2026-04-22T13:52:50.999Z</time></trkpt><trkpt lat="43.65898930901879" lon="7.094039912600777"><ele>32.0</ele><time>2026-04-22T13:52:51.999Z</time></trkpt><trkpt lat="43.658949714230005" lon="7.093881022993377"><ele>33.25</ele><time>2026-04-22T13:52:52.999Z</time></trkpt><trkpt lat="43.65890781577927" lon="7.093715583253779"><ele>34.5</ele><time>2026-04-22T13:52:53.999Z</time></trkpt><trkpt lat="43.658867082423534" lon="7.093546196971463"><ele>35.75</ele><time>2026-04-22T13:52:54.999Z</time></trkpt><trkpt lat="43.65882496865133" lon="7.093374225229645"><ele>37.0</ele><time>2026-04-22T13:52:55.999Z</time></trkpt><trkpt lat="43.65878257463055" lon="7.093201544860757"><ele>36.75</ele><time>2026-04-22T13:52:56.999Z</time></trkpt><trkpt lat="43.658738402523454" lon="7.0930240067546"><ele>36.5</ele><time>2026-04-22T13:52:57.999Z</time></trkpt><trkpt lat="43.65869453795223" lon="7.092846927259238"><ele>36.25</ele><time>2026-04-22T13:52:58.999Z</time></trkpt><trkpt lat="43.65864899135815" lon="7.0926682543852815"><ele>36.0</ele><time>2026-04-22T13:52:59.999Z</time></trkpt><trkpt lat="43.65860275849579" lon="7.092490070908856"><ele>36.0</ele><time>2026-04-22T13:53:00.999Z</time></trkpt><trkpt lat="43.65855520885721" lon="7.092312374895479"><ele>36.0</ele><time>2026-04-22T13:53:01.999Z</time></trkpt><trkpt lat="43.6585059551136" lon="7.092133426595632"><ele>36.0</ele><time>2026-04-22T13:53:02.999Z</time></trkpt><trkpt lat="43.65845530614364" lon="7.0919500094760055"><ele>36.0</ele><time>2026-04-22T13:53:03.999Z</time></trkpt><trkpt lat="43.65840348753912" lon="7.0917654692483865"><ele>37.0</ele><time>2026-04-22T13:53:04.999Z</time></trkpt><trkpt lat="43.65834965184161" lon="7.091580454427314"><ele>38.0</ele><time>2026-04-22T13:53:05.999Z</time></trkpt><trkpt lat="43.65829424685039" lon="7.091398045694006"><ele>39.0</ele><time>2026-04-22T13:53:06.999Z</time></trkpt><trkpt lat="43.6582333434657" lon="7.091223688407967"><ele>40.0</ele><time>2026-04-22T13:53:07.999Z</time></trkpt><trkpt lat="43.65816469005197" lon="7.091060705594185"><ele>40.0</ele><time>2026-04-22T13:53:08.999Z</time></trkpt><trkpt lat="43.65809182327416" lon="7.090910440431524"><ele>40.0</ele><time>2026-04-22T13:53:09.999Z</time></trkpt><trkpt lat="43.65801131832534" lon="7.090774690922593"><ele>40.0</ele><time>2026-04-22T13:53:10.999Z</time></trkpt><trkpt lat="43.657920751254416" lon="7.090659406202436"><ele>40.0</ele><time>2026-04-22T13:53:11.999Z</time></trkpt><trkpt lat="43.657821480990954" lon="7.09057190610033"><ele>41.75</ele><time>2026-04-22T13:53:12.999Z</time></trkpt><trkpt lat="43.657722138448456" lon="7.090488939148348"><ele>43.5</ele><time>2026-04-22T13:53:13.999Z</time></trkpt><trkpt lat="43.65761676552488" lon="7.090409543126493"><ele>45.25</ele><time>2026-04-22T13:53:14.999Z</time></trkpt><trkpt lat="43.65750630844433" lon="7.090343916904898"><ele>47.0</ele><time>2026-04-22T13:53:15.999Z</time></trkpt><trkpt lat="43.657390329539915" lon="7.0902780151771765"><ele>47.0</ele><time>2026-04-22T13:53:16.999Z</time></trkpt><trkpt lat="43.65727334467978" lon="7.090221993181335"><ele>47.0</ele><time>2026-04-22T13:53:17.999Z</time></trkpt><trkpt lat="43.65716956230257" lon="7.0901688881322205"><ele>47.0</ele><time>2026-04-22T13:53:18.999Z</time></trkpt><trkpt lat="43.65706140516585" lon="7.090114242846512"><ele>47.0</ele><time>2026-04-22T13:53:19.999Z</time></trkpt><trkpt lat="43.656953688550644" lon="7.090054321695106"><ele>46.5</ele><time>2026-04-22T13:53:20.999Z</time></trkpt><trkpt lat="43.656847698386976" lon="7.089983971741294"><ele>46.0</ele><time>2026-04-22T13:53:21.999Z</time></trkpt><trkpt lat="43.656746366533596" lon="7.089901827689078"><ele>45.5</ele><time>2026-04-22T13:53:22.999Z</time></trkpt><trkpt lat="43.65664748744931" lon="7.089810481242472"><ele>45.0</ele><time>2026-04-22T13:53:23.999Z</time></trkpt><trkpt lat="43.656556171468985" lon="7.089704730412295"><ele>47.4</ele><time>2026-04-22T13:53:24.999Z</time></trkpt><trkpt lat="43.6564771761498" lon="7.089590160281773"><ele>49.8</ele><time>2026-04-22T13:53:25.999Z</time></trkpt><trkpt lat="43.6564145285592" lon="7.089463977859293"><ele>52.2</ele><time>2026-04-22T13:53:26.999Z</time></trkpt><trkpt lat="43.65635836711535" lon="7.089344007589712"><ele>54.6</ele><time>2026-04-22T13:53:27.999Z</time></trkpt><trkpt lat="43.65631177980055" lon="7.089219521024333"><ele>57.0</ele><time>2026-04-22T13:53:28.999Z</time></trkpt><trkpt lat="43.65627726254581" lon="7.089090106502631"><ele>58.2</ele><time>2026-04-22T13:53:29.999Z</time></trkpt><trkpt lat="43.656257134391" lon="7.088956767965551"><ele>59.400000000000006</ele><time>2026-04-22T13:53:30.999Z</time></trkpt><trkpt lat="43.65624714060583" lon="7.08881800408283"><ele>60.599999999999994</ele><time>2026-04-22T13:53:31.999Z</time></trkpt><trkpt lat="43.656242083749675" lon="7.088679339717423"><ele>61.8</ele><time>2026-04-22T13:53:32.999Z</time></trkpt><trkpt lat="43.65624223973427" lon="7.088539763816516"><ele>63.0</ele><time>2026-04-22T13:53:33.999Z</time></trkpt><trkpt lat="43.656249767432605" lon="7.088395842600838"><ele>62.75</ele><time>2026-04-22T13:53:34.999Z</time></trkpt><trkpt lat="43.656270410548196" lon="7.088247378777694"><ele>62.5</ele><time>2026-04-22T13:53:35.999Z</time></trkpt><trkpt lat="43.65630318084561" lon="7.088093473469012"><ele>62.25</ele><time>2026-04-22T13:53:36.999Z</time></trkpt><trkpt lat="43.65634756653669" lon="7.087932514250719"><ele>62.0</ele><time>2026-04-22T13:53:37.999Z</time></trkpt><trkpt lat="43.65639200817223" lon="7.087763692625948"><ele>62.0</ele><time>2026-04-22T13:53:38.999Z</time></trkpt><trkpt lat="43.65645136392542" lon="7.087576494235286"><ele>62.0</ele><time>2026-04-22T13:53:39.999Z</time></trkpt><trkpt lat="43.656518629598544" lon="7.0873728058573535"><ele>62.0</ele><time>2026-04-22T13:53:40.999Z</time></trkpt><trkpt lat="43.65659614100224" lon="7.087170166627883"><ele>61.0</ele><time>2026-04-22T13:53:41.999Z</time></trkpt><trkpt lat="43.65667095409119" lon="7.086983451590683"><ele>60.0</ele><time>2026-04-22T13:53:42.999Z</time></trkpt><trkpt lat="43.65674140393565" lon="7.086795429428126"><ele>59.0</ele><time>2026-04-22T13:53:44Z</time></trkpt><trkpt lat="43.65681435794431" lon="7.086614705527631"><ele>60.25</ele><time>2026-04-22T13:53:45Z</time></trkpt><trkpt lat="43.65688268279537" lon="7.086432809416984"><ele>61.5</ele><time>2026-04-22T13:53:46Z</time></trkpt><trkpt lat="43.65694864628253" lon="7.086253111746501"><ele>62.75</ele><time>2026-04-22T13:53:47Z</time></trkpt><trkpt lat="43.6569905308389" lon="7.08605068777749"><ele>64.0</ele><time>2026-04-22T13:53:48Z</time></trkpt><trkpt lat="43.65707892986639" lon="7.0858951970227375"><ele>67.5</ele><time>2026-04-22T13:53:49Z</time></trkpt><trkpt lat="43.657144977643526" lon="7.085719081655954"><ele>71.0</ele><time>2026-04-22T13:53:50Z</time></trkpt><trkpt lat="43.65721138708861" lon="7.085546734891884"><ele>74.5</ele><time>2026-04-22T13:53:51Z</time></trkpt><trkpt lat="43.65727620927683" lon="7.085382744738016"><ele>78.0</ele><time>2026-04-22T13:53:52Z</time></trkpt><trkpt lat="43.65733093455924" lon="7.08523690072515"><ele>78.0</ele><time>2026-04-22T13:53:53Z</time></trkpt><trkpt lat="43.65737049351279" lon="7.085092399136758"><ele>78.0</ele><time>2026-04-22T13:53:54Z</time></trkpt><trkpt lat="43.657375970059455" lon="7.08495750139032"><ele>78.0</ele><time>2026-04-22T13:53:55Z</time></trkpt><trkpt lat="43.65737217049929" lon="7.084804643670667"><ele>78.0</ele><time>2026-04-22T13:53:56Z</time></trkpt><trkpt lat="43.65734307562078" lon="7.084665697246711"><ele>78.0</ele><time>2026-04-22T13:53:57Z</time></trkpt><trkpt lat="43.657293655608726" lon="7.084537431875131"><ele>78.75</ele><time>2026-04-22T13:53:58Z</time></trkpt><trkpt lat="43.65722213336556" lon="7.0844233089872155"><ele>79.5</ele><time>2026-04-22T13:53:59Z</time></trkpt><trkpt lat="43.65713098213089" lon="7.0843361332834665"><ele>80.25</ele><time>2026-04-22T13:54:00Z</time></trkpt><trkpt lat="43.65702380489287" lon="7.084272226691511"><ele>81.0</ele><time>2026-04-22T13:54:01Z</time></trkpt><trkpt lat="43.65690375298242" lon="7.084225479206963"><ele>81.0</ele><time>2026-04-22T13:54:02Z</time></trkpt><trkpt lat="43.65677290405737" lon="7.084183617221185"><ele>81.0</ele><time>2026-04-22T13:54:03Z</time></trkpt><trkpt lat="43.6566521802068" lon="7.084132459825765"><ele>81.0</ele><time>2026-04-22T13:54:04Z</time></trkpt><trkpt lat="43.65651140414799" lon="7.084083538738552"><ele>81.0</ele><time>2026-04-22T13:54:05Z</time></trkpt><trkpt lat="43.65636410308296" lon="7.084028509659748"><ele>84.0</ele><time>2026-04-22T13:54:06Z</time></trkpt><trkpt lat="43.65622480534251" lon="7.083969389337966"><ele>87.0</ele><time>2026-04-22T13:54:07Z</time></trkpt><trkpt lat="43.65609268226139" lon="7.083906626222513"><ele>90.0</ele><time>2026-04-22T13:54:08Z</time></trkpt><trkpt lat="43.65595784793099" lon="7.083836758030592"><ele>93.0</ele><time>2026-04-22T13:54:09Z</time></trkpt><trkpt lat="43.65582503868614" lon="7.083768415788643"><ele>93.0</ele><time>2026-04-22T13:54:10Z</time></trkpt><trkpt lat="43.65569763731551" lon="7.08369394541992"><ele>93.0</ele><time>2026-04-22T13:54:11Z</time></trkpt><trkpt lat="43.655581153233484" lon="7.083605995754646"><ele>93.0</ele><time>2026-04-22T13:54:12Z</time></trkpt><trkpt lat="43.65546451456366" lon="7.0835004006016025"><ele>93.0</ele><time>2026-04-22T13:54:13Z</time></trkpt><trkpt lat="43.65535993905603" lon="7.0833780393748205"><ele>92.25</ele><time>2026-04-22T13:54:14Z</time></trkpt><trkpt lat="43.65526063238696" lon="7.083230538994069"><ele>91.5</ele><time>2026-04-22T13:54:15Z</time></trkpt><trkpt lat="43.655158624254035" lon="7.083079667851528"><ele>90.75</ele><time>2026-04-22T13:54:16Z</time></trkpt><trkpt lat="43.65504754189528" lon="7.082938294938713"><ele>90.0</ele><time>2026-04-22T13:54:17Z</time></trkpt><trkpt lat="43.65492617160633" lon="7.082814139301622"><ele>90.0</ele><time>2026-04-22T13:54:18Z</time></trkpt><trkpt lat="43.6547927987689" lon="7.082727100371678"><ele>90.0</ele><time>2026-04-22T13:54:19Z</time></trkpt><trkpt lat="43.654650836874275" lon="7.082662916872826"><ele>90.0</ele><time>2026-04-22T13:54:20Z</time></trkpt><trkpt lat="43.65449900071153" lon="7.082619530811518"><ele>90.0</ele><time>2026-04-22T13:54:21Z</time></trkpt><trkpt lat="43.65434194777321" lon="7.08258206420904"><ele>90.0</ele><time>2026-04-22T13:54:22Z</time></trkpt><trkpt lat="43.6541815407331" lon="7.082529139422393"><ele>90.0</ele><time>2026-04-22T13:54:23Z</time></trkpt><trkpt lat="43.65402793201578" lon="7.082457364932879"><ele>93.0</ele><time>2026-04-22T13:54:24Z</time></trkpt><trkpt lat="43.65389338251381" lon="7.082370183769343"><ele>96.0</ele><time>2026-04-22T13:54:25Z</time></trkpt><trkpt lat="43.653759631250125" lon="7.082264816945728"><ele>99.0</ele><time>2026-04-22T13:54:25.999Z</time></trkpt><trkpt lat="43.65362986142353" lon="7.082131885447051"><ele>98.33333333333334</ele><time>2026-04-22T13:54:26.999Z</time></trkpt><trkpt lat="43.65349772205954" lon="7.081984503303499"><ele>97.66666666666667</ele><time>2026-04-22T13:54:27.999Z</time></trkpt><trkpt lat="43.653368837083136" lon="7.081838589639169"><ele>97.0</ele><time>2026-04-22T13:54:28.999Z</time></trkpt><trkpt lat="43.6532454676264" lon="7.081695838426084"><ele>98.75</ele><time>2026-04-22T13:54:29.999Z</time></trkpt><trkpt lat="43.65313721682066" lon="7.081570452352017"><ele>100.5</ele><time>2026-04-22T13:54:30.999Z</time></trkpt><trkpt lat="43.65302878840063" lon="7.081433434413433"><ele>102.25</ele><time>2026-04-22T13:54:31.999Z</time></trkpt><trkpt lat="43.652916405952894" lon="7.081291284077856"><ele>104.0</ele><time>2026-04-22T13:54:32.999Z</time></trkpt><trkpt lat="43.65281567424497" lon="7.081140193905944"><ele>103.66666666666666</ele><time>2026-04-22T13:54:33.999Z</time></trkpt><trkpt lat="43.65272250555184" lon="7.080975132690893"><ele>103.33333333333334</ele><time>2026-04-22T13:54:34.999Z</time></trkpt><trkpt lat="43.652637478693265" lon="7.080793685519046"><ele>103.0</ele><time>2026-04-22T13:54:35.999Z</time></trkpt><trkpt lat="43.652566892439346" lon="7.08060635875483"><ele>103.0</ele><time>2026-04-22T13:54:36.999Z</time></trkpt><trkpt lat="43.6525124018718" lon="7.080420052270075"><ele>103.0</ele><time>2026-04-22T13:54:37.999Z</time></trkpt><trkpt lat="43.65247334752718" lon="7.0802223046976405"><ele>103.0</ele><time>2026-04-22T13:54:38.999Z</time></trkpt><trkpt lat="43.65245947260615" lon="7.080018495176858"><ele>103.0</ele><time>2026-04-22T13:54:39.999Z</time></trkpt><trkpt lat="43.652447409335835" lon="7.079818057273376"><ele>103.0</ele><time>2026-04-22T13:54:40.999Z</time></trkpt><trkpt lat="43.65244626563115" lon="7.079617264183941"><ele>103.0</ele><time>2026-04-22T13:54:41.999Z</time></trkpt><trkpt lat="43.652462626252714" lon="7.079414366197846"><ele>103.0</ele><time>2026-04-22T13:54:42.999Z</time></trkpt><trkpt lat="43.65249283104431" lon="7.079212281772932"><ele>103.0</ele><time>2026-04-22T13:54:43.999Z</time></trkpt><trkpt lat="43.65253467799333" lon="7.0790058200817505"><ele>103.0</ele><time>2026-04-22T13:54:44.999Z</time></trkpt><trkpt lat="43.652593250039686" lon="7.078785932684633"><ele>103.0</ele><time>2026-04-22T13:54:45.999Z</time></trkpt><trkpt lat="43.652655228025196" lon="7.078565138141225"><ele>103.0</ele><time>2026-04-22T13:54:46.999Z</time></trkpt><trkpt lat="43.65273480131797" lon="7.078343256236384"><ele>110.0</ele><time>2026-04-22T13:54:47.999Z</time></trkpt><trkpt lat="43.65280570642372" lon="7.078121538169169"><ele>117.0</ele><time>2026-04-22T13:54:48.999Z</time></trkpt><trkpt lat="43.652875723768766" lon="7.077906236594726"><ele>124.0</ele><time>2026-04-22T13:54:49.999Z</time></trkpt><trkpt lat="43.652947501988066" lon="7.077709824567817"><ele>124.0</ele><time>2026-04-22T13:54:50.999Z</time></trkpt><trkpt lat="43.65301555915094" lon="7.077518683416061"><ele>124.0</ele><time>2026-04-22T13:54:51.999Z</time></trkpt><trkpt lat="43.653076014515655" lon="7.077319056445286"><ele>124.0</ele><time>2026-04-22T13:54:52.999Z</time></trkpt><trkpt lat="43.653141488372654" lon="7.077130380190977"><ele>122.5</ele><time>2026-04-22T13:54:53.999Z</time></trkpt><trkpt lat="43.65320658550687" lon="7.076944120687969"><ele>121.0</ele><time>2026-04-22T13:54:54.999Z</time></trkpt><trkpt lat="43.6532773172246" lon="7.07676711646316"><ele>119.5</ele><time>2026-04-22T13:54:55.999Z</time></trkpt><trkpt lat="43.65335522864374" lon="7.076594790438975"><ele>118.0</ele><time>2026-04-22T13:54:56.999Z</time></trkpt><trkpt lat="43.653441646831226" lon="7.076421730134957"><ele>116.0</ele><time>2026-04-22T13:54:57.999Z</time></trkpt><trkpt lat="43.65353768738351" lon="7.076259480277992"><ele>114.0</ele><time>2026-04-22T13:54:58.999Z</time></trkpt><trkpt lat="43.65364793145344" lon="7.076103203527572"><ele>112.0</ele><time>2026-04-22T13:54:59.999Z</time></trkpt><trkpt lat="43.653765109244254" lon="7.075962774849997"><ele>113.66666666666667</ele><time>2026-04-22T13:55:00.999Z</time></trkpt><trkpt lat="43.65388586336795" lon="7.075836029765508"><ele>115.33333333333334</ele><time>2026-04-22T13:55:01.999Z</time></trkpt><trkpt lat="43.65401827327935" lon="7.075715544839245"><ele>117.0</ele><time>2026-04-22T13:55:02.999Z</time></trkpt><trkpt lat="43.65415665739508" lon="7.075622385055334"><ele>117.0</ele><time>2026-04-22T13:55:03.999Z</time></trkpt><trkpt lat="43.65430651504371" lon="7.075541946744286"><ele>117.0</ele><time>2026-04-22T13:55:04.999Z</time></trkpt><trkpt lat="43.654452991931166" lon="7.07547234342594"><ele>117.0</ele><time>2026-04-22T13:55:05.999Z</time></trkpt><trkpt lat="43.65461223665167" lon="7.075399789524324"><ele>119.0</ele><time>2026-04-22T13:55:06.999Z</time></trkpt><trkpt lat="43.65476673050386" lon="7.075319185035194"><ele>121.0</ele><time>2026-04-22T13:55:07.999Z</time></trkpt><trkpt lat="43.65493340762486" lon="7.075243740684362"><ele>123.0</ele><time>2026-04-22T13:55:08.999Z</time></trkpt><trkpt lat="43.6550831700296" lon="7.075189579246515"><ele>123.0</ele><time>2026-04-22T13:55:09.999Z</time></trkpt><trkpt lat="43.65523363549039" lon="7.075125696147628"><ele>123.0</ele><time>2026-04-22T13:55:10.999Z</time></trkpt><trkpt lat="43.65538077564897" lon="7.075065215588599"><ele>123.0</ele><time>2026-04-22T13:55:11.999Z</time></trkpt><trkpt lat="43.655527953706546" lon="7.0750038666222"><ele>121.33333333333334</ele><time>2026-04-22T13:55:12.999Z</time></trkpt><trkpt lat="43.65566993335868" lon="7.074940024575643"><ele>119.66666666666667</ele><time>2026-04-22T13:55:13.999Z</time></trkpt><trkpt lat="43.65581392925073" lon="7.074879168049551"><ele>118.0</ele><time>2026-04-22T13:55:14.999Z</time></trkpt><trkpt lat="43.65595699599263" lon="7.074817857119778"><ele>118.0</ele><time>2026-04-22T13:55:15.999Z</time></trkpt><trkpt lat="43.656099488948755" lon="7.074766137815106"><ele>118.0</ele><time>2026-04-22T13:55:16.999Z</time></trkpt><trkpt lat="43.656243298285375" lon="7.074725384403154"><ele>118.0</ele><time>2026-04-22T13:55:17.999Z</time></trkpt><trkpt lat="43.65638755241334" lon="7.0746837695887965"><ele>118.0</ele><time>2026-04-22T13:55:18.999Z</time></trkpt><trkpt lat="43.65653071940239" lon="7.074649842096617"><ele>121.0</ele><time>2026-04-22T13:55:19.999Z</time></trkpt><trkpt lat="43.65667305641963" lon="7.074610507711518"><ele>124.0</ele><time>2026-04-22T13:55:20.999Z</time></trkpt><trkpt lat="43.65681603597171" lon="7.0745702684963"><ele>127.0</ele><time>2026-04-22T13:55:21.999Z</time></trkpt><trkpt lat="43.656961303159186" lon="7.0745290570680694"><ele>130.0</ele><time>2026-04-22T13:55:22.999Z</time></trkpt><trkpt lat="43.657106537639905" lon="7.074490926732847"><ele>132.25</ele><time>2026-04-22T13:55:23.999Z</time></trkpt><trkpt lat="43.657251257581116" lon="7.074453166532676"><ele>134.5</ele><time>2026-04-22T13:55:24.999Z</time></trkpt><trkpt lat="43.65739795208151" lon="7.074413164415411"><ele>136.75</ele><time>2026-04-22T13:55:25.999Z</time></trkpt><trkpt lat="43.65754048185266" lon="7.074375365226849"><ele>139.0</ele><time>2026-04-22T13:55:26.999Z</time></trkpt><trkpt lat="43.65768436223889" lon="7.074341566901674"><ele>140.0</ele><time>2026-04-22T13:55:27.999Z</time></trkpt><trkpt lat="43.65782601014331" lon="7.074302203952766"><ele>141.0</ele><time>2026-04-22T13:55:28.999Z</time></trkpt><trkpt lat="43.65796414743972" lon="7.074262816243153"><ele>142.0</ele><time>2026-04-22T13:55:29.999Z</time></trkpt><trkpt lat="43.65810051365805" lon="7.074223841476941"><ele>143.0</ele><time>2026-04-22T13:55:30.999Z</time></trkpt><trkpt lat="43.658234280663166" lon="7.074186580578071"><ele>143.0</ele><time>2026-04-22T13:55:31.999Z</time></trkpt><trkpt lat="43.65836560842691" lon="7.074150668444826"><ele>143.0</ele><time>2026-04-22T13:55:32.999Z</time></trkpt><trkpt lat="43.65850901563916" lon="7.074116721613745"><ele>143.0</ele><time>2026-04-22T13:55:33.999Z</time></trkpt><trkpt lat="43.658648067447" lon="7.0740883035624"><ele>143.0</ele><time>2026-04-22T13:55:34.999Z</time></trkpt><trkpt lat="43.658786958100684" lon="7.0740717198852465"><ele>142.5</ele><time>2026-04-22T13:55:35.999Z</time></trkpt><trkpt lat="43.65892990831498" lon="7.07406011554352"><ele>142.0</ele><time>2026-04-22T13:55:36.999Z</time></trkpt><trkpt lat="43.65907712969278" lon="7.074055646689628"><ele>141.5</ele><time>2026-04-22T13:55:37.999Z</time></trkpt><trkpt lat="43.65922329344174" lon="7.074062989181844"><ele>141.0</ele><time>2026-04-22T13:55:38.999Z</time></trkpt><trkpt lat="43.65937249514639" lon="7.074062428663271"><ele>141.33333333333334</ele><time>2026-04-22T13:55:39.999Z</time></trkpt><trkpt lat="43.65952508022434" lon="7.074061262009155"><ele>141.66666666666669</ele><time>2026-04-22T13:55:40.999Z</time></trkpt><trkpt lat="43.65967718113167" lon="7.074058730713483"><ele>142.0</ele><time>2026-04-22T13:55:41.999Z</time></trkpt><trkpt lat="43.65982982048709" lon="7.074043697407807"><ele>142.0</ele><time>2026-04-22T13:55:42.999Z</time></trkpt><trkpt lat="43.659985716416536" lon="7.074026801953067"><ele>142.0</ele><time>2026-04-22T13:55:43.999Z</time></trkpt><trkpt lat="43.66014141589624" lon="7.0740234590915705"><ele>142.0</ele><time>2026-04-22T13:55:44.999Z</time></trkpt><trkpt lat="43.6602956667635" lon="7.074006460462529"><ele>142.66666666666669</ele><time>2026-04-22T13:55:45.999Z</time></trkpt><trkpt lat="43.66045127639192" lon="7.0739893120979795"><ele>143.33333333333334</ele><time>2026-04-22T13:55:46.999Z</time></trkpt><trkpt lat="43.660600435357594" lon="7.073864430433376"><ele>144.0</ele><time>2026-04-22T13:55:47.999Z</time></trkpt><trkpt lat="43.66075677080706" lon="7.0738040004396945"><ele>144.0</ele><time>2026-04-22T13:55:48.999Z</time></trkpt><trkpt lat="43.66091131219855" lon="7.073737271323075"><ele>144.0</ele><time>2026-04-22T13:55:50Z</time></trkpt><trkpt lat="43.66106845219665" lon="7.073678849332897"><ele>144.0</ele><time>2026-04-22T13:55:51Z</time></trkpt><trkpt lat="43.66122116424017" lon="7.07363920146892"><ele>147.66666666666666</ele><time>2026-04-22T13:55:52Z</time></trkpt><trkpt lat="43.66138667383603" lon="7.073589254779481"><ele>151.33333333333331</ele><time>2026-04-22T13:55:53Z</time></trkpt><trkpt lat="43.66155700521651" lon="7.0735422936152785"><ele>155.0</ele><time>2026-04-22T13:55:54Z</time></trkpt><trkpt lat="43.661728055055924" lon="7.073522097870905"><ele>155.0</ele><time>2026-04-22T13:55:55Z</time></trkpt><trkpt lat="43.66190463244163" lon="7.073498660329192"><ele>155.0</ele><time>2026-04-22T13:55:56Z</time></trkpt><trkpt lat="43.6620859075952" lon="7.073487395689929"><ele>155.0</ele><time>2026-04-22T13:55:57Z</time></trkpt><trkpt lat="43.66223708653968" lon="7.07345454951966"><ele>156.33333333333331</ele><time>2026-04-22T13:55:58Z</time></trkpt><trkpt lat="43.662394622473435" lon="7.073460317715669"><ele>157.66666666666666</ele><time>2026-04-22T13:55:59Z</time></trkpt><trkpt lat="43.66255158737797" lon="7.07343950283822"><ele>159.0</ele><time>2026-04-22T13:56:00Z</time></trkpt><trkpt lat="43.6627135989267" lon="7.073437326321529"><ele>159.25</ele><time>2026-04-22T13:56:01Z</time></trkpt><trkpt lat="43.66286953541103" lon="7.073438129074985"><ele>159.5</ele><time>2026-04-22T13:56:02Z</time></trkpt><trkpt lat="43.66301382899976" lon="7.073435101857546"><ele>159.75</ele><time>2026-04-22T13:56:03Z</time></trkpt><trkpt lat="43.66314582708824" lon="7.073424344396188"><ele>160.0</ele><time>2026-04-22T13:56:04Z</time></trkpt><trkpt lat="43.6632693418077" lon="7.073405958949476"><ele>160.0</ele><time>2026-04-22T13:56:05Z</time></trkpt><trkpt lat="43.66337934650763" lon="7.073377613102537"><ele>160.0</ele><time>2026-04-22T13:56:06Z</time></trkpt><trkpt lat="43.66347909358466" lon="7.07331640233314"><ele>160.0</ele><time>2026-04-22T13:56:07Z</time></trkpt><trkpt lat="43.6635643858231" lon="7.073219207713487"><ele>160.0</ele><time>2026-04-22T13:56:08Z</time></trkpt><trkpt lat="43.66363379381812" lon="7.0731009295165315"><ele>160.0</ele><time>2026-04-22T13:56:09Z</time></trkpt><trkpt lat="43.66367870173124" lon="7.072957904399354"><ele>161.75</ele><time>2026-04-22T13:56:10Z</time></trkpt><trkpt lat="43.6637037520964" lon="7.072803807420115"><ele>163.5</ele><time>2026-04-22T13:56:11Z</time></trkpt><trkpt lat="43.663702561783204" lon="7.072646667300421"><ele>165.25</ele><time>2026-04-22T13:56:12Z</time></trkpt><trkpt lat="43.66367941495831" lon="7.072493693512034"><ele>167.0</ele><time>2026-04-22T13:56:13Z</time></trkpt><trkpt lat="43.66363104118364" lon="7.072352621399885"><ele>167.6</ele><time>2026-04-22T13:56:14Z</time></trkpt><trkpt lat="43.663561765049806" lon="7.072227833579127"><ele>168.2</ele><time>2026-04-22T13:56:15Z</time></trkpt><trkpt lat="43.66347653959255" lon="7.072124518947104"><ele>168.8</ele><time>2026-04-22T13:56:16Z</time></trkpt><trkpt lat="43.663378342237806" lon="7.072057991664201"><ele>169.4</ele><time>2026-04-22T13:56:17Z</time></trkpt><trkpt lat="43.66327326263225" lon="7.072022492560192"><ele>170.0</ele><time>2026-04-22T13:56:18Z</time></trkpt><trkpt lat="43.663158989365975" lon="7.072021510466189"><ele>170.0</ele><time>2026-04-22T13:56:19Z</time></trkpt><trkpt lat="43.663038405665404" lon="7.07204139824102"><ele>170.0</ele><time>2026-04-22T13:56:20Z</time></trkpt><trkpt lat="43.66291121987995" lon="7.07208200205789"><ele>170.0</ele><time>2026-04-22T13:56:21Z</time></trkpt><trkpt lat="43.6627777832638" lon="7.072126282600679"><ele>170.0</ele><time>2026-04-22T13:56:22Z</time></trkpt><trkpt lat="43.66263569876665" lon="7.072158094206844"><ele>171.5</ele><time>2026-04-22T13:56:23Z</time></trkpt><trkpt lat="43.66248968372102" lon="7.072179872151194"><ele>173.0</ele><time>2026-04-22T13:56:24Z</time></trkpt><trkpt lat="43.66235314241406" lon="7.072184920636366"><ele>174.5</ele><time>2026-04-22T13:56:25Z</time></trkpt><trkpt lat="43.662221459007014" lon="7.0721860095033104"><ele>176.0</ele><time>2026-04-22T13:56:26Z</time></trkpt><trkpt lat="43.662092178059524" lon="7.072174239409427"><ele>176.0</ele><time>2026-04-22T13:56:27Z</time></trkpt><trkpt lat="43.661976343374704" lon="7.072145000721346"><ele>176.0</ele><time>2026-04-22T13:56:27.999Z</time></trkpt><trkpt lat="43.661881646996974" lon="7.072086727332306"><ele>176.0</ele><time>2026-04-22T13:56:28.999Z</time></trkpt><trkpt lat="43.6618112557411" lon="7.071999666860865"><ele>176.0</ele><time>2026-04-22T13:56:29.999Z</time></trkpt><trkpt lat="43.6617564184296" lon="7.071889418399742"><ele>176.0</ele><time>2026-04-22T13:56:30.999Z</time></trkpt><trkpt lat="43.66171691477138" lon="7.071764356706874"><ele>175.5</ele><time>2026-04-22T13:56:31.999Z</time></trkpt><trkpt lat="43.66169560261103" lon="7.071629625871118"><ele>175.0</ele><time>2026-04-22T13:56:32.999Z</time></trkpt><trkpt lat="43.661692391089616" lon="7.071477430467605"><ele>174.5</ele><time>2026-04-22T13:56:33.999Z</time></trkpt><trkpt lat="43.66169926474968" lon="7.071311956979903"><ele>174.0</ele><time>2026-04-22T13:56:34.999Z</time></trkpt><trkpt lat="43.661702706970345" lon="7.0711360160906125"><ele>174.0</ele><time>2026-04-22T13:56:35.999Z</time></trkpt><trkpt lat="43.66169502694223" lon="7.0709543152870635"><ele>174.0</ele><time>2026-04-22T13:56:36.999Z</time></trkpt><trkpt lat="43.66167662669765" lon="7.070769395689868"><ele>174.0</ele><time>2026-04-22T13:56:37.999Z</time></trkpt><trkpt lat="43.66164413319666" lon="7.070574814755906"><ele>174.0</ele><time>2026-04-22T13:56:38.999Z</time></trkpt><trkpt lat="43.661604242424595" lon="7.070378239672705"><ele>173.75</ele><time>2026-04-22T13:56:39.999Z</time></trkpt><trkpt lat="43.66157783080455" lon="7.070187551333598"><ele>173.5</ele><time>2026-04-22T13:56:40.999Z</time></trkpt><trkpt lat="43.66156115990073" lon="7.070020161958809"><ele>173.25</ele><time>2026-04-22T13:56:41.999Z</time></trkpt><trkpt lat="43.66155956727476" lon="7.069856031308392"><ele>173.0</ele><time>2026-04-22T13:56:42.999Z</time></trkpt><trkpt lat="43.661567343686805" lon="7.069689540599079"><ele>173.0</ele><time>2026-04-22T13:56:43.999Z</time></trkpt><trkpt lat="43.661589187942596" lon="7.0695262866574815"><ele>173.0</ele><time>2026-04-22T13:56:44.999Z</time></trkpt><trkpt lat="43.661623673691324" lon="7.069367764867505"><ele>173.0</ele><time>2026-04-22T13:56:45.999Z</time></trkpt><trkpt lat="43.661668872059465" lon="7.069212337200256"><ele>173.0</ele><time>2026-04-22T13:56:46.999Z</time></trkpt><trkpt lat="43.66171965245785" lon="7.069050162613786"><ele>172.5</ele><time>2026-04-22T13:56:47.999Z</time></trkpt><trkpt lat="43.66178339740144" lon="7.068893415186914"><ele>172.0</ele><time>2026-04-22T13:56:48.999Z</time></trkpt><trkpt lat="43.66187301962504" lon="7.0687534106433105"><ele>171.5</ele><time>2026-04-22T13:56:49.999Z</time></trkpt><trkpt lat="43.66197111820994" lon="7.0686190179049735"><ele>171.0</ele><time>2026-04-22T13:56:50.999Z</time></trkpt><trkpt lat="43.66208622722102" lon="7.068489382811223"><ele>174.33333333333334</ele><time>2026-04-22T13:56:51.999Z</time></trkpt><trkpt lat="43.662211215291805" lon="7.0683733678046"><ele>177.66666666666669</ele><time>2026-04-22T13:56:52.999Z</time></trkpt><trkpt lat="43.66234284494809" lon="7.068257923887618"><ele>181.0</ele><time>2026-04-22T13:56:53.999Z</time></trkpt><trkpt lat="43.662473349126216" lon="7.068144746789679"><ele>181.0</ele><time>2026-04-22T13:56:54.999Z</time></trkpt><trkpt lat="43.662604687800886" lon="7.068029812205765"><ele>181.0</ele><time>2026-04-22T13:56:55.999Z</time></trkpt><trkpt lat="43.66273523189043" lon="7.067914584799054"><ele>181.0</ele><time>2026-04-22T13:56:56.999Z</time></trkpt><trkpt lat="43.66286539218416" lon="7.067795940921068"><ele>182.5</ele><time>2026-04-22T13:56:57.999Z</time></trkpt><trkpt lat="43.66299631366324" lon="7.067677406672504"><ele>184.0</ele><time>2026-04-22T13:56:58.999Z</time></trkpt><trkpt lat="43.663121404654234" lon="7.067572658789236"><ele>185.5</ele><time>2026-04-22T13:56:59.999Z</time></trkpt><trkpt lat="43.66323447409136" lon="7.067474586264891"><ele>187.0</ele><time>2026-04-22T13:57:00.999Z</time></trkpt><trkpt lat="43.663343982473776" lon="7.067374430754041"><ele>187.0</ele><time>2026-04-22T13:57:01.999Z</time></trkpt><trkpt lat="43.66344978024145" lon="7.067282704176135"><ele>187.0</ele><time>2026-04-22T13:57:02.999Z</time></trkpt><trkpt lat="43.66354700230721" lon="7.067199463941992"><ele>187.0</ele><time>2026-04-22T13:57:03.999Z</time></trkpt><trkpt lat="43.6636381571114" lon="7.067116705292106"><ele>187.0</ele><time>2026-04-22T13:57:04.999Z</time></trkpt><trkpt lat="43.66373596576019" lon="7.067025748270621"><ele>187.8</ele><time>2026-04-22T13:57:05.999Z</time></trkpt><trkpt lat="43.66382209272359" lon="7.066942025927935"><ele>188.6</ele><time>2026-04-22T13:57:06.999Z</time></trkpt><trkpt lat="43.66390207025401" lon="7.066857856876295"><ele>189.4</ele><time>2026-04-22T13:57:07.999Z</time></trkpt><trkpt lat="43.66398098729803" lon="7.066775606527236"><ele>190.20000000000002</ele><time>2026-04-22T13:57:08.999Z</time></trkpt><trkpt lat="43.66405531510489" lon="7.066699853334509"><ele>191.0</ele><time>2026-04-22T13:57:09.999Z</time></trkpt><trkpt lat="43.664128083912836" lon="7.066620597832731"><ele>190.4</ele><time>2026-04-22T13:57:10.999Z</time></trkpt><trkpt lat="43.66420099242148" lon="7.066534738913448"><ele>189.8</ele><time>2026-04-22T13:57:11.999Z</time></trkpt><trkpt lat="43.664274642342605" lon="7.066442641100303"><ele>189.20000000000002</ele><time>2026-04-22T13:57:12.999Z</time></trkpt><trkpt lat="43.66434910446186" lon="7.066348828423108"><ele>188.60000000000002</ele><time>2026-04-22T13:57:13.999Z</time></trkpt><trkpt lat="43.66442517625836" lon="7.066244802269085"><ele>188.0</ele><time>2026-04-22T13:57:14.999Z</time></trkpt><trkpt lat="43.66450079347768" lon="7.066154129212201"><ele>190.2</ele><time>2026-04-22T13:57:15.999Z</time></trkpt><trkpt lat="43.66456739828056" lon="7.06606977845886"><ele>192.4</ele><time>2026-04-22T13:57:16.999Z</time></trkpt><trkpt lat="43.66463360535288" lon="7.065973834032967"><ele>194.6</ele><time>2026-04-22T13:57:17.999Z</time></trkpt><trkpt lat="43.66470618654958" lon="7.065869581988326"><ele>196.79999999999998</ele><time>2026-04-22T13:57:18.999Z</time></trkpt><trkpt lat="43.664782866243605" lon="7.065761486619985"><ele>199.0</ele><time>2026-04-22T13:57:19.999Z</time></trkpt><trkpt lat="43.664865872974914" lon="7.065645019888502"><ele>199.0</ele><time>2026-04-22T13:57:20.999Z</time></trkpt><trkpt lat="43.6649536393079" lon="7.065527568569573"><ele>199.0</ele><time>2026-04-22T13:57:21.999Z</time></trkpt><trkpt lat="43.66504076736517" lon="7.0654074074668305"><ele>199.0</ele><time>2026-04-22T13:57:22.999Z</time></trkpt><trkpt lat="43.665121746444015" lon="7.065286614407147"><ele>199.0</ele><time>2026-04-22T13:57:23.999Z</time></trkpt><trkpt lat="43.6651797502959" lon="7.065161087474016"><ele>199.0</ele><time>2026-04-22T13:57:24.999Z</time></trkpt><trkpt lat="43.665213138295115" lon="7.065020777259765"><ele>199.0</ele><time>2026-04-22T13:57:25.999Z</time></trkpt><trkpt lat="43.66522461859301" lon="7.064868787889042"><ele>199.0</ele><time>2026-04-22T13:57:26.999Z</time></trkpt><trkpt lat="43.66521050336891" lon="7.064722296581313"><ele>199.0</ele><time>2026-04-22T13:57:27.999Z</time></trkpt><trkpt lat="43.66517266150713" lon="7.064583899482522"><ele>199.0</ele><time>2026-04-22T13:57:28.999Z</time></trkpt><trkpt lat="43.66511211487517" lon="7.064461574981621"><ele>199.79999999999998</ele><time>2026-04-22T13:57:29.999Z</time></trkpt><trkpt lat="43.66503547504685" lon="7.064360673081033"><ele>200.6</ele><time>2026-04-22T13:57:30.999Z</time></trkpt><trkpt lat="43.664941426562386" lon="7.064281876806198"><ele>201.4</ele><time>2026-04-22T13:57:31.999Z</time></trkpt><trkpt lat="43.664832153627835" lon="7.064236102474514"><ele>202.2</ele><time>2026-04-22T13:57:32.999Z</time></trkpt><trkpt lat="43.66473660929543" lon="7.064184862207534"><ele>203.0</ele><time>2026-04-22T13:57:33.999Z</time></trkpt><trkpt lat="43.664610106999774" lon="7.064168457341807"><ele>203.0</ele><time>2026-04-22T13:57:34.999Z</time></trkpt><trkpt lat="43.66449217256465" lon="7.064145499718014"><ele>203.0</ele><time>2026-04-22T13:57:35.999Z</time></trkpt><trkpt lat="43.664387616645335" lon="7.064104125439321"><ele>203.0</ele><time>2026-04-22T13:57:36.999Z</time></trkpt><trkpt lat="43.664297614511476" lon="7.064041477545838"><ele>203.0</ele><time>2026-04-22T13:57:37.999Z</time></trkpt><trkpt lat="43.664224194067636" lon="7.063932128229478"><ele>203.0</ele><time>2026-04-22T13:57:38.999Z</time></trkpt><trkpt lat="43.66415543044477" lon="7.063815206515799"><ele>204.5</ele><time>2026-04-22T13:57:39.999Z</time></trkpt><trkpt lat="43.664078950845784" lon="7.063696247148568"><ele>206.0</ele><time>2026-04-22T13:57:40.999Z</time></trkpt><trkpt lat="43.66400511994719" lon="7.063555998119394"><ele>207.5</ele><time>2026-04-22T13:57:41.999Z</time></trkpt><trkpt lat="43.663912133356796" lon="7.063441553451367"><ele>209.0</ele><time>2026-04-22T13:57:42.999Z</time></trkpt><trkpt lat="43.663808943683726" lon="7.063354259051161"><ele>209.0</ele><time>2026-04-22T13:57:43.999Z</time></trkpt><trkpt lat="43.66370036927684" lon="7.063299791008706"><ele>209.0</ele><time>2026-04-22T13:57:44.999Z</time></trkpt><trkpt lat="43.6635896126991" lon="7.063287415914757"><ele>209.0</ele><time>2026-04-22T13:57:45.999Z</time></trkpt><trkpt lat="43.663472556563214" lon="7.063309325196305"><ele>209.0</ele><time>2026-04-22T13:57:46.999Z</time></trkpt><trkpt lat="43.6633528893826" lon="7.063351447923617"><ele>209.0</ele><time>2026-04-22T13:57:47.999Z</time></trkpt><trkpt lat="43.66323055311173" lon="7.06339305782614"><ele>209.0</ele><time>2026-04-22T13:57:48.999Z</time></trkpt><trkpt lat="43.663111971541156" lon="7.063426226809434"><ele>209.0</ele><time>2026-04-22T13:57:49.999Z</time></trkpt><trkpt lat="43.663006367507656" lon="7.063431357485153"><ele>209.0</ele><time>2026-04-22T13:57:50.999Z</time></trkpt><trkpt lat="43.662899562999286" lon="7.0634163079786285"><ele>209.0</ele><time>2026-04-22T13:57:51.998Z</time></trkpt><trkpt lat="43.66280213237619" lon="7.063332184922694"><ele>209.0</ele><time>2026-04-22T13:57:52.998Z</time></trkpt><trkpt lat="43.66269485718985" lon="7.063260043154777"><ele>209.0</ele><time>2026-04-22T13:57:53.998Z</time></trkpt><trkpt lat="43.6625998736153" lon="7.063157083039144"><ele>209.0</ele><time>2026-04-22T13:57:55Z</time></trkpt><trkpt lat="43.662497791435676" lon="7.063058767958683"><ele>210.75</ele><time>2026-04-22T13:57:56Z</time></trkpt><trkpt lat="43.662385011964155" lon="7.062977165014717"><ele>212.5</ele><time>2026-04-22T13:57:57Z</time></trkpt><trkpt lat="43.662287832646655" lon="7.062871216881996"><ele>214.25</ele><time>2026-04-22T13:57:58Z</time></trkpt><trkpt lat="43.66219803733421" lon="7.062775354567717"><ele>216.0</ele><time>2026-04-22T13:57:59Z</time></trkpt><trkpt lat="43.66211687101875" lon="7.06268710759224"><ele>216.0</ele><time>2026-04-22T13:58:00Z</time></trkpt><trkpt lat="43.662045993392944" lon="7.06259054148812"><ele>216.00000000000003</ele><time>2026-04-22T13:58:01Z</time></trkpt><trkpt lat="43.66197759338198" lon="7.062486874451565"><ele>216.00000000000003</ele><time>2026-04-22T13:58:02Z</time></trkpt><trkpt lat="43.66190601870439" lon="7.062373991484917"><ele>216.0</ele><time>2026-04-22T13:58:03Z</time></trkpt><trkpt lat="43.661832054690564" lon="7.062247989319513"><ele>216.0</ele><time>2026-04-22T13:58:04Z</time></trkpt><trkpt lat="43.66175434011059" lon="7.062121001855974"><ele>215.8</ele><time>2026-04-22T13:58:05Z</time></trkpt><trkpt lat="43.6616816197787" lon="7.06198391484809"><ele>215.60000000000002</ele><time>2026-04-22T13:58:06Z</time></trkpt><trkpt lat="43.6616154071467" lon="7.061865081696717"><ele>215.4</ele><time>2026-04-22T13:58:07Z</time></trkpt><trkpt lat="43.66154754445215" lon="7.061749975142883"><ele>215.2</ele><time>2026-04-22T13:58:08Z</time></trkpt><trkpt lat="43.66147884570526" lon="7.061637574388856"><ele>215.0</ele><time>2026-04-22T13:58:09Z</time></trkpt><trkpt lat="43.6614060174658" lon="7.061510862479703"><ele>215.4</ele><time>2026-04-22T13:58:10Z</time></trkpt><trkpt lat="43.661338503826904" lon="7.061382509999508"><ele>215.8</ele><time>2026-04-22T13:58:11Z</time></trkpt><trkpt lat="43.661287264669326" lon="7.061252925899223"><ele>216.2</ele><time>2026-04-22T13:58:12Z</time></trkpt><trkpt lat="43.66124372392939" lon="7.061119570725933"><ele>216.6</ele><time>2026-04-22T13:58:13Z</time></trkpt><trkpt lat="43.66120719287653" lon="7.060973443545325"><ele>217.0</ele><time>2026-04-22T13:58:14Z</time></trkpt><trkpt lat="43.66118650376671" lon="7.06082087578146"><ele>216.0</ele><time>2026-04-22T13:58:15Z</time></trkpt><trkpt lat="43.66117804907836" lon="7.060669631018899"><ele>215.0</ele><time>2026-04-22T13:58:16Z</time></trkpt><trkpt lat="43.6611870220271" lon="7.060531007871274"><ele>214.0</ele><time>2026-04-22T13:58:17Z</time></trkpt><trkpt lat="43.66120406608555" lon="7.060397397948098"><ele>213.0</ele><time>2026-04-22T13:58:18Z</time></trkpt><trkpt lat="43.661227379375354" lon="7.06027648647061"><ele>212.0</ele><time>2026-04-22T13:58:19Z</time></trkpt><trkpt lat="43.66125897642788" lon="7.060147276538646"><ele>212.0</ele><time>2026-04-22T13:58:20Z</time></trkpt><trkpt lat="43.661297362436436" lon="7.060000743061355"><ele>212.0</ele><time>2026-04-22T13:58:21Z</time></trkpt><trkpt lat="43.661342918948854" lon="7.059847227206308"><ele>212.0</ele><time>2026-04-22T13:58:22Z</time></trkpt><trkpt lat="43.66139633802335" lon="7.059701652195261"><ele>212.0</ele><time>2026-04-22T13:58:23Z</time></trkpt><trkpt lat="43.6614452850472" lon="7.0595531267040705"><ele>210.0</ele><time>2026-04-22T13:58:24Z</time></trkpt><trkpt lat="43.66149107070721" lon="7.059410388276664"><ele>208.0</ele><time>2026-04-22T13:58:25Z</time></trkpt><trkpt lat="43.6615330676185" lon="7.05926772341343"><ele>206.0</ele><time>2026-04-22T13:58:26Z</time></trkpt><trkpt lat="43.66157668537498" lon="7.059117308912489"><ele>204.0</ele><time>2026-04-22T13:58:27Z</time></trkpt><trkpt lat="43.661618923325776" lon="7.058963568031313"><ele>203.25</ele><time>2026-04-22T13:58:27.999Z</time></trkpt><trkpt lat="43.66166203286151" lon="7.058807367553673"><ele>202.5</ele><time>2026-04-22T13:58:28.999Z</time></trkpt><trkpt lat="43.66170853634246" lon="7.058650034574906"><ele>201.75</ele><time>2026-04-22T13:58:29.999Z</time></trkpt><trkpt lat="43.66175193356753" lon="7.058502927337525"><ele>201.0</ele><time>2026-04-22T13:58:30.999Z</time></trkpt><trkpt lat="43.66179459785328" lon="7.058365487302869"><ele>201.0</ele><time>2026-04-22T13:58:31.999Z</time></trkpt><trkpt lat="43.66183781609925" lon="7.058232336951333"><ele>201.0</ele><time>2026-04-22T13:58:32.999Z</time></trkpt><trkpt lat="43.66187791975624" lon="7.058107355416647"><ele>201.0</ele><time>2026-04-22T13:58:33.999Z</time></trkpt><trkpt lat="43.66192288061617" lon="7.057978957882968"><ele>201.0</ele><time>2026-04-22T13:58:34.999Z</time></trkpt><trkpt lat="43.66196242883554" lon="7.0578409588572235"><ele>201.0</ele><time>2026-04-22T13:58:35.999Z</time></trkpt><trkpt lat="43.66201442170823" lon="7.05770426572818"><ele>200.8</ele><time>2026-04-22T13:58:36.999Z</time></trkpt><trkpt lat="43.662066577425215" lon="7.057576620104449"><ele>200.60000000000002</ele><time>2026-04-22T13:58:37.999Z</time></trkpt><trkpt lat="43.662119199475" lon="7.05744589126802"><ele>200.4</ele><time>2026-04-22T13:58:38.999Z</time></trkpt><trkpt lat="43.66217970001161" lon="7.057318441107264"><ele>200.2</ele><time>2026-04-22T13:58:39.999Z</time></trkpt><trkpt lat="43.662241086520986" lon="7.057193609008206"><ele>200.0</ele><time>2026-04-22T13:58:40.999Z</time></trkpt><trkpt lat="43.66230579620096" lon="7.057068973077187"><ele>200.0</ele><time>2026-04-22T13:58:41.999Z</time></trkpt><trkpt lat="43.66237234822126" lon="7.056943580613237"><ele>200.0</ele><time>2026-04-22T13:58:42.999Z</time></trkpt><trkpt lat="43.662442081385194" lon="7.05681976846231"><ele>200.0</ele><time>2026-04-22T13:58:43.999Z</time></trkpt><trkpt lat="43.66250275829407" lon="7.056709674767166"><ele>200.0</ele><time>2026-04-22T13:58:44.999Z</time></trkpt><trkpt lat="43.66256473011385" lon="7.056578845428982"><ele>200.0</ele><time>2026-04-22T13:58:45.999Z</time></trkpt><trkpt lat="43.66263253252879" lon="7.056497130375159"><ele>199.16666666666669</ele><time>2026-04-22T13:58:46.999Z</time></trkpt><trkpt lat="43.66268713625765" lon="7.0564052484539594"><ele>198.33333333333334</ele><time>2026-04-22T13:58:47.999Z</time></trkpt><trkpt lat="43.66273661262052" lon="7.056324115623109"><ele>197.5</ele><time>2026-04-22T13:58:48.999Z</time></trkpt><trkpt lat="43.66277865269603" lon="7.056258892764409"><ele>196.66666666666669</ele><time>2026-04-22T13:58:49.999Z</time></trkpt><trkpt lat="43.662841015172305" lon="7.0562100393222185"><ele>195.83333333333334</ele><time>2026-04-22T13:58:51.999Z</time></trkpt><trkpt lat="43.66294926474355" lon="7.056284760771066"><ele>195.0</ele><time>2026-04-22T13:58:54.999Z</time></trkpt><trkpt lat="43.66301578170561" lon="7.056374172695404"><ele>195.0</ele><time>2026-04-22T13:58:56.999Z</time></trkpt><trkpt lat="43.6631027689861" lon="7.056359140449056"><ele>195.0</ele><time>2026-04-22T13:58:59.999Z</time></trkpt><trkpt lat="43.66315935763349" lon="7.056308849556302"><ele>195.0</ele><time>2026-04-22T13:59:00.999Z</time></trkpt><trkpt lat="43.663233509122236" lon="7.056255531635408"><ele>195.0</ele><time>2026-04-22T13:59:01.999Z</time></trkpt><trkpt lat="43.66327604682316" lon="7.0561632999249735"><ele>195.0</ele><time>2026-04-22T13:59:02.999Z</time></trkpt><trkpt lat="43.66331912638996" lon="7.0560914166292665"><ele>195.0</ele><time>2026-04-22T13:59:03.999Z</time></trkpt><trkpt lat="43.663377834357554" lon="7.055957931873514"><ele>195.0</ele><time>2026-04-22T13:59:05.999Z</time></trkpt><trkpt lat="43.66340758066383" lon="7.055820782215055"><ele>195.0</ele><time>2026-04-22T13:59:07.999Z</time></trkpt><trkpt lat="43.66344604744961" lon="7.055673306948761"><ele>195.0</ele><time>2026-04-22T13:59:09.999Z</time></trkpt><trkpt lat="43.66346048061695" lon="7.055577938469426"><ele>195.0</ele><time>2026-04-22T13:59:10.999Z</time></trkpt><trkpt lat="43.663476412431706" lon="7.055467023903333"><ele>195.0</ele><time>2026-04-22T13:59:11.999Z</time></trkpt><trkpt lat="43.66349941643145" lon="7.055348328027027"><ele>194.33333333333334</ele><time>2026-04-22T13:59:12.999Z</time></trkpt><trkpt lat="43.66353602558628" lon="7.055227810039949"><ele>193.66666666666666</ele><time>2026-04-22T13:59:13.999Z</time></trkpt><trkpt lat="43.663559091053216" lon="7.055116559541529"><ele>193.0</ele><time>2026-04-22T13:59:14.999Z</time></trkpt><trkpt lat="43.663605876437515" lon="7.0550144426979315"><ele>192.33333333333331</ele><time>2026-04-22T13:59:15.999Z</time></trkpt><trkpt lat="43.66365795133147" lon="7.054923740749487"><ele>191.66666666666666</ele><time>2026-04-22T13:59:16.999Z</time></trkpt><trkpt lat="43.663720180966" lon="7.0548494768583865"><ele>191.0</ele><time>2026-04-22T13:59:17.999Z</time></trkpt><trkpt lat="43.66377207114566" lon="7.054760703184326"><ele>191.0</ele><time>2026-04-22T13:59:18.999Z</time></trkpt><trkpt lat="43.66380939368426" lon="7.054663472333599"><ele>191.0</ele><time>2026-04-22T13:59:19.999Z</time></trkpt><trkpt lat="43.66386346146126" lon="7.054591819305175"><ele>191.0</ele><time>2026-04-22T13:59:20.999Z</time></trkpt><trkpt lat="43.663925289337605" lon="7.054523405487024"><ele>191.0</ele><time>2026-04-22T13:59:21.999Z</time></trkpt><trkpt lat="43.66399117711636" lon="7.054460945889595"><ele>191.0</ele><time>2026-04-22T13:59:22.999Z</time></trkpt><trkpt lat="43.66406812091311" lon="7.054402969679099"><ele>191.0</ele><time>2026-04-22T13:59:23.999Z</time></trkpt><trkpt lat="43.66415025302613" lon="7.054353321951061"><ele>191.0</ele><time>2026-04-22T13:59:24.999Z</time></trkpt><trkpt lat="43.66423321277498" lon="7.054302355806568"><ele>191.0</ele><time>2026-04-22T13:59:25.999Z</time></trkpt><trkpt lat="43.66430462992514" lon="7.054249756925173"><ele>191.0</ele><time>2026-04-22T13:59:26.999Z</time></trkpt><trkpt lat="43.66437824367018" lon="7.054204323541512"><ele>191.0</ele><time>2026-04-22T13:59:27.999Z</time></trkpt><trkpt lat="43.664445228960304" lon="7.054128994446544"><ele>191.0</ele><time>2026-04-22T13:59:28.999Z</time></trkpt><trkpt lat="43.664496324740156" lon="7.054061139134247"><ele>191.0</ele><time>2026-04-22T13:59:29.999Z</time></trkpt><trkpt lat="43.66455922091112" lon="7.053956941137719"><ele>191.0</ele><time>2026-04-22T13:59:30.999Z</time></trkpt><trkpt lat="43.66460923744147" lon="7.053862731269366"><ele>191.0</ele><time>2026-04-22T13:59:31.999Z</time></trkpt><trkpt lat="43.664650001724794" lon="7.0537535810330825"><ele>191.0</ele><time>2026-04-22T13:59:32.999Z</time></trkpt><trkpt lat="43.6646834393733" lon="7.053646268520416"><ele>191.0</ele><time>2026-04-22T13:59:33.999Z</time></trkpt><trkpt lat="43.66471500905693" lon="7.053546518344139"><ele>191.0</ele><time>2026-04-22T13:59:34.999Z</time></trkpt><trkpt lat="43.66474468965252" lon="7.05345273697722"><ele>191.0</ele><time>2026-04-22T13:59:35.999Z</time></trkpt><trkpt lat="43.664771822569165" lon="7.05336552366546"><ele>190.0</ele><time>2026-04-22T13:59:36.999Z</time></trkpt><trkpt lat="43.66481481283254" lon="7.053229815740847"><ele>189.0</ele><time>2026-04-22T13:59:38.999Z</time></trkpt><trkpt lat="43.66486169165841" lon="7.053127979707922"><ele>188.0</ele><time>2026-04-22T13:59:42.998Z</time></trkpt><trkpt lat="43.66498804663472" lon="7.0530819045806155"><ele>187.0</ele><time>2026-04-22T13:59:44.998Z</time></trkpt><trkpt lat="43.66504877043945" lon="7.053034390612036"><ele>186.0</ele><time>2026-04-22T13:59:45.998Z</time></trkpt><trkpt lat="43.66511016210169" lon="7.0529926273905685"><ele>186.0</ele><time>2026-04-22T13:59:46.998Z</time></trkpt><trkpt lat="43.66514082520898" lon="7.052871827178493"><ele>186.0</ele><time>2026-04-22T13:59:47.998Z</time></trkpt><trkpt lat="43.665178348329434" lon="7.052756196879632"><ele>186.0</ele><time>2026-04-22T13:59:48.998Z</time></trkpt><trkpt lat="43.665214067608986" lon="7.052631202072068"><ele>186.0</ele><time>2026-04-22T13:59:49.998Z</time></trkpt><trkpt lat="43.66525512367573" lon="7.052513111092336"><ele>186.0</ele><time>2026-04-22T13:59:50.998Z</time></trkpt><trkpt lat="43.665307579249614" lon="7.052426310151015"><ele>186.0</ele><time>2026-04-22T13:59:51.998Z</time></trkpt><trkpt lat="43.66537345334167" lon="7.0523493372425605"><ele>186.0</ele><time>2026-04-22T13:59:52.998Z</time></trkpt><trkpt lat="43.66545098625736" lon="7.052272520019208"><ele>186.0</ele><time>2026-04-22T13:59:53.998Z</time></trkpt><trkpt lat="43.66553543898935" lon="7.052194905519429"><ele>186.0</ele><time>2026-04-22T13:59:54.998Z</time></trkpt><trkpt lat="43.66561391604405" lon="7.052115932916784"><ele>186.0</ele><time>2026-04-22T13:59:55.998Z</time></trkpt><trkpt lat="43.665681133898154" lon="7.052039930087917"><ele>186.0</ele><time>2026-04-22T13:59:56.998Z</time></trkpt><trkpt lat="43.66574369637636" lon="7.051953048383322"><ele>186.0</ele><time>2026-04-22T13:59:57.998Z</time></trkpt><trkpt lat="43.66580390558926" lon="7.051864168218693"><ele>186.0</ele><time>2026-04-22T13:59:58.998Z</time></trkpt><trkpt lat="43.66586230446678" lon="7.051767315618884"><ele>186.0</ele><time>2026-04-22T13:59:59.998Z</time></trkpt><trkpt lat="43.6659179631537" lon="7.051664947385526"><ele>186.0</ele><time>2026-04-22T14:00:01Z</time></trkpt><trkpt lat="43.6659712293619" lon="7.051557689110704"><ele>186.0</ele><time>2026-04-22T14:00:02Z</time></trkpt><trkpt lat="43.66601954497482" lon="7.051449636671312"><ele>186.0</ele><time>2026-04-22T14:00:03Z</time></trkpt><trkpt lat="43.66605970114318" lon="7.051350026948333"><ele>186.0</ele><time>2026-04-22T14:00:04Z</time></trkpt><trkpt lat="43.666094895989545" lon="7.051250555926437"><ele>186.0</ele><time>2026-04-22T14:00:05Z</time></trkpt><trkpt lat="43.666127021510974" lon="7.051153838618204"><ele>186.0</ele><time>2026-04-22T14:00:06Z</time></trkpt><trkpt lat="43.666156370987046" lon="7.051051634733165"><ele>186.0</ele><time>2026-04-22T14:00:07Z</time></trkpt><trkpt lat="43.666189455780355" lon="7.050945585885611"><ele>186.16666666666666</ele><time>2026-04-22T14:00:08Z</time></trkpt><trkpt lat="43.6662234427857" lon="7.050829492471867"><ele>186.33333333333334</ele><time>2026-04-22T14:00:09Z</time></trkpt><trkpt lat="43.66625747800996" lon="7.05072008590677"><ele>186.5</ele><time>2026-04-22T14:00:10Z</time></trkpt><trkpt lat="43.66629001443001" lon="7.050612790018505"><ele>186.66666666666669</ele><time>2026-04-22T14:00:11Z</time></trkpt><trkpt lat="43.666321080270805" lon="7.050506674796054"><ele>186.83333333333334</ele><time>2026-04-22T14:00:12Z</time></trkpt><trkpt lat="43.66635137355357" lon="7.050396507760677"><ele>187.0</ele><time>2026-04-22T14:00:13Z</time></trkpt><trkpt lat="43.66638101969512" lon="7.0502862910437445"><ele>187.0</ele><time>2026-04-22T14:00:14Z</time></trkpt><trkpt lat="43.66641212156657" lon="7.05017476523748"><ele>187.0</ele><time>2026-04-22T14:00:15Z</time></trkpt><trkpt lat="43.66644226724557" lon="7.050061160250279"><ele>187.0</ele><time>2026-04-22T14:00:16Z</time></trkpt><trkpt lat="43.666472074204556" lon="7.049942875938029"><ele>187.0</ele><time>2026-04-22T14:00:17Z</time></trkpt><trkpt lat="43.6665059064933" lon="7.0498216046138795"><ele>187.0</ele><time>2026-04-22T14:00:18Z</time></trkpt><trkpt lat="43.666540025165645" lon="7.04969492680503"><ele>187.2</ele><time>2026-04-22T14:00:19Z</time></trkpt><trkpt lat="43.66657339526667" lon="7.049566220036256"><ele>187.39999999999998</ele><time>2026-04-22T14:00:20Z</time></trkpt><trkpt lat="43.66660580055863" lon="7.049438049123414"><ele>187.60000000000002</ele><time>2026-04-22T14:00:21Z</time></trkpt><trkpt lat="43.666639146525455" lon="7.049307530609408"><ele>187.8</ele><time>2026-04-22T14:00:22Z</time></trkpt><trkpt lat="43.66667222048401" lon="7.04917547618461"><ele>188.0</ele><time>2026-04-22T14:00:23Z</time></trkpt><trkpt lat="43.66670644248243" lon="7.049048105796482"><ele>188.2</ele><time>2026-04-22T14:00:24Z</time></trkpt><trkpt lat="43.66674121747513" lon="7.048920878143064"><ele>188.4</ele><time>2026-04-22T14:00:25Z</time></trkpt><trkpt lat="43.66677401629252" lon="7.0487991014138505"><ele>188.6</ele><time>2026-04-22T14:00:26Z</time></trkpt><trkpt lat="43.66680434803477" lon="7.048681963671386"><ele>188.79999999999998</ele><time>2026-04-22T14:00:27Z</time></trkpt><trkpt lat="43.66683589213906" lon="7.048565903643209"><ele>189.0</ele><time>2026-04-22T14:00:28Z</time></trkpt><trkpt lat="43.66686587663579" lon="7.048442163083389"><ele>189.0</ele><time>2026-04-22T14:00:28.999Z</time></trkpt><trkpt lat="43.666899502375266" lon="7.048317847715722"><ele>189.0</ele><time>2026-04-22T14:00:29.999Z</time></trkpt><trkpt lat="43.666927920639914" lon="7.048192578387068"><ele>189.0</ele><time>2026-04-22T14:00:30.999Z</time></trkpt><trkpt lat="43.66695613302829" lon="7.048082139259136"><ele>189.0</ele><time>2026-04-22T14:00:31.999Z</time></trkpt><trkpt lat="43.66698303941049" lon="7.047988290945847"><ele>189.0</ele><time>2026-04-22T14:00:32.999Z</time></trkpt><trkpt lat="43.66700581703053" lon="7.0479024180661884"><ele>189.0</ele><time>2026-04-22T14:00:33.999Z</time></trkpt><trkpt lat="43.6670493403095" lon="7.047743738996022"><ele>188.79999999999998</ele><time>2026-04-22T14:00:35.999Z</time></trkpt><trkpt lat="43.66709534225913" lon="7.047587200779058"><ele>188.6</ele><time>2026-04-22T14:00:37.999Z</time></trkpt><trkpt lat="43.66715257258921" lon="7.047450015057872"><ele>188.4</ele><time>2026-04-22T14:00:39.999Z</time></trkpt><trkpt lat="43.667212822448974" lon="7.0473359133413265"><ele>188.2</ele><time>2026-04-22T14:00:41.999Z</time></trkpt><trkpt lat="43.667259545457725" lon="7.047273466716122"><ele>188.0</ele><time>2026-04-22T14:00:42.999Z</time></trkpt><trkpt lat="43.66725109108004" lon="7.047172124148606"><ele>188.0</ele><time>2026-04-22T14:00:43.999Z</time></trkpt><trkpt lat="43.66725651836553" lon="7.047080117014328"><ele>188.0</ele><time>2026-04-22T14:00:44.999Z</time></trkpt><trkpt lat="43.66726748196669" lon="7.046982358687445"><ele>188.0</ele><time>2026-04-22T14:00:45.999Z</time></trkpt><trkpt lat="43.66727948668131" lon="7.046882686919804"><ele>188.0</ele><time>2026-04-22T14:00:46.999Z</time></trkpt><trkpt lat="43.66729907944457" lon="7.046776866915111"><ele>188.0</ele><time>2026-04-22T14:00:47.999Z</time></trkpt><trkpt lat="43.66732626220595" lon="7.0466683974194355"><ele>188.0</ele><time>2026-04-22T14:00:48.999Z</time></trkpt><trkpt lat="43.667358214355666" lon="7.0465555072696"><ele>188.33333333333331</ele><time>2026-04-22T14:00:49.999Z</time></trkpt><trkpt lat="43.66739195330873" lon="7.046437427356835"><ele>188.66666666666666</ele><time>2026-04-22T14:00:50.999Z</time></trkpt><trkpt lat="43.667418760466326" lon="7.0463275621814265"><ele>189.0</ele><time>2026-04-22T14:00:51.999Z</time></trkpt><trkpt lat="43.66744911636027" lon="7.046219406113427"><ele>189.33333333333334</ele><time>2026-04-22T14:00:52.999Z</time></trkpt><trkpt lat="43.667480056914286" lon="7.046108512688797"><ele>189.66666666666669</ele><time>2026-04-22T14:00:53.999Z</time></trkpt><trkpt lat="43.6675109354924" lon="7.046001448222831"><ele>190.0</ele><time>2026-04-22T14:00:54.999Z</time></trkpt><trkpt lat="43.667541495659144" lon="7.045892968318128"><ele>189.83333333333334</ele><time>2026-04-22T14:00:55.999Z</time></trkpt><trkpt lat="43.66756937558599" lon="7.045749142990999"><ele>189.66666666666669</ele><time>2026-04-22T14:00:56.999Z</time></trkpt><trkpt lat="43.66759925693262" lon="7.045630557866067"><ele>189.5</ele><time>2026-04-22T14:00:57.999Z</time></trkpt><trkpt lat="43.66762878934355" lon="7.045521230193092"><ele>189.33333333333334</ele><time>2026-04-22T14:00:58.999Z</time></trkpt><trkpt lat="43.66765714363443" lon="7.04541583637986"><ele>189.16666666666666</ele><time>2026-04-22T14:00:59.999Z</time></trkpt><trkpt lat="43.667682064621296" lon="7.045318913491066"><ele>189.0</ele><time>2026-04-22T14:01:00.999Z</time></trkpt><trkpt lat="43.667705396734306" lon="7.045225805424237"><ele>189.0</ele><time>2026-04-22T14:01:01.999Z</time></trkpt><trkpt lat="43.667749138460124" lon="7.0450684689751135"><ele>189.0</ele><time>2026-04-22T14:01:03.999Z</time></trkpt><trkpt lat="43.66777468835196" lon="7.044975492064716"><ele>189.0</ele><time>2026-04-22T14:01:04.999Z</time></trkpt><trkpt lat="43.667800897891496" lon="7.044870765018023"><ele>189.0</ele><time>2026-04-22T14:01:05.999Z</time></trkpt><trkpt lat="43.667828303575504" lon="7.04476096591986"><ele>189.0</ele><time>2026-04-22T14:01:06.999Z</time></trkpt><trkpt lat="43.66785722366381" lon="7.044648296375613"><ele>189.0</ele><time>2026-04-22T14:01:07.999Z</time></trkpt><trkpt lat="43.66788629801264" lon="7.044537607216414"><ele>190.0</ele><time>2026-04-22T14:01:08.999Z</time></trkpt><trkpt lat="43.66790158773715" lon="7.044433046343398"><ele>191.0</ele><time>2026-04-22T14:01:09.999Z</time></trkpt><trkpt lat="43.667949722284774" lon="7.044302947322721"><ele>192.0</ele><time>2026-04-22T14:01:11.999Z</time></trkpt><trkpt lat="43.66798077145063" lon="7.04419444099113"><ele>193.0</ele><time>2026-04-22T14:01:13.999Z</time></trkpt><trkpt lat="43.66800785303699" lon="7.044085737623186"><ele>194.0</ele><time>2026-04-22T14:01:15.999Z</time></trkpt><trkpt lat="43.66804626842284" lon="7.043941967934352"><ele>194.0</ele><time>2026-04-22T14:01:17.999Z</time></trkpt><trkpt lat="43.66808978375625" lon="7.04378648791343"><ele>194.0</ele><time>2026-04-22T14:01:19.999Z</time></trkpt><trkpt lat="43.668125443452375" lon="7.043649061399818"><ele>194.0</ele><time>2026-04-22T14:01:21.999Z</time></trkpt><trkpt lat="43.668159656809685" lon="7.043489345943323"><ele>194.0</ele><time>2026-04-22T14:01:23.999Z</time></trkpt><trkpt lat="43.668182394029884" lon="7.043392475548367"><ele>194.0</ele><time>2026-04-22T14:01:24.999Z</time></trkpt><trkpt lat="43.66820529517865" lon="7.043298007024714"><ele>194.2</ele><time>2026-04-22T14:01:25.999Z</time></trkpt><trkpt lat="43.66824399920202" lon="7.043149355190239"><ele>194.39999999999998</ele><time>2026-04-22T14:01:27.999Z</time></trkpt><trkpt lat="43.668299397217446" lon="7.043039736930275"><ele>194.6</ele><time>2026-04-22T14:01:29.999Z</time></trkpt><trkpt lat="43.66837865360612" lon="7.042945042253448"><ele>194.8</ele><time>2026-04-22T14:01:31.999Z</time></trkpt><trkpt lat="43.6684158995365" lon="7.0428067464648585"><ele>195.0</ele><time>2026-04-22T14:01:33.999Z</time></trkpt><trkpt lat="43.66841384358234" lon="7.042719179559309"><ele>195.0</ele><time>2026-04-22T14:01:34.999Z</time></trkpt><trkpt lat="43.668412035751814" lon="7.042620999652704"><ele>195.0</ele><time>2026-04-22T14:01:35.999Z</time></trkpt><trkpt lat="43.66842507202667" lon="7.04251314232162"><ele>195.0</ele><time>2026-04-22T14:01:36.999Z</time></trkpt><trkpt lat="43.66844395351785" lon="7.042388633184228"><ele>195.0</ele><time>2026-04-22T14:01:37.999Z</time></trkpt><trkpt lat="43.66848173499816" lon="7.042251414084792"><ele>195.0</ele><time>2026-04-22T14:01:38.999Z</time></trkpt><trkpt lat="43.66852162226786" lon="7.0421105707206175"><ele>195.4</ele><time>2026-04-22T14:01:39.999Z</time></trkpt><trkpt lat="43.668559377482794" lon="7.0419774844669"><ele>195.8</ele><time>2026-04-22T14:01:40.999Z</time></trkpt><trkpt lat="43.66860949975461" lon="7.041842317986696"><ele>196.2</ele><time>2026-04-22T14:01:41.998Z</time></trkpt><trkpt lat="43.668669102787334" lon="7.041705627317098"><ele>196.6</ele><time>2026-04-22T14:01:42.998Z</time></trkpt><trkpt lat="43.66873968769487" lon="7.041573281086503"><ele>197.0</ele><time>2026-04-22T14:01:43.998Z</time></trkpt><trkpt lat="43.66881493566683" lon="7.041445756330156"><ele>198.75</ele><time>2026-04-22T14:01:44.998Z</time></trkpt><trkpt lat="43.66889895679665" lon="7.041329990093892"><ele>200.5</ele><time>2026-04-22T14:01:45.998Z</time></trkpt><trkpt lat="43.668985630161124" lon="7.041217889697832"><ele>202.25</ele><time>2026-04-22T14:01:46.998Z</time></trkpt><trkpt lat="43.6690773554972" lon="7.041107314259964"><ele>204.0</ele><time>2026-04-22T14:01:47.998Z</time></trkpt><trkpt lat="43.66917843064783" lon="7.041007173215963"><ele>204.0</ele><time>2026-04-22T14:01:48.998Z</time></trkpt><trkpt lat="43.66928330600435" lon="7.040904341532231"><ele>204.0</ele><time>2026-04-22T14:01:49.998Z</time></trkpt><trkpt lat="43.66940250797567" lon="7.040813460403064"><ele>204.0</ele><time>2026-04-22T14:01:50.998Z</time></trkpt><trkpt lat="43.6695174597748" lon="7.040705665563474"><ele>204.0</ele><time>2026-04-22T14:01:51.998Z</time></trkpt><trkpt lat="43.669609520453726" lon="7.040574574955734"><ele>204.25</ele><time>2026-04-22T14:01:52.998Z</time></trkpt><trkpt lat="43.66970771856804" lon="7.04046275531594"><ele>204.5</ele><time>2026-04-22T14:01:53.998Z</time></trkpt><trkpt lat="43.6698154677613" lon="7.040363353986813"><ele>204.75</ele><time>2026-04-22T14:01:54.998Z</time></trkpt><trkpt lat="43.6699073342746" lon="7.040246930973767"><ele>205.0</ele><time>2026-04-22T14:01:55.998Z</time></trkpt><trkpt lat="43.66999974515403" lon="7.040129818014026"><ele>205.0</ele><time>2026-04-22T14:01:56.998Z</time></trkpt><trkpt lat="43.67008169786401" lon="7.0399959364214855"><ele>205.0</ele><time>2026-04-22T14:01:57.998Z</time></trkpt><trkpt lat="43.670177590150196" lon="7.039872816075707"><ele>205.0</ele><time>2026-04-22T14:01:58.998Z</time></trkpt><trkpt lat="43.67027786239046" lon="7.039745810453747"><ele>205.0</ele><time>2026-04-22T14:01:59.998Z</time></trkpt><trkpt lat="43.670382795040894" lon="7.03961319984435"><ele>205.33333333333331</ele><time>2026-04-22T14:02:00.998Z</time></trkpt><trkpt lat="43.67049648585361" lon="7.039474074014497"><ele>205.66666666666669</ele><time>2026-04-22T14:02:01.998Z</time></trkpt><trkpt lat="43.67061143911551" lon="7.039323727307638"><ele>206.0</ele><time>2026-04-22T14:02:02.998Z</time></trkpt><trkpt lat="43.670731804238706" lon="7.039170770160769"><ele>208.33333333333334</ele><time>2026-04-22T14:02:03.998Z</time></trkpt><trkpt lat="43.67085590381384" lon="7.039014875292918"><ele>210.66666666666669</ele><time>2026-04-22T14:02:04.998Z</time></trkpt><trkpt lat="43.670971988746146" lon="7.038872048804607"><ele>213.0</ele><time>2026-04-22T14:02:05.998Z</time></trkpt><trkpt lat="43.67108240182792" lon="7.038733617838213"><ele>213.5</ele><time>2026-04-22T14:02:07Z</time></trkpt><trkpt lat="43.67118961221825" lon="7.038600194110823"><ele>214.0</ele><time>2026-04-22T14:02:08Z</time></trkpt><trkpt lat="43.67129157195018" lon="7.038467567457513"><ele>214.5</ele><time>2026-04-22T14:02:09Z</time></trkpt><trkpt lat="43.671396885622464" lon="7.038341941858419"><ele>215.0</ele><time>2026-04-22T14:02:10Z</time></trkpt><trkpt lat="43.67150219552847" lon="7.038220225975023"><ele>215.75</ele><time>2026-04-22T14:02:11Z</time></trkpt><trkpt lat="43.67160885819602" lon="7.038095346312459"><ele>216.5</ele><time>2026-04-22T14:02:12Z</time></trkpt><trkpt lat="43.67170526906862" lon="7.037965422320405"><ele>217.25</ele><time>2026-04-22T14:02:13Z</time></trkpt><trkpt lat="43.6717971675482" lon="7.037837673799444"><ele>218.0</ele><time>2026-04-22T14:02:14Z</time></trkpt><trkpt lat="43.67189366284909" lon="7.037735319733129"><ele>217.5</ele><time>2026-04-22T14:02:15Z</time></trkpt><trkpt lat="43.671976556323806" lon="7.03760683759392"><ele>217.0</ele><time>2026-04-22T14:02:16Z</time></trkpt><trkpt lat="43.67204715293518" lon="7.037464059571323"><ele>216.5</ele><time>2026-04-22T14:02:17Z</time></trkpt><trkpt lat="43.67211036814147" lon="7.037302074274879"><ele>216.0</ele><time>2026-04-22T14:02:18Z</time></trkpt><trkpt lat="43.67215856979193" lon="7.037140307717964"><ele>216.0</ele><time>2026-04-22T14:02:19Z</time></trkpt><trkpt lat="43.67219710691296" lon="7.036979882546568"><ele>216.0</ele><time>2026-04-22T14:02:20Z</time></trkpt><trkpt lat="43.67221547353429" lon="7.036806874779779"><ele>216.0</ele><time>2026-04-22T14:02:21Z</time></trkpt><trkpt lat="43.67222754345004" lon="7.036634677927184"><ele>216.0</ele><time>2026-04-22T14:02:22Z</time></trkpt><trkpt lat="43.67222338946855" lon="7.036439398814543"><ele>216.33333333333331</ele><time>2026-04-22T14:02:23Z</time></trkpt><trkpt lat="43.672204587860634" lon="7.036240555159227"><ele>216.66666666666666</ele><time>2026-04-22T14:02:24Z</time></trkpt><trkpt lat="43.67218363246374" lon="7.036037488263729"><ele>217.0</ele><time>2026-04-22T14:02:25Z</time></trkpt><trkpt lat="43.67214714799209" lon="7.035823747844357"><ele>218.33333333333331</ele><time>2026-04-22T14:02:26Z</time></trkpt><trkpt lat="43.67212841430022" lon="7.035601707127514"><ele>219.66666666666669</ele><time>2026-04-22T14:02:27Z</time></trkpt><trkpt lat="43.67210883601121" lon="7.035368542275673"><ele>221.0</ele><time>2026-04-22T14:02:28Z</time></trkpt><trkpt lat="43.67208802881242" lon="7.035129160204876"><ele>222.33333333333334</ele><time>2026-04-22T14:02:29Z</time></trkpt><trkpt lat="43.67206508961967" lon="7.034901072029854"><ele>223.66666666666669</ele><time>2026-04-22T14:02:29.999Z</time></trkpt><trkpt lat="43.672038150966415" lon="7.034683889468067"><ele>225.0</ele><time>2026-04-22T14:02:30.999Z</time></trkpt><trkpt lat="43.67201664403665" lon="7.034468257556418"><ele>225.0</ele><time>2026-04-22T14:02:31.999Z</time></trkpt><trkpt lat="43.671996584627216" lon="7.034253848713152"><ele>225.0</ele><time>2026-04-22T14:02:32.999Z</time></trkpt><trkpt lat="43.671974659408576" lon="7.034040581228264"><ele>225.0</ele><time>2026-04-22T14:02:33.999Z</time></trkpt><trkpt lat="43.67195473297233" lon="7.033827757249054"><ele>224.0</ele><time>2026-04-22T14:02:34.999Z</time></trkpt><trkpt lat="43.67193517229617" lon="7.033610970188576"><ele>223.0</ele><time>2026-04-22T14:02:35.999Z</time></trkpt><trkpt lat="43.671916043905924" lon="7.03339489697003"><ele>222.0</ele><time>2026-04-22T14:02:36.999Z</time></trkpt><trkpt lat="43.67189937180433" lon="7.033179200329157"><ele>222.0</ele><time>2026-04-22T14:02:37.999Z</time></trkpt><trkpt lat="43.6718821743269" lon="7.032962973226108"><ele>222.0</ele><time>2026-04-22T14:02:38.999Z</time></trkpt><trkpt lat="43.67186254282825" lon="7.032745381162013"><ele>222.0</ele><time>2026-04-22T14:02:39.999Z</time></trkpt><trkpt lat="43.67183949011546" lon="7.032530810938547"><ele>223.0</ele><time>2026-04-22T14:02:40.999Z</time></trkpt><trkpt lat="43.67181255834957" lon="7.032319908675745"><ele>224.0</ele><time>2026-04-22T14:02:41.999Z</time></trkpt><trkpt lat="43.67178438136887" lon="7.032110857046006"><ele>225.0</ele><time>2026-04-22T14:02:42.999Z</time></trkpt><trkpt lat="43.67175589914663" lon="7.031897979123917"><ele>225.0</ele><time>2026-04-22T14:02:43.999Z</time></trkpt><trkpt lat="43.671728731759806" lon="7.031675786251951"><ele>225.0</ele><time>2026-04-22T14:02:44.999Z</time></trkpt><trkpt lat="43.67170182412137" lon="7.031445656658315"><ele>225.0</ele><time>2026-04-22T14:02:45.999Z</time></trkpt><trkpt lat="43.671673342769715" lon="7.031212568776971"><ele>226.0</ele><time>2026-04-22T14:02:46.999Z</time></trkpt><trkpt lat="43.67164481006331" lon="7.030976501908412"><ele>227.0</ele><time>2026-04-22T14:02:47.999Z</time></trkpt><trkpt lat="43.67161774895131" lon="7.030744436733453"><ele>228.0</ele><time>2026-04-22T14:02:48.999Z</time></trkpt><trkpt lat="43.67159399533895" lon="7.030525660598999"><ele>229.66666666666669</ele><time>2026-04-22T14:02:49.999Z</time></trkpt><trkpt lat="43.671575381561524" lon="7.030314623086284"><ele>231.33333333333334</ele><time>2026-04-22T14:02:50.999Z</time></trkpt><trkpt lat="43.67155703984051" lon="7.030107131341601"><ele>233.0</ele><time>2026-04-22T14:02:51.999Z</time></trkpt><trkpt lat="43.67154093518966" lon="7.029908197183383"><ele>233.75</ele><time>2026-04-22T14:02:52.999Z</time></trkpt><trkpt lat="43.671533157009776" lon="7.029713987013316"><ele>234.5</ele><time>2026-04-22T14:02:53.999Z</time></trkpt><trkpt lat="43.67153681118854" lon="7.029520600013894"><ele>235.25</ele><time>2026-04-22T14:02:54.999Z</time></trkpt><trkpt lat="43.67155464587138" lon="7.029330409575478"><ele>236.0</ele><time>2026-04-22T14:02:55.999Z</time></trkpt><trkpt lat="43.67157932870802" lon="7.029142894196639"><ele>235.0</ele><time>2026-04-22T14:02:56.999Z</time></trkpt><trkpt lat="43.6716255612081" lon="7.028965804308542"><ele>234.0</ele><time>2026-04-22T14:02:57.999Z</time></trkpt><trkpt lat="43.67168243925265" lon="7.028792826964059"><ele>233.0</ele><time>2026-04-22T14:02:58.999Z</time></trkpt><trkpt lat="43.67174968451133" lon="7.028639178109414"><ele>232.0</ele><time>2026-04-22T14:03:00Z</time></trkpt><trkpt lat="43.67182684502287" lon="7.028504329826957"><ele>232.0</ele><time>2026-04-22T14:03:01Z</time></trkpt><trkpt lat="43.671909354476206" lon="7.028379240683888"><ele>232.0</ele><time>2026-04-22T14:03:02Z</time></trkpt><trkpt lat="43.67198571966179" lon="7.028262039490175"><ele>232.0</ele><time>2026-04-22T14:03:03Z</time></trkpt><trkpt lat="43.67205937291205" lon="7.02813135733053"><ele>232.0</ele><time>2026-04-22T14:03:04Z</time></trkpt><trkpt lat="43.67212136248447" lon="7.02801638741299"><ele>233.49999999999997</ele><time>2026-04-22T14:03:05Z</time></trkpt><trkpt lat="43.67217885956237" lon="7.027910110445554"><ele>235.0</ele><time>2026-04-22T14:03:06Z</time></trkpt><trkpt lat="43.672228467101746" lon="7.027814457098899"><ele>236.5</ele><time>2026-04-22T14:03:07Z</time></trkpt><trkpt lat="43.67227593368993" lon="7.0277329939477875"><ele>238.0</ele><time>2026-04-22T14:03:08Z</time></trkpt><trkpt lat="43.67232294880315" lon="7.027655384120994"><ele>239.49999999999997</ele><time>2026-04-22T14:03:09Z</time></trkpt><trkpt lat="43.67235412147029" lon="7.0275756303577825"><ele>241.0</ele><time>2026-04-22T14:03:10Z</time></trkpt><trkpt lat="43.67239294852652" lon="7.027464556822779"><ele>242.49999999999997</ele><time>2026-04-22T14:03:12Z</time></trkpt><trkpt lat="43.672333368741356" lon="7.02738436848735"><ele>244.0</ele><time>2026-04-22T14:03:13Z</time></trkpt><trkpt lat="43.67225629689628" lon="7.027296235527164"><ele>245.5</ele><time>2026-04-22T14:03:15Z</time></trkpt><trkpt lat="43.6722236565698" lon="7.027221394813989"><ele>247.0</ele><time>2026-04-22T14:03:16Z</time></trkpt><trkpt lat="43.67220259975056" lon="7.027133468689219"><ele>248.49999999999997</ele><time>2026-04-22T14:03:17Z</time></trkpt><trkpt lat="43.67214958152799" lon="7.026974688693455"><ele>250.0</ele><time>2026-04-22T14:03:19Z</time></trkpt><trkpt lat="43.672103839577545" lon="7.026879266455936"><ele>250.0</ele><time>2026-04-22T14:03:20Z</time></trkpt><trkpt lat="43.67204759735712" lon="7.026776719059527"><ele>250.0</ele><time>2026-04-22T14:03:21Z</time></trkpt><trkpt lat="43.671988114862074" lon="7.02665254889969"><ele>250.0</ele><time>2026-04-22T14:03:22Z</time></trkpt><trkpt lat="43.671922067911474" lon="7.026526161565525"><ele>250.0</ele><time>2026-04-22T14:03:23Z</time></trkpt><trkpt lat="43.671867659866265" lon="7.026401127854823"><ele>250.0</ele><time>2026-04-22T14:03:24Z</time></trkpt><trkpt lat="43.671822993793484" lon="7.026258165450168"><ele>249.0</ele><time>2026-04-22T14:03:25Z</time></trkpt><trkpt lat="43.67179267650811" lon="7.026116991790017"><ele>248.0</ele><time>2026-04-22T14:03:26Z</time></trkpt><trkpt lat="43.671771926405356" lon="7.025988083783752"><ele>247.0</ele><time>2026-04-22T14:03:27Z</time></trkpt><trkpt lat="43.671765997704874" lon="7.025856818133594"><ele>246.0</ele><time>2026-04-22T14:03:28Z</time></trkpt><trkpt lat="43.671774287395685" lon="7.025715876909147"><ele>245.0</ele><time>2026-04-22T14:03:29Z</time></trkpt><trkpt lat="43.67179794997779" lon="7.025570891250988"><ele>245.0</ele><time>2026-04-22T14:03:30Z</time></trkpt><trkpt lat="43.67184358684426" lon="7.025429524346798"><ele>245.0</ele><time>2026-04-22T14:03:31Z</time></trkpt><trkpt lat="43.671910123964146" lon="7.025297211133989"><ele>245.0</ele><time>2026-04-22T14:03:32Z</time></trkpt><trkpt lat="43.671985835735775" lon="7.025170944276261"><ele>245.0</ele><time>2026-04-22T14:03:33Z</time></trkpt><trkpt lat="43.672070184302285" lon="7.025049814570659"><ele>246.0</ele><time>2026-04-22T14:03:34Z</time></trkpt><trkpt lat="43.672157475346275" lon="7.024921919924483"><ele>247.0</ele><time>2026-04-22T14:03:35Z</time></trkpt><trkpt lat="43.67225043619826" lon="7.024779545277789"><ele>248.0</ele><time>2026-04-22T14:03:36Z</time></trkpt><trkpt lat="43.672290878707166" lon="7.0246315956533225"><ele>249.0</ele><time>2026-04-22T14:03:37Z</time></trkpt><trkpt lat="43.67240845269595" lon="7.024511115007768"><ele>249.0</ele><time>2026-04-22T14:03:38Z</time></trkpt><trkpt lat="43.67252075644511" lon="7.024384523499253"><ele>249.0</ele><time>2026-04-22T14:03:39Z</time></trkpt><trkpt lat="43.67263287414616" lon="7.0242780509871965"><ele>249.0</ele><time>2026-04-22T14:03:40Z</time></trkpt><trkpt lat="43.672751990540824" lon="7.024175935803014"><ele>249.0</ele><time>2026-04-22T14:03:41Z</time></trkpt><trkpt lat="43.67288683067033" lon="7.024104291168809"><ele>248.25</ele><time>2026-04-22T14:03:42Z</time></trkpt><trkpt lat="43.67301068020087" lon="7.02400376885271"><ele>247.5</ele><time>2026-04-22T14:03:43Z</time></trkpt><trkpt lat="43.67315764776094" lon="7.023961681753535"><ele>246.75</ele><time>2026-04-22T14:03:43.999Z</time></trkpt><trkpt lat="43.6733007229677" lon="7.023895198295806"><ele>246.0</ele><time>2026-04-22T14:03:44.999Z</time></trkpt><trkpt lat="43.67345649668726" lon="7.023836183530153"><ele>248.0</ele><time>2026-04-22T14:03:45.999Z</time></trkpt><trkpt lat="43.673621499195235" lon="7.023796930415927"><ele>250.0</ele><time>2026-04-22T14:03:46.999Z</time></trkpt><trkpt lat="43.67379206620915" lon="7.023729162863323"><ele>252.0</ele><time>2026-04-22T14:03:47.999Z</time></trkpt><trkpt lat="43.67394843182139" lon="7.023696554702354"><ele>252.0</ele><time>2026-04-22T14:03:48.999Z</time></trkpt><trkpt lat="43.67409225974107" lon="7.023662019995836"><ele>252.0</ele><time>2026-04-22T14:03:49.999Z</time></trkpt><trkpt lat="43.674223298059964" lon="7.023635597730831"><ele>252.0</ele><time>2026-04-22T14:03:50.999Z</time></trkpt><trkpt lat="43.67434275360424" lon="7.02360635629838"><ele>252.0</ele><time>2026-04-22T14:03:51.999Z</time></trkpt><trkpt lat="43.67446064111864" lon="7.023550867563814"><ele>253.75</ele><time>2026-04-22T14:03:52.999Z</time></trkpt><trkpt lat="43.67457063758454" lon="7.023468317146431"><ele>255.5</ele><time>2026-04-22T14:03:53.999Z</time></trkpt><trkpt lat="43.67466368180039" lon="7.023363355221994"><ele>257.25</ele><time>2026-04-22T14:03:54.999Z</time></trkpt><trkpt lat="43.67474114753748" lon="7.023223563547029"><ele>259.0</ele><time>2026-04-22T14:03:55.999Z</time></trkpt><trkpt lat="43.67481068857434" lon="7.0230497599176305"><ele>259.0</ele><time>2026-04-22T14:03:56.999Z</time></trkpt><trkpt lat="43.67487006448353" lon="7.0228519746874785"><ele>259.0</ele><time>2026-04-22T14:03:57.999Z</time></trkpt><trkpt lat="43.67492836130234" lon="7.022634597413075"><ele>259.0</ele><time>2026-04-22T14:03:58.999Z</time></trkpt><trkpt lat="43.6750019065834" lon="7.02243762034602"><ele>259.0</ele><time>2026-04-22T14:03:59.999Z</time></trkpt><trkpt lat="43.675067800878075" lon="7.022265001571481"><ele>259.0</ele><time>2026-04-22T14:04:00.999Z</time></trkpt><trkpt lat="43.67512167404561" lon="7.022113626375977"><ele>259.0</ele><time>2026-04-22T14:04:01.999Z</time></trkpt><trkpt lat="43.675164382114126" lon="7.021972626554727"><ele>259.0</ele><time>2026-04-22T14:04:02.999Z</time></trkpt><trkpt lat="43.675183970785376" lon="7.02183276095993"><ele>259.0</ele><time>2026-04-22T14:04:03.999Z</time></trkpt><trkpt lat="43.67518820090452" lon="7.021689904805529"><ele>259.0</ele><time>2026-04-22T14:04:04.999Z</time></trkpt><trkpt lat="43.67518336808721" lon="7.021536449576608"><ele>259.0</ele><time>2026-04-22T14:04:05.999Z</time></trkpt><trkpt lat="43.675171991860054" lon="7.021370673213233"><ele>259.0</ele><time>2026-04-22T14:04:06.999Z</time></trkpt><trkpt lat="43.67516729380272" lon="7.021208151667663"><ele>259.0</ele><time>2026-04-22T14:04:07.999Z</time></trkpt><trkpt lat="43.675196116418114" lon="7.021054244247704"><ele>259.0</ele><time>2026-04-22T14:04:08.999Z</time></trkpt><trkpt lat="43.67521670569495" lon="7.020907195265519"><ele>259.0</ele><time>2026-04-22T14:04:09.999Z</time></trkpt><trkpt lat="43.675235572096085" lon="7.020747336708965"><ele>259.0</ele><time>2026-04-22T14:04:10.999Z</time></trkpt><trkpt lat="43.67529836668005" lon="7.020604629171808"><ele>261.25</ele><time>2026-04-22T14:04:11.999Z</time></trkpt><trkpt lat="43.67535757556842" lon="7.020456273486358"><ele>263.5</ele><time>2026-04-22T14:04:13.001Z</time></trkpt><trkpt lat="43.67542182774873" lon="7.020302531499398"><ele>265.75</ele><time>2026-04-22T14:04:14.001Z</time></trkpt><trkpt lat="43.67549280920676" lon="7.020152900561712"><ele>268.0</ele><time>2026-04-22T14:04:15.001Z</time></trkpt><trkpt lat="43.67555051167622" lon="7.019983162597801"><ele>268.0</ele><time>2026-04-22T14:04:16.001Z</time></trkpt><trkpt lat="43.67563781219891" lon="7.019834186396022"><ele>268.0</ele><time>2026-04-22T14:04:17.001Z</time></trkpt><trkpt lat="43.6757150133491" lon="7.019666885836361"><ele>268.0</ele><time>2026-04-22T14:04:18.001Z</time></trkpt><trkpt lat="43.67579213180344" lon="7.019499764483541"><ele>268.0</ele><time>2026-04-22T14:04:19.001Z</time></trkpt><trkpt lat="43.67584940338642" lon="7.019326819554576"><ele>268.0</ele><time>2026-04-22T14:04:20.001Z</time></trkpt><trkpt lat="43.67593942859636" lon="7.019176754480275"><ele>268.0</ele><time>2026-04-22T14:04:21.001Z</time></trkpt><trkpt lat="43.676026473261324" lon="7.019024264509213"><ele>268.0</ele><time>2026-04-22T14:04:22.001Z</time></trkpt><trkpt lat="43.67611912554842" lon="7.018874488059713"><ele>268.0</ele><time>2026-04-22T14:04:23.001Z</time></trkpt><trkpt lat="43.6762207680769" lon="7.0187415610529245"><ele>269.0</ele><time>2026-04-22T14:04:24.001Z</time></trkpt><trkpt lat="43.67632193172646" lon="7.018633918424286"><ele>270.0</ele><time>2026-04-22T14:04:25.001Z</time></trkpt><trkpt lat="43.67641383726836" lon="7.018548024589386"><ele>271.0</ele><time>2026-04-22T14:04:26.001Z</time></trkpt><trkpt lat="43.67649303096452" lon="7.018459644006468"><ele>272.0</ele><time>2026-04-22T14:04:27.001Z</time></trkpt><trkpt lat="43.67657748931213" lon="7.018395286723372"><ele>273.0</ele><time>2026-04-22T14:04:28.001Z</time></trkpt><trkpt lat="43.67665560901454" lon="7.018339239990397"><ele>273.0</ele><time>2026-04-22T14:04:29.001Z</time></trkpt><trkpt lat="43.676729488312056" lon="7.018277630531173"><ele>273.0</ele><time>2026-04-22T14:04:30.001Z</time></trkpt><trkpt lat="43.676801087603124" lon="7.018206871892999"><ele>273.0</ele><time>2026-04-22T14:04:31.001Z</time></trkpt><trkpt lat="43.67687137721895" lon="7.0181219555112575"><ele>273.0</ele><time>2026-04-22T14:04:32.001Z</time></trkpt><trkpt lat="43.67692947665867" lon="7.0180257028797834"><ele>273.0</ele><time>2026-04-22T14:04:33Z</time></trkpt><trkpt lat="43.67698537498903" lon="7.017920973231642"><ele>273.0</ele><time>2026-04-22T14:04:34Z</time></trkpt><trkpt lat="43.67703732799484" lon="7.017807980374227"><ele>273.0</ele><time>2026-04-22T14:04:35Z</time></trkpt><trkpt lat="43.677082654834756" lon="7.017691442447803"><ele>273.0</ele><time>2026-04-22T14:04:36Z</time></trkpt><trkpt lat="43.67711391080616" lon="7.017567062906469"><ele>273.0</ele><time>2026-04-22T14:04:37Z</time></trkpt><trkpt lat="43.67713784393543" lon="7.017433173600482"><ele>273.0</ele><time>2026-04-22T14:04:38Z</time></trkpt><trkpt lat="43.67715399732379" lon="7.017299453416329"><ele>273.6</ele><time>2026-04-22T14:04:39Z</time></trkpt><trkpt lat="43.677159315391705" lon="7.017160719580977"><ele>274.20000000000005</ele><time>2026-04-22T14:04:40Z</time></trkpt><trkpt lat="43.67715950323324" lon="7.01702067478358"><ele>274.8</ele><time>2026-04-22T14:04:41Z</time></trkpt><trkpt lat="43.67714945396426" lon="7.016871710902029"><ele>275.40000000000003</ele><time>2026-04-22T14:04:42Z</time></trkpt><trkpt lat="43.67713408521116" lon="7.016716308803499"><ele>276.0</ele><time>2026-04-22T14:04:43Z</time></trkpt><trkpt lat="43.677099934102756" lon="7.016561730410412"><ele>276.0</ele><time>2026-04-22T14:04:44Z</time></trkpt><trkpt lat="43.67705612268694" lon="7.016415953451218"><ele>276.0</ele><time>2026-04-22T14:04:45Z</time></trkpt><trkpt lat="43.677003355025796" lon="7.01627810254312"><ele>276.0</ele><time>2026-04-22T14:04:46Z</time></trkpt><trkpt lat="43.676937802202744" lon="7.016148912966507"><ele>276.0</ele><time>2026-04-22T14:04:47Z</time></trkpt><trkpt lat="43.67686343751501" lon="7.016029177570906"><ele>276.0</ele><time>2026-04-22T14:04:48Z</time></trkpt><trkpt lat="43.67678531672825" lon="7.015914252014964"><ele>276.0</ele><time>2026-04-22T14:04:49Z</time></trkpt><trkpt lat="43.6767105573538" lon="7.015798154687782"><ele>276.0</ele><time>2026-04-22T14:04:50Z</time></trkpt><trkpt lat="43.676637532850236" lon="7.015679154871539"><ele>276.0</ele><time>2026-04-22T14:04:51Z</time></trkpt><trkpt lat="43.67657024559308" lon="7.01556319992524"><ele>276.0</ele><time>2026-04-22T14:04:52Z</time></trkpt><trkpt lat="43.67652011705539" lon="7.015435053544739"><ele>277.0</ele><time>2026-04-22T14:04:53Z</time></trkpt><trkpt lat="43.67647411873185" lon="7.015305965159013"><ele>278.0</ele><time>2026-04-22T14:04:54Z</time></trkpt><trkpt lat="43.676430825938084" lon="7.01517649496979"><ele>279.0</ele><time>2026-04-22T14:04:55Z</time></trkpt><trkpt lat="43.676397450788954" lon="7.015042309475831"><ele>280.0</ele><time>2026-04-22T14:04:56Z</time></trkpt><trkpt lat="43.676370105008544" lon="7.014901470197219"><ele>281.0</ele><time>2026-04-22T14:04:57Z</time></trkpt><trkpt lat="43.67635986550556" lon="7.014756008558359"><ele>281.5</ele><time>2026-04-22T14:04:58Z</time></trkpt><trkpt lat="43.676365146121476" lon="7.014607242409136"><ele>282.0</ele><time>2026-04-22T14:04:59Z</time></trkpt><trkpt lat="43.67638518860061" lon="7.014454888027378"><ele>282.5</ele><time>2026-04-22T14:05:00Z</time></trkpt><trkpt lat="43.67642119504385" lon="7.014306069534444"><ele>283.0</ele><time>2026-04-22T14:05:01Z</time></trkpt><trkpt lat="43.67647065335705" lon="7.014157518414202"><ele>283.5</ele><time>2026-04-22T14:05:02Z</time></trkpt><trkpt lat="43.67652907641003" lon="7.014008319235704"><ele>284.0</ele><time>2026-04-22T14:05:03Z</time></trkpt><trkpt lat="43.67658107909375" lon="7.013857938281103"><ele>284.5</ele><time>2026-04-22T14:05:04Z</time></trkpt><trkpt lat="43.67662279366686" lon="7.013717851644292"><ele>285.0</ele><time>2026-04-22T14:05:05Z</time></trkpt><trkpt lat="43.67664970629856" lon="7.013585479400044"><ele>285.0</ele><time>2026-04-22T14:05:06Z</time></trkpt><trkpt lat="43.67665999792359" lon="7.013450187878363"><ele>285.0</ele><time>2026-04-22T14:05:07Z</time></trkpt><trkpt lat="43.676652975804124" lon="7.013322517107496"><ele>285.0</ele><time>2026-04-22T14:05:08Z</time></trkpt><trkpt lat="43.67663439912128" lon="7.013212993855715"><ele>285.0</ele><time>2026-04-22T14:05:09Z</time></trkpt><trkpt lat="43.6766093874472" lon="7.0131297310850025"><ele>285.0</ele><time>2026-04-22T14:05:10Z</time></trkpt><trkpt lat="43.67657544488928" lon="7.01304040090778"><ele>285.0</ele><time>2026-04-22T14:05:12Z</time></trkpt><trkpt lat="43.676506845545745" lon="7.012904399927865"><ele>285.6</ele><time>2026-04-22T14:05:36Z</time></trkpt><trkpt lat="43.67645995264664" lon="7.0128132042416915"><ele>286.2</ele><time>2026-04-22T14:05:37Z</time></trkpt><trkpt lat="43.67640628601097" lon="7.012688841028132"><ele>286.8</ele><time>2026-04-22T14:05:38Z</time></trkpt><trkpt lat="43.676358728259245" lon="7.012604753921829"><ele>287.4</ele><time>2026-04-22T14:05:39Z</time></trkpt><trkpt lat="43.67630314092224" lon="7.012501080796472"><ele>288.0</ele><time>2026-04-22T14:05:40Z</time></trkpt><trkpt lat="43.67624764603716" lon="7.012394060850977"><ele>288.2</ele><time>2026-04-22T14:05:41Z</time></trkpt><trkpt lat="43.676182927122824" lon="7.01227088541814"><ele>288.4</ele><time>2026-04-22T14:05:42Z</time></trkpt><trkpt lat="43.676117622541824" lon="7.012137355839008"><ele>288.59999999999997</ele><time>2026-04-22T14:05:43Z</time></trkpt><trkpt lat="43.6760567796631" lon="7.011994968957609"><ele>288.8</ele><time>2026-04-22T14:05:43.999Z</time></trkpt><trkpt lat="43.675998548555796" lon="7.011886483225085"><ele>289.0</ele><time>2026-04-22T14:05:44.999Z</time></trkpt><trkpt lat="43.675953599034564" lon="7.01179460903697"><ele>289.0</ele><time>2026-04-22T14:05:45.999Z</time></trkpt><trkpt lat="43.67590651566395" lon="7.0116929966971435"><ele>289.0</ele><time>2026-04-22T14:05:47.999Z</time></trkpt><trkpt lat="43.67585894087773" lon="7.011606668115444"><ele>289.0</ele><time>2026-04-22T14:06:05.999Z</time></trkpt><trkpt lat="43.675784395250275" lon="7.011459283316527"><ele>289.0</ele><time>2026-04-22T14:06:07.999Z</time></trkpt><trkpt lat="43.67573678585637" lon="7.011360592851222"><ele>289.0</ele><time>2026-04-22T14:06:08.999Z</time></trkpt><trkpt lat="43.67569657907241" lon="7.011277392306726"><ele>290.16666666666663</ele><time>2026-04-22T14:06:09.999Z</time></trkpt><trkpt lat="43.67565324825453" lon="7.011187856178904"><ele>291.3333333333333</ele><time>2026-04-22T14:06:10.999Z</time></trkpt><trkpt lat="43.67560475086417" lon="7.01109956600229"><ele>292.5</ele><time>2026-04-22T14:06:11.999Z</time></trkpt><trkpt lat="43.6755534669951" lon="7.011000912588212"><ele>293.6666666666667</ele><time>2026-04-22T14:06:12.999Z</time></trkpt><trkpt lat="43.67549677206161" lon="7.010894814342452"><ele>294.83333333333337</ele><time>2026-04-22T14:06:13.999Z</time></trkpt><trkpt lat="43.67542901554294" lon="7.010802280299915"><ele>296.0</ele><time>2026-04-22T14:06:14.999Z</time></trkpt><trkpt lat="43.67535157371485" lon="7.010718692885353"><ele>296.40000000000003</ele><time>2026-04-22T14:06:15.999Z</time></trkpt><trkpt lat="43.675273263471574" lon="7.010624401324799"><ele>296.8</ele><time>2026-04-22T14:06:16.999Z</time></trkpt><trkpt lat="43.67516312383406" lon="7.0105913296639955"><ele>297.20000000000005</ele><time>2026-04-22T14:06:17.999Z</time></trkpt><trkpt lat="43.67507054827239" lon="7.010541973487053"><ele>297.6</ele><time>2026-04-22T14:06:19.001Z</time></trkpt><trkpt lat="43.674978463474105" lon="7.010491629860016"><ele>298.0</ele><time>2026-04-22T14:06:20.001Z</time></trkpt><trkpt lat="43.67489153144808" lon="7.0104231393285215"><ele>298.0</ele><time>2026-04-22T14:06:21.001Z</time></trkpt><trkpt lat="43.67480641545916" lon="7.010353507775192"><ele>298.0</ele><time>2026-04-22T14:06:22.001Z</time></trkpt><trkpt lat="43.67475276769708" lon="7.010237163156206"><ele>298.0</ele><time>2026-04-22T14:06:23.001Z</time></trkpt><trkpt lat="43.674700766494865" lon="7.010114439110328"><ele>298.0</ele><time>2026-04-22T14:06:24.001Z</time></trkpt><trkpt lat="43.67466359782057" lon="7.009970137061615"><ele>298.0</ele><time>2026-04-22T14:06:25.001Z</time></trkpt><trkpt lat="43.67466792641845" lon="7.009808260497636"><ele>299.4</ele><time>2026-04-22T14:06:26.001Z</time></trkpt><trkpt lat="43.674635367238906" lon="7.009639885541275"><ele>300.8</ele><time>2026-04-22T14:06:27.001Z</time></trkpt><trkpt lat="43.674587200917266" lon="7.009486959204064"><ele>302.2</ele><time>2026-04-22T14:06:28.001Z</time></trkpt><trkpt lat="43.67455412629742" lon="7.00936152386965"><ele>303.6</ele><time>2026-04-22T14:06:29.001Z</time></trkpt><trkpt lat="43.67452232115657" lon="7.009245796740127"><ele>305.0</ele><time>2026-04-22T14:06:30Z</time></trkpt><trkpt lat="43.67448983343855" lon="7.009129999325702"><ele>306.0</ele><time>2026-04-22T14:06:31Z</time></trkpt><trkpt lat="43.674445354972335" lon="7.009005682219757"><ele>307.0</ele><time>2026-04-22T14:06:32Z</time></trkpt><trkpt lat="43.67438737369636" lon="7.008861757287111"><ele>308.0</ele><time>2026-04-22T14:06:33Z</time></trkpt><trkpt lat="43.67431607903135" lon="7.00869580263061"><ele>309.0</ele><time>2026-04-22T14:06:34Z</time></trkpt><trkpt lat="43.67423997733601" lon="7.008515183043297"><ele>307.5</ele><time>2026-04-22T14:06:35Z</time></trkpt><trkpt lat="43.67417428671972" lon="7.008336584375781"><ele>306.0</ele><time>2026-04-22T14:06:36Z</time></trkpt><trkpt lat="43.67412901608643" lon="7.008180911114684"><ele>304.5</ele><time>2026-04-22T14:06:37Z</time></trkpt><trkpt lat="43.67409356939754" lon="7.008021451988934"><ele>303.0</ele><time>2026-04-22T14:06:38Z</time></trkpt><trkpt lat="43.67406594101654" lon="7.0078617435508"><ele>303.0</ele><time>2026-04-22T14:06:39Z</time></trkpt><trkpt lat="43.67404538986872" lon="7.007696475256923"><ele>303.0</ele><time>2026-04-22T14:06:40Z</time></trkpt><trkpt lat="43.67405806150796" lon="7.007531823227661"><ele>303.0</ele><time>2026-04-22T14:06:41Z</time></trkpt><trkpt lat="43.67406471719049" lon="7.007369931648263"><ele>303.0</ele><time>2026-04-22T14:06:42Z</time></trkpt><trkpt lat="43.67406321191047" lon="7.007209967080009"><ele>303.2</ele><time>2026-04-22T14:06:43Z</time></trkpt><trkpt lat="43.67408220188559" lon="7.007064288166635"><ele>303.4</ele><time>2026-04-22T14:06:44Z</time></trkpt><trkpt lat="43.67409729694715" lon="7.006935942474672"><ele>303.59999999999997</ele><time>2026-04-22T14:06:45Z</time></trkpt><trkpt lat="43.67411134205547" lon="7.006805279640818"><ele>303.8</ele><time>2026-04-22T14:06:46Z</time></trkpt><trkpt lat="43.67412536639474" lon="7.006696653856564"><ele>304.0</ele><time>2026-04-22T14:06:47Z</time></trkpt><trkpt lat="43.67414266541264" lon="7.006549751669619"><ele>304.5</ele><time>2026-04-22T14:06:49Z</time></trkpt><trkpt lat="43.674147643407565" lon="7.0064268716683635"><ele>305.0</ele><time>2026-04-22T14:06:53Z</time></trkpt><trkpt lat="43.67416050323435" lon="7.006301502677285"><ele>305.5</ele><time>2026-04-22T14:06:55Z</time></trkpt><trkpt lat="43.67416649182842" lon="7.006211703069081"><ele>306.0</ele><time>2026-04-22T14:06:56Z</time></trkpt><trkpt lat="43.67417109127156" lon="7.006116511748791"><ele>306.5</ele><time>2026-04-22T14:06:57Z</time></trkpt><trkpt lat="43.67418124073855" lon="7.00601193970269"><ele>307.0</ele><time>2026-04-22T14:06:58Z</time></trkpt><trkpt lat="43.67418954990783" lon="7.005921318398399"><ele>307.0</ele><time>2026-04-22T14:06:59Z</time></trkpt><trkpt lat="43.67419691492914" lon="7.005832855994518"><ele>307.0</ele><time>2026-04-22T14:07:00Z</time></trkpt><trkpt lat="43.67422159295661" lon="7.005679979960926"><ele>307.0</ele><time>2026-04-22T14:07:02Z</time></trkpt><trkpt lat="43.674231605436184" lon="7.0055733383943295"><ele>307.0</ele><time>2026-04-22T14:07:04Z</time></trkpt><trkpt lat="43.67409902118527" lon="7.005504115843433"><ele>307.0</ele><time>2026-04-22T14:07:05Z</time></trkpt><trkpt lat="43.67403577746576" lon="7.005454949433874"><ele>307.8333333333333</ele><time>2026-04-22T14:07:06Z</time></trkpt><trkpt lat="43.67396297791854" lon="7.005396018287203"><ele>308.66666666666663</ele><time>2026-04-22T14:07:07Z</time></trkpt><trkpt lat="43.673892948618175" lon="7.00534984171582"><ele>309.5</ele><time>2026-04-22T14:07:08Z</time></trkpt><trkpt lat="43.67382327554046" lon="7.005305250931746"><ele>310.3333333333333</ele><time>2026-04-22T14:07:09Z</time></trkpt><trkpt lat="43.67374710765521" lon="7.005255843369286"><ele>311.1666666666667</ele><time>2026-04-22T14:07:10Z</time></trkpt><trkpt lat="43.6736628671979" lon="7.005226078869208"><ele>312.0</ele><time>2026-04-22T14:07:11Z</time></trkpt><trkpt lat="43.673592412022806" lon="7.005155114762893"><ele>312.0</ele><time>2026-04-22T14:07:12Z</time></trkpt><trkpt lat="43.67350801442246" lon="7.005123013302626"><ele>312.0</ele><time>2026-04-22T14:07:13Z</time></trkpt><trkpt lat="43.67342802514697" lon="7.005074840756379"><ele>312.0</ele><time>2026-04-22T14:07:14Z</time></trkpt><trkpt lat="43.67335611095581" lon="7.005024722483639"><ele>312.0</ele><time>2026-04-22T14:07:15Z</time></trkpt><trkpt lat="43.67328016859541" lon="7.004974383519124"><ele>312.0</ele><time>2026-04-22T14:07:16Z</time></trkpt><trkpt lat="43.67319873174475" lon="7.004922610344668"><ele>312.0</ele><time>2026-04-22T14:07:17Z</time></trkpt><trkpt lat="43.67312208524887" lon="7.0048532606579315"><ele>312.1666666666667</ele><time>2026-04-22T14:07:18Z</time></trkpt><trkpt lat="43.67303066676433" lon="7.004821049665679"><ele>312.3333333333333</ele><time>2026-04-22T14:07:19Z</time></trkpt><trkpt lat="43.67294054764183" lon="7.004850081186859"><ele>312.5</ele><time>2026-04-22T14:07:20Z</time></trkpt><trkpt lat="43.67286220689536" lon="7.004863641435979"><ele>312.66666666666663</ele><time>2026-04-22T14:07:21Z</time></trkpt><trkpt lat="43.67279076093118" lon="7.0048873671080125"><ele>312.8333333333333</ele><time>2026-04-22T14:07:22Z</time></trkpt><trkpt lat="43.672720867035096" lon="7.0049026936576215"><ele>313.0</ele><time>2026-04-22T14:07:23Z</time></trkpt><trkpt lat="43.67265491768716" lon="7.00492000085482"><ele>313.0</ele><time>2026-04-22T14:07:24Z</time></trkpt><trkpt lat="43.672587735692694" lon="7.00493530516096"><ele>313.0</ele><time>2026-04-22T14:07:25Z</time></trkpt><trkpt lat="43.672458271184524" lon="7.004952979039933"><ele>313.0</ele><time>2026-04-22T14:07:27Z</time></trkpt><trkpt lat="43.6723816818951" lon="7.004958601295243"><ele>313.0</ele><time>2026-04-22T14:07:28Z</time></trkpt><trkpt lat="43.67229888094978" lon="7.004946450177408"><ele>313.0</ele><time>2026-04-22T14:07:29Z</time></trkpt><trkpt lat="43.67221199601622" lon="7.004918045542516"><ele>313.0</ele><time>2026-04-22T14:07:30Z</time></trkpt><trkpt lat="43.67212959252876" lon="7.004866596090577"><ele>313.0</ele><time>2026-04-22T14:07:31Z</time></trkpt><trkpt lat="43.67204876659273" lon="7.004795621786603"><ele>313.0</ele><time>2026-04-22T14:07:32Z</time></trkpt><trkpt lat="43.67197605829878" lon="7.004701343881409"><ele>313.0</ele><time>2026-04-22T14:07:33Z</time></trkpt><trkpt lat="43.67191116956596" lon="7.004599032399871"><ele>313.0</ele><time>2026-04-22T14:07:34Z</time></trkpt><trkpt lat="43.67185838462447" lon="7.0044833988773885"><ele>313.0</ele><time>2026-04-22T14:07:35Z</time></trkpt><trkpt lat="43.67181445246267" lon="7.00435754196966"><ele>314.0</ele><time>2026-04-22T14:07:36Z</time></trkpt><trkpt lat="43.67178757808682" lon="7.004234551810202"><ele>315.0</ele><time>2026-04-22T14:07:37Z</time></trkpt><trkpt lat="43.67177676136711" lon="7.004106567593675"><ele>316.0</ele><time>2026-04-22T14:07:38Z</time></trkpt><trkpt lat="43.67177946101283" lon="7.003974341238555"><ele>317.0</ele><time>2026-04-22T14:07:39Z</time></trkpt><trkpt lat="43.671804828061255" lon="7.003835236282984"><ele>318.0</ele><time>2026-04-22T14:07:40Z</time></trkpt><trkpt lat="43.67184592076324" lon="7.003695583336829"><ele>317.6</ele><time>2026-04-22T14:07:41Z</time></trkpt><trkpt lat="43.67189730772691" lon="7.003558517176074"><ele>317.20000000000005</ele><time>2026-04-22T14:07:42Z</time></trkpt><trkpt lat="43.67194975028894" lon="7.003416649247783"><ele>316.8</ele><time>2026-04-22T14:07:43Z</time></trkpt><trkpt lat="43.67200340099974" lon="7.003306670793561"><ele>316.40000000000003</ele><time>2026-04-22T14:07:44Z</time></trkpt><trkpt lat="43.67204934136292" lon="7.003205581502338"><ele>316.0</ele><time>2026-04-22T14:07:44.999Z</time></trkpt><trkpt lat="43.67209319507285" lon="7.003108144414653"><ele>317.20000000000005</ele><time>2026-04-22T14:07:45.999Z</time></trkpt><trkpt lat="43.67214317274868" lon="7.003000421696798"><ele>318.40000000000003</ele><time>2026-04-22T14:07:46.999Z</time></trkpt><trkpt lat="43.67219134386315" lon="7.002886813137556"><ele>319.6</ele><time>2026-04-22T14:07:47.999Z</time></trkpt><trkpt lat="43.67223387796301" lon="7.002758932959649"><ele>320.8</ele><time>2026-04-22T14:07:48.999Z</time></trkpt><trkpt lat="43.67226082925522" lon="7.00263199635473"><ele>322.0</ele><time>2026-04-22T14:07:49.999Z</time></trkpt><trkpt lat="43.672264972952426" lon="7.002501935882162"><ele>322.40000000000003</ele><time>2026-04-22T14:07:50.999Z</time></trkpt><trkpt lat="43.67225258017499" lon="7.002369684214769"><ele>322.8</ele><time>2026-04-22T14:07:51.999Z</time></trkpt><trkpt lat="43.67222989973358" lon="7.002245450880916"><ele>323.2</ele><time>2026-04-22T14:07:52.999Z</time></trkpt><trkpt lat="43.67218612543586" lon="7.0021224838974545"><ele>323.6</ele><time>2026-04-22T14:07:53.999Z</time></trkpt><trkpt lat="43.67212574805984" lon="7.0019983704537"><ele>324.0</ele><time>2026-04-22T14:07:54.999Z</time></trkpt><trkpt lat="43.67205406040415" lon="7.00187811756998"><ele>324.0</ele><time>2026-04-22T14:07:55.999Z</time></trkpt><trkpt lat="43.67200239080504" lon="7.001730063356206"><ele>324.0</ele><time>2026-04-22T14:07:56.999Z</time></trkpt><trkpt lat="43.67195021330437" lon="7.00158364413623"><ele>324.0</ele><time>2026-04-22T14:07:57.999Z</time></trkpt><trkpt lat="43.671891845081966" lon="7.0014482963308655"><ele>324.0</ele><time>2026-04-22T14:07:58.999Z</time></trkpt><trkpt lat="43.67186947867526" lon="7.001299576813122"><ele>325.3333333333333</ele><time>2026-04-22T14:07:59.999Z</time></trkpt><trkpt lat="43.671882477998636" lon="7.001156981641924"><ele>326.6666666666667</ele><time>2026-04-22T14:08:00.999Z</time></trkpt><trkpt lat="43.671875889597366" lon="7.001040296740189"><ele>328.0</ele><time>2026-04-22T14:08:01.999Z</time></trkpt><trkpt lat="43.67189304774756" lon="7.000944286761529"><ele>329.33333333333337</ele><time>2026-04-22T14:08:02.999Z</time></trkpt><trkpt lat="43.67191302364197" lon="7.000855091242837"><ele>330.6666666666667</ele><time>2026-04-22T14:08:03.999Z</time></trkpt><trkpt lat="43.67195585831395" lon="7.000719628351347"><ele>332.0</ele><time>2026-04-22T14:08:05.999Z</time></trkpt><trkpt lat="43.672021063413446" lon="7.000578013338111"><ele>332.0</ele><time>2026-04-22T14:08:07.999Z</time></trkpt><trkpt lat="43.67206803831591" lon="7.00049794700097"><ele>332.0</ele><time>2026-04-22T14:08:08.999Z</time></trkpt><trkpt lat="43.67212134722857" lon="7.00040725639349"><ele>332.0</ele><time>2026-04-22T14:08:09.999Z</time></trkpt><trkpt lat="43.672181611504676" lon="7.000307978578072"><ele>332.0</ele><time>2026-04-22T14:08:10.999Z</time></trkpt><trkpt lat="43.67224317071662" lon="7.000202596672964"><ele>332.0</ele><time>2026-04-22T14:08:11.999Z</time></trkpt><trkpt lat="43.67230346442765" lon="7.000071355837634"><ele>332.0</ele><time>2026-04-22T14:08:12.999Z</time></trkpt><trkpt lat="43.67235104202309" lon="6.999940499897813"><ele>332.0</ele><time>2026-04-22T14:08:13.999Z</time></trkpt><trkpt lat="43.672385910224506" lon="6.999819905765244"><ele>332.0</ele><time>2026-04-22T14:08:14.999Z</time></trkpt><trkpt lat="43.672412972409454" lon="6.999684878583593"><ele>332.0</ele><time>2026-04-22T14:08:15.999Z</time></trkpt><trkpt lat="43.672429722198515" lon="6.999540487390234"><ele>332.0</ele><time>2026-04-22T14:08:16.999Z</time></trkpt><trkpt lat="43.672437177397555" lon="6.9993871344203145"><ele>332.0</ele><time>2026-04-22T14:08:17.999Z</time></trkpt><trkpt lat="43.67243694392508" lon="6.999230350257133"><ele>332.0</ele><time>2026-04-22T14:08:18.999Z</time></trkpt><trkpt lat="43.67242620952655" lon="6.999075336463948"><ele>332.0</ele><time>2026-04-22T14:08:19.999Z</time></trkpt><trkpt lat="43.672408401468" lon="6.998935161698008"><ele>332.0</ele><time>2026-04-22T14:08:20.999Z</time></trkpt><trkpt lat="43.672383686199225" lon="6.99880962381538"><ele>332.0</ele><time>2026-04-22T14:08:21.999Z</time></trkpt><trkpt lat="43.672363894272706" lon="6.998686320231801"><ele>333.20000000000005</ele><time>2026-04-22T14:08:22.999Z</time></trkpt><trkpt lat="43.67234294340902" lon="6.998556514049975"><ele>334.4</ele><time>2026-04-22T14:08:23.999Z</time></trkpt><trkpt lat="43.67232624987426" lon="6.9984225794317245"><ele>335.6</ele><time>2026-04-22T14:08:25.001Z</time></trkpt><trkpt lat="43.67230623822108" lon="6.998275747334331"><ele>336.79999999999995</ele><time>2026-04-22T14:08:26.001Z</time></trkpt><trkpt lat="43.67228681437968" lon="6.99811842628607"><ele>338.0</ele><time>2026-04-22T14:08:27.001Z</time></trkpt><trkpt lat="43.67226392311608" lon="6.997952199171123"><ele>339.0</ele><time>2026-04-22T14:08:28.001Z</time></trkpt><trkpt lat="43.67223660321626" lon="6.997781582216277"><ele>340.0</ele><time>2026-04-22T14:08:29.001Z</time></trkpt><trkpt lat="43.672213135625256" lon="6.99760457911457"><ele>341.0</ele><time>2026-04-22T14:08:30Z</time></trkpt><trkpt lat="43.672189239513685" lon="6.997422762074224"><ele>342.0</ele><time>2026-04-22T14:08:31Z</time></trkpt><trkpt lat="43.67216570222951" lon="6.997229460390444"><ele>343.0</ele><time>2026-04-22T14:08:32.001Z</time></trkpt><trkpt lat="43.67213844487619" lon="6.997045075996183"><ele>344.0</ele><time>2026-04-22T14:08:33Z</time></trkpt><trkpt lat="43.67212025002382" lon="6.996880579592258"><ele>345.0</ele><time>2026-04-22T14:08:34Z</time></trkpt><trkpt lat="43.67210768665129" lon="6.996746879031255"><ele>346.0</ele><time>2026-04-22T14:08:35Z</time></trkpt><trkpt lat="43.67208875356616" lon="6.996636721178906"><ele>347.0</ele><time>2026-04-22T14:08:36Z</time></trkpt><trkpt lat="43.672079091926776" lon="6.996541734883149"><ele>347.6666666666667</ele><time>2026-04-22T14:08:37Z</time></trkpt><trkpt lat="43.67207153450197" lon="6.996413318390343"><ele>348.33333333333337</ele><time>2026-04-22T14:08:39Z</time></trkpt><trkpt lat="43.67208044738158" lon="6.996291891901114"><ele>349.0</ele><time>2026-04-22T14:08:51Z</time></trkpt><trkpt lat="43.67209981027624" lon="6.9961883425340705"><ele>349.6666666666667</ele><time>2026-04-22T14:08:55Z</time></trkpt><trkpt lat="43.672126962142215" lon="6.996100945528618"><ele>350.3333333333333</ele><time>2026-04-22T14:08:56Z</time></trkpt><trkpt lat="43.67218311172329" lon="6.996002832402385"><ele>351.0</ele><time>2026-04-22T14:08:57Z</time></trkpt><trkpt lat="43.672241505110335" lon="6.9959286037324615"><ele>351.0</ele><time>2026-04-22T14:08:58Z</time></trkpt><trkpt lat="43.67231532190474" lon="6.995861131311703"><ele>351.0</ele><time>2026-04-22T14:08:59Z</time></trkpt><trkpt lat="43.672399532187896" lon="6.995805602328852"><ele>351.0</ele><time>2026-04-22T14:09:00Z</time></trkpt><trkpt lat="43.67248871461499" lon="6.99575008101839"><ele>351.0</ele><time>2026-04-22T14:09:01Z</time></trkpt><trkpt lat="43.672583073043185" lon="6.995693107286935"><ele>351.0</ele><time>2026-04-22T14:09:02Z</time></trkpt><trkpt lat="43.67268010222532" lon="6.995625162778121"><ele>350.6</ele><time>2026-04-22T14:09:03Z</time></trkpt><trkpt lat="43.67277262135775" lon="6.9955508879635575"><ele>350.20000000000005</ele><time>2026-04-22T14:09:04Z</time></trkpt><trkpt lat="43.672867532522815" lon="6.995467155496887"><ele>349.79999999999995</ele><time>2026-04-22T14:09:05Z</time></trkpt><trkpt lat="43.67293925905655" lon="6.995386269734335"><ele>349.4</ele><time>2026-04-22T14:09:06Z</time></trkpt><trkpt lat="43.672996086108924" lon="6.995310809877959"><ele>349.0</ele><time>2026-04-22T14:09:07Z</time></trkpt><trkpt lat="43.67304217044605" lon="6.995243728325795"><ele>349.79999999999995</ele><time>2026-04-22T14:09:08Z</time></trkpt><trkpt lat="43.673103844182634" lon="6.995185249227438"><ele>350.59999999999997</ele><time>2026-04-22T14:09:10Z</time></trkpt><trkpt lat="43.673208981573744" lon="6.995185211172614"><ele>351.4</ele><time>2026-04-22T14:09:13Z</time></trkpt><trkpt lat="43.67332199381238" lon="6.995143812447385"><ele>352.2</ele><time>2026-04-22T14:09:15Z</time></trkpt><trkpt lat="43.67339046640649" lon="6.9950605508885575"><ele>353.0</ele><time>2026-04-22T14:09:17Z</time></trkpt><trkpt lat="43.673413357120914" lon="6.994924727174273"><ele>353.0</ele><time>2026-04-22T14:09:19Z</time></trkpt><trkpt lat="43.67334411710544" lon="6.99482507556397"><ele>353.0</ele><time>2026-04-22T14:09:20Z</time></trkpt><trkpt lat="43.673289637944286" lon="6.99475316985627"><ele>353.0</ele><time>2026-04-22T14:09:21Z</time></trkpt><trkpt lat="43.673247151256604" lon="6.99468314544714"><ele>353.0</ele><time>2026-04-22T14:09:22Z</time></trkpt><trkpt lat="43.673229620172144" lon="6.994593460308579"><ele>353.0</ele><time>2026-04-22T14:09:23Z</time></trkpt><trkpt lat="43.67322732029283" lon="6.994484720458241"><ele>353.0</ele><time>2026-04-22T14:09:24Z</time></trkpt><trkpt lat="43.67322570132594" lon="6.994350411625173"><ele>353.0</ele><time>2026-04-22T14:09:25Z</time></trkpt><trkpt lat="43.67322066560504" lon="6.994234612824588"><ele>353.0</ele><time>2026-04-22T14:09:26Z</time></trkpt><trkpt lat="43.673214092321686" lon="6.994132169649424"><ele>353.0</ele><time>2026-04-22T14:09:27Z</time></trkpt><trkpt lat="43.673202987216435" lon="6.994025614619673"><ele>353.0</ele><time>2026-04-22T14:09:28Z</time></trkpt><trkpt lat="43.67318725627883" lon="6.993897424158029"><ele>353.0</ele><time>2026-04-22T14:09:29Z</time></trkpt><trkpt lat="43.673158042923745" lon="6.993761551637456"><ele>353.0</ele><time>2026-04-22T14:09:30Z</time></trkpt><trkpt lat="43.67312594184224" lon="6.993619695953651"><ele>353.4</ele><time>2026-04-22T14:09:31Z</time></trkpt><trkpt lat="43.673094053177294" lon="6.993470457971251"><ele>353.79999999999995</ele><time>2026-04-22T14:09:32Z</time></trkpt><trkpt lat="43.67306117045188" lon="6.993323611660332"><ele>354.2</ele><time>2026-04-22T14:09:33Z</time></trkpt><trkpt lat="43.67303382365518" lon="6.993193136121922"><ele>354.6</ele><time>2026-04-22T14:09:34Z</time></trkpt><trkpt lat="43.67300707209195" lon="6.993067816484246"><ele>355.0</ele><time>2026-04-22T14:09:35Z</time></trkpt><trkpt lat="43.67297911849697" lon="6.992933005794117"><ele>355.6</ele><time>2026-04-22T14:09:36Z</time></trkpt><trkpt lat="43.672946293921505" lon="6.992794674355023"><ele>356.2</ele><time>2026-04-22T14:09:37Z</time></trkpt><trkpt lat="43.67291868317741" lon="6.992650231478623"><ele>356.79999999999995</ele><time>2026-04-22T14:09:38Z</time></trkpt><trkpt lat="43.67289493580322" lon="6.9925066053617355"><ele>357.4</ele><time>2026-04-22T14:09:39Z</time></trkpt><trkpt lat="43.67287857707434" lon="6.992359824256689"><ele>358.0</ele><time>2026-04-22T14:09:40Z</time></trkpt><trkpt lat="43.67289070824754" lon="6.9922140861743"><ele>358.79999999999995</ele><time>2026-04-22T14:09:41Z</time></trkpt><trkpt lat="43.672907057427196" lon="6.99207226578699"><ele>359.6</ele><time>2026-04-22T14:09:42Z</time></trkpt><trkpt lat="43.672935545121646" lon="6.991936162126198"><ele>360.4</ele><time>2026-04-22T14:09:43Z</time></trkpt><trkpt lat="43.67297969331927" lon="6.991803486918002"><ele>361.20000000000005</ele><time>2026-04-22T14:09:44Z</time></trkpt><trkpt lat="43.67303672430739" lon="6.991682910544838"><ele>362.0</ele><time>2026-04-22T14:09:45Z</time></trkpt><trkpt lat="43.67310359331001" lon="6.991548433607904"><ele>363.0</ele><time>2026-04-22T14:09:46Z</time></trkpt><trkpt lat="43.67317744482921" lon="6.991420819561278"><ele>364.0</ele><time>2026-04-22T14:09:47Z</time></trkpt><trkpt lat="43.67325142381367" lon="6.9912793379879865"><ele>365.0</ele><time>2026-04-22T14:09:47.999Z</time></trkpt><trkpt lat="43.673327378132" lon="6.9911299808568845"><ele>366.0</ele><time>2026-04-22T14:09:48.999Z</time></trkpt><trkpt lat="43.67340732524364" lon="6.990981614790459"><ele>364.25</ele><time>2026-04-22T14:09:49.999Z</time></trkpt><trkpt lat="43.67348220323186" lon="6.990840611873915"><ele>362.5</ele><time>2026-04-22T14:09:50.999Z</time></trkpt><trkpt lat="43.673559386612425" lon="6.990707380950714"><ele>360.75</ele><time>2026-04-22T14:09:51.999Z</time></trkpt><trkpt lat="43.673631750157526" lon="6.990568874622761"><ele>359.0</ele><time>2026-04-22T14:09:52.999Z</time></trkpt><trkpt lat="43.673697237441495" lon="6.9904298463658545"><ele>363.0</ele><time>2026-04-22T14:09:53.999Z</time></trkpt><trkpt lat="43.67374466078355" lon="6.990281449136484"><ele>367.0</ele><time>2026-04-22T14:09:54.999Z</time></trkpt><trkpt lat="43.673784532474805" lon="6.99012788108378"><ele>371.0</ele><time>2026-04-22T14:09:55.999Z</time></trkpt><trkpt lat="43.6738197295007" lon="6.989965279826435"><ele>375.0</ele><time>2026-04-22T14:09:56.999Z</time></trkpt><trkpt lat="43.673853420386855" lon="6.98978761124804"><ele>375.0</ele><time>2026-04-22T14:09:57.999Z</time></trkpt><trkpt lat="43.67389047551989" lon="6.989600465318074"><ele>375.0</ele><time>2026-04-22T14:09:58.999Z</time></trkpt><trkpt lat="43.67391840512924" lon="6.989421489104307"><ele>375.0</ele><time>2026-04-22T14:09:59.999Z</time></trkpt><trkpt lat="43.67396100383385" lon="6.989270769140175"><ele>375.0</ele><time>2026-04-22T14:10:00.999Z</time></trkpt><trkpt lat="43.67398896030319" lon="6.989140353343239"><ele>374.0</ele><time>2026-04-22T14:10:01.999Z</time></trkpt><trkpt lat="43.67405124617892" lon="6.988999978776358"><ele>373.0</ele><time>2026-04-22T14:10:02.999Z</time></trkpt><trkpt lat="43.67412536360417" lon="6.988878069088421"><ele>372.0</ele><time>2026-04-22T14:10:03.999Z</time></trkpt><trkpt lat="43.674210907955974" lon="6.988752639542273"><ele>371.0</ele><time>2026-04-22T14:10:04.999Z</time></trkpt><trkpt lat="43.67430492317494" lon="6.988621488558756"><ele>371.0</ele><time>2026-04-22T14:10:05.999Z</time></trkpt><trkpt lat="43.674406291412936" lon="6.988485300481697"><ele>371.0</ele><time>2026-04-22T14:10:06.999Z</time></trkpt><trkpt lat="43.67450534698405" lon="6.98834498253227"><ele>371.0</ele><time>2026-04-22T14:10:07.999Z</time></trkpt><trkpt lat="43.674598633283644" lon="6.988210335939924"><ele>371.0</ele><time>2026-04-22T14:10:08.999Z</time></trkpt><trkpt lat="43.67469028794787" lon="6.988080980222578"><ele>371.75</ele><time>2026-04-22T14:10:09.999Z</time></trkpt><trkpt lat="43.67478226824911" lon="6.9879524732230776"><ele>372.5</ele><time>2026-04-22T14:10:10.999Z</time></trkpt><trkpt lat="43.67486501080603" lon="6.987810309900792"><ele>373.25</ele><time>2026-04-22T14:10:11.999Z</time></trkpt><trkpt lat="43.674946357686544" lon="6.987648597811631"><ele>374.0</ele><time>2026-04-22T14:10:12.999Z</time></trkpt><trkpt lat="43.67502468856424" lon="6.987477653370938"><ele>374.0</ele><time>2026-04-22T14:10:13.999Z</time></trkpt><trkpt lat="43.675093646969714" lon="6.98730528848794"><ele>374.0</ele><time>2026-04-22T14:10:14.999Z</time></trkpt><trkpt lat="43.675149886357346" lon="6.9871325782994855"><ele>374.0</ele><time>2026-04-22T14:10:15.999Z</time></trkpt><trkpt lat="43.675195078930315" lon="6.986959736828866"><ele>374.0</ele><time>2026-04-22T14:10:16.999Z</time></trkpt><trkpt lat="43.675229977868376" lon="6.986781039864154"><ele>374.0</ele><time>2026-04-22T14:10:17.999Z</time></trkpt><trkpt lat="43.67526796686893" lon="6.986591926020026"><ele>374.0</ele><time>2026-04-22T14:10:18.999Z</time></trkpt><trkpt lat="43.67528382287596" lon="6.986386492338527"><ele>374.0</ele><time>2026-04-22T14:10:19.999Z</time></trkpt><trkpt lat="43.67527937223117" lon="6.986180264336445"><ele>374.0</ele><time>2026-04-22T14:10:20.999Z</time></trkpt><trkpt lat="43.675286208736864" lon="6.985976066821057"><ele>377.75</ele><time>2026-04-22T14:10:21.999Z</time></trkpt><trkpt lat="43.675309695255656" lon="6.985794538722448"><ele>381.5</ele><time>2026-04-22T14:10:22.999Z</time></trkpt><trkpt lat="43.67530057157345" lon="6.9856180549115505"><ele>385.25</ele><time>2026-04-22T14:10:23.999Z</time></trkpt><trkpt lat="43.67531384766495" lon="6.9854518631960625"><ele>389.0</ele><time>2026-04-22T14:10:24.999Z</time></trkpt><trkpt lat="43.67532701302169" lon="6.985283346211892"><ele>389.0</ele><time>2026-04-22T14:10:25.999Z</time></trkpt><trkpt lat="43.675352819656105" lon="6.98512443693711"><ele>389.0</ele><time>2026-04-22T14:10:26.999Z</time></trkpt><trkpt lat="43.6753951395476" lon="6.984970130708674"><ele>389.0</ele><time>2026-04-22T14:10:27.999Z</time></trkpt><trkpt lat="43.67544818406186" lon="6.984828784766693"><ele>389.0</ele><time>2026-04-22T14:10:28.999Z</time></trkpt><trkpt lat="43.675528324484866" lon="6.984709677728841"><ele>388.5</ele><time>2026-04-22T14:10:30Z</time></trkpt><trkpt lat="43.67559646449272" lon="6.984576385853362"><ele>388.0</ele><time>2026-04-22T14:10:31Z</time></trkpt><trkpt lat="43.675703595133605" lon="6.984478284416568"><ele>387.5</ele><time>2026-04-22T14:10:32Z</time></trkpt><trkpt lat="43.67580189211557" lon="6.984343743043621"><ele>387.0</ele><time>2026-04-22T14:10:33Z</time></trkpt><trkpt lat="43.67591129700408" lon="6.98421859110406"><ele>385.25</ele><time>2026-04-22T14:10:34Z</time></trkpt><trkpt lat="43.676011253702775" lon="6.984103160003037"><ele>383.5</ele><time>2026-04-22T14:10:35Z</time></trkpt><trkpt lat="43.676100719109726" lon="6.983985730709102"><ele>381.75</ele><time>2026-04-22T14:10:36Z</time></trkpt><trkpt lat="43.67618820488592" lon="6.983845948589256"><ele>380.0</ele><time>2026-04-22T14:10:37Z</time></trkpt><trkpt lat="43.67626655180324" lon="6.983685545966951"><ele>385.33333333333337</ele><time>2026-04-22T14:10:38Z</time></trkpt><trkpt lat="43.6763420434875" lon="6.983518330166742"><ele>390.6666666666667</ele><time>2026-04-22T14:10:39Z</time></trkpt><trkpt lat="43.67641036532816" lon="6.983328048985862"><ele>396.0</ele><time>2026-04-22T14:10:40Z</time></trkpt><trkpt lat="43.67648220629651" lon="6.983130456545039"><ele>396.0</ele><time>2026-04-22T14:10:41Z</time></trkpt><trkpt lat="43.67655299666713" lon="6.982927265624401"><ele>396.0</ele><time>2026-04-22T14:10:42Z</time></trkpt><trkpt lat="43.67662140124589" lon="6.982727793897667"><ele>396.0</ele><time>2026-04-22T14:10:43Z</time></trkpt><trkpt lat="43.67667304739854" lon="6.982535992048975"><ele>394.5</ele><time>2026-04-22T14:10:44Z</time></trkpt><trkpt lat="43.67671800496568" lon="6.982346192398928"><ele>393.0</ele><time>2026-04-22T14:10:45Z</time></trkpt><trkpt lat="43.67675277601864" lon="6.9821532072365295"><ele>391.5</ele><time>2026-04-22T14:10:46Z</time></trkpt><trkpt lat="43.67679629750068" lon="6.981969337877568"><ele>390.0</ele><time>2026-04-22T14:10:47Z</time></trkpt><trkpt lat="43.67685803595004" lon="6.981791031696524"><ele>387.6666666666667</ele><time>2026-04-22T14:10:48Z</time></trkpt><trkpt lat="43.67693152271026" lon="6.981604145401662"><ele>385.33333333333337</ele><time>2026-04-22T14:10:49Z</time></trkpt><trkpt lat="43.677007413847925" lon="6.981413429466316"><ele>383.0</ele><time>2026-04-22T14:10:50Z</time></trkpt><trkpt lat="43.67708893160493" lon="6.9812220891020305"><ele>390.33333333333337</ele><time>2026-04-22T14:10:51Z</time></trkpt><trkpt lat="43.67717206254006" lon="6.981019114830173"><ele>397.6666666666667</ele><time>2026-04-22T14:10:52Z</time></trkpt><trkpt lat="43.6772535875798" lon="6.98080658765886"><ele>405.0</ele><time>2026-04-22T14:10:53Z</time></trkpt><trkpt lat="43.67734057609512" lon="6.980588929878888"><ele>405.0</ele><time>2026-04-22T14:10:54Z</time></trkpt><trkpt lat="43.67742637538586" lon="6.9803774274560935"><ele>405.0</ele><time>2026-04-22T14:10:55Z</time></trkpt><trkpt lat="43.677500326477755" lon="6.980186648321369"><ele>405.0</ele><time>2026-04-22T14:10:56Z</time></trkpt><trkpt lat="43.67756391835339" lon="6.980025215034016"><ele>402.25</ele><time>2026-04-22T14:10:57Z</time></trkpt><trkpt lat="43.67762339934169" lon="6.979882185815094"><ele>399.5</ele><time>2026-04-22T14:10:58Z</time></trkpt><trkpt lat="43.67767412400173" lon="6.979739588034265"><ele>396.75</ele><time>2026-04-22T14:10:59Z</time></trkpt><trkpt lat="43.677706120023046" lon="6.979575283465723"><ele>394.0</ele><time>2026-04-22T14:11:00Z</time></trkpt><trkpt lat="43.67771658731028" lon="6.979388086119159"><ele>393.0</ele><time>2026-04-22T14:11:01Z</time></trkpt><trkpt lat="43.677716657755745" lon="6.979182975886527"><ele>392.0</ele><time>2026-04-22T14:11:02Z</time></trkpt><trkpt lat="43.6777224667277" lon="6.978963753555215"><ele>391.0</ele><time>2026-04-22T14:11:03Z</time></trkpt><trkpt lat="43.6777272680604" lon="6.978746864318552"><ele>391.0</ele><time>2026-04-22T14:11:04Z</time></trkpt><trkpt lat="43.67773689480496" lon="6.978553340454189"><ele>391.0</ele><time>2026-04-22T14:11:05Z</time></trkpt><trkpt lat="43.67774185133827" lon="6.9783819751613345"><ele>391.0</ele><time>2026-04-22T14:11:06Z</time></trkpt><trkpt lat="43.67773766601574" lon="6.978226483944522"><ele>391.0</ele><time>2026-04-22T14:11:07Z</time></trkpt><trkpt lat="43.677705821546446" lon="6.9780823528085305"><ele>391.75</ele><time>2026-04-22T14:11:08Z</time></trkpt><trkpt lat="43.67765031576089" lon="6.977947448954661"><ele>392.5</ele><time>2026-04-22T14:11:09Z</time></trkpt><trkpt lat="43.677575096008034" lon="6.977823359114007"><ele>393.25</ele><time>2026-04-22T14:11:10Z</time></trkpt><trkpt lat="43.67748397237631" lon="6.977695346142819"><ele>394.0</ele><time>2026-04-22T14:11:11Z</time></trkpt><trkpt lat="43.67739369880568" lon="6.977561404711779"><ele>397.2</ele><time>2026-04-22T14:11:12Z</time></trkpt><trkpt lat="43.677318833030306" lon="6.9774302060933975"><ele>400.4</ele><time>2026-04-22T14:11:13Z</time></trkpt><trkpt lat="43.67725899129634" lon="6.977312524630693"><ele>403.6</ele><time>2026-04-22T14:11:14Z</time></trkpt><trkpt lat="43.67721012315227" lon="6.977202494706817"><ele>406.8</ele><time>2026-04-22T14:11:15Z</time></trkpt><trkpt lat="43.67717530877952" lon="6.977085624111723"><ele>410.0</ele><time>2026-04-22T14:11:16Z</time></trkpt><trkpt lat="43.6771665021382" lon="6.976952865875812"><ele>410.0</ele><time>2026-04-22T14:11:17Z</time></trkpt><trkpt lat="43.677160207448765" lon="6.976818631468087"><ele>410.0</ele><time>2026-04-22T14:11:18Z</time></trkpt><trkpt lat="43.677172052819465" lon="6.9766672081644145"><ele>410.0</ele><time>2026-04-22T14:11:19Z</time></trkpt><trkpt lat="43.677189160370666" lon="6.976503331868076"><ele>410.0</ele><time>2026-04-22T14:11:20Z</time></trkpt><trkpt lat="43.67720402215841" lon="6.976324302499185"><ele>409.5</ele><time>2026-04-22T14:11:21Z</time></trkpt><trkpt lat="43.677241280839965" lon="6.9761537304669305"><ele>409.0</ele><time>2026-04-22T14:11:22Z</time></trkpt><trkpt lat="43.677275708538076" lon="6.975999328124064"><ele>408.5</ele><time>2026-04-22T14:11:23Z</time></trkpt><trkpt lat="43.67732139654103" lon="6.975857124212535"><ele>408.0</ele><time>2026-04-22T14:11:24Z</time></trkpt><trkpt lat="43.67737823360055" lon="6.975716918685594"><ele>408.0</ele><time>2026-04-22T14:11:25Z</time></trkpt><trkpt lat="43.67744395470551" lon="6.975579323409082"><ele>408.0</ele><time>2026-04-22T14:11:26Z</time></trkpt><trkpt lat="43.67751930656692" lon="6.975451134322078"><ele>408.0</ele><time>2026-04-22T14:11:27Z</time></trkpt><trkpt lat="43.67760598133141" lon="6.975329629001699"><ele>408.0</ele><time>2026-04-22T14:11:28Z</time></trkpt><trkpt lat="43.677689572244475" lon="6.97519743188648"><ele>409.75</ele><time>2026-04-22T14:11:29Z</time></trkpt><trkpt lat="43.677780024190064" lon="6.975064514852261"><ele>411.5</ele><time>2026-04-22T14:11:30Z</time></trkpt><trkpt lat="43.67787775810419" lon="6.974927632505359"><ele>413.25</ele><time>2026-04-22T14:11:31Z</time></trkpt><trkpt lat="43.67797236819658" lon="6.974791960337219"><ele>415.0</ele><time>2026-04-22T14:11:32Z</time></trkpt><trkpt lat="43.67807028918628" lon="6.9746804835159315"><ele>415.0</ele><time>2026-04-22T14:11:33Z</time></trkpt><trkpt lat="43.67814465997859" lon="6.9745418662555"><ele>415.0</ele><time>2026-04-22T14:11:34Z</time></trkpt><trkpt lat="43.6782364048974" lon="6.9744468259543995"><ele>415.0</ele><time>2026-04-22T14:11:35Z</time></trkpt><trkpt lat="43.678310250586776" lon="6.974350275288198"><ele>415.0</ele><time>2026-04-22T14:11:36Z</time></trkpt><trkpt lat="43.67838191677308" lon="6.974264043002471"><ele>415.0</ele><time>2026-04-22T14:11:37Z</time></trkpt><trkpt lat="43.678441541933175" lon="6.974173175244522"><ele>414.1666666666667</ele><time>2026-04-22T14:11:38Z</time></trkpt><trkpt lat="43.678510217596624" lon="6.9741091132663"><ele>413.33333333333337</ele><time>2026-04-22T14:11:39Z</time></trkpt><trkpt lat="43.678569834861065" lon="6.974049653645735"><ele>412.5</ele><time>2026-04-22T14:11:40Z</time></trkpt><trkpt lat="43.67862557004949" lon="6.973990779861567"><ele>411.66666666666663</ele><time>2026-04-22T14:11:41Z</time></trkpt><trkpt lat="43.67868542591831" lon="6.973931683730387"><ele>410.8333333333333</ele><time>2026-04-22T14:11:42Z</time></trkpt><trkpt lat="43.678755910549526" lon="6.973874176128171"><ele>410.0</ele><time>2026-04-22T14:11:43Z</time></trkpt><trkpt lat="43.678833687645856" lon="6.973829040098779"><ele>410.0</ele><time>2026-04-22T14:11:44Z</time></trkpt><trkpt lat="43.67889873750544" lon="6.97378536732642"><ele>410.0</ele><time>2026-04-22T14:11:45Z</time></trkpt><trkpt lat="43.678976047277565" lon="6.973664616620969"><ele>410.0</ele><time>2026-04-22T14:11:46.999Z</time></trkpt><trkpt lat="43.679030739143265" lon="6.973544966798709"><ele>410.0</ele><time>2026-04-22T14:11:48.999Z</time></trkpt><trkpt lat="43.67911160412126" lon="6.973472090545717"><ele>410.0</ele><time>2026-04-22T14:11:57.999Z</time></trkpt><trkpt lat="43.6791628135901" lon="6.973420443054368"><ele>409.8333333333333</ele><time>2026-04-22T14:11:58.999Z</time></trkpt><trkpt lat="43.67923991474136" lon="6.973301578017056"><ele>409.66666666666663</ele><time>2026-04-22T14:12:00.999Z</time></trkpt><trkpt lat="43.679261183607444" lon="6.9732183421308"><ele>409.5</ele><time>2026-04-22T14:12:01.999Z</time></trkpt><trkpt lat="43.679269876495034" lon="6.973130897477188"><ele>409.33333333333337</ele><time>2026-04-22T14:12:02.999Z</time></trkpt><trkpt lat="43.67928297624856" lon="6.973038859645351"><ele>409.1666666666667</ele><time>2026-04-22T14:12:03.999Z</time></trkpt><trkpt lat="43.67931395833044" lon="6.972945629667179"><ele>409.0</ele><time>2026-04-22T14:12:04.999Z</time></trkpt><trkpt lat="43.67935925557604" lon="6.97286606838502"><ele>409.00000000000006</ele><time>2026-04-22T14:12:05.999Z</time></trkpt><trkpt lat="43.67941820521094" lon="6.972788675757797"><ele>409.0</ele><time>2026-04-22T14:12:06.999Z</time></trkpt><trkpt lat="43.67947850016498" lon="6.972709976469843"><ele>409.0</ele><time>2026-04-22T14:12:07.999Z</time></trkpt><trkpt lat="43.67953671568522" lon="6.97262866725121"><ele>409.0</ele><time>2026-04-22T14:12:08.999Z</time></trkpt><trkpt lat="43.67959366451837" lon="6.972552799275213"><ele>409.00000000000006</ele><time>2026-04-22T14:12:09.999Z</time></trkpt><trkpt lat="43.67964861310454" lon="6.972470238331264"><ele>409.0</ele><time>2026-04-22T14:12:10.999Z</time></trkpt><trkpt lat="43.679702309860325" lon="6.972390696458537"><ele>409.33333333333337</ele><time>2026-04-22T14:12:11.999Z</time></trkpt><trkpt lat="43.679755731306095" lon="6.972312918413185"><ele>409.6666666666667</ele><time>2026-04-22T14:12:12.999Z</time></trkpt><trkpt lat="43.67981060602808" lon="6.972234445524299"><ele>410.0</ele><time>2026-04-22T14:12:13.999Z</time></trkpt><trkpt lat="43.67986482973864" lon="6.972156656047949"><ele>410.33333333333337</ele><time>2026-04-22T14:12:14.999Z</time></trkpt><trkpt lat="43.67992022259054" lon="6.972076535440317"><ele>410.6666666666667</ele><time>2026-04-22T14:12:15.999Z</time></trkpt><trkpt lat="43.679976795439174" lon="6.971996888012143"><ele>411.0</ele><time>2026-04-22T14:12:16.999Z</time></trkpt><trkpt lat="43.68003497799856" lon="6.971914017191567"><ele>411.0</ele><time>2026-04-22T14:12:17.999Z</time></trkpt><trkpt lat="43.68009335068485" lon="6.971834129637395"><ele>411.0</ele><time>2026-04-22T14:12:18.999Z</time></trkpt><trkpt lat="43.68014743543601" lon="6.971768195583848"><ele>411.0</ele><time>2026-04-22T14:12:19.999Z</time></trkpt><trkpt lat="43.6802039893127" lon="6.971728643406981"><ele>411.0</ele><time>2026-04-22T14:12:20.999Z</time></trkpt><trkpt lat="43.68032516188301" lon="6.971669016916354"><ele>411.0</ele><time>2026-04-22T14:12:22.999Z</time></trkpt><trkpt lat="43.68038838174852" lon="6.971653855751714"><ele>411.0</ele><time>2026-04-22T14:12:23.999Z</time></trkpt><trkpt lat="43.680484918383335" lon="6.971614607635247"><ele>411.6666666666667</ele><time>2026-04-22T14:12:25.999Z</time></trkpt><trkpt lat="43.680550216178226" lon="6.971589383513355"><ele>412.33333333333337</ele><time>2026-04-22T14:12:27.999Z</time></trkpt><trkpt lat="43.68055277170266" lon="6.971449042060147"><ele>413.0</ele><time>2026-04-22T14:12:28.999Z</time></trkpt><trkpt lat="43.680558415262894" lon="6.971268941280025"><ele>413.6666666666667</ele><time>2026-04-22T14:12:30.999Z</time></trkpt><trkpt lat="43.680547898570865" lon="6.971178078350223"><ele>414.33333333333337</ele><time>2026-04-22T14:12:31.999Z</time></trkpt><trkpt lat="43.68054429828554" lon="6.971084709177513"><ele>415.0</ele><time>2026-04-22T14:12:32.999Z</time></trkpt><trkpt lat="43.6805570630181" lon="6.970981433482796"><ele>415.00000000000006</ele><time>2026-04-22T14:12:33.999Z</time></trkpt><trkpt lat="43.680577885558684" lon="6.970879797296224"><ele>415.0</ele><time>2026-04-22T14:12:34.999Z</time></trkpt><trkpt lat="43.6805991694518" lon="6.970771817063295"><ele>415.0</ele><time>2026-04-22T14:12:36Z</time></trkpt><trkpt lat="43.68063659248688" lon="6.970674301070772"><ele>415.0</ele><time>2026-04-22T14:12:37Z</time></trkpt><trkpt lat="43.68064544846102" lon="6.9705611536511025"><ele>415.00000000000006</ele><time>2026-04-22T14:12:38Z</time></trkpt><trkpt lat="43.68067208989004" lon="6.970447548349661"><ele>415.0</ele><time>2026-04-22T14:12:39Z</time></trkpt><trkpt lat="43.680697623971824" lon="6.970327945638495"><ele>415.2</ele><time>2026-04-22T14:12:40Z</time></trkpt><trkpt lat="43.6807264785421" lon="6.970202004307337"><ele>415.4</ele><time>2026-04-22T14:12:41Z</time></trkpt><trkpt lat="43.68075539639693" lon="6.9700689031419865"><ele>415.6</ele><time>2026-04-22T14:12:42Z</time></trkpt><trkpt lat="43.680781614828064" lon="6.969943642679233"><ele>415.8</ele><time>2026-04-22T14:12:43Z</time></trkpt><trkpt lat="43.68080828164349" lon="6.969828091144868"><ele>416.0</ele><time>2026-04-22T14:12:44Z</time></trkpt><trkpt lat="43.68083121963786" lon="6.96971974984605"><ele>415.49999999999994</ele><time>2026-04-22T14:12:45Z</time></trkpt><trkpt lat="43.68085436805387" lon="6.969607972091435"><ele>415.0</ele><time>2026-04-22T14:12:46Z</time></trkpt><trkpt lat="43.68087705601857" lon="6.969491207039219"><ele>414.5</ele><time>2026-04-22T14:12:47Z</time></trkpt><trkpt lat="43.680904259105326" lon="6.9693713441868965"><ele>414.0</ele><time>2026-04-22T14:12:48Z</time></trkpt><trkpt lat="43.68093034552127" lon="6.96924940715489"><ele>413.49999999999994</ele><time>2026-04-22T14:12:49Z</time></trkpt><trkpt lat="43.680953214068836" lon="6.969133936643855"><ele>413.0</ele><time>2026-04-22T14:12:50Z</time></trkpt><trkpt lat="43.68097552581657" lon="6.969026342928246"><ele>412.57142857142856</ele><time>2026-04-22T14:12:51Z</time></trkpt><trkpt lat="43.68099658339536" lon="6.9689246241767036"><ele>412.1428571428571</ele><time>2026-04-22T14:12:52Z</time></trkpt><trkpt lat="43.68101613116558" lon="6.968821903882937"><ele>411.7142857142857</ele><time>2026-04-22T14:12:53Z</time></trkpt><trkpt lat="43.68103566181799" lon="6.968723525023229"><ele>411.2857142857143</ele><time>2026-04-22T14:12:54Z</time></trkpt><trkpt lat="43.681056460305804" lon="6.968630195465332"><ele>410.85714285714283</ele><time>2026-04-22T14:12:55Z</time></trkpt><trkpt lat="43.681075174201396" lon="6.9685389207084825"><ele>410.42857142857144</ele><time>2026-04-22T14:12:56Z</time></trkpt><trkpt lat="43.681093419148006" lon="6.968450884189738"><ele>410.0</ele><time>2026-04-22T14:12:57Z</time></trkpt><trkpt lat="43.681113018465744" lon="6.9683610233374935"><ele>412.3333333333333</ele><time>2026-04-22T14:12:58Z</time></trkpt><trkpt lat="43.6811327145638" lon="6.968271132840737"><ele>414.66666666666663</ele><time>2026-04-22T14:12:59Z</time></trkpt><trkpt lat="43.681153628309545" lon="6.968175414296042"><ele>417.0</ele><time>2026-04-22T14:13:00Z</time></trkpt><trkpt lat="43.681176135414816" lon="6.96807321399296"><ele>419.33333333333337</ele><time>2026-04-22T14:13:01Z</time></trkpt><trkpt lat="43.68120044057151" lon="6.967965156563038"><ele>421.6666666666667</ele><time>2026-04-22T14:13:02Z</time></trkpt><trkpt lat="43.681225547061" lon="6.9678571420013125"><ele>424.0</ele><time>2026-04-22T14:13:03Z</time></trkpt><trkpt lat="43.681250112322225" lon="6.967751178564739"><ele>424.0</ele><time>2026-04-22T14:13:04Z</time></trkpt><trkpt lat="43.681275478993754" lon="6.967644903969609"><ele>424.0</ele><time>2026-04-22T14:13:05Z</time></trkpt><trkpt lat="43.68130221108238" lon="6.967533947542281"><ele>424.0</ele><time>2026-04-22T14:13:06Z</time></trkpt><trkpt lat="43.68133209220849" lon="6.967419258700725"><ele>424.0</ele><time>2026-04-22T14:13:07Z</time></trkpt><trkpt lat="43.681357970425005" lon="6.967288882528501"><ele>424.0</ele><time>2026-04-22T14:13:08Z</time></trkpt><trkpt lat="43.68138519555779" lon="6.967154083849366"><ele>422.6</ele><time>2026-04-22T14:13:09Z</time></trkpt><trkpt lat="43.68141432584124" lon="6.967012894223232"><ele>421.2</ele><time>2026-04-22T14:13:10Z</time></trkpt><trkpt lat="43.68144561876079" lon="6.966867476343853"><ele>419.8</ele><time>2026-04-22T14:13:11Z</time></trkpt><trkpt lat="43.68147638080929" lon="6.966722426406549"><ele>418.40000000000003</ele><time>2026-04-22T14:13:12Z</time></trkpt><trkpt lat="43.68151567506891" lon="6.966577237510421"><ele>417.0</ele><time>2026-04-22T14:13:13Z</time></trkpt><trkpt lat="43.68156744668894" lon="6.966443088409563"><ele>416.25</ele><time>2026-04-22T14:13:14Z</time></trkpt><trkpt lat="43.68163545356102" lon="6.966307790483027"><ele>415.5</ele><time>2026-04-22T14:13:15Z</time></trkpt><trkpt lat="43.68166488570376" lon="6.966149373670837"><ele>414.75</ele><time>2026-04-22T14:13:16Z</time></trkpt><trkpt lat="43.6816478531189" lon="6.965942347406712"><ele>414.0</ele><time>2026-04-22T14:13:17Z</time></trkpt><trkpt lat="43.681687208806714" lon="6.965765251886631"><ele>412.5</ele><time>2026-04-22T14:13:18Z</time></trkpt><trkpt lat="43.6817262568748" lon="6.9655765577362665"><ele>411.0</ele><time>2026-04-22T14:13:19Z</time></trkpt><trkpt lat="43.68176653926306" lon="6.965390195394878"><ele>409.5</ele><time>2026-04-22T14:13:20Z</time></trkpt><trkpt lat="43.68180595226744" lon="6.965229403695015"><ele>408.0</ele><time>2026-04-22T14:13:21Z</time></trkpt><trkpt lat="43.681834331427446" lon="6.965076348427719"><ele>406.79999999999995</ele><time>2026-04-22T14:13:22Z</time></trkpt><trkpt lat="43.68185643589683" lon="6.964928301746441"><ele>405.6</ele><time>2026-04-22T14:13:23Z</time></trkpt><trkpt lat="43.68188003356577" lon="6.9647910431410835"><ele>404.4</ele><time>2026-04-22T14:13:24Z</time></trkpt><trkpt lat="43.681902401715675" lon="6.964649102478535"><ele>403.20000000000005</ele><time>2026-04-22T14:13:25Z</time></trkpt><trkpt lat="43.68191902359232" lon="6.964502420457835"><ele>402.0</ele><time>2026-04-22T14:13:26Z</time></trkpt><trkpt lat="43.6819349316034" lon="6.96434367091822"><ele>406.6</ele><time>2026-04-22T14:13:27Z</time></trkpt><trkpt lat="43.681945786732314" lon="6.9641836812834095"><ele>411.20000000000005</ele><time>2026-04-22T14:13:28Z</time></trkpt><trkpt lat="43.6819527075562" lon="6.964031482096421"><ele>415.8</ele><time>2026-04-22T14:13:29Z</time></trkpt><trkpt lat="43.681955574274575" lon="6.963887055351856"><ele>420.4</ele><time>2026-04-22T14:13:30Z</time></trkpt><trkpt lat="43.68195141791677" lon="6.963734943003215"><ele>425.0</ele><time>2026-04-22T14:13:31Z</time></trkpt><trkpt lat="43.681942873567536" lon="6.963575119624541"><ele>419.2</ele><time>2026-04-22T14:13:32Z</time></trkpt><trkpt lat="43.68192822133816" lon="6.963431309247716"><ele>413.4</ele><time>2026-04-22T14:13:33Z</time></trkpt><trkpt lat="43.68191472119198" lon="6.9632970971058645"><ele>407.6</ele><time>2026-04-22T14:13:34Z</time></trkpt><trkpt lat="43.6818953923536" lon="6.963177450412976"><ele>401.8</ele><time>2026-04-22T14:13:35Z</time></trkpt><trkpt lat="43.68187341325834" lon="6.963057632558464"><ele>396.0</ele><time>2026-04-22T14:13:36Z</time></trkpt><trkpt lat="43.6818541485331" lon="6.962934917536128"><ele>395.8</ele><time>2026-04-22T14:13:37Z</time></trkpt><trkpt lat="43.681848241200534" lon="6.962798093052123"><ele>395.6</ele><time>2026-04-22T14:13:38Z</time></trkpt><trkpt lat="43.68182662802366" lon="6.962668349791397"><ele>395.4</ele><time>2026-04-22T14:13:39Z</time></trkpt><trkpt lat="43.68181308432125" lon="6.962545421176569"><ele>395.2</ele><time>2026-04-22T14:13:40Z</time></trkpt><trkpt lat="43.68179988335912" lon="6.962427029614371"><ele>395.0</ele><time>2026-04-22T14:13:41Z</time></trkpt><trkpt lat="43.681785507360054" lon="6.962311180679563"><ele>396.2</ele><time>2026-04-22T14:13:42Z</time></trkpt><trkpt lat="43.68176906497571" lon="6.962191284901192"><ele>397.4</ele><time>2026-04-22T14:13:43Z</time></trkpt><trkpt lat="43.68175241570746" lon="6.962062920128142"><ele>398.6</ele><time>2026-04-22T14:13:44Z</time></trkpt><trkpt lat="43.681740112608026" lon="6.961929782574395"><ele>399.8</ele><time>2026-04-22T14:13:44.999Z</time></trkpt><trkpt lat="43.68172779350683" lon="6.961794924864009"><ele>401.0</ele><time>2026-04-22T14:13:45.999Z</time></trkpt><trkpt lat="43.6817191649829" lon="6.961669633336517"><ele>401.16666666666663</ele><time>2026-04-22T14:13:46.999Z</time></trkpt><trkpt lat="43.681713698096026" lon="6.961553303442856"><ele>401.3333333333333</ele><time>2026-04-22T14:13:47.999Z</time></trkpt><trkpt lat="43.68171598137566" lon="6.961436678594302"><ele>401.5</ele><time>2026-04-22T14:13:48.999Z</time></trkpt><trkpt lat="43.681734745482345" lon="6.961323772369365"><ele>401.66666666666663</ele><time>2026-04-22T14:13:49.999Z</time></trkpt><trkpt lat="43.68177019886349" lon="6.961214585281498"><ele>401.8333333333333</ele><time>2026-04-22T14:13:50.999Z</time></trkpt><trkpt lat="43.68181441355621" lon="6.961111404166246"><ele>402.0</ele><time>2026-04-22T14:13:51.999Z</time></trkpt><trkpt lat="43.68185581847015" lon="6.961005409253572"><ele>402.0</ele><time>2026-04-22T14:13:52.999Z</time></trkpt><trkpt lat="43.68189536340965" lon="6.960910662596823"><ele>402.0</ele><time>2026-04-22T14:13:53.999Z</time></trkpt><trkpt lat="43.68191700251717" lon="6.960810368211602"><ele>402.0</ele><time>2026-04-22T14:13:54.999Z</time></trkpt><trkpt lat="43.68192249983542" lon="6.960702481699268"><ele>402.0</ele><time>2026-04-22T14:13:55.999Z</time></trkpt><trkpt lat="43.68190673022899" lon="6.960587852747086"><ele>402.0</ele><time>2026-04-22T14:13:56.999Z</time></trkpt><trkpt lat="43.68187789974637" lon="6.960473786702576"><ele>402.0</ele><time>2026-04-22T14:13:57.999Z</time></trkpt><trkpt lat="43.681842905361464" lon="6.960352844807942"><ele>402.0</ele><time>2026-04-22T14:13:58.999Z</time></trkpt><trkpt lat="43.681764693978714" lon="6.9602495664908925"><ele>402.0</ele><time>2026-04-22T14:13:59.999Z</time></trkpt><trkpt lat="43.68169943084488" lon="6.960140532780324"><ele>402.0</ele><time>2026-04-22T14:14:00.999Z</time></trkpt><trkpt lat="43.681639899925" lon="6.960034085696094"><ele>402.0</ele><time>2026-04-22T14:14:01.999Z</time></trkpt><trkpt lat="43.6815821468842" lon="6.9599327951913"><ele>402.0</ele><time>2026-04-22T14:14:02.999Z</time></trkpt><trkpt lat="43.68153548165297" lon="6.959826203991918"><ele>402.0</ele><time>2026-04-22T14:14:03.999Z</time></trkpt><trkpt lat="43.681509020060766" lon="6.959717925300266"><ele>402.0</ele><time>2026-04-22T14:14:04.999Z</time></trkpt><trkpt lat="43.68149218621321" lon="6.959600606390036"><ele>402.0</ele><time>2026-04-22T14:14:05.999Z</time></trkpt><trkpt lat="43.681486998173405" lon="6.959482022307356"><ele>402.0</ele><time>2026-04-22T14:14:06.999Z</time></trkpt><trkpt lat="43.68148184720005" lon="6.959360680319342"><ele>402.0</ele><time>2026-04-22T14:14:07.999Z</time></trkpt><trkpt lat="43.68147933122425" lon="6.959239787097985"><ele>402.0</ele><time>2026-04-22T14:14:08.999Z</time></trkpt><trkpt lat="43.681472676804276" lon="6.9591287607833605"><ele>403.1666666666667</ele><time>2026-04-22T14:14:09.999Z</time></trkpt><trkpt lat="43.68146214770767" lon="6.9590230098059465"><ele>404.33333333333337</ele><time>2026-04-22T14:14:10.999Z</time></trkpt><trkpt lat="43.6814423784421" lon="6.95892104548073"><ele>405.5</ele><time>2026-04-22T14:14:11.999Z</time></trkpt><trkpt lat="43.68141105018105" lon="6.95881124190597"><ele>406.6666666666667</ele><time>2026-04-22T14:14:12.999Z</time></trkpt><trkpt lat="43.68137146292315" lon="6.958704974211501"><ele>407.83333333333337</ele><time>2026-04-22T14:14:13.999Z</time></trkpt><trkpt lat="43.68132501839875" lon="6.958605485257883"><ele>409.0</ele><time>2026-04-22T14:14:14.999Z</time></trkpt><trkpt lat="43.68126480213891" lon="6.9584966032913975"><ele>409.00000000000006</ele><time>2026-04-22T14:14:15.999Z</time></trkpt><trkpt lat="43.68120932928443" lon="6.958399501801935"><ele>409.0</ele><time>2026-04-22T14:14:16.999Z</time></trkpt><trkpt lat="43.68115509672929" lon="6.958292944381824"><ele>409.0</ele><time>2026-04-22T14:14:17.999Z</time></trkpt><trkpt lat="43.68110635762937" lon="6.9582085731056145"><ele>409.0</ele><time>2026-04-22T14:14:18.999Z</time></trkpt><trkpt lat="43.681075508882174" lon="6.958102820114839"><ele>409.00000000000006</ele><time>2026-04-22T14:14:19.999Z</time></trkpt><trkpt lat="43.681059431660536" lon="6.957994554945469"><ele>409.0</ele><time>2026-04-22T14:14:20.999Z</time></trkpt><trkpt lat="43.68105560672798" lon="6.957888361630392"><ele>410.2</ele><time>2026-04-22T14:14:21.999Z</time></trkpt><trkpt lat="43.681063647669355" lon="6.957790278514747"><ele>411.4</ele><time>2026-04-22T14:14:22.999Z</time></trkpt><trkpt lat="43.68108514687008" lon="6.957684623259457"><ele>412.6</ele><time>2026-04-22T14:14:23.999Z</time></trkpt><trkpt lat="43.681125329616776" lon="6.957569977798133"><ele>413.8</ele><time>2026-04-22T14:14:24.999Z</time></trkpt><trkpt lat="43.68117359213183" lon="6.9574475791369155"><ele>415.0</ele><time>2026-04-22T14:14:25.999Z</time></trkpt><trkpt lat="43.68122942445495" lon="6.957305111097973"><ele>415.0</ele><time>2026-04-22T14:14:26.999Z</time></trkpt><trkpt lat="43.68129125715673" lon="6.957159551879646"><ele>415.0</ele><time>2026-04-22T14:14:27.999Z</time></trkpt><trkpt lat="43.68135938156255" lon="6.9570140858947775"><ele>415.0</ele><time>2026-04-22T14:14:28.999Z</time></trkpt><trkpt lat="43.68142067537726" lon="6.956868894371422"><ele>415.0</ele><time>2026-04-22T14:14:29.999Z</time></trkpt><trkpt lat="43.68147937687468" lon="6.956737786245527"><ele>412.8</ele><time>2026-04-22T14:14:30.999Z</time></trkpt><trkpt lat="43.68153892669769" lon="6.956601243721334"><ele>410.6</ele><time>2026-04-22T14:14:31.999Z</time></trkpt><trkpt lat="43.681596745807134" lon="6.956464537833377"><ele>408.4</ele><time>2026-04-22T14:14:32.999Z</time></trkpt><trkpt lat="43.68165195687598" lon="6.956336951184298"><ele>406.2</ele><time>2026-04-22T14:14:33.999Z</time></trkpt><trkpt lat="43.6817064270734" lon="6.95621772122767"><ele>404.0</ele><time>2026-04-22T14:14:34.999Z</time></trkpt><trkpt lat="43.681755217532675" lon="6.956102474771634"><ele>403.99999999999994</ele><time>2026-04-22T14:14:35.999Z</time></trkpt><trkpt lat="43.68180063422583" lon="6.955995308108666"><ele>404.0</ele><time>2026-04-22T14:14:36.999Z</time></trkpt><trkpt lat="43.68183466995394" lon="6.95588896195"><ele>404.0</ele><time>2026-04-22T14:14:37.999Z</time></trkpt><trkpt lat="43.68185028113234" lon="6.955773980689479"><ele>404.0</ele><time>2026-04-22T14:14:38.999Z</time></trkpt><trkpt lat="43.68184651109914" lon="6.9556570574679535"><ele>403.99999999999994</ele><time>2026-04-22T14:14:39.999Z</time></trkpt><trkpt lat="43.68182369755508" lon="6.955529555409747"><ele>404.0</ele><time>2026-04-22T14:14:40.999Z</time></trkpt><trkpt lat="43.68178620255541" lon="6.9553936085534005"><ele>402.75</ele><time>2026-04-22T14:14:42Z</time></trkpt><trkpt lat="43.68173806277415" lon="6.95524481137118"><ele>401.5</ele><time>2026-04-22T14:14:43Z</time></trkpt><trkpt lat="43.681687133294986" lon="6.955087982304979"><ele>400.25</ele><time>2026-04-22T14:14:44Z</time></trkpt><trkpt lat="43.681635258891625" lon="6.95491739775771"><ele>399.0</ele><time>2026-04-22T14:14:45Z</time></trkpt><trkpt lat="43.68156925587741" lon="6.9547452140455555"><ele>399.0</ele><time>2026-04-22T14:14:46Z</time></trkpt><trkpt lat="43.681496779940005" lon="6.9545889923313275"><ele>399.0</ele><time>2026-04-22T14:14:47Z</time></trkpt><trkpt lat="43.68143020333144" lon="6.954438372170422"><ele>399.0</ele><time>2026-04-22T14:14:48Z</time></trkpt><trkpt lat="43.68136272744831" lon="6.954290104900689"><ele>399.0</ele><time>2026-04-22T14:14:49Z</time></trkpt><trkpt lat="43.681294253873055" lon="6.954141556129376"><ele>401.75</ele><time>2026-04-22T14:14:50Z</time></trkpt><trkpt lat="43.6812229919199" lon="6.95399513791755"><ele>404.5</ele><time>2026-04-22T14:14:51Z</time></trkpt><trkpt lat="43.681156872844916" lon="6.953853861108986"><ele>407.25</ele><time>2026-04-22T14:14:52Z</time></trkpt><trkpt lat="43.681091265096036" lon="6.953709409009467"><ele>410.0</ele><time>2026-04-22T14:14:53Z</time></trkpt><trkpt lat="43.68102524759096" lon="6.953566488917973"><ele>406.8</ele><time>2026-04-22T14:14:54Z</time></trkpt><trkpt lat="43.68096290130574" lon="6.953432779763165"><ele>403.6</ele><time>2026-04-22T14:14:55Z</time></trkpt><trkpt lat="43.68090382414152" lon="6.953301153169019"><ele>400.4</ele><time>2026-04-22T14:14:56Z</time></trkpt><trkpt lat="43.68084845099827" lon="6.953170998312536"><ele>397.2</ele><time>2026-04-22T14:14:57Z</time></trkpt><trkpt lat="43.68079183877693" lon="6.953039278626003"><ele>394.0</ele><time>2026-04-22T14:14:58Z</time></trkpt><trkpt lat="43.68072623079127" lon="6.952915293357332"><ele>394.0</ele><time>2026-04-22T14:14:59Z</time></trkpt><trkpt lat="43.68065779742989" lon="6.952791352789481"><ele>394.0</ele><time>2026-04-22T14:15:00Z</time></trkpt><trkpt lat="43.68058250531559" lon="6.952672287721071"><ele>394.0</ele><time>2026-04-22T14:15:01Z</time></trkpt><trkpt lat="43.68050647053202" lon="6.952544262559849"><ele>394.0</ele><time>2026-04-22T14:15:02Z</time></trkpt><trkpt lat="43.68042930919893" lon="6.952415871066816"><ele>395.6</ele><time>2026-04-22T14:15:03Z</time></trkpt><trkpt lat="43.68035542687673" lon="6.952295090190497"><ele>397.2</ele><time>2026-04-22T14:15:04Z</time></trkpt><trkpt lat="43.68028688037967" lon="6.952178773209204"><ele>398.8</ele><time>2026-04-22T14:15:05Z</time></trkpt><trkpt lat="43.680224280841564" lon="6.95206173522536"><ele>400.40000000000003</ele><time>2026-04-22T14:15:06Z</time></trkpt><trkpt lat="43.68015673676796" lon="6.951963100245664"><ele>402.0</ele><time>2026-04-22T14:15:07Z</time></trkpt><trkpt lat="43.68009447962851" lon="6.9518601376003595"><ele>400.3333333333333</ele><time>2026-04-22T14:15:08Z</time></trkpt><trkpt lat="43.68003356331547" lon="6.951768447236122"><ele>398.66666666666663</ele><time>2026-04-22T14:15:09Z</time></trkpt><trkpt lat="43.6799887629269" lon="6.951678092261573"><ele>397.0</ele><time>2026-04-22T14:15:10Z</time></trkpt><trkpt lat="43.67995676928739" lon="6.951587924840981"><ele>395.3333333333333</ele><time>2026-04-22T14:15:11Z</time></trkpt><trkpt lat="43.67993670862246" lon="6.9514852813909185"><ele>393.66666666666663</ele><time>2026-04-22T14:15:12Z</time></trkpt><trkpt lat="43.67992671886484" lon="6.951387563193844"><ele>392.0</ele><time>2026-04-22T14:15:13Z</time></trkpt><trkpt lat="43.67992920148255" lon="6.951280948539273"><ele>392.0</ele><time>2026-04-22T14:15:14Z</time></trkpt><trkpt lat="43.679931626019034" lon="6.95115547740143"><ele>392.0</ele><time>2026-04-22T14:15:15Z</time></trkpt><trkpt lat="43.679930964944155" lon="6.951018311418283"><ele>392.0</ele><time>2026-04-22T14:15:16Z</time></trkpt><trkpt lat="43.67992605172045" lon="6.950881453902683"><ele>392.0</ele><time>2026-04-22T14:15:17Z</time></trkpt><trkpt lat="43.67991060769321" lon="6.950735537780927"><ele>392.0</ele><time>2026-04-22T14:15:18Z</time></trkpt><trkpt lat="43.67988137929846" lon="6.950595004524712"><ele>392.6</ele><time>2026-04-22T14:15:19Z</time></trkpt><trkpt lat="43.67983164060078" lon="6.950461065739694"><ele>393.20000000000005</ele><time>2026-04-22T14:15:20Z</time></trkpt><trkpt lat="43.679772662378014" lon="6.950328881845937"><ele>393.8</ele><time>2026-04-22T14:15:21Z</time></trkpt><trkpt lat="43.679704542954624" lon="6.950202759799981"><ele>394.4</ele><time>2026-04-22T14:15:22Z</time></trkpt><trkpt lat="43.679650913019685" lon="6.9500819509561715"><ele>395.0</ele><time>2026-04-22T14:15:23Z</time></trkpt><trkpt lat="43.6796048248426" lon="6.949972694018049"><ele>396.6</ele><time>2026-04-22T14:15:24Z</time></trkpt><trkpt lat="43.679572027800624" lon="6.949844898065658"><ele>398.2</ele><time>2026-04-22T14:15:25Z</time></trkpt><trkpt lat="43.6795535124713" lon="6.9497054089411465"><ele>399.79999999999995</ele><time>2026-04-22T14:15:26Z</time></trkpt><trkpt lat="43.67955361285304" lon="6.949562669188364"><ele>401.4</ele><time>2026-04-22T14:15:27Z</time></trkpt><trkpt lat="43.67957096920722" lon="6.949421499125824"><ele>403.0</ele><time>2026-04-22T14:15:28Z</time></trkpt><trkpt lat="43.67960331468291" lon="6.949275190519929"><ele>403.25</ele><time>2026-04-22T14:15:29Z</time></trkpt><trkpt lat="43.67964911764278" lon="6.949120864772747"><ele>403.5</ele><time>2026-04-22T14:15:30Z</time></trkpt><trkpt lat="43.67970274981718" lon="6.948960623443986"><ele>403.75</ele><time>2026-04-22T14:15:31Z</time></trkpt><trkpt lat="43.67974907941559" lon="6.9488118968792785"><ele>404.0</ele><time>2026-04-22T14:15:32Z</time></trkpt><trkpt lat="43.679789719376686" lon="6.948683480992504"><ele>404.0</ele><time>2026-04-22T14:15:33Z</time></trkpt><trkpt lat="43.679815402256494" lon="6.948562473331972"><ele>404.0</ele><time>2026-04-22T14:15:34Z</time></trkpt><trkpt lat="43.67982466081614" lon="6.948441633097317"><ele>404.0</ele><time>2026-04-22T14:15:35Z</time></trkpt><trkpt lat="43.67981523024022" lon="6.948319580375578"><ele>404.0</ele><time>2026-04-22T14:15:36Z</time></trkpt><trkpt lat="43.6797842274793" lon="6.948199141785532"><ele>404.0</ele><time>2026-04-22T14:15:37Z</time></trkpt><trkpt lat="43.67973496969183" lon="6.9480833429114535"><ele>402.2</ele><time>2026-04-22T14:15:38Z</time></trkpt><trkpt lat="43.679665638814285" lon="6.947980325606742"><ele>400.4</ele><time>2026-04-22T14:15:39Z</time></trkpt><trkpt lat="43.67958003286291" lon="6.947896916659684"><ele>398.6</ele><time>2026-04-22T14:15:40Z</time></trkpt><trkpt lat="43.67948273738563" lon="6.947839244601135"><ele>396.8</ele><time>2026-04-22T14:15:41Z</time></trkpt><trkpt lat="43.6793762389961" lon="6.947802852118152"><ele>395.0</ele><time>2026-04-22T14:15:42Z</time></trkpt><trkpt lat="43.679262091821045" lon="6.947780502657827"><ele>391.0</ele><time>2026-04-22T14:15:43Z</time></trkpt><trkpt lat="43.67914074246546" lon="6.947747909254185"><ele>387.0</ele><time>2026-04-22T14:15:44Z</time></trkpt><trkpt lat="43.67901075473349" lon="6.947707154647009"><ele>383.0</ele><time>2026-04-22T14:15:45Z</time></trkpt><trkpt lat="43.67887530416835" lon="6.94766495633749"><ele>379.0</ele><time>2026-04-22T14:15:46Z</time></trkpt><trkpt lat="43.6787274765199" lon="6.947618660050717"><ele>378.0</ele><time>2026-04-22T14:15:47Z</time></trkpt><trkpt lat="43.678564603889875" lon="6.947567047228026"><ele>377.0</ele><time>2026-04-22T14:15:48Z</time></trkpt><trkpt lat="43.67840110163318" lon="6.947518438362367"><ele>376.0</ele><time>2026-04-22T14:15:49Z</time></trkpt><trkpt lat="43.67826405588909" lon="6.947476833710247"><ele>377.75</ele><time>2026-04-22T14:15:50Z</time></trkpt><trkpt lat="43.678128896430735" lon="6.947432851288485"><ele>379.5</ele><time>2026-04-22T14:15:51Z</time></trkpt><trkpt lat="43.678000080188276" lon="6.947393788059564"><ele>381.25</ele><time>2026-04-22T14:15:52Z</time></trkpt><trkpt lat="43.67787527064162" lon="6.947354892213026"><ele>383.0</ele><time>2026-04-22T14:15:52.999Z</time></trkpt><trkpt lat="43.677749918458495" lon="6.947314658463356"><ele>383.0</ele><time>2026-04-22T14:15:53.999Z</time></trkpt><trkpt lat="43.67762472344839" lon="6.94727390053572"><ele>383.0</ele><time>2026-04-22T14:15:54.999Z</time></trkpt><trkpt lat="43.67749593169665" lon="6.947232006754053"><ele>383.0</ele><time>2026-04-22T14:15:55.999Z</time></trkpt><trkpt lat="43.677364665566685" lon="6.947191577336823"><ele>383.0</ele><time>2026-04-22T14:15:56.999Z</time></trkpt><trkpt lat="43.67724002326426" lon="6.947151900966235"><ele>383.0</ele><time>2026-04-22T14:15:57.999Z</time></trkpt><trkpt lat="43.677118252681865" lon="6.947116390024765"><ele>383.0</ele><time>2026-04-22T14:15:58.999Z</time></trkpt><trkpt lat="43.67700367518297" lon="6.947080242401055"><ele>383.0</ele><time>2026-04-22T14:15:59.999Z</time></trkpt><trkpt lat="43.67689622342083" lon="6.947048856063356"><ele>383.0</ele><time>2026-04-22T14:16:00.999Z</time></trkpt><trkpt lat="43.6767905800663" lon="6.947026877380065"><ele>381.0</ele><time>2026-04-22T14:16:01.999Z</time></trkpt><trkpt lat="43.67668974127879" lon="6.946998604718906"><ele>379.0</ele><time>2026-04-22T14:16:02.999Z</time></trkpt><trkpt lat="43.67659209728266" lon="6.946963378390473"><ele>377.0</ele><time>2026-04-22T14:16:03.999Z</time></trkpt><trkpt lat="43.67650082399952" lon="6.946925889113923"><ele>375.0</ele><time>2026-04-22T14:16:04.999Z</time></trkpt><trkpt lat="43.67641496414715" lon="6.946876375942891"><ele>373.0</ele><time>2026-04-22T14:16:05.999Z</time></trkpt><trkpt lat="43.676330076776836" lon="6.9468151594837515"><ele>373.0</ele><time>2026-04-22T14:16:06.999Z</time></trkpt><trkpt lat="43.676245349460096" lon="6.946741336712193"><ele>373.0</ele><time>2026-04-22T14:16:07.999Z</time></trkpt><trkpt lat="43.67616011187366" lon="6.946665221261371"><ele>373.0</ele><time>2026-04-22T14:16:08.999Z</time></trkpt><trkpt lat="43.6760766150296" lon="6.946589807127785"><ele>373.0</ele><time>2026-04-22T14:16:09.999Z</time></trkpt><trkpt lat="43.67598671161301" lon="6.946520998542259"><ele>373.0</ele><time>2026-04-22T14:16:10.999Z</time></trkpt><trkpt lat="43.67588330457171" lon="6.946457728186014"><ele>374.79999999999995</ele><time>2026-04-22T14:16:11.999Z</time></trkpt><trkpt lat="43.67577220925122" lon="6.946403038252459"><ele>376.6</ele><time>2026-04-22T14:16:12.999Z</time></trkpt><trkpt lat="43.675673596554454" lon="6.94632899938598"><ele>378.4</ele><time>2026-04-22T14:16:13.999Z</time></trkpt><trkpt lat="43.675583365907286" lon="6.946255148810497"><ele>380.20000000000005</ele><time>2026-04-22T14:16:14.999Z</time></trkpt><trkpt lat="43.67550612556711" lon="6.946154357216535"><ele>382.0</ele><time>2026-04-22T14:16:15.999Z</time></trkpt><trkpt lat="43.67541065220922" lon="6.946074896121373"><ele>382.0</ele><time>2026-04-22T14:16:16.999Z</time></trkpt><trkpt lat="43.67531209740788" lon="6.945954921066047"><ele>382.0</ele><time>2026-04-22T14:16:17.999Z</time></trkpt><trkpt lat="43.67522601453045" lon="6.945800256038432"><ele>382.0</ele><time>2026-04-22T14:16:18.999Z</time></trkpt><trkpt lat="43.675140170052124" lon="6.9457726940098015"><ele>382.0</ele><time>2026-04-22T14:16:19.999Z</time></trkpt><trkpt lat="43.67506198947186" lon="6.945615582714515"><ele>381.0</ele><time>2026-04-22T14:16:20.999Z</time></trkpt><trkpt lat="43.67496312245652" lon="6.945469749828483"><ele>380.0</ele><time>2026-04-22T14:16:21.999Z</time></trkpt><trkpt lat="43.67487249663101" lon="6.945325281373827"><ele>379.0</ele><time>2026-04-22T14:16:22.999Z</time></trkpt><trkpt lat="43.67477562053303" lon="6.945195539034826"><ele>378.0</ele><time>2026-04-22T14:16:23.999Z</time></trkpt><trkpt lat="43.67466575547714" lon="6.945069574671101"><ele>376.0</ele><time>2026-04-22T14:16:24.999Z</time></trkpt><trkpt lat="43.674547766997634" lon="6.944940469775716"><ele>374.0</ele><time>2026-04-22T14:16:25.999Z</time></trkpt><trkpt lat="43.6744358397796" lon="6.944816302423653"><ele>372.0</ele><time>2026-04-22T14:16:26.999Z</time></trkpt><trkpt lat="43.6743349806371" lon="6.944684838015466"><ele>370.0</ele><time>2026-04-22T14:16:27.999Z</time></trkpt><trkpt lat="43.674246272366574" lon="6.944551648523001"><ele>370.0</ele><time>2026-04-22T14:16:28.999Z</time></trkpt><trkpt lat="43.674167972146094" lon="6.944416401648627"><ele>370.0</ele><time>2026-04-22T14:16:29.999Z</time></trkpt><trkpt lat="43.67408651904648" lon="6.944291821869481"><ele>370.0</ele><time>2026-04-22T14:16:30.999Z</time></trkpt><trkpt lat="43.67401225397871" lon="6.94416996478077"><ele>370.0</ele><time>2026-04-22T14:16:31.999Z</time></trkpt><trkpt lat="43.673951898354396" lon="6.944056524941061"><ele>390.0</ele><time>2026-04-22T14:16:32.999Z</time></trkpt><trkpt lat="43.673908292323965" lon="6.943946178415474"><ele>390.0</ele><time>2026-04-22T14:16:33.999Z</time></trkpt><trkpt lat="43.67387617469844" lon="6.943825974702667"><ele>390.0</ele><time>2026-04-22T14:16:34.999Z</time></trkpt><trkpt lat="43.67385278575404" lon="6.943720230446101"><ele>390.0</ele><time>2026-04-22T14:16:35.999Z</time></trkpt><trkpt lat="43.67384216615689" lon="6.943612112670073"><ele>390.0</ele><time>2026-04-22T14:16:37.999Z</time></trkpt></trkseg><trkseg><trkpt lat="43.66700127803497" lon="6.927542619065588"><ele>495.0</ele><time>2026-04-22T14:31:13.999Z</time></trkpt><trkpt lat="43.667003965406394" lon="6.927444051639819"><ele>495.0</ele><time>2026-04-22T14:31:15.999Z</time></trkpt><trkpt lat="43.66700746228647" lon="6.927351236104937"><ele>495.0</ele><time>2026-04-22T14:31:16.999Z</time></trkpt><trkpt lat="43.667007175807235" lon="6.927234999035529"><ele>495.0</ele><time>2026-04-22T14:31:17.999Z</time></trkpt><trkpt lat="43.667026511270166" lon="6.927108184758799"><ele>495.0</ele><time>2026-04-22T14:31:18.999Z</time></trkpt><trkpt lat="43.66703113600637" lon="6.926996883167184"><ele>495.0</ele><time>2026-04-22T14:31:19.999Z</time></trkpt><trkpt lat="43.66703735643465" lon="6.9268835504876165"><ele>495.0</ele><time>2026-04-22T14:31:20.999Z</time></trkpt><trkpt lat="43.66704288268723" lon="6.926784735363629"><ele>495.0</ele><time>2026-04-22T14:31:21.999Z</time></trkpt><trkpt lat="43.66706110014428" lon="6.926659451905573"><ele>495.0</ele><time>2026-04-22T14:31:23.999Z</time></trkpt><trkpt lat="43.66715579804007" lon="6.926629850786175"><ele>495.0</ele><time>2026-04-22T14:31:25.999Z</time></trkpt><trkpt lat="43.66722630868655" lon="6.9267481809685885"><ele>495.0</ele><time>2026-04-22T14:31:27.999Z</time></trkpt><trkpt lat="43.66719204965192" lon="6.92692067558719"><ele>495.0</ele><time>2026-04-22T14:31:30Z</time></trkpt><trkpt lat="43.6671580446179" lon="6.927009664756687"><ele>495.0</ele><time>2026-04-22T14:31:31Z</time></trkpt><trkpt lat="43.667131002842765" lon="6.927119853022844"><ele>495.0</ele><time>2026-04-22T14:31:32Z</time></trkpt><trkpt lat="43.66710791428531" lon="6.9272282114714185"><ele>495.0</ele><time>2026-04-22T14:31:33Z</time></trkpt><trkpt lat="43.667113587623845" lon="6.927366776406118"><ele>495.0</ele><time>2026-04-22T14:31:34Z</time></trkpt><trkpt lat="43.667115061713936" lon="6.9274997091626815"><ele>495.0</ele><time>2026-04-22T14:31:35Z</time></trkpt><trkpt lat="43.66711516921979" lon="6.9276398833321755"><ele>496.4</ele><time>2026-04-22T14:31:36Z</time></trkpt><trkpt lat="43.667112669812916" lon="6.92778312080912"><ele>497.8</ele><time>2026-04-22T14:31:37Z</time></trkpt><trkpt lat="43.66711142070024" lon="6.927928467632452"><ele>499.20000000000005</ele><time>2026-04-22T14:31:38Z</time></trkpt><trkpt lat="43.66710824509545" lon="6.928085785067915"><ele>500.6</ele><time>2026-04-22T14:31:39Z</time></trkpt><trkpt lat="43.66710159478982" lon="6.928234050054394"><ele>502.0</ele><time>2026-04-22T14:31:40Z</time></trkpt><trkpt lat="43.66707917138478" lon="6.928368871450027"><ele>503.6</ele><time>2026-04-22T14:31:41Z</time></trkpt><trkpt lat="43.667036876395514" lon="6.9285042952903755"><ele>505.20000000000005</ele><time>2026-04-22T14:31:42Z</time></trkpt><trkpt lat="43.6669951026985" lon="6.928646368413414"><ele>506.8</ele><time>2026-04-22T14:31:43Z</time></trkpt><trkpt lat="43.666951399138746" lon="6.928793880699542"><ele>508.4</ele><time>2026-04-22T14:31:44Z</time></trkpt><trkpt lat="43.66691239537258" lon="6.928933133360397"><ele>510.0</ele><time>2026-04-22T14:31:45Z</time></trkpt><trkpt lat="43.66687430204227" lon="6.929070484022662"><ele>509.8</ele><time>2026-04-22T14:31:46Z</time></trkpt><trkpt lat="43.66684735054271" lon="6.9292020124323965"><ele>509.6</ele><time>2026-04-22T14:31:47Z</time></trkpt><trkpt lat="43.66684958939988" lon="6.929332578920925"><ele>509.4</ele><time>2026-04-22T14:31:48Z</time></trkpt><trkpt lat="43.66686709656167" lon="6.929450588920164"><ele>509.2</ele><time>2026-04-22T14:31:49Z</time></trkpt><trkpt lat="43.66690399629371" lon="6.929564434809721"><ele>509.0</ele><time>2026-04-22T14:31:50Z</time></trkpt><trkpt lat="43.666958642968595" lon="6.929690046638354"><ele>509.0</ele><time>2026-04-22T14:31:51Z</time></trkpt><trkpt lat="43.66703019160347" lon="6.929820798516484"><ele>509.0</ele><time>2026-04-22T14:31:52Z</time></trkpt><trkpt lat="43.6671015988495" lon="6.929964230291033"><ele>509.0</ele><time>2026-04-22T14:31:53Z</time></trkpt><trkpt lat="43.6671607058712" lon="6.930125752166072"><ele>509.0</ele><time>2026-04-22T14:31:54Z</time></trkpt><trkpt lat="43.66721373219772" lon="6.930302122129254"><ele>521.0</ele><time>2026-04-22T14:31:55Z</time></trkpt><trkpt lat="43.66858609156705" lon="6.926448670511299"><ele>521.0</ele><time>2026-04-22T14:32:55.999Z</time></trkpt><trkpt lat="43.66855640117319" lon="6.9262939423086705"><ele>521.0</ele><time>2026-04-22T14:32:56.999Z</time></trkpt><trkpt lat="43.66852468623214" lon="6.926134603465417"><ele>521.0</ele><time>2026-04-22T14:32:57.999Z</time></trkpt><trkpt lat="43.66847971548992" lon="6.925988724334706"><ele>521.0</ele><time>2026-04-22T14:32:58.999Z</time></trkpt><trkpt lat="43.66845569983021" lon="6.925855696822153"><ele>521.0</ele><time>2026-04-22T14:32:59.999Z</time></trkpt><trkpt lat="43.66843403525544" lon="6.92573879545386"><ele>522.0</ele><time>2026-04-22T14:33:00.999Z</time></trkpt><trkpt lat="43.66842137269366" lon="6.925627792483866"><ele>523.0</ele><time>2026-04-22T14:33:01.999Z</time></trkpt><trkpt lat="43.66842417304313" lon="6.925517904158533"><ele>524.0</ele><time>2026-04-22T14:33:02.999Z</time></trkpt><trkpt lat="43.66842598574899" lon="6.925403390788931"><ele>525.0</ele><time>2026-04-22T14:33:03.999Z</time></trkpt><trkpt lat="43.668421614082554" lon="6.925275839457497"><ele>526.0</ele><time>2026-04-22T14:33:04.999Z</time></trkpt><trkpt lat="43.668415724900726" lon="6.92513063409356"><ele>527.0</ele><time>2026-04-22T14:33:05.999Z</time></trkpt><trkpt lat="43.668398589979184" lon="6.92498722344538"><ele>528.2</ele><time>2026-04-22T14:33:06.999Z</time></trkpt><trkpt lat="43.66836936385675" lon="6.924866513406299"><ele>529.4000000000001</ele><time>2026-04-22T14:33:07.999Z</time></trkpt><trkpt lat="43.66832242246524" lon="6.924747472459073"><ele>530.5999999999999</ele><time>2026-04-22T14:33:08.999Z</time></trkpt><trkpt lat="43.668265504710014" lon="6.924622654659452"><ele>531.8</ele><time>2026-04-22T14:33:09.999Z</time></trkpt><trkpt lat="43.66821912454624" lon="6.924482793850213"><ele>533.0</ele><time>2026-04-22T14:33:10.999Z</time></trkpt><trkpt lat="43.66818409611806" lon="6.924321431252179"><ele>535.5</ele><time>2026-04-22T14:33:11.999Z</time></trkpt><trkpt lat="43.66815556226451" lon="6.924148056673495"><ele>538.0</ele><time>2026-04-22T14:33:12.999Z</time></trkpt><trkpt lat="43.66812787383666" lon="6.9239675523959745"><ele>540.5</ele><time>2026-04-22T14:33:13.999Z</time></trkpt><trkpt lat="43.66810730619046" lon="6.923764122127443"><ele>543.0</ele><time>2026-04-22T14:33:14.999Z</time></trkpt><trkpt lat="43.668079000494785" lon="6.923553632795979"><ele>545.3333333333334</ele><time>2026-04-22T14:33:15.999Z</time></trkpt><trkpt lat="43.66804714532246" lon="6.92333433010266"><ele>547.6666666666667</ele><time>2026-04-22T14:33:16.999Z</time></trkpt><trkpt lat="43.66799569786638" lon="6.923138049750033"><ele>550.0</ele><time>2026-04-22T14:33:17.999Z</time></trkpt><trkpt lat="43.667943953585244" lon="6.922948575113287"><ele>550.0</ele><time>2026-04-22T14:33:18.999Z</time></trkpt><trkpt lat="43.66788215338736" lon="6.922761672925582"><ele>550.0</ele><time>2026-04-22T14:33:19.999Z</time></trkpt><trkpt lat="43.667822305017175" lon="6.922569070618515"><ele>550.0</ele><time>2026-04-22T14:33:20.999Z</time></trkpt><trkpt lat="43.66776172632931" lon="6.9223817135088295"><ele>550.0</ele><time>2026-04-22T14:33:21.999Z</time></trkpt><trkpt lat="43.66769781016684" lon="6.92219760777268"><ele>549.5</ele><time>2026-04-22T14:33:22.999Z</time></trkpt><trkpt lat="43.667632672039254" lon="6.922016755207811"><ele>549.0</ele><time>2026-04-22T14:33:23.999Z</time></trkpt><trkpt lat="43.66757068566545" lon="6.921838564585026"><ele>548.5</ele><time>2026-04-22T14:33:24.999Z</time></trkpt><trkpt lat="43.667505833652385" lon="6.921659910443566"><ele>548.0</ele><time>2026-04-22T14:33:25.999Z</time></trkpt><trkpt lat="43.66744070783264" lon="6.921481080404563"><ele>548.0</ele><time>2026-04-22T14:33:26.999Z</time></trkpt><trkpt lat="43.667375627668704" lon="6.921302185159629"><ele>548.0</ele><time>2026-04-22T14:33:27.999Z</time></trkpt><trkpt lat="43.667316984706034" lon="6.921114786313012"><ele>548.0</ele><time>2026-04-22T14:33:28.999Z</time></trkpt><trkpt lat="43.66726338601792" lon="6.9209291988863"><ele>548.0</ele><time>2026-04-22T14:33:29.999Z</time></trkpt><trkpt lat="43.66721554543476" lon="6.920745700362976"><ele>549.75</ele><time>2026-04-22T14:33:30.999Z</time></trkpt><trkpt lat="43.667173065220545" lon="6.920564200158961"><ele>551.5</ele><time>2026-04-22T14:33:31.999Z</time></trkpt><trkpt lat="43.66713856944023" lon="6.920385490910758"><ele>553.25</ele><time>2026-04-22T14:33:32.998Z</time></trkpt><trkpt lat="43.667115553403356" lon="6.92020342129358"><ele>555.0</ele><time>2026-04-22T14:33:33.998Z</time></trkpt><trkpt lat="43.66709027462717" lon="6.920014461736946"><ele>557.5</ele><time>2026-04-22T14:33:35Z</time></trkpt><trkpt lat="43.66706817037594" lon="6.919819567183111"><ele>560.0</ele><time>2026-04-22T14:33:36Z</time></trkpt><trkpt lat="43.6670528290583" lon="6.919626738467974"><ele>562.5</ele><time>2026-04-22T14:33:37Z</time></trkpt><trkpt lat="43.66704326147042" lon="6.919431085162886"><ele>565.0</ele><time>2026-04-22T14:33:38Z</time></trkpt><trkpt lat="43.66704026235738" lon="6.919242522393828"><ele>565.75</ele><time>2026-04-22T14:33:39Z</time></trkpt><trkpt lat="43.66704985834339" lon="6.919057210415343"><ele>566.5</ele><time>2026-04-22T14:33:40Z</time></trkpt><trkpt lat="43.667063924139036" lon="6.918870561209961"><ele>567.25</ele><time>2026-04-22T14:33:41Z</time></trkpt><trkpt lat="43.6670796212489" lon="6.918681846536589"><ele>568.0</ele><time>2026-04-22T14:33:42Z</time></trkpt><trkpt lat="43.66709768212089" lon="6.9184878645554"><ele>568.5</ele><time>2026-04-22T14:33:43Z</time></trkpt><trkpt lat="43.6671261982526" lon="6.918298739979379"><ele>569.0</ele><time>2026-04-22T14:33:44Z</time></trkpt><trkpt lat="43.66715626277113" lon="6.918107437443159"><ele>569.5</ele><time>2026-04-22T14:33:45Z</time></trkpt><trkpt lat="43.667187368570964" lon="6.917906662478165"><ele>570.0</ele><time>2026-04-22T14:33:46Z</time></trkpt><trkpt lat="43.66722455942676" lon="6.917702681336753"><ele>569.6666666666666</ele><time>2026-04-22T14:33:47Z</time></trkpt><trkpt lat="43.667267509367626" lon="6.9175007367529835"><ele>569.3333333333333</ele><time>2026-04-22T14:33:48Z</time></trkpt><trkpt lat="43.667313866877095" lon="6.917300097985466"><ele>569.0</ele><time>2026-04-22T14:33:49Z</time></trkpt><trkpt lat="43.667366078933725" lon="6.917104540853981"><ele>569.0</ele><time>2026-04-22T14:33:50Z</time></trkpt><trkpt lat="43.667420813972996" lon="6.9169150978236456"><ele>569.0</ele><time>2026-04-22T14:33:51Z</time></trkpt><trkpt lat="43.66747531578266" lon="6.916731691859999"><ele>569.0</ele><time>2026-04-22T14:33:52Z</time></trkpt><trkpt lat="43.66753587331966" lon="6.916544992436725"><ele>569.0</ele><time>2026-04-22T14:33:53Z</time></trkpt><trkpt lat="43.667603200905866" lon="6.916354755945781"><ele>568.5</ele><time>2026-04-22T14:33:54Z</time></trkpt><trkpt lat="43.667674655275825" lon="6.916163313594157"><ele>568.0</ele><time>2026-04-22T14:33:55Z</time></trkpt><trkpt lat="43.6702653765889" lon="6.909431858369814"><ele>581.5</ele><time>2026-04-22T14:34:55.999Z</time></trkpt><trkpt lat="43.670278143795684" lon="6.909272115626275"><ele>595.0</ele><time>2026-04-22T14:34:56.999Z</time></trkpt><trkpt lat="43.67029441640115" lon="6.90909558671322"><ele>608.5</ele><time>2026-04-22T14:34:57.999Z</time></trkpt><trkpt lat="43.67030888919303" lon="6.908907434490985"><ele>622.0</ele><time>2026-04-22T14:34:58.999Z</time></trkpt><trkpt lat="43.670325493103604" lon="6.908710372334769"><ele>624.0</ele><time>2026-04-22T14:34:59.999Z</time></trkpt><trkpt lat="43.67034119187716" lon="6.908503423704454"><ele>626.0</ele><time>2026-04-22T14:35:00.999Z</time></trkpt><trkpt lat="43.67035782943703" lon="6.90830029049566"><ele>628.0</ele><time>2026-04-22T14:35:01.999Z</time></trkpt><trkpt lat="43.67037474212874" lon="6.908125757382935"><ele>630.0</ele><time>2026-04-22T14:35:02.999Z</time></trkpt><trkpt lat="43.67039132215258" lon="6.907970814505125"><ele>630.0</ele><time>2026-04-22T14:35:03.999Z</time></trkpt><trkpt lat="43.67042380276595" lon="6.907817301031863"><ele>630.0</ele><time>2026-04-22T14:35:04.999Z</time></trkpt><trkpt lat="43.67048124845521" lon="6.907662302189173"><ele>630.0</ele><time>2026-04-22T14:35:05.999Z</time></trkpt><trkpt lat="43.670548975552926" lon="6.907509020289294"><ele>630.0</ele><time>2026-04-22T14:35:06.999Z</time></trkpt><trkpt lat="43.67061287872719" lon="6.907338980366427"><ele>629.25</ele><time>2026-04-22T14:35:07.999Z</time></trkpt><trkpt lat="43.670680985468536" lon="6.907159210210968"><ele>628.5</ele><time>2026-04-22T14:35:08.999Z</time></trkpt><trkpt lat="43.67074679153481" lon="6.906973551860263"><ele>627.75</ele><time>2026-04-22T14:35:09.999Z</time></trkpt><trkpt lat="43.67081318197491" lon="6.906798665548931"><ele>627.0</ele><time>2026-04-22T14:35:10.999Z</time></trkpt><trkpt lat="43.67087593876054" lon="6.906632306765165"><ele>624.5</ele><time>2026-04-22T14:35:11.999Z</time></trkpt><trkpt lat="43.67093995688638" lon="6.9064711548893385"><ele>622.0</ele><time>2026-04-22T14:35:12.999Z</time></trkpt><trkpt lat="43.671021859060495" lon="6.906317872156114"><ele>619.5</ele><time>2026-04-22T14:35:13.999Z</time></trkpt><trkpt lat="43.6711200522608" lon="6.906169506951879"><ele>617.0</ele><time>2026-04-22T14:35:14.999Z</time></trkpt><trkpt lat="43.67122714473079" lon="6.906025302737383"><ele>622.25</ele><time>2026-04-22T14:35:15.999Z</time></trkpt><trkpt lat="43.67132035725048" lon="6.9058939112325"><ele>627.5</ele><time>2026-04-22T14:35:16.999Z</time></trkpt><trkpt lat="43.67139423943233" lon="6.905772327217479"><ele>632.75</ele><time>2026-04-22T14:35:17.999Z</time></trkpt><trkpt lat="43.6714504033337" lon="6.905647176772081"><ele>638.0</ele><time>2026-04-22T14:35:18.999Z</time></trkpt><trkpt lat="43.6714820494106" lon="6.905503382865744"><ele>638.0</ele><time>2026-04-22T14:35:19.999Z</time></trkpt><trkpt lat="43.671493815332575" lon="6.905353936018498"><ele>638.0</ele><time>2026-04-22T14:35:20.999Z</time></trkpt><trkpt lat="43.67148209904066" lon="6.905185252746694"><ele>638.0</ele><time>2026-04-22T14:35:21.999Z</time></trkpt><trkpt lat="43.67146716368658" lon="6.90500935591252"><ele>638.0</ele><time>2026-04-22T14:35:22.999Z</time></trkpt><trkpt lat="43.67145204063518" lon="6.904821273796924"><ele>638.0</ele><time>2026-04-22T14:35:23.999Z</time></trkpt><trkpt lat="43.67144012727341" lon="6.904627412802177"><ele>638.0</ele><time>2026-04-22T14:35:24.999Z</time></trkpt><trkpt lat="43.67143223242219" lon="6.904426419999748"><ele>638.0</ele><time>2026-04-22T14:35:25.999Z</time></trkpt><trkpt lat="43.6714350940371" lon="6.904219715038248"><ele>638.0</ele><time>2026-04-22T14:35:26.999Z</time></trkpt><trkpt lat="43.6714535205118" lon="6.904010003914905"><ele>638.6666666666666</ele><time>2026-04-22T14:35:27.999Z</time></trkpt><trkpt lat="43.67148871942361" lon="6.903797045039087"><ele>639.3333333333334</ele><time>2026-04-22T14:35:28.999Z</time></trkpt><trkpt lat="43.67153523780996" lon="6.903572314723045"><ele>640.0</ele><time>2026-04-22T14:35:29.999Z</time></trkpt><trkpt lat="43.67159114504034" lon="6.903340036399163"><ele>640.0</ele><time>2026-04-22T14:35:30.999Z</time></trkpt><trkpt lat="43.6716576587322" lon="6.903105952285914"><ele>640.0</ele><time>2026-04-22T14:35:31.998Z</time></trkpt><trkpt lat="43.67173110459187" lon="6.9028757837167145"><ele>640.0</ele><time>2026-04-22T14:35:32.998Z</time></trkpt><trkpt lat="43.67181041599502" lon="6.9026680803623846"><ele>638.0</ele><time>2026-04-22T14:35:33.998Z</time></trkpt><trkpt lat="43.671894738876446" lon="6.902462351977709"><ele>636.0</ele><time>2026-04-22T14:35:34.998Z</time></trkpt><trkpt lat="43.671977780817436" lon="6.90226925481236"><ele>634.0</ele><time>2026-04-22T14:35:35.998Z</time></trkpt><trkpt lat="43.67205156671181" lon="6.902096602087839"><ele>637.75</ele><time>2026-04-22T14:35:36.998Z</time></trkpt><trkpt lat="43.67212667820338" lon="6.901938227756704"><ele>641.5</ele><time>2026-04-22T14:35:37.998Z</time></trkpt><trkpt lat="43.672204734816944" lon="6.901790395820094"><ele>645.25</ele><time>2026-04-22T14:35:38.998Z</time></trkpt><trkpt lat="43.67228487183632" lon="6.901654904253699"><ele>649.0</ele><time>2026-04-22T14:35:39.998Z</time></trkpt><trkpt lat="43.67237347813128" lon="6.9015402121409615"><ele>649.0</ele><time>2026-04-22T14:35:41Z</time></trkpt><trkpt lat="43.67247429299596" lon="6.901440884942119"><ele>649.0</ele><time>2026-04-22T14:35:42Z</time></trkpt><trkpt lat="43.67259356599392" lon="6.901356846502497"><ele>649.0</ele><time>2026-04-22T14:35:43Z</time></trkpt><trkpt lat="43.67272011774822" lon="6.901278061343856"><ele>649.0</ele><time>2026-04-22T14:35:44Z</time></trkpt><trkpt lat="43.672855276111655" lon="6.901196791213463"><ele>656.3333333333334</ele><time>2026-04-22T14:35:45Z</time></trkpt><trkpt lat="43.672988883607246" lon="6.901109771277867"><ele>663.6666666666666</ele><time>2026-04-22T14:35:46Z</time></trkpt><trkpt lat="43.67312814111408" lon="6.901030185789682"><ele>671.0</ele><time>2026-04-22T14:35:47Z</time></trkpt><trkpt lat="43.67326979571621" lon="6.90094223379998"><ele>671.0</ele><time>2026-04-22T14:35:48Z</time></trkpt><trkpt lat="43.67341138730392" lon="6.900853366546236"><ele>671.0</ele><time>2026-04-22T14:35:49Z</time></trkpt><trkpt lat="43.67354468952182" lon="6.9007692839523616"><ele>671.0</ele><time>2026-04-22T14:35:50Z</time></trkpt><trkpt lat="43.67367186595687" lon="6.900686434802106"><ele>671.0</ele><time>2026-04-22T14:35:51Z</time></trkpt><trkpt lat="43.67379633409714" lon="6.900608094039605"><ele>671.0</ele><time>2026-04-22T14:35:52Z</time></trkpt><trkpt lat="43.673923949312154" lon="6.900530076949933"><ele>671.0</ele><time>2026-04-22T14:35:53Z</time></trkpt><trkpt lat="43.67405421385716" lon="6.900461813347364"><ele>671.0</ele><time>2026-04-22T14:35:54Z</time></trkpt><trkpt lat="43.67418942615867" lon="6.900401739377913"><ele>671.0</ele><time>2026-04-22T14:35:55Z</time></trkpt><trkpt lat="43.67788572725937" lon="6.903120225657723"><ele>679.5</ele><time>2026-04-22T14:36:55.999Z</time></trkpt><trkpt lat="43.67798457644505" lon="6.903072107228862"><ele>688.0</ele><time>2026-04-22T14:36:56.999Z</time></trkpt><trkpt lat="43.67810116246798" lon="6.903047521991451"><ele>696.5</ele><time>2026-04-22T14:36:57.999Z</time></trkpt><trkpt lat="43.67821822297413" lon="6.903012132250243"><ele>705.0</ele><time>2026-04-22T14:36:58.999Z</time></trkpt><trkpt lat="43.678324828517" lon="6.902975589484231"><ele>705.0</ele><time>2026-04-22T14:36:59.999Z</time></trkpt><trkpt lat="43.678416658316344" lon="6.902933359192494"><ele>705.0</ele><time>2026-04-22T14:37:00.999Z</time></trkpt><trkpt lat="43.67849158459512" lon="6.902860319790263"><ele>705.0</ele><time>2026-04-22T14:37:01.999Z</time></trkpt><trkpt lat="43.678551218451865" lon="6.902758409035824"><ele>705.0</ele><time>2026-04-22T14:37:02.999Z</time></trkpt><trkpt lat="43.67858349652525" lon="6.902636790332842"><ele>705.0</ele><time>2026-04-22T14:37:03.999Z</time></trkpt><trkpt lat="43.678588635666095" lon="6.902514657004729"><ele>703.0</ele><time>2026-04-22T14:37:04.999Z</time></trkpt><trkpt lat="43.67855996853543" lon="6.902392851399458"><ele>701.0</ele><time>2026-04-22T14:37:05.999Z</time></trkpt><trkpt lat="43.67850007728954" lon="6.902283279355762"><ele>699.0</ele><time>2026-04-22T14:37:06.999Z</time></trkpt><trkpt lat="43.67841567696629" lon="6.902194725872824"><ele>697.0</ele><time>2026-04-22T14:37:07.999Z</time></trkpt><trkpt lat="43.67831003305061" lon="6.9021197697735115"><ele>695.0</ele><time>2026-04-22T14:37:08.999Z</time></trkpt><trkpt lat="43.678205764068956" lon="6.902036827482773"><ele>695.0</ele><time>2026-04-22T14:37:09.999Z</time></trkpt><trkpt lat="43.6781084927761" lon="6.901941340065407"><ele>695.0</ele><time>2026-04-22T14:37:10.999Z</time></trkpt><trkpt lat="43.678025063222115" lon="6.901833313681988"><ele>695.0</ele><time>2026-04-22T14:37:11.999Z</time></trkpt><trkpt lat="43.67795193757632" lon="6.901709914750633"><ele>695.0</ele><time>2026-04-22T14:37:12.999Z</time></trkpt><trkpt lat="43.67789785124588" lon="6.901554254032214"><ele>698.0</ele><time>2026-04-22T14:37:13.999Z</time></trkpt><trkpt lat="43.67784466352858" lon="6.901389245957782"><ele>701.0</ele><time>2026-04-22T14:37:14.999Z</time></trkpt><trkpt lat="43.67779017357411" lon="6.90122905319247"><ele>704.0</ele><time>2026-04-22T14:37:15.999Z</time></trkpt><trkpt lat="43.67773815945626" lon="6.901071864503607"><ele>707.0</ele><time>2026-04-22T14:37:16.999Z</time></trkpt><trkpt lat="43.67769860037906" lon="6.900916152673718"><ele>702.25</ele><time>2026-04-22T14:37:17.999Z</time></trkpt><trkpt lat="43.67768513559128" lon="6.90075534788892"><ele>697.5</ele><time>2026-04-22T14:37:18.999Z</time></trkpt><trkpt lat="43.67769190763288" lon="6.900588329349363"><ele>692.75</ele><time>2026-04-22T14:37:19.999Z</time></trkpt><trkpt lat="43.67771476537966" lon="6.9004170352567495"><ele>688.0</ele><time>2026-04-22T14:37:20.999Z</time></trkpt><trkpt lat="43.677746977219265" lon="6.90023874260325"><ele>697.75</ele><time>2026-04-22T14:37:21.999Z</time></trkpt><trkpt lat="43.67778430566968" lon="6.9000456491332685"><ele>707.5</ele><time>2026-04-22T14:37:22.999Z</time></trkpt><trkpt lat="43.67782344724602" lon="6.899850027541859"><ele>717.25</ele><time>2026-04-22T14:37:23.999Z</time></trkpt><trkpt lat="43.6778621082592" lon="6.899659662937961"><ele>727.0</ele><time>2026-04-22T14:37:24.999Z</time></trkpt><trkpt lat="43.6778999846776" lon="6.899472273703924"><ele>727.0</ele><time>2026-04-22T14:37:25.999Z</time></trkpt><trkpt lat="43.677938576330206" lon="6.899284411989462"><ele>727.0</ele><time>2026-04-22T14:37:26.999Z</time></trkpt><trkpt lat="43.67797929144722" lon="6.899103619722903"><ele>727.0</ele><time>2026-04-22T14:37:27.999Z</time></trkpt><trkpt lat="43.67801685485519" lon="6.898925946379703"><ele>727.0</ele><time>2026-04-22T14:37:28.999Z</time></trkpt><trkpt lat="43.678054737384194" lon="6.898754055884565"><ele>725.75</ele><time>2026-04-22T14:37:29.999Z</time></trkpt><trkpt lat="43.67809848293186" lon="6.898584004569493"><ele>724.5</ele><time>2026-04-22T14:37:30.999Z</time></trkpt><trkpt lat="43.67814644139653" lon="6.898417597627401"><ele>723.25</ele><time>2026-04-22T14:37:31.999Z</time></trkpt><trkpt lat="43.678197966007865" lon="6.898246368676584"><ele>722.0</ele><time>2026-04-22T14:37:32.999Z</time></trkpt><trkpt lat="43.678255607534595" lon="6.898083418298971"><ele>720.5</ele><time>2026-04-22T14:37:33.999Z</time></trkpt><trkpt lat="43.6783112601407" lon="6.897915570341918"><ele>719.0</ele><time>2026-04-22T14:37:34.998Z</time></trkpt><trkpt lat="43.67836751921262" lon="6.897755303952427"><ele>717.5</ele><time>2026-04-22T14:37:35.998Z</time></trkpt><trkpt lat="43.67842464576643" lon="6.897589508366791"><ele>716.0</ele><time>2026-04-22T14:37:36.998Z</time></trkpt><trkpt lat="43.67848339735881" lon="6.897438795352984"><ele>714.5999999999999</ele><time>2026-04-22T14:37:37.998Z</time></trkpt><trkpt lat="43.67853709231105" lon="6.897309640547686"><ele>713.2</ele><time>2026-04-22T14:37:38.998Z</time></trkpt><trkpt lat="43.67858807612501" lon="6.897181711665599"><ele>711.8</ele><time>2026-04-22T14:37:39.998Z</time></trkpt><trkpt lat="43.67864206345882" lon="6.897053267492217"><ele>710.4000000000001</ele><time>2026-04-22T14:37:40.998Z</time></trkpt><trkpt lat="43.67870127056455" lon="6.896924099204715"><ele>709.0</ele><time>2026-04-22T14:37:41.998Z</time></trkpt><trkpt lat="43.67876286848851" lon="6.896792237736907"><ele>712.8000000000001</ele><time>2026-04-22T14:37:42.998Z</time></trkpt><trkpt lat="43.678845289886254" lon="6.896684661634962"><ele>716.6</ele><time>2026-04-22T14:37:43.998Z</time></trkpt><trkpt lat="43.67891888431106" lon="6.896567070614718"><ele>720.4</ele><time>2026-04-22T14:37:44.998Z</time></trkpt><trkpt lat="43.67900014515425" lon="6.896468595413232"><ele>724.2</ele><time>2026-04-22T14:37:46Z</time></trkpt><trkpt lat="43.67907698387321" lon="6.896379055072549"><ele>728.0</ele><time>2026-04-22T14:37:47Z</time></trkpt><trkpt lat="43.679161792312826" lon="6.896291763520474"><ele>728.0</ele><time>2026-04-22T14:37:48Z</time></trkpt><trkpt lat="43.67924211473223" lon="6.896207185357826"><ele>728.0</ele><time>2026-04-22T14:37:49Z</time></trkpt><trkpt lat="43.679315275084114" lon="6.896136600626944"><ele>728.0</ele><time>2026-04-22T14:37:50Z</time></trkpt><trkpt lat="43.67939681014726" lon="6.8960608240045795"><ele>728.0</ele><time>2026-04-22T14:37:51Z</time></trkpt><trkpt lat="43.67948122172672" lon="6.895975146137363"><ele>728.0</ele><time>2026-04-22T14:37:52Z</time></trkpt><trkpt lat="43.679559747594084" lon="6.895885142452061"><ele>732.0</ele><time>2026-04-22T14:37:53Z</time></trkpt><trkpt lat="43.67961870019841" lon="6.895789079302503"><ele>736.0</ele><time>2026-04-22T14:37:54Z</time></trkpt><trkpt lat="43.67964958732713" lon="6.895670442001512"><ele>740.0</ele><time>2026-04-22T14:37:55Z</time></trkpt><trkpt lat="43.68384413215095" lon="6.886081562195367"><ele>749.25</ele><time>2026-04-22T14:38:55.999Z</time></trkpt><trkpt lat="43.68392115180333" lon="6.885939715530238"><ele>758.5</ele><time>2026-04-22T14:38:56.999Z</time></trkpt><trkpt lat="43.684001486056665" lon="6.885794041105926"><ele>767.75</ele><time>2026-04-22T14:38:57.999Z</time></trkpt><trkpt lat="43.68408321517169" lon="6.885650708001312"><ele>777.0</ele><time>2026-04-22T14:38:58.999Z</time></trkpt><trkpt lat="43.68416678293729" lon="6.885502872793893"><ele>777.0</ele><time>2026-04-22T14:38:59.999Z</time></trkpt><trkpt lat="43.68425263947622" lon="6.885359897567444"><ele>777.0</ele><time>2026-04-22T14:39:00.999Z</time></trkpt><trkpt lat="43.68434035505591" lon="6.885210943306516"><ele>777.0</ele><time>2026-04-22T14:39:01.999Z</time></trkpt><trkpt lat="43.6844304487573" lon="6.885055716181101"><ele>777.0</ele><time>2026-04-22T14:39:02.999Z</time></trkpt><trkpt lat="43.68452174483221" lon="6.884892243443787"><ele>778.75</ele><time>2026-04-22T14:39:03.999Z</time></trkpt><trkpt lat="43.684616188235395" lon="6.8847285631315005"><ele>780.5</ele><time>2026-04-22T14:39:04.999Z</time></trkpt><trkpt lat="43.68469724816932" lon="6.884576062786301"><ele>782.25</ele><time>2026-04-22T14:39:05.999Z</time></trkpt><trkpt lat="43.68476631198985" lon="6.884411238653024"><ele>784.0</ele><time>2026-04-22T14:39:06.999Z</time></trkpt><trkpt lat="43.68482321166232" lon="6.884230800755104"><ele>784.0</ele><time>2026-04-22T14:39:07.999Z</time></trkpt><trkpt lat="43.68486453941105" lon="6.884032995678323"><ele>784.0</ele><time>2026-04-22T14:39:08.999Z</time></trkpt><trkpt lat="43.68489781819292" lon="6.883831714736026"><ele>784.0</ele><time>2026-04-22T14:39:09.999Z</time></trkpt><trkpt lat="43.68492843681514" lon="6.8836305887172395"><ele>784.0</ele><time>2026-04-22T14:39:10.999Z</time></trkpt><trkpt lat="43.68495769455467" lon="6.883425222162559"><ele>784.0</ele><time>2026-04-22T14:39:11.999Z</time></trkpt><trkpt lat="43.684987431592916" lon="6.883219015193898"><ele>784.0</ele><time>2026-04-22T14:39:12.999Z</time></trkpt><trkpt lat="43.685014878909634" lon="6.883014088290165"><ele>784.0</ele><time>2026-04-22T14:39:13.999Z</time></trkpt><trkpt lat="43.685044478563825" lon="6.882815007689378"><ele>784.0</ele><time>2026-04-22T14:39:14.999Z</time></trkpt><trkpt lat="43.68507210502581" lon="6.882618249084445"><ele>784.0</ele><time>2026-04-22T14:39:15.999Z</time></trkpt><trkpt lat="43.68509926850322" lon="6.882417909244808"><ele>784.0</ele><time>2026-04-22T14:39:16.999Z</time></trkpt><trkpt lat="43.6851252020896" lon="6.882216991389515"><ele>784.0</ele><time>2026-04-22T14:39:17.999Z</time></trkpt><trkpt lat="43.68515162676556" lon="6.882029127934127"><ele>784.25</ele><time>2026-04-22T14:39:18.999Z</time></trkpt><trkpt lat="43.68517578624078" lon="6.881847574296839"><ele>784.5</ele><time>2026-04-22T14:39:19.999Z</time></trkpt><trkpt lat="43.68519888967332" lon="6.88166859417945"><ele>784.75</ele><time>2026-04-22T14:39:20.999Z</time></trkpt><trkpt lat="43.68523000900757" lon="6.881486631478356"><ele>785.0</ele><time>2026-04-22T14:39:21.999Z</time></trkpt><trkpt lat="43.685266916765" lon="6.8813042869499474"><ele>784.75</ele><time>2026-04-22T14:39:22.999Z</time></trkpt><trkpt lat="43.68531935442467" lon="6.881125643960087"><ele>784.5</ele><time>2026-04-22T14:39:23.999Z</time></trkpt><trkpt lat="43.68537800667071" lon="6.880939791854158"><ele>784.25</ele><time>2026-04-22T14:39:24.999Z</time></trkpt><trkpt lat="43.68544363945304" lon="6.880749255673582"><ele>784.0</ele><time>2026-04-22T14:39:25.999Z</time></trkpt><trkpt lat="43.68551734416255" lon="6.8805572320632065"><ele>784.0</ele><time>2026-04-22T14:39:26.999Z</time></trkpt><trkpt lat="43.68559104896027" lon="6.8803529338967975"><ele>784.0</ele><time>2026-04-22T14:39:27.999Z</time></trkpt><trkpt lat="43.685665751828374" lon="6.880149073055984"><ele>784.0</ele><time>2026-04-22T14:39:28.999Z</time></trkpt><trkpt lat="43.68574208307803" lon="6.879942434009865"><ele>783.0</ele><time>2026-04-22T14:39:29.999Z</time></trkpt><trkpt lat="43.685818997578124" lon="6.879731884162697"><ele>782.0</ele><time>2026-04-22T14:39:30.999Z</time></trkpt><trkpt lat="43.68589638539201" lon="6.879518657157151"><ele>781.0</ele><time>2026-04-22T14:39:31.999Z</time></trkpt><trkpt lat="43.68597852884821" lon="6.879308060313245"><ele>780.3333333333333</ele><time>2026-04-22T14:39:32.999Z</time></trkpt><trkpt lat="43.68606258488899" lon="6.879099462750703"><ele>779.6666666666667</ele><time>2026-04-22T14:39:33.999Z</time></trkpt><trkpt lat="43.68614788887308" lon="6.878887650254647"><ele>779.0</ele><time>2026-04-22T14:39:34.999Z</time></trkpt><trkpt lat="43.68623195492193" lon="6.878669551645265"><ele>779.0</ele><time>2026-04-22T14:39:35.999Z</time></trkpt><trkpt lat="43.68631627491413" lon="6.87845028188704"><ele>779.0</ele><time>2026-04-22T14:39:36.998Z</time></trkpt><trkpt lat="43.686398913866135" lon="6.878227196507537"><ele>779.0</ele><time>2026-04-22T14:39:37.998Z</time></trkpt><trkpt lat="43.68648489071963" lon="6.8780086359659744"><ele>777.6666666666667</ele><time>2026-04-22T14:39:38.998Z</time></trkpt><trkpt lat="43.6865725021479" lon="6.877787745625332"><ele>776.3333333333333</ele><time>2026-04-22T14:39:39.998Z</time></trkpt><trkpt lat="43.68665842163742" lon="6.877567137166333"><ele>775.0</ele><time>2026-04-22T14:39:40.998Z</time></trkpt><trkpt lat="43.686743460034826" lon="6.87733577853658"><ele>773.0</ele><time>2026-04-22T14:39:41.998Z</time></trkpt><trkpt lat="43.68682425821131" lon="6.877106982304627"><ele>771.0</ele><time>2026-04-22T14:39:42.998Z</time></trkpt><trkpt lat="43.686903041819555" lon="6.876876727241593"><ele>769.0</ele><time>2026-04-22T14:39:43.998Z</time></trkpt><trkpt lat="43.68697209411925" lon="6.876653814495381"><ele>768.3333333333333</ele><time>2026-04-22T14:39:44.998Z</time></trkpt><trkpt lat="43.687037228303815" lon="6.876430888779106"><ele>767.6666666666666</ele><time>2026-04-22T14:39:45.998Z</time></trkpt><trkpt lat="43.68710013608629" lon="6.8762050132585495"><ele>767.0</ele><time>2026-04-22T14:39:46.998Z</time></trkpt><trkpt lat="43.6871617687128" lon="6.87598347738932"><ele>766.6666666666666</ele><time>2026-04-22T14:39:47.998Z</time></trkpt><trkpt lat="43.687219847428544" lon="6.875761302069411"><ele>766.3333333333334</ele><time>2026-04-22T14:39:48.998Z</time></trkpt><trkpt lat="43.68727865934871" lon="6.875545044869954"><ele>766.0</ele><time>2026-04-22T14:39:49.998Z</time></trkpt><trkpt lat="43.687340478691105" lon="6.8753373428575095"><ele>766.0</ele><time>2026-04-22T14:39:51Z</time></trkpt><trkpt lat="43.68741163693921" lon="6.875131821697177"><ele>766.0</ele><time>2026-04-22T14:39:52Z</time></trkpt><trkpt lat="43.68749320803667" lon="6.874929186261069"><ele>766.0</ele><time>2026-04-22T14:39:53Z</time></trkpt><trkpt lat="43.68758014741739" lon="6.874720955791664"><ele>765.5</ele><time>2026-04-22T14:39:54Z</time></trkpt><trkpt lat="43.687668640407296" lon="6.87452375833604"><ele>765.0</ele><time>2026-04-22T14:39:55Z</time></trkpt><trkpt lat="43.69132131657071" lon="6.863088632645598"><ele>761.0</ele><time>2026-04-22T14:40:55.999Z</time></trkpt><trkpt lat="43.69136786000236" lon="6.862921132208361"><ele>757.0</ele><time>2026-04-22T14:40:56.999Z</time></trkpt><trkpt lat="43.691416286158464" lon="6.862758597415154"><ele>753.0</ele><time>2026-04-22T14:40:57.999Z</time></trkpt><trkpt lat="43.69147165176726" lon="6.862611852999817"><ele>749.0</ele><time>2026-04-22T14:40:58.999Z</time></trkpt><trkpt lat="43.69153478684385" lon="6.862455488950887"><ele>747.75</ele><time>2026-04-22T14:40:59.999Z</time></trkpt><trkpt lat="43.69159676280838" lon="6.862295971584771"><ele>746.5</ele><time>2026-04-22T14:41:00.999Z</time></trkpt><trkpt lat="43.69166514957271" lon="6.862134520971988"><ele>745.25</ele><time>2026-04-22T14:41:01.999Z</time></trkpt><trkpt lat="43.691740917757215" lon="6.861968635812543"><ele>744.0</ele><time>2026-04-22T14:41:02.999Z</time></trkpt><trkpt lat="43.691821080951776" lon="6.8618144297859285"><ele>744.5</ele><time>2026-04-22T14:41:03.999Z</time></trkpt><trkpt lat="43.69189552644505" lon="6.86165605729637"><ele>745.0</ele><time>2026-04-22T14:41:04.999Z</time></trkpt><trkpt lat="43.69196926223731" lon="6.8615047264862845"><ele>745.5</ele><time>2026-04-22T14:41:05.999Z</time></trkpt><trkpt lat="43.69204587992985" lon="6.861365312746291"><ele>746.0</ele><time>2026-04-22T14:41:06.999Z</time></trkpt><trkpt lat="43.69211872646288" lon="6.861225365069399"><ele>746.0</ele><time>2026-04-22T14:41:07.999Z</time></trkpt><trkpt lat="43.692189094891965" lon="6.8610739484283805"><ele>746.0</ele><time>2026-04-22T14:41:08.999Z</time></trkpt><trkpt lat="43.69226466473271" lon="6.860933138188601"><ele>746.0</ele><time>2026-04-22T14:41:09.999Z</time></trkpt><trkpt lat="43.69234077867615" lon="6.860795904099978"><ele>746.0</ele><time>2026-04-22T14:41:10.999Z</time></trkpt><trkpt lat="43.692417733467586" lon="6.860668973801957"><ele>746.0</ele><time>2026-04-22T14:41:11.999Z</time></trkpt><trkpt lat="43.692491925716226" lon="6.860554516370046"><ele>746.0</ele><time>2026-04-22T14:41:12.999Z</time></trkpt><trkpt lat="43.692567806443144" lon="6.860443544173448"><ele>746.0</ele><time>2026-04-22T14:41:13.999Z</time></trkpt><trkpt lat="43.692641343362055" lon="6.8603306639915145"><ele>746.0</ele><time>2026-04-22T14:41:14.999Z</time></trkpt><trkpt lat="43.69272353086759" lon="6.8602274264170955"><ele>746.0</ele><time>2026-04-22T14:41:15.999Z</time></trkpt><trkpt lat="43.69279549624082" lon="6.8601169932717765"><ele>744.5999999999999</ele><time>2026-04-22T14:41:16.999Z</time></trkpt><trkpt lat="43.69286619627588" lon="6.8599976751271114"><ele>743.2</ele><time>2026-04-22T14:41:17.999Z</time></trkpt><trkpt lat="43.69293636553569" lon="6.859877117353176"><ele>741.8</ele><time>2026-04-22T14:41:18.999Z</time></trkpt><trkpt lat="43.69301260090266" lon="6.859770793124838"><ele>740.4000000000001</ele><time>2026-04-22T14:41:19.999Z</time></trkpt><trkpt lat="43.69307557920335" lon="6.859655307348049"><ele>739.0</ele><time>2026-04-22T14:41:20.999Z</time></trkpt><trkpt lat="43.69313254492668" lon="6.859530458856887"><ele>739.0</ele><time>2026-04-22T14:41:21.999Z</time></trkpt><trkpt lat="43.693190048466846" lon="6.859393901708808"><ele>739.0</ele><time>2026-04-22T14:41:22.999Z</time></trkpt><trkpt lat="43.693243161408304" lon="6.859248010846719"><ele>739.0</ele><time>2026-04-22T14:41:23.999Z</time></trkpt><trkpt lat="43.693292813551864" lon="6.859093747074598"><ele>739.0</ele><time>2026-04-22T14:41:24.999Z</time></trkpt><trkpt lat="43.69333791824985" lon="6.858936852136851"><ele>738.0</ele><time>2026-04-22T14:41:25.999Z</time></trkpt><trkpt lat="43.69337914799166" lon="6.8587748242257485"><ele>737.0</ele><time>2026-04-22T14:41:26.999Z</time></trkpt><trkpt lat="43.69341647718104" lon="6.858614810737188"><ele>736.0</ele><time>2026-04-22T14:41:27.999Z</time></trkpt><trkpt lat="43.693452475544994" lon="6.858456251262603"><ele>735.0</ele><time>2026-04-22T14:41:28.999Z</time></trkpt><trkpt lat="43.69348632700753" lon="6.8583063755138"><ele>734.6</ele><time>2026-04-22T14:41:29.999Z</time></trkpt><trkpt lat="43.693519158232796" lon="6.8581621765542735"><ele>734.2</ele><time>2026-04-22T14:41:30.999Z</time></trkpt><trkpt lat="43.69355003134425" lon="6.8580245136354705"><ele>733.8</ele><time>2026-04-22T14:41:31.999Z</time></trkpt><trkpt lat="43.69358635392658" lon="6.857886845963933"><ele>733.4</ele><time>2026-04-22T14:41:32.999Z</time></trkpt><trkpt lat="43.69361725028814" lon="6.857746316859692"><ele>733.0</ele><time>2026-04-22T14:41:33.999Z</time></trkpt><trkpt lat="43.69365005991616" lon="6.8576122017860595"><ele>731.75</ele><time>2026-04-22T14:41:34.999Z</time></trkpt><trkpt lat="43.693688974826294" lon="6.857467426748143"><ele>730.5</ele><time>2026-04-22T14:41:35.998Z</time></trkpt><trkpt lat="43.69373210084975" lon="6.8573288646734305"><ele>729.25</ele><time>2026-04-22T14:41:36.998Z</time></trkpt><trkpt lat="43.69377237399367" lon="6.857185038666967"><ele>728.0</ele><time>2026-04-22T14:41:37.998Z</time></trkpt><trkpt lat="43.69382509284459" lon="6.857034002579507"><ele>728.0</ele><time>2026-04-22T14:41:38.998Z</time></trkpt><trkpt lat="43.69387297594533" lon="6.856883022986082"><ele>728.0</ele><time>2026-04-22T14:41:39.998Z</time></trkpt><trkpt lat="43.69392559083239" lon="6.856735249153691"><ele>728.0</ele><time>2026-04-22T14:41:40.998Z</time></trkpt><trkpt lat="43.693972938201824" lon="6.856586543568516"><ele>728.0</ele><time>2026-04-22T14:41:41.998Z</time></trkpt><trkpt lat="43.69402997943098" lon="6.856441592834787"><ele>727.0</ele><time>2026-04-22T14:41:42.998Z</time></trkpt><trkpt lat="43.69408916544145" lon="6.856308220132378"><ele>726.0</ele><time>2026-04-22T14:41:43.998Z</time></trkpt><trkpt lat="43.69414597848458" lon="6.856188877384126"><ele>725.0</ele><time>2026-04-22T14:41:44.998Z</time></trkpt><trkpt lat="43.69421176695078" lon="6.8560707883936205"><ele>724.0</ele><time>2026-04-22T14:41:45.998Z</time></trkpt><trkpt lat="43.69427973113642" lon="6.855943329008385"><ele>723.0</ele><time>2026-04-22T14:41:46.998Z</time></trkpt><trkpt lat="43.69435836027094" lon="6.855813063608406"><ele>722.75</ele><time>2026-04-22T14:41:47.998Z</time></trkpt><trkpt lat="43.69443769918554" lon="6.855687478532606"><ele>722.5</ele><time>2026-04-22T14:41:48.998Z</time></trkpt><trkpt lat="43.69451165635821" lon="6.855561079461497"><ele>722.25</ele><time>2026-04-22T14:41:49.998Z</time></trkpt><trkpt lat="43.69459151839905" lon="6.8554353064656395"><ele>722.0</ele><time>2026-04-22T14:41:50.998Z</time></trkpt><trkpt lat="43.69467470497542" lon="6.855310098130135"><ele>722.0</ele><time>2026-04-22T14:41:51.998Z</time></trkpt><trkpt lat="43.69475419402957" lon="6.855181696116385"><ele>722.0</ele><time>2026-04-22T14:41:52.998Z</time></trkpt><trkpt lat="43.69483521849462" lon="6.855052554539311"><ele>722.0</ele><time>2026-04-22T14:41:53.998Z</time></trkpt><trkpt lat="43.69491718193679" lon="6.854933685341722"><ele>722.0</ele><time>2026-04-22T14:41:54.998Z</time></trkpt><trkpt lat="43.69783422475765" lon="6.850288278216322"><ele>721.1666666666666</ele><time>2026-04-22T14:42:55.999Z</time></trkpt><trkpt lat="43.69788004588001" lon="6.850200771788843"><ele>720.3333333333333</ele><time>2026-04-22T14:42:56.999Z</time></trkpt><trkpt lat="43.69792088365968" lon="6.850109573262422"><ele>719.5</ele><time>2026-04-22T14:42:57.999Z</time></trkpt><trkpt lat="43.69795713750176" lon="6.850016285711164"><ele>718.6666666666666</ele><time>2026-04-22T14:42:58.999Z</time></trkpt><trkpt lat="43.69799417330946" lon="6.8499210573607145"><ele>717.8333333333334</ele><time>2026-04-22T14:42:59.999Z</time></trkpt><trkpt lat="43.698029405327816" lon="6.8498258074837945"><ele>717.0</ele><time>2026-04-22T14:43:00.999Z</time></trkpt><trkpt lat="43.698067043861776" lon="6.849719606865154"><ele>717.0</ele><time>2026-04-22T14:43:01.999Z</time></trkpt><trkpt lat="43.69809384343866" lon="6.849602282610137"><ele>717.0</ele><time>2026-04-22T14:43:02.999Z</time></trkpt><trkpt lat="43.698116235802" lon="6.849488822205834"><ele>717.0</ele><time>2026-04-22T14:43:03.999Z</time></trkpt><trkpt lat="43.6981411046927" lon="6.849377268586647"><ele>717.0</ele><time>2026-04-22T14:43:04.999Z</time></trkpt><trkpt lat="43.69815952008509" lon="6.8492722107141475"><ele>717.0</ele><time>2026-04-22T14:43:05.999Z</time></trkpt><trkpt lat="43.69817822604325" lon="6.849168604542999"><ele>717.0</ele><time>2026-04-22T14:43:06.999Z</time></trkpt><trkpt lat="43.69819666704512" lon="6.849073295493905"><ele>717.1666666666666</ele><time>2026-04-22T14:43:07.999Z</time></trkpt><trkpt lat="43.69821170953729" lon="6.8489840888136095"><ele>717.3333333333334</ele><time>2026-04-22T14:43:08.999Z</time></trkpt><trkpt lat="43.6982244198353" lon="6.848876462547638"><ele>717.5</ele><time>2026-04-22T14:43:09.999Z</time></trkpt><trkpt lat="43.698241129675736" lon="6.8487782950379765"><ele>717.6666666666667</ele><time>2026-04-22T14:43:10.999Z</time></trkpt><trkpt lat="43.698303218929475" lon="6.84860634375943"><ele>717.8333333333334</ele><time>2026-04-22T14:43:12.999Z</time></trkpt><trkpt lat="43.69832463059635" lon="6.8485017156585535"><ele>718.0</ele><time>2026-04-22T14:43:13.999Z</time></trkpt><trkpt lat="43.69834734463728" lon="6.848414661961268"><ele>718.0</ele><time>2026-04-22T14:43:14.999Z</time></trkpt><trkpt lat="43.698373126361844" lon="6.848330500496442"><ele>718.0</ele><time>2026-04-22T14:43:15.999Z</time></trkpt><trkpt lat="43.698397715624864" lon="6.848245311732835"><ele>718.0</ele><time>2026-04-22T14:43:16.999Z</time></trkpt><trkpt lat="43.69847498642267" lon="6.8481552358476385"><ele>718.0</ele><time>2026-04-22T14:43:18.999Z</time></trkpt><trkpt lat="43.69857328724776" lon="6.848146276079543"><ele>718.0</ele><time>2026-04-22T14:43:20.999Z</time></trkpt><trkpt lat="43.698636445781226" lon="6.848160343898888"><ele>718.0</ele><time>2026-04-22T14:43:21.999Z</time></trkpt><trkpt lat="43.6987044506369" lon="6.84817555467814"><ele>717.6666666666667</ele><time>2026-04-22T14:43:22.999Z</time></trkpt><trkpt lat="43.69877654267562" lon="6.8481944048381065"><ele>717.3333333333334</ele><time>2026-04-22T14:43:23.999Z</time></trkpt><trkpt lat="43.698851069419085" lon="6.848215866691429"><ele>717.0</ele><time>2026-04-22T14:43:24.999Z</time></trkpt><trkpt lat="43.698919733903914" lon="6.848237144163922"><ele>716.6666666666666</ele><time>2026-04-22T14:43:25.999Z</time></trkpt><trkpt lat="43.69898837750469" lon="6.848265857568171"><ele>716.3333333333333</ele><time>2026-04-22T14:43:26.999Z</time></trkpt><trkpt lat="43.699051345351386" lon="6.848293377140931"><ele>716.0</ele><time>2026-04-22T14:43:27.999Z</time></trkpt><trkpt lat="43.69916706918611" lon="6.8483401289062025"><ele>716.0</ele><time>2026-04-22T14:43:29.999Z</time></trkpt><trkpt lat="43.69927870186637" lon="6.848378370823162"><ele>716.0</ele><time>2026-04-22T14:43:31.999Z</time></trkpt><trkpt lat="43.69934095184698" lon="6.848406457814995"><ele>716.0</ele><time>2026-04-22T14:43:32.999Z</time></trkpt><trkpt lat="43.69941228546252" lon="6.848437686567979"><ele>716.0</ele><time>2026-04-22T14:43:33.999Z</time></trkpt><trkpt lat="43.69949139389868" lon="6.848468660565033"><ele>716.0</ele><time>2026-04-22T14:43:34.999Z</time></trkpt><trkpt lat="43.69957757453955" lon="6.848501152247503"><ele>716.0</ele><time>2026-04-22T14:43:35.999Z</time></trkpt><trkpt lat="43.69966792040976" lon="6.848532871659159"><ele>716.8</ele><time>2026-04-22T14:43:36.999Z</time></trkpt><trkpt lat="43.69976013172205" lon="6.848566976378616"><ele>717.5999999999999</ele><time>2026-04-22T14:43:37.999Z</time></trkpt><trkpt lat="43.6998542710127" lon="6.848603520799932"><ele>718.4</ele><time>2026-04-22T14:43:38.999Z</time></trkpt><trkpt lat="43.69995510051369" lon="6.848635997427074"><ele>719.2</ele><time>2026-04-22T14:43:39.998Z</time></trkpt><trkpt lat="43.700047588020965" lon="6.848665615201659"><ele>720.0</ele><time>2026-04-22T14:43:40.998Z</time></trkpt><trkpt lat="43.7001356388323" lon="6.848698526186032"><ele>720.0</ele><time>2026-04-22T14:43:41.998Z</time></trkpt><trkpt lat="43.700218698253856" lon="6.848728627365673"><ele>720.0</ele><time>2026-04-22T14:43:42.998Z</time></trkpt><trkpt lat="43.70029133905787" lon="6.848754580681644"><ele>720.0</ele><time>2026-04-22T14:43:43.998Z</time></trkpt><trkpt lat="43.70040177148533" lon="6.848792530687022"><ele>720.0</ele><time>2026-04-22T14:43:45.998Z</time></trkpt><trkpt lat="43.70049915910573" lon="6.848825191211397"><ele>720.0</ele><time>2026-04-22T14:43:47.998Z</time></trkpt><trkpt lat="43.700629076215634" lon="6.848879654541183"><ele>721.0</ele><time>2026-04-22T14:43:49.998Z</time></trkpt><trkpt lat="43.700707198815415" lon="6.848910814389327"><ele>722.0</ele><time>2026-04-22T14:43:50.998Z</time></trkpt><trkpt lat="43.7007934410584" lon="6.848941022500121"><ele>723.0</ele><time>2026-04-22T14:43:51.998Z</time></trkpt><trkpt lat="43.700880950068736" lon="6.848980487545882"><ele>724.0</ele><time>2026-04-22T14:43:52.998Z</time></trkpt><trkpt lat="43.70096908904207" lon="6.8490196786006985"><ele>725.0</ele><time>2026-04-22T14:43:53.998Z</time></trkpt><trkpt lat="43.70106507823584" lon="6.848961606388063"><ele>766.0</ele><time>2026-04-22T14:43:54.998Z</time></trkpt><trkpt lat="43.70597208446273" lon="6.844222272702607"><ele>766.0</ele><time>2026-04-22T14:44:55.999Z</time></trkpt><trkpt lat="43.705976740086" lon="6.844048118664423"><ele>766.0</ele><time>2026-04-22T14:44:56.999Z</time></trkpt><trkpt lat="43.70596658960047" lon="6.843872131976042"><ele>766.0</ele><time>2026-04-22T14:44:57.999Z</time></trkpt><trkpt lat="43.70593050559206" lon="6.843692164797286"><ele>766.0</ele><time>2026-04-22T14:44:58.999Z</time></trkpt><trkpt lat="43.705889839906234" lon="6.843521159459369"><ele>767.25</ele><time>2026-04-22T14:44:59.999Z</time></trkpt><trkpt lat="43.70585369587565" lon="6.843358581189197"><ele>768.5</ele><time>2026-04-22T14:45:00.999Z</time></trkpt><trkpt lat="43.70582077946391" lon="6.843201368297312"><ele>769.75</ele><time>2026-04-22T14:45:01.999Z</time></trkpt><trkpt lat="43.70578541386574" lon="6.8430451197174325"><ele>771.0</ele><time>2026-04-22T14:45:02.999Z</time></trkpt><trkpt lat="43.70575013423262" lon="6.84288824240081"><ele>771.0</ele><time>2026-04-22T14:45:03.999Z</time></trkpt><trkpt lat="43.70571392976706" lon="6.842729411787356"><ele>771.0</ele><time>2026-04-22T14:45:04.999Z</time></trkpt><trkpt lat="43.70568087799125" lon="6.842565958489262"><ele>771.0</ele><time>2026-04-22T14:45:05.999Z</time></trkpt><trkpt lat="43.70564587641982" lon="6.842402642865224"><ele>771.0</ele><time>2026-04-22T14:45:06.999Z</time></trkpt><trkpt lat="43.705607296815266" lon="6.842243425670907"><ele>773.25</ele><time>2026-04-22T14:45:07.999Z</time></trkpt><trkpt lat="43.705570149634276" lon="6.842087171951311"><ele>775.5</ele><time>2026-04-22T14:45:08.999Z</time></trkpt><trkpt lat="43.70552654091666" lon="6.841941389409617"><ele>777.75</ele><time>2026-04-22T14:45:09.999Z</time></trkpt><trkpt lat="43.70546841515592" lon="6.8417992683104005"><ele>780.0</ele><time>2026-04-22T14:45:10.999Z</time></trkpt><trkpt lat="43.70540745641874" lon="6.841644516191037"><ele>783.25</ele><time>2026-04-22T14:45:11.999Z</time></trkpt><trkpt lat="43.705339537767784" lon="6.841482080232246"><ele>786.5</ele><time>2026-04-22T14:45:12.999Z</time></trkpt><trkpt lat="43.705279238540705" lon="6.841310636057568"><ele>789.75</ele><time>2026-04-22T14:45:13.999Z</time></trkpt><trkpt lat="43.705231410767986" lon="6.841140945843845"><ele>793.0</ele><time>2026-04-22T14:45:14.999Z</time></trkpt><trkpt lat="43.70518734415361" lon="6.8409700221573395"><ele>788.25</ele><time>2026-04-22T14:45:15.999Z</time></trkpt><trkpt lat="43.70515006023214" lon="6.84080353788588"><ele>783.5</ele><time>2026-04-22T14:45:16.999Z</time></trkpt><trkpt lat="43.70511565814895" lon="6.840640712310054"><ele>778.75</ele><time>2026-04-22T14:45:17.998Z</time></trkpt><trkpt lat="43.70508969300967" lon="6.840475892519278"><ele>774.0</ele><time>2026-04-22T14:45:18.998Z</time></trkpt><trkpt lat="43.705073735370014" lon="6.8403071429637645"><ele>774.0</ele><time>2026-04-22T14:45:19.998Z</time></trkpt><trkpt lat="43.70507780120864" lon="6.84013349752693"><ele>774.0</ele><time>2026-04-22T14:45:20.998Z</time></trkpt><trkpt lat="43.70510345206208" lon="6.839961904094068"><ele>774.0</ele><time>2026-04-22T14:45:21.998Z</time></trkpt><trkpt lat="43.70513823164414" lon="6.839789411648345"><ele>774.0</ele><time>2026-04-22T14:45:22.998Z</time></trkpt><trkpt lat="43.705166115914984" lon="6.839609269024237"><ele>774.75</ele><time>2026-04-22T14:45:23.998Z</time></trkpt><trkpt lat="43.70517788500681" lon="6.839416102374193"><ele>775.5</ele><time>2026-04-22T14:45:24.998Z</time></trkpt><trkpt lat="43.70517776184315" lon="6.839214094356653"><ele>776.25</ele><time>2026-04-22T14:45:25.998Z</time></trkpt><trkpt lat="43.705168685828745" lon="6.8389996256456795"><ele>777.0</ele><time>2026-04-22T14:45:26.998Z</time></trkpt><trkpt lat="43.70514829620887" lon="6.8387745567921225"><ele>777.3333333333333</ele><time>2026-04-22T14:45:27.998Z</time></trkpt><trkpt lat="43.705122611547274" lon="6.838560395639432"><ele>777.6666666666666</ele><time>2026-04-22T14:45:28.998Z</time></trkpt><trkpt lat="43.70509056873169" lon="6.8383522878288"><ele>778.0</ele><time>2026-04-22T14:45:29.998Z</time></trkpt><trkpt lat="43.705055846756096" lon="6.83813970797495"><ele>780.0</ele><time>2026-04-22T14:45:30.998Z</time></trkpt><trkpt lat="43.70502626901368" lon="6.837917864021903"><ele>782.0</ele><time>2026-04-22T14:45:31.998Z</time></trkpt><trkpt lat="43.705002564705424" lon="6.837691662771977"><ele>784.0</ele><time>2026-04-22T14:45:32.998Z</time></trkpt><trkpt lat="43.70498439547071" lon="6.837483327541601"><ele>785.25</ele><time>2026-04-22T14:45:33.998Z</time></trkpt><trkpt lat="43.704965285691564" lon="6.837299042745342"><ele>786.5</ele><time>2026-04-22T14:45:34.998Z</time></trkpt><trkpt lat="43.70494843054485" lon="6.837135471873757"><ele>787.75</ele><time>2026-04-22T14:45:35.998Z</time></trkpt><trkpt lat="43.70493792250052" lon="6.836977024756824"><ele>789.0</ele><time>2026-04-22T14:45:36.998Z</time></trkpt><trkpt lat="43.70493987111145" lon="6.836813608006906"><ele>790.25</ele><time>2026-04-22T14:45:37.998Z</time></trkpt><trkpt lat="43.70495810218052" lon="6.836645022370853"><ele>791.5</ele><time>2026-04-22T14:45:38.998Z</time></trkpt><trkpt lat="43.705001110264185" lon="6.836472678373761"><ele>792.75</ele><time>2026-04-22T14:45:39.998Z</time></trkpt><trkpt lat="43.70506030720445" lon="6.836305006921978"><ele>794.0</ele><time>2026-04-22T14:45:40.998Z</time></trkpt><trkpt lat="43.70511577740399" lon="6.83613175388552"><ele>792.75</ele><time>2026-04-22T14:45:41.998Z</time></trkpt><trkpt lat="43.70516049988166" lon="6.83594878570245"><ele>791.5</ele><time>2026-04-22T14:45:42.998Z</time></trkpt><trkpt lat="43.70519971760406" lon="6.835757945803342"><ele>790.25</ele><time>2026-04-22T14:45:43.998Z</time></trkpt><trkpt lat="43.70523542093551" lon="6.835575990217553"><ele>789.0</ele><time>2026-04-22T14:45:44.998Z</time></trkpt><trkpt lat="43.70528259214491" lon="6.835391710705641"><ele>797.3333333333333</ele><time>2026-04-22T14:45:45.998Z</time></trkpt><trkpt lat="43.705342152199826" lon="6.835198266814526"><ele>805.6666666666666</ele><time>2026-04-22T14:45:46.998Z</time></trkpt><trkpt lat="43.70542138246751" lon="6.835004279632727"><ele>814.0</ele><time>2026-04-22T14:45:47.998Z</time></trkpt><trkpt lat="43.70550615016354" lon="6.8347982725973315"><ele>814.0</ele><time>2026-04-22T14:45:48.998Z</time></trkpt><trkpt lat="43.705578210291606" lon="6.834606979545374"><ele>814.0</ele><time>2026-04-22T14:45:49.998Z</time></trkpt><trkpt lat="43.70564706615285" lon="6.834414629296123"><ele>814.0</ele><time>2026-04-22T14:45:50.998Z</time></trkpt><trkpt lat="43.7057134331451" lon="6.834221386894937"><ele>812.75</ele><time>2026-04-22T14:45:51.998Z</time></trkpt><trkpt lat="43.70577546039706" lon="6.8340256885594055"><ele>811.5</ele><time>2026-04-22T14:45:52.998Z</time></trkpt><trkpt lat="43.705826264835444" lon="6.833833802487979"><ele>810.25</ele><time>2026-04-22T14:45:53.998Z</time></trkpt><trkpt lat="43.705865454343424" lon="6.833637675681091"><ele>809.0</ele><time>2026-04-22T14:45:54.998Z</time></trkpt><trkpt lat="43.70450568401074" lon="6.8203115770172635"><ele>820.25</ele><time>2026-04-22T14:46:55.999Z</time></trkpt><trkpt lat="43.70439988275915" lon="6.820188194312081"><ele>831.5</ele><time>2026-04-22T14:46:56.999Z</time></trkpt><trkpt lat="43.70429536693666" lon="6.820052745440967"><ele>842.75</ele><time>2026-04-22T14:46:57.999Z</time></trkpt><trkpt lat="43.70418837147699" lon="6.819917113289733"><ele>854.0</ele><time>2026-04-22T14:46:58.999Z</time></trkpt><trkpt lat="43.704081269729635" lon="6.819777644670892"><ele>857.75</ele><time>2026-04-22T14:46:59.999Z</time></trkpt><trkpt lat="43.70397596605139" lon="6.8196416270403235"><ele>861.5</ele><time>2026-04-22T14:47:00.999Z</time></trkpt><trkpt lat="43.70388848337713" lon="6.819520415178846"><ele>865.25</ele><time>2026-04-22T14:47:01.999Z</time></trkpt><trkpt lat="43.703811057794425" lon="6.819404454113723"><ele>869.0</ele><time>2026-04-22T14:47:02.999Z</time></trkpt><trkpt lat="43.70375170136547" lon="6.819267661240536"><ele>867.75</ele><time>2026-04-22T14:47:03.999Z</time></trkpt><trkpt lat="43.70369770484696" lon="6.8191137420053565"><ele>866.5</ele><time>2026-04-22T14:47:04.999Z</time></trkpt><trkpt lat="43.703650725674926" lon="6.81895251862144"><ele>865.25</ele><time>2026-04-22T14:47:05.999Z</time></trkpt><trkpt lat="43.70361106318083" lon="6.818784644565952"><ele>864.0</ele><time>2026-04-22T14:47:06.999Z</time></trkpt><trkpt lat="43.70357186573449" lon="6.818610339157306"><ele>865.5</ele><time>2026-04-22T14:47:07.999Z</time></trkpt><trkpt lat="43.70353890090495" lon="6.8184301020236955"><ele>867.0</ele><time>2026-04-22T14:47:08.999Z</time></trkpt><trkpt lat="43.703512381392024" lon="6.818243599966275"><ele>868.5</ele><time>2026-04-22T14:47:09.999Z</time></trkpt><trkpt lat="43.70349714139903" lon="6.818055335284472"><ele>870.0</ele><time>2026-04-22T14:47:10.999Z</time></trkpt><trkpt lat="43.7034838095797" lon="6.817865750918346"><ele>870.0</ele><time>2026-04-22T14:47:11.999Z</time></trkpt><trkpt lat="43.70347763589798" lon="6.817670670676603"><ele>870.0</ele><time>2026-04-22T14:47:12.999Z</time></trkpt><trkpt lat="43.70346873977882" lon="6.817474687826709"><ele>870.0</ele><time>2026-04-22T14:47:13.999Z</time></trkpt><trkpt lat="43.70345591448289" lon="6.817278532519485"><ele>870.0</ele><time>2026-04-22T14:47:14.999Z</time></trkpt><trkpt lat="43.70344250888413" lon="6.817087246378652"><ele>871.5</ele><time>2026-04-22T14:47:15.999Z</time></trkpt><trkpt lat="43.70342495594795" lon="6.816896439380201"><ele>873.0</ele><time>2026-04-22T14:47:16.999Z</time></trkpt><trkpt lat="43.70339660613073" lon="6.816714560023521"><ele>874.5</ele><time>2026-04-22T14:47:17.999Z</time></trkpt><trkpt lat="43.70334453163929" lon="6.81654433280108"><ele>876.0</ele><time>2026-04-22T14:47:18.999Z</time></trkpt><trkpt lat="43.70328024127718" lon="6.816379696233706"><ele>877.75</ele><time>2026-04-22T14:47:19.999Z</time></trkpt><trkpt lat="43.70321224504965" lon="6.816220284635953"><ele>879.5</ele><time>2026-04-22T14:47:20.999Z</time></trkpt><trkpt lat="43.703150118739195" lon="6.81604654442872"><ele>881.25</ele><time>2026-04-22T14:47:21.999Z</time></trkpt><trkpt lat="43.703105044370695" lon="6.815873187521984"><ele>883.0</ele><time>2026-04-22T14:47:22.999Z</time></trkpt><trkpt lat="43.70307509835135" lon="6.8157174825329925"><ele>883.9999999999999</ele><time>2026-04-22T14:47:23.999Z</time></trkpt><trkpt lat="43.70305335043476" lon="6.815581170237416"><ele>885.0</ele><time>2026-04-22T14:47:24.999Z</time></trkpt><trkpt lat="43.70304009453025" lon="6.815454266424794"><ele>886.0</ele><time>2026-04-22T14:47:25.999Z</time></trkpt><trkpt lat="43.70305868787994" lon="6.815346529333624"><ele>887.0</ele><time>2026-04-22T14:47:26.999Z</time></trkpt><trkpt lat="43.703101876491374" lon="6.815260650505204"><ele>887.9999999999999</ele><time>2026-04-22T14:47:27.999Z</time></trkpt><trkpt lat="43.70316132579147" lon="6.8152011777248775"><ele>889.0</ele><time>2026-04-22T14:47:28.999Z</time></trkpt><trkpt lat="43.703237753894264" lon="6.81519003625213"><ele>888.9999999999999</ele><time>2026-04-22T14:47:29.999Z</time></trkpt><trkpt lat="43.70331118141222" lon="6.815218678402112"><ele>889.0</ele><time>2026-04-22T14:47:30.999Z</time></trkpt><trkpt lat="43.70337396806378" lon="6.815289601731792"><ele>889.0</ele><time>2026-04-22T14:47:31.999Z</time></trkpt><trkpt lat="43.70342010741304" lon="6.815390628701512"><ele>889.0</ele><time>2026-04-22T14:47:32.999Z</time></trkpt><trkpt lat="43.703450559049294" lon="6.8155119295336295"><ele>888.9999999999999</ele><time>2026-04-22T14:47:33.999Z</time></trkpt><trkpt lat="43.70347152325171" lon="6.815652876410299"><ele>889.0</ele><time>2026-04-22T14:47:34.999Z</time></trkpt><trkpt lat="43.70349640424405" lon="6.8158039948265845"><ele>889.0</ele><time>2026-04-22T14:47:35.999Z</time></trkpt><trkpt lat="43.7035293388247" lon="6.815962613094837"><ele>889.0</ele><time>2026-04-22T14:47:36.999Z</time></trkpt><trkpt lat="43.70357669163749" lon="6.816115809179174"><ele>889.0</ele><time>2026-04-22T14:47:37.999Z</time></trkpt><trkpt lat="43.70363486826074" lon="6.816261612119952"><ele>889.0</ele><time>2026-04-22T14:47:38.999Z</time></trkpt><trkpt lat="43.7037092860854" lon="6.816405787792464"><ele>891.6666666666666</ele><time>2026-04-22T14:47:39.999Z</time></trkpt><trkpt lat="43.703786854186575" lon="6.816563933888979"><ele>894.3333333333333</ele><time>2026-04-22T14:47:40.999Z</time></trkpt><trkpt lat="43.70386299739972" lon="6.816746603337585"><ele>897.0</ele><time>2026-04-22T14:47:41.999Z</time></trkpt><trkpt lat="43.70393694636548" lon="6.816944265069707"><ele>897.0</ele><time>2026-04-22T14:47:42.999Z</time></trkpt><trkpt lat="43.703995116931026" lon="6.817139587057971"><ele>897.0</ele><time>2026-04-22T14:47:43.999Z</time></trkpt><trkpt lat="43.70405404506702" lon="6.817328905028478"><ele>897.0</ele><time>2026-04-22T14:47:44.999Z</time></trkpt><trkpt lat="43.70411621816541" lon="6.817508696301716"><ele>897.0</ele><time>2026-04-22T14:47:45.999Z</time></trkpt><trkpt lat="43.70417652140234" lon="6.817663296790941"><ele>898.25</ele><time>2026-04-22T14:47:46.999Z</time></trkpt><trkpt lat="43.70423872359496" lon="6.817797966051795"><ele>899.5</ele><time>2026-04-22T14:47:47.999Z</time></trkpt><trkpt lat="43.70430731412678" lon="6.81792686285849"><ele>900.75</ele><time>2026-04-22T14:47:48.999Z</time></trkpt><trkpt lat="43.70439001470342" lon="6.818043331540833"><ele>902.0</ele><time>2026-04-22T14:47:49.999Z</time></trkpt><trkpt lat="43.70448874395531" lon="6.818147734893412"><ele>902.0</ele><time>2026-04-22T14:47:50.999Z</time></trkpt><trkpt lat="43.7045952641916" lon="6.818235420650663"><ele>902.0</ele><time>2026-04-22T14:47:51.999Z</time></trkpt><trkpt lat="43.70471196802299" lon="6.818298289583557"><ele>902.0</ele><time>2026-04-22T14:47:52.998Z</time></trkpt><trkpt lat="43.70483740676096" lon="6.818341115051363"><ele>902.0</ele><time>2026-04-22T14:47:53.998Z</time></trkpt><trkpt lat="43.70496994710835" lon="6.818371847021653"><ele>940.0</ele><time>2026-04-22T14:47:54.998Z</time></trkpt><trkpt lat="43.708368221622344" lon="6.827282450860125"><ele>940.0</ele><time>2026-04-22T14:48:55.999Z</time></trkpt><trkpt lat="43.708381788948316" lon="6.827463474357055"><ele>940.0</ele><time>2026-04-22T14:48:56.999Z</time></trkpt><trkpt lat="43.708381392495205" lon="6.827653431815792"><ele>940.0</ele><time>2026-04-22T14:48:57.999Z</time></trkpt><trkpt lat="43.70839582366807" lon="6.827842695179338"><ele>940.0</ele><time>2026-04-22T14:48:58.999Z</time></trkpt><trkpt lat="43.708410559852155" lon="6.828035958293983"><ele>939.5</ele><time>2026-04-22T14:48:59.999Z</time></trkpt><trkpt lat="43.708425500411806" lon="6.828231901871621"><ele>939.0</ele><time>2026-04-22T14:49:00.999Z</time></trkpt><trkpt lat="43.70844107958945" lon="6.828436221353662"><ele>938.5</ele><time>2026-04-22T14:49:01.999Z</time></trkpt><trkpt lat="43.70845609460801" lon="6.828633141367266"><ele>938.0</ele><time>2026-04-22T14:49:02.999Z</time></trkpt><trkpt lat="43.7084705515864" lon="6.828828652092219"><ele>937.25</ele><time>2026-04-22T14:49:03.999Z</time></trkpt><trkpt lat="43.708485399896034" lon="6.82902956034113"><ele>936.5</ele><time>2026-04-22T14:49:04.999Z</time></trkpt><trkpt lat="43.70850027438998" lon="6.829230822635797"><ele>935.75</ele><time>2026-04-22T14:49:05.999Z</time></trkpt><trkpt lat="43.70851846951877" lon="6.829417931216485"><ele>935.0</ele><time>2026-04-22T14:49:06.999Z</time></trkpt><trkpt lat="43.70853976857237" lon="6.829586486417667"><ele>942.5</ele><time>2026-04-22T14:49:07.999Z</time></trkpt><trkpt lat="43.70857627726862" lon="6.829755068674338"><ele>950.0</ele><time>2026-04-22T14:49:08.999Z</time></trkpt><trkpt lat="43.708640151758004" lon="6.829903149773322"><ele>957.5</ele><time>2026-04-22T14:49:09.999Z</time></trkpt><trkpt lat="43.70869899136264" lon="6.830057327203318"><ele>965.0</ele><time>2026-04-22T14:49:10.999Z</time></trkpt><trkpt lat="43.70875974719674" lon="6.830211486571268"><ele>965.0</ele><time>2026-04-22T14:49:11.999Z</time></trkpt><trkpt lat="43.708816998724906" lon="6.830371253568508"><ele>965.0</ele><time>2026-04-22T14:49:12.999Z</time></trkpt><trkpt lat="43.708853605907635" lon="6.830545817979987"><ele>965.0</ele><time>2026-04-22T14:49:13.999Z</time></trkpt><trkpt lat="43.70890424027979" lon="6.830717533079138"><ele>965.0</ele><time>2026-04-22T14:49:14.999Z</time></trkpt><trkpt lat="43.70896925873856" lon="6.83088515388359"><ele>963.0</ele><time>2026-04-22T14:49:15.999Z</time></trkpt><trkpt lat="43.70901820150236" lon="6.831071400052364"><ele>961.0</ele><time>2026-04-22T14:49:16.999Z</time></trkpt><trkpt lat="43.70907317951325" lon="6.831262795105875"><ele>959.0</ele><time>2026-04-22T14:49:17.999Z</time></trkpt><trkpt lat="43.70912943359849" lon="6.831463532052992"><ele>957.0</ele><time>2026-04-22T14:49:18.999Z</time></trkpt><trkpt lat="43.709181841975045" lon="6.8316493877161415"><ele>954.25</ele><time>2026-04-22T14:49:19.999Z</time></trkpt><trkpt lat="43.70923336478403" lon="6.83183719736661"><ele>951.5</ele><time>2026-04-22T14:49:20.999Z</time></trkpt><trkpt lat="43.709285437635785" lon="6.8320228171381245"><ele>948.75</ele><time>2026-04-22T14:49:21.999Z</time></trkpt><trkpt lat="43.70933911037849" lon="6.832207518680245"><ele>946.0</ele><time>2026-04-22T14:49:22.999Z</time></trkpt><trkpt lat="43.70939281940595" lon="6.832390915387925"><ele>955.0</ele><time>2026-04-22T14:49:23.999Z</time></trkpt><trkpt lat="43.70944449043701" lon="6.832573562697851"><ele>964.0</ele><time>2026-04-22T14:49:24.999Z</time></trkpt><trkpt lat="43.709495572527274" lon="6.832758168070751"><ele>973.0</ele><time>2026-04-22T14:49:25.999Z</time></trkpt><trkpt lat="43.70954746099626" lon="6.832943005321525"><ele>982.0</ele><time>2026-04-22T14:49:26.999Z</time></trkpt><trkpt lat="43.70958334949313" lon="6.8331393487937815"><ele>982.0</ele><time>2026-04-22T14:49:27.999Z</time></trkpt><trkpt lat="43.70963481596672" lon="6.8333300354959645"><ele>982.0</ele><time>2026-04-22T14:49:28.999Z</time></trkpt><trkpt lat="43.70970100057226" lon="6.833509643519897"><ele>982.0</ele><time>2026-04-22T14:49:29.999Z</time></trkpt><trkpt lat="43.70975525502151" lon="6.83369443218346"><ele>982.0</ele><time>2026-04-22T14:49:30.999Z</time></trkpt><trkpt lat="43.70981460206101" lon="6.833878522359866"><ele>979.75</ele><time>2026-04-22T14:49:31.999Z</time></trkpt><trkpt lat="43.70987581488025" lon="6.8340578998413415"><ele>977.5</ele><time>2026-04-22T14:49:32.999Z</time></trkpt><trkpt lat="43.70993722430236" lon="6.834230832666122"><ele>975.25</ele><time>2026-04-22T14:49:33.999Z</time></trkpt><trkpt lat="43.70999542843417" lon="6.834402910184072"><ele>973.0</ele><time>2026-04-22T14:49:34.999Z</time></trkpt><trkpt lat="43.71005336086071" lon="6.834576580659155"><ele>975.0</ele><time>2026-04-22T14:49:35.999Z</time></trkpt><trkpt lat="43.71011373087574" lon="6.834750860215509"><ele>977.0</ele><time>2026-04-22T14:49:36.999Z</time></trkpt><trkpt lat="43.710169817893025" lon="6.834927044367994"><ele>979.0</ele><time>2026-04-22T14:49:37.999Z</time></trkpt><trkpt lat="43.71023484089465" lon="6.835092872651927"><ele>981.0</ele><time>2026-04-22T14:49:38.999Z</time></trkpt><trkpt lat="43.71031453251283" lon="6.8352445416682945"><ele>981.0</ele><time>2026-04-22T14:49:39.999Z</time></trkpt><trkpt lat="43.71040506854" lon="6.835386320910494"><ele>981.0</ele><time>2026-04-22T14:49:40.999Z</time></trkpt><trkpt lat="43.710504104065606" lon="6.835518883978452"><ele>981.0</ele><time>2026-04-22T14:49:41.999Z</time></trkpt><trkpt lat="43.71061878216525" lon="6.8356478681660375"><ele>981.0</ele><time>2026-04-22T14:49:42.999Z</time></trkpt><trkpt lat="43.71072613578394" lon="6.835776026177416"><ele>981.0</ele><time>2026-04-22T14:49:43.999Z</time></trkpt><trkpt lat="43.71081194858455" lon="6.835892608617289"><ele>981.0</ele><time>2026-04-22T14:49:44.999Z</time></trkpt><trkpt lat="43.71085641063766" lon="6.836018104374204"><ele>981.0</ele><time>2026-04-22T14:49:45.999Z</time></trkpt><trkpt lat="43.71089575130665" lon="6.836123139690345"><ele>981.0</ele><time>2026-04-22T14:49:46.999Z</time></trkpt><trkpt lat="43.71092602856264" lon="6.836210147164099"><ele>981.0</ele><time>2026-04-22T14:49:47.999Z</time></trkpt><trkpt lat="43.710960762198525" lon="6.836283957822385"><ele>981.0</ele><time>2026-04-22T14:49:48.999Z</time></trkpt><trkpt lat="43.71099566957435" lon="6.836427704299769"><ele>977.6666666666667</ele><time>2026-04-22T14:49:50.999Z</time></trkpt><trkpt lat="43.711038653197186" lon="6.836584872563461"><ele>974.3333333333334</ele><time>2026-04-22T14:49:52.999Z</time></trkpt><trkpt lat="43.711078420506915" lon="6.836751948633544"><ele>971.0</ele><time>2026-04-22T14:49:54.998Z</time></trkpt><trkpt lat="43.71116519243157" lon="6.837106775996839"><ele>967.0</ele><time>2026-04-22T14:50:56.999Z</time></trkpt><trkpt lat="43.71122882907215" lon="6.837130901461021"><ele>963.0</ele><time>2026-04-22T14:51:47.999Z</time></trkpt><trkpt lat="43.711426015873286" lon="6.840102799098983"><ele>961.5</ele><time>2026-04-22T14:53:55.999Z</time></trkpt><trkpt lat="43.711432804291114" lon="6.840284921715989"><ele>960.0</ele><time>2026-04-22T14:53:56.999Z</time></trkpt><trkpt lat="43.711439917873605" lon="6.84046075024939"><ele>958.5</ele><time>2026-04-22T14:53:57.999Z</time></trkpt><trkpt lat="43.71144750007127" lon="6.8406424442235965"><ele>957.0</ele><time>2026-04-22T14:53:58.999Z</time></trkpt><trkpt lat="43.71145251353039" lon="6.8408087266522974"><ele>955.75</ele><time>2026-04-22T14:53:59.999Z</time></trkpt><trkpt lat="43.71145720527515" lon="6.840972182568346"><ele>954.5</ele><time>2026-04-22T14:54:00.998Z</time></trkpt><trkpt lat="43.711455181755724" lon="6.841139682942573"><ele>953.25</ele><time>2026-04-22T14:54:01.998Z</time></trkpt><trkpt lat="43.711449977546" lon="6.841306506228017"><ele>952.0</ele><time>2026-04-22T14:54:02.998Z</time></trkpt><trkpt lat="43.71143797979568" lon="6.841482002356679"><ele>952.0</ele><time>2026-04-22T14:54:03.998Z</time></trkpt><trkpt lat="43.71142477644108" lon="6.841663208423273"><ele>952.0</ele><time>2026-04-22T14:54:04.998Z</time></trkpt><trkpt lat="43.71141306653219" lon="6.8418451341347915"><ele>952.0</ele><time>2026-04-22T14:54:05.998Z</time></trkpt><trkpt lat="43.71140346218725" lon="6.842026091649628"><ele>952.0</ele><time>2026-04-22T14:54:06.998Z</time></trkpt><trkpt lat="43.71141206033371" lon="6.842208762317067"><ele>950.75</ele><time>2026-04-22T14:54:07.998Z</time></trkpt><trkpt lat="43.711404487581156" lon="6.842386097117635"><ele>949.5</ele><time>2026-04-22T14:54:08.998Z</time></trkpt><trkpt lat="43.71140174726185" lon="6.842563790913502"><ele>948.25</ele><time>2026-04-22T14:54:09.998Z</time></trkpt><trkpt lat="43.71139695429669" lon="6.842743937661178"><ele>947.0</ele><time>2026-04-22T14:54:10.998Z</time></trkpt><trkpt lat="43.711395419860956" lon="6.842923013020104"><ele>946.75</ele><time>2026-04-22T14:54:11.998Z</time></trkpt><trkpt lat="43.71139458072728" lon="6.843101618210007"><ele>946.5</ele><time>2026-04-22T14:54:12.998Z</time></trkpt><trkpt lat="43.711399000993616" lon="6.843277696166668"><ele>946.25</ele><time>2026-04-22T14:54:13.998Z</time></trkpt><trkpt lat="43.71140761764803" lon="6.843450392938896"><ele>946.0</ele><time>2026-04-22T14:54:14.998Z</time></trkpt><trkpt lat="43.711417048233436" lon="6.843618582943463"><ele>946.0</ele><time>2026-04-22T14:54:15.998Z</time></trkpt><trkpt lat="43.711432146897465" lon="6.843786203726667"><ele>946.0</ele><time>2026-04-22T14:54:16.998Z</time></trkpt><trkpt lat="43.71145100819345" lon="6.843951578465267"><ele>946.0</ele><time>2026-04-22T14:54:17.998Z</time></trkpt><trkpt lat="43.71147196459746" lon="6.844119694206819"><ele>946.0</ele><time>2026-04-22T14:54:18.998Z</time></trkpt><trkpt lat="43.71149697767068" lon="6.844291466781232"><ele>946.25</ele><time>2026-04-22T14:54:19.998Z</time></trkpt><trkpt lat="43.71152036876131" lon="6.844467821721248"><ele>946.5</ele><time>2026-04-22T14:54:20.998Z</time></trkpt><trkpt lat="43.711544391061246" lon="6.844650147753599"><ele>946.75</ele><time>2026-04-22T14:54:21.998Z</time></trkpt><trkpt lat="43.71155637019041" lon="6.844833689147914"><ele>947.0</ele><time>2026-04-22T14:54:22.998Z</time></trkpt><trkpt lat="43.711567202894805" lon="6.845025690590815"><ele>948.0</ele><time>2026-04-22T14:54:23.998Z</time></trkpt><trkpt lat="43.71157809972267" lon="6.8452119051686"><ele>949.0</ele><time>2026-04-22T14:54:24.998Z</time></trkpt><trkpt lat="43.711590625753914" lon="6.845395983968872"><ele>950.0</ele><time>2026-04-22T14:54:25.998Z</time></trkpt><trkpt lat="43.71160430599483" lon="6.845581229825539"><ele>951.0</ele><time>2026-04-22T14:54:26.998Z</time></trkpt><trkpt lat="43.71161991761928" lon="6.845769105275064"><ele>951.0</ele><time>2026-04-22T14:54:27.998Z</time></trkpt><trkpt lat="43.71164063100489" lon="6.845958441024086"><ele>951.0</ele><time>2026-04-22T14:54:28.998Z</time></trkpt><trkpt lat="43.71166713288903" lon="6.84614587881963"><ele>951.0</ele><time>2026-04-22T14:54:29.998Z</time></trkpt><trkpt lat="43.71170177387936" lon="6.84633836138064"><ele>951.0</ele><time>2026-04-22T14:54:30.998Z</time></trkpt><trkpt lat="43.7117377667262" lon="6.8465290240987375"><ele>952.25</ele><time>2026-04-22T14:54:31.999Z</time></trkpt><trkpt lat="43.71177484835081" lon="6.84671527248279"><ele>953.5</ele><time>2026-04-22T14:54:32.999Z</time></trkpt><trkpt lat="43.71181075245289" lon="6.846895872501276"><ele>954.75</ele><time>2026-04-22T14:54:33.999Z</time></trkpt><trkpt lat="43.71184856063071" lon="6.847079174643959"><ele>956.0</ele><time>2026-04-22T14:54:34.999Z</time></trkpt><trkpt lat="43.711886635361374" lon="6.847264294072913"><ele>948.5</ele><time>2026-04-22T14:54:35.999Z</time></trkpt><trkpt lat="43.71192273381273" lon="6.847446397291384"><ele>941.0</ele><time>2026-04-22T14:54:36.999Z</time></trkpt><trkpt lat="43.711958334598854" lon="6.847625236750821"><ele>933.5</ele><time>2026-04-22T14:54:37.999Z</time></trkpt><trkpt lat="43.71199591871368" lon="6.847794160432451"><ele>926.0</ele><time>2026-04-22T14:54:38.999Z</time></trkpt><trkpt lat="43.712037560230115" lon="6.847951120100091"><ele>926.0</ele><time>2026-04-22T14:54:39.999Z</time></trkpt><trkpt lat="43.7120734964789" lon="6.848108466076031"><ele>926.0</ele><time>2026-04-22T14:54:40.999Z</time></trkpt><trkpt lat="43.712120445132406" lon="6.848251887302049"><ele>926.0</ele><time>2026-04-22T14:54:41.999Z</time></trkpt><trkpt lat="43.712181025745714" lon="6.848394090667377"><ele>926.0</ele><time>2026-04-22T14:54:42.999Z</time></trkpt><trkpt lat="43.71225619623321" lon="6.848528080755854"><ele>932.25</ele><time>2026-04-22T14:54:43.999Z</time></trkpt><trkpt lat="43.71234731317577" lon="6.848658830228065"><ele>938.5</ele><time>2026-04-22T14:54:44.999Z</time></trkpt><trkpt lat="43.712442638828946" lon="6.84878477631603"><ele>944.75</ele><time>2026-04-22T14:54:45.999Z</time></trkpt><trkpt lat="43.71253694594745" lon="6.848903144690413"><ele>951.0</ele><time>2026-04-22T14:54:46.999Z</time></trkpt><trkpt lat="43.71263802126188" lon="6.849004201860583"><ele>948.75</ele><time>2026-04-22T14:54:47.999Z</time></trkpt><trkpt lat="43.71274170421203" lon="6.84908766178722"><ele>946.5</ele><time>2026-04-22T14:54:48.999Z</time></trkpt><trkpt lat="43.712853046185245" lon="6.849154861385046"><ele>944.25</ele><time>2026-04-22T14:54:49.999Z</time></trkpt><trkpt lat="43.71296747480275" lon="6.849223836543566"><ele>942.0</ele><time>2026-04-22T14:54:50.999Z</time></trkpt><trkpt lat="43.7130793412216" lon="6.849302943042648"><ele>942.0</ele><time>2026-04-22T14:54:51.999Z</time></trkpt><trkpt lat="43.713181074190295" lon="6.8493961181197935"><ele>942.0</ele><time>2026-04-22T14:54:52.999Z</time></trkpt><trkpt lat="43.713273365515484" lon="6.849493509873281"><ele>942.0</ele><time>2026-04-22T14:54:53.999Z</time></trkpt><trkpt lat="43.71336487779173" lon="6.8496016957371655"><ele>942.0</ele><time>2026-04-22T14:54:54.999Z</time></trkpt><trkpt lat="43.71612583515249" lon="6.859036416908677"><ele>927.25</ele><time>2026-04-22T14:55:55.999Z</time></trkpt><trkpt lat="43.71614432641703" lon="6.859213956944203"><ele>912.5</ele><time>2026-04-22T14:55:56.999Z</time></trkpt><trkpt lat="43.7161697066459" lon="6.859392229890346"><ele>897.75</ele><time>2026-04-22T14:55:57.999Z</time></trkpt><trkpt lat="43.716197795261834" lon="6.859558951289913"><ele>883.0</ele><time>2026-04-22T14:55:58.999Z</time></trkpt><trkpt lat="43.716235602494905" lon="6.8597270650463775"><ele>883.0</ele><time>2026-04-22T14:55:59.999Z</time></trkpt><trkpt lat="43.71628493047996" lon="6.859893016634479"><ele>883.0</ele><time>2026-04-22T14:56:00.999Z</time></trkpt><trkpt lat="43.71634282886774" lon="6.860047303972218"><ele>883.0</ele><time>2026-04-22T14:56:01.999Z</time></trkpt><trkpt lat="43.716418384795794" lon="6.860190872187022"><ele>883.0</ele><time>2026-04-22T14:56:02.999Z</time></trkpt><trkpt lat="43.716500432068734" lon="6.860330122751281"><ele>885.25</ele><time>2026-04-22T14:56:03.999Z</time></trkpt><trkpt lat="43.71658796886394" lon="6.860465076403808"><ele>887.5</ele><time>2026-04-22T14:56:04.998Z</time></trkpt><trkpt lat="43.71668521386838" lon="6.860590057968565"><ele>889.75</ele><time>2026-04-22T14:56:05.998Z</time></trkpt><trkpt lat="43.7167857871483" lon="6.860701005027098"><ele>892.0</ele><time>2026-04-22T14:56:06.998Z</time></trkpt><trkpt lat="43.71689073526292" lon="6.860795566087384"><ele>892.75</ele><time>2026-04-22T14:56:07.998Z</time></trkpt><trkpt lat="43.71700158183056" lon="6.860881203815351"><ele>893.5</ele><time>2026-04-22T14:56:08.998Z</time></trkpt><trkpt lat="43.717123432294784" lon="6.86094900268264"><ele>894.25</ele><time>2026-04-22T14:56:09.998Z</time></trkpt><trkpt lat="43.717250633421216" lon="6.8609946684905205"><ele>895.0</ele><time>2026-04-22T14:56:10.998Z</time></trkpt><trkpt lat="43.717378164804614" lon="6.861039500768154"><ele>895.0</ele><time>2026-04-22T14:56:11.998Z</time></trkpt><trkpt lat="43.71749445484481" lon="6.861076234299633"><ele>895.0</ele><time>2026-04-22T14:56:12.998Z</time></trkpt><trkpt lat="43.71760767190796" lon="6.861107019600597"><ele>895.0</ele><time>2026-04-22T14:56:13.998Z</time></trkpt><trkpt lat="43.71771856122856" lon="6.861115487135596"><ele>895.0</ele><time>2026-04-22T14:56:14.998Z</time></trkpt><trkpt lat="43.71782760941666" lon="6.861092701026827"><ele>894.5</ele><time>2026-04-22T14:56:15.998Z</time></trkpt><trkpt lat="43.717937256158" lon="6.861038469416524"><ele>894.0</ele><time>2026-04-22T14:56:16.998Z</time></trkpt><trkpt lat="43.718043551777384" lon="6.860972675103933"><ele>893.5</ele><time>2026-04-22T14:56:17.998Z</time></trkpt><trkpt lat="43.71815428298996" lon="6.860905342991969"><ele>893.0</ele><time>2026-04-22T14:56:18.998Z</time></trkpt><trkpt lat="43.71826398450729" lon="6.860837803363487"><ele>889.0</ele><time>2026-04-22T14:56:19.998Z</time></trkpt><trkpt lat="43.71837397873214" lon="6.860777456552592"><ele>885.0</ele><time>2026-04-22T14:56:20.998Z</time></trkpt><trkpt lat="43.71848770701824" lon="6.86072461075549"><ele>881.0</ele><time>2026-04-22T14:56:21.998Z</time></trkpt><trkpt lat="43.71860076613244" lon="6.860683366104792"><ele>877.0</ele><time>2026-04-22T14:56:22.998Z</time></trkpt><trkpt lat="43.71871943257326" lon="6.8606613261137674"><ele>877.0</ele><time>2026-04-22T14:56:23.998Z</time></trkpt><trkpt lat="43.7188389638476" lon="6.860659202141382"><ele>877.0</ele><time>2026-04-22T14:56:24.998Z</time></trkpt><trkpt lat="43.71895354801853" lon="6.860668908248842"><ele>877.0</ele><time>2026-04-22T14:56:25.998Z</time></trkpt><trkpt lat="43.71905680881099" lon="6.860678269430468"><ele>877.0</ele><time>2026-04-22T14:56:26.998Z</time></trkpt><trkpt lat="43.719152580344584" lon="6.8606907488455136"><ele>877.0</ele><time>2026-04-22T14:56:27.998Z</time></trkpt><trkpt lat="43.719245138637085" lon="6.8606833821821365"><ele>876.9999999999999</ele><time>2026-04-22T14:56:28.998Z</time></trkpt><trkpt lat="43.719334779022056" lon="6.860653749774836"><ele>877.0</ele><time>2026-04-22T14:56:29.998Z</time></trkpt><trkpt lat="43.71941459440103" lon="6.860601000934336"><ele>877.0</ele><time>2026-04-22T14:56:30.998Z</time></trkpt><trkpt lat="43.71948781587335" lon="6.860535410393599"><ele>877.0</ele><time>2026-04-22T14:56:31.998Z</time></trkpt><trkpt lat="43.719557566568014" lon="6.860469624051518"><ele>876.9999999999999</ele><time>2026-04-22T14:56:32.998Z</time></trkpt><trkpt lat="43.71961734149082" lon="6.86039510419155"><ele>877.0</ele><time>2026-04-22T14:56:33.998Z</time></trkpt><trkpt lat="43.71965724129609" lon="6.860310525823451"><ele>876.6666666666666</ele><time>2026-04-22T14:56:34.998Z</time></trkpt><trkpt lat="43.71967726657831" lon="6.860213927405932"><ele>876.3333333333333</ele><time>2026-04-22T14:56:35.998Z</time></trkpt><trkpt lat="43.71966929602697" lon="6.860103767716711"><ele>876.0</ele><time>2026-04-22T14:56:36.998Z</time></trkpt><trkpt lat="43.71963968288242" lon="6.8599916269462495"><ele>875.6666666666667</ele><time>2026-04-22T14:56:38Z</time></trkpt><trkpt lat="43.7195903316362" lon="6.859885172910619"><ele>875.3333333333334</ele><time>2026-04-22T14:56:39Z</time></trkpt><trkpt lat="43.71953391405889" lon="6.859771620956139"><ele>875.0</ele><time>2026-04-22T14:56:39.999Z</time></trkpt><trkpt lat="43.71946212610322" lon="6.859640671987272"><ele>874.75</ele><time>2026-04-22T14:56:41Z</time></trkpt><trkpt lat="43.719382026873554" lon="6.859494429955999"><ele>874.5</ele><time>2026-04-22T14:56:42Z</time></trkpt><trkpt lat="43.719315810857374" lon="6.859346854866563"><ele>874.25</ele><time>2026-04-22T14:56:42.999Z</time></trkpt><trkpt lat="43.71923229522005" lon="6.859225705486649"><ele>874.0</ele><time>2026-04-22T14:56:44Z</time></trkpt><trkpt lat="43.71913543854682" lon="6.859105681265301"><ele>874.0</ele><time>2026-04-22T14:56:45Z</time></trkpt><trkpt lat="43.71903979510687" lon="6.858984151185028"><ele>874.0</ele><time>2026-04-22T14:56:46Z</time></trkpt><trkpt lat="43.71894785986974" lon="6.858877415368746"><ele>874.0</ele><time>2026-04-22T14:56:47Z</time></trkpt><trkpt lat="43.71886023755848" lon="6.858767411663295"><ele>874.0</ele><time>2026-04-22T14:56:48Z</time></trkpt><trkpt lat="43.718790714655675" lon="6.858651367933636"><ele>874.0</ele><time>2026-04-22T14:56:49Z</time></trkpt><trkpt lat="43.718762038261616" lon="6.858517649997284"><ele>874.0000000000001</ele><time>2026-04-22T14:56:50Z</time></trkpt><trkpt lat="43.71872929368043" lon="6.85838665816538"><ele>874.0000000000001</ele><time>2026-04-22T14:56:51Z</time></trkpt><trkpt lat="43.71871024789874" lon="6.8582418136256305"><ele>874.0</ele><time>2026-04-22T14:56:52Z</time></trkpt><trkpt lat="43.7186862049409" lon="6.858081512295803"><ele>874.0</ele><time>2026-04-22T14:56:53Z</time></trkpt><trkpt lat="43.71868919161268" lon="6.857902879817989"><ele>876.0</ele><time>2026-04-22T14:56:54Z</time></trkpt><trkpt lat="43.71868603568356" lon="6.857718087758204"><ele>878.0</ele><time>2026-04-22T14:56:54.999Z</time></trkpt><trkpt lat="43.71677259553385" lon="6.845374671487369"><ele>878.6666666666667</ele><time>2026-04-22T14:57:55.999Z</time></trkpt><trkpt lat="43.71681313037963" lon="6.84512714117828"><ele>879.3333333333333</ele><time>2026-04-22T14:57:56.999Z</time></trkpt><trkpt lat="43.716854056193746" lon="6.8448647017724245"><ele>880.0</ele><time>2026-04-22T14:57:57.999Z</time></trkpt><trkpt lat="43.7168976952845" lon="6.844605624783358"><ele>893.0</ele><time>2026-04-22T14:57:58.999Z</time></trkpt><trkpt lat="43.71694233519213" lon="6.844345394421126"><ele>906.0</ele><time>2026-04-22T14:57:59.999Z</time></trkpt><trkpt lat="43.7169866082522" lon="6.844094660565902"><ele>919.0</ele><time>2026-04-22T14:58:00.999Z</time></trkpt><trkpt lat="43.71701758289546" lon="6.84383877268429"><ele>919.0</ele><time>2026-04-22T14:58:01.999Z</time></trkpt><trkpt lat="43.717038958918295" lon="6.843591365490293"><ele>919.0</ele><time>2026-04-22T14:58:02.999Z</time></trkpt><trkpt lat="43.71704972285336" lon="6.843358075341261"><ele>919.0</ele><time>2026-04-22T14:58:03.999Z</time></trkpt><trkpt lat="43.71705267030606" lon="6.843140783963924"><ele>918.3333333333333</ele><time>2026-04-22T14:58:04.999Z</time></trkpt><trkpt lat="43.71704576136351" lon="6.842937064016193"><ele>917.6666666666667</ele><time>2026-04-22T14:58:05.999Z</time></trkpt><trkpt lat="43.71702685362493" lon="6.842730762374478"><ele>917.0</ele><time>2026-04-22T14:58:06.999Z</time></trkpt><trkpt lat="43.716992046414454" lon="6.842518758318763"><ele>918.3333333333334</ele><time>2026-04-22T14:58:07.999Z</time></trkpt><trkpt lat="43.716952563128885" lon="6.842303359311667"><ele>919.6666666666667</ele><time>2026-04-22T14:58:08.999Z</time></trkpt><trkpt lat="43.71691296077588" lon="6.842082650218883"><ele>921.0</ele><time>2026-04-22T14:58:09.999Z</time></trkpt><trkpt lat="43.716878576868226" lon="6.841870679889132"><ele>912.5</ele><time>2026-04-22T14:58:11Z</time></trkpt><trkpt lat="43.71683959922698" lon="6.841671945244028"><ele>904.0</ele><time>2026-04-22T14:58:12Z</time></trkpt><trkpt lat="43.71679378182247" lon="6.841488708889072"><ele>895.5</ele><time>2026-04-22T14:58:13Z</time></trkpt><trkpt lat="43.71673774658828" lon="6.841323620375082"><ele>887.0</ele><time>2026-04-22T14:58:14Z</time></trkpt><trkpt lat="43.71668795254663" lon="6.841177004566395"><ele>887.0</ele><time>2026-04-22T14:58:15Z</time></trkpt><trkpt lat="43.716645349998124" lon="6.841034187239005"><ele>887.0</ele><time>2026-04-22T14:58:16Z</time></trkpt><trkpt lat="43.71661158284674" lon="6.840886998064273"><ele>887.0</ele><time>2026-04-22T14:58:17Z</time></trkpt><trkpt lat="43.71659242670022" lon="6.840732435673514"><ele>887.0</ele><time>2026-04-22T14:58:18Z</time></trkpt><trkpt lat="43.71658452073122" lon="6.840567314860689"><ele>889.25</ele><time>2026-04-22T14:58:18.999Z</time></trkpt><trkpt lat="43.71658550182644" lon="6.840394811912115"><ele>891.5</ele><time>2026-04-22T14:58:19.999Z</time></trkpt><trkpt lat="43.71659918424583" lon="6.840215262875996"><ele>893.75</ele><time>2026-04-22T14:58:20.999Z</time></trkpt><trkpt lat="43.71662155110086" lon="6.840018800690112"><ele>896.0</ele><time>2026-04-22T14:58:21.999Z</time></trkpt><trkpt lat="43.7166554558139" lon="6.8398100050262105"><ele>896.3333333333334</ele><time>2026-04-22T14:58:22.999Z</time></trkpt><trkpt lat="43.71669488239983" lon="6.8395778095842585"><ele>896.6666666666667</ele><time>2026-04-22T14:58:23.999Z</time></trkpt><trkpt lat="43.71673419115657" lon="6.839323530051619"><ele>897.0</ele><time>2026-04-22T14:58:24.999Z</time></trkpt><trkpt lat="43.7167772899743" lon="6.839076952385853"><ele>896.0</ele><time>2026-04-22T14:58:25.999Z</time></trkpt><trkpt lat="43.71681624764861" lon="6.838838825770257"><ele>895.0</ele><time>2026-04-22T14:58:26.999Z</time></trkpt><trkpt lat="43.71685557776212" lon="6.83860367564109"><ele>894.0</ele><time>2026-04-22T14:58:27.999Z</time></trkpt><trkpt lat="43.71689220365338" lon="6.838393523626425"><ele>898.5</ele><time>2026-04-22T14:58:28.999Z</time></trkpt><trkpt lat="43.71692992415064" lon="6.838186337775246"><ele>903.0</ele><time>2026-04-22T14:58:29.999Z</time></trkpt><trkpt lat="43.71697140270729" lon="6.837992439244254"><ele>907.5</ele><time>2026-04-22T14:58:30.999Z</time></trkpt><trkpt lat="43.7170172912667" lon="6.837801071293937"><ele>912.0</ele><time>2026-04-22T14:58:31.999Z</time></trkpt><trkpt lat="43.71708259965877" lon="6.837626106405355"><ele>912.0</ele><time>2026-04-22T14:58:32.999Z</time></trkpt><trkpt lat="43.717152988138196" lon="6.837450193365885"><ele>912.0</ele><time>2026-04-22T14:58:33.999Z</time></trkpt><trkpt lat="43.71723682361905" lon="6.837282924624533"><ele>912.0</ele><time>2026-04-22T14:58:34.999Z</time></trkpt><trkpt lat="43.71734117535507" lon="6.8371249282260225"><ele>912.0</ele><time>2026-04-22T14:58:35.999Z</time></trkpt><trkpt lat="43.71744480818215" lon="6.8369515899354045"><ele>912.0</ele><time>2026-04-22T14:58:36.999Z</time></trkpt><trkpt lat="43.717546224862204" lon="6.836803009734829"><ele>912.0</ele><time>2026-04-22T14:58:37.999Z</time></trkpt><trkpt lat="43.71764245773016" lon="6.836658668852429"><ele>912.0</ele><time>2026-04-22T14:58:38.999Z</time></trkpt><trkpt lat="43.717728912804304" lon="6.8365222785722635"><ele>912.0</ele><time>2026-04-22T14:58:39.999Z</time></trkpt><trkpt lat="43.71779952508704" lon="6.836385983807068"><ele>915.0</ele><time>2026-04-22T14:58:40.999Z</time></trkpt><trkpt lat="43.717850836777224" lon="6.83623560551346"><ele>918.0</ele><time>2026-04-22T14:58:41.999Z</time></trkpt><trkpt lat="43.71788984041309" lon="6.836059725850126"><ele>921.0</ele><time>2026-04-22T14:58:42.999Z</time></trkpt><trkpt lat="43.71791631376733" lon="6.835865253784448"><ele>924.0</ele><time>2026-04-22T14:58:44.001Z</time></trkpt><trkpt lat="43.717936543168705" lon="6.835660264130152"><ele>924.0</ele><time>2026-04-22T14:58:45.001Z</time></trkpt><trkpt lat="43.717955070880485" lon="6.835445466013208"><ele>924.0</ele><time>2026-04-22T14:58:46.001Z</time></trkpt><trkpt lat="43.717976927142175" lon="6.8352245879805125"><ele>924.0</ele><time>2026-04-22T14:58:47.001Z</time></trkpt><trkpt lat="43.71799263206626" lon="6.835005317689865"><ele>923.6666666666667</ele><time>2026-04-22T14:58:48.001Z</time></trkpt><trkpt lat="43.718000992987925" lon="6.834787899707426"><ele>923.3333333333334</ele><time>2026-04-22T14:58:49.001Z</time></trkpt><trkpt lat="43.7180032818416" lon="6.834564997034584"><ele>923.0</ele><time>2026-04-22T14:58:50.001Z</time></trkpt><trkpt lat="43.71800415693366" lon="6.834342761236237"><ele>923.5</ele><time>2026-04-22T14:58:51.001Z</time></trkpt><trkpt lat="43.718002423298365" lon="6.834120926519896"><ele>924.0</ele><time>2026-04-22T14:58:52.001Z</time></trkpt><trkpt lat="43.71799283282072" lon="6.8339187777106"><ele>924.5</ele><time>2026-04-22T14:58:53.001Z</time></trkpt><trkpt lat="43.717972840754875" lon="6.833726722299375"><ele>925.0</ele><time>2026-04-22T14:58:54.001Z</time></trkpt><trkpt lat="43.71794701849221" lon="6.833545244404733"><ele>932.0</ele><time>2026-04-22T14:58:55.001Z</time></trkpt><trkpt lat="43.72166321786694" lon="6.822251989114067"><ele>932.0</ele><time>2026-04-22T14:59:56Z</time></trkpt><trkpt lat="43.72173693165498" lon="6.822105912060383"><ele>932.0</ele><time>2026-04-22T14:59:57Z</time></trkpt><trkpt lat="43.721804891653875" lon="6.821966676544853"><ele>932.0</ele><time>2026-04-22T14:59:58Z</time></trkpt><trkpt lat="43.72187672841145" lon="6.821839726952017"><ele>932.0</ele><time>2026-04-22T14:59:59Z</time></trkpt><trkpt lat="43.721957391290346" lon="6.821710561587663"><ele>936.0</ele><time>2026-04-22T15:00:00Z</time></trkpt><trkpt lat="43.72204668020921" lon="6.821584641450489"><ele>940.0</ele><time>2026-04-22T15:00:01Z</time></trkpt><trkpt lat="43.722142096186914" lon="6.821453478044596"><ele>944.0</ele><time>2026-04-22T15:00:02Z</time></trkpt><trkpt lat="43.72224700745961" lon="6.8213161595544"><ele>948.0</ele><time>2026-04-22T15:00:03Z</time></trkpt><trkpt lat="43.7223547033957" lon="6.821173919914908"><ele>948.0</ele><time>2026-04-22T15:00:04Z</time></trkpt><trkpt lat="43.72245686653644" lon="6.821036620580199"><ele>948.0</ele><time>2026-04-22T15:00:05Z</time></trkpt><trkpt lat="43.722555208361904" lon="6.820908974446107"><ele>948.0</ele><time>2026-04-22T15:00:06Z</time></trkpt><trkpt lat="43.72265253180612" lon="6.82078427500192"><ele>948.0</ele><time>2026-04-22T15:00:07Z</time></trkpt><trkpt lat="43.72274711614278" lon="6.82066424102911"><ele>949.0</ele><time>2026-04-22T15:00:08Z</time></trkpt><trkpt lat="43.7228390405218" lon="6.820549659382324"><ele>950.0</ele><time>2026-04-22T15:00:09Z</time></trkpt><trkpt lat="43.72293099280072" lon="6.820438974424882"><ele>951.0</ele><time>2026-04-22T15:00:10Z</time></trkpt><trkpt lat="43.72303064623361" lon="6.82032559728244"><ele>952.0</ele><time>2026-04-22T15:00:11Z</time></trkpt><trkpt lat="43.723138891020724" lon="6.820212803662513"><ele>944.25</ele><time>2026-04-22T15:00:12Z</time></trkpt><trkpt lat="43.723248890136" lon="6.820098656188562"><ele>936.5</ele><time>2026-04-22T15:00:13Z</time></trkpt><trkpt lat="43.72335418071944" lon="6.819992390098159"><ele>928.75</ele><time>2026-04-22T15:00:14Z</time></trkpt><trkpt lat="43.72345292051883" lon="6.819898640269488"><ele>921.0</ele><time>2026-04-22T15:00:15Z</time></trkpt><trkpt lat="43.72354671472043" lon="6.819809338499462"><ele>926.5999999999999</ele><time>2026-04-22T15:00:16Z</time></trkpt><trkpt lat="43.72363794718847" lon="6.8197273706459125"><ele>932.1999999999999</ele><time>2026-04-22T15:00:17Z</time></trkpt><trkpt lat="43.72373090216825" lon="6.819655338157547"><ele>937.8000000000001</ele><time>2026-04-22T15:00:17.999Z</time></trkpt><trkpt lat="43.72383602056249" lon="6.819597268492648"><ele>943.4000000000001</ele><time>2026-04-22T15:00:18.999Z</time></trkpt><trkpt lat="43.723944894693105" lon="6.819554013913904"><ele>949.0</ele><time>2026-04-22T15:00:19.999Z</time></trkpt><trkpt lat="43.72404958552445" lon="6.819524903984941"><ele>949.0</ele><time>2026-04-22T15:00:20.999Z</time></trkpt><trkpt lat="43.72414341842887" lon="6.8194850723436815"><ele>949.0000000000001</ele><time>2026-04-22T15:00:21.999Z</time></trkpt><trkpt lat="43.72424349983417" lon="6.819448065856945"><ele>949.0000000000001</ele><time>2026-04-22T15:00:22.999Z</time></trkpt><trkpt lat="43.72432069745995" lon="6.819344452548598"><ele>949.0</ele><time>2026-04-22T15:00:23.999Z</time></trkpt><trkpt lat="43.72439792059532" lon="6.819239393750471"><ele>949.0</ele><time>2026-04-22T15:00:24.999Z</time></trkpt><trkpt lat="43.72447543604234" lon="6.819120125254972"><ele>946.75</ele><time>2026-04-22T15:00:25.999Z</time></trkpt><trkpt lat="43.72456202769427" lon="6.819001571213507"><ele>944.5</ele><time>2026-04-22T15:00:26.999Z</time></trkpt><trkpt lat="43.724657785017" lon="6.818892431123356"><ele>942.25</ele><time>2026-04-22T15:00:27.999Z</time></trkpt><trkpt lat="43.72476265351795" lon="6.8188019843877745"><ele>940.0</ele><time>2026-04-22T15:00:28.999Z</time></trkpt><trkpt lat="43.72487952384514" lon="6.818721672377055"><ele>940.0</ele><time>2026-04-22T15:00:29.999Z</time></trkpt><trkpt lat="43.72499304937301" lon="6.818640708650881"><ele>940.0</ele><time>2026-04-22T15:00:30.999Z</time></trkpt><trkpt lat="43.72509694334668" lon="6.81856384680113"><ele>940.0</ele><time>2026-04-22T15:00:31.999Z</time></trkpt><trkpt lat="43.725193636353254" lon="6.818489988210001"><ele>940.0</ele><time>2026-04-22T15:00:32.999Z</time></trkpt><trkpt lat="43.725288217969414" lon="6.818421253053541"><ele>938.4</ele><time>2026-04-22T15:00:33.999Z</time></trkpt><trkpt lat="43.72538685174998" lon="6.818360991876526"><ele>936.8</ele><time>2026-04-22T15:00:34.999Z</time></trkpt><trkpt lat="43.725485944278205" lon="6.81831765512892"><ele>935.2</ele><time>2026-04-22T15:00:35.999Z</time></trkpt><trkpt lat="43.725580705244106" lon="6.818283013163717"><ele>933.6</ele><time>2026-04-22T15:00:36.999Z</time></trkpt><trkpt lat="43.72566934802445" lon="6.818246893147456"><ele>932.0</ele><time>2026-04-22T15:00:37.999Z</time></trkpt><trkpt lat="43.725758530486" lon="6.818191140627324"><ele>932.0</ele><time>2026-04-22T15:00:38.999Z</time></trkpt><trkpt lat="43.72584628014215" lon="6.818105853808148"><ele>932.0</ele><time>2026-04-22T15:00:39.999Z</time></trkpt><trkpt lat="43.7259351850196" lon="6.818007375232184"><ele>932.0</ele><time>2026-04-22T15:00:40.999Z</time></trkpt><trkpt lat="43.72603061277823" lon="6.817902045913217"><ele>932.0</ele><time>2026-04-22T15:00:41.999Z</time></trkpt><trkpt lat="43.72613573205718" lon="6.817800087485962"><ele>931.5</ele><time>2026-04-22T15:00:42.999Z</time></trkpt><trkpt lat="43.72621748771044" lon="6.817673299720811"><ele>931.0</ele><time>2026-04-22T15:00:43.999Z</time></trkpt><trkpt lat="43.72632099953664" lon="6.817555076862857"><ele>930.5</ele><time>2026-04-22T15:00:44.999Z</time></trkpt><trkpt lat="43.72642274213199" lon="6.817435524959264"><ele>930.0</ele><time>2026-04-22T15:00:45.999Z</time></trkpt><trkpt lat="43.72654001324471" lon="6.817324287370921"><ele>930.0</ele><time>2026-04-22T15:00:46.999Z</time></trkpt><trkpt lat="43.72665921479641" lon="6.817216697350499"><ele>930.0</ele><time>2026-04-22T15:00:47.999Z</time></trkpt><trkpt lat="43.72677570805559" lon="6.817112948854253"><ele>930.0</ele><time>2026-04-22T15:00:49Z</time></trkpt><trkpt lat="43.72689464324963" lon="6.817007238964473"><ele>930.0</ele><time>2026-04-22T15:00:50Z</time></trkpt><trkpt lat="43.727004209105615" lon="6.816906702841391"><ele>932.5</ele><time>2026-04-22T15:00:51Z</time></trkpt><trkpt lat="43.7271045684459" lon="6.8168007616949575"><ele>935.0</ele><time>2026-04-22T15:00:52Z</time></trkpt><trkpt lat="43.72720266484677" lon="6.816673536126522"><ele>937.5</ele><time>2026-04-22T15:00:53Z</time></trkpt><trkpt lat="43.72729574071635" lon="6.816523468063543"><ele>940.0</ele><time>2026-04-22T15:00:54Z</time></trkpt><trkpt lat="43.7273687143712" lon="6.816364844713127"><ele>952.0</ele><time>2026-04-22T15:00:55Z</time></trkpt><trkpt lat="43.731625936080654" lon="6.8157584520414165"><ele>952.0</ele><time>2026-04-22T15:01:56Z</time></trkpt><trkpt lat="43.731691250750636" lon="6.815915606534007"><ele>952.0</ele><time>2026-04-22T15:01:57Z</time></trkpt><trkpt lat="43.73175861915037" lon="6.816077609091031"><ele>952.0</ele><time>2026-04-22T15:01:58Z</time></trkpt><trkpt lat="43.731830841942006" lon="6.816245433531442"><ele>952.0</ele><time>2026-04-22T15:01:59Z</time></trkpt><trkpt lat="43.731908468462976" lon="6.816423031646082"><ele>952.5</ele><time>2026-04-22T15:02:00Z</time></trkpt><trkpt lat="43.7319865277052" lon="6.816599094710424"><ele>953.0</ele><time>2026-04-22T15:02:01Z</time></trkpt><trkpt lat="43.732055182568885" lon="6.816751450327639"><ele>953.5</ele><time>2026-04-22T15:02:02Z</time></trkpt><trkpt lat="43.73211650044424" lon="6.816883863134992"><ele>954.0</ele><time>2026-04-22T15:02:03Z</time></trkpt><trkpt lat="43.73218264541441" lon="6.817003131084777"><ele>956.0</ele><time>2026-04-22T15:02:04Z</time></trkpt><trkpt lat="43.732253616181175" lon="6.817099439225493"><ele>958.0000000000001</ele><time>2026-04-22T15:02:05Z</time></trkpt><trkpt lat="43.73233298924262" lon="6.817165289376013"><ele>960.0000000000001</ele><time>2026-04-22T15:02:06Z</time></trkpt><trkpt lat="43.73242304360923" lon="6.817192324365292"><ele>962.0</ele><time>2026-04-22T15:02:07Z</time></trkpt><trkpt lat="43.73251837972486" lon="6.817199259233445"><ele>964.0</ele><time>2026-04-22T15:02:08Z</time></trkpt><trkpt lat="43.73261592722295" lon="6.81716888369998"><ele>964.0</ele><time>2026-04-22T15:02:09Z</time></trkpt><trkpt lat="43.732706856256264" lon="6.817114123822915"><ele>964.0000000000001</ele><time>2026-04-22T15:02:10Z</time></trkpt><trkpt lat="43.73278700331981" lon="6.8170365614277655"><ele>964.0000000000001</ele><time>2026-04-22T15:02:11Z</time></trkpt><trkpt lat="43.73284742459884" lon="6.816939366760248"><ele>964.0</ele><time>2026-04-22T15:02:12Z</time></trkpt><trkpt lat="43.73288735715237" lon="6.816817840422692"><ele>964.0</ele><time>2026-04-22T15:02:13Z</time></trkpt><trkpt lat="43.73291049457056" lon="6.816676413866271"><ele>964.5</ele><time>2026-04-22T15:02:14Z</time></trkpt><trkpt lat="43.73292253912722" lon="6.816515018349712"><ele>965.0</ele><time>2026-04-22T15:02:15Z</time></trkpt><trkpt lat="43.73292590267367" lon="6.8163411019289235"><ele>965.5</ele><time>2026-04-22T15:02:16Z</time></trkpt><trkpt lat="43.73292851404354" lon="6.816153754582047"><ele>966.0</ele><time>2026-04-22T15:02:17Z</time></trkpt><trkpt lat="43.732927629675345" lon="6.815953289604137"><ele>966.0</ele><time>2026-04-22T15:02:18Z</time></trkpt><trkpt lat="43.73292790365933" lon="6.815746371440625"><ele>966.0</ele><time>2026-04-22T15:02:18.999Z</time></trkpt><trkpt lat="43.73292835199227" lon="6.815537806457994"><ele>966.0</ele><time>2026-04-22T15:02:19.999Z</time></trkpt><trkpt lat="43.73293441879632" lon="6.815351242105441"><ele>966.0</ele><time>2026-04-22T15:02:20.999Z</time></trkpt><trkpt lat="43.73294538178513" lon="6.815172073340673"><ele>966.25</ele><time>2026-04-22T15:02:21.999Z</time></trkpt><trkpt lat="43.73297202990181" lon="6.815009457439476"><ele>966.5</ele><time>2026-04-22T15:02:22.999Z</time></trkpt><trkpt lat="43.73301429214444" lon="6.814859597680723"><ele>966.75</ele><time>2026-04-22T15:02:23.999Z</time></trkpt><trkpt lat="43.73307275728247" lon="6.814720953922395"><ele>967.0</ele><time>2026-04-22T15:02:24.999Z</time></trkpt><trkpt lat="43.73315096142954" lon="6.814601364472949"><ele>967.0</ele><time>2026-04-22T15:02:25.999Z</time></trkpt><trkpt lat="43.733240699556966" lon="6.814505892172444"><ele>967.0</ele><time>2026-04-22T15:02:26.999Z</time></trkpt><trkpt lat="43.733332832220185" lon="6.8144342947388346"><ele>967.0</ele><time>2026-04-22T15:02:27.999Z</time></trkpt><trkpt lat="43.73343828461662" lon="6.814396157450002"><ele>967.0</ele><time>2026-04-22T15:02:28.999Z</time></trkpt><trkpt lat="43.733547982678274" lon="6.814370764537576"><ele>967.0</ele><time>2026-04-22T15:02:29.999Z</time></trkpt><trkpt lat="43.73366206214832" lon="6.814391270580045"><ele>967.75</ele><time>2026-04-22T15:02:30.999Z</time></trkpt><trkpt lat="43.73377312667154" lon="6.81443343832636"><ele>968.5</ele><time>2026-04-22T15:02:31.999Z</time></trkpt><trkpt lat="43.73386980920724" lon="6.814494315634307"><ele>969.25</ele><time>2026-04-22T15:02:32.999Z</time></trkpt><trkpt lat="43.73395820504457" lon="6.814584809496225"><ele>970.0</ele><time>2026-04-22T15:02:33.999Z</time></trkpt><trkpt lat="43.73404336664471" lon="6.814698766641163"><ele>970.0</ele><time>2026-04-22T15:02:34.999Z</time></trkpt><trkpt lat="43.7341166839899" lon="6.814842850666255"><ele>970.0</ele><time>2026-04-22T15:02:35.999Z</time></trkpt><trkpt lat="43.73418810727289" lon="6.8149947875930525"><ele>970.0</ele><time>2026-04-22T15:02:36.999Z</time></trkpt><trkpt lat="43.73426875851532" lon="6.81515046582882"><ele>970.0</ele><time>2026-04-22T15:02:37.999Z</time></trkpt><trkpt lat="43.7343551552321" lon="6.8152985727234165"><ele>971.6</ele><time>2026-04-22T15:02:38.999Z</time></trkpt><trkpt lat="43.734438982097934" lon="6.8154129804798815"><ele>973.2</ele><time>2026-04-22T15:02:39.999Z</time></trkpt><trkpt lat="43.73452781130029" lon="6.815502907277482"><ele>974.8</ele><time>2026-04-22T15:02:40.999Z</time></trkpt><trkpt lat="43.73462194260185" lon="6.815572202729048"><ele>976.4</ele><time>2026-04-22T15:02:41.999Z</time></trkpt><trkpt lat="43.73471985211468" lon="6.815632245820032"><ele>978.0</ele><time>2026-04-22T15:02:42.999Z</time></trkpt><trkpt lat="43.73482465188603" lon="6.815670305317817"><ele>978.0</ele><time>2026-04-22T15:02:43.999Z</time></trkpt><trkpt lat="43.73493579737468" lon="6.8156935529726725"><ele>978.0</ele><time>2026-04-22T15:02:44.999Z</time></trkpt><trkpt lat="43.7350543194457" lon="6.81570573310794"><ele>978.0</ele><time>2026-04-22T15:02:45.999Z</time></trkpt><trkpt lat="43.7351790595319" lon="6.815700515095869"><ele>978.0</ele><time>2026-04-22T15:02:46.999Z</time></trkpt><trkpt lat="43.73530913584922" lon="6.815688990659741"><ele>981.25</ele><time>2026-04-22T15:02:47.999Z</time></trkpt><trkpt lat="43.735440910087696" lon="6.815674965474273"><ele>984.5</ele><time>2026-04-22T15:02:48.999Z</time></trkpt><trkpt lat="43.735580520833054" lon="6.815656853777522"><ele>987.75</ele><time>2026-04-22T15:02:49.999Z</time></trkpt><trkpt lat="43.73573935174776" lon="6.815630447388762"><ele>991.0</ele><time>2026-04-22T15:02:50.999Z</time></trkpt><trkpt lat="43.73588358967066" lon="6.815616974600267"><ele>994.3333333333333</ele><time>2026-04-22T15:02:51.999Z</time></trkpt><trkpt lat="43.73606084835058" lon="6.815590978964859"><ele>997.6666666666667</ele><time>2026-04-22T15:02:52.999Z</time></trkpt><trkpt lat="43.73624718225167" lon="6.815567215671858"><ele>1001.0</ele><time>2026-04-22T15:02:53.999Z</time></trkpt><trkpt lat="43.73643361012735" lon="6.815541723700349"><ele>1026.0</ele><time>2026-04-22T15:02:55Z</time></trkpt><trkpt lat="43.734090272918536" lon="6.804959819966443"><ele>1026.0</ele><time>2026-04-22T15:03:56Z</time></trkpt><trkpt lat="43.73400850668989" lon="6.804742298143708"><ele>1026.0</ele><time>2026-04-22T15:03:57Z</time></trkpt><trkpt lat="43.733918975225805" lon="6.804528419245237"><ele>1026.0</ele><time>2026-04-22T15:03:58Z</time></trkpt><trkpt lat="43.733821781246895" lon="6.804314712732178"><ele>1028.0</ele><time>2026-04-22T15:03:59Z</time></trkpt><trkpt lat="43.73371898203177" lon="6.80409803980396"><ele>1030.0</ele><time>2026-04-22T15:04:00Z</time></trkpt><trkpt lat="43.73361056043617" lon="6.803870780846496"><ele>1032.0</ele><time>2026-04-22T15:04:01Z</time></trkpt><trkpt lat="43.73350621238411" lon="6.80364962966357"><ele>1030.0</ele><time>2026-04-22T15:04:02Z</time></trkpt><trkpt lat="43.73340499034176" lon="6.803436439464755"><ele>1028.0</ele><time>2026-04-22T15:04:03Z</time></trkpt><trkpt lat="43.73331837019846" lon="6.803234517151843"><ele>1026.0</ele><time>2026-04-22T15:04:04Z</time></trkpt><trkpt lat="43.733236525335684" lon="6.803028926197723"><ele>1026.0</ele><time>2026-04-22T15:04:05Z</time></trkpt><trkpt lat="43.73316406717832" lon="6.802820226843761"><ele>1026.0</ele><time>2026-04-22T15:04:06Z</time></trkpt><trkpt lat="43.73309726985657" lon="6.802613075147575"><ele>1026.0</ele><time>2026-04-22T15:04:07Z</time></trkpt><trkpt lat="43.73303219547798" lon="6.8024053331701815"><ele>1029.6666666666667</ele><time>2026-04-22T15:04:08Z</time></trkpt><trkpt lat="43.73296691460152" lon="6.802195847101384"><ele>1033.3333333333335</ele><time>2026-04-22T15:04:09Z</time></trkpt><trkpt lat="43.73290416960521" lon="6.8019883465562385"><ele>1037.0</ele><time>2026-04-22T15:04:10Z</time></trkpt><trkpt lat="43.732837604768406" lon="6.801778125594496"><ele>1040.6666666666667</ele><time>2026-04-22T15:04:11Z</time></trkpt><trkpt lat="43.73276970660039" lon="6.801568100260139"><ele>1044.3333333333333</ele><time>2026-04-22T15:04:12Z</time></trkpt><trkpt lat="43.73270250079731" lon="6.801356696470138"><ele>1048.0</ele><time>2026-04-22T15:04:13Z</time></trkpt><trkpt lat="43.73263385325446" lon="6.801149087649932"><ele>1042.0</ele><time>2026-04-22T15:04:14Z</time></trkpt><trkpt lat="43.73256658709293" lon="6.800942009862298"><ele>1036.0</ele><time>2026-04-22T15:04:15Z</time></trkpt><trkpt lat="43.73249628705262" lon="6.800727357421686"><ele>1030.0</ele><time>2026-04-22T15:04:16Z</time></trkpt><trkpt lat="43.732429517912536" lon="6.800516193912669"><ele>1030.0</ele><time>2026-04-22T15:04:17Z</time></trkpt><trkpt lat="43.73236092248585" lon="6.800303090790075"><ele>1030.0</ele><time>2026-04-22T15:04:18Z</time></trkpt><trkpt lat="43.732293243547524" lon="6.800089854938272"><ele>1030.0</ele><time>2026-04-22T15:04:19Z</time></trkpt><trkpt lat="43.73222451582338" lon="6.799876697011943"><ele>1034.0</ele><time>2026-04-22T15:04:19.999Z</time></trkpt><trkpt lat="43.73215668963031" lon="6.799669074000827"><ele>1038.0</ele><time>2026-04-22T15:04:20.999Z</time></trkpt><trkpt lat="43.73209122397208" lon="6.799467173026246"><ele>1042.0</ele><time>2026-04-22T15:04:21.999Z</time></trkpt><trkpt lat="43.732028026968706" lon="6.799268303150461"><ele>1044.6666666666665</ele><time>2026-04-22T15:04:22.999Z</time></trkpt><trkpt lat="43.73196656562924" lon="6.799071247442063"><ele>1047.3333333333333</ele><time>2026-04-22T15:04:23.999Z</time></trkpt><trkpt lat="43.731903834320406" lon="6.798870562135478"><ele>1050.0</ele><time>2026-04-22T15:04:24.999Z</time></trkpt><trkpt lat="43.73184348089967" lon="6.798676016251634"><ele>1046.5</ele><time>2026-04-22T15:04:25.999Z</time></trkpt><trkpt lat="43.73178312657618" lon="6.798492629341327"><ele>1043.0</ele><time>2026-04-22T15:04:26.999Z</time></trkpt><trkpt lat="43.73172848839256" lon="6.798317427246693"><ele>1039.5</ele><time>2026-04-22T15:04:27.999Z</time></trkpt><trkpt lat="43.73168011578056" lon="6.7981377273150665"><ele>1036.0</ele><time>2026-04-22T15:04:28.999Z</time></trkpt><trkpt lat="43.73163555291407" lon="6.797951791125477"><ele>1036.0</ele><time>2026-04-22T15:04:29.999Z</time></trkpt><trkpt lat="43.731554202505365" lon="6.7977882064921165"><ele>1036.0</ele><time>2026-04-22T15:04:30.999Z</time></trkpt><trkpt lat="43.73150012882332" lon="6.797602610509156"><ele>1036.0</ele><time>2026-04-22T15:04:31.999Z</time></trkpt><trkpt lat="43.731437762184875" lon="6.797409811464145"><ele>1036.0</ele><time>2026-04-22T15:04:32.999Z</time></trkpt><trkpt lat="43.731372408942946" lon="6.797215234193985"><ele>1040.0</ele><time>2026-04-22T15:04:33.999Z</time></trkpt><trkpt lat="43.73131040711316" lon="6.797020498028496"><ele>1044.0</ele><time>2026-04-22T15:04:34.999Z</time></trkpt><trkpt lat="43.73125033604592" lon="6.796844472699002"><ele>1048.0</ele><time>2026-04-22T15:04:35.999Z</time></trkpt><trkpt lat="43.731193449570874" lon="6.796682066637465"><ele>1052.0</ele><time>2026-04-22T15:04:36.999Z</time></trkpt><trkpt lat="43.731136129093905" lon="6.796508193064958"><ele>1049.0</ele><time>2026-04-22T15:04:37.999Z</time></trkpt><trkpt lat="43.73108189148957" lon="6.7963284280975795"><ele>1046.0</ele><time>2026-04-22T15:04:38.999Z</time></trkpt><trkpt lat="43.7310304499822" lon="6.796144241668547"><ele>1043.0</ele><time>2026-04-22T15:04:39.999Z</time></trkpt><trkpt lat="43.73098305081876" lon="6.795947045691752"><ele>1040.0</ele><time>2026-04-22T15:04:40.999Z</time></trkpt><trkpt lat="43.73094544721645" lon="6.795735017479405"><ele>1040.0</ele><time>2026-04-22T15:04:41.999Z</time></trkpt><trkpt lat="43.730920172446865" lon="6.795537174932256"><ele>1040.0</ele><time>2026-04-22T15:04:42.999Z</time></trkpt><trkpt lat="43.73090513487199" lon="6.795339280280543"><ele>1040.0</ele><time>2026-04-22T15:04:43.999Z</time></trkpt><trkpt lat="43.730886430757316" lon="6.795151769881516"><ele>1040.0</ele><time>2026-04-22T15:04:44.999Z</time></trkpt><trkpt lat="43.7308653791763" lon="6.7949775526576435"><ele>1040.5</ele><time>2026-04-22T15:04:45.999Z</time></trkpt><trkpt lat="43.73084236563206" lon="6.794803842027758"><ele>1041.0</ele><time>2026-04-22T15:04:46.999Z</time></trkpt><trkpt lat="43.730820712444164" lon="6.794622799029218"><ele>1041.5</ele><time>2026-04-22T15:04:47.999Z</time></trkpt><trkpt lat="43.730805991213316" lon="6.794439530002985"><ele>1042.0</ele><time>2026-04-22T15:04:48.999Z</time></trkpt><trkpt lat="43.73078545744692" lon="6.794255876486308"><ele>1043.25</ele><time>2026-04-22T15:04:49.999Z</time></trkpt><trkpt lat="43.7307534879165" lon="6.79407233942655"><ele>1044.5</ele><time>2026-04-22T15:04:50.999Z</time></trkpt><trkpt lat="43.730717889088965" lon="6.793895480340848"><ele>1045.75</ele><time>2026-04-22T15:04:51.999Z</time></trkpt><trkpt lat="43.73066321040674" lon="6.793746621270012"><ele>1047.0</ele><time>2026-04-22T15:04:52.999Z</time></trkpt><trkpt lat="43.73061166019382" lon="6.793592272100125"><ele>1050.0</ele><time>2026-04-22T15:04:53.999Z</time></trkpt><trkpt lat="43.7305561309761" lon="6.793456465299308"><ele>1053.0</ele><time>2026-04-22T15:04:54.999Z</time></trkpt><trkpt lat="43.730796850908476" lon="6.783513535910158"><ele>1048.0</ele><time>2026-04-22T15:05:56Z</time></trkpt><trkpt lat="43.73086904918718" lon="6.783376730312173"><ele>1043.0</ele><time>2026-04-22T15:05:57Z</time></trkpt><trkpt lat="43.73094959612547" lon="6.783245323442067"><ele>1038.0</ele><time>2026-04-22T15:05:58Z</time></trkpt><trkpt lat="43.7310462856396" lon="6.783121858491445"><ele>1033.0</ele><time>2026-04-22T15:05:59Z</time></trkpt><trkpt lat="43.73115089658701" lon="6.78299544510684"><ele>1033.0</ele><time>2026-04-22T15:06:00Z</time></trkpt><trkpt lat="43.73125662777557" lon="6.782869981349811"><ele>1033.0</ele><time>2026-04-22T15:06:01Z</time></trkpt><trkpt lat="43.73135635301417" lon="6.78275505340308"><ele>1033.0</ele><time>2026-04-22T15:06:02Z</time></trkpt><trkpt lat="43.73144635117889" lon="6.782638577207312"><ele>1033.0</ele><time>2026-04-22T15:06:03Z</time></trkpt><trkpt lat="43.731526978547066" lon="6.782519922322913"><ele>1029.2</ele><time>2026-04-22T15:06:04Z</time></trkpt><trkpt lat="43.731611374751495" lon="6.782427884559501"><ele>1025.4</ele><time>2026-04-22T15:06:05Z</time></trkpt><trkpt lat="43.73167895016647" lon="6.782327219414106"><ele>1021.6000000000001</ele><time>2026-04-22T15:06:06Z</time></trkpt><trkpt lat="43.73173274571404" lon="6.782218984261023"><ele>1017.8000000000001</ele><time>2026-04-22T15:06:07Z</time></trkpt><trkpt lat="43.731772738747075" lon="6.782106055695085"><ele>1014.0</ele><time>2026-04-22T15:06:08Z</time></trkpt><trkpt lat="43.73178392725696" lon="6.78198913387396"><ele>1014.0</ele><time>2026-04-22T15:06:09Z</time></trkpt><trkpt lat="43.73176628758306" lon="6.781863488776186"><ele>1014.0000000000001</ele><time>2026-04-22T15:06:10Z</time></trkpt><trkpt lat="43.73172362774792" lon="6.781734972171173"><ele>1014.0000000000001</ele><time>2026-04-22T15:06:11Z</time></trkpt><trkpt lat="43.73165745642596" lon="6.781610077263959"><ele>1014.0</ele><time>2026-04-22T15:06:12Z</time></trkpt><trkpt lat="43.73157202319197" lon="6.781486883883232"><ele>1014.0</ele><time>2026-04-22T15:06:13Z</time></trkpt><trkpt lat="43.731475950392685" lon="6.781366939764754"><ele>1013.5</ele><time>2026-04-22T15:06:14Z</time></trkpt><trkpt lat="43.73138033917965" lon="6.781249709791847"><ele>1013.0</ele><time>2026-04-22T15:06:15Z</time></trkpt><trkpt lat="43.731300541366494" lon="6.781139583994254"><ele>1012.5</ele><time>2026-04-22T15:06:16Z</time></trkpt><trkpt lat="43.7312386086386" lon="6.781016916324504"><ele>1012.0</ele><time>2026-04-22T15:06:17Z</time></trkpt><trkpt lat="43.73119531855583" lon="6.780872720999235"><ele>1016.5</ele><time>2026-04-22T15:06:18Z</time></trkpt><trkpt lat="43.731159801714945" lon="6.780718722225075"><ele>1021.0</ele><time>2026-04-22T15:06:19Z</time></trkpt><trkpt lat="43.7311261653279" lon="6.780555887978291"><ele>1025.5</ele><time>2026-04-22T15:06:20Z</time></trkpt><trkpt lat="43.73109351355588" lon="6.780388619382804"><ele>1030.0</ele><time>2026-04-22T15:06:21Z</time></trkpt><trkpt lat="43.73106760262447" lon="6.780222166098924"><ele>1024.0</ele><time>2026-04-22T15:06:22Z</time></trkpt><trkpt lat="43.731047432273506" lon="6.780063031912073"><ele>1018.0</ele><time>2026-04-22T15:06:23Z</time></trkpt><trkpt lat="43.73103630491682" lon="6.779898280096316"><ele>1012.0</ele><time>2026-04-22T15:06:23.999Z</time></trkpt><trkpt lat="43.73103603331148" lon="6.779730253774632"><ele>1006.0</ele><time>2026-04-22T15:06:24.999Z</time></trkpt><trkpt lat="43.73105073608059" lon="6.779557887244659"><ele>1020.3333333333333</ele><time>2026-04-22T15:06:25.999Z</time></trkpt><trkpt lat="43.73107878674579" lon="6.779370244888638"><ele>1034.6666666666667</ele><time>2026-04-22T15:06:26.999Z</time></trkpt><trkpt lat="43.73111290840375" lon="6.779164719808393"><ele>1049.0</ele><time>2026-04-22T15:06:27.999Z</time></trkpt><trkpt lat="43.73114616328775" lon="6.77894786125255"><ele>1049.5</ele><time>2026-04-22T15:06:28.999Z</time></trkpt><trkpt lat="43.731170995723765" lon="6.778740865983717"><ele>1050.0</ele><time>2026-04-22T15:06:29.999Z</time></trkpt><trkpt lat="43.73119696858729" lon="6.778542134563214"><ele>1050.5</ele><time>2026-04-22T15:06:30.999Z</time></trkpt><trkpt lat="43.731222489910365" lon="6.778345338210577"><ele>1051.0</ele><time>2026-04-22T15:06:31.999Z</time></trkpt><trkpt lat="43.73124870125907" lon="6.778151566731812"><ele>1047.25</ele><time>2026-04-22T15:06:32.999Z</time></trkpt><trkpt lat="43.73127832337091" lon="6.777977565694661"><ele>1043.5</ele><time>2026-04-22T15:06:33.999Z</time></trkpt><trkpt lat="43.731317442084745" lon="6.77781512641325"><ele>1039.75</ele><time>2026-04-22T15:06:34.999Z</time></trkpt><trkpt lat="43.731371050347214" lon="6.777657123728812"><ele>1036.0</ele><time>2026-04-22T15:06:35.999Z</time></trkpt><trkpt lat="43.731442053808756" lon="6.777500545776751"><ele>1033.25</ele><time>2026-04-22T15:06:36.999Z</time></trkpt><trkpt lat="43.73151956210115" lon="6.777349154815096"><ele>1030.5</ele><time>2026-04-22T15:06:37.999Z</time></trkpt><trkpt lat="43.73159234000683" lon="6.777208800368982"><ele>1027.75</ele><time>2026-04-22T15:06:38.999Z</time></trkpt><trkpt lat="43.73167175368685" lon="6.777076164886129"><ele>1025.0</ele><time>2026-04-22T15:06:39.999Z</time></trkpt><trkpt lat="43.73176796814215" lon="6.776953036752584"><ele>1028.0</ele><time>2026-04-22T15:06:40.999Z</time></trkpt><trkpt lat="43.73187054373258" lon="6.776823212076013"><ele>1031.0</ele><time>2026-04-22T15:06:41.999Z</time></trkpt><trkpt lat="43.73196960051652" lon="6.776697540978426"><ele>1034.0</ele><time>2026-04-22T15:06:42.999Z</time></trkpt><trkpt lat="43.73206611091537" lon="6.776561820071464"><ele>1037.0</ele><time>2026-04-22T15:06:43.999Z</time></trkpt><trkpt lat="43.73216506175524" lon="6.776415040933331"><ele>1037.0</ele><time>2026-04-22T15:06:44.999Z</time></trkpt><trkpt lat="43.732258336063026" lon="6.7762511535309455"><ele>1037.0</ele><time>2026-04-22T15:06:45.999Z</time></trkpt><trkpt lat="43.732341445335024" lon="6.776081981928402"><ele>1037.0</ele><time>2026-04-22T15:06:46.999Z</time></trkpt><trkpt lat="43.732417658132455" lon="6.775916558609872"><ele>1037.0</ele><time>2026-04-22T15:06:47.999Z</time></trkpt><trkpt lat="43.73249357619489" lon="6.775748170022652"><ele>1038.75</ele><time>2026-04-22T15:06:48.999Z</time></trkpt><trkpt lat="43.73257540863349" lon="6.7755877157740825"><ele>1040.5</ele><time>2026-04-22T15:06:49.999Z</time></trkpt><trkpt lat="43.73266949779164" lon="6.775435819037131"><ele>1042.25</ele><time>2026-04-22T15:06:50.999Z</time></trkpt><trkpt lat="43.73276716171509" lon="6.7753086879921725"><ele>1044.0</ele><time>2026-04-22T15:06:51.999Z</time></trkpt><trkpt lat="43.73285413618579" lon="6.775195949383436"><ele>1042.0</ele><time>2026-04-22T15:06:52.999Z</time></trkpt><trkpt lat="43.73292833164474" lon="6.775088176623456"><ele>1040.0</ele><time>2026-04-22T15:06:53.999Z</time></trkpt><trkpt lat="43.732994284142386" lon="6.7749666030174325"><ele>1038.0</ele><time>2026-04-22T15:06:54.999Z</time></trkpt><trkpt lat="43.73807068938495" lon="6.7691882985476495"><ele>1038.0</ele><time>2026-04-22T15:07:56Z</time></trkpt><trkpt lat="43.73817720999595" lon="6.7690935610748095"><ele>1038.0</ele><time>2026-04-22T15:07:57Z</time></trkpt><trkpt lat="43.73829050050871" lon="6.768998019533923"><ele>1038.0</ele><time>2026-04-22T15:07:58Z</time></trkpt><trkpt lat="43.73840820692063" lon="6.768900160985944"><ele>1038.0</ele><time>2026-04-22T15:07:59Z</time></trkpt><trkpt lat="43.738526926142306" lon="6.768797845334994"><ele>1039.25</ele><time>2026-04-22T15:08:00Z</time></trkpt><trkpt lat="43.73864839262574" lon="6.768697186938316"><ele>1040.5</ele><time>2026-04-22T15:08:01Z</time></trkpt><trkpt lat="43.738773869741145" lon="6.768597245313156"><ele>1041.75</ele><time>2026-04-22T15:08:02Z</time></trkpt><trkpt lat="43.73889368684307" lon="6.768500060689025"><ele>1043.0</ele><time>2026-04-22T15:08:03Z</time></trkpt><trkpt lat="43.73900028771559" lon="6.7684084051954"><ele>1043.0</ele><time>2026-04-22T15:08:04Z</time></trkpt><trkpt lat="43.73909558606469" lon="6.768325520392698"><ele>1043.0</ele><time>2026-04-22T15:08:05Z</time></trkpt><trkpt lat="43.73918144496466" lon="6.768239923253932"><ele>1043.0</ele><time>2026-04-22T15:08:06Z</time></trkpt><trkpt lat="43.73926176018251" lon="6.768128047674141"><ele>1043.0</ele><time>2026-04-22T15:08:07Z</time></trkpt><trkpt lat="43.7393328038605" lon="6.767987944653618"><ele>1046.75</ele><time>2026-04-22T15:08:08Z</time></trkpt><trkpt lat="43.73939997837371" lon="6.767835396289296"><ele>1050.5</ele><time>2026-04-22T15:08:09Z</time></trkpt><trkpt lat="43.73947400567904" lon="6.767684706556928"><ele>1054.25</ele><time>2026-04-22T15:08:10Z</time></trkpt><trkpt lat="43.739560914929484" lon="6.767541533073989"><ele>1058.0</ele><time>2026-04-22T15:08:11Z</time></trkpt><trkpt lat="43.73965451668917" lon="6.767404898491282"><ele>1058.0</ele><time>2026-04-22T15:08:12Z</time></trkpt><trkpt lat="43.73974976116399" lon="6.767263046829475"><ele>1058.0</ele><time>2026-04-22T15:08:13Z</time></trkpt><trkpt lat="43.739834921568736" lon="6.76713029040808"><ele>1058.0</ele><time>2026-04-22T15:08:14Z</time></trkpt><trkpt lat="43.7399127431082" lon="6.767004252946328"><ele>1058.0</ele><time>2026-04-22T15:08:15Z</time></trkpt><trkpt lat="43.73999254372579" lon="6.766874710865057"><ele>1051.75</ele><time>2026-04-22T15:08:16Z</time></trkpt><trkpt lat="43.740068609743744" lon="6.76672686947598"><ele>1045.5</ele><time>2026-04-22T15:08:17Z</time></trkpt><trkpt lat="43.740143238662405" lon="6.766568682389372"><ele>1039.25</ele><time>2026-04-22T15:08:18Z</time></trkpt><trkpt lat="43.74022115318414" lon="6.766405751355977"><ele>1033.0</ele><time>2026-04-22T15:08:19Z</time></trkpt><trkpt lat="43.74030058012678" lon="6.766238939252423"><ele>1039.5</ele><time>2026-04-22T15:08:19.999Z</time></trkpt><trkpt lat="43.74037882464228" lon="6.766068390326084"><ele>1046.0</ele><time>2026-04-22T15:08:20.999Z</time></trkpt><trkpt lat="43.74045304750566" lon="6.765908265820678"><ele>1052.5</ele><time>2026-04-22T15:08:21.999Z</time></trkpt><trkpt lat="43.74052366686775" lon="6.765762554004161"><ele>1059.0</ele><time>2026-04-22T15:08:22.999Z</time></trkpt><trkpt lat="43.7405969713959" lon="6.765623013378238"><ele>1059.0</ele><time>2026-04-22T15:08:23.999Z</time></trkpt><trkpt lat="43.74067694743558" lon="6.765491496689105"><ele>1059.0</ele><time>2026-04-22T15:08:24.999Z</time></trkpt><trkpt lat="43.74076521633008" lon="6.765374562960205"><ele>1059.0</ele><time>2026-04-22T15:08:25.999Z</time></trkpt><trkpt lat="43.740866351586114" lon="6.765273102743395"><ele>1059.0</ele><time>2026-04-22T15:08:26.999Z</time></trkpt><trkpt lat="43.740976946304556" lon="6.765173792126178"><ele>1059.0</ele><time>2026-04-22T15:08:27.999Z</time></trkpt><trkpt lat="43.741094896001385" lon="6.76506836003364"><ele>1059.0</ele><time>2026-04-22T15:08:28.999Z</time></trkpt><trkpt lat="43.741208475818645" lon="6.764973846370754"><ele>1059.0</ele><time>2026-04-22T15:08:29.999Z</time></trkpt><trkpt lat="43.74131093959278" lon="6.764893067916511"><ele>1059.0</ele><time>2026-04-22T15:08:30.999Z</time></trkpt><trkpt lat="43.741397866863245" lon="6.764807239863876"><ele>1059.0</ele><time>2026-04-22T15:08:31.999Z</time></trkpt><trkpt lat="43.74146842720245" lon="6.764714615303165"><ele>1059.0</ele><time>2026-04-22T15:08:32.999Z</time></trkpt><trkpt lat="43.74152602307214" lon="6.764608599515746"><ele>1059.0</ele><time>2026-04-22T15:08:33.999Z</time></trkpt><trkpt lat="43.7415719506409" lon="6.764492716514095"><ele>1059.0</ele><time>2026-04-22T15:08:34.999Z</time></trkpt><trkpt lat="43.741605412715636" lon="6.764360886690067"><ele>1059.0</ele><time>2026-04-22T15:08:35.999Z</time></trkpt><trkpt lat="43.74162808984163" lon="6.76421487774567"><ele>1056.8</ele><time>2026-04-22T15:08:36.999Z</time></trkpt><trkpt lat="43.74164830474474" lon="6.764061696425933"><ele>1054.6000000000001</ele><time>2026-04-22T15:08:37.999Z</time></trkpt><trkpt lat="43.74166673420841" lon="6.763904471013009"><ele>1052.4</ele><time>2026-04-22T15:08:38.999Z</time></trkpt><trkpt lat="43.741692891009286" lon="6.763758861489688"><ele>1050.2</ele><time>2026-04-22T15:08:39.999Z</time></trkpt><trkpt lat="43.74172246131114" lon="6.763623075247784"><ele>1048.0</ele><time>2026-04-22T15:08:40.999Z</time></trkpt><trkpt lat="43.74176581768924" lon="6.763488866420252"><ele>1047.75</ele><time>2026-04-22T15:08:41.999Z</time></trkpt><trkpt lat="43.741827725575476" lon="6.76336509795176"><ele>1047.5</ele><time>2026-04-22T15:08:42.999Z</time></trkpt><trkpt lat="43.74189500439832" lon="6.763242618404798"><ele>1047.25</ele><time>2026-04-22T15:08:43.999Z</time></trkpt><trkpt lat="43.74197435794376" lon="6.763119383322049"><ele>1047.0</ele><time>2026-04-22T15:08:44.999Z</time></trkpt><trkpt lat="43.74205880778719" lon="6.762996616198504"><ele>1051.5</ele><time>2026-04-22T15:08:45.999Z</time></trkpt><trkpt lat="43.742143819976896" lon="6.762864715794161"><ele>1056.0</ele><time>2026-04-22T15:08:46.999Z</time></trkpt><trkpt lat="43.74223084240631" lon="6.762732849789377"><ele>1060.5</ele><time>2026-04-22T15:08:47.999Z</time></trkpt><trkpt lat="43.74230923630527" lon="6.7626020300232215"><ele>1065.0</ele><time>2026-04-22T15:08:48.999Z</time></trkpt><trkpt lat="43.74236794992373" lon="6.762484926298921"><ele>1065.0</ele><time>2026-04-22T15:08:49.999Z</time></trkpt><trkpt lat="43.742413427264815" lon="6.762355911932622"><ele>1065.0</ele><time>2026-04-22T15:08:50.999Z</time></trkpt><trkpt lat="43.74245050645003" lon="6.762213680049867"><ele>1065.0</ele><time>2026-04-22T15:08:51.999Z</time></trkpt><trkpt lat="43.74247777481595" lon="6.762062077257871"><ele>1065.0</ele><time>2026-04-22T15:08:52.999Z</time></trkpt><trkpt lat="43.74248418388739" lon="6.76190542339574"><ele>1065.0</ele><time>2026-04-22T15:08:53.999Z</time></trkpt><trkpt lat="43.742481697506115" lon="6.761746804859472"><ele>1100.0</ele><time>2026-04-22T15:08:54.999Z</time></trkpt><trkpt lat="43.74435499662078" lon="6.751889203612385"><ele>1101.0</ele><time>2026-04-22T15:09:56Z</time></trkpt><trkpt lat="43.744448644494646" lon="6.751764032505064"><ele>1102.0</ele><time>2026-04-22T15:09:57Z</time></trkpt><trkpt lat="43.74454992486013" lon="6.7516630771010675"><ele>1103.0</ele><time>2026-04-22T15:09:58Z</time></trkpt><trkpt lat="43.744659563474166" lon="6.751587119262201"><ele>1104.0</ele><time>2026-04-22T15:09:59Z</time></trkpt><trkpt lat="43.744778070572146" lon="6.751534827256853"><ele>1104.0</ele><time>2026-04-22T15:10:00Z</time></trkpt><trkpt lat="43.744901255615545" lon="6.751504136072262"><ele>1104.0</ele><time>2026-04-22T15:10:01Z</time></trkpt><trkpt lat="43.74503128035008" lon="6.75149113313074"><ele>1104.0</ele><time>2026-04-22T15:10:02Z</time></trkpt><trkpt lat="43.74517106111215" lon="6.751494945619997"><ele>1104.0</ele><time>2026-04-22T15:10:03Z</time></trkpt><trkpt lat="43.74531755809947" lon="6.7515043194311435"><ele>1107.0</ele><time>2026-04-22T15:10:04Z</time></trkpt><trkpt lat="43.745471894034694" lon="6.751509860203853"><ele>1110.0</ele><time>2026-04-22T15:10:05Z</time></trkpt><trkpt lat="43.74563218325205" lon="6.751509134734572"><ele>1113.0</ele><time>2026-04-22T15:10:06Z</time></trkpt><trkpt lat="43.745781293995044" lon="6.751509501376576"><ele>1113.0</ele><time>2026-04-22T15:10:07Z</time></trkpt><trkpt lat="43.74592290727649" lon="6.751501170902481"><ele>1113.0</ele><time>2026-04-22T15:10:08Z</time></trkpt><trkpt lat="43.74605388270802" lon="6.751485415803846"><ele>1113.0</ele><time>2026-04-22T15:10:09Z</time></trkpt><trkpt lat="43.746166281482054" lon="6.751453819738139"><ele>1113.0</ele><time>2026-04-22T15:10:10Z</time></trkpt><trkpt lat="43.746267844931694" lon="6.751421077335327"><ele>1112.6</ele><time>2026-04-22T15:10:11Z</time></trkpt><trkpt lat="43.746361226660085" lon="6.751376149775595"><ele>1112.1999999999998</ele><time>2026-04-22T15:10:12Z</time></trkpt><trkpt lat="43.7464380794748" lon="6.751315519063946"><ele>1111.8</ele><time>2026-04-22T15:10:13Z</time></trkpt><trkpt lat="43.7465082372709" lon="6.751151117278254"><ele>1111.3999999999999</ele><time>2026-04-22T15:10:14Z</time></trkpt><trkpt lat="43.74657135051196" lon="6.7510383936366605"><ele>1111.0</ele><time>2026-04-22T15:10:15Z</time></trkpt><trkpt lat="43.746621095385414" lon="6.750909290965"><ele>1111.0</ele><time>2026-04-22T15:10:16Z</time></trkpt><trkpt lat="43.74665063843563" lon="6.750764215431228"><ele>1111.0</ele><time>2026-04-22T15:10:17Z</time></trkpt><trkpt lat="43.74668550314217" lon="6.750618862135244"><ele>1111.0</ele><time>2026-04-22T15:10:18Z</time></trkpt><trkpt lat="43.74667336620352" lon="6.750458406722546"><ele>1111.0</ele><time>2026-04-22T15:10:19Z</time></trkpt><trkpt lat="43.746659418931635" lon="6.750297923710381"><ele>1112.75</ele><time>2026-04-22T15:10:20Z</time></trkpt><trkpt lat="43.74662310601041" lon="6.750136518814206"><ele>1114.5</ele><time>2026-04-22T15:10:21Z</time></trkpt><trkpt lat="43.746564849712215" lon="6.749976854507729"><ele>1116.25</ele><time>2026-04-22T15:10:22Z</time></trkpt><trkpt lat="43.74649173873843" lon="6.749816239762276"><ele>1118.0</ele><time>2026-04-22T15:10:22.999Z</time></trkpt><trkpt lat="43.74640926152029" lon="6.7496519325262145"><ele>1118.0</ele><time>2026-04-22T15:10:23.999Z</time></trkpt><trkpt lat="43.746320327463984" lon="6.749473060019706"><ele>1118.0</ele><time>2026-04-22T15:10:24.999Z</time></trkpt><trkpt lat="43.74623339950933" lon="6.749290709466742"><ele>1118.0</ele><time>2026-04-22T15:10:25.999Z</time></trkpt><trkpt lat="43.7461513709483" lon="6.749126898076104"><ele>1117.0</ele><time>2026-04-22T15:10:26.999Z</time></trkpt><trkpt lat="43.746069183881474" lon="6.74896087015957"><ele>1116.0</ele><time>2026-04-22T15:10:27.999Z</time></trkpt><trkpt lat="43.746001185073354" lon="6.74880875974204"><ele>1115.0</ele><time>2026-04-22T15:10:28.999Z</time></trkpt><trkpt lat="43.74594473541651" lon="6.748665924051558"><ele>1114.0</ele><time>2026-04-22T15:10:29.999Z</time></trkpt><trkpt lat="43.74590244743027" lon="6.748511092248922"><ele>1114.0</ele><time>2026-04-22T15:10:30.999Z</time></trkpt><trkpt lat="43.74587735651878" lon="6.748343608428886"><ele>1114.0</ele><time>2026-04-22T15:10:31.999Z</time></trkpt><trkpt lat="43.74586656672711" lon="6.748166263540898"><ele>1114.0</ele><time>2026-04-22T15:10:32.999Z</time></trkpt><trkpt lat="43.745868336315176" lon="6.747984262672646"><ele>1114.0</ele><time>2026-04-22T15:10:33.999Z</time></trkpt><trkpt lat="43.74588570052449" lon="6.747795745779827"><ele>1114.3333333333333</ele><time>2026-04-22T15:10:34.999Z</time></trkpt><trkpt lat="43.74591124491185" lon="6.747599202836545"><ele>1114.6666666666667</ele><time>2026-04-22T15:10:35.999Z</time></trkpt><trkpt lat="43.74593580903518" lon="6.747389380216109"><ele>1115.0</ele><time>2026-04-22T15:10:36.999Z</time></trkpt><trkpt lat="43.745957271811356" lon="6.747172525840517"><ele>1115.0</ele><time>2026-04-22T15:10:37.999Z</time></trkpt><trkpt lat="43.74597340751543" lon="6.746951101468212"><ele>1115.0</ele><time>2026-04-22T15:10:38.999Z</time></trkpt><trkpt lat="43.7459804063254" lon="6.746749236814287"><ele>1115.0</ele><time>2026-04-22T15:10:39.999Z</time></trkpt><trkpt lat="43.745971833810366" lon="6.746542200223837"><ele>1116.0</ele><time>2026-04-22T15:10:40.999Z</time></trkpt><trkpt lat="43.745945270020194" lon="6.746336592753229"><ele>1117.0</ele><time>2026-04-22T15:10:41.999Z</time></trkpt><trkpt lat="43.74589988929557" lon="6.746135638352329"><ele>1118.0</ele><time>2026-04-22T15:10:42.999Z</time></trkpt><trkpt lat="43.745839509070784" lon="6.745933454142538"><ele>1122.0</ele><time>2026-04-22T15:10:43.999Z</time></trkpt><trkpt lat="43.74576799636211" lon="6.745725023669106"><ele>1126.0</ele><time>2026-04-22T15:10:44.999Z</time></trkpt><trkpt lat="43.74569191072862" lon="6.745513275028957"><ele>1130.0</ele><time>2026-04-22T15:10:45.999Z</time></trkpt><trkpt lat="43.74561310749678" lon="6.745297992354484"><ele>1132.75</ele><time>2026-04-22T15:10:46.999Z</time></trkpt><trkpt lat="43.74554379408741" lon="6.745097128632656"><ele>1135.5</ele><time>2026-04-22T15:10:47.999Z</time></trkpt><trkpt lat="43.74547787217159" lon="6.74491110637898"><ele>1138.25</ele><time>2026-04-22T15:10:48.999Z</time></trkpt><trkpt lat="43.74541902444229" lon="6.744742318997769"><ele>1141.0</ele><time>2026-04-22T15:10:49.999Z</time></trkpt><trkpt lat="43.74537007960918" lon="6.744580312480846"><ele>1141.0</ele><time>2026-04-22T15:10:50.999Z</time></trkpt><trkpt lat="43.74533345192851" lon="6.744418433129813"><ele>1141.0</ele><time>2026-04-22T15:10:51.999Z</time></trkpt><trkpt lat="43.74531311386485" lon="6.744260344538721"><ele>1141.0</ele><time>2026-04-22T15:10:52.999Z</time></trkpt><trkpt lat="43.74531113163837" lon="6.744103240669356"><ele>1141.0</ele><time>2026-04-22T15:10:53.999Z</time></trkpt><trkpt lat="43.745322925027644" lon="6.743943017209415"><ele>1179.0</ele><time>2026-04-22T15:10:54.999Z</time></trkpt><trkpt lat="43.75139507208091" lon="6.735241938124104"><ele>1177.3333333333333</ele><time>2026-04-22T15:11:56Z</time></trkpt><trkpt lat="43.75142949790515" lon="6.735032079378799"><ele>1175.6666666666665</ele><time>2026-04-22T15:11:57Z</time></trkpt><trkpt lat="43.75145681610744" lon="6.734809986064349"><ele>1174.0</ele><time>2026-04-22T15:11:58Z</time></trkpt><trkpt lat="43.751482577780166" lon="6.734581286062794"><ele>1173.6666666666665</ele><time>2026-04-22T15:11:59Z</time></trkpt><trkpt lat="43.75150636348577" lon="6.734350288422907"><ele>1173.3333333333333</ele><time>2026-04-22T15:12:00Z</time></trkpt><trkpt lat="43.75152929422488" lon="6.734130357403725"><ele>1173.0</ele><time>2026-04-22T15:12:01Z</time></trkpt><trkpt lat="43.75155232988819" lon="6.733918719183478"><ele>1173.0</ele><time>2026-04-22T15:12:02Z</time></trkpt><trkpt lat="43.75156736823864" lon="6.733723720858712"><ele>1173.0</ele><time>2026-04-22T15:12:03Z</time></trkpt><trkpt lat="43.751575210072566" lon="6.733528600830353"><ele>1173.0</ele><time>2026-04-22T15:12:04Z</time></trkpt><trkpt lat="43.75156762770902" lon="6.733331909289778"><ele>1173.0</ele><time>2026-04-22T15:12:05Z</time></trkpt><trkpt lat="43.751544156317856" lon="6.733132608995748"><ele>1173.0</ele><time>2026-04-22T15:12:06Z</time></trkpt><trkpt lat="43.75150417211172" lon="6.73292694675558"><ele>1173.0</ele><time>2026-04-22T15:12:07Z</time></trkpt><trkpt lat="43.751457634178706" lon="6.732720576662375"><ele>1173.0</ele><time>2026-04-22T15:12:08Z</time></trkpt><trkpt lat="43.75140981333469" lon="6.732511491797599"><ele>1175.0</ele><time>2026-04-22T15:12:09Z</time></trkpt><trkpt lat="43.75136109004857" lon="6.732303838133266"><ele>1177.0</ele><time>2026-04-22T15:12:10Z</time></trkpt><trkpt lat="43.75130970035136" lon="6.732095596778071"><ele>1179.0</ele><time>2026-04-22T15:12:11Z</time></trkpt><trkpt lat="43.75125906788214" lon="6.731885031333478"><ele>1184.3333333333333</ele><time>2026-04-22T15:12:12Z</time></trkpt><trkpt lat="43.75120719419878" lon="6.731668408016518"><ele>1189.6666666666665</ele><time>2026-04-22T15:12:13Z</time></trkpt><trkpt lat="43.7511561605917" lon="6.73146246715064"><ele>1195.0</ele><time>2026-04-22T15:12:14Z</time></trkpt><trkpt lat="43.75111097968456" lon="6.731271987195452"><ele>1195.0</ele><time>2026-04-22T15:12:15Z</time></trkpt><trkpt lat="43.75107104130381" lon="6.731091538114841"><ele>1195.0</ele><time>2026-04-22T15:12:16Z</time></trkpt><trkpt lat="43.75103556060605" lon="6.730925731843577"><ele>1195.0</ele><time>2026-04-22T15:12:17Z</time></trkpt><trkpt lat="43.75100460314405" lon="6.730764862039265"><ele>1195.0</ele><time>2026-04-22T15:12:18Z</time></trkpt><trkpt lat="43.750981289290586" lon="6.730604780635848"><ele>1195.25</ele><time>2026-04-22T15:12:19Z</time></trkpt><trkpt lat="43.750973103944744" lon="6.730450134175224"><ele>1195.5</ele><time>2026-04-22T15:12:20Z</time></trkpt><trkpt lat="43.75098273463552" lon="6.730302596619586"><ele>1195.75</ele><time>2026-04-22T15:12:21Z</time></trkpt><trkpt lat="43.75100831087806" lon="6.730152426341538"><ele>1196.0</ele><time>2026-04-22T15:12:22Z</time></trkpt><trkpt lat="43.75105427394116" lon="6.729996212431778"><ele>1196.0</ele><time>2026-04-22T15:12:23Z</time></trkpt><trkpt lat="43.751115844117905" lon="6.7298369597760725"><ele>1196.0</ele><time>2026-04-22T15:12:24Z</time></trkpt><trkpt lat="43.75114800141332" lon="6.72966875019339"><ele>1196.0</ele><time>2026-04-22T15:12:25Z</time></trkpt><trkpt lat="43.75120622739874" lon="6.729492421015375"><ele>1196.0</ele><time>2026-04-22T15:12:26Z</time></trkpt><trkpt lat="43.75126834089967" lon="6.7293285843840795"><ele>1193.25</ele><time>2026-04-22T15:12:27Z</time></trkpt><trkpt lat="43.75133734833617" lon="6.729166816267687"><ele>1190.5</ele><time>2026-04-22T15:12:28Z</time></trkpt><trkpt lat="43.75142197740035" lon="6.7290093700024975"><ele>1187.75</ele><time>2026-04-22T15:12:29Z</time></trkpt><trkpt lat="43.75153021431042" lon="6.728860400302037"><ele>1185.0</ele><time>2026-04-22T15:12:30Z</time></trkpt><trkpt lat="43.7516446386502" lon="6.728705771639216"><ele>1182.0</ele><time>2026-04-22T15:12:31Z</time></trkpt><trkpt lat="43.75176194255377" lon="6.72855280479523"><ele>1179.0</ele><time>2026-04-22T15:12:32Z</time></trkpt><trkpt lat="43.75187196614288" lon="6.728401664128182"><ele>1176.0</ele><time>2026-04-22T15:12:32.999Z</time></trkpt><trkpt lat="43.75197857980858" lon="6.728239203347842"><ele>1176.6666666666667</ele><time>2026-04-22T15:12:33.999Z</time></trkpt><trkpt lat="43.752084825750174" lon="6.728061670720548"><ele>1177.3333333333335</ele><time>2026-04-22T15:12:34.999Z</time></trkpt><trkpt lat="43.75219004871171" lon="6.7278730074519615"><ele>1178.0</ele><time>2026-04-22T15:12:35.999Z</time></trkpt><trkpt lat="43.75229646709083" lon="6.727668545082898"><ele>1178.0</ele><time>2026-04-22T15:12:36.999Z</time></trkpt><trkpt lat="43.75240566058009" lon="6.727452884594328"><ele>1178.0</ele><time>2026-04-22T15:12:37.999Z</time></trkpt><trkpt lat="43.75250741656518" lon="6.727245195909173"><ele>1178.0</ele><time>2026-04-22T15:12:38.999Z</time></trkpt><trkpt lat="43.7526049798667" lon="6.727041747891055"><ele>1182.0</ele><time>2026-04-22T15:12:39.999Z</time></trkpt><trkpt lat="43.75270064084034" lon="6.726834877968324"><ele>1186.0</ele><time>2026-04-22T15:12:40.999Z</time></trkpt><trkpt lat="43.75279566213102" lon="6.726630446887901"><ele>1190.0</ele><time>2026-04-22T15:12:41.999Z</time></trkpt><trkpt lat="43.7528888691307" lon="6.72642951065995"><ele>1190.0</ele><time>2026-04-22T15:12:42.999Z</time></trkpt><trkpt lat="43.75298013700452" lon="6.726235168231767"><ele>1190.0</ele><time>2026-04-22T15:12:43.999Z</time></trkpt><trkpt lat="43.75307210754785" lon="6.726049201618551"><ele>1190.0</ele><time>2026-04-22T15:12:44.999Z</time></trkpt><trkpt lat="43.753163200130096" lon="6.725862602602185"><ele>1183.6666666666667</ele><time>2026-04-22T15:12:45.999Z</time></trkpt><trkpt lat="43.753254258306626" lon="6.72567258535986"><ele>1177.3333333333333</ele><time>2026-04-22T15:12:46.999Z</time></trkpt><trkpt lat="43.753345060320605" lon="6.725483522399522"><ele>1171.0</ele><time>2026-04-22T15:12:47.999Z</time></trkpt><trkpt lat="43.75343529660471" lon="6.725303411659065"><ele>1173.3333333333333</ele><time>2026-04-22T15:12:48.999Z</time></trkpt><trkpt lat="43.753527373218745" lon="6.725130190406785"><ele>1175.6666666666667</ele><time>2026-04-22T15:12:49.999Z</time></trkpt><trkpt lat="43.7536237978679" lon="6.724962596780027"><ele>1178.0</ele><time>2026-04-22T15:12:50.999Z</time></trkpt><trkpt lat="43.75372831084744" lon="6.724806470636952"><ele>1178.0</ele><time>2026-04-22T15:12:51.999Z</time></trkpt><trkpt lat="43.753831022368935" lon="6.724656799047625"><ele>1178.0</ele><time>2026-04-22T15:12:52.999Z</time></trkpt><trkpt lat="43.753932662833996" lon="6.724511953949944"><ele>1178.0</ele><time>2026-04-22T15:12:53.999Z</time></trkpt><trkpt lat="43.75402825508071" lon="6.72436958750175"><ele>1178.0</ele><time>2026-04-22T15:12:54.999Z</time></trkpt><trkpt lat="43.75897413402184" lon="6.712631536489535"><ele>1163.0</ele><time>2026-04-22T15:13:56Z</time></trkpt><trkpt lat="43.759118723490666" lon="6.712473815388449"><ele>1148.0</ele><time>2026-04-22T15:13:57Z</time></trkpt><trkpt lat="43.75927281837055" lon="6.712335964897041"><ele>1133.0</ele><time>2026-04-22T15:13:58Z</time></trkpt><trkpt lat="43.75941189961672" lon="6.712183888233679"><ele>1133.0</ele><time>2026-04-22T15:13:59Z</time></trkpt><trkpt lat="43.75952846755845" lon="6.712016487982175"><ele>1133.0</ele><time>2026-04-22T15:14:00Z</time></trkpt><trkpt lat="43.75963686257571" lon="6.711880133718329"><ele>1133.0</ele><time>2026-04-22T15:14:01Z</time></trkpt><trkpt lat="43.75973158460232" lon="6.71173756119149"><ele>1127.6666666666667</ele><time>2026-04-22T15:14:02Z</time></trkpt><trkpt lat="43.75981362326042" lon="6.7115727149431725"><ele>1122.3333333333333</ele><time>2026-04-22T15:14:03Z</time></trkpt><trkpt lat="43.759889823254184" lon="6.711388840841135"><ele>1117.0</ele><time>2026-04-22T15:14:04Z</time></trkpt><trkpt lat="43.75996799782035" lon="6.711189822045205"><ele>1118.3333333333333</ele><time>2026-04-22T15:14:05Z</time></trkpt><trkpt lat="43.760047976192375" lon="6.7109806725251016"><ele>1119.6666666666667</ele><time>2026-04-22T15:14:06Z</time></trkpt><trkpt lat="43.7601292839949" lon="6.710767703385908"><ele>1121.0</ele><time>2026-04-22T15:14:07Z</time></trkpt><trkpt lat="43.76021225888534" lon="6.71056408969469"><ele>1121.0</ele><time>2026-04-22T15:14:08Z</time></trkpt><trkpt lat="43.76029723937195" lon="6.71038075232173"><ele>1121.0</ele><time>2026-04-22T15:14:09Z</time></trkpt><trkpt lat="43.76039041818675" lon="6.7102123751611185"><ele>1121.0</ele><time>2026-04-22T15:14:10Z</time></trkpt><trkpt lat="43.76048589692559" lon="6.710044988148645"><ele>1119.3333333333335</ele><time>2026-04-22T15:14:11Z</time></trkpt><trkpt lat="43.76058200256042" lon="6.7098743996918735"><ele>1117.6666666666667</ele><time>2026-04-22T15:14:12Z</time></trkpt><trkpt lat="43.760677016063156" lon="6.70970857121693"><ele>1116.0</ele><time>2026-04-22T15:14:13Z</time></trkpt><trkpt lat="43.76076907135093" lon="6.7095553941027415"><ele>1116.0</ele><time>2026-04-22T15:14:14Z</time></trkpt><trkpt lat="43.76086101956734" lon="6.709422981875057"><ele>1116.0</ele><time>2026-04-22T15:14:15Z</time></trkpt><trkpt lat="43.76095856990233" lon="6.709312134348043"><ele>1116.0</ele><time>2026-04-22T15:14:16Z</time></trkpt><trkpt lat="43.7610611658751" lon="6.709218288412707"><ele>1116.0</ele><time>2026-04-22T15:14:17Z</time></trkpt><trkpt lat="43.76116960253266" lon="6.709141301473166"><ele>1113.75</ele><time>2026-04-22T15:14:18Z</time></trkpt><trkpt lat="43.76128547061466" lon="6.709081175279573"><ele>1111.5</ele><time>2026-04-22T15:14:19Z</time></trkpt><trkpt lat="43.761411638678496" lon="6.7090326632133825"><ele>1109.25</ele><time>2026-04-22T15:14:20Z</time></trkpt><trkpt lat="43.76154768767921" lon="6.709000302152076"><ele>1107.0</ele><time>2026-04-22T15:14:21Z</time></trkpt><trkpt lat="43.76168704395099" lon="6.708987522678239"><ele>1107.0</ele><time>2026-04-22T15:14:22Z</time></trkpt><trkpt lat="43.761828231204255" lon="6.708996461501042"><ele>1107.0</ele><time>2026-04-22T15:14:23Z</time></trkpt><trkpt lat="43.76196023904689" lon="6.709026116291109"><ele>1107.0</ele><time>2026-04-22T15:14:24Z</time></trkpt><trkpt lat="43.76208818651136" lon="6.709085933847014"><ele>1107.0</ele><time>2026-04-22T15:14:25Z</time></trkpt><trkpt lat="43.76221015128059" lon="6.709170882440012"><ele>1106.5</ele><time>2026-04-22T15:14:26Z</time></trkpt><trkpt lat="43.76231845488755" lon="6.709284172200368"><ele>1106.0</ele><time>2026-04-22T15:14:27Z</time></trkpt><trkpt lat="43.76242473661568" lon="6.709404527035304"><ele>1105.5</ele><time>2026-04-22T15:14:28Z</time></trkpt><trkpt lat="43.762523782354386" lon="6.70954346609249"><ele>1105.0</ele><time>2026-04-22T15:14:29Z</time></trkpt><trkpt lat="43.76262083172953" lon="6.709700046113793"><ele>1105.0</ele><time>2026-04-22T15:14:30Z</time></trkpt><trkpt lat="43.76272107975372" lon="6.7098702885497294"><ele>1105.0</ele><time>2026-04-22T15:14:31Z</time></trkpt><trkpt lat="43.76281992857111" lon="6.710046679425561"><ele>1105.0</ele><time>2026-04-22T15:14:32Z</time></trkpt><trkpt lat="43.76290988755127" lon="6.710215894917721"><ele>1103.0</ele><time>2026-04-22T15:14:33Z</time></trkpt><trkpt lat="43.76299965682339" lon="6.710381171417294"><ele>1101.0</ele><time>2026-04-22T15:14:34Z</time></trkpt><trkpt lat="43.76309539297401" lon="6.710546084729773"><ele>1099.0</ele><time>2026-04-22T15:14:35Z</time></trkpt><trkpt lat="43.76319427854944" lon="6.710706710540448"><ele>1099.0</ele><time>2026-04-22T15:14:36Z</time></trkpt><trkpt lat="43.763296761513466" lon="6.710851867255235"><ele>1099.0</ele><time>2026-04-22T15:14:37Z</time></trkpt><trkpt lat="43.76340555206451" lon="6.710978170428715"><ele>1099.0</ele><time>2026-04-22T15:14:38Z</time></trkpt><trkpt lat="43.763525173005675" lon="6.7110947697609"><ele>1099.0</ele><time>2026-04-22T15:14:38.999Z</time></trkpt><trkpt lat="43.763655625751355" lon="6.711205958648908"><ele>1098.6666666666665</ele><time>2026-04-22T15:14:39.999Z</time></trkpt><trkpt lat="43.76379141779828" lon="6.711311888314892"><ele>1098.3333333333333</ele><time>2026-04-22T15:14:40.999Z</time></trkpt><trkpt lat="43.76393185757959" lon="6.711417938952178"><ele>1098.0</ele><time>2026-04-22T15:14:41.999Z</time></trkpt><trkpt lat="43.7640766552653" lon="6.711527204186944"><ele>1098.0</ele><time>2026-04-22T15:14:42.999Z</time></trkpt><trkpt lat="43.76422405771776" lon="6.711639958332719"><ele>1098.0</ele><time>2026-04-22T15:14:43.999Z</time></trkpt><trkpt lat="43.76437344131325" lon="6.7117558909217365"><ele>1098.0</ele><time>2026-04-22T15:14:44.999Z</time></trkpt><trkpt lat="43.76453095357759" lon="6.711877721166261"><ele>1097.3333333333333</ele><time>2026-04-22T15:14:45.999Z</time></trkpt><trkpt lat="43.764692701752004" lon="6.712002117976482"><ele>1096.6666666666665</ele><time>2026-04-22T15:14:46.999Z</time></trkpt><trkpt lat="43.76484894871567" lon="6.712120610204077"><ele>1096.0</ele><time>2026-04-22T15:14:47.999Z</time></trkpt><trkpt lat="43.764994220619656" lon="6.712228379623481"><ele>1096.0</ele><time>2026-04-22T15:14:48.999Z</time></trkpt><trkpt lat="43.765127059773135" lon="6.71232343845412"><ele>1096.0</ele><time>2026-04-22T15:14:49.999Z</time></trkpt><trkpt lat="43.76525284827218" lon="6.712404464747391"><ele>1096.0</ele><time>2026-04-22T15:14:50.999Z</time></trkpt><trkpt lat="43.76538116383018" lon="6.712467835085859"><ele>1096.0</ele><time>2026-04-22T15:14:51.999Z</time></trkpt><trkpt lat="43.76551291387084" lon="6.71251308927604"><ele>1095.6666666666665</ele><time>2026-04-22T15:14:52.999Z</time></trkpt><trkpt lat="43.76564752436513" lon="6.712532860548991"><ele>1095.3333333333333</ele><time>2026-04-22T15:14:53.999Z</time></trkpt><trkpt lat="43.765786483183376" lon="6.712543327504151"><ele>1095.0</ele><time>2026-04-22T15:14:54.999Z</time></trkpt><trkpt lat="43.77146807498113" lon="6.70113881430258"><ele>1093.3333333333333</ele><time>2026-04-22T15:15:56Z</time></trkpt><trkpt lat="43.77151246044181" lon="6.700902939689723"><ele>1091.6666666666665</ele><time>2026-04-22T15:15:57Z</time></trkpt><trkpt lat="43.77155215801983" lon="6.700668322042556"><ele>1090.0</ele><time>2026-04-22T15:15:58Z</time></trkpt><trkpt lat="43.77159373827492" lon="6.7004363701459955"><ele>1089.3333333333333</ele><time>2026-04-22T15:15:59Z</time></trkpt><trkpt lat="43.77163785814161" lon="6.700201852083578"><ele>1088.6666666666667</ele><time>2026-04-22T15:16:00Z</time></trkpt><trkpt lat="43.7716812445079" lon="6.699968033415294"><ele>1088.0</ele><time>2026-04-22T15:16:01Z</time></trkpt><trkpt lat="43.77172109221374" lon="6.69973064896635"><ele>1088.0</ele><time>2026-04-22T15:16:02Z</time></trkpt><trkpt lat="43.77176416346563" lon="6.699495819779335"><ele>1088.0</ele><time>2026-04-22T15:16:03Z</time></trkpt><trkpt lat="43.77180700776849" lon="6.699259626189156"><ele>1088.0</ele><time>2026-04-22T15:16:04Z</time></trkpt><trkpt lat="43.77185146585959" lon="6.699014757441487"><ele>1087.6666666666667</ele><time>2026-04-22T15:16:05Z</time></trkpt><trkpt lat="43.77189710971635" lon="6.6987663395040515"><ele>1087.3333333333333</ele><time>2026-04-22T15:16:06Z</time></trkpt><trkpt lat="43.771943719966586" lon="6.698513371116541"><ele>1087.0</ele><time>2026-04-22T15:16:07Z</time></trkpt><trkpt lat="43.77198951502599" lon="6.69826088060565"><ele>1087.0</ele><time>2026-04-22T15:16:08Z</time></trkpt><trkpt lat="43.77203543503463" lon="6.69801486178111"><ele>1087.0</ele><time>2026-04-22T15:16:09Z</time></trkpt><trkpt lat="43.77207931108699" lon="6.697775557393721"><ele>1087.0</ele><time>2026-04-22T15:16:10Z</time></trkpt><trkpt lat="43.77212075133091" lon="6.697550704637557"><ele>1087.0</ele><time>2026-04-22T15:16:11Z</time></trkpt><trkpt lat="43.77216259937145" lon="6.697333684575921"><ele>1087.0</ele><time>2026-04-22T15:16:12Z</time></trkpt><trkpt lat="43.772203422743395" lon="6.697115794304587"><ele>1087.0</ele><time>2026-04-22T15:16:13Z</time></trkpt><trkpt lat="43.77223102389526" lon="6.696898425725309"><ele>1086.0</ele><time>2026-04-22T15:16:14Z</time></trkpt><trkpt lat="43.77225277930242" lon="6.696677011831058"><ele>1085.0</ele><time>2026-04-22T15:16:15Z</time></trkpt><trkpt lat="43.772264880236925" lon="6.696452088950431"><ele>1084.0</ele><time>2026-04-22T15:16:16Z</time></trkpt><trkpt lat="43.77226912671158" lon="6.6962207874979915"><ele>1084.0</ele><time>2026-04-22T15:16:17Z</time></trkpt><trkpt lat="43.77227389767603" lon="6.695988727485029"><ele>1084.0</ele><time>2026-04-22T15:16:18Z</time></trkpt><trkpt lat="43.77227693825327" lon="6.6957659967483565"><ele>1084.0</ele><time>2026-04-22T15:16:19Z</time></trkpt><trkpt lat="43.77227517081919" lon="6.695553591684096"><ele>1084.0</ele><time>2026-04-22T15:16:20Z</time></trkpt><trkpt lat="43.77227409420428" lon="6.695351995837049"><ele>1084.0</ele><time>2026-04-22T15:16:21Z</time></trkpt><trkpt lat="43.77227321035768" lon="6.695150762625556"><ele>1084.0</ele><time>2026-04-22T15:16:22Z</time></trkpt><trkpt lat="43.77227311682548" lon="6.694943812464802"><ele>1084.0</ele><time>2026-04-22T15:16:23Z</time></trkpt><trkpt lat="43.77227448049132" lon="6.694725753068338"><ele>1083.0</ele><time>2026-04-22T15:16:24Z</time></trkpt><trkpt lat="43.77227725549288" lon="6.6945034669993015"><ele>1082.0</ele><time>2026-04-22T15:16:25Z</time></trkpt><trkpt lat="43.77228204099797" lon="6.6942790697815955"><ele>1081.0</ele><time>2026-04-22T15:16:26Z</time></trkpt><trkpt lat="43.77228326021296" lon="6.694051516678943"><ele>1081.0</ele><time>2026-04-22T15:16:27Z</time></trkpt><trkpt lat="43.77228348904707" lon="6.693827581904779"><ele>1081.0</ele><time>2026-04-22T15:16:28Z</time></trkpt><trkpt lat="43.77228113070645" lon="6.693600675808723"><ele>1081.0</ele><time>2026-04-22T15:16:29Z</time></trkpt><trkpt lat="43.77227972022255" lon="6.69337243195621"><ele>1080.3333333333333</ele><time>2026-04-22T15:16:30Z</time></trkpt><trkpt lat="43.77228118254623" lon="6.693147702327513"><ele>1079.6666666666667</ele><time>2026-04-22T15:16:31Z</time></trkpt><trkpt lat="43.77228389094053" lon="6.692921798727316"><ele>1079.0</ele><time>2026-04-22T15:16:32Z</time></trkpt><trkpt lat="43.77228360837771" lon="6.6927057309511495"><ele>1078.0</ele><time>2026-04-22T15:16:33Z</time></trkpt><trkpt lat="43.77228163432651" lon="6.692489760143583"><ele>1077.0</ele><time>2026-04-22T15:16:34Z</time></trkpt><trkpt lat="43.77228154097553" lon="6.692285078097311"><ele>1076.0</ele><time>2026-04-22T15:16:35Z</time></trkpt><trkpt lat="43.77227663421805" lon="6.69208656718907"><ele>1075.0</ele><time>2026-04-22T15:16:36Z</time></trkpt><trkpt lat="43.772264084070976" lon="6.691892782133324"><ele>1074.0</ele><time>2026-04-22T15:16:37Z</time></trkpt><trkpt lat="43.77224296293899" lon="6.691695136325885"><ele>1073.0</ele><time>2026-04-22T15:16:38Z</time></trkpt><trkpt lat="43.772211471141574" lon="6.691491362621866"><ele>1072.0</ele><time>2026-04-22T15:16:38.999Z</time></trkpt><trkpt lat="43.77216891445419" lon="6.691282683902439"><ele>1072.6666666666665</ele><time>2026-04-22T15:16:39.999Z</time></trkpt><trkpt lat="43.772115744390405" lon="6.691067990198"><ele>1073.3333333333333</ele><time>2026-04-22T15:16:40.999Z</time></trkpt><trkpt lat="43.77204896130351" lon="6.690845533723462"><ele>1074.0</ele><time>2026-04-22T15:16:41.999Z</time></trkpt><trkpt lat="43.771970427197054" lon="6.690619227341309"><ele>1074.0</ele><time>2026-04-22T15:16:42.999Z</time></trkpt><trkpt lat="43.771886123642794" lon="6.690383768506331"><ele>1074.0</ele><time>2026-04-22T15:16:43.999Z</time></trkpt><trkpt lat="43.7717967027628" lon="6.690133425589465"><ele>1074.0</ele><time>2026-04-22T15:16:44.999Z</time></trkpt><trkpt lat="43.7717027997405" lon="6.689871712329214"><ele>1072.0</ele><time>2026-04-22T15:16:45.999Z</time></trkpt><trkpt lat="43.77160439932017" lon="6.689587849476003"><ele>1070.0</ele><time>2026-04-22T15:16:46.999Z</time></trkpt><trkpt lat="43.771497943256044" lon="6.689287059214799"><ele>1068.0</ele><time>2026-04-22T15:16:47.999Z</time></trkpt><trkpt lat="43.771383107753884" lon="6.6889764995577305"><ele>1066.0</ele><time>2026-04-22T15:16:48.999Z</time></trkpt><trkpt lat="43.77126828928073" lon="6.68866932151228"><ele>1065.5</ele><time>2026-04-22T15:16:49.999Z</time></trkpt><trkpt lat="43.77116097141695" lon="6.688377759962782"><ele>1065.0</ele><time>2026-04-22T15:16:50.999Z</time></trkpt><trkpt lat="43.77105699423102" lon="6.688092499032595"><ele>1064.5</ele><time>2026-04-22T15:16:51.999Z</time></trkpt><trkpt lat="43.770956119509655" lon="6.687810148582567"><ele>1064.0</ele><time>2026-04-22T15:16:52.999Z</time></trkpt><trkpt lat="43.77085336476905" lon="6.687527316429122"><ele>1064.0</ele><time>2026-04-22T15:16:53.999Z</time></trkpt><trkpt lat="43.770750497811" lon="6.687241007974268"><ele>1064.0</ele><time>2026-04-22T15:16:54.999Z</time></trkpt><trkpt lat="43.765964374910496" lon="6.672507761064687"><ele>1064.3333333333335</ele><time>2026-04-22T15:17:56Z</time></trkpt><trkpt lat="43.76585059051592" lon="6.672249503579224"><ele>1064.6666666666667</ele><time>2026-04-22T15:17:57Z</time></trkpt><trkpt lat="43.76573989282611" lon="6.671976151647714"><ele>1065.0</ele><time>2026-04-22T15:17:58Z</time></trkpt><trkpt lat="43.7656330556958" lon="6.67168954271509"><ele>1067.5</ele><time>2026-04-22T15:17:59Z</time></trkpt><trkpt lat="43.76552436938524" lon="6.671382038793609"><ele>1070.0</ele><time>2026-04-22T15:18:00Z</time></trkpt><trkpt lat="43.76541639739458" lon="6.671083851972117"><ele>1067.6666666666667</ele><time>2026-04-22T15:18:01Z</time></trkpt><trkpt lat="43.7653124717672" lon="6.670804262020792"><ele>1065.3333333333333</ele><time>2026-04-22T15:18:02Z</time></trkpt><trkpt lat="43.76521708705543" lon="6.670542772641305"><ele>1063.0</ele><time>2026-04-22T15:18:03Z</time></trkpt><trkpt lat="43.76501579155104" lon="6.670538293996795"><ele>1066.0</ele><time>2026-04-22T15:18:04Z</time></trkpt><trkpt lat="43.76503157412608" lon="6.670039361544003"><ele>1069.0</ele><time>2026-04-22T15:18:05Z</time></trkpt><trkpt lat="43.764943640779286" lon="6.669801864258544"><ele>1069.0</ele><time>2026-04-22T15:18:06Z</time></trkpt><trkpt lat="43.76486118022519" lon="6.6695744887556"><ele>1069.0</ele><time>2026-04-22T15:18:07Z</time></trkpt><trkpt lat="43.7647769482618" lon="6.669353716631972"><ele>1069.0</ele><time>2026-04-22T15:18:08Z</time></trkpt><trkpt lat="43.76469795364656" lon="6.669132480353134"><ele>1071.0</ele><time>2026-04-22T15:18:09Z</time></trkpt><trkpt lat="43.76461862849284" lon="6.6689053555822335"><ele>1073.0</ele><time>2026-04-22T15:18:10Z</time></trkpt><trkpt lat="43.764542094008874" lon="6.668672295669848"><ele>1075.0</ele><time>2026-04-22T15:18:11Z</time></trkpt><trkpt lat="43.764468825370365" lon="6.668428569711071"><ele>1071.6666666666665</ele><time>2026-04-22T15:18:12Z</time></trkpt><trkpt lat="43.76440021276372" lon="6.6681755725474"><ele>1068.3333333333333</ele><time>2026-04-22T15:18:13Z</time></trkpt><trkpt lat="43.764337632410104" lon="6.667912931851786"><ele>1065.0</ele><time>2026-04-22T15:18:14Z</time></trkpt><trkpt lat="43.764270468638294" lon="6.667648121433738"><ele>1065.0</ele><time>2026-04-22T15:18:15Z</time></trkpt><trkpt lat="43.764203125373" lon="6.667389026667486"><ele>1065.0</ele><time>2026-04-22T15:18:16Z</time></trkpt><trkpt lat="43.76413423166475" lon="6.6671282865233135"><ele>1065.0</ele><time>2026-04-22T15:18:17Z</time></trkpt><trkpt lat="43.76406806731414" lon="6.666873645336974"><ele>1067.3333333333333</ele><time>2026-04-22T15:18:18Z</time></trkpt><trkpt lat="43.76400159022701" lon="6.666618842023607"><ele>1069.6666666666665</ele><time>2026-04-22T15:18:19Z</time></trkpt><trkpt lat="43.763942267630746" lon="6.666367730708325"><ele>1072.0</ele><time>2026-04-22T15:18:20Z</time></trkpt><trkpt lat="43.76389070655316" lon="6.66611213709048"><ele>1074.3333333333333</ele><time>2026-04-22T15:18:21Z</time></trkpt><trkpt lat="43.763842229277415" lon="6.665851770020379"><ele>1076.6666666666667</ele><time>2026-04-22T15:18:22Z</time></trkpt><trkpt lat="43.76380308667673" lon="6.665587707552453"><ele>1079.0</ele><time>2026-04-22T15:18:23Z</time></trkpt><trkpt lat="43.76376656423558" lon="6.665331328353364"><ele>1081.6666666666667</ele><time>2026-04-22T15:18:24Z</time></trkpt><trkpt lat="43.76372235702709" lon="6.665076658281776"><ele>1084.3333333333333</ele><time>2026-04-22T15:18:25Z</time></trkpt><trkpt lat="43.76367044372071" lon="6.664825703600009"><ele>1087.0</ele><time>2026-04-22T15:18:26Z</time></trkpt><trkpt lat="43.763608275889915" lon="6.664579244042872"><ele>1091.3333333333333</ele><time>2026-04-22T15:18:27Z</time></trkpt><trkpt lat="43.76353860546938" lon="6.664335810253586"><ele>1095.6666666666667</ele><time>2026-04-22T15:18:28Z</time></trkpt><trkpt lat="43.7634573360086" lon="6.664092833885587"><ele>1100.0</ele><time>2026-04-22T15:18:29Z</time></trkpt><trkpt lat="43.76336601639782" lon="6.663850463948954"><ele>1091.3333333333335</ele><time>2026-04-22T15:18:30Z</time></trkpt><trkpt lat="43.76326963523874" lon="6.663606092287667"><ele>1082.6666666666667</ele><time>2026-04-22T15:18:31Z</time></trkpt><trkpt lat="43.763174445556146" lon="6.663361134714193"><ele>1074.0</ele><time>2026-04-22T15:18:32Z</time></trkpt><trkpt lat="43.7630846460404" lon="6.663132802754231"><ele>1074.0</ele><time>2026-04-22T15:18:33Z</time></trkpt><trkpt lat="43.76299570069788" lon="6.662912011322703"><ele>1074.0</ele><time>2026-04-22T15:18:34Z</time></trkpt><trkpt lat="43.76291064677536" lon="6.662698843419945"><ele>1074.0</ele><time>2026-04-22T15:18:35Z</time></trkpt><trkpt lat="43.762830814967515" lon="6.662491479156531"><ele>1070.3333333333333</ele><time>2026-04-22T15:18:36Z</time></trkpt><trkpt lat="43.76275684300634" lon="6.6622874535319445"><ele>1066.6666666666665</ele><time>2026-04-22T15:18:37Z</time></trkpt><trkpt lat="43.76268876497559" lon="6.662081758367697"><ele>1063.0</ele><time>2026-04-22T15:18:38Z</time></trkpt><trkpt lat="43.76262533130115" lon="6.661874257992043"><ele>1063.0</ele><time>2026-04-22T15:18:39Z</time></trkpt><trkpt lat="43.762570385427054" lon="6.661659914371541"><ele>1063.0</ele><time>2026-04-22T15:18:40Z</time></trkpt><trkpt lat="43.76252518994033" lon="6.661431993421323"><ele>1063.0</ele><time>2026-04-22T15:18:41Z</time></trkpt><trkpt lat="43.76249468163614" lon="6.661197390507371"><ele>1063.6666666666665</ele><time>2026-04-22T15:18:42Z</time></trkpt><trkpt lat="43.762425914166364" lon="6.660948640411564"><ele>1064.3333333333333</ele><time>2026-04-22T15:18:43Z</time></trkpt><trkpt lat="43.76238748496999" lon="6.660718717075859"><ele>1065.0</ele><time>2026-04-22T15:18:44Z</time></trkpt><trkpt lat="43.7623501508031" lon="6.660495157552344"><ele>1065.0</ele><time>2026-04-22T15:18:45Z</time></trkpt><trkpt lat="43.76231512111411" lon="6.660283216225008"><ele>1065.0</ele><time>2026-04-22T15:18:46Z</time></trkpt><trkpt lat="43.762286054712256" lon="6.660083136506252"><ele>1065.0</ele><time>2026-04-22T15:18:47Z</time></trkpt><trkpt lat="43.76226353605124" lon="6.659889845387006"><ele>1065.0</ele><time>2026-04-22T15:18:48Z</time></trkpt><trkpt lat="43.76224588977502" lon="6.659691710065589"><ele>1065.0</ele><time>2026-04-22T15:18:49Z</time></trkpt><trkpt lat="43.76223977611684" lon="6.659492169243089"><ele>1065.0</ele><time>2026-04-22T15:18:50Z</time></trkpt><trkpt lat="43.76224271002962" lon="6.659295107151599"><ele>1065.0</ele><time>2026-04-22T15:18:50.999Z</time></trkpt><trkpt lat="43.76225907616211" lon="6.6591002447694425"><ele>1065.0</ele><time>2026-04-22T15:18:51.999Z</time></trkpt><trkpt lat="43.7622864579292" lon="6.658906857337447"><ele>1065.0</ele><time>2026-04-22T15:18:52.999Z</time></trkpt><trkpt lat="43.76232494577743" lon="6.65871900371453"><ele>1065.0</ele><time>2026-04-22T15:18:53.999Z</time></trkpt><trkpt lat="43.76236874142988" lon="6.658536293964195"><ele>1065.0</ele><time>2026-04-22T15:18:54.999Z</time></trkpt><trkpt lat="43.76438402069491" lon="6.65567564148663"><ele>1061.0</ele><time>2026-04-22T15:20:27Z</time></trkpt><trkpt lat="43.76440462150109" lon="6.655590809108836"><ele>1057.0</ele><time>2026-04-22T15:27:51.999Z</time></trkpt><trkpt lat="43.764419188900334" lon="6.655477982487988"><ele>1053.0</ele><time>2026-04-22T15:27:54.999Z</time></trkpt><trkpt lat="43.77112316949137" lon="6.647315544782354"><ele>1045.0</ele><time>2026-04-22T15:28:55.999Z</time></trkpt><trkpt lat="43.77131492518841" lon="6.647252614565071"><ele>1037.0</ele><time>2026-04-22T15:28:56.999Z</time></trkpt><trkpt lat="43.7715102077876" lon="6.647189501769526"><ele>1029.0</ele><time>2026-04-22T15:28:57.999Z</time></trkpt><trkpt lat="43.77170777428122" lon="6.647125976611402"><ele>1030.0</ele><time>2026-04-22T15:28:58.999Z</time></trkpt><trkpt lat="43.77190258749383" lon="6.6470591678313955"><ele>1031.0</ele><time>2026-04-22T15:28:59.999Z</time></trkpt><trkpt lat="43.77208112179107" lon="6.64699240835197"><ele>1032.0</ele><time>2026-04-22T15:29:00.999Z</time></trkpt><trkpt lat="43.7722575805489" lon="6.646930608975802"><ele>1031.6666666666667</ele><time>2026-04-22T15:29:01.999Z</time></trkpt><trkpt lat="43.77242621861568" lon="6.646868648393892"><ele>1031.3333333333335</ele><time>2026-04-22T15:29:02.999Z</time></trkpt><trkpt lat="43.77258783645306" lon="6.646806391285203"><ele>1031.0</ele><time>2026-04-22T15:29:03.999Z</time></trkpt><trkpt lat="43.77273945363298" lon="6.646745977436888"><ele>1031.0</ele><time>2026-04-22T15:29:04.999Z</time></trkpt><trkpt lat="43.77288929827392" lon="6.646684794038219"><ele>1031.0</ele><time>2026-04-22T15:29:05.999Z</time></trkpt><trkpt lat="43.77302877113036" lon="6.646618862084862"><ele>1031.0</ele><time>2026-04-22T15:29:06.999Z</time></trkpt><trkpt lat="43.77315818023657" lon="6.646550344804469"><ele>1031.0</ele><time>2026-04-22T15:29:07.999Z</time></trkpt><trkpt lat="43.77327804592972" lon="6.646487731896642"><ele>1031.0</ele><time>2026-04-22T15:29:08.999Z</time></trkpt><trkpt lat="43.77338698845826" lon="6.646433501849023"><ele>1031.0</ele><time>2026-04-22T15:29:09.999Z</time></trkpt><trkpt lat="43.77348650502493" lon="6.646383379698671"><ele>1031.0</ele><time>2026-04-22T15:29:10.999Z</time></trkpt><trkpt lat="43.77357397748062" lon="6.646346343441579"><ele>1031.0</ele><time>2026-04-22T15:29:11.999Z</time></trkpt><trkpt lat="43.77365398561427" lon="6.646317814497115"><ele>1031.0</ele><time>2026-04-22T15:29:12.999Z</time></trkpt><trkpt lat="43.77373223664891" lon="6.646305162042665"><ele>1030.6666666666667</ele><time>2026-04-22T15:29:13.999Z</time></trkpt><trkpt lat="43.77379913675805" lon="6.646308450365842"><ele>1030.3333333333335</ele><time>2026-04-22T15:29:14.999Z</time></trkpt><trkpt lat="43.77390291404478" lon="6.646273759290086"><ele>1030.0</ele><time>2026-04-22T15:29:16.999Z</time></trkpt><trkpt lat="43.77396601763574" lon="6.646156952391611"><ele>1029.6666666666667</ele><time>2026-04-22T15:29:18.999Z</time></trkpt><trkpt lat="43.773990071168924" lon="6.646072259545193"><ele>1029.3333333333333</ele><time>2026-04-22T15:29:19.999Z</time></trkpt><trkpt lat="43.774013324070445" lon="6.645966898535964"><ele>1029.0</ele><time>2026-04-22T15:29:20.999Z</time></trkpt><trkpt lat="43.77404367190758" lon="6.645845877466492"><ele>1028.0</ele><time>2026-04-22T15:29:21.999Z</time></trkpt><trkpt lat="43.77407683656916" lon="6.645706978034891"><ele>1027.0</ele><time>2026-04-22T15:29:22.999Z</time></trkpt><trkpt lat="43.774111270592414" lon="6.645569758681866"><ele>1026.0</ele><time>2026-04-22T15:29:23.999Z</time></trkpt><trkpt lat="43.774148186797404" lon="6.645439278221037"><ele>1025.0</ele><time>2026-04-22T15:29:24.999Z</time></trkpt><trkpt lat="43.77419548346484" lon="6.645301626050923"><ele>1024.0</ele><time>2026-04-22T15:29:25.999Z</time></trkpt><trkpt lat="43.774247156341616" lon="6.645159659269913"><ele>1023.25</ele><time>2026-04-22T15:29:26.999Z</time></trkpt><trkpt lat="43.774301698798034" lon="6.64501094503801"><ele>1022.5</ele><time>2026-04-22T15:29:27.999Z</time></trkpt><trkpt lat="43.77436886860732" lon="6.64486568114728"><ele>1021.75</ele><time>2026-04-22T15:29:28.999Z</time></trkpt><trkpt lat="43.774448342375145" lon="6.644732327210608"><ele>1021.0</ele><time>2026-04-22T15:29:29.999Z</time></trkpt><trkpt lat="43.77453539218231" lon="6.64461144770581"><ele>1021.0</ele><time>2026-04-22T15:29:30.999Z</time></trkpt><trkpt lat="43.77463246019001" lon="6.644501674361694"><ele>1021.0</ele><time>2026-04-22T15:29:31.999Z</time></trkpt><trkpt lat="43.77473657631673" lon="6.644410404992572"><ele>1021.0</ele><time>2026-04-22T15:29:32.999Z</time></trkpt><trkpt lat="43.774848323813245" lon="6.644336605757394"><ele>1021.0</ele><time>2026-04-22T15:29:33.999Z</time></trkpt><trkpt lat="43.774966475912116" lon="6.644280835486352"><ele>1021.25</ele><time>2026-04-22T15:29:34.999Z</time></trkpt><trkpt lat="43.77508855696434" lon="6.6442326637052975"><ele>1021.5</ele><time>2026-04-22T15:29:35.999Z</time></trkpt><trkpt lat="43.775209470781036" lon="6.644188187675745"><ele>1021.75</ele><time>2026-04-22T15:29:36.999Z</time></trkpt><trkpt lat="43.775330568804804" lon="6.644144769547511"><ele>1022.0</ele><time>2026-04-22T15:29:37.999Z</time></trkpt><trkpt lat="43.77545362286312" lon="6.644099536635322"><ele>1022.75</ele><time>2026-04-22T15:29:38.999Z</time></trkpt><trkpt lat="43.77557729934205" lon="6.6440521649092075"><ele>1023.5</ele><time>2026-04-22T15:29:39.999Z</time></trkpt><trkpt lat="43.77570633706582" lon="6.644006802367079"><ele>1024.25</ele><time>2026-04-22T15:29:40.999Z</time></trkpt><trkpt lat="43.77584178426233" lon="6.6439599220585634"><ele>1025.0</ele><time>2026-04-22T15:29:41.999Z</time></trkpt><trkpt lat="43.775984418404654" lon="6.6439078308712975"><ele>1025.0</ele><time>2026-04-22T15:29:42.999Z</time></trkpt><trkpt lat="43.77612779605354" lon="6.643851881402115"><ele>1025.0</ele><time>2026-04-22T15:29:43.999Z</time></trkpt><trkpt lat="43.776263976811855" lon="6.64380189252398"><ele>1025.0</ele><time>2026-04-22T15:29:44.999Z</time></trkpt><trkpt lat="43.77640612635935" lon="6.643747913412452"><ele>1025.0</ele><time>2026-04-22T15:29:45.999Z</time></trkpt><trkpt lat="43.77655449718757" lon="6.643693479467139"><ele>1025.0</ele><time>2026-04-22T15:29:46.999Z</time></trkpt><trkpt lat="43.77670584713484" lon="6.643639120892891"><ele>1025.0</ele><time>2026-04-22T15:29:47.999Z</time></trkpt><trkpt lat="43.77686007128231" lon="6.643586608279349"><ele>1025.0</ele><time>2026-04-22T15:29:48.999Z</time></trkpt><trkpt lat="43.77701775757933" lon="6.643525414873587"><ele>1025.6666666666667</ele><time>2026-04-22T15:29:49.999Z</time></trkpt><trkpt lat="43.77718129344527" lon="6.64346389810098"><ele>1026.3333333333333</ele><time>2026-04-22T15:29:50.999Z</time></trkpt><trkpt lat="43.777345504768206" lon="6.643401752223479"><ele>1027.0</ele><time>2026-04-22T15:29:51.999Z</time></trkpt><trkpt lat="43.777506877284" lon="6.643340744899617"><ele>1027.0</ele><time>2026-04-22T15:29:52.999Z</time></trkpt><trkpt lat="43.77766651796079" lon="6.6432805689702965"><ele>1027.0</ele><time>2026-04-22T15:29:53.999Z</time></trkpt><trkpt lat="43.77782014847317" lon="6.643223288208263"><ele>1027.0</ele><time>2026-04-22T15:29:54.999Z</time></trkpt><trkpt lat="43.784428344803935" lon="6.63614113960705"><ele>1035.3333333333333</ele><time>2026-04-22T15:30:56Z</time></trkpt><trkpt lat="43.78458451138983" lon="6.636039603661417"><ele>1043.6666666666667</ele><time>2026-04-22T15:30:57Z</time></trkpt><trkpt lat="43.78473824845324" lon="6.635948287254205"><ele>1052.0</ele><time>2026-04-22T15:30:58Z</time></trkpt><trkpt lat="43.78488252253093" lon="6.635854774898167"><ele>1052.0</ele><time>2026-04-22T15:30:58.999Z</time></trkpt><trkpt lat="43.78502515440881" lon="6.635765355058706"><ele>1052.0</ele><time>2026-04-22T15:30:59.999Z</time></trkpt><trkpt lat="43.78516796883418" lon="6.635692790951412"><ele>1052.0</ele><time>2026-04-22T15:31:00.999Z</time></trkpt><trkpt lat="43.7853162368731" lon="6.635631645229069"><ele>1052.25</ele><time>2026-04-22T15:31:01.999Z</time></trkpt><trkpt lat="43.78545865765854" lon="6.63557460187767"><ele>1052.5</ele><time>2026-04-22T15:31:02.999Z</time></trkpt><trkpt lat="43.7855995705103" lon="6.635539991291448"><ele>1052.75</ele><time>2026-04-22T15:31:03.999Z</time></trkpt><trkpt lat="43.78574762188919" lon="6.635523006623709"><ele>1053.0</ele><time>2026-04-22T15:31:04.999Z</time></trkpt><trkpt lat="43.78589703404488" lon="6.6355324445997645"><ele>1053.0</ele><time>2026-04-22T15:31:05.999Z</time></trkpt><trkpt lat="43.78605186912921" lon="6.635562631891887"><ele>1053.0</ele><time>2026-04-22T15:31:06.999Z</time></trkpt><trkpt lat="43.7862051762378" lon="6.63561579204433"><ele>1053.0</ele><time>2026-04-22T15:31:07.999Z</time></trkpt><trkpt lat="43.78636117890238" lon="6.63568499771726"><ele>1053.0</ele><time>2026-04-22T15:31:08.999Z</time></trkpt><trkpt lat="43.7865180661974" lon="6.635753527478129"><ele>1053.0</ele><time>2026-04-22T15:31:09.999Z</time></trkpt><trkpt lat="43.78667687850167" lon="6.63583145052024"><ele>1053.0</ele><time>2026-04-22T15:31:10.999Z</time></trkpt><trkpt lat="43.78683735238975" lon="6.6359102664009235"><ele>1053.6666666666667</ele><time>2026-04-22T15:31:11.999Z</time></trkpt><trkpt lat="43.78699916734632" lon="6.635994692370489"><ele>1054.3333333333335</ele><time>2026-04-22T15:31:12.999Z</time></trkpt><trkpt lat="43.78714979441582" lon="6.636073161135128"><ele>1055.0</ele><time>2026-04-22T15:31:13.999Z</time></trkpt><trkpt lat="43.78730200071573" lon="6.636146040419664"><ele>1055.0</ele><time>2026-04-22T15:31:14.999Z</time></trkpt><trkpt lat="43.78744049357855" lon="6.636203540444557"><ele>1055.0</ele><time>2026-04-22T15:31:15.999Z</time></trkpt><trkpt lat="43.787581132086665" lon="6.636241345646644"><ele>1055.0</ele><time>2026-04-22T15:31:16.999Z</time></trkpt><trkpt lat="43.787715376824174" lon="6.636258762707376"><ele>1055.0</ele><time>2026-04-22T15:31:17.999Z</time></trkpt><trkpt lat="43.78783749035217" lon="6.636250123911701"><ele>1054.75</ele><time>2026-04-22T15:31:18.999Z</time></trkpt><trkpt lat="43.78795424477378" lon="6.636221988121648"><ele>1054.5</ele><time>2026-04-22T15:31:19.999Z</time></trkpt><trkpt lat="43.788061106391474" lon="6.636147227023876"><ele>1054.25</ele><time>2026-04-22T15:31:20.999Z</time></trkpt><trkpt lat="43.78816333780194" lon="6.63604686891498"><ele>1054.0</ele><time>2026-04-22T15:31:21.999Z</time></trkpt><trkpt lat="43.788265011033864" lon="6.635921476141673"><ele>1055.0</ele><time>2026-04-22T15:31:22.999Z</time></trkpt><trkpt lat="43.78836467563822" lon="6.635779065738421"><ele>1056.0</ele><time>2026-04-22T15:31:23.999Z</time></trkpt><trkpt lat="43.788456302478814" lon="6.6356276293547145"><ele>1057.0</ele><time>2026-04-22T15:31:24.999Z</time></trkpt><trkpt lat="43.788548857803036" lon="6.6354834571055425"><ele>1058.0</ele><time>2026-04-22T15:31:25.999Z</time></trkpt><trkpt lat="43.78864735697637" lon="6.6353595012716005"><ele>1059.6</ele><time>2026-04-22T15:31:26.999Z</time></trkpt><trkpt lat="43.788744661203786" lon="6.635265726674386"><ele>1061.1999999999998</ele><time>2026-04-22T15:31:27.999Z</time></trkpt><trkpt lat="43.78884503476655" lon="6.635199640248547"><ele>1062.8</ele><time>2026-04-22T15:31:28.999Z</time></trkpt><trkpt lat="43.788943874349464" lon="6.6351607085053645"><ele>1064.3999999999999</ele><time>2026-04-22T15:31:29.999Z</time></trkpt><trkpt lat="43.789051592921226" lon="6.6351456137437514"><ele>1066.0</ele><time>2026-04-22T15:31:30.999Z</time></trkpt><trkpt lat="43.789167225448075" lon="6.635146442716826"><ele>1066.0</ele><time>2026-04-22T15:31:31.999Z</time></trkpt><trkpt lat="43.789289680055866" lon="6.635172324196165"><ele>1066.0</ele><time>2026-04-22T15:31:32.999Z</time></trkpt><trkpt lat="43.78941453079291" lon="6.635210850999514"><ele>1066.0</ele><time>2026-04-22T15:31:33.999Z</time></trkpt><trkpt lat="43.78954539443443" lon="6.635266973774861"><ele>1066.0</ele><time>2026-04-22T15:31:34.999Z</time></trkpt><trkpt lat="43.78967469596589" lon="6.635327988583776"><ele>1066.25</ele><time>2026-04-22T15:31:35.999Z</time></trkpt><trkpt lat="43.78980930726971" lon="6.635382821900302"><ele>1066.5</ele><time>2026-04-22T15:31:36.999Z</time></trkpt><trkpt lat="43.789946495415265" lon="6.63543870513735"><ele>1066.75</ele><time>2026-04-22T15:31:37.999Z</time></trkpt><trkpt lat="43.79008861484558" lon="6.635492962466539"><ele>1067.0</ele><time>2026-04-22T15:31:38.999Z</time></trkpt><trkpt lat="43.790234095955526" lon="6.63554567779316"><ele>1067.0</ele><time>2026-04-22T15:31:39.999Z</time></trkpt><trkpt lat="43.790373875476085" lon="6.635595416223865"><ele>1067.0</ele><time>2026-04-22T15:31:40.999Z</time></trkpt><trkpt lat="43.79051356709105" lon="6.63564811598037"><ele>1067.0</ele><time>2026-04-22T15:31:41.999Z</time></trkpt><trkpt lat="43.79065355897552" lon="6.635701055046853"><ele>1067.0</ele><time>2026-04-22T15:31:42.999Z</time></trkpt><trkpt lat="43.79079373289442" lon="6.635754495947821"><ele>1067.0</ele><time>2026-04-22T15:31:43.999Z</time></trkpt><trkpt lat="43.790933968962314" lon="6.635808590447346"><ele>1067.0</ele><time>2026-04-22T15:31:44.999Z</time></trkpt><trkpt lat="43.79107258787942" lon="6.635865259243335"><ele>1067.0</ele><time>2026-04-22T15:31:45.999Z</time></trkpt><trkpt lat="43.79121073793115" lon="6.635918140341855"><ele>1067.0</ele><time>2026-04-22T15:31:46.999Z</time></trkpt><trkpt lat="43.79134731411585" lon="6.6359539229639095"><ele>1067.75</ele><time>2026-04-22T15:31:47.999Z</time></trkpt><trkpt lat="43.79148582347906" lon="6.635964343574035"><ele>1068.5</ele><time>2026-04-22T15:31:48.999Z</time></trkpt><trkpt lat="43.79162192634955" lon="6.635953126565601"><ele>1069.25</ele><time>2026-04-22T15:31:49.999Z</time></trkpt><trkpt lat="43.79175865963108" lon="6.635959993563687"><ele>1070.0</ele><time>2026-04-22T15:31:50.999Z</time></trkpt><trkpt lat="43.791891272593375" lon="6.635909764423796"><ele>1070.0</ele><time>2026-04-22T15:31:51.999Z</time></trkpt><trkpt lat="43.79201775694285" lon="6.635839413817634"><ele>1070.0</ele><time>2026-04-22T15:31:52.999Z</time></trkpt><trkpt lat="43.79214908730736" lon="6.635777980916815"><ele>1070.0</ele><time>2026-04-22T15:31:53.999Z</time></trkpt><trkpt lat="43.79228054361581" lon="6.635715132630392"><ele>1070.0</ele><time>2026-04-22T15:31:54.999Z</time></trkpt><trkpt lat="43.79738964116572" lon="6.625535591094975"><ele>1080.6666666666667</ele><time>2026-04-22T15:32:56Z</time></trkpt><trkpt lat="43.79739496557657" lon="6.62530006059366"><ele>1091.3333333333333</ele><time>2026-04-22T15:32:57Z</time></trkpt><trkpt lat="43.797399224973475" lon="6.625086315944354"><ele>1102.0</ele><time>2026-04-22T15:32:58Z</time></trkpt><trkpt lat="43.79740117218631" lon="6.624889577370337"><ele>1102.0</ele><time>2026-04-22T15:32:59Z</time></trkpt><trkpt lat="43.797407887737606" lon="6.62470735865249"><ele>1102.0</ele><time>2026-04-22T15:33:00Z</time></trkpt><trkpt lat="43.79742031303594" lon="6.624540684871042"><ele>1102.0</ele><time>2026-04-22T15:33:01Z</time></trkpt><trkpt lat="43.79745002922338" lon="6.624395241658999"><ele>1102.0</ele><time>2026-04-22T15:33:02Z</time></trkpt><trkpt lat="43.797502775972006" lon="6.624269403617105"><ele>1101.0</ele><time>2026-04-22T15:33:03Z</time></trkpt><trkpt lat="43.79757248114861" lon="6.624148459924458"><ele>1100.0</ele><time>2026-04-22T15:33:04Z</time></trkpt><trkpt lat="43.79766690154075" lon="6.624040353355754"><ele>1099.0</ele><time>2026-04-22T15:33:05Z</time></trkpt><trkpt lat="43.797778696094646" lon="6.623931764597423"><ele>1098.0</ele><time>2026-04-22T15:33:05.999Z</time></trkpt><trkpt lat="43.79790004431608" lon="6.623814125300516"><ele>1099.3333333333333</ele><time>2026-04-22T15:33:06.999Z</time></trkpt><trkpt lat="43.798028569560294" lon="6.623690694833016"><ele>1100.6666666666665</ele><time>2026-04-22T15:33:07.999Z</time></trkpt><trkpt lat="43.7981632514726" lon="6.623558973237898"><ele>1102.0</ele><time>2026-04-22T15:33:08.999Z</time></trkpt><trkpt lat="43.798298033917995" lon="6.62342376984142"><ele>1102.0</ele><time>2026-04-22T15:33:09.999Z</time></trkpt><trkpt lat="43.79841529276267" lon="6.6233039006723"><ele>1102.0</ele><time>2026-04-22T15:33:10.999Z</time></trkpt><trkpt lat="43.79852289214241" lon="6.623190578424002"><ele>1102.0</ele><time>2026-04-22T15:33:11.999Z</time></trkpt><trkpt lat="43.79862787925944" lon="6.623090424617301"><ele>1102.0</ele><time>2026-04-22T15:33:12.999Z</time></trkpt><trkpt lat="43.79873128353841" lon="6.623019032593792"><ele>1104.2</ele><time>2026-04-22T15:33:13.999Z</time></trkpt><trkpt lat="43.798834545004595" lon="6.622974870535999"><ele>1106.4</ele><time>2026-04-22T15:33:14.999Z</time></trkpt><trkpt lat="43.79893464806202" lon="6.622964348127954"><ele>1108.6</ele><time>2026-04-22T15:33:15.999Z</time></trkpt><trkpt lat="43.799029384180045" lon="6.622999071536903"><ele>1110.8</ele><time>2026-04-22T15:33:16.999Z</time></trkpt><trkpt lat="43.79912113810879" lon="6.623067174805219"><ele>1113.0</ele><time>2026-04-22T15:33:17.999Z</time></trkpt><trkpt lat="43.79921201469424" lon="6.623172600526898"><ele>1113.0</ele><time>2026-04-22T15:33:18.999Z</time></trkpt><trkpt lat="43.79929765014355" lon="6.623287270660127"><ele>1113.0</ele><time>2026-04-22T15:33:19.999Z</time></trkpt><trkpt lat="43.799385590417096" lon="6.623377527264145"><ele>1113.0</ele><time>2026-04-22T15:33:20.999Z</time></trkpt><trkpt lat="43.79947333434821" lon="6.623435073710726"><ele>1113.0</ele><time>2026-04-22T15:33:21.999Z</time></trkpt><trkpt lat="43.7995719144587" lon="6.6234555309828265"><ele>1113.0</ele><time>2026-04-22T15:33:22.999Z</time></trkpt><trkpt lat="43.79967862959421" lon="6.623441454761682"><ele>1112.75</ele><time>2026-04-22T15:33:23.999Z</time></trkpt><trkpt lat="43.7997858323665" lon="6.6233926217016945"><ele>1112.5</ele><time>2026-04-22T15:33:24.999Z</time></trkpt><trkpt lat="43.7998926667532" lon="6.623307745067932"><ele>1112.25</ele><time>2026-04-22T15:33:25.999Z</time></trkpt><trkpt lat="43.79999997579109" lon="6.623208343256449"><ele>1112.0</ele><time>2026-04-22T15:33:26.999Z</time></trkpt><trkpt lat="43.800101167336486" lon="6.6231114407817335"><ele>1113.0</ele><time>2026-04-22T15:33:27.999Z</time></trkpt><trkpt lat="43.800198362990095" lon="6.623045381208443"><ele>1114.0</ele><time>2026-04-22T15:33:28.999Z</time></trkpt><trkpt lat="43.800299286335544" lon="6.623017780071275"><ele>1115.0</ele><time>2026-04-22T15:33:29.999Z</time></trkpt><trkpt lat="43.800405473858476" lon="6.6230238625948035"><ele>1116.0</ele><time>2026-04-22T15:33:30.999Z</time></trkpt><trkpt lat="43.800517947783696" lon="6.623065306750477"><ele>1117.0</ele><time>2026-04-22T15:33:31.999Z</time></trkpt><trkpt lat="43.80063300484702" lon="6.623116218338354"><ele>1117.0</ele><time>2026-04-22T15:33:32.999Z</time></trkpt><trkpt lat="43.80075206157579" lon="6.623169019856713"><ele>1117.0</ele><time>2026-04-22T15:33:33.999Z</time></trkpt><trkpt lat="43.800869882763024" lon="6.623200776955286"><ele>1117.0</ele><time>2026-04-22T15:33:34.999Z</time></trkpt><trkpt lat="43.80099163618552" lon="6.623200718267503"><ele>1117.0</ele><time>2026-04-22T15:33:35.999Z</time></trkpt><trkpt lat="43.80111096221592" lon="6.623165354907699"><ele>1116.75</ele><time>2026-04-22T15:33:36.999Z</time></trkpt><trkpt lat="43.801224876578516" lon="6.623111406550872"><ele>1116.5</ele><time>2026-04-22T15:33:37.999Z</time></trkpt><trkpt lat="43.8013249638646" lon="6.623030498346445"><ele>1116.25</ele><time>2026-04-22T15:33:38.999Z</time></trkpt><trkpt lat="43.8014124180467" lon="6.622920525092358"><ele>1116.0</ele><time>2026-04-22T15:33:39.999Z</time></trkpt><trkpt lat="43.80148838820779" lon="6.622796552116292"><ele>1116.0</ele><time>2026-04-22T15:33:40.999Z</time></trkpt><trkpt lat="43.80155104931288" lon="6.622657999188223"><ele>1116.0</ele><time>2026-04-22T15:33:41.999Z</time></trkpt><trkpt lat="43.80159861359091" lon="6.622513774882414"><ele>1116.0</ele><time>2026-04-22T15:33:42.999Z</time></trkpt><trkpt lat="43.801623932513785" lon="6.622363076914856"><ele>1116.0</ele><time>2026-04-22T15:33:43.999Z</time></trkpt><trkpt lat="43.8016341705762" lon="6.622207831357521"><ele>1116.0</ele><time>2026-04-22T15:33:44.999Z</time></trkpt><trkpt lat="43.801628451559594" lon="6.62204842599496"><ele>1116.0</ele><time>2026-04-22T15:33:45.999Z</time></trkpt><trkpt lat="43.80159719753085" lon="6.621893629071783"><ele>1116.0</ele><time>2026-04-22T15:33:46.999Z</time></trkpt><trkpt lat="43.801546672568364" lon="6.621748563759277"><ele>1116.0</ele><time>2026-04-22T15:33:47.999Z</time></trkpt><trkpt lat="43.801478217526714" lon="6.621609291122681"><ele>1116.25</ele><time>2026-04-22T15:33:48.999Z</time></trkpt><trkpt lat="43.8013903706675" lon="6.621473471497196"><ele>1116.5</ele><time>2026-04-22T15:33:49.999Z</time></trkpt><trkpt lat="43.80127604977193" lon="6.621350862086471"><ele>1116.75</ele><time>2026-04-22T15:33:50.999Z</time></trkpt><trkpt lat="43.80114333424302" lon="6.621245931629552"><ele>1117.0</ele><time>2026-04-22T15:33:51.999Z</time></trkpt><trkpt lat="43.801013939680466" lon="6.621151302241734"><ele>1114.0</ele><time>2026-04-22T15:33:52.999Z</time></trkpt><trkpt lat="43.800904511627344" lon="6.621049230442464"><ele>1111.0</ele><time>2026-04-22T15:33:53.999Z</time></trkpt><trkpt lat="43.800812088976535" lon="6.620938295415222"><ele>1108.0</ele><time>2026-04-22T15:33:54.999Z</time></trkpt><trkpt lat="43.80336265440558" lon="6.613012425685268"><ele>1105.25</ele><time>2026-04-22T15:34:56Z</time></trkpt><trkpt lat="43.8033554385088" lon="6.612834923773333"><ele>1102.5</ele><time>2026-04-22T15:34:57Z</time></trkpt><trkpt lat="43.80333209828799" lon="6.612637048907696"><ele>1099.75</ele><time>2026-04-22T15:34:58Z</time></trkpt><trkpt lat="43.80331020661942" lon="6.612425407494777"><ele>1097.0</ele><time>2026-04-22T15:34:59Z</time></trkpt><trkpt lat="43.8032944573789" lon="6.612221090505865"><ele>1095.0</ele><time>2026-04-22T15:35:00Z</time></trkpt><trkpt lat="43.803286546503145" lon="6.6120254271929"><ele>1093.0</ele><time>2026-04-22T15:35:01Z</time></trkpt><trkpt lat="43.803289496053566" lon="6.611831242349034"><ele>1091.0</ele><time>2026-04-22T15:35:02Z</time></trkpt><trkpt lat="43.803312442650025" lon="6.611636200321372"><ele>1089.0</ele><time>2026-04-22T15:35:03Z</time></trkpt><trkpt lat="43.80334977581507" lon="6.611440473441478"><ele>1088.5</ele><time>2026-04-22T15:35:04Z</time></trkpt><trkpt lat="43.803389913545416" lon="6.611254070832384"><ele>1088.0</ele><time>2026-04-22T15:35:05Z</time></trkpt><trkpt lat="43.803420952087826" lon="6.611079784919421"><ele>1087.5</ele><time>2026-04-22T15:35:06Z</time></trkpt><trkpt lat="43.80344137527978" lon="6.610908311165578"><ele>1087.0</ele><time>2026-04-22T15:35:07Z</time></trkpt><trkpt lat="43.80343945913121" lon="6.610737083527098"><ele>1086.75</ele><time>2026-04-22T15:35:08Z</time></trkpt><trkpt lat="43.80341026855792" lon="6.6105609280232605"><ele>1086.5</ele><time>2026-04-22T15:35:08.999Z</time></trkpt><trkpt lat="43.803360998539034" lon="6.610379678857487"><ele>1086.25</ele><time>2026-04-22T15:35:09.999Z</time></trkpt><trkpt lat="43.803300348426106" lon="6.610186361525933"><ele>1086.0</ele><time>2026-04-22T15:35:10.999Z</time></trkpt><trkpt lat="43.80323712153247" lon="6.609986374005881"><ele>1086.0</ele><time>2026-04-22T15:35:11.999Z</time></trkpt><trkpt lat="43.803173611268925" lon="6.60979473314525"><ele>1086.0</ele><time>2026-04-22T15:35:12.999Z</time></trkpt><trkpt lat="43.80310775180347" lon="6.609595293207904"><ele>1086.0</ele><time>2026-04-22T15:35:13.999Z</time></trkpt><trkpt lat="43.80304315341454" lon="6.609379884608171"><ele>1088.3333333333333</ele><time>2026-04-22T15:35:14.999Z</time></trkpt><trkpt lat="43.802971396853565" lon="6.609164363893052"><ele>1090.6666666666665</ele><time>2026-04-22T15:35:15.999Z</time></trkpt><trkpt lat="43.8029093037148" lon="6.608956716410744"><ele>1093.0</ele><time>2026-04-22T15:35:16.999Z</time></trkpt><trkpt lat="43.80284913113888" lon="6.608759159495363"><ele>1093.25</ele><time>2026-04-22T15:35:17.999Z</time></trkpt><trkpt lat="43.80279630079298" lon="6.6085850478106165"><ele>1093.5</ele><time>2026-04-22T15:35:18.999Z</time></trkpt><trkpt lat="43.80276076759333" lon="6.60843563063526"><ele>1093.75</ele><time>2026-04-22T15:35:19.999Z</time></trkpt><trkpt lat="43.80273978391799" lon="6.608298196685832"><ele>1094.0</ele><time>2026-04-22T15:35:20.999Z</time></trkpt><trkpt lat="43.80273693864859" lon="6.6081517945716515"><ele>1094.0</ele><time>2026-04-22T15:35:21.999Z</time></trkpt><trkpt lat="43.80275747127232" lon="6.607992052683399"><ele>1094.0</ele><time>2026-04-22T15:35:22.999Z</time></trkpt><trkpt lat="43.80279340550291" lon="6.607832422520504"><ele>1094.0</ele><time>2026-04-22T15:35:23.999Z</time></trkpt><trkpt lat="43.80281858599239" lon="6.607679419571338"><ele>1094.0</ele><time>2026-04-22T15:35:24.999Z</time></trkpt><trkpt lat="43.8028280847459" lon="6.607523346795596"><ele>1093.0</ele><time>2026-04-22T15:35:25.999Z</time></trkpt><trkpt lat="43.8028217060219" lon="6.607368442737423"><ele>1092.0</ele><time>2026-04-22T15:35:26.999Z</time></trkpt><trkpt lat="43.802795897614466" lon="6.607218011543263"><ele>1091.0</ele><time>2026-04-22T15:35:27.999Z</time></trkpt><trkpt lat="43.80275137418844" lon="6.607066549657197"><ele>1090.0</ele><time>2026-04-22T15:35:28.999Z</time></trkpt><trkpt lat="43.80268747763224" lon="6.606910300252191"><ele>1083.0</ele><time>2026-04-22T15:35:29.999Z</time></trkpt><trkpt lat="43.80260835299517" lon="6.606758135929671"><ele>1076.0</ele><time>2026-04-22T15:35:30.999Z</time></trkpt><trkpt lat="43.802538051952105" lon="6.606616365569897"><ele>1069.0</ele><time>2026-04-22T15:35:31.999Z</time></trkpt><trkpt lat="43.80248335039371" lon="6.6064691719426065"><ele>1062.0</ele><time>2026-04-22T15:35:32.999Z</time></trkpt><trkpt lat="43.80245242939564" lon="6.606312816927879"><ele>1061.75</ele><time>2026-04-22T15:35:33.999Z</time></trkpt><trkpt lat="43.80244306353274" lon="6.606136801577443"><ele>1061.5</ele><time>2026-04-22T15:35:34.999Z</time></trkpt><trkpt lat="43.8024544045384" lon="6.605941485117152"><ele>1061.25</ele><time>2026-04-22T15:35:35.999Z</time></trkpt><trkpt lat="43.80248303251448" lon="6.605727996572872"><ele>1061.0</ele><time>2026-04-22T15:35:36.999Z</time></trkpt><trkpt lat="43.80251823588226" lon="6.605488051599158"><ele>1059.3333333333335</ele><time>2026-04-22T15:35:37.999Z</time></trkpt><trkpt lat="43.80254938264303" lon="6.605227972351436"><ele>1057.6666666666667</ele><time>2026-04-22T15:35:38.999Z</time></trkpt><trkpt lat="43.802575770936535" lon="6.604977699060131"><ele>1056.0</ele><time>2026-04-22T15:35:39.999Z</time></trkpt><trkpt lat="43.80260021903944" lon="6.60474399190928"><ele>1056.0</ele><time>2026-04-22T15:35:40.999Z</time></trkpt><trkpt lat="43.802625607014356" lon="6.604513272273066"><ele>1056.0</ele><time>2026-04-22T15:35:41.999Z</time></trkpt><trkpt lat="43.80265199720497" lon="6.6042877364722"><ele>1056.0</ele><time>2026-04-22T15:35:42.999Z</time></trkpt><trkpt lat="43.8026808565422" lon="6.604062508811383"><ele>1056.3333333333333</ele><time>2026-04-22T15:35:43.999Z</time></trkpt><trkpt lat="43.80271598559679" lon="6.6038327764116405"><ele>1056.6666666666665</ele><time>2026-04-22T15:35:44.999Z</time></trkpt><trkpt lat="43.80275975230452" lon="6.603597377355221"><ele>1057.0</ele><time>2026-04-22T15:35:45.999Z</time></trkpt><trkpt lat="43.802809411437586" lon="6.603362244500986"><ele>1057.0</ele><time>2026-04-22T15:35:46.999Z</time></trkpt><trkpt lat="43.802858757647684" lon="6.603129725835991"><ele>1057.0</ele><time>2026-04-22T15:35:47.999Z</time></trkpt><trkpt lat="43.802907962706605" lon="6.602899897872518"><ele>1057.0</ele><time>2026-04-22T15:35:48.999Z</time></trkpt><trkpt lat="43.802958552039506" lon="6.602665852867852"><ele>1054.0</ele><time>2026-04-22T15:35:49.999Z</time></trkpt><trkpt lat="43.803013321554154" lon="6.602427239781375"><ele>1051.0</ele><time>2026-04-22T15:35:50.999Z</time></trkpt><trkpt lat="43.80306606187921" lon="6.602185146144778"><ele>1048.0</ele><time>2026-04-22T15:35:51.999Z</time></trkpt><trkpt lat="43.80311839855868" lon="6.6019408563524244"><ele>1047.0</ele><time>2026-04-22T15:35:52.999Z</time></trkpt><trkpt lat="43.80316896244359" lon="6.601693096214578"><ele>1046.0</ele><time>2026-04-22T15:35:53.999Z</time></trkpt><trkpt lat="43.80322081958754" lon="6.601447278571605"><ele>1045.0</ele><time>2026-04-22T15:35:54.999Z</time></trkpt><trkpt lat="43.8056727815885" lon="6.597893216146077"><ele>1034.8</ele><time>2026-04-22T15:36:56Z</time></trkpt><trkpt lat="43.80575239169764" lon="6.597855249198906"><ele>1024.6</ele><time>2026-04-22T15:36:57Z</time></trkpt><trkpt lat="43.805825220711306" lon="6.597786148311852"><ele>1014.4000000000001</ele><time>2026-04-22T15:36:58Z</time></trkpt><trkpt lat="43.80589772112932" lon="6.597693064754977"><ele>1004.2</ele><time>2026-04-22T15:36:59Z</time></trkpt><trkpt lat="43.80596939058908" lon="6.597598864450458"><ele>994.0</ele><time>2026-04-22T15:37:00Z</time></trkpt><trkpt lat="43.806037307590316" lon="6.597514542479424"><ele>990.4000000000001</ele><time>2026-04-22T15:37:01Z</time></trkpt><trkpt lat="43.80609665661873" lon="6.597456327702353"><ele>986.8000000000001</ele><time>2026-04-22T15:37:02Z</time></trkpt><trkpt lat="43.80620746214978" lon="6.597419818764736"><ele>983.1999999999999</ele><time>2026-04-22T15:37:04Z</time></trkpt><trkpt lat="43.806290764458225" lon="6.597530962637223"><ele>979.5999999999999</ele><time>2026-04-22T15:37:06Z</time></trkpt><trkpt lat="43.806300106835444" lon="6.597633821567265"><ele>976.0</ele><time>2026-04-22T15:37:07Z</time></trkpt><trkpt lat="43.80629194791951" lon="6.597741093676804"><ele>975.5999999999999</ele><time>2026-04-22T15:37:07.999Z</time></trkpt><trkpt lat="43.80627057428143" lon="6.597859281192285"><ele>975.1999999999999</ele><time>2026-04-22T15:37:08.999Z</time></trkpt><trkpt lat="43.8062245353978" lon="6.597969619163579"><ele>974.8000000000001</ele><time>2026-04-22T15:37:09.999Z</time></trkpt><trkpt lat="43.80616093369533" lon="6.598062801424302"><ele>974.4000000000001</ele><time>2026-04-22T15:37:10.999Z</time></trkpt><trkpt lat="43.80608147514019" lon="6.598137538871898"><ele>974.0</ele><time>2026-04-22T15:37:11.999Z</time></trkpt><trkpt lat="43.805993139035046" lon="6.598206500087631"><ele>977.0</ele><time>2026-04-22T15:37:12.999Z</time></trkpt><trkpt lat="43.80590942278126" lon="6.598272810922697"><ele>980.0000000000001</ele><time>2026-04-22T15:37:13.999Z</time></trkpt><trkpt lat="43.805830645588934" lon="6.59834493472367"><ele>983.0000000000001</ele><time>2026-04-22T15:37:14.999Z</time></trkpt><trkpt lat="43.80575104021934" lon="6.598412216476882"><ele>986.0</ele><time>2026-04-22T15:37:15.999Z</time></trkpt><trkpt lat="43.80568610721242" lon="6.5985197755892475"><ele>989.0</ele><time>2026-04-22T15:37:16.999Z</time></trkpt><trkpt lat="43.80564237114208" lon="6.598655280134202"><ele>988.0</ele><time>2026-04-22T15:37:17.999Z</time></trkpt><trkpt lat="43.80562063480178" lon="6.598811397125934"><ele>987.0000000000001</ele><time>2026-04-22T15:37:18.999Z</time></trkpt><trkpt lat="43.805624911501496" lon="6.598966920195236"><ele>986.0000000000001</ele><time>2026-04-22T15:37:19.999Z</time></trkpt><trkpt lat="43.80561830762654" lon="6.59911106982633"><ele>985.0</ele><time>2026-04-22T15:37:20.999Z</time></trkpt><trkpt lat="43.805610261727836" lon="6.599248240897029"><ele>984.0</ele><time>2026-04-22T15:37:21.999Z</time></trkpt><trkpt lat="43.80560122515526" lon="6.599376114382019"><ele>984.0</ele><time>2026-04-22T15:37:22.999Z</time></trkpt><trkpt lat="43.80559664251257" lon="6.599494500593325"><ele>984.0000000000001</ele><time>2026-04-22T15:37:23.999Z</time></trkpt><trkpt lat="43.80559813384679" lon="6.599597330302311"><ele>984.0000000000001</ele><time>2026-04-22T15:37:24.999Z</time></trkpt><trkpt lat="43.8056196951329" lon="6.599681813369254"><ele>984.0</ele><time>2026-04-22T15:37:25.999Z</time></trkpt><trkpt lat="43.805715187356675" lon="6.599762160240244"><ele>984.0</ele><time>2026-04-22T15:37:27.999Z</time></trkpt><trkpt lat="43.80583330627719" lon="6.599698509449173"><ele>984.4000000000001</ele><time>2026-04-22T15:37:29.999Z</time></trkpt><trkpt lat="43.80589333232094" lon="6.59962232842886"><ele>984.8000000000001</ele><time>2026-04-22T15:37:30.999Z</time></trkpt><trkpt lat="43.805960981807615" lon="6.599518053757956"><ele>985.1999999999999</ele><time>2026-04-22T15:37:31.999Z</time></trkpt><trkpt lat="43.806036285975644" lon="6.599398926820259"><ele>985.5999999999999</ele><time>2026-04-22T15:37:32.999Z</time></trkpt><trkpt lat="43.80611006034056" lon="6.599284599278802"><ele>986.0</ele><time>2026-04-22T15:37:33.999Z</time></trkpt><trkpt lat="43.80619210050439" lon="6.599170750464165"><ele>986.0</ele><time>2026-04-22T15:37:34.999Z</time></trkpt><trkpt lat="43.806289134822336" lon="6.599062258078785"><ele>986.0</ele><time>2026-04-22T15:37:35.999Z</time></trkpt><trkpt lat="43.80639502262777" lon="6.598965245692372"><ele>986.0</ele><time>2026-04-22T15:37:36.999Z</time></trkpt><trkpt lat="43.80650977790161" lon="6.598882919696918"><ele>986.0</ele><time>2026-04-22T15:37:37.999Z</time></trkpt><trkpt lat="43.806630813372536" lon="6.598821722141819"><ele>986.0</ele><time>2026-04-22T15:37:38.999Z</time></trkpt><trkpt lat="43.8067450432462" lon="6.598765054257291"><ele>986.0</ele><time>2026-04-22T15:37:39.999Z</time></trkpt><trkpt lat="43.806857082449305" lon="6.598697602098612"><ele>986.0</ele><time>2026-04-22T15:37:40.999Z</time></trkpt><trkpt lat="43.80696181551148" lon="6.598609530792652"><ele>986.0</ele><time>2026-04-22T15:37:41.999Z</time></trkpt><trkpt lat="43.80705486640721" lon="6.598497150177895"><ele>984.5</ele><time>2026-04-22T15:37:42.999Z</time></trkpt><trkpt lat="43.80714296627379" lon="6.598362062204117"><ele>983.0</ele><time>2026-04-22T15:37:43.999Z</time></trkpt><trkpt lat="43.80722998651167" lon="6.598213872704213"><ele>981.5</ele><time>2026-04-22T15:37:44.999Z</time></trkpt><trkpt lat="43.807314079300056" lon="6.598070190623904"><ele>980.0</ele><time>2026-04-22T15:37:45.999Z</time></trkpt><trkpt lat="43.807398310457415" lon="6.597923590825532"><ele>976.0</ele><time>2026-04-22T15:37:46.999Z</time></trkpt><trkpt lat="43.80747477660292" lon="6.597767784791358"><ele>972.0</ele><time>2026-04-22T15:37:47.999Z</time></trkpt><trkpt lat="43.8075432087938" lon="6.597610272610783"><ele>968.0</ele><time>2026-04-22T15:37:48.999Z</time></trkpt><trkpt lat="43.807610246944975" lon="6.597456301167188"><ele>964.0</ele><time>2026-04-22T15:37:49.999Z</time></trkpt><trkpt lat="43.80767319367594" lon="6.597307843060045"><ele>963.4000000000001</ele><time>2026-04-22T15:37:50.999Z</time></trkpt><trkpt lat="43.80772842558065" lon="6.597174538465315"><ele>962.8000000000001</ele><time>2026-04-22T15:37:51.999Z</time></trkpt><trkpt lat="43.80777742961466" lon="6.597069603533684"><ele>962.1999999999999</ele><time>2026-04-22T15:37:52.999Z</time></trkpt><trkpt lat="43.80782041066098" lon="6.596989734677965"><ele>961.5999999999999</ele><time>2026-04-22T15:37:53.999Z</time></trkpt><trkpt lat="43.8078669651435" lon="6.59692959124971"><ele>961.0</ele><time>2026-04-22T15:37:54.999Z</time></trkpt><trkpt lat="43.81534352404359" lon="6.5956405325229674"><ele>965.25</ele><time>2026-04-22T15:38:56Z</time></trkpt><trkpt lat="43.81548157020632" lon="6.5955316091746345"><ele>969.5</ele><time>2026-04-22T15:38:57Z</time></trkpt><trkpt lat="43.81560674417828" lon="6.595443940514551"><ele>973.75</ele><time>2026-04-22T15:38:58Z</time></trkpt><trkpt lat="43.81573792009971" lon="6.595370355308401"><ele>978.0</ele><time>2026-04-22T15:38:59Z</time></trkpt><trkpt lat="43.81586281003756" lon="6.595300318386786"><ele>978.5999999999999</ele><time>2026-04-22T15:39:00Z</time></trkpt><trkpt lat="43.81597153956494" lon="6.5952366280763375"><ele>979.1999999999999</ele><time>2026-04-22T15:39:01Z</time></trkpt><trkpt lat="43.816059411070185" lon="6.595165639510211"><ele>979.8</ele><time>2026-04-22T15:39:02Z</time></trkpt><trkpt lat="43.816130073684775" lon="6.595074931919399"><ele>980.4</ele><time>2026-04-22T15:39:03Z</time></trkpt><trkpt lat="43.8161788755296" lon="6.59496584884675"><ele>981.0</ele><time>2026-04-22T15:39:04Z</time></trkpt><trkpt lat="43.8162046649752" lon="6.594841782411234"><ele>981.0</ele><time>2026-04-22T15:39:05Z</time></trkpt><trkpt lat="43.81620646823845" lon="6.5947135898195635"><ele>980.9999999999999</ele><time>2026-04-22T15:39:06Z</time></trkpt><trkpt lat="43.816171071359996" lon="6.594590523166368"><ele>980.9999999999999</ele><time>2026-04-22T15:39:07Z</time></trkpt><trkpt lat="43.81611431021947" lon="6.5944916229387935"><ele>981.0</ele><time>2026-04-22T15:39:07.999Z</time></trkpt><trkpt lat="43.816038022316974" lon="6.594428009775338"><ele>981.0</ele><time>2026-04-22T15:39:08.999Z</time></trkpt><trkpt lat="43.815950391904586" lon="6.594402174640601"><ele>981.8</ele><time>2026-04-22T15:39:09.999Z</time></trkpt><trkpt lat="43.81585583494032" lon="6.594413725549179"><ele>982.5999999999999</ele><time>2026-04-22T15:39:10.999Z</time></trkpt><trkpt lat="43.81576360327457" lon="6.594464124238826"><ele>983.4</ele><time>2026-04-22T15:39:11.999Z</time></trkpt><trkpt lat="43.81567451252841" lon="6.594550138597337"><ele>984.2</ele><time>2026-04-22T15:39:12.999Z</time></trkpt><trkpt lat="43.815584532692895" lon="6.594658923318655"><ele>985.0</ele><time>2026-04-22T15:39:13.999Z</time></trkpt><trkpt lat="43.815490677437566" lon="6.594782534551575"><ele>985.0</ele><time>2026-04-22T15:39:14.999Z</time></trkpt><trkpt lat="43.81538145515567" lon="6.59486963283125"><ele>985.0</ele><time>2026-04-22T15:39:15.999Z</time></trkpt><trkpt lat="43.815285059213444" lon="6.594971284145026"><ele>985.0</ele><time>2026-04-22T15:39:16.999Z</time></trkpt><trkpt lat="43.81516939728104" lon="6.595027497019505"><ele>985.0</ele><time>2026-04-22T15:39:17.999Z</time></trkpt><trkpt lat="43.815047943701" lon="6.595064247295827"><ele>988.25</ele><time>2026-04-22T15:39:18.999Z</time></trkpt><trkpt lat="43.81492192931866" lon="6.595083461676676"><ele>991.5</ele><time>2026-04-22T15:39:19.999Z</time></trkpt><trkpt lat="43.814792533433376" lon="6.59508781670707"><ele>994.75</ele><time>2026-04-22T15:39:20.999Z</time></trkpt><trkpt lat="43.81465379098236" lon="6.595072110747946"><ele>998.0</ele><time>2026-04-22T15:39:21.999Z</time></trkpt><trkpt lat="43.81450251717984" lon="6.595033696686496"><ele>998.0</ele><time>2026-04-22T15:39:22.999Z</time></trkpt><trkpt lat="43.81434947822684" lon="6.594994515309127"><ele>998.0</ele><time>2026-04-22T15:39:23.999Z</time></trkpt><trkpt lat="43.8142083616295" lon="6.5949617664032525"><ele>998.0</ele><time>2026-04-22T15:39:24.999Z</time></trkpt><trkpt lat="43.814090399226885" lon="6.594906869108465"><ele>998.0</ele><time>2026-04-22T15:39:25.999Z</time></trkpt><trkpt lat="43.81398293905776" lon="6.594869596924189"><ele>998.4</ele><time>2026-04-22T15:39:26.999Z</time></trkpt><trkpt lat="43.813879577420515" lon="6.594832760975047"><ele>998.8</ele><time>2026-04-22T15:39:27.999Z</time></trkpt><trkpt lat="43.81379362447666" lon="6.594747251002104"><ele>999.2</ele><time>2026-04-22T15:39:28.999Z</time></trkpt><trkpt lat="43.81372756325614" lon="6.594633146109238"><ele>999.6</ele><time>2026-04-22T15:39:29.999Z</time></trkpt><trkpt lat="43.813675070732415" lon="6.594493707858301"><ele>1000.0</ele><time>2026-04-22T15:39:30.999Z</time></trkpt><trkpt lat="43.81363640600134" lon="6.594335511409175"><ele>1003.8</ele><time>2026-04-22T15:39:31.999Z</time></trkpt><trkpt lat="43.81360457188365" lon="6.5941786988820565"><ele>1007.6</ele><time>2026-04-22T15:39:32.999Z</time></trkpt><trkpt lat="43.813596371999516" lon="6.594042948645774"><ele>1011.4000000000001</ele><time>2026-04-22T15:39:33.999Z</time></trkpt><trkpt lat="43.81361709197566" lon="6.5939123950013"><ele>1015.2</ele><time>2026-04-22T15:39:34.999Z</time></trkpt><trkpt lat="43.81366771247139" lon="6.5937713210082185"><ele>1019.0</ele><time>2026-04-22T15:39:35.999Z</time></trkpt><trkpt lat="43.81372829059533" lon="6.593616327191781"><ele>1019.0</ele><time>2026-04-22T15:39:36.999Z</time></trkpt><trkpt lat="43.813793835912534" lon="6.593440891471913"><ele>1019.0</ele><time>2026-04-22T15:39:37.999Z</time></trkpt><trkpt lat="43.81385445172287" lon="6.593271470294229"><ele>1019.0</ele><time>2026-04-22T15:39:38.999Z</time></trkpt><trkpt lat="43.81391028075186" lon="6.59314386141056"><ele>1019.0</ele><time>2026-04-22T15:39:39.999Z</time></trkpt><trkpt lat="43.81397290746067" lon="6.593050093712174"><ele>1019.0</ele><time>2026-04-22T15:39:40.999Z</time></trkpt><trkpt lat="43.81404931533055" lon="6.592983913017671"><ele>1019.0000000000001</ele><time>2026-04-22T15:39:41.999Z</time></trkpt><trkpt lat="43.814139082493234" lon="6.592949124884617"><ele>1019.0000000000001</ele><time>2026-04-22T15:39:42.999Z</time></trkpt><trkpt lat="43.81423858758329" lon="6.5929457990075075"><ele>1019.0</ele><time>2026-04-22T15:39:43.999Z</time></trkpt><trkpt lat="43.81434340730741" lon="6.592961682425875"><ele>1019.0</ele><time>2026-04-22T15:39:44.999Z</time></trkpt><trkpt lat="43.81444986814733" lon="6.592976429371444"><ele>1018.6</ele><time>2026-04-22T15:39:45.999Z</time></trkpt><trkpt lat="43.81455330376673" lon="6.592983691641812"><ele>1018.2</ele><time>2026-04-22T15:39:46.999Z</time></trkpt><trkpt lat="43.81465300638437" lon="6.592985412494793"><ele>1017.8000000000001</ele><time>2026-04-22T15:39:47.999Z</time></trkpt><trkpt lat="43.81474945621925" lon="6.592984443799922"><ele>1017.4000000000001</ele><time>2026-04-22T15:39:48.999Z</time></trkpt><trkpt lat="43.81484830356897" lon="6.592987602155011"><ele>1017.0</ele><time>2026-04-22T15:39:49.999Z</time></trkpt><trkpt lat="43.81494725244294" lon="6.59298768022006"><ele>1017.0</ele><time>2026-04-22T15:39:50.999Z</time></trkpt><trkpt lat="43.815052509499665" lon="6.592986466608895"><ele>1017.0</ele><time>2026-04-22T15:39:51.999Z</time></trkpt><trkpt lat="43.81516452754739" lon="6.592988968147824"><ele>1017.0</ele><time>2026-04-22T15:39:52.999Z</time></trkpt><trkpt lat="43.8152808214788" lon="6.592987358474808"><ele>1017.0</ele><time>2026-04-22T15:39:53.999Z</time></trkpt><trkpt lat="43.815384885792874" lon="6.59298861505401"><ele>1017.0</ele><time>2026-04-22T15:39:54.999Z</time></trkpt><trkpt lat="43.821576556202864" lon="6.58491672445938"><ele>1025.25</ele><time>2026-04-22T15:40:56Z</time></trkpt><trkpt lat="43.821689102783914" lon="6.584840478216222"><ele>1033.5</ele><time>2026-04-22T15:40:57Z</time></trkpt><trkpt lat="43.821785812982334" lon="6.584745729551577"><ele>1041.75</ele><time>2026-04-22T15:40:58Z</time></trkpt><trkpt lat="43.82187034282352" lon="6.584629612642044"><ele>1050.0</ele><time>2026-04-22T15:40:59Z</time></trkpt><trkpt lat="43.82194476754988" lon="6.584489448033871"><ele>1055.25</ele><time>2026-04-22T15:41:00Z</time></trkpt><trkpt lat="43.82199910052507" lon="6.584321288827191"><ele>1060.5</ele><time>2026-04-22T15:41:01Z</time></trkpt><trkpt lat="43.82203368047256" lon="6.584136772738448"><ele>1065.75</ele><time>2026-04-22T15:41:02Z</time></trkpt><trkpt lat="43.82205309757292" lon="6.583955907633243"><ele>1071.0</ele><time>2026-04-22T15:41:03Z</time></trkpt><trkpt lat="43.8220496519324" lon="6.583764777821604"><ele>1069.3333333333333</ele><time>2026-04-22T15:41:04Z</time></trkpt><trkpt lat="43.82202559390998" lon="6.583564613494439"><ele>1067.6666666666665</ele><time>2026-04-22T15:41:05Z</time></trkpt><trkpt lat="43.82198609646984" lon="6.583351722148742"><ele>1066.0</ele><time>2026-04-22T15:41:06Z</time></trkpt><trkpt lat="43.8219616238995" lon="6.583148258491026"><ele>1066.0</ele><time>2026-04-22T15:41:07Z</time></trkpt><trkpt lat="43.82195187667813" lon="6.5829663180142655"><ele>1066.0</ele><time>2026-04-22T15:41:08Z</time></trkpt><trkpt lat="43.82195560664451" lon="6.582786201986311"><ele>1066.0</ele><time>2026-04-22T15:41:09Z</time></trkpt><trkpt lat="43.82198289357207" lon="6.582616456682668"><ele>1066.0</ele><time>2026-04-22T15:41:10Z</time></trkpt><trkpt lat="43.822023778792136" lon="6.582455137831701"><ele>1063.75</ele><time>2026-04-22T15:41:10.999Z</time></trkpt><trkpt lat="43.82208252440153" lon="6.582295999104725"><ele>1061.5</ele><time>2026-04-22T15:41:11.999Z</time></trkpt><trkpt lat="43.82213346149228" lon="6.582131279040167"><ele>1059.25</ele><time>2026-04-22T15:41:12.999Z</time></trkpt><trkpt lat="43.82223344389548" lon="6.582009745843405"><ele>1057.0</ele><time>2026-04-22T15:41:13.999Z</time></trkpt><trkpt lat="43.82233725686632" lon="6.581883968346428"><ele>1052.0</ele><time>2026-04-22T15:41:14.999Z</time></trkpt><trkpt lat="43.82243886085451" lon="6.5817656350378835"><ele>1047.0</ele><time>2026-04-22T15:41:15.999Z</time></trkpt><trkpt lat="43.82256833161124" lon="6.581717762673858"><ele>1042.0</ele><time>2026-04-22T15:41:16.999Z</time></trkpt><trkpt lat="43.82270155254288" lon="6.581669302974545"><ele>1037.0</ele><time>2026-04-22T15:41:17.999Z</time></trkpt><trkpt lat="43.822846684687086" lon="6.581647862294957"><ele>1037.0</ele><time>2026-04-22T15:41:18.999Z</time></trkpt><trkpt lat="43.82300418205333" lon="6.581647938539318"><ele>1037.0</ele><time>2026-04-22T15:41:19.999Z</time></trkpt><trkpt lat="43.823152140433635" lon="6.581628714100053"><ele>1037.0</ele><time>2026-04-22T15:41:20.999Z</time></trkpt><trkpt lat="43.82329535353379" lon="6.581644041261614"><ele>1037.0</ele><time>2026-04-22T15:41:21.999Z</time></trkpt><trkpt lat="43.82342199294115" lon="6.581640956940842"><ele>1037.0</ele><time>2026-04-22T15:41:22.999Z</time></trkpt><trkpt lat="43.823536735004964" lon="6.5816082225472075"><ele>1037.0</ele><time>2026-04-22T15:41:23.999Z</time></trkpt><trkpt lat="43.82364501025236" lon="6.581549942351682"><ele>1037.0</ele><time>2026-04-22T15:41:24.999Z</time></trkpt><trkpt lat="43.823740732882186" lon="6.58146152975225"><ele>1039.5</ele><time>2026-04-22T15:41:25.999Z</time></trkpt><trkpt lat="43.82382078234219" lon="6.581343459722447"><ele>1042.0</ele><time>2026-04-22T15:41:26.999Z</time></trkpt><trkpt lat="43.823891069090934" lon="6.581191000861849"><ele>1044.5</ele><time>2026-04-22T15:41:27.999Z</time></trkpt><trkpt lat="43.823952731764365" lon="6.581013053707183"><ele>1047.0</ele><time>2026-04-22T15:41:28.999Z</time></trkpt><trkpt lat="43.82401014630695" lon="6.580815779620062"><ele>1047.0</ele><time>2026-04-22T15:41:29.999Z</time></trkpt><trkpt lat="43.82407018584752" lon="6.5805895170201625"><ele>1047.0</ele><time>2026-04-22T15:41:30.999Z</time></trkpt><trkpt lat="43.82413005675122" lon="6.580342405394704"><ele>1047.0</ele><time>2026-04-22T15:41:31.999Z</time></trkpt><trkpt lat="43.82419312390593" lon="6.580082298984309"><ele>1045.3333333333333</ele><time>2026-04-22T15:41:32.999Z</time></trkpt><trkpt lat="43.824251452844116" lon="6.5798420106643345"><ele>1043.6666666666665</ele><time>2026-04-22T15:41:33.999Z</time></trkpt><trkpt lat="43.824314814616976" lon="6.579585894266135"><ele>1042.0</ele><time>2026-04-22T15:41:34.999Z</time></trkpt><trkpt lat="43.8243734171352" lon="6.579340229273604"><ele>1046.0</ele><time>2026-04-22T15:41:35.999Z</time></trkpt><trkpt lat="43.82442827188326" lon="6.579116506944045"><ele>1050.0</ele><time>2026-04-22T15:41:36.999Z</time></trkpt><trkpt lat="43.82447599918785" lon="6.578911964328214"><ele>1054.0</ele><time>2026-04-22T15:41:37.999Z</time></trkpt><trkpt lat="43.82452651526869" lon="6.578724027978051"><ele>1051.75</ele><time>2026-04-22T15:41:38.999Z</time></trkpt><trkpt lat="43.82457184236959" lon="6.578553892918836"><ele>1049.5</ele><time>2026-04-22T15:41:39.999Z</time></trkpt><trkpt lat="43.82462124947256" lon="6.578402558845131"><ele>1047.25</ele><time>2026-04-22T15:41:40.999Z</time></trkpt><trkpt lat="43.824688537810076" lon="6.578267330037468"><ele>1045.0</ele><time>2026-04-22T15:41:41.999Z</time></trkpt><trkpt lat="43.82479447869007" lon="6.5781501451432804"><ele>1045.0</ele><time>2026-04-22T15:41:42.999Z</time></trkpt><trkpt lat="43.82490112791478" lon="6.578001857736488"><ele>1045.0</ele><time>2026-04-22T15:41:43.999Z</time></trkpt><trkpt lat="43.82501597846296" lon="6.577887739532681"><ele>1045.0</ele><time>2026-04-22T15:41:44.999Z</time></trkpt><trkpt lat="43.82509904770412" lon="6.577771400277186"><ele>1045.0</ele><time>2026-04-22T15:41:45.999Z</time></trkpt><trkpt lat="43.82516500696698" lon="6.577646725968499"><ele>1048.0</ele><time>2026-04-22T15:41:46.999Z</time></trkpt><trkpt lat="43.82521242583796" lon="6.577516078796949"><ele>1051.0</ele><time>2026-04-22T15:41:47.999Z</time></trkpt><trkpt lat="43.82524764129104" lon="6.577388089638389"><ele>1054.0</ele><time>2026-04-22T15:41:48.999Z</time></trkpt><trkpt lat="43.825267310532006" lon="6.577253011679763"><ele>1057.0</ele><time>2026-04-22T15:41:49.999Z</time></trkpt><trkpt lat="43.82527085192256" lon="6.577109682121921"><ele>1060.0</ele><time>2026-04-22T15:41:50.999Z</time></trkpt><trkpt lat="43.82525574918917" lon="6.576956853979567"><ele>1060.0</ele><time>2026-04-22T15:41:51.999Z</time></trkpt><trkpt lat="43.82522378087211" lon="6.57680404667132"><ele>1060.0</ele><time>2026-04-22T15:41:52.999Z</time></trkpt><trkpt lat="43.82517315469556" lon="6.5766568512262165"><ele>1060.0</ele><time>2026-04-22T15:41:53.999Z</time></trkpt><trkpt lat="43.82510976856754" lon="6.576512550522329"><ele>1060.0</ele><time>2026-04-22T15:41:54.999Z</time></trkpt><trkpt lat="43.82595341351157" lon="6.566379186228833"><ele>1036.25</ele><time>2026-04-22T15:42:56Z</time></trkpt><trkpt lat="43.82602967778982" lon="6.5664928319667055"><ele>1012.5</ele><time>2026-04-22T15:42:57Z</time></trkpt><trkpt lat="43.82609442963411" lon="6.566636153492367"><ele>988.75</ele><time>2026-04-22T15:42:58Z</time></trkpt><trkpt lat="43.826153761905005" lon="6.566808465586525"><ele>965.0</ele><time>2026-04-22T15:42:59Z</time></trkpt><trkpt lat="43.8262091309741" lon="6.566982452276621"><ele>967.0</ele><time>2026-04-22T15:43:00Z</time></trkpt><trkpt lat="43.826268982718666" lon="6.567145038048778"><ele>969.0</ele><time>2026-04-22T15:43:01Z</time></trkpt><trkpt lat="43.82633424434803" lon="6.567295856684804"><ele>971.0</ele><time>2026-04-22T15:43:02Z</time></trkpt><trkpt lat="43.826408141688226" lon="6.567417611829404"><ele>973.0</ele><time>2026-04-22T15:43:03Z</time></trkpt><trkpt lat="43.82649146555183" lon="6.567511352890661"><ele>973.0</ele><time>2026-04-22T15:43:04Z</time></trkpt><trkpt lat="43.826585939408425" lon="6.567575096639004"><ele>973.0</ele><time>2026-04-22T15:43:05Z</time></trkpt><trkpt lat="43.82669082229693" lon="6.567609376090956"><ele>973.0</ele><time>2026-04-22T15:43:06Z</time></trkpt><trkpt lat="43.8267987385625" lon="6.567617209876251"><ele>973.0</ele><time>2026-04-22T15:43:07Z</time></trkpt><trkpt lat="43.82690589175672" lon="6.567601464963406"><ele>973.0</ele><time>2026-04-22T15:43:08Z</time></trkpt><trkpt lat="43.827008000372885" lon="6.56755406561123"><ele>974.0</ele><time>2026-04-22T15:43:09Z</time></trkpt><trkpt lat="43.8271026436689" lon="6.567481409696581"><ele>975.0</ele><time>2026-04-22T15:43:10Z</time></trkpt><trkpt lat="43.82718325730028" lon="6.567381941597719"><ele>976.0</ele><time>2026-04-22T15:43:11Z</time></trkpt><trkpt lat="43.82725144916831" lon="6.567252402750457"><ele>977.0</ele><time>2026-04-22T15:43:12Z</time></trkpt><trkpt lat="43.82730780530624" lon="6.567083761690424"><ele>972.3333333333334</ele><time>2026-04-22T15:43:13Z</time></trkpt><trkpt lat="43.82735064611604" lon="6.566883040558669"><ele>967.6666666666667</ele><time>2026-04-22T15:43:14Z</time></trkpt><trkpt lat="43.82738491056897" lon="6.566666140293361"><ele>963.0</ele><time>2026-04-22T15:43:14.999Z</time></trkpt><trkpt lat="43.82742084262815" lon="6.566453870410137"><ele>963.0</ele><time>2026-04-22T15:43:15.999Z</time></trkpt><trkpt lat="43.82746116410409" lon="6.566232032065624"><ele>963.0</ele><time>2026-04-22T15:43:16.999Z</time></trkpt><trkpt lat="43.82750002620596" lon="6.566011425657946"><ele>963.0</ele><time>2026-04-22T15:43:17.999Z</time></trkpt><trkpt lat="43.82753522335477" lon="6.565801604192163"><ele>963.0</ele><time>2026-04-22T15:43:18.999Z</time></trkpt><trkpt lat="43.82756927842613" lon="6.565618487141382"><ele>963.0</ele><time>2026-04-22T15:43:19.999Z</time></trkpt><trkpt lat="43.827607936811646" lon="6.565448877431773"><ele>963.0</ele><time>2026-04-22T15:43:20.999Z</time></trkpt><trkpt lat="43.82765905830958" lon="6.565282837201509"><ele>963.0</ele><time>2026-04-22T15:43:21.999Z</time></trkpt><trkpt lat="43.82772433281429" lon="6.565129458185157"><ele>963.0</ele><time>2026-04-22T15:43:22.999Z</time></trkpt><trkpt lat="43.82780567179163" lon="6.564986078461743"><ele>963.0</ele><time>2026-04-22T15:43:23.999Z</time></trkpt><trkpt lat="43.82791514226878" lon="6.564849311163045"><ele>963.0</ele><time>2026-04-22T15:43:24.999Z</time></trkpt><trkpt lat="43.82805533060954" lon="6.564712436412222"><ele>963.0</ele><time>2026-04-22T15:43:25.999Z</time></trkpt><trkpt lat="43.82822115236761" lon="6.564564709661267"><ele>963.0</ele><time>2026-04-22T15:43:26.999Z</time></trkpt><trkpt lat="43.82839576980271" lon="6.564400522841891"><ele>963.0</ele><time>2026-04-22T15:43:27.999Z</time></trkpt><trkpt lat="43.82856347154632" lon="6.564242975736254"><ele>959.3333333333333</ele><time>2026-04-22T15:43:28.999Z</time></trkpt><trkpt lat="43.82872757414739" lon="6.564087395817304"><ele>955.6666666666666</ele><time>2026-04-22T15:43:29.999Z</time></trkpt><trkpt lat="43.82888308160994" lon="6.563937117690313"><ele>952.0</ele><time>2026-04-22T15:43:30.999Z</time></trkpt><trkpt lat="43.8290363138459" lon="6.563793659295012"><ele>948.3333333333333</ele><time>2026-04-22T15:43:31.999Z</time></trkpt><trkpt lat="43.829189292522216" lon="6.56365250678383"><ele>944.6666666666667</ele><time>2026-04-22T15:43:32.999Z</time></trkpt><trkpt lat="43.829337179788986" lon="6.563521144359676"><ele>941.0</ele><time>2026-04-22T15:43:33.999Z</time></trkpt><trkpt lat="43.82948222208842" lon="6.5633864674135936"><ele>941.0</ele><time>2026-04-22T15:43:34.999Z</time></trkpt><trkpt lat="43.8296221028678" lon="6.563258809424271"><ele>941.0</ele><time>2026-04-22T15:43:35.999Z</time></trkpt><trkpt lat="43.829757077703825" lon="6.5631332226253845"><ele>941.0</ele><time>2026-04-22T15:43:36.999Z</time></trkpt><trkpt lat="43.82988133746676" lon="6.563015189400414"><ele>941.0</ele><time>2026-04-22T15:43:37.999Z</time></trkpt><trkpt lat="43.82999365226681" lon="6.562900232024224"><ele>941.0</ele><time>2026-04-22T15:43:38.999Z</time></trkpt><trkpt lat="43.83009809576242" lon="6.562780527134464"><ele>941.0</ele><time>2026-04-22T15:43:39.999Z</time></trkpt><trkpt lat="43.83019554665823" lon="6.5626519857588015"><ele>941.0</ele><time>2026-04-22T15:43:40.999Z</time></trkpt><trkpt lat="43.83028259285749" lon="6.562515818128861"><ele>939.0</ele><time>2026-04-22T15:43:41.999Z</time></trkpt><trkpt lat="43.830353303280575" lon="6.562367140038443"><ele>937.0</ele><time>2026-04-22T15:43:42.999Z</time></trkpt><trkpt lat="43.83040859802279" lon="6.562199050054616"><ele>935.0</ele><time>2026-04-22T15:43:43.999Z</time></trkpt><trkpt lat="43.830450038052085" lon="6.5620167286895414"><ele>933.0</ele><time>2026-04-22T15:43:44.999Z</time></trkpt><trkpt lat="43.83047586001571" lon="6.561823085901962"><ele>932.6666666666667</ele><time>2026-04-22T15:43:45.999Z</time></trkpt><trkpt lat="43.83048506452191" lon="6.5616246723232585"><ele>932.3333333333334</ele><time>2026-04-22T15:43:46.999Z</time></trkpt><trkpt lat="43.83047668700877" lon="6.561412459335324"><ele>932.0</ele><time>2026-04-22T15:43:47.999Z</time></trkpt><trkpt lat="43.830459458071296" lon="6.561188205872833"><ele>932.0</ele><time>2026-04-22T15:43:48.999Z</time></trkpt><trkpt lat="43.83044446165988" lon="6.560976159210739"><ele>932.0</ele><time>2026-04-22T15:43:49.999Z</time></trkpt><trkpt lat="43.83043289507342" lon="6.5607837558658115"><ele>932.0</ele><time>2026-04-22T15:43:50.999Z</time></trkpt><trkpt lat="43.830422633498955" lon="6.5606067571532565"><ele>932.0</ele><time>2026-04-22T15:43:51.999Z</time></trkpt><trkpt lat="43.83040924772397" lon="6.560431452539073"><ele>934.6666666666667</ele><time>2026-04-22T15:43:52.999Z</time></trkpt><trkpt lat="43.83039962127596" lon="6.560252247373498"><ele>937.3333333333333</ele><time>2026-04-22T15:43:53.999Z</time></trkpt><trkpt lat="43.83039134852068" lon="6.560078234380748"><ele>940.0</ele><time>2026-04-22T15:43:54.999Z</time></trkpt><trkpt lat="43.833050202241914" lon="6.549867075945762"><ele>934.75</ele><time>2026-04-22T15:44:56Z</time></trkpt><trkpt lat="43.83313970206464" lon="6.549721136395221"><ele>929.5</ele><time>2026-04-22T15:44:57Z</time></trkpt><trkpt lat="43.83323708006501" lon="6.549591688921766"><ele>924.25</ele><time>2026-04-22T15:44:58Z</time></trkpt><trkpt lat="43.83334976582449" lon="6.549477258622882"><ele>919.0</ele><time>2026-04-22T15:44:59Z</time></trkpt><trkpt lat="43.83347175106455" lon="6.549363209028147"><ele>916.5</ele><time>2026-04-22T15:45:00Z</time></trkpt><trkpt lat="43.833589326215886" lon="6.549252188021948"><ele>914.0</ele><time>2026-04-22T15:45:01Z</time></trkpt><trkpt lat="43.83370152793559" lon="6.549167585898839"><ele>911.5</ele><time>2026-04-22T15:45:02Z</time></trkpt><trkpt lat="43.83381413231927" lon="6.549105058911427"><ele>909.0</ele><time>2026-04-22T15:45:03Z</time></trkpt><trkpt lat="43.83391841548345" lon="6.549059376623026"><ele>909.0</ele><time>2026-04-22T15:45:04Z</time></trkpt><trkpt lat="43.834015615137744" lon="6.549040060149919"><ele>909.0000000000001</ele><time>2026-04-22T15:45:05Z</time></trkpt><trkpt lat="43.83411256301177" lon="6.549043870268459"><ele>909.0000000000001</ele><time>2026-04-22T15:45:06Z</time></trkpt><trkpt lat="43.834204728426776" lon="6.549029869379643"><ele>909.0</ele><time>2026-04-22T15:45:07Z</time></trkpt><trkpt lat="43.834286606891915" lon="6.548973248186834"><ele>909.0</ele><time>2026-04-22T15:45:08Z</time></trkpt><trkpt lat="43.8343594616715" lon="6.548870582163898"><ele>909.25</ele><time>2026-04-22T15:45:09Z</time></trkpt><trkpt lat="43.834425145337306" lon="6.548733251650001"><ele>909.5</ele><time>2026-04-22T15:45:10Z</time></trkpt><trkpt lat="43.834493415425975" lon="6.548591186228433"><ele>909.75</ele><time>2026-04-22T15:45:11Z</time></trkpt><trkpt lat="43.834560796285864" lon="6.548431440274781"><ele>910.0</ele><time>2026-04-22T15:45:12Z</time></trkpt><trkpt lat="43.83462913953399" lon="6.548267318844127"><ele>910.0</ele><time>2026-04-22T15:45:13Z</time></trkpt><trkpt lat="43.83470199855398" lon="6.548121809210328"><ele>910.0</ele><time>2026-04-22T15:45:14Z</time></trkpt><trkpt lat="43.83477849652818" lon="6.547986188923604"><ele>910.0</ele><time>2026-04-22T15:45:14.999Z</time></trkpt><trkpt lat="43.83485471766393" lon="6.547852797889708"><ele>910.0</ele><time>2026-04-22T15:45:15.999Z</time></trkpt><trkpt lat="43.8349277273402" lon="6.54772475166567"><ele>906.6</ele><time>2026-04-22T15:45:16.999Z</time></trkpt><trkpt lat="43.8350136856315" lon="6.5476177302937755"><ele>903.2</ele><time>2026-04-22T15:45:17.999Z</time></trkpt><trkpt lat="43.83510827541007" lon="6.547531745063359"><ele>899.8</ele><time>2026-04-22T15:45:18.999Z</time></trkpt><trkpt lat="43.83520281970944" lon="6.5474541184564545"><ele>896.4</ele><time>2026-04-22T15:45:19.999Z</time></trkpt><trkpt lat="43.835299870964214" lon="6.547384931705781"><ele>893.0</ele><time>2026-04-22T15:45:20.999Z</time></trkpt><trkpt lat="43.83540149938218" lon="6.547329763881776"><ele>893.0</ele><time>2026-04-22T15:45:21.999Z</time></trkpt><trkpt lat="43.83551444834148" lon="6.547294747727652"><ele>893.0</ele><time>2026-04-22T15:45:22.999Z</time></trkpt><trkpt lat="43.83563586537601" lon="6.547285693638817"><ele>893.0</ele><time>2026-04-22T15:45:23.999Z</time></trkpt><trkpt lat="43.83576275498764" lon="6.54729463927041"><ele>893.0</ele><time>2026-04-22T15:45:24.999Z</time></trkpt><trkpt lat="43.835885810675585" lon="6.547312542043731"><ele>890.6666666666667</ele><time>2026-04-22T15:45:25.999Z</time></trkpt><trkpt lat="43.83599932972712" lon="6.547324972917862"><ele>888.3333333333334</ele><time>2026-04-22T15:45:26.999Z</time></trkpt><trkpt lat="43.83610014868969" lon="6.54731930117823"><ele>886.0</ele><time>2026-04-22T15:45:27.999Z</time></trkpt><trkpt lat="43.8361812312656" lon="6.547289455561996"><ele>883.6666666666667</ele><time>2026-04-22T15:45:28.999Z</time></trkpt><trkpt lat="43.83623943348166" lon="6.547232429056606"><ele>881.3333333333334</ele><time>2026-04-22T15:45:29.999Z</time></trkpt><trkpt lat="43.83627818750897" lon="6.547142183511336"><ele>879.0</ele><time>2026-04-22T15:45:30.999Z</time></trkpt><trkpt lat="43.83631089522947" lon="6.547022378036348"><ele>879.0</ele><time>2026-04-22T15:45:31.999Z</time></trkpt><trkpt lat="43.83633380129115" lon="6.5468851505745995"><ele>879.0000000000001</ele><time>2026-04-22T15:45:32.999Z</time></trkpt><trkpt lat="43.836368632833484" lon="6.546754442089969"><ele>879.0000000000001</ele><time>2026-04-22T15:45:33.999Z</time></trkpt><trkpt lat="43.83642477970405" lon="6.546636603089647"><ele>879.0</ele><time>2026-04-22T15:45:34.999Z</time></trkpt><trkpt lat="43.83650132870279" lon="6.5465375277031335"><ele>879.0</ele><time>2026-04-22T15:45:35.999Z</time></trkpt><trkpt lat="43.83658689458486" lon="6.546462258279066"><ele>879.0</ele><time>2026-04-22T15:45:36.999Z</time></trkpt><trkpt lat="43.836683630515196" lon="6.546414875678805"><ele>879.0</ele><time>2026-04-22T15:45:37.999Z</time></trkpt><trkpt lat="43.83679512271725" lon="6.54638118674801"><ele>879.0</ele><time>2026-04-22T15:45:38.999Z</time></trkpt><trkpt lat="43.836929256647316" lon="6.546371076417084"><ele>879.0</ele><time>2026-04-22T15:45:39.999Z</time></trkpt><trkpt lat="43.83707911058522" lon="6.546374426799014"><ele>881.75</ele><time>2026-04-22T15:45:40.999Z</time></trkpt><trkpt lat="43.837225920253864" lon="6.546373117504977"><ele>884.5</ele><time>2026-04-22T15:45:41.999Z</time></trkpt><trkpt lat="43.83736162424416" lon="6.5463590881235065"><ele>887.25</ele><time>2026-04-22T15:45:42.999Z</time></trkpt><trkpt lat="43.837489070449465" lon="6.546323546402206"><ele>890.0</ele><time>2026-04-22T15:45:43.999Z</time></trkpt><trkpt lat="43.83761726531689" lon="6.546249429557076"><ele>883.3333333333334</ele><time>2026-04-22T15:45:44.999Z</time></trkpt><trkpt lat="43.8377568321107" lon="6.546148313091196"><ele>876.6666666666667</ele><time>2026-04-22T15:45:45.999Z</time></trkpt><trkpt lat="43.83791007924191" lon="6.546029528698951"><ele>870.0</ele><time>2026-04-22T15:45:46.999Z</time></trkpt><trkpt lat="43.83805846664302" lon="6.545906407917655"><ele>870.0</ele><time>2026-04-22T15:45:47.999Z</time></trkpt><trkpt lat="43.83820674956956" lon="6.545790563580104"><ele>870.0</ele><time>2026-04-22T15:45:48.999Z</time></trkpt><trkpt lat="43.83836345028037" lon="6.5456831708619"><ele>870.0</ele><time>2026-04-22T15:45:49.999Z</time></trkpt><trkpt lat="43.83851809957983" lon="6.545587200621912"><ele>863.3333333333333</ele><time>2026-04-22T15:45:50.999Z</time></trkpt><trkpt lat="43.83866842229174" lon="6.545498575859568"><ele>856.6666666666666</ele><time>2026-04-22T15:45:51.999Z</time></trkpt><trkpt lat="43.83881553736613" lon="6.545402811484068"><ele>850.0</ele><time>2026-04-22T15:45:52.999Z</time></trkpt><trkpt lat="43.83895312944069" lon="6.545300356121001"><ele>850.0</ele><time>2026-04-22T15:45:53.999Z</time></trkpt><trkpt lat="43.83907665582453" lon="6.545194097767678"><ele>850.0</ele><time>2026-04-22T15:45:54.999Z</time></trkpt><trkpt lat="43.8425578097551" lon="6.547191425306097"><ele>821.0</ele><time>2026-04-22T15:46:31.998Z</time></trkpt><trkpt lat="43.84352718790457" lon="6.543584170098724"><ele>821.0</ele><time>2026-04-22T15:46:55.998Z</time></trkpt><trkpt lat="43.843570752520776" lon="6.543450027034447"><ele>821.0</ele><time>2026-04-22T15:46:56.998Z</time></trkpt><trkpt lat="43.84364009254969" lon="6.543321166738151"><ele>821.0</ele><time>2026-04-22T15:46:57.998Z</time></trkpt><trkpt lat="43.843727519956616" lon="6.543188794755949"><ele>821.0</ele><time>2026-04-22T15:46:59Z</time></trkpt><trkpt lat="43.843809597880565" lon="6.543033085894628"><ele>816.6666666666667</ele><time>2026-04-22T15:47:00Z</time></trkpt><trkpt lat="43.843882921404365" lon="6.542840176609267"><ele>812.3333333333333</ele><time>2026-04-22T15:47:01Z</time></trkpt><trkpt lat="43.843947478028376" lon="6.54262246987718"><ele>808.0</ele><time>2026-04-22T15:47:02Z</time></trkpt><trkpt lat="43.84400638269436" lon="6.542426415350072"><ele>808.0</ele><time>2026-04-22T15:47:03Z</time></trkpt><trkpt lat="43.84405658993364" lon="6.542246585019486"><ele>808.0</ele><time>2026-04-22T15:47:04Z</time></trkpt><trkpt lat="43.84409364116016" lon="6.542075034038556"><ele>808.0</ele><time>2026-04-22T15:47:05Z</time></trkpt><trkpt lat="43.8441153511442" lon="6.541911785247865"><ele>808.0</ele><time>2026-04-22T15:47:06Z</time></trkpt><trkpt lat="43.844113551187924" lon="6.54175482814055"><ele>806.25</ele><time>2026-04-22T15:47:07Z</time></trkpt><trkpt lat="43.84408893229251" lon="6.541599919457615"><ele>804.5</ele><time>2026-04-22T15:47:08Z</time></trkpt><trkpt lat="43.84404303660059" lon="6.541436440263847"><ele>802.75</ele><time>2026-04-22T15:47:09Z</time></trkpt><trkpt lat="43.84398830288654" lon="6.541266605152848"><ele>801.0</ele><time>2026-04-22T15:47:10Z</time></trkpt><trkpt lat="43.84394593324238" lon="6.541093255920381"><ele>800.0</ele><time>2026-04-22T15:47:11Z</time></trkpt><trkpt lat="43.843919943076436" lon="6.54091889383823"><ele>799.0</ele><time>2026-04-22T15:47:12Z</time></trkpt><trkpt lat="43.84391070938605" lon="6.540733814449101"><ele>798.0</ele><time>2026-04-22T15:47:13Z</time></trkpt><trkpt lat="43.8439090492985" lon="6.540543304831059"><ele>797.0</ele><time>2026-04-22T15:47:14Z</time></trkpt><trkpt lat="43.84390178311667" lon="6.5403611163908115"><ele>794.75</ele><time>2026-04-22T15:47:15Z</time></trkpt><trkpt lat="43.843892113963875" lon="6.540193842337605"><ele>792.5</ele><time>2026-04-22T15:47:16Z</time></trkpt><trkpt lat="43.843876701078145" lon="6.540039582437536"><ele>790.25</ele><time>2026-04-22T15:47:17Z</time></trkpt><trkpt lat="43.843842654786606" lon="6.539895423203934"><ele>788.0</ele><time>2026-04-22T15:47:17.999Z</time></trkpt><trkpt lat="43.84379241410595" lon="6.539763324671533"><ele>788.0</ele><time>2026-04-22T15:47:18.999Z</time></trkpt><trkpt lat="43.843730788025304" lon="6.539640680105525"><ele>788.0</ele><time>2026-04-22T15:47:19.999Z</time></trkpt><trkpt lat="43.84366297422848" lon="6.53952494766884"><ele>788.0</ele><time>2026-04-22T15:47:20.999Z</time></trkpt><trkpt lat="43.843589503293934" lon="6.5393971353596765"><ele>788.0</ele><time>2026-04-22T15:47:21.999Z</time></trkpt><trkpt lat="43.84352226926686" lon="6.5393120697645974"><ele>788.0</ele><time>2026-04-22T15:47:22.999Z</time></trkpt><trkpt lat="43.84343823685947" lon="6.5392400631851935"><ele>787.0</ele><time>2026-04-22T15:47:23.999Z</time></trkpt><trkpt lat="43.843347563800386" lon="6.539191755098422"><ele>786.0</ele><time>2026-04-22T15:47:24.999Z</time></trkpt><trkpt lat="43.843250854038224" lon="6.539152822118671"><ele>785.0</ele><time>2026-04-22T15:47:25.999Z</time></trkpt><trkpt lat="43.84314635557539" lon="6.539097073028642"><ele>784.0</ele><time>2026-04-22T15:47:26.999Z</time></trkpt><trkpt lat="43.84303686238344" lon="6.539048677986701"><ele>783.0</ele><time>2026-04-22T15:47:27.999Z</time></trkpt><trkpt lat="43.84293061195425" lon="6.53901837212308"><ele>783.0</ele><time>2026-04-22T15:47:28.999Z</time></trkpt><trkpt lat="43.84282638688564" lon="6.53900945832864"><ele>783.0</ele><time>2026-04-22T15:47:29.999Z</time></trkpt><trkpt lat="43.842725779556915" lon="6.539041114916874"><ele>783.0</ele><time>2026-04-22T15:47:30.999Z</time></trkpt><trkpt lat="43.84262806052087" lon="6.53906361461886"><ele>783.0</ele><time>2026-04-22T15:47:31.999Z</time></trkpt><trkpt lat="43.84255967211563" lon="6.539179879072232"><ele>783.0</ele><time>2026-04-22T15:47:32.999Z</time></trkpt><trkpt lat="43.84249409103254" lon="6.539273922446085"><ele>781.7142857142857</ele><time>2026-04-22T15:47:33.999Z</time></trkpt><trkpt lat="43.84243762079962" lon="6.539365119167851"><ele>780.4285714285714</ele><time>2026-04-22T15:47:34.999Z</time></trkpt><trkpt lat="43.842383208017516" lon="6.539448993422337"><ele>779.1428571428571</ele><time>2026-04-22T15:47:35.999Z</time></trkpt><trkpt lat="43.84232250470632" lon="6.539502116053236"><ele>777.8571428571429</ele><time>2026-04-22T15:47:36.999Z</time></trkpt><trkpt lat="43.842257434362175" lon="6.539515832000598"><ele>776.5714285714287</ele><time>2026-04-22T15:47:37.999Z</time></trkpt><trkpt lat="43.84219427363033" lon="6.5394907659780594"><ele>775.2857142857143</ele><time>2026-04-22T15:47:38.999Z</time></trkpt><trkpt lat="43.842139418144065" lon="6.5394257525508666"><ele>774.0</ele><time>2026-04-22T15:47:39.999Z</time></trkpt><trkpt lat="43.8421198073558" lon="6.539322973467046"><ele>774.0</ele><time>2026-04-22T15:47:40.999Z</time></trkpt><trkpt lat="43.842101441641155" lon="6.539199191451322"><ele>774.0</ele><time>2026-04-22T15:47:41.999Z</time></trkpt><trkpt lat="43.84209563392461" lon="6.539048196250653"><ele>774.0</ele><time>2026-04-22T15:47:42.999Z</time></trkpt><trkpt lat="43.84206606467609" lon="6.538865935934577"><ele>774.0</ele><time>2026-04-22T15:47:43.999Z</time></trkpt><trkpt lat="43.8420527801536" lon="6.538657693685132"><ele>774.5</ele><time>2026-04-22T15:47:44.999Z</time></trkpt><trkpt lat="43.84205141885275" lon="6.538451499529603"><ele>775.0</ele><time>2026-04-22T15:47:45.999Z</time></trkpt><trkpt lat="43.842042432231715" lon="6.538282744020636"><ele>775.5</ele><time>2026-04-22T15:47:46.999Z</time></trkpt><trkpt lat="43.842048408944095" lon="6.538106819773036"><ele>776.0</ele><time>2026-04-22T15:47:47.999Z</time></trkpt><trkpt lat="43.842078393106114" lon="6.5379071605031625"><ele>774.6666666666667</ele><time>2026-04-22T15:47:48.999Z</time></trkpt><trkpt lat="43.84212874667945" lon="6.537679265876155"><ele>773.3333333333333</ele><time>2026-04-22T15:47:49.999Z</time></trkpt><trkpt lat="43.84215340928356" lon="6.537433586305805"><ele>772.0</ele><time>2026-04-22T15:47:50.999Z</time></trkpt><trkpt lat="43.842251880509025" lon="6.537216561920986"><ele>768.0</ele><time>2026-04-22T15:47:51.999Z</time></trkpt><trkpt lat="43.84230692846589" lon="6.536999582502156"><ele>764.0</ele><time>2026-04-22T15:47:52.999Z</time></trkpt><trkpt lat="43.84235936970272" lon="6.5367891726977545"><ele>760.0</ele><time>2026-04-22T15:47:53.999Z</time></trkpt><trkpt lat="43.8424073208815" lon="6.5366031395909205"><ele>733.0</ele><time>2026-04-22T15:47:54.999Z</time></trkpt><trkpt lat="43.842188385861974" lon="6.525975414716684"><ele>733.0</ele><time>2026-04-22T15:48:55.998Z</time></trkpt><trkpt lat="43.842251324855056" lon="6.5258021636083035"><ele>733.0</ele><time>2026-04-22T15:48:56.998Z</time></trkpt><trkpt lat="43.842317042884005" lon="6.525626021832949"><ele>733.0</ele><time>2026-04-22T15:48:57.998Z</time></trkpt><trkpt lat="43.84240557309793" lon="6.525442243260343"><ele>733.0</ele><time>2026-04-22T15:48:58.998Z</time></trkpt><trkpt lat="43.84248368998602" lon="6.525264213389908"><ele>731.75</ele><time>2026-04-22T15:48:59.998Z</time></trkpt><trkpt lat="43.84255288097614" lon="6.5250998815356285"><ele>730.5</ele><time>2026-04-22T15:49:00.998Z</time></trkpt><trkpt lat="43.842614245203066" lon="6.5249461724708455"><ele>729.25</ele><time>2026-04-22T15:49:01.998Z</time></trkpt><trkpt lat="43.84266695752642" lon="6.524794967052272"><ele>728.0</ele><time>2026-04-22T15:49:02.998Z</time></trkpt><trkpt lat="43.84271026991847" lon="6.524632376606601"><ele>728.25</ele><time>2026-04-22T15:49:03.998Z</time></trkpt><trkpt lat="43.84274596465631" lon="6.524453312492219"><ele>728.5</ele><time>2026-04-22T15:49:05Z</time></trkpt><trkpt lat="43.842774264175986" lon="6.524263101353927"><ele>728.75</ele><time>2026-04-22T15:49:06Z</time></trkpt><trkpt lat="43.842817333804874" lon="6.5240694301230935"><ele>729.0</ele><time>2026-04-22T15:49:07Z</time></trkpt><trkpt lat="43.84287759531602" lon="6.523870770557978"><ele>729.6666666666666</ele><time>2026-04-22T15:49:08Z</time></trkpt><trkpt lat="43.8429384497753" lon="6.523653538663169"><ele>730.3333333333333</ele><time>2026-04-22T15:49:09Z</time></trkpt><trkpt lat="43.84299637870645" lon="6.523419520728066"><ele>731.0</ele><time>2026-04-22T15:49:10Z</time></trkpt><trkpt lat="43.84306421157075" lon="6.52318394034731"><ele>731.0</ele><time>2026-04-22T15:49:11Z</time></trkpt><trkpt lat="43.84312499400752" lon="6.5229518688329495"><ele>731.0</ele><time>2026-04-22T15:49:12Z</time></trkpt><trkpt lat="43.84318424693262" lon="6.522738554508326"><ele>731.0</ele><time>2026-04-22T15:49:13Z</time></trkpt><trkpt lat="43.84324430016691" lon="6.522520950329981"><ele>730.3333333333333</ele><time>2026-04-22T15:49:14Z</time></trkpt><trkpt lat="43.84330976966046" lon="6.522302305324932"><ele>729.6666666666666</ele><time>2026-04-22T15:49:15Z</time></trkpt><trkpt lat="43.84338588118766" lon="6.522083979951728"><ele>729.0</ele><time>2026-04-22T15:49:16Z</time></trkpt><trkpt lat="43.84347564170013" lon="6.521858311920678"><ele>729.0</ele><time>2026-04-22T15:49:17Z</time></trkpt><trkpt lat="43.84358730232454" lon="6.521635110400537"><ele>729.0</ele><time>2026-04-22T15:49:18Z</time></trkpt><trkpt lat="43.84371465874639" lon="6.521430269813554"><ele>729.0</ele><time>2026-04-22T15:49:19Z</time></trkpt><trkpt lat="43.84383383959168" lon="6.52123094353175"><ele>732.6666666666666</ele><time>2026-04-22T15:49:20Z</time></trkpt><trkpt lat="43.84394301942408" lon="6.521048116236601"><ele>736.3333333333333</ele><time>2026-04-22T15:49:21Z</time></trkpt><trkpt lat="43.84403993672202" lon="6.520875958465308"><ele>740.0</ele><time>2026-04-22T15:49:22Z</time></trkpt><trkpt lat="43.84412524576631" lon="6.520708798666972"><ele>740.0</ele><time>2026-04-22T15:49:22.999Z</time></trkpt><trkpt lat="43.844200592682434" lon="6.520525102751811"><ele>740.0</ele><time>2026-04-22T15:49:23.999Z</time></trkpt><trkpt lat="43.844269468019924" lon="6.52032073035262"><ele>740.0</ele><time>2026-04-22T15:49:24.999Z</time></trkpt><trkpt lat="43.8443299233844" lon="6.52009779725831"><ele>736.0</ele><time>2026-04-22T15:49:25.999Z</time></trkpt><trkpt lat="43.84438612970149" lon="6.519863639544135"><ele>732.0</ele><time>2026-04-22T15:49:26.999Z</time></trkpt><trkpt lat="43.84444469975111" lon="6.519614050083725"><ele>728.0</ele><time>2026-04-22T15:49:27.999Z</time></trkpt><trkpt lat="43.84450991706275" lon="6.519361938691402"><ele>728.0</ele><time>2026-04-22T15:49:28.999Z</time></trkpt><trkpt lat="43.84457736083049" lon="6.5191046480414006"><ele>728.0</ele><time>2026-04-22T15:49:29.999Z</time></trkpt><trkpt lat="43.84464564785128" lon="6.518844461079251"><ele>728.0</ele><time>2026-04-22T15:49:30.999Z</time></trkpt><trkpt lat="43.844709513372244" lon="6.518598367980955"><ele>731.6666666666666</ele><time>2026-04-22T15:49:31.999Z</time></trkpt><trkpt lat="43.84477097174632" lon="6.518368040640529"><ele>735.3333333333334</ele><time>2026-04-22T15:49:32.999Z</time></trkpt><trkpt lat="43.844832107724145" lon="6.51815651366279"><ele>739.0</ele><time>2026-04-22T15:49:33.999Z</time></trkpt><trkpt lat="43.84489567809806" lon="6.517955619630846"><ele>743.5</ele><time>2026-04-22T15:49:34.999Z</time></trkpt><trkpt lat="43.844956987151434" lon="6.517770643452319"><ele>748.0</ele><time>2026-04-22T15:49:35.999Z</time></trkpt><trkpt lat="43.84501226619029" lon="6.517602202039262"><ele>752.5</ele><time>2026-04-22T15:49:36.999Z</time></trkpt><trkpt lat="43.84505897322413" lon="6.51743870798173"><ele>757.0</ele><time>2026-04-22T15:49:37.999Z</time></trkpt><trkpt lat="43.84509302088797" lon="6.517266098281837"><ele>757.0</ele><time>2026-04-22T15:49:38.999Z</time></trkpt><trkpt lat="43.84511932619792" lon="6.517084700806311"><ele>757.0</ele><time>2026-04-22T15:49:39.999Z</time></trkpt><trkpt lat="43.8451349841697" lon="6.516899865427896"><ele>757.0</ele><time>2026-04-22T15:49:40.999Z</time></trkpt><trkpt lat="43.84514139988604" lon="6.516708483078868"><ele>757.0</ele><time>2026-04-22T15:49:41.999Z</time></trkpt><trkpt lat="43.84514830538712" lon="6.516521071486534"><ele>750.6</ele><time>2026-04-22T15:49:42.999Z</time></trkpt><trkpt lat="43.8451558662768" lon="6.516357233502508"><ele>744.2</ele><time>2026-04-22T15:49:43.999Z</time></trkpt><trkpt lat="43.84515726828562" lon="6.516213704338769"><ele>737.8</ele><time>2026-04-22T15:49:44.999Z</time></trkpt><trkpt lat="43.845157317032864" lon="6.5160755112055595"><ele>731.4</ele><time>2026-04-22T15:49:45.999Z</time></trkpt><trkpt lat="43.84515022306151" lon="6.515939129335716"><ele>725.0</ele><time>2026-04-22T15:49:46.999Z</time></trkpt><trkpt lat="43.84513965833575" lon="6.515793262170591"><ele>725.0</ele><time>2026-04-22T15:49:47.999Z</time></trkpt><trkpt lat="43.84513014779396" lon="6.515636521657683"><ele>725.0</ele><time>2026-04-22T15:49:48.999Z</time></trkpt><trkpt lat="43.8451247770176" lon="6.515487434064335"><ele>725.0</ele><time>2026-04-22T15:49:49.999Z</time></trkpt><trkpt lat="43.84511927994988" lon="6.515355786045315"><ele>725.0</ele><time>2026-04-22T15:49:50.999Z</time></trkpt><trkpt lat="43.8451157411251" lon="6.515241216435804"><ele>725.0</ele><time>2026-04-22T15:49:51.999Z</time></trkpt><trkpt lat="43.84511946202072" lon="6.515142040324736"><ele>727.0</ele><time>2026-04-22T15:49:52.999Z</time></trkpt><trkpt lat="43.84512853413345" lon="6.51505516771678"><ele>729.0</ele><time>2026-04-22T15:49:53.999Z</time></trkpt><trkpt lat="43.84494525063797" lon="6.51427402479677"><ele>729.0</ele><time>2026-04-22T15:50:55.999Z</time></trkpt><trkpt lat="43.845008133102716" lon="6.514334807288859"><ele>729.0</ele><time>2026-04-22T15:51:13.001Z</time></trkpt><trkpt lat="43.84506020129926" lon="6.514233018530431"><ele>729.0</ele><time>2026-04-22T15:51:16.001Z</time></trkpt><trkpt lat="43.84502851748124" lon="6.514156359052386"><ele>729.0</ele><time>2026-04-22T15:51:18.001Z</time></trkpt><trkpt lat="43.84493917090702" lon="6.514108175860731"><ele>729.0</ele><time>2026-04-22T15:51:20.001Z</time></trkpt><trkpt lat="43.84487554209468" lon="6.514117441897121"><ele>729.0</ele><time>2026-04-22T15:51:21.001Z</time></trkpt><trkpt lat="43.84481435294064" lon="6.5141408178091"><ele>729.0</ele><time>2026-04-22T15:51:24.001Z</time></trkpt><trkpt lat="43.84482143909319" lon="6.514288592599971"><ele>729.0</ele><time>2026-04-22T15:51:28Z</time></trkpt><trkpt lat="43.844841579374204" lon="6.514379418190998"><ele>729.0</ele><time>2026-04-22T15:51:29Z</time></trkpt><trkpt lat="43.844869836538564" lon="6.514496387975067"><ele>729.0</ele><time>2026-04-22T15:51:30Z</time></trkpt><trkpt lat="43.844897017875" lon="6.514596953968508"><ele>729.0</ele><time>2026-04-22T15:51:31Z</time></trkpt><trkpt lat="43.84492282536475" lon="6.514680500706457"><ele>729.0</ele><time>2026-04-22T15:51:32Z</time></trkpt><trkpt lat="43.84496215947787" lon="6.514808700145689"><ele>730.0</ele><time>2026-04-22T15:51:34Z</time></trkpt><trkpt lat="43.844981669520195" lon="6.514896500443135"><ele>731.0</ele><time>2026-04-22T15:51:36Z</time></trkpt><trkpt lat="43.842983057388196" lon="6.523412409606325"><ele>731.0</ele><time>2026-04-22T15:52:55.999Z</time></trkpt><trkpt lat="43.84291331273976" lon="6.523653686851442"><ele>731.0</ele><time>2026-04-22T15:52:56.999Z</time></trkpt><trkpt lat="43.84284854786286" lon="6.523894175034381"><ele>731.0</ele><time>2026-04-22T15:52:57.999Z</time></trkpt><trkpt lat="43.842790736144586" lon="6.524131463662962"><ele>730.3333333333333</ele><time>2026-04-22T15:52:58.999Z</time></trkpt><trkpt lat="43.8427403407138" lon="6.524355812976046"><ele>729.6666666666666</ele><time>2026-04-22T15:52:59.999Z</time></trkpt><trkpt lat="43.842694688824466" lon="6.52455186078762"><ele>729.0</ele><time>2026-04-22T15:53:00.999Z</time></trkpt><trkpt lat="43.84265436485004" lon="6.524728507282406"><ele>734.0</ele><time>2026-04-22T15:53:01.999Z</time></trkpt><trkpt lat="43.842600806641414" lon="6.524895074759232"><ele>739.0</ele><time>2026-04-22T15:53:02.999Z</time></trkpt><trkpt lat="43.84253715634" lon="6.525050797968527"><ele>744.0</ele><time>2026-04-22T15:53:03.999Z</time></trkpt><trkpt lat="43.84247657592974" lon="6.525199313767217"><ele>749.0</ele><time>2026-04-22T15:53:04.999Z</time></trkpt><trkpt lat="43.842412893411606" lon="6.525342480875191"><ele>745.8000000000001</ele><time>2026-04-22T15:53:05.999Z</time></trkpt><trkpt lat="43.842347073734835" lon="6.5254831804037305"><ele>742.6</ele><time>2026-04-22T15:53:06.999Z</time></trkpt><trkpt lat="43.842289920170565" lon="6.525619697803495"><ele>739.4</ele><time>2026-04-22T15:53:07.999Z</time></trkpt><trkpt lat="43.842236115770554" lon="6.525750995127096"><ele>736.2</ele><time>2026-04-22T15:53:08.999Z</time></trkpt><trkpt lat="43.84218808135425" lon="6.525877815491176"><ele>733.0</ele><time>2026-04-22T15:53:09.999Z</time></trkpt><trkpt lat="43.84214546169565" lon="6.525998902061482"><ele>733.0</ele><time>2026-04-22T15:53:10.999Z</time></trkpt><trkpt lat="43.84211235763078" lon="6.52611265201397"><ele>733.0</ele><time>2026-04-22T15:53:11.999Z</time></trkpt><trkpt lat="43.84209035613928" lon="6.526212694476493"><ele>733.0</ele><time>2026-04-22T15:53:12.999Z</time></trkpt><trkpt lat="43.84205313662922" lon="6.526336932559228"><ele>733.0</ele><time>2026-04-22T15:53:14.999Z</time></trkpt><trkpt lat="43.84199323328188" lon="6.52637223406799"><ele>733.0</ele><time>2026-04-22T15:53:17Z</time></trkpt><trkpt lat="43.84188682965084" lon="6.526356100721223"><ele>733.0</ele><time>2026-04-22T15:53:19Z</time></trkpt><trkpt lat="43.84182165750225" lon="6.526367851019597"><ele>734.5</ele><time>2026-04-22T15:53:20Z</time></trkpt><trkpt lat="43.84172861421049" lon="6.5264613052810425"><ele>736.0</ele><time>2026-04-22T15:53:22Z</time></trkpt><trkpt lat="43.84170690775667" lon="6.526544836062736"><ele>737.5</ele><time>2026-04-22T15:53:23Z</time></trkpt><trkpt lat="43.84170063252477" lon="6.526650877456324"><ele>739.0</ele><time>2026-04-22T15:53:24Z</time></trkpt><trkpt lat="43.84167904689004" lon="6.526924761493242"><ele>738.25</ele><time>2026-04-22T15:53:26Z</time></trkpt><trkpt lat="43.841660213404566" lon="6.527090085455364"><ele>737.5</ele><time>2026-04-22T15:53:27Z</time></trkpt><trkpt lat="43.841638286856785" lon="6.527235019520837"><ele>736.75</ele><time>2026-04-22T15:53:28Z</time></trkpt><trkpt lat="43.84163030836426" lon="6.527389397199961"><ele>736.0</ele><time>2026-04-22T15:53:29Z</time></trkpt><trkpt lat="43.84163055746231" lon="6.527555226612423"><ele>736.0</ele><time>2026-04-22T15:53:30Z</time></trkpt><trkpt lat="43.841628503173965" lon="6.527703585865496"><ele>736.0</ele><time>2026-04-22T15:53:31Z</time></trkpt><trkpt lat="43.84161614411451" lon="6.527840567810524"><ele>736.0</ele><time>2026-04-22T15:53:32Z</time></trkpt><trkpt lat="43.84158080967447" lon="6.527986021803092"><ele>736.0</ele><time>2026-04-22T15:53:33Z</time></trkpt><trkpt lat="43.841518618581865" lon="6.528133516196256"><ele>736.0</ele><time>2026-04-22T15:53:34Z</time></trkpt><trkpt lat="43.84145357941905" lon="6.528294132246275"><ele>735.4</ele><time>2026-04-22T15:53:35Z</time></trkpt><trkpt lat="43.84138912653386" lon="6.52846550653527"><ele>734.8</ele><time>2026-04-22T15:53:36Z</time></trkpt><trkpt lat="43.841344609163485" lon="6.528627119814327"><ele>734.1999999999999</ele><time>2026-04-22T15:53:37Z</time></trkpt><trkpt lat="43.841314794212444" lon="6.528761179844487"><ele>733.5999999999999</ele><time>2026-04-22T15:53:38Z</time></trkpt><trkpt lat="43.841303684675204" lon="6.528873406721385"><ele>733.0</ele><time>2026-04-22T15:53:39Z</time></trkpt><trkpt lat="43.84130536092808" lon="6.5289754410294965"><ele>733.0</ele><time>2026-04-22T15:53:40Z</time></trkpt><trkpt lat="43.84131593525284" lon="6.529079155773394"><ele>733.0</ele><time>2026-04-22T15:53:41Z</time></trkpt><trkpt lat="43.841327276521845" lon="6.52919627519201"><ele>733.0</ele><time>2026-04-22T15:53:42Z</time></trkpt><trkpt lat="43.841333480150226" lon="6.52934400315331"><ele>733.0</ele><time>2026-04-22T15:53:43Z</time></trkpt><trkpt lat="43.8413354361379" lon="6.529511388658185"><ele>733.0</ele><time>2026-04-22T15:53:44Z</time></trkpt><trkpt lat="43.8413414443071" lon="6.5296858113679965"><ele>733.0</ele><time>2026-04-22T15:53:45Z</time></trkpt><trkpt lat="43.8413531650225" lon="6.52985368401317"><ele>733.0</ele><time>2026-04-22T15:53:46Z</time></trkpt><trkpt lat="43.8413620869528" lon="6.529997359002498"><ele>733.0</ele><time>2026-04-22T15:53:47Z</time></trkpt><trkpt lat="43.84135626822736" lon="6.530113375332068"><ele>733.0</ele><time>2026-04-22T15:53:48Z</time></trkpt><trkpt lat="43.841333679791056" lon="6.530222533844297"><ele>733.0</ele><time>2026-04-22T15:53:49Z</time></trkpt><trkpt lat="43.84130479624462" lon="6.530343553062211"><ele>733.4</ele><time>2026-04-22T15:53:50Z</time></trkpt><trkpt lat="43.841264255118645" lon="6.5304702724402075"><ele>733.8</ele><time>2026-04-22T15:53:51Z</time></trkpt><trkpt lat="43.84123896923795" lon="6.530604690219395"><ele>734.2</ele><time>2026-04-22T15:53:52Z</time></trkpt><trkpt lat="43.84123017134032" lon="6.530756816059321"><ele>734.6</ele><time>2026-04-22T15:53:53Z</time></trkpt><trkpt lat="43.84123757988124" lon="6.53091965683958"><ele>735.0</ele><time>2026-04-22T15:53:54Z</time></trkpt><trkpt lat="43.84123067409787" lon="6.531072233218344"><ele>757.0</ele><time>2026-04-22T15:53:55Z</time></trkpt><trkpt lat="43.839398993518216" lon="6.539041994961388"><ele>757.0</ele><time>2026-04-22T15:54:55.999Z</time></trkpt><trkpt lat="43.83934866658861" lon="6.539196736098188"><ele>757.0</ele><time>2026-04-22T15:54:56.999Z</time></trkpt><trkpt lat="43.83929966475338" lon="6.53933610916282"><ele>757.0</ele><time>2026-04-22T15:54:57.999Z</time></trkpt><trkpt lat="43.83925934842022" lon="6.5394692868365585"><ele>757.0</ele><time>2026-04-22T15:54:58.999Z</time></trkpt><trkpt lat="43.83921777385348" lon="6.539598058189932"><ele>757.0</ele><time>2026-04-22T15:54:59.999Z</time></trkpt><trkpt lat="43.83917472703772" lon="6.539718536104949"><ele>757.5</ele><time>2026-04-22T15:55:00.999Z</time></trkpt><trkpt lat="43.83913694471726" lon="6.539820963470601"><ele>758.0</ele><time>2026-04-22T15:55:01.999Z</time></trkpt><trkpt lat="43.83910403050403" lon="6.539906449516868"><ele>758.5</ele><time>2026-04-22T15:55:02.999Z</time></trkpt><trkpt lat="43.83905199490635" lon="6.5400273961361375"><ele>759.0</ele><time>2026-04-22T15:55:04.999Z</time></trkpt><trkpt lat="43.83900555575108" lon="6.540124368851295"><ele>759.5</ele><time>2026-04-22T15:55:06.999Z</time></trkpt><trkpt lat="43.83895645361575" lon="6.540219165129317"><ele>760.0</ele><time>2026-04-22T15:55:09.999Z</time></trkpt><trkpt lat="43.83889018100887" lon="6.5403207627800795"><ele>759.6</ele><time>2026-04-22T15:55:12.999Z</time></trkpt><trkpt lat="43.838809355533066" lon="6.540422437478671"><ele>759.2</ele><time>2026-04-22T15:55:14.999Z</time></trkpt><trkpt lat="43.83874612765075" lon="6.540511757360806"><ele>758.8</ele><time>2026-04-22T15:55:16.999Z</time></trkpt><trkpt lat="43.838701426469264" lon="6.5405917718773265"><ele>758.4</ele><time>2026-04-22T15:55:18.999Z</time></trkpt><trkpt lat="43.83861084209728" lon="6.540733925783268"><ele>758.0</ele><time>2026-04-22T15:55:20.999Z</time></trkpt><trkpt lat="43.83855111120482" lon="6.540824793821797"><ele>758.0</ele><time>2026-04-22T15:55:21.999Z</time></trkpt><trkpt lat="43.838496168960006" lon="6.540909746158218"><ele>758.0</ele><time>2026-04-22T15:55:23Z</time></trkpt><trkpt lat="43.83843596057502" lon="6.541002032646352"><ele>758.0</ele><time>2026-04-22T15:55:24Z</time></trkpt><trkpt lat="43.83838300196521" lon="6.541090221982436"><ele>758.0</ele><time>2026-04-22T15:55:25Z</time></trkpt><trkpt lat="43.83833935554534" lon="6.541169613920438"><ele>758.0</ele><time>2026-04-22T15:55:26Z</time></trkpt><trkpt lat="43.83829997629073" lon="6.541253202281219"><ele>758.0</ele><time>2026-04-22T15:55:27Z</time></trkpt><trkpt lat="43.838264583163266" lon="6.541334920974655"><ele>758.5</ele><time>2026-04-22T15:55:28Z</time></trkpt><trkpt lat="43.83822376741322" lon="6.541461664157584"><ele>759.0</ele><time>2026-04-22T15:55:30Z</time></trkpt><trkpt lat="43.83819442252802" lon="6.541575184762742"><ele>759.5</ele><time>2026-04-22T15:55:34Z</time></trkpt><trkpt lat="43.838208039970056" lon="6.541687052944815"><ele>760.0</ele><time>2026-04-22T15:55:36Z</time></trkpt><trkpt lat="43.83824215790953" lon="6.5417806518244515"><ele>760.5</ele><time>2026-04-22T15:55:38Z</time></trkpt><trkpt lat="43.838268848076446" lon="6.541866145692672"><ele>761.0</ele><time>2026-04-22T15:55:40Z</time></trkpt><trkpt lat="43.83835247514259" lon="6.541883642096627"><ele>761.0</ele><time>2026-04-22T15:55:44Z</time></trkpt><trkpt lat="43.83843334967409" lon="6.541789025406197"><ele>761.0</ele><time>2026-04-22T15:55:46Z</time></trkpt><trkpt lat="43.83848239129507" lon="6.541725711885558"><ele>761.0</ele><time>2026-04-22T15:55:47Z</time></trkpt><trkpt lat="43.838537577541814" lon="6.541673675778542"><ele>761.0</ele><time>2026-04-22T15:55:48Z</time></trkpt><trkpt lat="43.83862903544873" lon="6.541628255534124"><ele>761.0</ele><time>2026-04-22T15:55:50Z</time></trkpt><trkpt lat="43.83870170898127" lon="6.541612150438028"><ele>761.0</ele><time>2026-04-22T15:55:52Z</time></trkpt><trkpt lat="43.83877679961843" lon="6.54163849895064"><ele>759.5</ele><time>2026-04-22T15:55:54Z</time></trkpt><trkpt lat="43.83921001698558" lon="6.541626989341508"><ele>758.0</ele><time>2026-04-22T15:57:56Z</time></trkpt><trkpt lat="43.839221184399314" lon="6.5417295947616125"><ele>758.0</ele><time>2026-04-22T15:58:09Z</time></trkpt><trkpt lat="43.83926259503537" lon="6.541812045112512"><ele>758.0</ele><time>2026-04-22T15:58:14Z</time></trkpt><trkpt lat="43.83906702008546" lon="6.540921573814195"><ele>758.0</ele><time>2026-04-22T16:01:55.999Z</time></trkpt><trkpt lat="43.83905537353475" lon="6.540833172860993"><ele>758.0</ele><time>2026-04-22T16:01:59.999Z</time></trkpt></trkseg></trk></gpx>